<?xml version="1.0" encoding="UTF-8"?>
<gpx xmlns="http://www.topografix.com/GPX/1/1" version="1.1" creator="Nokia Sports Tracker" xmlns:xsi="http://www.w3.org/2001/XMLSchema-instance" xsi:schemaLocation="http://www.topografix.com/GPX/1/1 http://www.topografix.com/GPX/1/1/gpx.xsd">
<metadata>
<name>24.09.2011 09.13</name>
<desc>Ciclismo</desc>
<author><name>Oscar</name></author>
<time>2011-09-24T09:35:06.80</time>
</metadata>
<trk>
<name>24.09.2011 09.13</name>
<trkseg>
<trkpt lat="41.829547" lon="-1.680757">
<ele>658.0</ele>
<speed>5.6</speed>
<course>232.9</course>
<desc>Speed 5.6 km/h Distance 0.00 km</desc>
<time>2011-09-24T09:35:07.14</time>
<name>1</name>
</trkpt>
<trkpt lat="41.829532" lon="-1.680783">
<ele>658.0</ele>
<speed>4.8</speed>
<course>253.4</course>
<desc>Speed 4.8 km/h Distance 0.00 km</desc>
<time>2011-09-24T09:35:09.14</time>
<name>2</name>
</trkpt>
<trkpt lat="41.829528" lon="-1.680798">
<ele>658.0</ele>
<speed>4.9</speed>
<course>240.8</course>
<desc>Speed 4.9 km/h Distance 0.00 km</desc>
<time>2011-09-24T09:35:10.14</time>
<name>3</name>
</trkpt>
<trkpt lat="41.829520" lon="-1.680818">
<ele>658.5</ele>
<speed>6.8</speed>
<course>236.2</course>
<desc>Speed 6.8 km/h Distance 0.01 km</desc>
<time>2011-09-24T09:35:11.16</time>
<name>4</name>
</trkpt>
<trkpt lat="41.829508" lon="-1.680842">
<ele>658.5</ele>
<speed>8.4</speed>
<course>237.9</course>
<desc>Speed 8.4 km/h Distance 0.01 km</desc>
<time>2011-09-24T09:35:12.28</time>
<name>5</name>
</trkpt>
<trkpt lat="41.829485" lon="-1.680892">
<ele>658.5</ele>
<speed>8.9</speed>
<course>254.2</course>
<desc>Speed 8.9 km/h Distance 0.01 km</desc>
<time>2011-09-24T09:35:14.13</time>
<name>6</name>
</trkpt>
<trkpt lat="41.829478" lon="-1.680923">
<ele>659.0</ele>
<speed>10.0</speed>
<course>270.0</course>
<desc>Speed 10.0 km/h Distance 0.02 km</desc>
<time>2011-09-24T09:35:15.13</time>
<name>7</name>
</trkpt>
<trkpt lat="41.829478" lon="-1.680955">
<ele>659.0</ele>
<speed>9.5</speed>
<course>283.3</course>
<desc>Speed 9.5 km/h Distance 0.02 km</desc>
<time>2011-09-24T09:35:16.13</time>
<name>8</name>
</trkpt>
<trkpt lat="41.829483" lon="-1.680983">
<ele>659.5</ele>
<speed>8.9</speed>
<course>273.5</course>
<desc>Speed 8.9 km/h Distance 0.02 km</desc>
<time>2011-09-24T09:35:17.13</time>
<name>9</name>
</trkpt>
<trkpt lat="41.829485" lon="-1.681020">
<ele>659.5</ele>
<speed>11.1</speed>
<course>245.0</course>
<desc>Speed 11.1 km/h Distance 0.02 km</desc>
<time>2011-09-24T09:35:18.12</time>
<name>10</name>
</trkpt>
<trkpt lat="41.829472" lon="-1.681058">
<ele>659.5</ele>
<speed>12.6</speed>
<course>238.6</course>
<desc>Speed 12.6 km/h Distance 0.03 km</desc>
<time>2011-09-24T09:35:19.12</time>
<name>11</name>
</trkpt>
<trkpt lat="41.829455" lon="-1.681095">
<ele>659.5</ele>
<speed>13.4</speed>
<course>236.1</course>
<desc>Speed 13.4 km/h Distance 0.03 km</desc>
<time>2011-09-24T09:35:20.16</time>
<name>12</name>
</trkpt>
<trkpt lat="41.829437" lon="-1.681132">
<ele>659.5</ele>
<speed>13.1</speed>
<course>235.0</course>
<desc>Speed 13.1 km/h Distance 0.03 km</desc>
<time>2011-09-24T09:35:21.12</time>
<name>13</name>
</trkpt>
<trkpt lat="41.829417" lon="-1.681170">
<ele>660.0</ele>
<speed>13.6</speed>
<course>233.8</course>
<desc>Speed 13.6 km/h Distance 0.04 km</desc>
<time>2011-09-24T09:35:22.12</time>
<name>14</name>
</trkpt>
<trkpt lat="41.829397" lon="-1.681207">
<ele>660.0</ele>
<speed>13.8</speed>
<course>231.6</course>
<desc>Speed 13.8 km/h Distance 0.04 km</desc>
<time>2011-09-24T09:35:23.12</time>
<name>15</name>
</trkpt>
<trkpt lat="41.829375" lon="-1.681243">
<ele>660.0</ele>
<speed>14.3</speed>
<course>230.8</course>
<desc>Speed 14.3 km/h Distance 0.05 km</desc>
<time>2011-09-24T09:35:24.12</time>
<name>16</name>
</trkpt>
<trkpt lat="41.829352" lon="-1.681282">
<ele>660.0</ele>
<speed>14.7</speed>
<course>231.6</course>
<desc>Speed 14.7 km/h Distance 0.05 km</desc>
<time>2011-09-24T09:35:25.11</time>
<name>17</name>
</trkpt>
<trkpt lat="41.829330" lon="-1.681318">
<ele>660.0</ele>
<speed>14.1</speed>
<course>231.6</course>
<desc>Speed 14.1 km/h Distance 0.05 km</desc>
<time>2011-09-24T09:35:26.11</time>
<name>18</name>
</trkpt>
<trkpt lat="41.829308" lon="-1.681355">
<ele>660.5</ele>
<speed>13.8</speed>
<course>228.2</course>
<desc>Speed 13.8 km/h Distance 0.06 km</desc>
<time>2011-09-24T09:35:27.11</time>
<name>19</name>
</trkpt>
<trkpt lat="41.829285" lon="-1.681390">
<ele>660.5</ele>
<speed>14.1</speed>
<course>232.8</course>
<desc>Speed 14.1 km/h Distance 0.06 km</desc>
<time>2011-09-24T09:35:28.18</time>
<name>20</name>
</trkpt>
<trkpt lat="41.829263" lon="-1.681428">
<ele>660.5</ele>
<speed>14.1</speed>
<course>233.8</course>
<desc>Speed 14.1 km/h Distance 0.07 km</desc>
<time>2011-09-24T09:35:29.11</time>
<name>21</name>
</trkpt>
<trkpt lat="41.829243" lon="-1.681465">
<ele>661.0</ele>
<speed>14.2</speed>
<course>229.5</course>
<desc>Speed 14.2 km/h Distance 0.07 km</desc>
<time>2011-09-24T09:35:30.11</time>
<name>22</name>
</trkpt>
<trkpt lat="41.829220" lon="-1.681502">
<ele>661.0</ele>
<speed>14.1</speed>
<course>225.3</course>
<desc>Speed 14.1 km/h Distance 0.07 km</desc>
<time>2011-09-24T09:35:31.11</time>
<name>23</name>
</trkpt>
<trkpt lat="41.829197" lon="-1.681533">
<ele>661.0</ele>
<speed>13.9</speed>
<course>225.3</course>
<desc>Speed 13.9 km/h Distance 0.08 km</desc>
<time>2011-09-24T09:35:32.10</time>
<name>24</name>
</trkpt>
<trkpt lat="41.829173" lon="-1.681565">
<ele>661.0</ele>
<speed>13.3</speed>
<course>232.5</course>
<desc>Speed 13.3 km/h Distance 0.08 km</desc>
<time>2011-09-24T09:35:33.10</time>
<name>25</name>
</trkpt>
<trkpt lat="41.829153" lon="-1.681600">
<ele>661.5</ele>
<speed>12.9</speed>
<course>234.9</course>
<desc>Speed 12.9 km/h Distance 0.08 km</desc>
<time>2011-09-24T09:35:34.10</time>
<name>26</name>
</trkpt>
<trkpt lat="41.829135" lon="-1.681635">
<ele>661.5</ele>
<speed>12.9</speed>
<course>232.5</course>
<desc>Speed 12.9 km/h Distance 0.09 km</desc>
<time>2011-09-24T09:35:35.10</time>
<name>27</name>
</trkpt>
<trkpt lat="41.829115" lon="-1.681670">
<ele>661.5</ele>
<speed>13.2</speed>
<course>236.1</course>
<desc>Speed 13.2 km/h Distance 0.09 km</desc>
<time>2011-09-24T09:35:36.16</time>
<name>28</name>
</trkpt>
<trkpt lat="41.829097" lon="-1.681707">
<ele>661.5</ele>
<speed>13.5</speed>
<course>228.2</course>
<desc>Speed 13.5 km/h Distance 0.10 km</desc>
<time>2011-09-24T09:35:37.10</time>
<name>29</name>
</trkpt>
<trkpt lat="41.829073" lon="-1.681742">
<ele>661.5</ele>
<speed>13.8</speed>
<course>230.8</course>
<desc>Speed 13.8 km/h Distance 0.10 km</desc>
<time>2011-09-24T09:35:38.09</time>
<name>30</name>
</trkpt>
<trkpt lat="41.829050" lon="-1.681780">
<ele>662.0</ele>
<speed>14.8</speed>
<course>228.8</course>
<desc>Speed 14.8 km/h Distance 0.10 km</desc>
<time>2011-09-24T09:35:39.09</time>
<name>31</name>
</trkpt>
<trkpt lat="41.829025" lon="-1.681818">
<ele>662.0</ele>
<speed>15.1</speed>
<course>227.5</course>
<desc>Speed 15.1 km/h Distance 0.11 km</desc>
<time>2011-09-24T09:35:40.09</time>
<name>32</name>
</trkpt>
<trkpt lat="41.829000" lon="-1.681855">
<ele>662.0</ele>
<speed>14.9</speed>
<course>230.8</course>
<desc>Speed 14.9 km/h Distance 0.11 km</desc>
<time>2011-09-24T09:35:41.09</time>
<name>33</name>
</trkpt>
<trkpt lat="41.828977" lon="-1.681893">
<ele>662.0</ele>
<speed>15.1</speed>
<course>227.5</course>
<desc>Speed 15.1 km/h Distance 0.12 km</desc>
<time>2011-09-24T09:35:42.09</time>
<name>34</name>
</trkpt>
<trkpt lat="41.828952" lon="-1.681930">
<ele>662.0</ele>
<speed>14.6</speed>
<course>230.3</course>
<desc>Speed 14.6 km/h Distance 0.12 km</desc>
<time>2011-09-24T09:35:43.09</time>
<name>35</name>
</trkpt>
<trkpt lat="41.828930" lon="-1.681965">
<ele>662.0</ele>
<speed>14.0</speed>
<course>231.6</course>
<desc>Speed 14.0 km/h Distance 0.12 km</desc>
<time>2011-09-24T09:35:44.15</time>
<name>36</name>
</trkpt>
<trkpt lat="41.828908" lon="-1.682002">
<ele>662.5</ele>
<speed>13.9</speed>
<course>229.5</course>
<desc>Speed 13.9 km/h Distance 0.13 km</desc>
<time>2011-09-24T09:35:45.08</time>
<name>37</name>
</trkpt>
<trkpt lat="41.828885" lon="-1.682038">
<ele>662.5</ele>
<speed>14.5</speed>
<course>228.8</course>
<desc>Speed 14.5 km/h Distance 0.13 km</desc>
<time>2011-09-24T09:35:46.08</time>
<name>38</name>
</trkpt>
<trkpt lat="41.828860" lon="-1.682077">
<ele>662.5</ele>
<speed>15.1</speed>
<course>230.8</course>
<desc>Speed 15.1 km/h Distance 0.14 km</desc>
<time>2011-09-24T09:35:47.08</time>
<name>39</name>
</trkpt>
<trkpt lat="41.828837" lon="-1.682115">
<ele>662.5</ele>
<speed>15.4</speed>
<course>228.2</course>
<desc>Speed 15.4 km/h Distance 0.14 km</desc>
<time>2011-09-24T09:35:48.08</time>
<name>40</name>
</trkpt>
<trkpt lat="41.828810" lon="-1.682155">
<ele>662.5</ele>
<speed>15.8</speed>
<course>227.0</course>
<desc>Speed 15.8 km/h Distance 0.14 km</desc>
<time>2011-09-24T09:35:49.08</time>
<name>41</name>
</trkpt>
<trkpt lat="41.828783" lon="-1.682193">
<ele>662.5</ele>
<speed>15.9</speed>
<course>231.2</course>
<desc>Speed 15.9 km/h Distance 0.15 km</desc>
<time>2011-09-24T09:35:50.08</time>
<name>42</name>
</trkpt>
<trkpt lat="41.828758" lon="-1.682235">
<ele>663.0</ele>
<speed>16.1</speed>
<course>229.4</course>
<desc>Speed 16.1 km/h Distance 0.15 km</desc>
<time>2011-09-24T09:35:51.08</time>
<name>43</name>
</trkpt>
<trkpt lat="41.828732" lon="-1.682277">
<ele>663.0</ele>
<speed>16.3</speed>
<course>228.2</course>
<desc>Speed 16.3 km/h Distance 0.16 km</desc>
<time>2011-09-24T09:35:52.15</time>
<name>44</name>
</trkpt>
<trkpt lat="41.828705" lon="-1.682317">
<ele>663.0</ele>
<speed>16.3</speed>
<course>227.6</course>
<desc>Speed 16.3 km/h Distance 0.16 km</desc>
<time>2011-09-24T09:35:53.07</time>
<name>45</name>
</trkpt>
<trkpt lat="41.828677" lon="-1.682358">
<ele>663.0</ele>
<speed>16.7</speed>
<course>233.3</course>
<desc>Speed 16.7 km/h Distance 0.17 km</desc>
<time>2011-09-24T09:35:54.07</time>
<name>46</name>
</trkpt>
<trkpt lat="41.828652" lon="-1.682403">
<ele>663.0</ele>
<speed>16.9</speed>
<course>229.4</course>
<desc>Speed 16.9 km/h Distance 0.17 km</desc>
<time>2011-09-24T09:35:55.07</time>
<name>47</name>
</trkpt>
<trkpt lat="41.828625" lon="-1.682445">
<ele>663.0</ele>
<speed>16.6</speed>
<course>229.4</course>
<desc>Speed 16.6 km/h Distance 0.18 km</desc>
<time>2011-09-24T09:35:56.07</time>
<name>48</name>
</trkpt>
<trkpt lat="41.828598" lon="-1.682487">
<ele>663.0</ele>
<speed>16.6</speed>
<course>230.4</course>
<desc>Speed 16.6 km/h Distance 0.18 km</desc>
<time>2011-09-24T09:35:57.07</time>
<name>49</name>
</trkpt>
<trkpt lat="41.828572" lon="-1.682530">
<ele>663.5</ele>
<speed>16.5</speed>
<course>229.3</course>
<desc>Speed 16.5 km/h Distance 0.19 km</desc>
<time>2011-09-24T09:35:58.06</time>
<name>50</name>
</trkpt>
<trkpt lat="41.828545" lon="-1.682572">
<ele>663.5</ele>
<speed>16.7</speed>
<course>228.7</course>
<desc>Speed 16.7 km/h Distance 0.19 km</desc>
<time>2011-09-24T09:35:59.06</time>
<name>51</name>
</trkpt>
<trkpt lat="41.828517" lon="-1.682615">
<ele>663.5</ele>
<speed>16.6</speed>
<course>231.2</course>
<desc>Speed 16.6 km/h Distance 0.19 km</desc>
<time>2011-09-24T09:36:00.15</time>
<name>52</name>
</trkpt>
<trkpt lat="41.828492" lon="-1.682657">
<ele>663.5</ele>
<speed>16.0</speed>
<course>230.0</course>
<desc>Speed 16.0 km/h Distance 0.20 km</desc>
<time>2011-09-24T09:36:01.06</time>
<name>53</name>
</trkpt>
<trkpt lat="41.828467" lon="-1.682697">
<ele>664.0</ele>
<speed>15.7</speed>
<course>230.0</course>
<desc>Speed 15.7 km/h Distance 0.20 km</desc>
<time>2011-09-24T09:36:02.06</time>
<name>54</name>
</trkpt>
<trkpt lat="41.828442" lon="-1.682737">
<ele>664.0</ele>
<speed>15.4</speed>
<course>227.5</course>
<desc>Speed 15.4 km/h Distance 0.21 km</desc>
<time>2011-09-24T09:36:03.06</time>
<name>55</name>
</trkpt>
<trkpt lat="41.828417" lon="-1.682773">
<ele>664.5</ele>
<speed>15.1</speed>
<course>227.0</course>
<desc>Speed 15.1 km/h Distance 0.21 km</desc>
<time>2011-09-24T09:36:04.06</time>
<name>56</name>
</trkpt>
<trkpt lat="41.828390" lon="-1.682812">
<ele>664.5</ele>
<speed>15.2</speed>
<course>228.8</course>
<desc>Speed 15.2 km/h Distance 0.22 km</desc>
<time>2011-09-24T09:36:05.05</time>
<name>57</name>
</trkpt>
<trkpt lat="41.828365" lon="-1.682850">
<ele>665.0</ele>
<speed>15.4</speed>
<course>228.2</course>
<desc>Speed 15.4 km/h Distance 0.22 km</desc>
<time>2011-09-24T09:36:06.06</time>
<name>58</name>
</trkpt>
<trkpt lat="41.828338" lon="-1.682890">
<ele>665.0</ele>
<speed>15.8</speed>
<course>231.2</course>
<desc>Speed 15.8 km/h Distance 0.23 km</desc>
<time>2011-09-24T09:36:07.05</time>
<name>59</name>
</trkpt>
<trkpt lat="41.828313" lon="-1.682932">
<ele>665.0</ele>
<speed>15.8</speed>
<course>230.0</course>
<desc>Speed 15.8 km/h Distance 0.23 km</desc>
<time>2011-09-24T09:36:08.05</time>
<name>60</name>
</trkpt>
<trkpt lat="41.828288" lon="-1.682972">
<ele>665.5</ele>
<speed>15.8</speed>
<course>230.0</course>
<desc>Speed 15.8 km/h Distance 0.23 km</desc>
<time>2011-09-24T09:36:09.05</time>
<name>61</name>
</trkpt>
<trkpt lat="41.828263" lon="-1.683012">
<ele>665.5</ele>
<speed>15.4</speed>
<course>230.0</course>
<desc>Speed 15.4 km/h Distance 0.24 km</desc>
<time>2011-09-24T09:36:10.05</time>
<name>62</name>
</trkpt>
<trkpt lat="41.828238" lon="-1.683052">
<ele>665.5</ele>
<speed>15.6</speed>
<course>230.0</course>
<desc>Speed 15.6 km/h Distance 0.24 km</desc>
<time>2011-09-24T09:36:11.05</time>
<name>63</name>
</trkpt>
<trkpt lat="41.828213" lon="-1.683092">
<ele>666.0</ele>
<speed>15.5</speed>
<course>231.2</course>
<desc>Speed 15.5 km/h Distance 0.25 km</desc>
<time>2011-09-24T09:36:12.05</time>
<name>64</name>
</trkpt>
<trkpt lat="41.828188" lon="-1.683133">
<ele>666.0</ele>
<speed>15.4</speed>
<course>231.2</course>
<desc>Speed 15.4 km/h Distance 0.25 km</desc>
<time>2011-09-24T09:36:13.05</time>
<name>65</name>
</trkpt>
<trkpt lat="41.828163" lon="-1.683175">
<ele>666.5</ele>
<speed>15.9</speed>
<course>231.2</course>
<desc>Speed 15.9 km/h Distance 0.26 km</desc>
<time>2011-09-24T09:36:14.05</time>
<name>66</name>
</trkpt>
<trkpt lat="41.828138" lon="-1.683217">
<ele>666.5</ele>
<speed>16.0</speed>
<course>228.2</course>
<desc>Speed 16.0 km/h Distance 0.26 km</desc>
<time>2011-09-24T09:36:15.05</time>
<name>67</name>
</trkpt>
<trkpt lat="41.828112" lon="-1.683257">
<ele>666.5</ele>
<speed>16.2</speed>
<course>230.4</course>
<desc>Speed 16.2 km/h Distance 0.26 km</desc>
<time>2011-09-24T09:36:16.05</time>
<name>68</name>
</trkpt>
<trkpt lat="41.828085" lon="-1.683300">
<ele>666.5</ele>
<speed>16.5</speed>
<course>229.4</course>
<desc>Speed 16.5 km/h Distance 0.27 km</desc>
<time>2011-09-24T09:36:17.05</time>
<name>69</name>
</trkpt>
<trkpt lat="41.828058" lon="-1.683342">
<ele>666.5</ele>
<speed>16.6</speed>
<course>231.5</course>
<desc>Speed 16.6 km/h Distance 0.27 km</desc>
<time>2011-09-24T09:36:18.05</time>
<name>70</name>
</trkpt>
<trkpt lat="41.828032" lon="-1.683387">
<ele>667.0</ele>
<speed>16.8</speed>
<course>231.5</course>
<desc>Speed 16.8 km/h Distance 0.28 km</desc>
<time>2011-09-24T09:36:19.05</time>
<name>71</name>
</trkpt>
<trkpt lat="41.828005" lon="-1.683432">
<ele>667.0</ele>
<speed>17.4</speed>
<course>227.1</course>
<desc>Speed 17.4 km/h Distance 0.28 km</desc>
<time>2011-09-24T09:36:20.05</time>
<name>72</name>
</trkpt>
<trkpt lat="41.827975" lon="-1.683475">
<ele>667.0</ele>
<speed>17.9</speed>
<course>230.8</course>
<desc>Speed 17.9 km/h Distance 0.29 km</desc>
<time>2011-09-24T09:36:21.04</time>
<name>73</name>
</trkpt>
<trkpt lat="41.827947" lon="-1.683522">
<ele>667.0</ele>
<speed>18.1</speed>
<course>229.2</course>
<desc>Speed 18.1 km/h Distance 0.29 km</desc>
<time>2011-09-24T09:36:22.04</time>
<name>74</name>
</trkpt>
<trkpt lat="41.827917" lon="-1.683568">
<ele>667.0</ele>
<speed>18.2</speed>
<course>230.8</course>
<desc>Speed 18.2 km/h Distance 0.30 km</desc>
<time>2011-09-24T09:36:23.05</time>
<name>75</name>
</trkpt>
<trkpt lat="41.827888" lon="-1.683615">
<ele>667.0</ele>
<speed>18.1</speed>
<course>230.8</course>
<desc>Speed 18.1 km/h Distance 0.30 km</desc>
<time>2011-09-24T09:36:24.04</time>
<name>76</name>
</trkpt>
<trkpt lat="41.827860" lon="-1.683662">
<ele>667.0</ele>
<speed>18.0</speed>
<course>228.2</course>
<desc>Speed 18.0 km/h Distance 0.31 km</desc>
<time>2011-09-24T09:36:25.04</time>
<name>77</name>
</trkpt>
<trkpt lat="41.827830" lon="-1.683707">
<ele>667.0</ele>
<speed>17.9</speed>
<course>229.8</course>
<desc>Speed 17.9 km/h Distance 0.31 km</desc>
<time>2011-09-24T09:36:26.04</time>
<name>78</name>
</trkpt>
<trkpt lat="41.827802" lon="-1.683752">
<ele>667.0</ele>
<speed>17.9</speed>
<course>231.5</course>
<desc>Speed 17.9 km/h Distance 0.32 km</desc>
<time>2011-09-24T09:36:27.04</time>
<name>79</name>
</trkpt>
<trkpt lat="41.827775" lon="-1.683797">
<ele>667.0</ele>
<speed>17.7</speed>
<course>225.6</course>
<desc>Speed 17.7 km/h Distance 0.32 km</desc>
<time>2011-09-24T09:36:28.04</time>
<name>80</name>
</trkpt>
<trkpt lat="41.827743" lon="-1.683840">
<ele>667.0</ele>
<speed>17.7</speed>
<course>227.1</course>
<desc>Speed 17.7 km/h Distance 0.33 km</desc>
<time>2011-09-24T09:36:29.04</time>
<name>81</name>
</trkpt>
<trkpt lat="41.827713" lon="-1.683883">
<ele>667.0</ele>
<speed>17.9</speed>
<course>229.2</course>
<desc>Speed 17.9 km/h Distance 0.33 km</desc>
<time>2011-09-24T09:36:30.04</time>
<name>82</name>
</trkpt>
<trkpt lat="41.827683" lon="-1.683930">
<ele>667.0</ele>
<speed>18.2</speed>
<course>231.2</course>
<desc>Speed 18.2 km/h Distance 0.34 km</desc>
<time>2011-09-24T09:36:31.04</time>
<name>83</name>
</trkpt>
<trkpt lat="41.827653" lon="-1.683980">
<ele>667.0</ele>
<speed>19.3</speed>
<course>229.6</course>
<desc>Speed 19.3 km/h Distance 0.34 km</desc>
<time>2011-09-24T09:36:32.04</time>
<name>84</name>
</trkpt>
<trkpt lat="41.827622" lon="-1.684030">
<ele>667.0</ele>
<speed>19.7</speed>
<course>229.6</course>
<desc>Speed 19.7 km/h Distance 0.35 km</desc>
<time>2011-09-24T09:36:33.04</time>
<name>85</name>
</trkpt>
<trkpt lat="41.827590" lon="-1.684080">
<ele>667.0</ele>
<speed>19.8</speed>
<course>231.4</course>
<desc>Speed 19.8 km/h Distance 0.35 km</desc>
<time>2011-09-24T09:36:34.04</time>
<name>86</name>
</trkpt>
<trkpt lat="41.827558" lon="-1.684133">
<ele>667.0</ele>
<speed>20.3</speed>
<course>229.1</course>
<desc>Speed 20.3 km/h Distance 0.36 km</desc>
<time>2011-09-24T09:36:35.04</time>
<name>87</name>
</trkpt>
<trkpt lat="41.827525" lon="-1.684185">
<ele>667.0</ele>
<speed>20.2</speed>
<course>229.1</course>
<desc>Speed 20.2 km/h Distance 0.37 km</desc>
<time>2011-09-24T09:36:36.04</time>
<name>88</name>
</trkpt>
<trkpt lat="41.827492" lon="-1.684237">
<ele>667.0</ele>
<speed>20.2</speed>
<course>229.7</course>
<desc>Speed 20.2 km/h Distance 0.37 km</desc>
<time>2011-09-24T09:36:37.04</time>
<name>89</name>
</trkpt>
<trkpt lat="41.827460" lon="-1.684287">
<ele>667.0</ele>
<speed>20.0</speed>
<course>227.2</course>
<desc>Speed 20.0 km/h Distance 0.38 km</desc>
<time>2011-09-24T09:36:38.04</time>
<name>90</name>
</trkpt>
<trkpt lat="41.827427" lon="-1.684335">
<ele>667.0</ele>
<speed>19.8</speed>
<course>230.6</course>
<desc>Speed 19.8 km/h Distance 0.38 km</desc>
<time>2011-09-24T09:36:39.03</time>
<name>91</name>
</trkpt>
<trkpt lat="41.827395" lon="-1.684387">
<ele>666.5</ele>
<speed>20.0</speed>
<course>231.5</course>
<desc>Speed 20.0 km/h Distance 0.39 km</desc>
<time>2011-09-24T09:36:40.03</time>
<name>92</name>
</trkpt>
<trkpt lat="41.827363" lon="-1.684440">
<ele>666.5</ele>
<speed>20.3</speed>
<course>230.0</course>
<desc>Speed 20.3 km/h Distance 0.39 km</desc>
<time>2011-09-24T09:36:41.04</time>
<name>93</name>
</trkpt>
<trkpt lat="41.827330" lon="-1.684493">
<ele>666.5</ele>
<speed>20.5</speed>
<course>229.1</course>
<desc>Speed 20.5 km/h Distance 0.40 km</desc>
<time>2011-09-24T09:36:42.04</time>
<name>94</name>
</trkpt>
<trkpt lat="41.827297" lon="-1.684545">
<ele>667.0</ele>
<speed>20.4</speed>
<course>230.6</course>
<desc>Speed 20.4 km/h Distance 0.40 km</desc>
<time>2011-09-24T09:36:43.03</time>
<name>95</name>
</trkpt>
<trkpt lat="41.827265" lon="-1.684597">
<ele>667.0</ele>
<speed>20.4</speed>
<course>230.0</course>
<desc>Speed 20.4 km/h Distance 0.41 km</desc>
<time>2011-09-24T09:36:44.03</time>
<name>96</name>
</trkpt>
<trkpt lat="41.827232" lon="-1.684650">
<ele>667.0</ele>
<speed>20.3</speed>
<course>229.6</course>
<desc>Speed 20.3 km/h Distance 0.42 km</desc>
<time>2011-09-24T09:36:45.03</time>
<name>97</name>
</trkpt>
<trkpt lat="41.827200" lon="-1.684700">
<ele>666.5</ele>
<speed>20.1</speed>
<course>229.1</course>
<desc>Speed 20.1 km/h Distance 0.42 km</desc>
<time>2011-09-24T09:36:46.03</time>
<name>98</name>
</trkpt>
<trkpt lat="41.827167" lon="-1.684752">
<ele>666.5</ele>
<speed>20.2</speed>
<course>228.2</course>
<desc>Speed 20.2 km/h Distance 0.43 km</desc>
<time>2011-09-24T09:36:47.03</time>
<name>99</name>
</trkpt>
<trkpt lat="41.827133" lon="-1.684802">
<ele>666.5</ele>
<speed>20.1</speed>
<course>224.8</course>
<desc>Speed 20.1 km/h Distance 0.43 km</desc>
<time>2011-09-24T09:36:48.03</time>
<name>100</name>
</trkpt>
<trkpt lat="41.827098" lon="-1.684848">
<ele>667.0</ele>
<speed>19.9</speed>
<course>224.8</course>
<desc>Speed 19.9 km/h Distance 0.44 km</desc>
<time>2011-09-24T09:36:49.03</time>
<name>101</name>
</trkpt>
<trkpt lat="41.827063" lon="-1.684895">
<ele>667.0</ele>
<speed>19.8</speed>
<course>219.0</course>
<desc>Speed 19.8 km/h Distance 0.44 km</desc>
<time>2011-09-24T09:36:50.03</time>
<name>102</name>
</trkpt>
<trkpt lat="41.827025" lon="-1.684937">
<ele>667.0</ele>
<speed>19.8</speed>
<course>215.5</course>
<desc>Speed 19.8 km/h Distance 0.45 km</desc>
<time>2011-09-24T09:36:51.04</time>
<name>103</name>
</trkpt>
<trkpt lat="41.826985" lon="-1.684975">
<ele>667.0</ele>
<speed>19.9</speed>
<course>213.1</course>
<desc>Speed 19.9 km/h Distance 0.45 km</desc>
<time>2011-09-24T09:36:52.03</time>
<name>104</name>
</trkpt>
<trkpt lat="41.826945" lon="-1.685010">
<ele>667.0</ele>
<speed>19.7</speed>
<course>212.2</course>
<desc>Speed 19.7 km/h Distance 0.46 km</desc>
<time>2011-09-24T09:36:53.03</time>
<name>105</name>
</trkpt>
<trkpt lat="41.826902" lon="-1.685047">
<ele>667.0</ele>
<speed>19.9</speed>
<course>207.3</course>
<desc>Speed 19.9 km/h Distance 0.47 km</desc>
<time>2011-09-24T09:36:54.03</time>
<name>106</name>
</trkpt>
<trkpt lat="41.826858" lon="-1.685077">
<ele>667.0</ele>
<speed>19.8</speed>
<course>202.5</course>
<desc>Speed 19.8 km/h Distance 0.47 km</desc>
<time>2011-09-24T09:36:55.03</time>
<name>107</name>
</trkpt>
<trkpt lat="41.826813" lon="-1.685102">
<ele>667.0</ele>
<speed>19.7</speed>
<course>202.5</course>
<desc>Speed 19.7 km/h Distance 0.48 km</desc>
<time>2011-09-24T09:36:56.03</time>
<name>108</name>
</trkpt>
<trkpt lat="41.826768" lon="-1.685127">
<ele>667.5</ele>
<speed>19.8</speed>
<course>198.5</course>
<desc>Speed 19.8 km/h Distance 0.48 km</desc>
<time>2011-09-24T09:36:57.03</time>
<name>109</name>
</trkpt>
<trkpt lat="41.826720" lon="-1.685148">
<ele>667.5</ele>
<speed>19.8</speed>
<course>196.3</course>
<desc>Speed 19.8 km/h Distance 0.49 km</desc>
<time>2011-09-24T09:36:58.03</time>
<name>110</name>
</trkpt>
<trkpt lat="41.826673" lon="-1.685167">
<ele>667.5</ele>
<speed>19.8</speed>
<course>194.4</course>
<desc>Speed 19.8 km/h Distance 0.49 km</desc>
<time>2011-09-24T09:36:59.03</time>
<name>111</name>
</trkpt>
<trkpt lat="41.826625" lon="-1.685183">
<ele>667.5</ele>
<speed>19.9</speed>
<course>193.5</course>
<desc>Speed 19.9 km/h Distance 0.50 km</desc>
<time>2011-09-24T09:37:00.03</time>
<name>112</name>
</trkpt>
<trkpt lat="41.826578" lon="-1.685198">
<ele>667.5</ele>
<speed>19.5</speed>
<course>192.0</course>
<desc>Speed 19.5 km/h Distance 0.50 km</desc>
<time>2011-09-24T09:37:01.02</time>
<name>113</name>
</trkpt>
<trkpt lat="41.826532" lon="-1.685212">
<ele>668.0</ele>
<speed>19.3</speed>
<course>190.5</course>
<desc>Speed 19.3 km/h Distance 0.51 km</desc>
<time>2011-09-24T09:37:02.02</time>
<name>114</name>
</trkpt>
<trkpt lat="41.826485" lon="-1.685223">
<ele>668.0</ele>
<speed>18.8</speed>
<course>189.7</course>
<desc>Speed 18.8 km/h Distance 0.51 km</desc>
<time>2011-09-24T09:37:03.02</time>
<name>115</name>
</trkpt>
<trkpt lat="41.826442" lon="-1.685233">
<ele>668.0</ele>
<speed>18.1</speed>
<course>188.1</course>
<desc>Speed 18.1 km/h Distance 0.52 km</desc>
<time>2011-09-24T09:37:04.02</time>
<name>116</name>
</trkpt>
<trkpt lat="41.826398" lon="-1.685242">
<ele>668.5</ele>
<speed>17.2</speed>
<course>192.8</course>
<desc>Speed 17.2 km/h Distance 0.52 km</desc>
<time>2011-09-24T09:37:05.04</time>
<name>117</name>
</trkpt>
<trkpt lat="41.826360" lon="-1.685253">
<ele>668.5</ele>
<speed>16.2</speed>
<course>187.4</course>
<desc>Speed 16.2 km/h Distance 0.53 km</desc>
<time>2011-09-24T09:37:06.02</time>
<name>118</name>
</trkpt>
<trkpt lat="41.826322" lon="-1.685260">
<ele>669.0</ele>
<speed>15.6</speed>
<course>185.9</course>
<desc>Speed 15.6 km/h Distance 0.53 km</desc>
<time>2011-09-24T09:37:07.02</time>
<name>119</name>
</trkpt>
<trkpt lat="41.826285" lon="-1.685265">
<ele>669.0</ele>
<speed>14.8</speed>
<course>191.4</course>
<desc>Speed 14.8 km/h Distance 0.54 km</desc>
<time>2011-09-24T09:37:08.02</time>
<name>120</name>
</trkpt>
<trkpt lat="41.826248" lon="-1.685275">
<ele>669.0</ele>
<speed>15.5</speed>
<course>193.3</course>
<desc>Speed 15.5 km/h Distance 0.54 km</desc>
<time>2011-09-24T09:37:09.02</time>
<name>121</name>
</trkpt>
<trkpt lat="41.826212" lon="-1.685287">
<ele>669.0</ele>
<speed>15.5</speed>
<course>192.8</course>
<desc>Speed 15.5 km/h Distance 0.55 km</desc>
<time>2011-09-24T09:37:10.02</time>
<name>122</name>
</trkpt>
<trkpt lat="41.826173" lon="-1.685298">
<ele>669.0</ele>
<speed>15.5</speed>
<course>189.7</course>
<desc>Speed 15.5 km/h Distance 0.55 km</desc>
<time>2011-09-24T09:37:11.02</time>
<name>123</name>
</trkpt>
<trkpt lat="41.826137" lon="-1.685307">
<ele>669.5</ele>
<speed>15.2</speed>
<course>193.3</course>
<desc>Speed 15.2 km/h Distance 0.55 km</desc>
<time>2011-09-24T09:37:12.02</time>
<name>124</name>
</trkpt>
<trkpt lat="41.826100" lon="-1.685318">
<ele>669.5</ele>
<speed>15.2</speed>
<course>190.5</course>
<desc>Speed 15.2 km/h Distance 0.56 km</desc>
<time>2011-09-24T09:37:13.01</time>
<name>125</name>
</trkpt>
<trkpt lat="41.826067" lon="-1.685327">
<ele>670.0</ele>
<speed>13.6</speed>
<course>198.6</course>
<desc>Speed 13.6 km/h Distance 0.56 km</desc>
<time>2011-09-24T09:37:14.02</time>
<name>126</name>
</trkpt>
<trkpt lat="41.826033" lon="-1.685342">
<ele>670.0</ele>
<speed>14.1</speed>
<course>185.7</course>
<desc>Speed 14.1 km/h Distance 0.57 km</desc>
<time>2011-09-24T09:37:15.01</time>
<name>127</name>
</trkpt>
<trkpt lat="41.826008" lon="-1.685345">
<ele>668.5</ele>
<speed>10.1</speed>
<course>159.7</course>
<desc>Speed 10.1 km/h Distance 0.57 km</desc>
<time>2011-09-24T09:37:16.01</time>
<name>128</name>
</trkpt>
<trkpt lat="41.825998" lon="-1.685340">
<ele>668.5</ele>
<speed>4.5</speed>
<course>203.0</course>
<desc>Speed 4.5 km/h Distance 0.57 km</desc>
<time>2011-09-24T09:37:17.01</time>
<name>129</name>
</trkpt>
<trkpt lat="41.825975" lon="-1.685353">
<ele>668.5</ele>
<speed>9.7</speed>
<course>213.8</course>
<desc>Speed 9.7 km/h Distance 0.57 km</desc>
<time>2011-09-24T09:37:18.01</time>
<name>130</name>
</trkpt>
<trkpt lat="41.825942" lon="-1.685383">
<ele>668.5</ele>
<speed>15.8</speed>
<course>213.8</course>
<desc>Speed 15.8 km/h Distance 0.58 km</desc>
<time>2011-09-24T09:37:19.02</time>
<name>131</name>
</trkpt>
<trkpt lat="41.825908" lon="-1.685413">
<ele>668.5</ele>
<speed>16.1</speed>
<course>216.7</course>
<desc>Speed 16.1 km/h Distance 0.58 km</desc>
<time>2011-09-24T09:37:20.02</time>
<name>132</name>
</trkpt>
<trkpt lat="41.825877" lon="-1.685445">
<ele>668.5</ele>
<speed>15.5</speed>
<course>219.6</course>
<desc>Speed 15.5 km/h Distance 0.59 km</desc>
<time>2011-09-24T09:37:21.02</time>
<name>133</name>
</trkpt>
<trkpt lat="41.825847" lon="-1.685478">
<ele>668.5</ele>
<speed>15.6</speed>
<course>216.7</course>
<desc>Speed 15.6 km/h Distance 0.59 km</desc>
<time>2011-09-24T09:37:22.01</time>
<name>134</name>
</trkpt>
<trkpt lat="41.825815" lon="-1.685510">
<ele>669.0</ele>
<speed>15.4</speed>
<course>218.0</course>
<desc>Speed 15.4 km/h Distance 0.59 km</desc>
<time>2011-09-24T09:37:23.02</time>
<name>135</name>
</trkpt>
<trkpt lat="41.825782" lon="-1.685545">
<ele>669.5</ele>
<speed>15.9</speed>
<course>218.1</course>
<desc>Speed 15.9 km/h Distance 0.60 km</desc>
<time>2011-09-24T09:37:24.02</time>
<name>136</name>
</trkpt>
<trkpt lat="41.825750" lon="-1.685578">
<ele>669.5</ele>
<speed>15.7</speed>
<course>218.1</course>
<desc>Speed 15.7 km/h Distance 0.60 km</desc>
<time>2011-09-24T09:37:25.01</time>
<name>137</name>
</trkpt>
<trkpt lat="41.825718" lon="-1.685612">
<ele>670.0</ele>
<speed>15.4</speed>
<course>218.1</course>
<desc>Speed 15.4 km/h Distance 0.61 km</desc>
<time>2011-09-24T09:37:26.01</time>
<name>138</name>
</trkpt>
<trkpt lat="41.825687" lon="-1.685645">
<ele>670.5</ele>
<speed>15.3</speed>
<course>218.1</course>
<desc>Speed 15.3 km/h Distance 0.61 km</desc>
<time>2011-09-24T09:37:27.02</time>
<name>139</name>
</trkpt>
<trkpt lat="41.825655" lon="-1.685678">
<ele>671.0</ele>
<speed>15.0</speed>
<course>218.2</course>
<desc>Speed 15.0 km/h Distance 0.62 km</desc>
<time>2011-09-24T09:37:28.01</time>
<name>140</name>
</trkpt>
<trkpt lat="41.825625" lon="-1.685710">
<ele>671.0</ele>
<speed>14.6</speed>
<course>219.8</course>
<desc>Speed 14.6 km/h Distance 0.62 km</desc>
<time>2011-09-24T09:37:29.01</time>
<name>141</name>
</trkpt>
<trkpt lat="41.825597" lon="-1.685742">
<ele>671.0</ele>
<speed>14.4</speed>
<course>215.1</course>
<desc>Speed 14.4 km/h Distance 0.63 km</desc>
<time>2011-09-24T09:37:30.01</time>
<name>142</name>
</trkpt>
<trkpt lat="41.825567" lon="-1.685770">
<ele>671.5</ele>
<speed>14.0</speed>
<course>218.3</course>
<desc>Speed 14.0 km/h Distance 0.63 km</desc>
<time>2011-09-24T09:37:31.03</time>
<name>143</name>
</trkpt>
<trkpt lat="41.825538" lon="-1.685800">
<ele>671.5</ele>
<speed>14.1</speed>
<course>219.8</course>
<desc>Speed 14.1 km/h Distance 0.63 km</desc>
<time>2011-09-24T09:37:32.00</time>
<name>144</name>
</trkpt>
<trkpt lat="41.825510" lon="-1.685832">
<ele>671.5</ele>
<speed>14.8</speed>
<course>219.6</course>
<desc>Speed 14.8 km/h Distance 0.64 km</desc>
<time>2011-09-24T09:37:33.01</time>
<name>145</name>
</trkpt>
<trkpt lat="41.825480" lon="-1.685865">
<ele>671.5</ele>
<speed>15.2</speed>
<course>219.8</course>
<desc>Speed 15.2 km/h Distance 0.64 km</desc>
<time>2011-09-24T09:37:34.00</time>
<name>146</name>
</trkpt>
<trkpt lat="41.825452" lon="-1.685897">
<ele>671.5</ele>
<speed>14.7</speed>
<course>215.1</course>
<desc>Speed 14.7 km/h Distance 0.65 km</desc>
<time>2011-09-24T09:37:35.01</time>
<name>147</name>
</trkpt>
<trkpt lat="41.825422" lon="-1.685925">
<ele>671.5</ele>
<speed>14.2</speed>
<course>221.5</course>
<desc>Speed 14.2 km/h Distance 0.65 km</desc>
<time>2011-09-24T09:37:36.00</time>
<name>148</name>
</trkpt>
<trkpt lat="41.825395" lon="-1.685957">
<ele>672.0</ele>
<speed>14.1</speed>
<course>224.4</course>
<desc>Speed 14.1 km/h Distance 0.65 km</desc>
<time>2011-09-24T09:37:37.00</time>
<name>149</name>
</trkpt>
<trkpt lat="41.825368" lon="-1.685992">
<ele>672.5</ele>
<speed>14.7</speed>
<course>221.2</course>
<desc>Speed 14.7 km/h Distance 0.66 km</desc>
<time>2011-09-24T09:37:38.00</time>
<name>150</name>
</trkpt>
<trkpt lat="41.825340" lon="-1.686025">
<ele>672.5</ele>
<speed>15.0</speed>
<course>221.0</course>
<desc>Speed 15.0 km/h Distance 0.66 km</desc>
<time>2011-09-24T09:37:39.00</time>
<name>151</name>
</trkpt>
<trkpt lat="41.825310" lon="-1.686060">
<ele>673.0</ele>
<speed>14.8</speed>
<course>224.4</course>
<desc>Speed 14.8 km/h Distance 0.67 km</desc>
<time>2011-09-24T09:37:40.00</time>
<name>152</name>
</trkpt>
<trkpt lat="41.825283" lon="-1.686095">
<ele>673.0</ele>
<speed>14.7</speed>
<course>227.0</course>
<desc>Speed 14.7 km/h Distance 0.67 km</desc>
<time>2011-09-24T09:37:41.00</time>
<name>153</name>
</trkpt>
<trkpt lat="41.825257" lon="-1.686133">
<ele>673.5</ele>
<speed>15.0</speed>
<course>228.8</course>
<desc>Speed 15.0 km/h Distance 0.68 km</desc>
<time>2011-09-24T09:37:42.00</time>
<name>154</name>
</trkpt>
<trkpt lat="41.825232" lon="-1.686172">
<ele>673.5</ele>
<speed>15.0</speed>
<course>231.9</course>
<desc>Speed 15.0 km/h Distance 0.68 km</desc>
<time>2011-09-24T09:37:43.00</time>
<name>155</name>
</trkpt>
<trkpt lat="41.825208" lon="-1.686212">
<ele>673.5</ele>
<speed>15.0</speed>
<course>228.8</course>
<desc>Speed 15.0 km/h Distance 0.68 km</desc>
<time>2011-09-24T09:37:44.00</time>
<name>156</name>
</trkpt>
<trkpt lat="41.825183" lon="-1.686250">
<ele>673.5</ele>
<speed>14.8</speed>
<course>232.5</course>
<desc>Speed 14.8 km/h Distance 0.69 km</desc>
<time>2011-09-24T09:37:45.00</time>
<name>157</name>
</trkpt>
<trkpt lat="41.825163" lon="-1.686285">
<ele>673.5</ele>
<speed>13.4</speed>
<course>243.7</course>
<desc>Speed 13.4 km/h Distance 0.69 km</desc>
<time>2011-09-24T09:37:46.00</time>
<name>158</name>
</trkpt>
<trkpt lat="41.825152" lon="-1.686317">
<ele>673.5</ele>
<speed>9.9</speed>
<course>225.7</course>
<desc>Speed 9.9 km/h Distance 0.70 km</desc>
<time>2011-09-24T09:37:47.00</time>
<name>159</name>
</trkpt>
<trkpt lat="41.825125" lon="-1.686353">
<ele>673.5</ele>
<speed>15.0</speed>
<course>227.5</course>
<desc>Speed 15.0 km/h Distance 0.70 km</desc>
<time>2011-09-24T09:37:48.00</time>
<name>160</name>
</trkpt>
<trkpt lat="41.825100" lon="-1.686390">
<ele>673.5</ele>
<speed>14.9</speed>
<course>228.1</course>
<desc>Speed 14.9 km/h Distance 0.70 km</desc>
<time>2011-09-24T09:37:49.00</time>
<name>161</name>
</trkpt>
<trkpt lat="41.825083" lon="-1.686415">
<ele>673.0</ele>
<speed>9.2</speed>
<course>223.4</course>
<desc>Speed 9.2 km/h Distance 0.71 km</desc>
<time>2011-09-24T09:37:50.00</time>
<name>162</name>
</trkpt>
<trkpt lat="41.825058" lon="-1.686447">
<ele>672.5</ele>
<speed>13.7</speed>
<course>255.0</course>
<desc>Speed 13.7 km/h Distance 0.71 km</desc>
<time>2011-09-24T09:37:51.01</time>
<name>163</name>
</trkpt>
<trkpt lat="41.825048" lon="-1.686497">
<ele>673.5</ele>
<speed>14.8</speed>
<course>211.1</course>
<desc>Speed 14.8 km/h Distance 0.71 km</desc>
<time>2011-09-24T09:37:51.99</time>
<name>164</name>
</trkpt>
<trkpt lat="41.825013" lon="-1.686525">
<ele>673.5</ele>
<speed>16.3</speed>
<course>219.6</course>
<desc>Speed 16.3 km/h Distance 0.72 km</desc>
<time>2011-09-24T09:37:53.00</time>
<name>165</name>
</trkpt>
<trkpt lat="41.824983" lon="-1.686558">
<ele>674.0</ele>
<speed>15.2</speed>
<course>213.8</course>
<desc>Speed 15.2 km/h Distance 0.72 km</desc>
<time>2011-09-24T09:37:54.00</time>
<name>166</name>
</trkpt>
<trkpt lat="41.824950" lon="-1.686588">
<ele>674.0</ele>
<speed>15.2</speed>
<course>213.7</course>
<desc>Speed 15.2 km/h Distance 0.73 km</desc>
<time>2011-09-24T09:37:54.99</time>
<name>167</name>
</trkpt>
<trkpt lat="41.824918" lon="-1.686617">
<ele>674.5</ele>
<speed>14.4</speed>
<course>252.8</course>
<desc>Speed 14.4 km/h Distance 0.73 km</desc>
<time>2011-09-24T09:37:55.99</time>
<name>168</name>
</trkpt>
<trkpt lat="41.824908" lon="-1.686660">
<ele>676.0</ele>
<speed>13.2</speed>
<course>206.4</course>
<desc>Speed 13.2 km/h Distance 0.74 km</desc>
<time>2011-09-24T09:37:56.99</time>
<name>169</name>
</trkpt>
<trkpt lat="41.824873" lon="-1.686683">
<ele>676.5</ele>
<speed>15.6</speed>
<course>216.7</course>
<desc>Speed 15.6 km/h Distance 0.74 km</desc>
<time>2011-09-24T09:37:57.99</time>
<name>170</name>
</trkpt>
<trkpt lat="41.824843" lon="-1.686713">
<ele>676.5</ele>
<speed>14.3</speed>
<course>220.0</course>
<desc>Speed 14.3 km/h Distance 0.74 km</desc>
<time>2011-09-24T09:37:58.99</time>
<name>171</name>
</trkpt>
<trkpt lat="41.824817" lon="-1.686743">
<ele>676.5</ele>
<speed>13.7</speed>
<course>203.1</course>
<desc>Speed 13.7 km/h Distance 0.75 km</desc>
<time>2011-09-24T09:38:00.00</time>
<name>172</name>
</trkpt>
<trkpt lat="41.824782" lon="-1.686763">
<ele>676.5</ele>
<speed>15.5</speed>
<course>221.8</course>
<desc>Speed 15.5 km/h Distance 0.75 km</desc>
<time>2011-09-24T09:38:00.99</time>
<name>173</name>
</trkpt>
<trkpt lat="41.824757" lon="-1.686793">
<ele>676.5</ele>
<speed>13.3</speed>
<course>275.3</course>
<desc>Speed 13.3 km/h Distance 0.76 km</desc>
<time>2011-09-24T09:38:01.99</time>
<name>174</name>
</trkpt>
<trkpt lat="41.824760" lon="-1.686842">
<ele>676.5</ele>
<speed>14.0</speed>
<course>216.7</course>
<desc>Speed 14.0 km/h Distance 0.76 km</desc>
<time>2011-09-24T09:38:02.99</time>
<name>175</name>
</trkpt>
<trkpt lat="41.824727" lon="-1.686875">
<ele>678.0</ele>
<speed>15.0</speed>
<course>218.2</course>
<desc>Speed 15.0 km/h Distance 0.76 km</desc>
<time>2011-09-24T09:38:03.99</time>
<name>176</name>
</trkpt>
<trkpt lat="41.824697" lon="-1.686907">
<ele>678.5</ele>
<speed>13.9</speed>
<course>228.2</course>
<desc>Speed 13.9 km/h Distance 0.77 km</desc>
<time>2011-09-24T09:38:04.99</time>
<name>177</name>
</trkpt>
<trkpt lat="41.824673" lon="-1.686942">
<ele>678.5</ele>
<speed>14.1</speed>
<course>234.0</course>
<desc>Speed 14.1 km/h Distance 0.77 km</desc>
<time>2011-09-24T09:38:05.98</time>
<name>178</name>
</trkpt>
<trkpt lat="41.824652" lon="-1.686982">
<ele>679.0</ele>
<speed>14.2</speed>
<course>240.4</course>
<desc>Speed 14.2 km/h Distance 0.78 km</desc>
<time>2011-09-24T09:38:06.99</time>
<name>179</name>
</trkpt>
<trkpt lat="41.824633" lon="-1.687025">
<ele>679.0</ele>
<speed>14.7</speed>
<course>238.2</course>
<desc>Speed 14.7 km/h Distance 0.78 km</desc>
<time>2011-09-24T09:38:07.98</time>
<name>180</name>
</trkpt>
<trkpt lat="41.824613" lon="-1.687068">
<ele>678.5</ele>
<speed>15.0</speed>
<course>240.1</course>
<desc>Speed 15.0 km/h Distance 0.79 km</desc>
<time>2011-09-24T09:38:08.98</time>
<name>181</name>
</trkpt>
<trkpt lat="41.824593" lon="-1.687115">
<ele>678.5</ele>
<speed>15.7</speed>
<course>236.1</course>
<desc>Speed 15.7 km/h Distance 0.79 km</desc>
<time>2011-09-24T09:38:09.98</time>
<name>182</name>
</trkpt>
<trkpt lat="41.824570" lon="-1.687162">
<ele>678.5</ele>
<speed>16.6</speed>
<course>244.5</course>
<desc>Speed 16.6 km/h Distance 0.79 km</desc>
<time>2011-09-24T09:38:10.99</time>
<name>183</name>
</trkpt>
<trkpt lat="41.824552" lon="-1.687213">
<ele>678.5</ele>
<speed>16.5</speed>
<course>236.1</course>
<desc>Speed 16.5 km/h Distance 0.80 km</desc>
<time>2011-09-24T09:38:11.99</time>
<name>184</name>
</trkpt>
<trkpt lat="41.824528" lon="-1.687260">
<ele>678.5</ele>
<speed>16.3</speed>
<course>238.1</course>
<desc>Speed 16.3 km/h Distance 0.80 km</desc>
<time>2011-09-24T09:38:12.99</time>
<name>185</name>
</trkpt>
<trkpt lat="41.824507" lon="-1.687307">
<ele>678.5</ele>
<speed>16.3</speed>
<course>221.8</course>
<desc>Speed 16.3 km/h Distance 0.81 km</desc>
<time>2011-09-24T09:38:13.98</time>
<name>186</name>
</trkpt>
<trkpt lat="41.824473" lon="-1.687347">
<ele>678.5</ele>
<speed>16.7</speed>
<course>226.5</course>
<desc>Speed 16.7 km/h Distance 0.81 km</desc>
<time>2011-09-24T09:38:14.98</time>
<name>187</name>
</trkpt>
<trkpt lat="41.824445" lon="-1.687387">
<ele>678.5</ele>
<speed>16.3</speed>
<course>220.8</course>
<desc>Speed 16.3 km/h Distance 0.82 km</desc>
<time>2011-09-24T09:38:15.98</time>
<name>188</name>
</trkpt>
<trkpt lat="41.824413" lon="-1.687423">
<ele>678.0</ele>
<speed>16.3</speed>
<course>248.3</course>
<desc>Speed 16.3 km/h Distance 0.82 km</desc>
<time>2011-09-24T09:38:16.98</time>
<name>189</name>
</trkpt>
<trkpt lat="41.824400" lon="-1.687468">
<ele>678.0</ele>
<speed>13.9</speed>
<course>238.6</course>
<desc>Speed 13.9 km/h Distance 0.83 km</desc>
<time>2011-09-24T09:38:17.98</time>
<name>190</name>
</trkpt>
<trkpt lat="41.824383" lon="-1.687505">
<ele>678.0</ele>
<speed>12.6</speed>
<course>203.5</course>
<desc>Speed 12.6 km/h Distance 0.83 km</desc>
<time>2011-09-24T09:38:18.98</time>
<name>191</name>
</trkpt>
<trkpt lat="41.824343" lon="-1.687528">
<ele>678.0</ele>
<speed>17.4</speed>
<course>201.2</course>
<desc>Speed 17.4 km/h Distance 0.84 km</desc>
<time>2011-09-24T09:38:19.98</time>
<name>192</name>
</trkpt>
<trkpt lat="41.824302" lon="-1.687550">
<ele>678.5</ele>
<speed>17.4</speed>
<course>195.8</course>
<desc>Speed 17.4 km/h Distance 0.84 km</desc>
<time>2011-09-24T09:38:20.98</time>
<name>193</name>
</trkpt>
<trkpt lat="41.824253" lon="-1.687568">
<ele>678.5</ele>
<speed>17.4</speed>
<course>198.3</course>
<desc>Speed 17.4 km/h Distance 0.85 km</desc>
<time>2011-09-24T09:38:21.97</time>
<name>194</name>
</trkpt>
<trkpt lat="41.824208" lon="-1.687588">
<ele>678.5</ele>
<speed>17.1</speed>
<course>166.0</course>
<desc>Speed 17.1 km/h Distance 0.85 km</desc>
<time>2011-09-24T09:38:22.97</time>
<name>195</name>
</trkpt>
<trkpt lat="41.824163" lon="-1.687573">
<ele>677.5</ele>
<speed>12.8</speed>
<course>157.1</course>
<desc>Speed 12.8 km/h Distance 0.86 km</desc>
<time>2011-09-24T09:38:23.98</time>
<name>196</name>
</trkpt>
<trkpt lat="41.824125" lon="-1.687552">
<ele>677.5</ele>
<speed>9.3</speed>
<course>182.2</course>
<desc>Speed 9.3 km/h Distance 0.86 km</desc>
<time>2011-09-24T09:38:24.97</time>
<name>197</name>
</trkpt>
<trkpt lat="41.824027" lon="-1.687557">
<ele>676.0</ele>
<speed>16.1</speed>
<course>191.6</course>
<desc>Speed 16.1 km/h Distance 0.87 km</desc>
<time>2011-09-24T09:38:26.98</time>
<name>198</name>
</trkpt>
<trkpt lat="41.823978" lon="-1.687570">
<ele>676.0</ele>
<speed>15.9</speed>
<course>200.4</course>
<desc>Speed 15.9 km/h Distance 0.88 km</desc>
<time>2011-09-24T09:38:27.98</time>
<name>199</name>
</trkpt>
<trkpt lat="41.823938" lon="-1.687590">
<ele>676.0</ele>
<speed>16.0</speed>
<course>199.7</course>
<desc>Speed 16.0 km/h Distance 0.88 km</desc>
<time>2011-09-24T09:38:28.97</time>
<name>200</name>
</trkpt>
<trkpt lat="41.823897" lon="-1.687610">
<ele>676.0</ele>
<speed>16.2</speed>
<course>182.4</course>
<desc>Speed 16.2 km/h Distance 0.89 km</desc>
<time>2011-09-24T09:38:29.97</time>
<name>201</name>
</trkpt>
<trkpt lat="41.823840" lon="-1.687613">
<ele>675.5</ele>
<speed>22.3</speed>
<course>215.8</course>
<desc>Speed 22.3 km/h Distance 0.89 km</desc>
<time>2011-09-24T09:38:30.97</time>
<name>202</name>
</trkpt>
<trkpt lat="41.823787" lon="-1.687665">
<ele>673.5</ele>
<speed>15.3</speed>
<course>198.9</course>
<desc>Speed 15.3 km/h Distance 0.90 km</desc>
<time>2011-09-24T09:38:32.98</time>
<name>203</name>
</trkpt>
<trkpt lat="41.823747" lon="-1.687683">
<ele>673.5</ele>
<speed>16.2</speed>
<course>179.4</course>
<desc>Speed 16.2 km/h Distance 0.91 km</desc>
<time>2011-09-24T09:38:33.98</time>
<name>204</name>
</trkpt>
<trkpt lat="41.823705" lon="-1.687683">
<ele>674.0</ele>
<speed>14.7</speed>
<course>207.4</course>
<desc>Speed 14.7 km/h Distance 0.91 km</desc>
<time>2011-09-24T09:38:34.98</time>
<name>205</name>
</trkpt>
<trkpt lat="41.823667" lon="-1.687710">
<ele>673.5</ele>
<speed>16.4</speed>
<course>198.9</course>
<desc>Speed 16.4 km/h Distance 0.91 km</desc>
<time>2011-09-24T09:38:35.97</time>
<name>206</name>
</trkpt>
<trkpt lat="41.823627" lon="-1.687728">
<ele>673.0</ele>
<speed>15.9</speed>
<course>198.8</course>
<desc>Speed 15.9 km/h Distance 0.92 km</desc>
<time>2011-09-24T09:38:36.97</time>
<name>207</name>
</trkpt>
<trkpt lat="41.823590" lon="-1.687745">
<ele>673.0</ele>
<speed>14.3</speed>
<course>240.2</course>
<desc>Speed 14.3 km/h Distance 0.92 km</desc>
<time>2011-09-24T09:38:37.97</time>
<name>208</name>
</trkpt>
<trkpt lat="41.823542" lon="-1.687858">
<ele>673.0</ele>
<speed>18.0</speed>
<course>225.6</course>
<desc>Speed 18.0 km/h Distance 0.93 km</desc>
<time>2011-09-24T09:38:39.98</time>
<name>209</name>
</trkpt>
<trkpt lat="41.823510" lon="-1.687902">
<ele>673.0</ele>
<speed>17.5</speed>
<course>223.2</course>
<desc>Speed 17.5 km/h Distance 0.94 km</desc>
<time>2011-09-24T09:38:40.96</time>
<name>210</name>
</trkpt>
<trkpt lat="41.823472" lon="-1.687950">
<ele>674.5</ele>
<speed>20.6</speed>
<course>256.1</course>
<desc>Speed 20.6 km/h Distance 0.95 km</desc>
<time>2011-09-24T09:38:41.96</time>
<name>211</name>
</trkpt>
<trkpt lat="41.823460" lon="-1.688013">
<ele>674.5</ele>
<speed>19.0</speed>
<course>240.6</course>
<desc>Speed 19.0 km/h Distance 0.95 km</desc>
<time>2011-09-24T09:38:42.96</time>
<name>212</name>
</trkpt>
<trkpt lat="41.823438" lon="-1.688065">
<ele>674.5</ele>
<speed>17.4</speed>
<course>235.2</course>
<desc>Speed 17.4 km/h Distance 0.96 km</desc>
<time>2011-09-24T09:38:43.96</time>
<name>213</name>
</trkpt>
<trkpt lat="41.823413" lon="-1.688113">
<ele>674.5</ele>
<speed>17.2</speed>
<course>224.8</course>
<desc>Speed 17.2 km/h Distance 0.96 km</desc>
<time>2011-09-24T09:38:44.96</time>
<name>214</name>
</trkpt>
<trkpt lat="41.823383" lon="-1.688153">
<ele>674.5</ele>
<speed>16.9</speed>
<course>224.5</course>
<desc>Speed 16.9 km/h Distance 0.97 km</desc>
<time>2011-09-24T09:38:45.96</time>
<name>215</name>
</trkpt>
<trkpt lat="41.823352" lon="-1.688195">
<ele>674.0</ele>
<speed>17.2</speed>
<course>223.0</course>
<desc>Speed 17.2 km/h Distance 0.97 km</desc>
<time>2011-09-24T09:38:46.96</time>
<name>216</name>
</trkpt>
<trkpt lat="41.823318" lon="-1.688237">
<ele>674.0</ele>
<speed>17.7</speed>
<course>216.7</course>
<desc>Speed 17.7 km/h Distance 0.98 km</desc>
<time>2011-09-24T09:38:47.96</time>
<name>217</name>
</trkpt>
<trkpt lat="41.823280" lon="-1.688275">
<ele>673.5</ele>
<speed>18.0</speed>
<course>214.2</course>
<desc>Speed 18.0 km/h Distance 0.98 km</desc>
<time>2011-09-24T09:38:48.97</time>
<name>218</name>
</trkpt>
<trkpt lat="41.823242" lon="-1.688310">
<ele>673.5</ele>
<speed>17.5</speed>
<course>212.8</course>
<desc>Speed 17.5 km/h Distance 0.99 km</desc>
<time>2011-09-24T09:38:49.97</time>
<name>219</name>
</trkpt>
<trkpt lat="41.823205" lon="-1.688342">
<ele>673.5</ele>
<speed>17.4</speed>
<course>205.1</course>
<desc>Speed 17.4 km/h Distance 0.99 km</desc>
<time>2011-09-24T09:38:50.97</time>
<name>220</name>
</trkpt>
<trkpt lat="41.823160" lon="-1.688370">
<ele>673.0</ele>
<speed>18.6</speed>
<course>205.1</course>
<desc>Speed 18.6 km/h Distance 1.00 km</desc>
<time>2011-09-24T09:38:51.97</time>
<name>221</name>
</trkpt>
<trkpt lat="41.823115" lon="-1.688398">
<ele>673.0</ele>
<speed>19.4</speed>
<course>206.8</course>
<desc>Speed 19.4 km/h Distance 1.00 km</desc>
<time>2011-09-24T09:38:52.97</time>
<name>222</name>
</trkpt>
<trkpt lat="41.823068" lon="-1.688430">
<ele>672.5</ele>
<speed>20.1</speed>
<course>204.8</course>
<desc>Speed 20.1 km/h Distance 1.01 km</desc>
<time>2011-09-24T09:38:53.96</time>
<name>223</name>
</trkpt>
<trkpt lat="41.823020" lon="-1.688460">
<ele>672.5</ele>
<speed>20.6</speed>
<course>204.8</course>
<desc>Speed 20.6 km/h Distance 1.01 km</desc>
<time>2011-09-24T09:38:54.96</time>
<name>224</name>
</trkpt>
<trkpt lat="41.822972" lon="-1.688490">
<ele>672.5</ele>
<speed>20.8</speed>
<course>206.0</course>
<desc>Speed 20.8 km/h Distance 1.02 km</desc>
<time>2011-09-24T09:38:55.96</time>
<name>225</name>
</trkpt>
<trkpt lat="41.822923" lon="-1.688522">
<ele>672.5</ele>
<speed>21.0</speed>
<course>205.3</course>
<desc>Speed 21.0 km/h Distance 1.03 km</desc>
<time>2011-09-24T09:38:56.96</time>
<name>226</name>
</trkpt>
<trkpt lat="41.822873" lon="-1.688553">
<ele>672.5</ele>
<speed>21.3</speed>
<course>205.3</course>
<desc>Speed 21.3 km/h Distance 1.03 km</desc>
<time>2011-09-24T09:38:57.96</time>
<name>227</name>
</trkpt>
<trkpt lat="41.822823" lon="-1.688585">
<ele>672.5</ele>
<speed>21.2</speed>
<course>206.0</course>
<desc>Speed 21.2 km/h Distance 1.04 km</desc>
<time>2011-09-24T09:38:58.96</time>
<name>228</name>
</trkpt>
<trkpt lat="41.822775" lon="-1.688617">
<ele>672.5</ele>
<speed>20.9</speed>
<course>206.8</course>
<desc>Speed 20.9 km/h Distance 1.04 km</desc>
<time>2011-09-24T09:38:59.96</time>
<name>229</name>
</trkpt>
<trkpt lat="41.822728" lon="-1.688648">
<ele>672.5</ele>
<speed>20.6</speed>
<course>208.0</course>
<desc>Speed 20.6 km/h Distance 1.05 km</desc>
<time>2011-09-24T09:39:00.96</time>
<name>230</name>
</trkpt>
<trkpt lat="41.822682" lon="-1.688682">
<ele>672.5</ele>
<speed>20.5</speed>
<course>206.8</course>
<desc>Speed 20.5 km/h Distance 1.06 km</desc>
<time>2011-09-24T09:39:01.96</time>
<name>231</name>
</trkpt>
<trkpt lat="41.822635" lon="-1.688713">
<ele>672.0</ele>
<speed>20.4</speed>
<course>205.6</course>
<desc>Speed 20.4 km/h Distance 1.06 km</desc>
<time>2011-09-24T09:39:02.96</time>
<name>232</name>
</trkpt>
<trkpt lat="41.822588" lon="-1.688743">
<ele>672.0</ele>
<speed>20.6</speed>
<course>205.6</course>
<desc>Speed 20.6 km/h Distance 1.07 km</desc>
<time>2011-09-24T09:39:03.95</time>
<name>233</name>
</trkpt>
<trkpt lat="41.822542" lon="-1.688773">
<ele>672.0</ele>
<speed>20.1</speed>
<course>205.6</course>
<desc>Speed 20.1 km/h Distance 1.07 km</desc>
<time>2011-09-24T09:39:04.95</time>
<name>234</name>
</trkpt>
<trkpt lat="41.822495" lon="-1.688803">
<ele>672.0</ele>
<speed>20.4</speed>
<course>204.8</course>
<desc>Speed 20.4 km/h Distance 1.08 km</desc>
<time>2011-09-24T09:39:05.95</time>
<name>235</name>
</trkpt>
<trkpt lat="41.822447" lon="-1.688833">
<ele>672.0</ele>
<speed>20.5</speed>
<course>204.8</course>
<desc>Speed 20.5 km/h Distance 1.08 km</desc>
<time>2011-09-24T09:39:06.95</time>
<name>236</name>
</trkpt>
<trkpt lat="41.822398" lon="-1.688863">
<ele>672.5</ele>
<speed>20.6</speed>
<course>206.8</course>
<desc>Speed 20.6 km/h Distance 1.09 km</desc>
<time>2011-09-24T09:39:07.95</time>
<name>237</name>
</trkpt>
<trkpt lat="41.822352" lon="-1.688895">
<ele>672.5</ele>
<speed>20.6</speed>
<course>206.0</course>
<desc>Speed 20.6 km/h Distance 1.10 km</desc>
<time>2011-09-24T09:39:08.95</time>
<name>238</name>
</trkpt>
<trkpt lat="41.822303" lon="-1.688927">
<ele>672.5</ele>
<speed>20.8</speed>
<course>206.8</course>
<desc>Speed 20.8 km/h Distance 1.10 km</desc>
<time>2011-09-24T09:39:09.95</time>
<name>239</name>
</trkpt>
<trkpt lat="41.822257" lon="-1.688958">
<ele>672.5</ele>
<speed>20.6</speed>
<course>208.0</course>
<desc>Speed 20.6 km/h Distance 1.11 km</desc>
<time>2011-09-24T09:39:10.95</time>
<name>240</name>
</trkpt>
<trkpt lat="41.822210" lon="-1.688992">
<ele>672.5</ele>
<speed>20.5</speed>
<course>206.4</course>
<desc>Speed 20.5 km/h Distance 1.11 km</desc>
<time>2011-09-24T09:39:11.95</time>
<name>241</name>
</trkpt>
<trkpt lat="41.822165" lon="-1.689022">
<ele>672.5</ele>
<speed>20.2</speed>
<course>206.4</course>
<desc>Speed 20.2 km/h Distance 1.12 km</desc>
<time>2011-09-24T09:39:12.95</time>
<name>242</name>
</trkpt>
<trkpt lat="41.822120" lon="-1.689052">
<ele>672.5</ele>
<speed>19.6</speed>
<course>207.7</course>
<desc>Speed 19.6 km/h Distance 1.13 km</desc>
<time>2011-09-24T09:39:13.95</time>
<name>243</name>
</trkpt>
<trkpt lat="41.822075" lon="-1.689083">
<ele>672.5</ele>
<speed>19.7</speed>
<course>204.4</course>
<desc>Speed 19.7 km/h Distance 1.13 km</desc>
<time>2011-09-24T09:39:14.95</time>
<name>244</name>
</trkpt>
<trkpt lat="41.822037" lon="-1.689107">
<ele>671.0</ele>
<speed>16.9</speed>
<course>210.6</course>
<desc>Speed 16.9 km/h Distance 1.14 km</desc>
<time>2011-09-24T09:39:15.95</time>
<name>245</name>
</trkpt>
<trkpt lat="41.821997" lon="-1.689138">
<ele>670.5</ele>
<speed>18.4</speed>
<course>206.4</course>
<desc>Speed 18.4 km/h Distance 1.14 km</desc>
<time>2011-09-24T09:39:16.95</time>
<name>246</name>
</trkpt>
<trkpt lat="41.821952" lon="-1.689168">
<ele>671.0</ele>
<speed>19.5</speed>
<course>206.4</course>
<desc>Speed 19.5 km/h Distance 1.15 km</desc>
<time>2011-09-24T09:39:17.95</time>
<name>247</name>
</trkpt>
<trkpt lat="41.821907" lon="-1.689198">
<ele>671.0</ele>
<speed>19.9</speed>
<course>208.2</course>
<desc>Speed 19.9 km/h Distance 1.15 km</desc>
<time>2011-09-24T09:39:18.95</time>
<name>248</name>
</trkpt>
<trkpt lat="41.821865" lon="-1.689228">
<ele>671.5</ele>
<speed>18.8</speed>
<course>211.1</course>
<desc>Speed 18.8 km/h Distance 1.16 km</desc>
<time>2011-09-24T09:39:19.94</time>
<name>249</name>
</trkpt>
<trkpt lat="41.821822" lon="-1.689263">
<ele>671.0</ele>
<speed>20.2</speed>
<course>212.7</course>
<desc>Speed 20.2 km/h Distance 1.16 km</desc>
<time>2011-09-24T09:39:20.95</time>
<name>250</name>
</trkpt>
<trkpt lat="41.821773" lon="-1.689305">
<ele>672.5</ele>
<speed>19.6</speed>
<course>216.7</course>
<desc>Speed 19.6 km/h Distance 1.17 km</desc>
<time>2011-09-24T09:39:21.95</time>
<name>251</name>
</trkpt>
<trkpt lat="41.821730" lon="-1.689348">
<ele>674.0</ele>
<speed>19.6</speed>
<course>221.4</course>
<desc>Speed 19.6 km/h Distance 1.18 km</desc>
<time>2011-09-24T09:39:22.95</time>
<name>252</name>
</trkpt>
<trkpt lat="41.821693" lon="-1.689392">
<ele>674.0</ele>
<speed>19.9</speed>
<course>216.7</course>
<desc>Speed 19.9 km/h Distance 1.18 km</desc>
<time>2011-09-24T09:39:23.95</time>
<name>253</name>
</trkpt>
<trkpt lat="41.821652" lon="-1.689433">
<ele>674.5</ele>
<speed>20.1</speed>
<course>221.4</course>
<desc>Speed 20.1 km/h Distance 1.19 km</desc>
<time>2011-09-24T09:39:24.94</time>
<name>254</name>
</trkpt>
<trkpt lat="41.821615" lon="-1.689477">
<ele>674.5</ele>
<speed>19.7</speed>
<course>223.5</course>
<desc>Speed 19.7 km/h Distance 1.19 km</desc>
<time>2011-09-24T09:39:25.95</time>
<name>255</name>
</trkpt>
<trkpt lat="41.821578" lon="-1.689523">
<ele>674.0</ele>
<speed>20.1</speed>
<course>225.5</course>
<desc>Speed 20.1 km/h Distance 1.20 km</desc>
<time>2011-09-24T09:39:26.94</time>
<name>256</name>
</trkpt>
<trkpt lat="41.821542" lon="-1.689573">
<ele>674.0</ele>
<speed>20.3</speed>
<course>224.5</course>
<desc>Speed 20.3 km/h Distance 1.20 km</desc>
<time>2011-09-24T09:39:27.95</time>
<name>257</name>
</trkpt>
<trkpt lat="41.821505" lon="-1.689622">
<ele>674.0</ele>
<speed>20.5</speed>
<course>225.5</course>
<desc>Speed 20.5 km/h Distance 1.21 km</desc>
<time>2011-09-24T09:39:28.94</time>
<name>258</name>
</trkpt>
<trkpt lat="41.821468" lon="-1.689672">
<ele>674.0</ele>
<speed>20.4</speed>
<course>226.8</course>
<desc>Speed 20.4 km/h Distance 1.21 km</desc>
<time>2011-09-24T09:39:29.94</time>
<name>259</name>
</trkpt>
<trkpt lat="41.821433" lon="-1.689722">
<ele>674.0</ele>
<speed>20.2</speed>
<course>225.8</course>
<desc>Speed 20.2 km/h Distance 1.22 km</desc>
<time>2011-09-24T09:39:30.94</time>
<name>260</name>
</trkpt>
<trkpt lat="41.821398" lon="-1.689770">
<ele>674.0</ele>
<speed>20.0</speed>
<course>225.8</course>
<desc>Speed 20.0 km/h Distance 1.23 km</desc>
<time>2011-09-24T09:39:31.94</time>
<name>261</name>
</trkpt>
<trkpt lat="41.821363" lon="-1.689818">
<ele>674.0</ele>
<speed>20.1</speed>
<course>223.5</course>
<desc>Speed 20.1 km/h Distance 1.23 km</desc>
<time>2011-09-24T09:39:32.94</time>
<name>262</name>
</trkpt>
<trkpt lat="41.821327" lon="-1.689865">
<ele>674.0</ele>
<speed>20.1</speed>
<course>227.2</course>
<desc>Speed 20.1 km/h Distance 1.24 km</desc>
<time>2011-09-24T09:39:33.93</time>
<name>263</name>
</trkpt>
<trkpt lat="41.821293" lon="-1.689913">
<ele>674.0</ele>
<speed>19.7</speed>
<course>220.1</course>
<desc>Speed 19.7 km/h Distance 1.24 km</desc>
<time>2011-09-24T09:39:34.93</time>
<name>264</name>
</trkpt>
<trkpt lat="41.821255" lon="-1.689957">
<ele>674.0</ele>
<speed>19.6</speed>
<course>223.8</course>
<desc>Speed 19.6 km/h Distance 1.25 km</desc>
<time>2011-09-24T09:39:35.93</time>
<name>265</name>
</trkpt>
<trkpt lat="41.821220" lon="-1.690002">
<ele>674.0</ele>
<speed>19.6</speed>
<course>224.5</course>
<desc>Speed 19.6 km/h Distance 1.25 km</desc>
<time>2011-09-24T09:39:36.94</time>
<name>266</name>
</trkpt>
<trkpt lat="41.821183" lon="-1.690050">
<ele>674.0</ele>
<speed>19.9</speed>
<course>222.4</course>
<desc>Speed 19.9 km/h Distance 1.26 km</desc>
<time>2011-09-24T09:39:37.93</time>
<name>267</name>
</trkpt>
<trkpt lat="41.821147" lon="-1.690095">
<ele>674.0</ele>
<speed>19.3</speed>
<course>222.7</course>
<desc>Speed 19.3 km/h Distance 1.26 km</desc>
<time>2011-09-24T09:39:38.94</time>
<name>268</name>
</trkpt>
<trkpt lat="41.821112" lon="-1.690138">
<ele>674.0</ele>
<speed>19.2</speed>
<course>223.5</course>
<desc>Speed 19.2 km/h Distance 1.27 km</desc>
<time>2011-09-24T09:39:39.93</time>
<name>269</name>
</trkpt>
<trkpt lat="41.821075" lon="-1.690185">
<ele>674.5</ele>
<speed>19.3</speed>
<course>217.8</course>
<desc>Speed 19.3 km/h Distance 1.28 km</desc>
<time>2011-09-24T09:39:40.93</time>
<name>270</name>
</trkpt>
<trkpt lat="41.821035" lon="-1.690227">
<ele>675.5</ele>
<speed>18.7</speed>
<course>219.0</course>
<desc>Speed 18.7 km/h Distance 1.28 km</desc>
<time>2011-09-24T09:39:41.93</time>
<name>271</name>
</trkpt>
<trkpt lat="41.820997" lon="-1.690268">
<ele>676.5</ele>
<speed>19.5</speed>
<course>223.0</course>
<desc>Speed 19.5 km/h Distance 1.29 km</desc>
<time>2011-09-24T09:39:42.93</time>
<name>272</name>
</trkpt>
<trkpt lat="41.820963" lon="-1.690310">
<ele>676.5</ele>
<speed>18.1</speed>
<course>221.0</course>
<desc>Speed 18.1 km/h Distance 1.29 km</desc>
<time>2011-09-24T09:39:43.94</time>
<name>273</name>
</trkpt>
<trkpt lat="41.820933" lon="-1.690345">
<ele>676.0</ele>
<speed>14.7</speed>
<course>224.8</course>
<desc>Speed 14.7 km/h Distance 1.30 km</desc>
<time>2011-09-24T09:39:44.93</time>
<name>274</name>
</trkpt>
<trkpt lat="41.820903" lon="-1.690385">
<ele>675.5</ele>
<speed>16.7</speed>
<course>222.7</course>
<desc>Speed 16.7 km/h Distance 1.30 km</desc>
<time>2011-09-24T09:39:45.93</time>
<name>275</name>
</trkpt>
<trkpt lat="41.820868" lon="-1.690428">
<ele>676.0</ele>
<speed>19.3</speed>
<course>223.5</course>
<desc>Speed 19.3 km/h Distance 1.31 km</desc>
<time>2011-09-24T09:39:46.93</time>
<name>276</name>
</trkpt>
<trkpt lat="41.820832" lon="-1.690475">
<ele>676.0</ele>
<speed>19.5</speed>
<course>225.8</course>
<desc>Speed 19.5 km/h Distance 1.31 km</desc>
<time>2011-09-24T09:39:47.93</time>
<name>277</name>
</trkpt>
<trkpt lat="41.820797" lon="-1.690523">
<ele>676.0</ele>
<speed>19.8</speed>
<course>222.5</course>
<desc>Speed 19.8 km/h Distance 1.32 km</desc>
<time>2011-09-24T09:39:48.93</time>
<name>278</name>
</trkpt>
<trkpt lat="41.820760" lon="-1.690568">
<ele>676.5</ele>
<speed>19.7</speed>
<course>222.5</course>
<desc>Speed 19.7 km/h Distance 1.32 km</desc>
<time>2011-09-24T09:39:49.93</time>
<name>279</name>
</trkpt>
<trkpt lat="41.820723" lon="-1.690613">
<ele>677.0</ele>
<speed>19.8</speed>
<course>221.2</course>
<desc>Speed 19.8 km/h Distance 1.33 km</desc>
<time>2011-09-24T09:39:50.93</time>
<name>280</name>
</trkpt>
<trkpt lat="41.820685" lon="-1.690658">
<ele>677.0</ele>
<speed>19.7</speed>
<course>222.5</course>
<desc>Speed 19.7 km/h Distance 1.33 km</desc>
<time>2011-09-24T09:39:51.93</time>
<name>281</name>
</trkpt>
<trkpt lat="41.820648" lon="-1.690703">
<ele>677.5</ele>
<speed>19.8</speed>
<course>223.5</course>
<desc>Speed 19.8 km/h Distance 1.34 km</desc>
<time>2011-09-24T09:39:52.93</time>
<name>282</name>
</trkpt>
<trkpt lat="41.820612" lon="-1.690750">
<ele>677.5</ele>
<speed>19.8</speed>
<course>221.2</course>
<desc>Speed 19.8 km/h Distance 1.35 km</desc>
<time>2011-09-24T09:39:53.93</time>
<name>283</name>
</trkpt>
<trkpt lat="41.820573" lon="-1.690795">
<ele>678.0</ele>
<speed>19.9</speed>
<course>220.1</course>
<desc>Speed 19.9 km/h Distance 1.35 km</desc>
<time>2011-09-24T09:39:54.93</time>
<name>284</name>
</trkpt>
<trkpt lat="41.820535" lon="-1.690838">
<ele>678.0</ele>
<speed>19.7</speed>
<course>222.5</course>
<desc>Speed 19.7 km/h Distance 1.36 km</desc>
<time>2011-09-24T09:39:55.92</time>
<name>285</name>
</trkpt>
<trkpt lat="41.820498" lon="-1.690883">
<ele>678.5</ele>
<speed>19.5</speed>
<course>221.2</course>
<desc>Speed 19.5 km/h Distance 1.36 km</desc>
<time>2011-09-24T09:39:56.92</time>
<name>286</name>
</trkpt>
<trkpt lat="41.820460" lon="-1.690928">
<ele>679.0</ele>
<speed>19.4</speed>
<course>221.4</course>
<desc>Speed 19.4 km/h Distance 1.37 km</desc>
<time>2011-09-24T09:39:57.92</time>
<name>287</name>
</trkpt>
<trkpt lat="41.820423" lon="-1.690972">
<ele>679.5</ele>
<speed>19.2</speed>
<course>221.2</course>
<desc>Speed 19.2 km/h Distance 1.37 km</desc>
<time>2011-09-24T09:39:58.92</time>
<name>288</name>
</trkpt>
<trkpt lat="41.820385" lon="-1.691017">
<ele>680.0</ele>
<speed>19.2</speed>
<course>221.6</course>
<desc>Speed 19.2 km/h Distance 1.38 km</desc>
<time>2011-09-24T09:39:59.93</time>
<name>289</name>
</trkpt>
<trkpt lat="41.820350" lon="-1.691058">
<ele>680.0</ele>
<speed>19.1</speed>
<course>220.8</course>
<desc>Speed 19.1 km/h Distance 1.38 km</desc>
<time>2011-09-24T09:40:00.92</time>
<name>290</name>
</trkpt>
<trkpt lat="41.820318" lon="-1.691095">
<ele>679.5</ele>
<speed>16.4</speed>
<course>220.4</course>
<desc>Speed 16.4 km/h Distance 1.39 km</desc>
<time>2011-09-24T09:40:01.92</time>
<name>291</name>
</trkpt>
<trkpt lat="41.820283" lon="-1.691135">
<ele>680.0</ele>
<speed>18.1</speed>
<course>220.4</course>
<desc>Speed 18.1 km/h Distance 1.39 km</desc>
<time>2011-09-24T09:40:02.93</time>
<name>292</name>
</trkpt>
<trkpt lat="41.820248" lon="-1.691175">
<ele>680.0</ele>
<speed>18.4</speed>
<course>220.4</course>
<desc>Speed 18.4 km/h Distance 1.40 km</desc>
<time>2011-09-24T09:40:03.92</time>
<name>293</name>
</trkpt>
<trkpt lat="41.820213" lon="-1.691215">
<ele>680.5</ele>
<speed>18.0</speed>
<course>216.7</course>
<desc>Speed 18.0 km/h Distance 1.40 km</desc>
<time>2011-09-24T09:40:04.92</time>
<name>294</name>
</trkpt>
<trkpt lat="41.820177" lon="-1.691252">
<ele>680.5</ele>
<speed>18.0</speed>
<course>217.9</course>
<desc>Speed 18.0 km/h Distance 1.41 km</desc>
<time>2011-09-24T09:40:05.92</time>
<name>295</name>
</trkpt>
<trkpt lat="41.820138" lon="-1.691292">
<ele>681.0</ele>
<speed>18.8</speed>
<course>220.4</course>
<desc>Speed 18.8 km/h Distance 1.41 km</desc>
<time>2011-09-24T09:40:06.92</time>
<name>296</name>
</trkpt>
<trkpt lat="41.820103" lon="-1.691332">
<ele>681.5</ele>
<speed>18.8</speed>
<course>221.4</course>
<desc>Speed 18.8 km/h Distance 1.42 km</desc>
<time>2011-09-24T09:40:07.92</time>
<name>297</name>
</trkpt>
<trkpt lat="41.820067" lon="-1.691375">
<ele>682.0</ele>
<speed>18.9</speed>
<course>216.7</course>
<desc>Speed 18.9 km/h Distance 1.43 km</desc>
<time>2011-09-24T09:40:08.92</time>
<name>298</name>
</trkpt>
<trkpt lat="41.820028" lon="-1.691413">
<ele>682.0</ele>
<speed>19.0</speed>
<course>217.9</course>
<desc>Speed 19.0 km/h Distance 1.43 km</desc>
<time>2011-09-24T09:40:09.92</time>
<name>299</name>
</trkpt>
<trkpt lat="41.819990" lon="-1.691453">
<ele>682.0</ele>
<speed>18.9</speed>
<course>215.5</course>
<desc>Speed 18.9 km/h Distance 1.44 km</desc>
<time>2011-09-24T09:40:10.92</time>
<name>300</name>
</trkpt>
<trkpt lat="41.819952" lon="-1.691490">
<ele>682.5</ele>
<speed>19.1</speed>
<course>215.5</course>
<desc>Speed 19.1 km/h Distance 1.44 km</desc>
<time>2011-09-24T09:40:11.91</time>
<name>301</name>
</trkpt>
<trkpt lat="41.819913" lon="-1.691527">
<ele>683.0</ele>
<speed>18.3</speed>
<course>217.9</course>
<desc>Speed 18.3 km/h Distance 1.45 km</desc>
<time>2011-09-24T09:40:12.91</time>
<name>302</name>
</trkpt>
<trkpt lat="41.819877" lon="-1.691565">
<ele>683.5</ele>
<speed>18.5</speed>
<course>215.5</course>
<desc>Speed 18.5 km/h Distance 1.45 km</desc>
<time>2011-09-24T09:40:13.91</time>
<name>303</name>
</trkpt>
<trkpt lat="41.819838" lon="-1.691602">
<ele>684.0</ele>
<speed>18.5</speed>
<course>216.7</course>
<desc>Speed 18.5 km/h Distance 1.46 km</desc>
<time>2011-09-24T09:40:14.91</time>
<name>304</name>
</trkpt>
<trkpt lat="41.819802" lon="-1.691638">
<ele>684.0</ele>
<speed>18.1</speed>
<course>214.2</course>
<desc>Speed 18.1 km/h Distance 1.46 km</desc>
<time>2011-09-24T09:40:15.91</time>
<name>305</name>
</trkpt>
<trkpt lat="41.819763" lon="-1.691673">
<ele>684.5</ele>
<speed>17.9</speed>
<course>212.8</course>
<desc>Speed 17.9 km/h Distance 1.47 km</desc>
<time>2011-09-24T09:40:16.91</time>
<name>306</name>
</trkpt>
<trkpt lat="41.819727" lon="-1.691705">
<ele>685.0</ele>
<speed>17.4</speed>
<course>212.8</course>
<desc>Speed 17.4 km/h Distance 1.47 km</desc>
<time>2011-09-24T09:40:17.92</time>
<name>307</name>
</trkpt>
<trkpt lat="41.819690" lon="-1.691737">
<ele>685.5</ele>
<speed>17.6</speed>
<course>211.4</course>
<desc>Speed 17.6 km/h Distance 1.48 km</desc>
<time>2011-09-24T09:40:18.91</time>
<name>308</name>
</trkpt>
<trkpt lat="41.819653" lon="-1.691767">
<ele>685.5</ele>
<speed>17.0</speed>
<course>214.0</course>
<desc>Speed 17.0 km/h Distance 1.48 km</desc>
<time>2011-09-24T09:40:19.91</time>
<name>309</name>
</trkpt>
<trkpt lat="41.819618" lon="-1.691798">
<ele>686.0</ele>
<speed>17.0</speed>
<course>208.8</course>
<desc>Speed 17.0 km/h Distance 1.49 km</desc>
<time>2011-09-24T09:40:20.91</time>
<name>310</name>
</trkpt>
<trkpt lat="41.819580" lon="-1.691827">
<ele>686.0</ele>
<speed>17.4</speed>
<course>211.4</course>
<desc>Speed 17.4 km/h Distance 1.49 km</desc>
<time>2011-09-24T09:40:21.91</time>
<name>311</name>
</trkpt>
<trkpt lat="41.819543" lon="-1.691857">
<ele>686.5</ele>
<speed>17.3</speed>
<course>208.8</course>
<desc>Speed 17.3 km/h Distance 1.50 km</desc>
<time>2011-09-24T09:40:22.91</time>
<name>312</name>
</trkpt>
<trkpt lat="41.819505" lon="-1.691885">
<ele>686.5</ele>
<speed>17.2</speed>
<course>205.0</course>
<desc>Speed 17.2 km/h Distance 1.50 km</desc>
<time>2011-09-24T09:40:23.91</time>
<name>313</name>
</trkpt>
<trkpt lat="41.819465" lon="-1.691910">
<ele>687.0</ele>
<speed>17.0</speed>
<course>211.4</course>
<desc>Speed 17.0 km/h Distance 1.51 km</desc>
<time>2011-09-24T09:40:24.91</time>
<name>314</name>
</trkpt>
<trkpt lat="41.819428" lon="-1.691940">
<ele>687.0</ele>
<speed>17.1</speed>
<course>211.6</course>
<desc>Speed 17.1 km/h Distance 1.51 km</desc>
<time>2011-09-24T09:40:25.91</time>
<name>315</name>
</trkpt>
<trkpt lat="41.819390" lon="-1.691972">
<ele>687.5</ele>
<speed>17.6</speed>
<course>210.3</course>
<desc>Speed 17.6 km/h Distance 1.52 km</desc>
<time>2011-09-24T09:40:26.90</time>
<name>316</name>
</trkpt>
<trkpt lat="41.819352" lon="-1.692002">
<ele>687.5</ele>
<speed>17.5</speed>
<course>207.4</course>
<desc>Speed 17.5 km/h Distance 1.52 km</desc>
<time>2011-09-24T09:40:27.90</time>
<name>317</name>
</trkpt>
<trkpt lat="41.819313" lon="-1.692028">
<ele>688.0</ele>
<speed>17.4</speed>
<course>207.4</course>
<desc>Speed 17.4 km/h Distance 1.53 km</desc>
<time>2011-09-24T09:40:28.90</time>
<name>318</name>
</trkpt>
<trkpt lat="41.819275" lon="-1.692055">
<ele>688.0</ele>
<speed>17.0</speed>
<course>206.4</course>
<desc>Speed 17.0 km/h Distance 1.53 km</desc>
<time>2011-09-24T09:40:29.90</time>
<name>319</name>
</trkpt>
<trkpt lat="41.819235" lon="-1.692082">
<ele>688.5</ele>
<speed>17.3</speed>
<course>204.9</course>
<desc>Speed 17.3 km/h Distance 1.54 km</desc>
<time>2011-09-24T09:40:30.90</time>
<name>320</name>
</trkpt>
<trkpt lat="41.819195" lon="-1.692107">
<ele>688.5</ele>
<speed>17.1</speed>
<course>205.9</course>
<desc>Speed 17.1 km/h Distance 1.54 km</desc>
<time>2011-09-24T09:40:31.90</time>
<name>321</name>
</trkpt>
<trkpt lat="41.819157" lon="-1.692132">
<ele>688.5</ele>
<speed>16.9</speed>
<course>201.3</course>
<desc>Speed 16.9 km/h Distance 1.54 km</desc>
<time>2011-09-24T09:40:32.90</time>
<name>322</name>
</trkpt>
<trkpt lat="41.819118" lon="-1.692152">
<ele>688.5</ele>
<speed>16.0</speed>
<course>204.1</course>
<desc>Speed 16.0 km/h Distance 1.55 km</desc>
<time>2011-09-24T09:40:33.90</time>
<name>323</name>
</trkpt>
<trkpt lat="41.819085" lon="-1.692172">
<ele>688.5</ele>
<speed>14.4</speed>
<course>206.4</course>
<desc>Speed 14.4 km/h Distance 1.55 km</desc>
<time>2011-09-24T09:40:34.90</time>
<name>324</name>
</trkpt>
<trkpt lat="41.819050" lon="-1.692195">
<ele>688.5</ele>
<speed>15.1</speed>
<course>200.4</course>
<desc>Speed 15.1 km/h Distance 1.56 km</desc>
<time>2011-09-24T09:40:35.90</time>
<name>325</name>
</trkpt>
<trkpt lat="41.819013" lon="-1.692213">
<ele>689.0</ele>
<speed>15.6</speed>
<course>212.1</course>
<desc>Speed 15.6 km/h Distance 1.56 km</desc>
<time>2011-09-24T09:40:36.90</time>
<name>326</name>
</trkpt>
<trkpt lat="41.818982" lon="-1.692240">
<ele>689.0</ele>
<speed>15.0</speed>
<course>203.0</course>
<desc>Speed 15.0 km/h Distance 1.57 km</desc>
<time>2011-09-24T09:40:37.90</time>
<name>327</name>
</trkpt>
<trkpt lat="41.818947" lon="-1.692260">
<ele>689.0</ele>
<speed>15.5</speed>
<course>203.1</course>
<desc>Speed 15.5 km/h Distance 1.57 km</desc>
<time>2011-09-24T09:40:38.90</time>
<name>328</name>
</trkpt>
<trkpt lat="41.818912" lon="-1.692280">
<ele>689.5</ele>
<speed>15.6</speed>
<course>201.3</course>
<desc>Speed 15.6 km/h Distance 1.57 km</desc>
<time>2011-09-24T09:40:39.90</time>
<name>329</name>
</trkpt>
<trkpt lat="41.818877" lon="-1.692298">
<ele>689.5</ele>
<speed>15.2</speed>
<course>203.8</course>
<desc>Speed 15.2 km/h Distance 1.58 km</desc>
<time>2011-09-24T09:40:40.89</time>
<name>330</name>
</trkpt>
<trkpt lat="41.818840" lon="-1.692320">
<ele>689.5</ele>
<speed>15.6</speed>
<course>203.1</course>
<desc>Speed 15.6 km/h Distance 1.58 km</desc>
<time>2011-09-24T09:40:41.89</time>
<name>331</name>
</trkpt>
<trkpt lat="41.818805" lon="-1.692340">
<ele>690.0</ele>
<speed>15.5</speed>
<course>198.7</course>
<desc>Speed 15.5 km/h Distance 1.59 km</desc>
<time>2011-09-24T09:40:42.89</time>
<name>332</name>
</trkpt>
<trkpt lat="41.818768" lon="-1.692357">
<ele>690.0</ele>
<speed>15.2</speed>
<course>200.4</course>
<desc>Speed 15.2 km/h Distance 1.59 km</desc>
<time>2011-09-24T09:40:43.89</time>
<name>333</name>
</trkpt>
<trkpt lat="41.818735" lon="-1.692373">
<ele>690.0</ele>
<speed>14.6</speed>
<course>204.1</course>
<desc>Speed 14.6 km/h Distance 1.60 km</desc>
<time>2011-09-24T09:40:44.89</time>
<name>334</name>
</trkpt>
<trkpt lat="41.818702" lon="-1.692393">
<ele>690.5</ele>
<speed>14.7</speed>
<course>199.5</course>
<desc>Speed 14.7 km/h Distance 1.60 km</desc>
<time>2011-09-24T09:40:45.89</time>
<name>335</name>
</trkpt>
<trkpt lat="41.818667" lon="-1.692410">
<ele>690.5</ele>
<speed>15.0</speed>
<course>201.3</course>
<desc>Speed 15.0 km/h Distance 1.60 km</desc>
<time>2011-09-24T09:40:46.89</time>
<name>336</name>
</trkpt>
<trkpt lat="41.818632" lon="-1.692428">
<ele>690.5</ele>
<speed>15.1</speed>
<course>201.3</course>
<desc>Speed 15.1 km/h Distance 1.61 km</desc>
<time>2011-09-24T09:40:47.89</time>
<name>337</name>
</trkpt>
<trkpt lat="41.818597" lon="-1.692447">
<ele>690.5</ele>
<speed>15.1</speed>
<course>201.3</course>
<desc>Speed 15.1 km/h Distance 1.61 km</desc>
<time>2011-09-24T09:40:48.89</time>
<name>338</name>
</trkpt>
<trkpt lat="41.818562" lon="-1.692465">
<ele>690.5</ele>
<speed>15.2</speed>
<course>200.5</course>
<desc>Speed 15.2 km/h Distance 1.62 km</desc>
<time>2011-09-24T09:40:49.89</time>
<name>339</name>
</trkpt>
<trkpt lat="41.818525" lon="-1.692483">
<ele>690.5</ele>
<speed>15.3</speed>
<course>205.8</course>
<desc>Speed 15.3 km/h Distance 1.62 km</desc>
<time>2011-09-24T09:40:50.89</time>
<name>340</name>
</trkpt>
<trkpt lat="41.818492" lon="-1.692505">
<ele>691.0</ele>
<speed>14.9</speed>
<course>199.5</course>
<desc>Speed 14.9 km/h Distance 1.63 km</desc>
<time>2011-09-24T09:40:51.89</time>
<name>341</name>
</trkpt>
<trkpt lat="41.818457" lon="-1.692522">
<ele>691.0</ele>
<speed>14.7</speed>
<course>202.3</course>
<desc>Speed 14.7 km/h Distance 1.63 km</desc>
<time>2011-09-24T09:40:52.88</time>
<name>342</name>
</trkpt>
<trkpt lat="41.818423" lon="-1.692540">
<ele>691.0</ele>
<speed>14.4</speed>
<course>201.3</course>
<desc>Speed 14.4 km/h Distance 1.63 km</desc>
<time>2011-09-24T09:40:53.89</time>
<name>343</name>
</trkpt>
<trkpt lat="41.818388" lon="-1.692558">
<ele>691.5</ele>
<speed>14.8</speed>
<course>202.3</course>
<desc>Speed 14.8 km/h Distance 1.64 km</desc>
<time>2011-09-24T09:40:54.88</time>
<name>344</name>
</trkpt>
<trkpt lat="41.818355" lon="-1.692577">
<ele>691.5</ele>
<speed>14.4</speed>
<course>199.5</course>
<desc>Speed 14.4 km/h Distance 1.64 km</desc>
<time>2011-09-24T09:40:55.88</time>
<name>345</name>
</trkpt>
<trkpt lat="41.818320" lon="-1.692593">
<ele>691.5</ele>
<speed>14.7</speed>
<course>203.1</course>
<desc>Speed 14.7 km/h Distance 1.65 km</desc>
<time>2011-09-24T09:40:56.88</time>
<name>346</name>
</trkpt>
<trkpt lat="41.818285" lon="-1.692613">
<ele>691.5</ele>
<speed>15.2</speed>
<course>203.1</course>
<desc>Speed 15.2 km/h Distance 1.65 km</desc>
<time>2011-09-24T09:40:57.88</time>
<name>347</name>
</trkpt>
<trkpt lat="41.818250" lon="-1.692633">
<ele>692.0</ele>
<speed>15.2</speed>
<course>199.5</course>
<desc>Speed 15.2 km/h Distance 1.65 km</desc>
<time>2011-09-24T09:40:58.88</time>
<name>348</name>
</trkpt>
<trkpt lat="41.818215" lon="-1.692650">
<ele>692.0</ele>
<speed>14.7</speed>
<course>207.0</course>
<desc>Speed 14.7 km/h Distance 1.66 km</desc>
<time>2011-09-24T09:40:59.88</time>
<name>349</name>
</trkpt>
<trkpt lat="41.818183" lon="-1.692672">
<ele>692.0</ele>
<speed>14.3</speed>
<course>198.6</course>
<desc>Speed 14.3 km/h Distance 1.66 km</desc>
<time>2011-09-24T09:41:00.88</time>
<name>350</name>
</trkpt>
<trkpt lat="41.818150" lon="-1.692687">
<ele>692.0</ele>
<speed>13.8</speed>
<course>200.4</course>
<desc>Speed 13.8 km/h Distance 1.67 km</desc>
<time>2011-09-24T09:41:01.88</time>
<name>351</name>
</trkpt>
<trkpt lat="41.818113" lon="-1.692705">
<ele>692.0</ele>
<speed>15.4</speed>
<course>200.4</course>
<desc>Speed 15.4 km/h Distance 1.67 km</desc>
<time>2011-09-24T09:41:02.88</time>
<name>352</name>
</trkpt>
<trkpt lat="41.818077" lon="-1.692723">
<ele>692.5</ele>
<speed>15.6</speed>
<course>202.1</course>
<desc>Speed 15.6 km/h Distance 1.67 km</desc>
<time>2011-09-24T09:41:03.88</time>
<name>353</name>
</trkpt>
<trkpt lat="41.818040" lon="-1.692743">
<ele>692.5</ele>
<speed>15.9</speed>
<course>205.3</course>
<desc>Speed 15.9 km/h Distance 1.68 km</desc>
<time>2011-09-24T09:41:04.88</time>
<name>354</name>
</trkpt>
<trkpt lat="41.818003" lon="-1.692767">
<ele>692.5</ele>
<speed>16.3</speed>
<course>200.4</course>
<desc>Speed 16.3 km/h Distance 1.68 km</desc>
<time>2011-09-24T09:41:05.88</time>
<name>355</name>
</trkpt>
<trkpt lat="41.817963" lon="-1.692787">
<ele>693.0</ele>
<speed>16.5</speed>
<course>202.1</course>
<desc>Speed 16.5 km/h Distance 1.69 km</desc>
<time>2011-09-24T09:41:06.88</time>
<name>356</name>
</trkpt>
<trkpt lat="41.817927" lon="-1.692807">
<ele>693.0</ele>
<speed>16.2</speed>
<course>204.4</course>
<desc>Speed 16.2 km/h Distance 1.69 km</desc>
<time>2011-09-24T09:41:07.88</time>
<name>357</name>
</trkpt>
<trkpt lat="41.817888" lon="-1.692830">
<ele>693.5</ele>
<speed>16.4</speed>
<course>203.8</course>
<desc>Speed 16.4 km/h Distance 1.70 km</desc>
<time>2011-09-24T09:41:08.87</time>
<name>358</name>
</trkpt>
<trkpt lat="41.817852" lon="-1.692852">
<ele>693.5</ele>
<speed>16.1</speed>
<course>201.2</course>
<desc>Speed 16.1 km/h Distance 1.70 km</desc>
<time>2011-09-24T09:41:09.87</time>
<name>359</name>
</trkpt>
<trkpt lat="41.817813" lon="-1.692872">
<ele>693.5</ele>
<speed>16.3</speed>
<course>200.4</course>
<desc>Speed 16.3 km/h Distance 1.71 km</desc>
<time>2011-09-24T09:41:10.87</time>
<name>360</name>
</trkpt>
<trkpt lat="41.817777" lon="-1.692890">
<ele>693.5</ele>
<speed>15.8</speed>
<course>202.1</course>
<desc>Speed 15.8 km/h Distance 1.71 km</desc>
<time>2011-09-24T09:41:11.87</time>
<name>361</name>
</trkpt>
<trkpt lat="41.817740" lon="-1.692910">
<ele>693.5</ele>
<speed>15.9</speed>
<course>202.1</course>
<desc>Speed 15.9 km/h Distance 1.72 km</desc>
<time>2011-09-24T09:41:12.87</time>
<name>362</name>
</trkpt>
<trkpt lat="41.817703" lon="-1.692930">
<ele>694.0</ele>
<speed>15.6</speed>
<course>202.1</course>
<desc>Speed 15.6 km/h Distance 1.72 km</desc>
<time>2011-09-24T09:41:13.87</time>
<name>363</name>
</trkpt>
<trkpt lat="41.817667" lon="-1.692950">
<ele>694.0</ele>
<speed>15.5</speed>
<course>203.8</course>
<desc>Speed 15.5 km/h Distance 1.72 km</desc>
<time>2011-09-24T09:41:14.87</time>
<name>364</name>
</trkpt>
<trkpt lat="41.817630" lon="-1.692972">
<ele>694.0</ele>
<speed>15.7</speed>
<course>204.8</course>
<desc>Speed 15.7 km/h Distance 1.73 km</desc>
<time>2011-09-24T09:41:15.87</time>
<name>365</name>
</trkpt>
<trkpt lat="41.817595" lon="-1.692993">
<ele>694.5</ele>
<speed>15.5</speed>
<course>205.8</course>
<desc>Speed 15.5 km/h Distance 1.73 km</desc>
<time>2011-09-24T09:41:16.87</time>
<name>366</name>
</trkpt>
<trkpt lat="41.817562" lon="-1.693015">
<ele>694.5</ele>
<speed>14.5</speed>
<course>204.8</course>
<desc>Speed 14.5 km/h Distance 1.74 km</desc>
<time>2011-09-24T09:41:17.87</time>
<name>367</name>
</trkpt>
<trkpt lat="41.817527" lon="-1.693037">
<ele>694.5</ele>
<speed>15.4</speed>
<course>203.1</course>
<desc>Speed 15.4 km/h Distance 1.74 km</desc>
<time>2011-09-24T09:41:18.87</time>
<name>368</name>
</trkpt>
<trkpt lat="41.817492" lon="-1.693057">
<ele>694.5</ele>
<speed>15.4</speed>
<course>202.1</course>
<desc>Speed 15.4 km/h Distance 1.75 km</desc>
<time>2011-09-24T09:41:19.87</time>
<name>369</name>
</trkpt>
<trkpt lat="41.817455" lon="-1.693077">
<ele>694.5</ele>
<speed>15.9</speed>
<course>199.6</course>
<desc>Speed 15.9 km/h Distance 1.75 km</desc>
<time>2011-09-24T09:41:20.87</time>
<name>370</name>
</trkpt>
<trkpt lat="41.817417" lon="-1.693095">
<ele>694.5</ele>
<speed>16.1</speed>
<course>200.5</course>
<desc>Speed 16.1 km/h Distance 1.75 km</desc>
<time>2011-09-24T09:41:21.87</time>
<name>371</name>
</trkpt>
<trkpt lat="41.817380" lon="-1.693113">
<ele>695.0</ele>
<speed>15.7</speed>
<course>202.1</course>
<desc>Speed 15.7 km/h Distance 1.76 km</desc>
<time>2011-09-24T09:41:22.87</time>
<name>372</name>
</trkpt>
<trkpt lat="41.817343" lon="-1.693133">
<ele>695.0</ele>
<speed>16.1</speed>
<course>199.6</course>
<desc>Speed 16.1 km/h Distance 1.76 km</desc>
<time>2011-09-24T09:41:23.86</time>
<name>373</name>
</trkpt>
<trkpt lat="41.817305" lon="-1.693152">
<ele>695.0</ele>
<speed>15.7</speed>
<course>201.4</course>
<desc>Speed 15.7 km/h Distance 1.77 km</desc>
<time>2011-09-24T09:41:24.86</time>
<name>374</name>
</trkpt>
<trkpt lat="41.817270" lon="-1.693170">
<ele>695.0</ele>
<speed>15.4</speed>
<course>202.1</course>
<desc>Speed 15.4 km/h Distance 1.77 km</desc>
<time>2011-09-24T09:41:25.86</time>
<name>375</name>
</trkpt>
<trkpt lat="41.817233" lon="-1.693190">
<ele>695.0</ele>
<speed>15.7</speed>
<course>198.8</course>
<desc>Speed 15.7 km/h Distance 1.78 km</desc>
<time>2011-09-24T09:41:26.86</time>
<name>376</name>
</trkpt>
<trkpt lat="41.817193" lon="-1.693208">
<ele>695.0</ele>
<speed>16.5</speed>
<course>199.6</course>
<desc>Speed 16.5 km/h Distance 1.78 km</desc>
<time>2011-09-24T09:41:27.86</time>
<name>377</name>
</trkpt>
<trkpt lat="41.817155" lon="-1.693227">
<ele>695.0</ele>
<speed>16.3</speed>
<course>204.4</course>
<desc>Speed 16.3 km/h Distance 1.79 km</desc>
<time>2011-09-24T09:41:28.86</time>
<name>378</name>
</trkpt>
<trkpt lat="41.817117" lon="-1.693250">
<ele>695.0</ele>
<speed>16.7</speed>
<course>203.8</course>
<desc>Speed 16.7 km/h Distance 1.79 km</desc>
<time>2011-09-24T09:41:29.86</time>
<name>379</name>
</trkpt>
<trkpt lat="41.817080" lon="-1.693272">
<ele>695.5</ele>
<speed>16.4</speed>
<course>201.2</course>
<desc>Speed 16.4 km/h Distance 1.79 km</desc>
<time>2011-09-24T09:41:30.86</time>
<name>380</name>
</trkpt>
<trkpt lat="41.817042" lon="-1.693292">
<ele>695.5</ele>
<speed>16.1</speed>
<course>203.8</course>
<desc>Speed 16.1 km/h Distance 1.80 km</desc>
<time>2011-09-24T09:41:31.86</time>
<name>381</name>
</trkpt>
<trkpt lat="41.817005" lon="-1.693313">
<ele>695.5</ele>
<speed>15.9</speed>
<course>202.1</course>
<desc>Speed 15.9 km/h Distance 1.80 km</desc>
<time>2011-09-24T09:41:32.86</time>
<name>382</name>
</trkpt>
<trkpt lat="41.816968" lon="-1.693333">
<ele>695.5</ele>
<speed>15.8</speed>
<course>202.1</course>
<desc>Speed 15.8 km/h Distance 1.81 km</desc>
<time>2011-09-24T09:41:33.86</time>
<name>383</name>
</trkpt>
<trkpt lat="41.816932" lon="-1.693353">
<ele>696.0</ele>
<speed>15.7</speed>
<course>203.8</course>
<desc>Speed 15.7 km/h Distance 1.81 km</desc>
<time>2011-09-24T09:41:34.86</time>
<name>384</name>
</trkpt>
<trkpt lat="41.816895" lon="-1.693375">
<ele>696.0</ele>
<speed>15.9</speed>
<course>203.8</course>
<desc>Speed 15.9 km/h Distance 1.82 km</desc>
<time>2011-09-24T09:41:35.86</time>
<name>385</name>
</trkpt>
<trkpt lat="41.816858" lon="-1.693397">
<ele>696.0</ele>
<speed>15.7</speed>
<course>202.1</course>
<desc>Speed 15.7 km/h Distance 1.82 km</desc>
<time>2011-09-24T09:41:36.85</time>
<name>386</name>
</trkpt>
<trkpt lat="41.816822" lon="-1.693417">
<ele>696.0</ele>
<speed>15.9</speed>
<course>203.8</course>
<desc>Speed 15.9 km/h Distance 1.83 km</desc>
<time>2011-09-24T09:41:37.86</time>
<name>387</name>
</trkpt>
<trkpt lat="41.816785" lon="-1.693438">
<ele>696.5</ele>
<speed>15.9</speed>
<course>202.1</course>
<desc>Speed 15.9 km/h Distance 1.83 km</desc>
<time>2011-09-24T09:41:38.85</time>
<name>388</name>
</trkpt>
<trkpt lat="41.816748" lon="-1.693458">
<ele>696.5</ele>
<speed>15.9</speed>
<course>202.1</course>
<desc>Speed 15.9 km/h Distance 1.83 km</desc>
<time>2011-09-24T09:41:39.85</time>
<name>389</name>
</trkpt>
<trkpt lat="41.816712" lon="-1.693478">
<ele>696.5</ele>
<speed>15.6</speed>
<course>202.1</course>
<desc>Speed 15.6 km/h Distance 1.84 km</desc>
<time>2011-09-24T09:41:40.85</time>
<name>390</name>
</trkpt>
<trkpt lat="41.816675" lon="-1.693498">
<ele>696.5</ele>
<speed>15.7</speed>
<course>204.8</course>
<desc>Speed 15.7 km/h Distance 1.84 km</desc>
<time>2011-09-24T09:41:41.85</time>
<name>391</name>
</trkpt>
<trkpt lat="41.816640" lon="-1.693520">
<ele>696.5</ele>
<speed>15.7</speed>
<course>202.1</course>
<desc>Speed 15.7 km/h Distance 1.85 km</desc>
<time>2011-09-24T09:41:42.85</time>
<name>392</name>
</trkpt>
<trkpt lat="41.816603" lon="-1.693540">
<ele>697.0</ele>
<speed>15.2</speed>
<course>203.1</course>
<desc>Speed 15.2 km/h Distance 1.85 km</desc>
<time>2011-09-24T09:41:43.85</time>
<name>393</name>
</trkpt>
<trkpt lat="41.816568" lon="-1.693560">
<ele>697.0</ele>
<speed>15.3</speed>
<course>202.1</course>
<desc>Speed 15.3 km/h Distance 1.86 km</desc>
<time>2011-09-24T09:41:44.85</time>
<name>394</name>
</trkpt>
<trkpt lat="41.816532" lon="-1.693580">
<ele>697.0</ele>
<speed>15.7</speed>
<course>203.8</course>
<desc>Speed 15.7 km/h Distance 1.86 km</desc>
<time>2011-09-24T09:41:45.85</time>
<name>395</name>
</trkpt>
<trkpt lat="41.816495" lon="-1.693602">
<ele>697.5</ele>
<speed>15.7</speed>
<course>203.1</course>
<desc>Speed 15.7 km/h Distance 1.87 km</desc>
<time>2011-09-24T09:41:46.85</time>
<name>396</name>
</trkpt>
<trkpt lat="41.816460" lon="-1.693622">
<ele>697.5</ele>
<speed>15.3</speed>
<course>199.5</course>
<desc>Speed 15.3 km/h Distance 1.87 km</desc>
<time>2011-09-24T09:41:47.85</time>
<name>397</name>
</trkpt>
<trkpt lat="41.816425" lon="-1.693638">
<ele>697.5</ele>
<speed>15.1</speed>
<course>203.1</course>
<desc>Speed 15.1 km/h Distance 1.87 km</desc>
<time>2011-09-24T09:41:48.85</time>
<name>398</name>
</trkpt>
<trkpt lat="41.816390" lon="-1.693658">
<ele>697.5</ele>
<speed>15.1</speed>
<course>201.3</course>
<desc>Speed 15.1 km/h Distance 1.88 km</desc>
<time>2011-09-24T09:41:49.85</time>
<name>399</name>
</trkpt>
<trkpt lat="41.816355" lon="-1.693677">
<ele>697.5</ele>
<speed>15.2</speed>
<course>203.8</course>
<desc>Speed 15.2 km/h Distance 1.88 km</desc>
<time>2011-09-24T09:41:50.85</time>
<name>400</name>
</trkpt>
<trkpt lat="41.816318" lon="-1.693698">
<ele>697.5</ele>
<speed>15.6</speed>
<course>202.1</course>
<desc>Speed 15.6 km/h Distance 1.89 km</desc>
<time>2011-09-24T09:41:51.85</time>
<name>401</name>
</trkpt>
<trkpt lat="41.816282" lon="-1.693718">
<ele>698.0</ele>
<speed>15.6</speed>
<course>202.1</course>
<desc>Speed 15.6 km/h Distance 1.89 km</desc>
<time>2011-09-24T09:41:52.84</time>
<name>402</name>
</trkpt>
<trkpt lat="41.816245" lon="-1.693738">
<ele>698.0</ele>
<speed>15.7</speed>
<course>202.1</course>
<desc>Speed 15.7 km/h Distance 1.90 km</desc>
<time>2011-09-24T09:41:53.84</time>
<name>403</name>
</trkpt>
<trkpt lat="41.816208" lon="-1.693758">
<ele>698.5</ele>
<speed>16.1</speed>
<course>203.8</course>
<desc>Speed 16.1 km/h Distance 1.90 km</desc>
<time>2011-09-24T09:41:54.84</time>
<name>404</name>
</trkpt>
<trkpt lat="41.816172" lon="-1.693780">
<ele>698.5</ele>
<speed>16.1</speed>
<course>202.9</course>
<desc>Speed 16.1 km/h Distance 1.90 km</desc>
<time>2011-09-24T09:41:55.84</time>
<name>405</name>
</trkpt>
<trkpt lat="41.816133" lon="-1.693802">
<ele>699.0</ele>
<speed>16.2</speed>
<course>200.4</course>
<desc>Speed 16.2 km/h Distance 1.91 km</desc>
<time>2011-09-24T09:41:56.84</time>
<name>406</name>
</trkpt>
<trkpt lat="41.816097" lon="-1.693820">
<ele>699.0</ele>
<speed>15.6</speed>
<course>197.0</course>
<desc>Speed 15.6 km/h Distance 1.91 km</desc>
<time>2011-09-24T09:41:57.84</time>
<name>407</name>
</trkpt>
<trkpt lat="41.816060" lon="-1.693835">
<ele>699.0</ele>
<speed>15.2</speed>
<course>199.6</course>
<desc>Speed 15.2 km/h Distance 1.92 km</desc>
<time>2011-09-24T09:41:58.84</time>
<name>408</name>
</trkpt>
<trkpt lat="41.816022" lon="-1.693853">
<ele>699.0</ele>
<speed>16.5</speed>
<course>200.4</course>
<desc>Speed 16.5 km/h Distance 1.92 km</desc>
<time>2011-09-24T09:41:59.84</time>
<name>409</name>
</trkpt>
<trkpt lat="41.815982" lon="-1.693873">
<ele>699.0</ele>
<speed>16.6</speed>
<course>202.9</course>
<desc>Speed 16.6 km/h Distance 1.93 km</desc>
<time>2011-09-24T09:42:00.84</time>
<name>410</name>
</trkpt>
<trkpt lat="41.815943" lon="-1.693895">
<ele>699.5</ele>
<speed>17.0</speed>
<course>202.0</course>
<desc>Speed 17.0 km/h Distance 1.93 km</desc>
<time>2011-09-24T09:42:01.84</time>
<name>411</name>
</trkpt>
<trkpt lat="41.815903" lon="-1.693917">
<ele>699.5</ele>
<speed>17.4</speed>
<course>202.9</course>
<desc>Speed 17.4 km/h Distance 1.94 km</desc>
<time>2011-09-24T09:42:02.84</time>
<name>412</name>
</trkpt>
<trkpt lat="41.815865" lon="-1.693938">
<ele>699.5</ele>
<speed>16.7</speed>
<course>202.0</course>
<desc>Speed 16.7 km/h Distance 1.94 km</desc>
<time>2011-09-24T09:42:03.84</time>
<name>413</name>
</trkpt>
<trkpt lat="41.815825" lon="-1.693960">
<ele>699.5</ele>
<speed>17.0</speed>
<course>200.4</course>
<desc>Speed 17.0 km/h Distance 1.95 km</desc>
<time>2011-09-24T09:42:04.84</time>
<name>414</name>
</trkpt>
<trkpt lat="41.815785" lon="-1.693980">
<ele>699.5</ele>
<speed>17.0</speed>
<course>202.9</course>
<desc>Speed 17.0 km/h Distance 1.95 km</desc>
<time>2011-09-24T09:42:05.84</time>
<name>415</name>
</trkpt>
<trkpt lat="41.815747" lon="-1.694002">
<ele>699.5</ele>
<speed>16.7</speed>
<course>201.3</course>
<desc>Speed 16.7 km/h Distance 1.96 km</desc>
<time>2011-09-24T09:42:06.84</time>
<name>416</name>
</trkpt>
<trkpt lat="41.815708" lon="-1.694022">
<ele>700.0</ele>
<speed>16.3</speed>
<course>201.2</course>
<desc>Speed 16.3 km/h Distance 1.96 km</desc>
<time>2011-09-24T09:42:07.84</time>
<name>417</name>
</trkpt>
<trkpt lat="41.815670" lon="-1.694042">
<ele>700.0</ele>
<speed>16.4</speed>
<course>203.8</course>
<desc>Speed 16.4 km/h Distance 1.96 km</desc>
<time>2011-09-24T09:42:08.83</time>
<name>418</name>
</trkpt>
<trkpt lat="41.815633" lon="-1.694063">
<ele>700.5</ele>
<speed>16.1</speed>
<course>203.8</course>
<desc>Speed 16.1 km/h Distance 1.97 km</desc>
<time>2011-09-24T09:42:09.84</time>
<name>419</name>
</trkpt>
<trkpt lat="41.815597" lon="-1.694085">
<ele>700.5</ele>
<speed>16.1</speed>
<course>202.1</course>
<desc>Speed 16.1 km/h Distance 1.97 km</desc>
<time>2011-09-24T09:42:10.83</time>
<name>420</name>
</trkpt>
<trkpt lat="41.815560" lon="-1.694105">
<ele>700.5</ele>
<speed>16.0</speed>
<course>201.3</course>
<desc>Speed 16.0 km/h Distance 1.98 km</desc>
<time>2011-09-24T09:42:11.83</time>
<name>421</name>
</trkpt>
<trkpt lat="41.815522" lon="-1.694125">
<ele>701.0</ele>
<speed>16.2</speed>
<course>202.1</course>
<desc>Speed 16.2 km/h Distance 1.98 km</desc>
<time>2011-09-24T09:42:12.83</time>
<name>422</name>
</trkpt>
<trkpt lat="41.815485" lon="-1.694145">
<ele>700.5</ele>
<speed>16.1</speed>
<course>202.1</course>
<desc>Speed 16.1 km/h Distance 1.99 km</desc>
<time>2011-09-24T09:42:13.83</time>
<name>423</name>
</trkpt>
<trkpt lat="41.815448" lon="-1.694165">
<ele>701.0</ele>
<speed>16.1</speed>
<course>202.1</course>
<desc>Speed 16.1 km/h Distance 1.99 km</desc>
<time>2011-09-24T09:42:14.83</time>
<name>424</name>
</trkpt>
<trkpt lat="41.815412" lon="-1.694185">
<ele>701.0</ele>
<speed>16.1</speed>
<course>199.6</course>
<desc>Speed 16.1 km/h Distance 2.00 km</desc>
<time>2011-09-24T09:42:15.83</time>
<name>425</name>
</trkpt>
<trkpt lat="41.815373" lon="-1.694203">
<ele>701.0</ele>
<speed>15.9</speed>
<course>203.8</course>
<desc>Speed 15.9 km/h Distance 2.00 km</desc>
<time>2011-09-24T09:42:16.83</time>
<name>426</name>
</trkpt>
<trkpt lat="41.815337" lon="-1.694225">
<ele>701.0</ele>
<speed>16.0</speed>
<course>200.4</course>
<desc>Speed 16.0 km/h Distance 2.00 km</desc>
<time>2011-09-24T09:42:17.83</time>
<name>427</name>
</trkpt>
<trkpt lat="41.815300" lon="-1.694243">
<ele>701.0</ele>
<speed>16.2</speed>
<course>199.6</course>
<desc>Speed 16.2 km/h Distance 2.01 km</desc>
<time>2011-09-24T09:42:18.83</time>
<name>428</name>
</trkpt>
<trkpt lat="41.815262" lon="-1.694262">
<ele>701.0</ele>
<speed>16.4</speed>
<course>201.2</course>
<desc>Speed 16.4 km/h Distance 2.01 km</desc>
<time>2011-09-24T09:42:19.83</time>
<name>429</name>
</trkpt>
<trkpt lat="41.815223" lon="-1.694282">
<ele>701.0</ele>
<speed>16.5</speed>
<course>201.2</course>
<desc>Speed 16.5 km/h Distance 2.02 km</desc>
<time>2011-09-24T09:42:20.83</time>
<name>430</name>
</trkpt>
<trkpt lat="41.815185" lon="-1.694302">
<ele>701.5</ele>
<speed>16.7</speed>
<course>204.4</course>
<desc>Speed 16.7 km/h Distance 2.02 km</desc>
<time>2011-09-24T09:42:21.83</time>
<name>431</name>
</trkpt>
<trkpt lat="41.815147" lon="-1.694325">
<ele>701.5</ele>
<speed>16.6</speed>
<course>203.8</course>
<desc>Speed 16.6 km/h Distance 2.03 km</desc>
<time>2011-09-24T09:42:22.82</time>
<name>432</name>
</trkpt>
<trkpt lat="41.815110" lon="-1.694347">
<ele>701.5</ele>
<speed>16.5</speed>
<course>202.8</course>
<desc>Speed 16.5 km/h Distance 2.03 km</desc>
<time>2011-09-24T09:42:23.83</time>
<name>433</name>
</trkpt>
<trkpt lat="41.815072" lon="-1.694368">
<ele>701.5</ele>
<speed>16.6</speed>
<course>201.3</course>
<desc>Speed 16.6 km/h Distance 2.04 km</desc>
<time>2011-09-24T09:42:24.82</time>
<name>434</name>
</trkpt>
<trkpt lat="41.815033" lon="-1.694388">
<ele>701.5</ele>
<speed>16.7</speed>
<course>202.8</course>
<desc>Speed 16.7 km/h Distance 2.04 km</desc>
<time>2011-09-24T09:42:25.82</time>
<name>435</name>
</trkpt>
<trkpt lat="41.814995" lon="-1.694410">
<ele>702.0</ele>
<speed>16.6</speed>
<course>201.3</course>
<desc>Speed 16.6 km/h Distance 2.05 km</desc>
<time>2011-09-24T09:42:26.82</time>
<name>436</name>
</trkpt>
<trkpt lat="41.814957" lon="-1.694430">
<ele>702.0</ele>
<speed>16.5</speed>
<course>201.3</course>
<desc>Speed 16.5 km/h Distance 2.05 km</desc>
<time>2011-09-24T09:42:27.82</time>
<name>437</name>
</trkpt>
<trkpt lat="41.814918" lon="-1.694450">
<ele>702.0</ele>
<speed>16.6</speed>
<course>201.2</course>
<desc>Speed 16.6 km/h Distance 2.05 km</desc>
<time>2011-09-24T09:42:28.82</time>
<name>438</name>
</trkpt>
<trkpt lat="41.814880" lon="-1.694470">
<ele>702.0</ele>
<speed>17.0</speed>
<course>202.9</course>
<desc>Speed 17.0 km/h Distance 2.06 km</desc>
<time>2011-09-24T09:42:29.82</time>
<name>439</name>
</trkpt>
<trkpt lat="41.814842" lon="-1.694492">
<ele>702.5</ele>
<speed>16.9</speed>
<course>202.9</course>
<desc>Speed 16.9 km/h Distance 2.06 km</desc>
<time>2011-09-24T09:42:30.83</time>
<name>440</name>
</trkpt>
<trkpt lat="41.814803" lon="-1.694513">
<ele>702.5</ele>
<speed>16.5</speed>
<course>201.3</course>
<desc>Speed 16.5 km/h Distance 2.07 km</desc>
<time>2011-09-24T09:42:31.82</time>
<name>441</name>
</trkpt>
<trkpt lat="41.814765" lon="-1.694533">
<ele>703.0</ele>
<speed>16.4</speed>
<course>201.2</course>
<desc>Speed 16.4 km/h Distance 2.07 km</desc>
<time>2011-09-24T09:42:32.82</time>
<name>442</name>
</trkpt>
<trkpt lat="41.814727" lon="-1.694553">
<ele>703.0</ele>
<speed>16.1</speed>
<course>201.2</course>
<desc>Speed 16.1 km/h Distance 2.08 km</desc>
<time>2011-09-24T09:42:33.82</time>
<name>443</name>
</trkpt>
<trkpt lat="41.814688" lon="-1.694573">
<ele>703.0</ele>
<speed>16.6</speed>
<course>202.9</course>
<desc>Speed 16.6 km/h Distance 2.08 km</desc>
<time>2011-09-24T09:42:34.82</time>
<name>444</name>
</trkpt>
<trkpt lat="41.814650" lon="-1.694595">
<ele>703.5</ele>
<speed>16.4</speed>
<course>202.8</course>
<desc>Speed 16.4 km/h Distance 2.09 km</desc>
<time>2011-09-24T09:42:35.82</time>
<name>445</name>
</trkpt>
<trkpt lat="41.814612" lon="-1.694617">
<ele>703.5</ele>
<speed>16.8</speed>
<course>199.6</course>
<desc>Speed 16.8 km/h Distance 2.09 km</desc>
<time>2011-09-24T09:42:36.82</time>
<name>446</name>
</trkpt>
<trkpt lat="41.814573" lon="-1.694635">
<ele>703.5</ele>
<speed>16.1</speed>
<course>201.2</course>
<desc>Speed 16.1 km/h Distance 2.10 km</desc>
<time>2011-09-24T09:42:37.82</time>
<name>447</name>
</trkpt>
<trkpt lat="41.814535" lon="-1.694655">
<ele>703.5</ele>
<speed>16.7</speed>
<course>201.2</course>
<desc>Speed 16.7 km/h Distance 2.10 km</desc>
<time>2011-09-24T09:42:38.81</time>
<name>448</name>
</trkpt>
<trkpt lat="41.814497" lon="-1.694675">
<ele>703.5</ele>
<speed>16.5</speed>
<course>202.9</course>
<desc>Speed 16.5 km/h Distance 2.11 km</desc>
<time>2011-09-24T09:42:39.81</time>
<name>449</name>
</trkpt>
<trkpt lat="41.814458" lon="-1.694697">
<ele>704.0</ele>
<speed>16.4</speed>
<course>202.1</course>
<desc>Speed 16.4 km/h Distance 2.11 km</desc>
<time>2011-09-24T09:42:40.81</time>
<name>450</name>
</trkpt>
<trkpt lat="41.814422" lon="-1.694717">
<ele>704.0</ele>
<speed>15.9</speed>
<course>202.1</course>
<desc>Speed 15.9 km/h Distance 2.11 km</desc>
<time>2011-09-24T09:42:41.81</time>
<name>451</name>
</trkpt>
<trkpt lat="41.814385" lon="-1.694737">
<ele>704.0</ele>
<speed>16.2</speed>
<course>201.3</course>
<desc>Speed 16.2 km/h Distance 2.12 km</desc>
<time>2011-09-24T09:42:42.81</time>
<name>452</name>
</trkpt>
<trkpt lat="41.814347" lon="-1.694757">
<ele>704.0</ele>
<speed>16.3</speed>
<course>203.8</course>
<desc>Speed 16.3 km/h Distance 2.12 km</desc>
<time>2011-09-24T09:42:43.81</time>
<name>453</name>
</trkpt>
<trkpt lat="41.814310" lon="-1.694778">
<ele>704.5</ele>
<speed>15.8</speed>
<course>203.0</course>
<desc>Speed 15.8 km/h Distance 2.13 km</desc>
<time>2011-09-24T09:42:44.81</time>
<name>454</name>
</trkpt>
<trkpt lat="41.814275" lon="-1.694798">
<ele>704.5</ele>
<speed>15.7</speed>
<course>198.7</course>
<desc>Speed 15.7 km/h Distance 2.13 km</desc>
<time>2011-09-24T09:42:45.81</time>
<name>455</name>
</trkpt>
<trkpt lat="41.814238" lon="-1.694815">
<ele>705.0</ele>
<speed>15.1</speed>
<course>201.3</course>
<desc>Speed 15.1 km/h Distance 2.14 km</desc>
<time>2011-09-24T09:42:46.81</time>
<name>456</name>
</trkpt>
<trkpt lat="41.814203" lon="-1.694833">
<ele>705.0</ele>
<speed>15.4</speed>
<course>202.1</course>
<desc>Speed 15.4 km/h Distance 2.14 km</desc>
<time>2011-09-24T09:42:47.81</time>
<name>457</name>
</trkpt>
<trkpt lat="41.814167" lon="-1.694853">
<ele>705.5</ele>
<speed>15.7</speed>
<course>198.0</course>
<desc>Speed 15.7 km/h Distance 2.14 km</desc>
<time>2011-09-24T09:42:48.81</time>
<name>458</name>
</trkpt>
<trkpt lat="41.814128" lon="-1.694870">
<ele>706.0</ele>
<speed>16.1</speed>
<course>205.9</course>
<desc>Speed 16.1 km/h Distance 2.15 km</desc>
<time>2011-09-24T09:42:49.81</time>
<name>459</name>
</trkpt>
<trkpt lat="41.814090" lon="-1.694895">
<ele>706.0</ele>
<speed>16.7</speed>
<course>203.8</course>
<desc>Speed 16.7 km/h Distance 2.15 km</desc>
<time>2011-09-24T09:42:50.81</time>
<name>460</name>
</trkpt>
<trkpt lat="41.814053" lon="-1.694917">
<ele>706.5</ele>
<speed>16.1</speed>
<course>204.8</course>
<desc>Speed 16.1 km/h Distance 2.16 km</desc>
<time>2011-09-24T09:42:51.81</time>
<name>461</name>
</trkpt>
<trkpt lat="41.814018" lon="-1.694938">
<ele>706.5</ele>
<speed>15.8</speed>
<course>203.8</course>
<desc>Speed 15.8 km/h Distance 2.16 km</desc>
<time>2011-09-24T09:42:52.80</time>
<name>462</name>
</trkpt>
<trkpt lat="41.813982" lon="-1.694960">
<ele>707.0</ele>
<speed>15.8</speed>
<course>197.7</course>
<desc>Speed 15.8 km/h Distance 2.17 km</desc>
<time>2011-09-24T09:42:53.81</time>
<name>463</name>
</trkpt>
<trkpt lat="41.813947" lon="-1.694975">
<ele>707.0</ele>
<speed>14.7</speed>
<course>203.1</course>
<desc>Speed 14.7 km/h Distance 2.17 km</desc>
<time>2011-09-24T09:42:54.80</time>
<name>464</name>
</trkpt>
<trkpt lat="41.813912" lon="-1.694995">
<ele>707.0</ele>
<speed>14.8</speed>
<course>203.1</course>
<desc>Speed 14.8 km/h Distance 2.18 km</desc>
<time>2011-09-24T09:42:55.80</time>
<name>465</name>
</trkpt>
<trkpt lat="41.813877" lon="-1.695015">
<ele>707.5</ele>
<speed>15.3</speed>
<course>200.4</course>
<desc>Speed 15.3 km/h Distance 2.18 km</desc>
<time>2011-09-24T09:42:56.80</time>
<name>466</name>
</trkpt>
<trkpt lat="41.813843" lon="-1.695032">
<ele>707.5</ele>
<speed>14.3</speed>
<course>200.4</course>
<desc>Speed 14.3 km/h Distance 2.18 km</desc>
<time>2011-09-24T09:42:57.80</time>
<name>467</name>
</trkpt>
<trkpt lat="41.813810" lon="-1.695048">
<ele>707.5</ele>
<speed>14.9</speed>
<course>203.1</course>
<desc>Speed 14.9 km/h Distance 2.19 km</desc>
<time>2011-09-24T09:42:58.80</time>
<name>468</name>
</trkpt>
<trkpt lat="41.813775" lon="-1.695068">
<ele>707.5</ele>
<speed>14.8</speed>
<course>204.1</course>
<desc>Speed 14.8 km/h Distance 2.19 km</desc>
<time>2011-09-24T09:42:59.80</time>
<name>469</name>
</trkpt>
<trkpt lat="41.813742" lon="-1.695088">
<ele>708.0</ele>
<speed>15.1</speed>
<course>200.4</course>
<desc>Speed 15.1 km/h Distance 2.20 km</desc>
<time>2011-09-24T09:43:00.80</time>
<name>470</name>
</trkpt>
<trkpt lat="41.813708" lon="-1.695105">
<ele>707.5</ele>
<speed>14.7</speed>
<course>204.8</course>
<desc>Speed 14.7 km/h Distance 2.20 km</desc>
<time>2011-09-24T09:43:01.80</time>
<name>471</name>
</trkpt>
<trkpt lat="41.813673" lon="-1.695127">
<ele>708.0</ele>
<speed>15.2</speed>
<course>201.3</course>
<desc>Speed 15.2 km/h Distance 2.20 km</desc>
<time>2011-09-24T09:43:02.80</time>
<name>472</name>
</trkpt>
<trkpt lat="41.813638" lon="-1.695145">
<ele>708.0</ele>
<speed>14.8</speed>
<course>202.3</course>
<desc>Speed 14.8 km/h Distance 2.21 km</desc>
<time>2011-09-24T09:43:03.80</time>
<name>473</name>
</trkpt>
<trkpt lat="41.813605" lon="-1.695163">
<ele>708.0</ele>
<speed>14.7</speed>
<course>201.3</course>
<desc>Speed 14.7 km/h Distance 2.21 km</desc>
<time>2011-09-24T09:43:04.79</time>
<name>474</name>
</trkpt>
<trkpt lat="41.813570" lon="-1.695182">
<ele>708.0</ele>
<speed>14.7</speed>
<course>199.6</course>
<desc>Speed 14.7 km/h Distance 2.22 km</desc>
<time>2011-09-24T09:43:05.79</time>
<name>475</name>
</trkpt>
<trkpt lat="41.813535" lon="-1.695198">
<ele>707.5</ele>
<speed>15.1</speed>
<course>203.8</course>
<desc>Speed 15.1 km/h Distance 2.22 km</desc>
<time>2011-09-24T09:43:06.80</time>
<name>476</name>
</trkpt>
<trkpt lat="41.813498" lon="-1.695220">
<ele>707.5</ele>
<speed>15.7</speed>
<course>204.8</course>
<desc>Speed 15.7 km/h Distance 2.23 km</desc>
<time>2011-09-24T09:43:07.79</time>
<name>477</name>
</trkpt>
<trkpt lat="41.813463" lon="-1.695242">
<ele>708.0</ele>
<speed>15.8</speed>
<course>202.1</course>
<desc>Speed 15.8 km/h Distance 2.23 km</desc>
<time>2011-09-24T09:43:08.79</time>
<name>478</name>
</trkpt>
<trkpt lat="41.813427" lon="-1.695262">
<ele>708.0</ele>
<speed>16.1</speed>
<course>203.8</course>
<desc>Speed 16.1 km/h Distance 2.23 km</desc>
<time>2011-09-24T09:43:09.79</time>
<name>479</name>
</trkpt>
<trkpt lat="41.813390" lon="-1.695283">
<ele>708.0</ele>
<speed>15.7</speed>
<course>203.1</course>
<desc>Speed 15.7 km/h Distance 2.24 km</desc>
<time>2011-09-24T09:43:10.79</time>
<name>480</name>
</trkpt>
<trkpt lat="41.813355" lon="-1.695303">
<ele>708.5</ele>
<speed>15.2</speed>
<course>199.6</course>
<desc>Speed 15.2 km/h Distance 2.24 km</desc>
<time>2011-09-24T09:43:11.80</time>
<name>481</name>
</trkpt>
<trkpt lat="41.813320" lon="-1.695320">
<ele>709.0</ele>
<speed>15.0</speed>
<course>203.1</course>
<desc>Speed 15.0 km/h Distance 2.25 km</desc>
<time>2011-09-24T09:43:12.79</time>
<name>482</name>
</trkpt>
<trkpt lat="41.813285" lon="-1.695340">
<ele>709.0</ele>
<speed>15.6</speed>
<course>199.5</course>
<desc>Speed 15.6 km/h Distance 2.25 km</desc>
<time>2011-09-24T09:43:13.79</time>
<name>483</name>
</trkpt>
<trkpt lat="41.813250" lon="-1.695357">
<ele>709.0</ele>
<speed>14.6</speed>
<course>200.5</course>
<desc>Speed 14.6 km/h Distance 2.26 km</desc>
<time>2011-09-24T09:43:14.79</time>
<name>484</name>
</trkpt>
<trkpt lat="41.813217" lon="-1.695373">
<ele>709.5</ele>
<speed>14.5</speed>
<course>200.5</course>
<desc>Speed 14.5 km/h Distance 2.26 km</desc>
<time>2011-09-24T09:43:15.79</time>
<name>485</name>
</trkpt>
<trkpt lat="41.813187" lon="-1.695388">
<ele>708.5</ele>
<speed>12.8</speed>
<course>202.0</course>
<desc>Speed 12.8 km/h Distance 2.26 km</desc>
<time>2011-09-24T09:43:16.79</time>
<name>486</name>
</trkpt>
<trkpt lat="41.813147" lon="-1.695410">
<ele>709.0</ele>
<speed>16.7</speed>
<course>192.3</course>
<desc>Speed 16.7 km/h Distance 2.27 km</desc>
<time>2011-09-24T09:43:17.79</time>
<name>487</name>
</trkpt>
<trkpt lat="41.813118" lon="-1.695418">
<ele>708.0</ele>
<speed>11.6</speed>
<course>196.1</course>
<desc>Speed 11.6 km/h Distance 2.27 km</desc>
<time>2011-09-24T09:43:18.80</time>
<name>488</name>
</trkpt>
<trkpt lat="41.813088" lon="-1.695430">
<ele>707.5</ele>
<speed>12.0</speed>
<course>202.1</course>
<desc>Speed 12.0 km/h Distance 2.27 km</desc>
<time>2011-09-24T09:43:19.79</time>
<name>489</name>
</trkpt>
<trkpt lat="41.813052" lon="-1.695450">
<ele>708.0</ele>
<speed>15.9</speed>
<course>218.8</course>
<desc>Speed 15.9 km/h Distance 2.28 km</desc>
<time>2011-09-24T09:43:20.78</time>
<name>490</name>
</trkpt>
<trkpt lat="41.813030" lon="-1.695473">
<ele>710.0</ele>
<speed>10.9</speed>
<course>198.6</course>
<desc>Speed 10.9 km/h Distance 2.28 km</desc>
<time>2011-09-24T09:43:21.79</time>
<name>491</name>
</trkpt>
<trkpt lat="41.812997" lon="-1.695488">
<ele>710.5</ele>
<speed>13.8</speed>
<course>203.1</course>
<desc>Speed 13.8 km/h Distance 2.29 km</desc>
<time>2011-09-24T09:43:22.78</time>
<name>492</name>
</trkpt>
<trkpt lat="41.812962" lon="-1.695508">
<ele>711.0</ele>
<speed>15.0</speed>
<course>206.4</course>
<desc>Speed 15.0 km/h Distance 2.29 km</desc>
<time>2011-09-24T09:43:23.78</time>
<name>493</name>
</trkpt>
<trkpt lat="41.812927" lon="-1.695532">
<ele>711.0</ele>
<speed>15.2</speed>
<course>213.8</course>
<desc>Speed 15.2 km/h Distance 2.29 km</desc>
<time>2011-09-24T09:43:24.78</time>
<name>494</name>
</trkpt>
<trkpt lat="41.812893" lon="-1.695562">
<ele>711.5</ele>
<speed>15.6</speed>
<course>223.9</course>
<desc>Speed 15.6 km/h Distance 2.30 km</desc>
<time>2011-09-24T09:43:25.78</time>
<name>495</name>
</trkpt>
<trkpt lat="41.812865" lon="-1.695598">
<ele>712.0</ele>
<speed>15.2</speed>
<course>227.5</course>
<desc>Speed 15.2 km/h Distance 2.30 km</desc>
<time>2011-09-24T09:43:26.78</time>
<name>496</name>
</trkpt>
<trkpt lat="41.812840" lon="-1.695635">
<ele>712.5</ele>
<speed>14.6</speed>
<course>232.0</course>
<desc>Speed 14.6 km/h Distance 2.31 km</desc>
<time>2011-09-24T09:43:27.78</time>
<name>497</name>
</trkpt>
<trkpt lat="41.812817" lon="-1.695675">
<ele>712.5</ele>
<speed>15.2</speed>
<course>224.4</course>
<desc>Speed 15.2 km/h Distance 2.31 km</desc>
<time>2011-09-24T09:43:28.78</time>
<name>498</name>
</trkpt>
<trkpt lat="41.812790" lon="-1.695710">
<ele>713.0</ele>
<speed>14.4</speed>
<course>227.0</course>
<desc>Speed 14.4 km/h Distance 2.32 km</desc>
<time>2011-09-24T09:43:29.78</time>
<name>499</name>
</trkpt>
<trkpt lat="41.812763" lon="-1.695748">
<ele>713.5</ele>
<speed>15.2</speed>
<course>226.8</course>
<desc>Speed 15.2 km/h Distance 2.32 km</desc>
<time>2011-09-24T09:43:30.78</time>
<name>500</name>
</trkpt>
<trkpt lat="41.812740" lon="-1.695782">
<ele>713.5</ele>
<speed>13.8</speed>
<course>224.8</course>
<desc>Speed 13.8 km/h Distance 2.32 km</desc>
<time>2011-09-24T09:43:31.78</time>
<name>501</name>
</trkpt>
<trkpt lat="41.812715" lon="-1.695815">
<ele>713.5</ele>
<speed>14.3</speed>
<course>230.3</course>
<desc>Speed 14.3 km/h Distance 2.33 km</desc>
<time>2011-09-24T09:43:32.78</time>
<name>502</name>
</trkpt>
<trkpt lat="41.812693" lon="-1.695850">
<ele>713.5</ele>
<speed>13.7</speed>
<course>228.2</course>
<desc>Speed 13.7 km/h Distance 2.33 km</desc>
<time>2011-09-24T09:43:33.78</time>
<name>503</name>
</trkpt>
<trkpt lat="41.812670" lon="-1.695885">
<ele>713.5</ele>
<speed>13.6</speed>
<course>226.2</course>
<desc>Speed 13.6 km/h Distance 2.34 km</desc>
<time>2011-09-24T09:43:34.78</time>
<name>504</name>
</trkpt>
<trkpt lat="41.812645" lon="-1.695920">
<ele>713.5</ele>
<speed>14.0</speed>
<course>224.8</course>
<desc>Speed 14.0 km/h Distance 2.34 km</desc>
<time>2011-09-24T09:43:35.78</time>
<name>505</name>
</trkpt>
<trkpt lat="41.812620" lon="-1.695953">
<ele>714.5</ele>
<speed>14.3</speed>
<course>225.2</course>
<desc>Speed 14.3 km/h Distance 2.34 km</desc>
<time>2011-09-24T09:43:36.78</time>
<name>506</name>
</trkpt>
<trkpt lat="41.812592" lon="-1.695992">
<ele>715.5</ele>
<speed>16.0</speed>
<course>226.5</course>
<desc>Speed 16.0 km/h Distance 2.35 km</desc>
<time>2011-09-24T09:43:37.77</time>
<name>507</name>
</trkpt>
<trkpt lat="41.812563" lon="-1.696032">
<ele>716.0</ele>
<speed>16.1</speed>
<course>229.4</course>
<desc>Speed 16.1 km/h Distance 2.35 km</desc>
<time>2011-09-24T09:43:38.77</time>
<name>508</name>
</trkpt>
<trkpt lat="41.812537" lon="-1.696073">
<ele>716.5</ele>
<speed>16.5</speed>
<course>231.2</course>
<desc>Speed 16.5 km/h Distance 2.36 km</desc>
<time>2011-09-24T09:43:39.78</time>
<name>509</name>
</trkpt>
<trkpt lat="41.812512" lon="-1.696115">
<ele>716.5</ele>
<speed>15.8</speed>
<course>225.2</course>
<desc>Speed 15.8 km/h Distance 2.36 km</desc>
<time>2011-09-24T09:43:40.77</time>
<name>510</name>
</trkpt>
<trkpt lat="41.812483" lon="-1.696153">
<ele>716.5</ele>
<speed>15.9</speed>
<course>227.6</course>
<desc>Speed 15.9 km/h Distance 2.37 km</desc>
<time>2011-09-24T09:43:41.77</time>
<name>511</name>
</trkpt>
<trkpt lat="41.812455" lon="-1.696195">
<ele>717.0</ele>
<speed>16.1</speed>
<course>229.3</course>
<desc>Speed 16.1 km/h Distance 2.37 km</desc>
<time>2011-09-24T09:43:42.77</time>
<name>512</name>
</trkpt>
<trkpt lat="41.812428" lon="-1.696237">
<ele>717.0</ele>
<speed>16.3</speed>
<course>223.6</course>
<desc>Speed 16.3 km/h Distance 2.38 km</desc>
<time>2011-09-24T09:43:43.77</time>
<name>513</name>
</trkpt>
<trkpt lat="41.812398" lon="-1.696275">
<ele>717.5</ele>
<speed>16.2</speed>
<course>228.8</course>
<desc>Speed 16.2 km/h Distance 2.38 km</desc>
<time>2011-09-24T09:43:44.78</time>
<name>514</name>
</trkpt>
<trkpt lat="41.812373" lon="-1.696313">
<ele>718.0</ele>
<speed>15.0</speed>
<course>231.2</course>
<desc>Speed 15.0 km/h Distance 2.38 km</desc>
<time>2011-09-24T09:43:45.77</time>
<name>515</name>
</trkpt>
<trkpt lat="41.812348" lon="-1.696355">
<ele>718.0</ele>
<speed>15.9</speed>
<course>228.8</course>
<desc>Speed 15.9 km/h Distance 2.39 km</desc>
<time>2011-09-24T09:43:46.77</time>
<name>516</name>
</trkpt>
<trkpt lat="41.812323" lon="-1.696393">
<ele>718.0</ele>
<speed>15.0</speed>
<course>227.5</course>
<desc>Speed 15.0 km/h Distance 2.39 km</desc>
<time>2011-09-24T09:43:47.77</time>
<name>517</name>
</trkpt>
<trkpt lat="41.812298" lon="-1.696430">
<ele>717.0</ele>
<speed>14.6</speed>
<course>228.8</course>
<desc>Speed 14.6 km/h Distance 2.40 km</desc>
<time>2011-09-24T09:43:48.77</time>
<name>518</name>
</trkpt>
<trkpt lat="41.812273" lon="-1.696468">
<ele>717.5</ele>
<speed>15.5</speed>
<course>225.7</course>
<desc>Speed 15.5 km/h Distance 2.40 km</desc>
<time>2011-09-24T09:43:49.78</time>
<name>519</name>
</trkpt>
<trkpt lat="41.812247" lon="-1.696505">
<ele>717.0</ele>
<speed>14.8</speed>
<course>222.3</course>
<desc>Speed 14.8 km/h Distance 2.41 km</desc>
<time>2011-09-24T09:43:50.77</time>
<name>520</name>
</trkpt>
<trkpt lat="41.812217" lon="-1.696542">
<ele>719.0</ele>
<speed>16.1</speed>
<course>231.6</course>
<desc>Speed 16.1 km/h Distance 2.41 km</desc>
<time>2011-09-24T09:43:51.77</time>
<name>521</name>
</trkpt>
<trkpt lat="41.812195" lon="-1.696578">
<ele>718.5</ele>
<speed>13.5</speed>
<course>225.7</course>
<desc>Speed 13.5 km/h Distance 2.41 km</desc>
<time>2011-09-24T09:43:52.77</time>
<name>522</name>
</trkpt>
<trkpt lat="41.812168" lon="-1.696615">
<ele>719.0</ele>
<speed>15.0</speed>
<course>220.0</course>
<desc>Speed 15.0 km/h Distance 2.42 km</desc>
<time>2011-09-24T09:43:53.77</time>
<name>523</name>
</trkpt>
<trkpt lat="41.812142" lon="-1.696645">
<ele>720.0</ele>
<speed>13.0</speed>
<course>226.2</course>
<desc>Speed 13.0 km/h Distance 2.42 km</desc>
<time>2011-09-24T09:43:54.76</time>
<name>524</name>
</trkpt>
<trkpt lat="41.812117" lon="-1.696680">
<ele>720.0</ele>
<speed>14.3</speed>
<course>227.5</course>
<desc>Speed 14.3 km/h Distance 2.43 km</desc>
<time>2011-09-24T09:43:55.76</time>
<name>525</name>
</trkpt>
<trkpt lat="41.812092" lon="-1.696717">
<ele>720.0</ele>
<speed>14.5</speed>
<course>230.0</course>
<desc>Speed 14.5 km/h Distance 2.43 km</desc>
<time>2011-09-24T09:43:56.77</time>
<name>526</name>
</trkpt>
<trkpt lat="41.812067" lon="-1.696757">
<ele>720.0</ele>
<speed>15.0</speed>
<course>227.0</course>
<desc>Speed 15.0 km/h Distance 2.43 km</desc>
<time>2011-09-24T09:43:57.76</time>
<name>527</name>
</trkpt>
<trkpt lat="41.812040" lon="-1.696795">
<ele>721.0</ele>
<speed>14.9</speed>
<course>230.0</course>
<desc>Speed 14.9 km/h Distance 2.44 km</desc>
<time>2011-09-24T09:43:58.76</time>
<name>528</name>
</trkpt>
<trkpt lat="41.812015" lon="-1.696835">
<ele>721.0</ele>
<speed>14.8</speed>
<course>228.2</course>
<desc>Speed 14.8 km/h Distance 2.44 km</desc>
<time>2011-09-24T09:43:59.76</time>
<name>529</name>
</trkpt>
<trkpt lat="41.811988" lon="-1.696875">
<ele>721.0</ele>
<speed>15.0</speed>
<course>226.5</course>
<desc>Speed 15.0 km/h Distance 2.45 km</desc>
<time>2011-09-24T09:44:00.77</time>
<name>530</name>
</trkpt>
<trkpt lat="41.811960" lon="-1.696915">
<ele>721.0</ele>
<speed>16.0</speed>
<course>227.0</course>
<desc>Speed 16.0 km/h Distance 2.45 km</desc>
<time>2011-09-24T09:44:01.76</time>
<name>531</name>
</trkpt>
<trkpt lat="41.811933" lon="-1.696953">
<ele>721.0</ele>
<speed>15.2</speed>
<course>231.2</course>
<desc>Speed 15.2 km/h Distance 2.46 km</desc>
<time>2011-09-24T09:44:02.77</time>
<name>532</name>
</trkpt>
<trkpt lat="41.811908" lon="-1.696995">
<ele>721.0</ele>
<speed>15.2</speed>
<course>228.8</course>
<desc>Speed 15.2 km/h Distance 2.46 km</desc>
<time>2011-09-24T09:44:03.76</time>
<name>533</name>
</trkpt>
<trkpt lat="41.811883" lon="-1.697033">
<ele>721.5</ele>
<speed>14.8</speed>
<course>225.7</course>
<desc>Speed 14.8 km/h Distance 2.46 km</desc>
<time>2011-09-24T09:44:04.76</time>
<name>534</name>
</trkpt>
<trkpt lat="41.811857" lon="-1.697070">
<ele>721.5</ele>
<speed>14.9</speed>
<course>228.8</course>
<desc>Speed 14.9 km/h Distance 2.47 km</desc>
<time>2011-09-24T09:44:05.76</time>
<name>535</name>
</trkpt>
<trkpt lat="41.811832" lon="-1.697108">
<ele>722.0</ele>
<speed>14.9</speed>
<course>233.1</course>
<desc>Speed 14.9 km/h Distance 2.47 km</desc>
<time>2011-09-24T09:44:06.76</time>
<name>536</name>
</trkpt>
<trkpt lat="41.811808" lon="-1.697150">
<ele>722.0</ele>
<speed>14.8</speed>
<course>228.8</course>
<desc>Speed 14.8 km/h Distance 2.48 km</desc>
<time>2011-09-24T09:44:07.75</time>
<name>537</name>
</trkpt>
<trkpt lat="41.811783" lon="-1.697188">
<ele>722.5</ele>
<speed>14.7</speed>
<course>227.0</course>
<desc>Speed 14.7 km/h Distance 2.48 km</desc>
<time>2011-09-24T09:44:08.76</time>
<name>538</name>
</trkpt>
<trkpt lat="41.811757" lon="-1.697227">
<ele>723.0</ele>
<speed>15.1</speed>
<course>227.5</course>
<desc>Speed 15.1 km/h Distance 2.49 km</desc>
<time>2011-09-24T09:44:09.75</time>
<name>539</name>
</trkpt>
<trkpt lat="41.811732" lon="-1.697263">
<ele>723.0</ele>
<speed>14.7</speed>
<course>230.3</course>
<desc>Speed 14.7 km/h Distance 2.49 km</desc>
<time>2011-09-24T09:44:10.76</time>
<name>540</name>
</trkpt>
<trkpt lat="41.811710" lon="-1.697298">
<ele>723.0</ele>
<speed>13.3</speed>
<course>234.0</course>
<desc>Speed 13.3 km/h Distance 2.49 km</desc>
<time>2011-09-24T09:44:11.75</time>
<name>541</name>
</trkpt>
<trkpt lat="41.811688" lon="-1.697338">
<ele>723.0</ele>
<speed>14.5</speed>
<course>237.1</course>
<desc>Speed 14.5 km/h Distance 2.50 km</desc>
<time>2011-09-24T09:44:12.75</time>
<name>542</name>
</trkpt>
<trkpt lat="41.811667" lon="-1.697383">
<ele>722.5</ele>
<speed>15.1</speed>
<course>244.5</course>
<desc>Speed 15.1 km/h Distance 2.50 km</desc>
<time>2011-09-24T09:44:13.75</time>
<name>543</name>
</trkpt>
<trkpt lat="41.811648" lon="-1.697435">
<ele>722.5</ele>
<speed>16.2</speed>
<course>244.5</course>
<desc>Speed 16.2 km/h Distance 2.51 km</desc>
<time>2011-09-24T09:44:14.75</time>
<name>544</name>
</trkpt>
<trkpt lat="41.811630" lon="-1.697487">
<ele>724.0</ele>
<speed>17.5</speed>
<course>249.3</course>
<desc>Speed 17.5 km/h Distance 2.51 km</desc>
<time>2011-09-24T09:44:15.75</time>
<name>545</name>
</trkpt>
<trkpt lat="41.811615" lon="-1.697540">
<ele>724.5</ele>
<speed>16.6</speed>
<course>251.5</course>
<desc>Speed 16.6 km/h Distance 2.52 km</desc>
<time>2011-09-24T09:44:16.75</time>
<name>546</name>
</trkpt>
<trkpt lat="41.811602" lon="-1.697593">
<ele>724.5</ele>
<speed>16.1</speed>
<course>255.9</course>
<desc>Speed 16.1 km/h Distance 2.52 km</desc>
<time>2011-09-24T09:44:17.75</time>
<name>547</name>
</trkpt>
<trkpt lat="41.811592" lon="-1.697647">
<ele>724.5</ele>
<speed>16.1</speed>
<course>255.9</course>
<desc>Speed 16.1 km/h Distance 2.53 km</desc>
<time>2011-09-24T09:44:18.75</time>
<name>548</name>
</trkpt>
<trkpt lat="41.811582" lon="-1.697700">
<ele>724.5</ele>
<speed>15.9</speed>
<course>253.1</course>
<desc>Speed 15.9 km/h Distance 2.53 km</desc>
<time>2011-09-24T09:44:19.75</time>
<name>549</name>
</trkpt>
<trkpt lat="41.811570" lon="-1.697752">
<ele>725.0</ele>
<speed>15.4</speed>
<course>253.1</course>
<desc>Speed 15.4 km/h Distance 2.54 km</desc>
<time>2011-09-24T09:44:20.75</time>
<name>550</name>
</trkpt>
<trkpt lat="41.811558" lon="-1.697803">
<ele>725.0</ele>
<speed>15.4</speed>
<course>253.1</course>
<desc>Speed 15.4 km/h Distance 2.54 km</desc>
<time>2011-09-24T09:44:21.75</time>
<name>551</name>
</trkpt>
<trkpt lat="41.811547" lon="-1.697855">
<ele>725.0</ele>
<speed>15.2</speed>
<course>259.5</course>
<desc>Speed 15.2 km/h Distance 2.54 km</desc>
<time>2011-09-24T09:44:22.75</time>
<name>552</name>
</trkpt>
<trkpt lat="41.811540" lon="-1.697903">
<ele>724.5</ele>
<speed>15.2</speed>
<course>255.4</course>
<desc>Speed 15.2 km/h Distance 2.55 km</desc>
<time>2011-09-24T09:44:23.75</time>
<name>553</name>
</trkpt>
<trkpt lat="41.811530" lon="-1.697955">
<ele>724.5</ele>
<speed>15.4</speed>
<course>257.8</course>
<desc>Speed 15.4 km/h Distance 2.55 km</desc>
<time>2011-09-24T09:44:24.74</time>
<name>554</name>
</trkpt>
<trkpt lat="41.811522" lon="-1.698007">
<ele>724.5</ele>
<speed>15.2</speed>
<course>255.0</course>
<desc>Speed 15.2 km/h Distance 2.56 km</desc>
<time>2011-09-24T09:44:25.74</time>
<name>555</name>
</trkpt>
<trkpt lat="41.811512" lon="-1.698057">
<ele>724.5</ele>
<speed>15.2</speed>
<course>253.1</course>
<desc>Speed 15.2 km/h Distance 2.56 km</desc>
<time>2011-09-24T09:44:26.74</time>
<name>556</name>
</trkpt>
<trkpt lat="41.811500" lon="-1.698108">
<ele>724.5</ele>
<speed>15.1</speed>
<course>255.0</course>
<desc>Speed 15.1 km/h Distance 2.57 km</desc>
<time>2011-09-24T09:44:27.75</time>
<name>557</name>
</trkpt>
<trkpt lat="41.811490" lon="-1.698158">
<ele>725.0</ele>
<speed>15.0</speed>
<course>255.0</course>
<desc>Speed 15.0 km/h Distance 2.57 km</desc>
<time>2011-09-24T09:44:28.74</time>
<name>558</name>
</trkpt>
<trkpt lat="41.811480" lon="-1.698208">
<ele>725.0</ele>
<speed>14.9</speed>
<course>255.0</course>
<desc>Speed 14.9 km/h Distance 2.57 km</desc>
<time>2011-09-24T09:44:29.74</time>
<name>559</name>
</trkpt>
<trkpt lat="41.811470" lon="-1.698258">
<ele>725.0</ele>
<speed>14.7</speed>
<course>255.4</course>
<desc>Speed 14.7 km/h Distance 2.58 km</desc>
<time>2011-09-24T09:44:30.74</time>
<name>560</name>
</trkpt>
<trkpt lat="41.811460" lon="-1.698310">
<ele>724.5</ele>
<speed>14.8</speed>
<course>258.2</course>
<desc>Speed 14.8 km/h Distance 2.58 km</desc>
<time>2011-09-24T09:44:31.74</time>
<name>561</name>
</trkpt>
<trkpt lat="41.811452" lon="-1.698363">
<ele>724.5</ele>
<speed>14.8</speed>
<course>257.4</course>
<desc>Speed 14.8 km/h Distance 2.59 km</desc>
<time>2011-09-24T09:44:32.74</time>
<name>562</name>
</trkpt>
<trkpt lat="41.811443" lon="-1.698413">
<ele>724.0</ele>
<speed>14.7</speed>
<course>255.4</course>
<desc>Speed 14.7 km/h Distance 2.59 km</desc>
<time>2011-09-24T09:44:33.74</time>
<name>563</name>
</trkpt>
<trkpt lat="41.811433" lon="-1.698465">
<ele>723.5</ele>
<speed>14.5</speed>
<course>255.0</course>
<desc>Speed 14.5 km/h Distance 2.60 km</desc>
<time>2011-09-24T09:44:34.74</time>
<name>564</name>
</trkpt>
<trkpt lat="41.811423" lon="-1.698515">
<ele>723.5</ele>
<speed>14.8</speed>
<course>252.6</course>
<desc>Speed 14.8 km/h Distance 2.60 km</desc>
<time>2011-09-24T09:44:35.74</time>
<name>565</name>
</trkpt>
<trkpt lat="41.811412" lon="-1.698565">
<ele>723.5</ele>
<speed>14.9</speed>
<course>255.4</course>
<desc>Speed 14.9 km/h Distance 2.60 km</desc>
<time>2011-09-24T09:44:36.74</time>
<name>566</name>
</trkpt>
<trkpt lat="41.811402" lon="-1.698617">
<ele>723.5</ele>
<speed>14.6</speed>
<course>252.1</course>
<desc>Speed 14.6 km/h Distance 2.61 km</desc>
<time>2011-09-24T09:44:37.74</time>
<name>567</name>
</trkpt>
<trkpt lat="41.811390" lon="-1.698665">
<ele>723.5</ele>
<speed>14.6</speed>
<course>252.6</course>
<desc>Speed 14.6 km/h Distance 2.61 km</desc>
<time>2011-09-24T09:44:38.74</time>
<name>568</name>
</trkpt>
<trkpt lat="41.811378" lon="-1.698715">
<ele>723.5</ele>
<speed>14.3</speed>
<course>254.0</course>
<desc>Speed 14.3 km/h Distance 2.62 km</desc>
<time>2011-09-24T09:44:39.74</time>
<name>569</name>
</trkpt>
<trkpt lat="41.811368" lon="-1.698762">
<ele>723.0</ele>
<speed>13.8</speed>
<course>254.0</course>
<desc>Speed 13.8 km/h Distance 2.62 km</desc>
<time>2011-09-24T09:44:40.74</time>
<name>570</name>
</trkpt>
<trkpt lat="41.811358" lon="-1.698808">
<ele>723.0</ele>
<speed>13.9</speed>
<course>252.1</course>
<desc>Speed 13.9 km/h Distance 2.63 km</desc>
<time>2011-09-24T09:44:41.74</time>
<name>571</name>
</trkpt>
<trkpt lat="41.811347" lon="-1.698857">
<ele>723.0</ele>
<speed>13.8</speed>
<course>253.4</course>
<desc>Speed 13.8 km/h Distance 2.63 km</desc>
<time>2011-09-24T09:44:42.74</time>
<name>572</name>
</trkpt>
<trkpt lat="41.811337" lon="-1.698902">
<ele>722.5</ele>
<speed>13.4</speed>
<course>254.0</course>
<desc>Speed 13.4 km/h Distance 2.63 km</desc>
<time>2011-09-24T09:44:43.73</time>
<name>573</name>
</trkpt>
<trkpt lat="41.811327" lon="-1.698948">
<ele>722.5</ele>
<speed>13.7</speed>
<course>251.5</course>
<desc>Speed 13.7 km/h Distance 2.64 km</desc>
<time>2011-09-24T09:44:44.74</time>
<name>574</name>
</trkpt>
<trkpt lat="41.811315" lon="-1.698995">
<ele>722.5</ele>
<speed>13.9</speed>
<course>257.0</course>
<desc>Speed 13.9 km/h Distance 2.64 km</desc>
<time>2011-09-24T09:44:45.73</time>
<name>575</name>
</trkpt>
<trkpt lat="41.811307" lon="-1.699043">
<ele>722.5</ele>
<speed>13.9</speed>
<course>250.8</course>
<desc>Speed 13.9 km/h Distance 2.65 km</desc>
<time>2011-09-24T09:44:46.73</time>
<name>576</name>
</trkpt>
<trkpt lat="41.811295" lon="-1.699088">
<ele>722.0</ele>
<speed>13.6</speed>
<course>254.0</course>
<desc>Speed 13.6 km/h Distance 2.65 km</desc>
<time>2011-09-24T09:44:47.73</time>
<name>577</name>
</trkpt>
<trkpt lat="41.811285" lon="-1.699135">
<ele>722.0</ele>
<speed>13.6</speed>
<course>256.0</course>
<desc>Speed 13.6 km/h Distance 2.65 km</desc>
<time>2011-09-24T09:44:48.73</time>
<name>578</name>
</trkpt>
<trkpt lat="41.811277" lon="-1.699180">
<ele>722.0</ele>
<speed>13.5</speed>
<course>253.4</course>
<desc>Speed 13.5 km/h Distance 2.66 km</desc>
<time>2011-09-24T09:44:49.73</time>
<name>579</name>
</trkpt>
<trkpt lat="41.811267" lon="-1.699225">
<ele>722.0</ele>
<speed>13.6</speed>
<course>253.4</course>
<desc>Speed 13.6 km/h Distance 2.66 km</desc>
<time>2011-09-24T09:44:50.74</time>
<name>580</name>
</trkpt>
<trkpt lat="41.811257" lon="-1.699270">
<ele>722.5</ele>
<speed>13.4</speed>
<course>252.1</course>
<desc>Speed 13.4 km/h Distance 2.67 km</desc>
<time>2011-09-24T09:44:51.73</time>
<name>581</name>
</trkpt>
<trkpt lat="41.811247" lon="-1.699312">
<ele>722.5</ele>
<speed>12.8</speed>
<course>249.4</course>
<desc>Speed 12.8 km/h Distance 2.67 km</desc>
<time>2011-09-24T09:44:52.73</time>
<name>582</name>
</trkpt>
<trkpt lat="41.811235" lon="-1.699353">
<ele>722.5</ele>
<speed>12.8</speed>
<course>255.0</course>
<desc>Speed 12.8 km/h Distance 2.67 km</desc>
<time>2011-09-24T09:44:53.73</time>
<name>583</name>
</trkpt>
<trkpt lat="41.811227" lon="-1.699395">
<ele>722.5</ele>
<speed>12.5</speed>
<course>251.5</course>
<desc>Speed 12.5 km/h Distance 2.68 km</desc>
<time>2011-09-24T09:44:54.73</time>
<name>584</name>
</trkpt>
<trkpt lat="41.811217" lon="-1.699435">
<ele>722.5</ele>
<speed>12.3</speed>
<course>255.5</course>
<desc>Speed 12.3 km/h Distance 2.68 km</desc>
<time>2011-09-24T09:44:55.73</time>
<name>585</name>
</trkpt>
<trkpt lat="41.811208" lon="-1.699478">
<ele>722.5</ele>
<speed>12.7</speed>
<course>261.2</course>
<desc>Speed 12.7 km/h Distance 2.68 km</desc>
<time>2011-09-24T09:44:56.73</time>
<name>586</name>
</trkpt>
<trkpt lat="41.811203" lon="-1.699522">
<ele>722.5</ele>
<speed>13.1</speed>
<course>264.5</course>
<desc>Speed 13.1 km/h Distance 2.69 km</desc>
<time>2011-09-24T09:44:57.73</time>
<name>587</name>
</trkpt>
<trkpt lat="41.811200" lon="-1.699568">
<ele>722.5</ele>
<speed>13.6</speed>
<course>267.4</course>
<desc>Speed 13.6 km/h Distance 2.69 km</desc>
<time>2011-09-24T09:44:58.73</time>
<name>588</name>
</trkpt>
<trkpt lat="41.811198" lon="-1.699617">
<ele>722.5</ele>
<speed>14.0</speed>
<course>270.0</course>
<desc>Speed 14.0 km/h Distance 2.70 km</desc>
<time>2011-09-24T09:44:59.72</time>
<name>589</name>
</trkpt>
<trkpt lat="41.811198" lon="-1.699665">
<ele>722.5</ele>
<speed>14.1</speed>
<course>275.3</course>
<desc>Speed 14.1 km/h Distance 2.70 km</desc>
<time>2011-09-24T09:45:00.72</time>
<name>590</name>
</trkpt>
<trkpt lat="41.811202" lon="-1.699713">
<ele>722.5</ele>
<speed>14.3</speed>
<course>280.8</course>
<desc>Speed 14.3 km/h Distance 2.70 km</desc>
<time>2011-09-24T09:45:01.72</time>
<name>591</name>
</trkpt>
<trkpt lat="41.811208" lon="-1.699760">
<ele>723.0</ele>
<speed>14.3</speed>
<course>277.9</course>
<desc>Speed 14.3 km/h Distance 2.71 km</desc>
<time>2011-09-24T09:45:02.72</time>
<name>592</name>
</trkpt>
<trkpt lat="41.811213" lon="-1.699808">
<ele>723.0</ele>
<speed>14.0</speed>
<course>286.0</course>
<desc>Speed 14.0 km/h Distance 2.71 km</desc>
<time>2011-09-24T09:45:03.72</time>
<name>593</name>
</trkpt>
<trkpt lat="41.811223" lon="-1.699855">
<ele>723.0</ele>
<speed>14.1</speed>
<course>292.4</course>
<desc>Speed 14.1 km/h Distance 2.72 km</desc>
<time>2011-09-24T09:45:04.72</time>
<name>594</name>
</trkpt>
<trkpt lat="41.811237" lon="-1.699898">
<ele>723.0</ele>
<speed>14.1</speed>
<course>297.3</course>
<desc>Speed 14.1 km/h Distance 2.72 km</desc>
<time>2011-09-24T09:45:05.72</time>
<name>595</name>
</trkpt>
<trkpt lat="41.811253" lon="-1.699942">
<ele>723.5</ele>
<speed>13.9</speed>
<course>300.6</course>
<desc>Speed 13.9 km/h Distance 2.72 km</desc>
<time>2011-09-24T09:45:06.72</time>
<name>596</name>
</trkpt>
<trkpt lat="41.811272" lon="-1.699983">
<ele>723.5</ele>
<speed>13.8</speed>
<course>303.9</course>
<desc>Speed 13.8 km/h Distance 2.73 km</desc>
<time>2011-09-24T09:45:07.72</time>
<name>597</name>
</trkpt>
<trkpt lat="41.811292" lon="-1.700023">
<ele>723.5</ele>
<speed>14.3</speed>
<course>311.2</course>
<desc>Speed 14.3 km/h Distance 2.73 km</desc>
<time>2011-09-24T09:45:08.72</time>
<name>598</name>
</trkpt>
<trkpt lat="41.811317" lon="-1.700062">
<ele>724.0</ele>
<speed>14.8</speed>
<course>317.4</course>
<desc>Speed 14.8 km/h Distance 2.74 km</desc>
<time>2011-09-24T09:45:09.72</time>
<name>599</name>
</trkpt>
<trkpt lat="41.811345" lon="-1.700097">
<ele>724.0</ele>
<speed>14.8</speed>
<course>320.2</course>
<desc>Speed 14.8 km/h Distance 2.74 km</desc>
<time>2011-09-24T09:45:10.72</time>
<name>600</name>
</trkpt>
<trkpt lat="41.811373" lon="-1.700128">
<ele>724.0</ele>
<speed>14.7</speed>
<course>327.9</course>
<desc>Speed 14.7 km/h Distance 2.74 km</desc>
<time>2011-09-24T09:45:11.72</time>
<name>601</name>
</trkpt>
<trkpt lat="41.811405" lon="-1.700155">
<ele>724.0</ele>
<speed>14.5</speed>
<course>331.7</course>
<desc>Speed 14.5 km/h Distance 2.75 km</desc>
<time>2011-09-24T09:45:12.71</time>
<name>602</name>
</trkpt>
<trkpt lat="41.811435" lon="-1.700177">
<ele>724.0</ele>
<speed>13.9</speed>
<course>331.2</course>
<desc>Speed 13.9 km/h Distance 2.75 km</desc>
<time>2011-09-24T09:45:13.71</time>
<name>603</name>
</trkpt>
<trkpt lat="41.811467" lon="-1.700200">
<ele>724.0</ele>
<speed>14.0</speed>
<course>333.0</course>
<desc>Speed 14.0 km/h Distance 2.76 km</desc>
<time>2011-09-24T09:45:14.71</time>
<name>604</name>
</trkpt>
<trkpt lat="41.811498" lon="-1.700222">
<ele>723.5</ele>
<speed>14.1</speed>
<course>334.2</course>
<desc>Speed 14.1 km/h Distance 2.76 km</desc>
<time>2011-09-24T09:45:15.72</time>
<name>605</name>
</trkpt>
<trkpt lat="41.811532" lon="-1.700243">
<ele>724.0</ele>
<speed>14.8</speed>
<course>334.2</course>
<desc>Speed 14.8 km/h Distance 2.76 km</desc>
<time>2011-09-24T09:45:16.71</time>
<name>606</name>
</trkpt>
<trkpt lat="41.811565" lon="-1.700265">
<ele>724.0</ele>
<speed>14.6</speed>
<course>336.9</course>
<desc>Speed 14.6 km/h Distance 2.77 km</desc>
<time>2011-09-24T09:45:17.72</time>
<name>607</name>
</trkpt>
<trkpt lat="41.811600" lon="-1.700285">
<ele>724.5</ele>
<speed>14.8</speed>
<course>352.2</course>
<desc>Speed 14.8 km/h Distance 2.77 km</desc>
<time>2011-09-24T09:45:18.71</time>
<name>608</name>
</trkpt>
<trkpt lat="41.811627" lon="-1.700290">
<ele>723.0</ele>
<speed>11.1</speed>
<course>335.2</course>
<desc>Speed 11.1 km/h Distance 2.78 km</desc>
<time>2011-09-24T09:45:19.71</time>
<name>609</name>
</trkpt>
<trkpt lat="41.811662" lon="-1.700312">
<ele>723.5</ele>
<speed>15.2</speed>
<course>336.9</course>
<desc>Speed 15.2 km/h Distance 2.78 km</desc>
<time>2011-09-24T09:45:20.70</time>
<name>610</name>
</trkpt>
<trkpt lat="41.811697" lon="-1.700332">
<ele>723.5</ele>
<speed>14.5</speed>
<course>334.2</course>
<desc>Speed 14.5 km/h Distance 2.78 km</desc>
<time>2011-09-24T09:45:21.71</time>
<name>611</name>
</trkpt>
<trkpt lat="41.811730" lon="-1.700353">
<ele>724.0</ele>
<speed>14.6</speed>
<course>335.9</course>
<desc>Speed 14.6 km/h Distance 2.79 km</desc>
<time>2011-09-24T09:45:22.71</time>
<name>612</name>
</trkpt>
<trkpt lat="41.811763" lon="-1.700373">
<ele>724.0</ele>
<speed>14.5</speed>
<course>335.9</course>
<desc>Speed 14.5 km/h Distance 2.79 km</desc>
<time>2011-09-24T09:45:23.70</time>
<name>613</name>
</trkpt>
<trkpt lat="41.811797" lon="-1.700393">
<ele>724.0</ele>
<speed>14.3</speed>
<course>339.6</course>
<desc>Speed 14.3 km/h Distance 2.80 km</desc>
<time>2011-09-24T09:45:24.70</time>
<name>614</name>
</trkpt>
<trkpt lat="41.811830" lon="-1.700410">
<ele>724.0</ele>
<speed>13.8</speed>
<course>339.5</course>
<desc>Speed 13.8 km/h Distance 2.80 km</desc>
<time>2011-09-24T09:45:25.70</time>
<name>615</name>
</trkpt>
<trkpt lat="41.811863" lon="-1.700427">
<ele>724.0</ele>
<speed>13.4</speed>
<course>336.7</course>
<desc>Speed 13.4 km/h Distance 2.80 km</desc>
<time>2011-09-24T09:45:26.70</time>
<name>616</name>
</trkpt>
<trkpt lat="41.811895" lon="-1.700445">
<ele>724.5</ele>
<speed>13.8</speed>
<course>335.5</course>
<desc>Speed 13.8 km/h Distance 2.81 km</desc>
<time>2011-09-24T09:45:27.70</time>
<name>617</name>
</trkpt>
<trkpt lat="41.811925" lon="-1.700463">
<ele>724.5</ele>
<speed>13.5</speed>
<course>339.5</course>
<desc>Speed 13.5 km/h Distance 2.81 km</desc>
<time>2011-09-24T09:45:28.70</time>
<name>618</name>
</trkpt>
<trkpt lat="41.811958" lon="-1.700480">
<ele>724.5</ele>
<speed>13.9</speed>
<course>335.9</course>
<desc>Speed 13.9 km/h Distance 2.82 km</desc>
<time>2011-09-24T09:45:29.70</time>
<name>619</name>
</trkpt>
<trkpt lat="41.811992" lon="-1.700500">
<ele>725.0</ele>
<speed>14.1</speed>
<course>334.8</course>
<desc>Speed 14.1 km/h Distance 2.82 km</desc>
<time>2011-09-24T09:45:30.70</time>
<name>620</name>
</trkpt>
<trkpt lat="41.812023" lon="-1.700520">
<ele>725.0</ele>
<speed>14.1</speed>
<course>337.7</course>
<desc>Speed 14.1 km/h Distance 2.82 km</desc>
<time>2011-09-24T09:45:31.70</time>
<name>621</name>
</trkpt>
<trkpt lat="41.812057" lon="-1.700538">
<ele>725.0</ele>
<speed>14.4</speed>
<course>336.9</course>
<desc>Speed 14.4 km/h Distance 2.83 km</desc>
<time>2011-09-24T09:45:32.70</time>
<name>622</name>
</trkpt>
<trkpt lat="41.812092" lon="-1.700558">
<ele>725.0</ele>
<speed>14.7</speed>
<course>337.7</course>
<desc>Speed 14.7 km/h Distance 2.83 km</desc>
<time>2011-09-24T09:45:33.70</time>
<name>623</name>
</trkpt>
<trkpt lat="41.812125" lon="-1.700577">
<ele>725.5</ele>
<speed>14.8</speed>
<course>336.9</course>
<desc>Speed 14.8 km/h Distance 2.84 km</desc>
<time>2011-09-24T09:45:34.70</time>
<name>624</name>
</trkpt>
<trkpt lat="41.812160" lon="-1.700597">
<ele>725.5</ele>
<speed>14.9</speed>
<course>336.9</course>
<desc>Speed 14.9 km/h Distance 2.84 km</desc>
<time>2011-09-24T09:45:35.70</time>
<name>625</name>
</trkpt>
<trkpt lat="41.812195" lon="-1.700617">
<ele>725.5</ele>
<speed>14.7</speed>
<course>334.2</course>
<desc>Speed 14.7 km/h Distance 2.84 km</desc>
<time>2011-09-24T09:45:36.70</time>
<name>626</name>
</trkpt>
<trkpt lat="41.812228" lon="-1.700638">
<ele>726.0</ele>
<speed>14.7</speed>
<course>335.9</course>
<desc>Speed 14.7 km/h Distance 2.85 km</desc>
<time>2011-09-24T09:45:37.70</time>
<name>627</name>
</trkpt>
<trkpt lat="41.812262" lon="-1.700658">
<ele>726.0</ele>
<speed>14.1</speed>
<course>335.9</course>
<desc>Speed 14.1 km/h Distance 2.85 km</desc>
<time>2011-09-24T09:45:38.70</time>
<name>628</name>
</trkpt>
<trkpt lat="41.812295" lon="-1.700678">
<ele>726.0</ele>
<speed>14.4</speed>
<course>336.7</course>
<desc>Speed 14.4 km/h Distance 2.86 km</desc>
<time>2011-09-24T09:45:39.69</time>
<name>629</name>
</trkpt>
<trkpt lat="41.812327" lon="-1.700697">
<ele>726.0</ele>
<speed>13.9</speed>
<course>337.7</course>
<desc>Speed 13.9 km/h Distance 2.86 km</desc>
<time>2011-09-24T09:45:40.70</time>
<name>630</name>
</trkpt>
<trkpt lat="41.812360" lon="-1.700715">
<ele>726.0</ele>
<speed>13.9</speed>
<course>338.7</course>
<desc>Speed 13.9 km/h Distance 2.86 km</desc>
<time>2011-09-24T09:45:41.69</time>
<name>631</name>
</trkpt>
<trkpt lat="41.812395" lon="-1.700733">
<ele>726.5</ele>
<speed>14.3</speed>
<course>333.0</course>
<desc>Speed 14.3 km/h Distance 2.87 km</desc>
<time>2011-09-24T09:45:42.69</time>
<name>632</name>
</trkpt>
<trkpt lat="41.812427" lon="-1.700755">
<ele>726.5</ele>
<speed>14.3</speed>
<course>334.7</course>
<desc>Speed 14.3 km/h Distance 2.87 km</desc>
<time>2011-09-24T09:45:43.69</time>
<name>633</name>
</trkpt>
<trkpt lat="41.812458" lon="-1.700775">
<ele>726.5</ele>
<speed>14.0</speed>
<course>334.2</course>
<desc>Speed 14.0 km/h Distance 2.88 km</desc>
<time>2011-09-24T09:45:44.69</time>
<name>634</name>
</trkpt>
<trkpt lat="41.812492" lon="-1.700797">
<ele>726.5</ele>
<speed>14.3</speed>
<course>333.0</course>
<desc>Speed 14.3 km/h Distance 2.88 km</desc>
<time>2011-09-24T09:45:45.69</time>
<name>635</name>
</trkpt>
<trkpt lat="41.812523" lon="-1.700818">
<ele>727.0</ele>
<speed>14.4</speed>
<course>333.0</course>
<desc>Speed 14.4 km/h Distance 2.88 km</desc>
<time>2011-09-24T09:45:46.69</time>
<name>636</name>
</trkpt>
<trkpt lat="41.812555" lon="-1.700840">
<ele>727.0</ele>
<speed>13.9</speed>
<course>329.9</course>
<desc>Speed 13.9 km/h Distance 2.89 km</desc>
<time>2011-09-24T09:45:47.69</time>
<name>637</name>
</trkpt>
<trkpt lat="41.812585" lon="-1.700863">
<ele>727.0</ele>
<speed>13.8</speed>
<course>326.7</course>
<desc>Speed 13.8 km/h Distance 2.89 km</desc>
<time>2011-09-24T09:45:48.69</time>
<name>638</name>
</trkpt>
<trkpt lat="41.812613" lon="-1.700888">
<ele>727.5</ele>
<speed>13.5</speed>
<course>318.2</course>
<desc>Speed 13.5 km/h Distance 2.90 km</desc>
<time>2011-09-24T09:45:49.69</time>
<name>639</name>
</trkpt>
<trkpt lat="41.812638" lon="-1.700918">
<ele>727.5</ele>
<speed>13.3</speed>
<course>311.1</course>
<desc>Speed 13.3 km/h Distance 2.90 km</desc>
<time>2011-09-24T09:45:50.69</time>
<name>640</name>
</trkpt>
<trkpt lat="41.812660" lon="-1.700952">
<ele>727.5</ele>
<speed>13.2</speed>
<course>311.1</course>
<desc>Speed 13.2 km/h Distance 2.90 km</desc>
<time>2011-09-24T09:45:51.68</time>
<name>641</name>
</trkpt>
<trkpt lat="41.812682" lon="-1.700985">
<ele>727.5</ele>
<speed>12.9</speed>
<course>307.5</course>
<desc>Speed 12.9 km/h Distance 2.91 km</desc>
<time>2011-09-24T09:45:52.68</time>
<name>642</name>
</trkpt>
<trkpt lat="41.812702" lon="-1.701020">
<ele>727.5</ele>
<speed>13.0</speed>
<course>303.9</course>
<desc>Speed 13.0 km/h Distance 2.91 km</desc>
<time>2011-09-24T09:45:53.68</time>
<name>643</name>
</trkpt>
<trkpt lat="41.812720" lon="-1.701057">
<ele>727.5</ele>
<speed>12.7</speed>
<course>294.1</course>
<desc>Speed 12.7 km/h Distance 2.91 km</desc>
<time>2011-09-24T09:45:54.68</time>
<name>644</name>
</trkpt>
<trkpt lat="41.812733" lon="-1.701097">
<ele>728.0</ele>
<speed>12.9</speed>
<course>286.6</course>
<desc>Speed 12.9 km/h Distance 2.92 km</desc>
<time>2011-09-24T09:45:55.69</time>
<name>645</name>
</trkpt>
<trkpt lat="41.812743" lon="-1.701142">
<ele>728.0</ele>
<speed>13.8</speed>
<course>281.2</course>
<desc>Speed 13.8 km/h Distance 2.92 km</desc>
<time>2011-09-24T09:45:56.68</time>
<name>646</name>
</trkpt>
<trkpt lat="41.812750" lon="-1.701187">
<ele>728.0</ele>
<speed>13.8</speed>
<course>275.5</course>
<desc>Speed 13.8 km/h Distance 2.93 km</desc>
<time>2011-09-24T09:45:57.68</time>
<name>647</name>
</trkpt>
<trkpt lat="41.812753" lon="-1.701233">
<ele>728.5</ele>
<speed>14.1</speed>
<course>270.0</course>
<desc>Speed 14.1 km/h Distance 2.93 km</desc>
<time>2011-09-24T09:45:58.68</time>
<name>648</name>
</trkpt>
<trkpt lat="41.812753" lon="-1.701282">
<ele>728.5</ele>
<speed>14.3</speed>
<course>267.4</course>
<desc>Speed 14.3 km/h Distance 2.93 km</desc>
<time>2011-09-24T09:45:59.68</time>
<name>649</name>
</trkpt>
<trkpt lat="41.812752" lon="-1.701332">
<ele>728.5</ele>
<speed>14.9</speed>
<course>265.1</course>
<desc>Speed 14.9 km/h Distance 2.94 km</desc>
<time>2011-09-24T09:46:00.68</time>
<name>650</name>
</trkpt>
<trkpt lat="41.812748" lon="-1.701383">
<ele>729.0</ele>
<speed>15.4</speed>
<course>257.4</course>
<desc>Speed 15.4 km/h Distance 2.94 km</desc>
<time>2011-09-24T09:46:01.68</time>
<name>651</name>
</trkpt>
<trkpt lat="41.812740" lon="-1.701433">
<ele>729.0</ele>
<speed>15.0</speed>
<course>254.0</course>
<desc>Speed 15.0 km/h Distance 2.95 km</desc>
<time>2011-09-24T09:46:02.68</time>
<name>652</name>
</trkpt>
<trkpt lat="41.812730" lon="-1.701480">
<ele>729.0</ele>
<speed>14.7</speed>
<course>254.0</course>
<desc>Speed 14.7 km/h Distance 2.95 km</desc>
<time>2011-09-24T09:46:03.68</time>
<name>653</name>
</trkpt>
<trkpt lat="41.812720" lon="-1.701527">
<ele>729.5</ele>
<speed>14.5</speed>
<course>250.8</course>
<desc>Speed 14.5 km/h Distance 2.95 km</desc>
<time>2011-09-24T09:46:04.68</time>
<name>654</name>
</trkpt>
<trkpt lat="41.812708" lon="-1.701572">
<ele>729.5</ele>
<speed>14.4</speed>
<course>250.8</course>
<desc>Speed 14.4 km/h Distance 2.96 km</desc>
<time>2011-09-24T09:46:05.68</time>
<name>655</name>
</trkpt>
<trkpt lat="41.812697" lon="-1.701617">
<ele>730.0</ele>
<speed>14.3</speed>
<course>250.8</course>
<desc>Speed 14.3 km/h Distance 2.96 km</desc>
<time>2011-09-24T09:46:06.68</time>
<name>656</name>
</trkpt>
<trkpt lat="41.812685" lon="-1.701662">
<ele>730.0</ele>
<speed>14.2</speed>
<course>250.1</course>
<desc>Speed 14.2 km/h Distance 2.97 km</desc>
<time>2011-09-24T09:46:07.68</time>
<name>657</name>
</trkpt>
<trkpt lat="41.812673" lon="-1.701705">
<ele>730.0</ele>
<speed>14.1</speed>
<course>254.0</course>
<desc>Speed 14.1 km/h Distance 2.97 km</desc>
<time>2011-09-24T09:46:08.67</time>
<name>658</name>
</trkpt>
<trkpt lat="41.812663" lon="-1.701752">
<ele>730.0</ele>
<speed>14.4</speed>
<course>254.0</course>
<desc>Speed 14.4 km/h Distance 2.97 km</desc>
<time>2011-09-24T09:46:09.67</time>
<name>659</name>
</trkpt>
<trkpt lat="41.812653" lon="-1.701798">
<ele>730.5</ele>
<speed>14.6</speed>
<course>250.8</course>
<desc>Speed 14.6 km/h Distance 2.98 km</desc>
<time>2011-09-24T09:46:10.67</time>
<name>660</name>
</trkpt>
<trkpt lat="41.812642" lon="-1.701843">
<ele>730.5</ele>
<speed>14.4</speed>
<course>251.5</course>
<desc>Speed 14.4 km/h Distance 2.98 km</desc>
<time>2011-09-24T09:46:11.67</time>
<name>661</name>
</trkpt>
<trkpt lat="41.812630" lon="-1.701890">
<ele>730.5</ele>
<speed>14.6</speed>
<course>254.0</course>
<desc>Speed 14.6 km/h Distance 2.99 km</desc>
<time>2011-09-24T09:46:12.67</time>
<name>662</name>
</trkpt>
<trkpt lat="41.812620" lon="-1.701937">
<ele>730.5</ele>
<speed>14.6</speed>
<course>256.5</course>
<desc>Speed 14.6 km/h Distance 2.99 km</desc>
<time>2011-09-24T09:46:13.67</time>
<name>663</name>
</trkpt>
<trkpt lat="41.812612" lon="-1.701983">
<ele>731.0</ele>
<speed>14.4</speed>
<course>250.8</course>
<desc>Speed 14.4 km/h Distance 2.99 km</desc>
<time>2011-09-24T09:46:14.67</time>
<name>664</name>
</trkpt>
<trkpt lat="41.812600" lon="-1.702028">
<ele>731.0</ele>
<speed>14.4</speed>
<course>251.5</course>
<desc>Speed 14.4 km/h Distance 3.00 km</desc>
<time>2011-09-24T09:46:15.67</time>
<name>665</name>
</trkpt>
<trkpt lat="41.812588" lon="-1.702075">
<ele>731.0</ele>
<speed>14.5</speed>
<course>248.3</course>
<desc>Speed 14.5 km/h Distance 3.00 km</desc>
<time>2011-09-24T09:46:16.67</time>
<name>666</name>
</trkpt>
<trkpt lat="41.812575" lon="-1.702120">
<ele>731.0</ele>
<speed>14.5</speed>
<course>248.3</course>
<desc>Speed 14.5 km/h Distance 3.01 km</desc>
<time>2011-09-24T09:46:17.67</time>
<name>667</name>
</trkpt>
<trkpt lat="41.812562" lon="-1.702165">
<ele>731.5</ele>
<speed>14.5</speed>
<course>249.0</course>
<desc>Speed 14.5 km/h Distance 3.01 km</desc>
<time>2011-09-24T09:46:18.67</time>
<name>668</name>
</trkpt>
<trkpt lat="41.812548" lon="-1.702212">
<ele>731.5</ele>
<speed>14.8</speed>
<course>251.5</course>
<desc>Speed 14.8 km/h Distance 3.01 km</desc>
<time>2011-09-24T09:46:19.67</time>
<name>669</name>
</trkpt>
<trkpt lat="41.812537" lon="-1.702258">
<ele>731.5</ele>
<speed>14.9</speed>
<course>254.5</course>
<desc>Speed 14.9 km/h Distance 3.02 km</desc>
<time>2011-09-24T09:46:20.67</time>
<name>670</name>
</trkpt>
<trkpt lat="41.812527" lon="-1.702307">
<ele>731.5</ele>
<speed>14.9</speed>
<course>252.1</course>
<desc>Speed 14.9 km/h Distance 3.02 km</desc>
<time>2011-09-24T09:46:21.67</time>
<name>671</name>
</trkpt>
<trkpt lat="41.812515" lon="-1.702355">
<ele>732.0</ele>
<speed>15.0</speed>
<course>254.0</course>
<desc>Speed 15.0 km/h Distance 3.03 km</desc>
<time>2011-09-24T09:46:22.66</time>
<name>672</name>
</trkpt>
<trkpt lat="41.812505" lon="-1.702402">
<ele>732.0</ele>
<speed>14.9</speed>
<course>254.5</course>
<desc>Speed 14.9 km/h Distance 3.03 km</desc>
<time>2011-09-24T09:46:23.66</time>
<name>673</name>
</trkpt>
<trkpt lat="41.812495" lon="-1.702450">
<ele>732.0</ele>
<speed>15.0</speed>
<course>252.1</course>
<desc>Speed 15.0 km/h Distance 3.04 km</desc>
<time>2011-09-24T09:46:24.67</time>
<name>674</name>
</trkpt>
<trkpt lat="41.812483" lon="-1.702498">
<ele>732.5</ele>
<speed>15.0</speed>
<course>254.0</course>
<desc>Speed 15.0 km/h Distance 3.04 km</desc>
<time>2011-09-24T09:46:25.66</time>
<name>675</name>
</trkpt>
<trkpt lat="41.812473" lon="-1.702545">
<ele>732.5</ele>
<speed>14.6</speed>
<course>251.5</course>
<desc>Speed 14.6 km/h Distance 3.04 km</desc>
<time>2011-09-24T09:46:26.66</time>
<name>676</name>
</trkpt>
<trkpt lat="41.812462" lon="-1.702592">
<ele>732.5</ele>
<speed>14.4</speed>
<course>250.8</course>
<desc>Speed 14.4 km/h Distance 3.05 km</desc>
<time>2011-09-24T09:46:27.66</time>
<name>677</name>
</trkpt>
<trkpt lat="41.812450" lon="-1.702637">
<ele>732.5</ele>
<speed>14.3</speed>
<course>253.4</course>
<desc>Speed 14.3 km/h Distance 3.05 km</desc>
<time>2011-09-24T09:46:28.66</time>
<name>678</name>
</trkpt>
<trkpt lat="41.812440" lon="-1.702682">
<ele>732.5</ele>
<speed>13.7</speed>
<course>252.8</course>
<desc>Speed 13.7 km/h Distance 3.06 km</desc>
<time>2011-09-24T09:46:29.66</time>
<name>679</name>
</trkpt>
<trkpt lat="41.812430" lon="-1.702725">
<ele>733.0</ele>
<speed>13.8</speed>
<course>241.8</course>
<desc>Speed 13.8 km/h Distance 3.06 km</desc>
<time>2011-09-24T09:46:30.66</time>
<name>680</name>
</trkpt>
<trkpt lat="41.812413" lon="-1.702767">
<ele>733.0</ele>
<speed>14.0</speed>
<course>248.3</course>
<desc>Speed 14.0 km/h Distance 3.06 km</desc>
<time>2011-09-24T09:46:31.66</time>
<name>681</name>
</trkpt>
<trkpt lat="41.812400" lon="-1.702812">
<ele>733.0</ele>
<speed>14.1</speed>
<course>253.4</course>
<desc>Speed 14.1 km/h Distance 3.07 km</desc>
<time>2011-09-24T09:46:32.66</time>
<name>682</name>
</trkpt>
<trkpt lat="41.812390" lon="-1.702857">
<ele>733.0</ele>
<speed>14.3</speed>
<course>253.4</course>
<desc>Speed 14.3 km/h Distance 3.07 km</desc>
<time>2011-09-24T09:46:33.66</time>
<name>683</name>
</trkpt>
<trkpt lat="41.812380" lon="-1.702902">
<ele>733.5</ele>
<speed>14.0</speed>
<course>250.1</course>
<desc>Speed 14.0 km/h Distance 3.08 km</desc>
<time>2011-09-24T09:46:34.66</time>
<name>684</name>
</trkpt>
<trkpt lat="41.812368" lon="-1.702945">
<ele>733.5</ele>
<speed>13.9</speed>
<course>250.8</course>
<desc>Speed 13.9 km/h Distance 3.08 km</desc>
<time>2011-09-24T09:46:35.65</time>
<name>685</name>
</trkpt>
<trkpt lat="41.812357" lon="-1.702990">
<ele>733.5</ele>
<speed>14.2</speed>
<course>254.0</course>
<desc>Speed 14.2 km/h Distance 3.08 km</desc>
<time>2011-09-24T09:46:36.65</time>
<name>686</name>
</trkpt>
<trkpt lat="41.812347" lon="-1.703037">
<ele>733.5</ele>
<speed>14.4</speed>
<course>250.8</course>
<desc>Speed 14.4 km/h Distance 3.09 km</desc>
<time>2011-09-24T09:46:37.66</time>
<name>687</name>
</trkpt>
<trkpt lat="41.812335" lon="-1.703082">
<ele>733.5</ele>
<speed>14.5</speed>
<course>248.3</course>
<desc>Speed 14.5 km/h Distance 3.09 km</desc>
<time>2011-09-24T09:46:38.65</time>
<name>688</name>
</trkpt>
<trkpt lat="41.812322" lon="-1.703127">
<ele>734.0</ele>
<speed>14.2</speed>
<course>250.1</course>
<desc>Speed 14.2 km/h Distance 3.09 km</desc>
<time>2011-09-24T09:46:39.65</time>
<name>689</name>
</trkpt>
<trkpt lat="41.812310" lon="-1.703170">
<ele>734.0</ele>
<speed>14.1</speed>
<course>244.2</course>
<desc>Speed 14.1 km/h Distance 3.10 km</desc>
<time>2011-09-24T09:46:40.65</time>
<name>690</name>
</trkpt>
<trkpt lat="41.812295" lon="-1.703212">
<ele>734.0</ele>
<speed>13.9</speed>
<course>245.1</course>
<desc>Speed 13.9 km/h Distance 3.10 km</desc>
<time>2011-09-24T09:46:41.65</time>
<name>691</name>
</trkpt>
<trkpt lat="41.812280" lon="-1.703255">
<ele>734.0</ele>
<speed>13.9</speed>
<course>249.4</course>
<desc>Speed 13.9 km/h Distance 3.11 km</desc>
<time>2011-09-24T09:46:42.65</time>
<name>692</name>
</trkpt>
<trkpt lat="41.812268" lon="-1.703297">
<ele>734.5</ele>
<speed>13.6</speed>
<course>244.2</course>
<desc>Speed 13.6 km/h Distance 3.11 km</desc>
<time>2011-09-24T09:46:43.65</time>
<name>693</name>
</trkpt>
<trkpt lat="41.812253" lon="-1.703338">
<ele>734.5</ele>
<speed>13.8</speed>
<course>245.1</course>
<desc>Speed 13.8 km/h Distance 3.11 km</desc>
<time>2011-09-24T09:46:44.65</time>
<name>694</name>
</trkpt>
<trkpt lat="41.812238" lon="-1.703382">
<ele>734.5</ele>
<speed>14.3</speed>
<course>239.4</course>
<desc>Speed 14.3 km/h Distance 3.12 km</desc>
<time>2011-09-24T09:46:45.64</time>
<name>695</name>
</trkpt>
<trkpt lat="41.812220" lon="-1.703423">
<ele>734.5</ele>
<speed>14.3</speed>
<course>242.7</course>
<desc>Speed 14.3 km/h Distance 3.12 km</desc>
<time>2011-09-24T09:46:46.64</time>
<name>696</name>
</trkpt>
<trkpt lat="41.812203" lon="-1.703467">
<ele>734.5</ele>
<speed>14.3</speed>
<course>237.2</course>
<desc>Speed 14.3 km/h Distance 3.13 km</desc>
<time>2011-09-24T09:46:47.64</time>
<name>697</name>
</trkpt>
<trkpt lat="41.812183" lon="-1.703508">
<ele>735.0</ele>
<speed>14.5</speed>
<course>235.0</course>
<desc>Speed 14.5 km/h Distance 3.13 km</desc>
<time>2011-09-24T09:46:48.64</time>
<name>698</name>
</trkpt>
<trkpt lat="41.812163" lon="-1.703547">
<ele>735.0</ele>
<speed>14.4</speed>
<course>236.1</course>
<desc>Speed 14.4 km/h Distance 3.13 km</desc>
<time>2011-09-24T09:46:49.64</time>
<name>699</name>
</trkpt>
<trkpt lat="41.812143" lon="-1.703587">
<ele>735.0</ele>
<speed>14.3</speed>
<course>232.8</course>
<desc>Speed 14.3 km/h Distance 3.14 km</desc>
<time>2011-09-24T09:46:50.65</time>
<name>700</name>
</trkpt>
<trkpt lat="41.812122" lon="-1.703625">
<ele>735.0</ele>
<speed>14.3</speed>
<course>234.0</course>
<desc>Speed 14.3 km/h Distance 3.14 km</desc>
<time>2011-09-24T09:46:51.64</time>
<name>701</name>
</trkpt>
<trkpt lat="41.812100" lon="-1.703665">
<ele>735.0</ele>
<speed>14.5</speed>
<course>236.1</course>
<desc>Speed 14.5 km/h Distance 3.15 km</desc>
<time>2011-09-24T09:46:52.64</time>
<name>702</name>
</trkpt>
<trkpt lat="41.812080" lon="-1.703705">
<ele>735.0</ele>
<speed>14.2</speed>
<course>231.6</course>
<desc>Speed 14.2 km/h Distance 3.15 km</desc>
<time>2011-09-24T09:46:53.64</time>
<name>703</name>
</trkpt>
<trkpt lat="41.812058" lon="-1.703742">
<ele>735.0</ele>
<speed>14.0</speed>
<course>232.8</course>
<desc>Speed 14.0 km/h Distance 3.15 km</desc>
<time>2011-09-24T09:46:54.64</time>
<name>704</name>
</trkpt>
<trkpt lat="41.812037" lon="-1.703780">
<ele>735.5</ele>
<speed>14.2</speed>
<course>232.8</course>
<desc>Speed 14.2 km/h Distance 3.16 km</desc>
<time>2011-09-24T09:46:55.64</time>
<name>705</name>
</trkpt>
<trkpt lat="41.812015" lon="-1.703818">
<ele>735.5</ele>
<speed>14.4</speed>
<course>235.0</course>
<desc>Speed 14.4 km/h Distance 3.16 km</desc>
<time>2011-09-24T09:46:56.64</time>
<name>706</name>
</trkpt>
<trkpt lat="41.811995" lon="-1.703857">
<ele>735.5</ele>
<speed>14.2</speed>
<course>232.8</course>
<desc>Speed 14.2 km/h Distance 3.17 km</desc>
<time>2011-09-24T09:46:57.64</time>
<name>707</name>
</trkpt>
<trkpt lat="41.811973" lon="-1.703895">
<ele>735.5</ele>
<speed>13.9</speed>
<course>233.8</course>
<desc>Speed 13.9 km/h Distance 3.17 km</desc>
<time>2011-09-24T09:46:58.63</time>
<name>708</name>
</trkpt>
<trkpt lat="41.811953" lon="-1.703932">
<ele>735.5</ele>
<speed>13.9</speed>
<course>236.1</course>
<desc>Speed 13.9 km/h Distance 3.17 km</desc>
<time>2011-09-24T09:46:59.63</time>
<name>709</name>
</trkpt>
<trkpt lat="41.811933" lon="-1.703972">
<ele>735.5</ele>
<speed>14.2</speed>
<course>234.0</course>
<desc>Speed 14.2 km/h Distance 3.18 km</desc>
<time>2011-09-24T09:47:00.63</time>
<name>710</name>
</trkpt>
<trkpt lat="41.811912" lon="-1.704012">
<ele>735.5</ele>
<speed>14.5</speed>
<course>226.2</course>
<desc>Speed 14.5 km/h Distance 3.18 km</desc>
<time>2011-09-24T09:47:01.63</time>
<name>711</name>
</trkpt>
<trkpt lat="41.811887" lon="-1.704047">
<ele>735.5</ele>
<speed>14.4</speed>
<course>232.8</course>
<desc>Speed 14.4 km/h Distance 3.19 km</desc>
<time>2011-09-24T09:47:02.63</time>
<name>712</name>
</trkpt>
<trkpt lat="41.811865" lon="-1.704085">
<ele>735.5</ele>
<speed>14.4</speed>
<course>231.9</course>
<desc>Speed 14.4 km/h Distance 3.19 km</desc>
<time>2011-09-24T09:47:03.63</time>
<name>713</name>
</trkpt>
<trkpt lat="41.811842" lon="-1.704125">
<ele>735.5</ele>
<speed>14.8</speed>
<course>236.1</course>
<desc>Speed 14.8 km/h Distance 3.19 km</desc>
<time>2011-09-24T09:47:04.63</time>
<name>714</name>
</trkpt>
<trkpt lat="41.811822" lon="-1.704165">
<ele>736.0</ele>
<speed>14.7</speed>
<course>238.2</course>
<desc>Speed 14.7 km/h Distance 3.20 km</desc>
<time>2011-09-24T09:47:05.63</time>
<name>715</name>
</trkpt>
<trkpt lat="41.811802" lon="-1.704208">
<ele>736.0</ele>
<speed>14.9</speed>
<course>237.2</course>
<desc>Speed 14.9 km/h Distance 3.20 km</desc>
<time>2011-09-24T09:47:06.62</time>
<name>716</name>
</trkpt>
<trkpt lat="41.811782" lon="-1.704250">
<ele>736.0</ele>
<speed>14.7</speed>
<course>242.7</course>
<desc>Speed 14.7 km/h Distance 3.21 km</desc>
<time>2011-09-24T09:47:07.62</time>
<name>717</name>
</trkpt>
<trkpt lat="41.811765" lon="-1.704293">
<ele>736.5</ele>
<speed>14.5</speed>
<course>248.3</course>
<desc>Speed 14.5 km/h Distance 3.21 km</desc>
<time>2011-09-24T09:47:08.63</time>
<name>718</name>
</trkpt>
<trkpt lat="41.811752" lon="-1.704338">
<ele>736.5</ele>
<speed>14.7</speed>
<course>245.9</course>
<desc>Speed 14.7 km/h Distance 3.21 km</desc>
<time>2011-09-24T09:47:09.62</time>
<name>719</name>
</trkpt>
<trkpt lat="41.811737" lon="-1.704383">
<ele>736.5</ele>
<speed>14.8</speed>
<course>249.0</course>
<desc>Speed 14.8 km/h Distance 3.22 km</desc>
<time>2011-09-24T09:47:10.63</time>
<name>720</name>
</trkpt>
<trkpt lat="41.811723" lon="-1.704430">
<ele>737.0</ele>
<speed>14.9</speed>
<course>249.7</course>
<desc>Speed 14.9 km/h Distance 3.22 km</desc>
<time>2011-09-24T09:47:11.62</time>
<name>721</name>
</trkpt>
<trkpt lat="41.811710" lon="-1.704478">
<ele>737.0</ele>
<speed>15.2</speed>
<course>251.5</course>
<desc>Speed 15.2 km/h Distance 3.23 km</desc>
<time>2011-09-24T09:47:12.62</time>
<name>722</name>
</trkpt>
<trkpt lat="41.811698" lon="-1.704525">
<ele>737.5</ele>
<speed>15.1</speed>
<course>254.5</course>
<desc>Speed 15.1 km/h Distance 3.23 km</desc>
<time>2011-09-24T09:47:13.62</time>
<name>723</name>
</trkpt>
<trkpt lat="41.811688" lon="-1.704573">
<ele>737.5</ele>
<speed>14.9</speed>
<course>257.0</course>
<desc>Speed 14.9 km/h Distance 3.24 km</desc>
<time>2011-09-24T09:47:14.62</time>
<name>724</name>
</trkpt>
<trkpt lat="41.811680" lon="-1.704622">
<ele>737.5</ele>
<speed>15.1</speed>
<course>259.9</course>
<desc>Speed 15.1 km/h Distance 3.24 km</desc>
<time>2011-09-24T09:47:15.62</time>
<name>725</name>
</trkpt>
<trkpt lat="41.811673" lon="-1.704672">
<ele>737.5</ele>
<speed>15.0</speed>
<course>259.5</course>
<desc>Speed 15.0 km/h Distance 3.24 km</desc>
<time>2011-09-24T09:47:16.62</time>
<name>726</name>
</trkpt>
<trkpt lat="41.811667" lon="-1.704720">
<ele>737.5</ele>
<speed>14.8</speed>
<course>262.1</course>
<desc>Speed 14.8 km/h Distance 3.25 km</desc>
<time>2011-09-24T09:47:17.62</time>
<name>727</name>
</trkpt>
<trkpt lat="41.811662" lon="-1.704768">
<ele>737.5</ele>
<speed>14.7</speed>
<course>264.3</course>
<desc>Speed 14.7 km/h Distance 3.25 km</desc>
<time>2011-09-24T09:47:18.62</time>
<name>728</name>
</trkpt>
<trkpt lat="41.811658" lon="-1.704813">
<ele>737.5</ele>
<speed>14.0</speed>
<course>264.3</course>
<desc>Speed 14.0 km/h Distance 3.26 km</desc>
<time>2011-09-24T09:47:19.62</time>
<name>729</name>
</trkpt>
<trkpt lat="41.811655" lon="-1.704858">
<ele>737.5</ele>
<speed>13.7</speed>
<course>267.4</course>
<desc>Speed 13.7 km/h Distance 3.26 km</desc>
<time>2011-09-24T09:47:20.62</time>
<name>730</name>
</trkpt>
<trkpt lat="41.811653" lon="-1.704907">
<ele>738.0</ele>
<speed>14.0</speed>
<course>270.0</course>
<desc>Speed 14.0 km/h Distance 3.26 km</desc>
<time>2011-09-24T09:47:21.61</time>
<name>731</name>
</trkpt>
<trkpt lat="41.811653" lon="-1.704952">
<ele>738.0</ele>
<speed>13.9</speed>
<course>267.4</course>
<desc>Speed 13.9 km/h Distance 3.27 km</desc>
<time>2011-09-24T09:47:22.61</time>
<name>732</name>
</trkpt>
<trkpt lat="41.811652" lon="-1.705000">
<ele>738.0</ele>
<speed>14.1</speed>
<course>267.3</course>
<desc>Speed 14.1 km/h Distance 3.27 km</desc>
<time>2011-09-24T09:47:23.61</time>
<name>733</name>
</trkpt>
<trkpt lat="41.811650" lon="-1.705047">
<ele>738.5</ele>
<speed>13.9</speed>
<course>267.3</course>
<desc>Speed 13.9 km/h Distance 3.27 km</desc>
<time>2011-09-24T09:47:24.61</time>
<name>734</name>
</trkpt>
<trkpt lat="41.811648" lon="-1.705093">
<ele>738.5</ele>
<speed>13.9</speed>
<course>267.3</course>
<desc>Speed 13.9 km/h Distance 3.28 km</desc>
<time>2011-09-24T09:47:25.61</time>
<name>735</name>
</trkpt>
<trkpt lat="41.811647" lon="-1.705140">
<ele>739.0</ele>
<speed>13.8</speed>
<course>267.2</course>
<desc>Speed 13.8 km/h Distance 3.28 km</desc>
<time>2011-09-24T09:47:26.61</time>
<name>736</name>
</trkpt>
<trkpt lat="41.811645" lon="-1.705185">
<ele>739.0</ele>
<speed>13.8</speed>
<course>267.3</course>
<desc>Speed 13.8 km/h Distance 3.29 km</desc>
<time>2011-09-24T09:47:27.61</time>
<name>737</name>
</trkpt>
<trkpt lat="41.811643" lon="-1.705232">
<ele>739.5</ele>
<speed>13.9</speed>
<course>267.3</course>
<desc>Speed 13.9 km/h Distance 3.29 km</desc>
<time>2011-09-24T09:47:28.61</time>
<name>738</name>
</trkpt>
<trkpt lat="41.811642" lon="-1.705278">
<ele>739.5</ele>
<speed>13.8</speed>
<course>264.3</course>
<desc>Speed 13.8 km/h Distance 3.29 km</desc>
<time>2011-09-24T09:47:29.61</time>
<name>739</name>
</trkpt>
<trkpt lat="41.811638" lon="-1.705323">
<ele>739.5</ele>
<speed>13.7</speed>
<course>267.3</course>
<desc>Speed 13.7 km/h Distance 3.30 km</desc>
<time>2011-09-24T09:47:30.61</time>
<name>740</name>
</trkpt>
<trkpt lat="41.811637" lon="-1.705370">
<ele>740.0</ele>
<speed>13.8</speed>
<course>267.2</course>
<desc>Speed 13.8 km/h Distance 3.30 km</desc>
<time>2011-09-24T09:47:31.61</time>
<name>741</name>
</trkpt>
<trkpt lat="41.811635" lon="-1.705415">
<ele>740.0</ele>
<speed>13.5</speed>
<course>272.8</course>
<desc>Speed 13.5 km/h Distance 3.31 km</desc>
<time>2011-09-24T09:47:32.61</time>
<name>742</name>
</trkpt>
<trkpt lat="41.811637" lon="-1.705460">
<ele>740.5</ele>
<speed>13.5</speed>
<course>267.2</course>
<desc>Speed 13.5 km/h Distance 3.31 km</desc>
<time>2011-09-24T09:47:33.61</time>
<name>743</name>
</trkpt>
<trkpt lat="41.811635" lon="-1.705505">
<ele>740.5</ele>
<speed>13.5</speed>
<course>272.7</course>
<desc>Speed 13.5 km/h Distance 3.31 km</desc>
<time>2011-09-24T09:47:34.61</time>
<name>744</name>
</trkpt>
<trkpt lat="41.811637" lon="-1.705552">
<ele>740.5</ele>
<speed>13.9</speed>
<course>271.3</course>
<desc>Speed 13.9 km/h Distance 3.32 km</desc>
<time>2011-09-24T09:47:35.61</time>
<name>745</name>
</trkpt>
<trkpt lat="41.811638" lon="-1.705653">
<ele>742.0</ele>
<speed>16.6</speed>
<course>264.3</course>
<desc>Speed 16.6 km/h Distance 3.33 km</desc>
<time>2011-09-24T09:47:37.62</time>
<name>746</name>
</trkpt>
<trkpt lat="41.811635" lon="-1.705698">
<ele>742.0</ele>
<speed>13.6</speed>
<course>264.1</course>
<desc>Speed 13.6 km/h Distance 3.33 km</desc>
<time>2011-09-24T09:47:38.60</time>
<name>747</name>
</trkpt>
<trkpt lat="41.811632" lon="-1.705742">
<ele>742.0</ele>
<speed>13.1</speed>
<course>270.0</course>
<desc>Speed 13.1 km/h Distance 3.33 km</desc>
<time>2011-09-24T09:47:39.60</time>
<name>748</name>
</trkpt>
<trkpt lat="41.811632" lon="-1.705785">
<ele>742.5</ele>
<speed>13.1</speed>
<course>266.9</course>
<desc>Speed 13.1 km/h Distance 3.34 km</desc>
<time>2011-09-24T09:47:40.60</time>
<name>749</name>
</trkpt>
<trkpt lat="41.811630" lon="-1.705827">
<ele>742.5</ele>
<speed>12.7</speed>
<course>264.1</course>
<desc>Speed 12.7 km/h Distance 3.34 km</desc>
<time>2011-09-24T09:47:41.60</time>
<name>750</name>
</trkpt>
<trkpt lat="41.811627" lon="-1.705870">
<ele>742.5</ele>
<speed>12.7</speed>
<course>270.0</course>
<desc>Speed 12.7 km/h Distance 3.34 km</desc>
<time>2011-09-24T09:47:42.60</time>
<name>751</name>
</trkpt>
<trkpt lat="41.811627" lon="-1.705912">
<ele>742.5</ele>
<speed>12.6</speed>
<course>264.1</course>
<desc>Speed 12.6 km/h Distance 3.35 km</desc>
<time>2011-09-24T09:47:43.60</time>
<name>752</name>
</trkpt>
<trkpt lat="41.811623" lon="-1.705955">
<ele>742.5</ele>
<speed>12.6</speed>
<course>263.9</course>
<desc>Speed 12.6 km/h Distance 3.35 km</desc>
<time>2011-09-24T09:47:44.60</time>
<name>753</name>
</trkpt>
<trkpt lat="41.811620" lon="-1.705997">
<ele>742.0</ele>
<speed>12.5</speed>
<course>267.0</course>
<desc>Speed 12.5 km/h Distance 3.35 km</desc>
<time>2011-09-24T09:47:45.60</time>
<name>754</name>
</trkpt>
<trkpt lat="41.811618" lon="-1.706040">
<ele>742.5</ele>
<speed>13.3</speed>
<course>263.9</course>
<desc>Speed 13.3 km/h Distance 3.36 km</desc>
<time>2011-09-24T09:47:46.60</time>
<name>755</name>
</trkpt>
<trkpt lat="41.811615" lon="-1.706082">
<ele>742.0</ele>
<speed>12.1</speed>
<course>267.0</course>
<desc>Speed 12.1 km/h Distance 3.36 km</desc>
<time>2011-09-24T09:47:47.60</time>
<name>756</name>
</trkpt>
<trkpt lat="41.811613" lon="-1.706125">
<ele>742.0</ele>
<speed>13.2</speed>
<course>267.7</course>
<desc>Speed 13.2 km/h Distance 3.36 km</desc>
<time>2011-09-24T09:47:48.60</time>
<name>757</name>
</trkpt>
<trkpt lat="41.811612" lon="-1.706182">
<ele>743.5</ele>
<speed>16.6</speed>
<course>267.0</course>
<desc>Speed 16.6 km/h Distance 3.37 km</desc>
<time>2011-09-24T09:47:49.60</time>
<name>758</name>
</trkpt>
<trkpt lat="41.811610" lon="-1.706225">
<ele>743.5</ele>
<speed>13.1</speed>
<course>264.1</course>
<desc>Speed 13.1 km/h Distance 3.37 km</desc>
<time>2011-09-24T09:47:50.60</time>
<name>759</name>
</trkpt>
<trkpt lat="41.811607" lon="-1.706268">
<ele>743.5</ele>
<speed>12.8</speed>
<course>267.2</course>
<desc>Speed 12.8 km/h Distance 3.38 km</desc>
<time>2011-09-24T09:47:51.59</time>
<name>760</name>
</trkpt>
<trkpt lat="41.811605" lon="-1.706313">
<ele>744.0</ele>
<speed>13.3</speed>
<course>264.3</course>
<desc>Speed 13.3 km/h Distance 3.38 km</desc>
<time>2011-09-24T09:47:52.59</time>
<name>761</name>
</trkpt>
<trkpt lat="41.811602" lon="-1.706358">
<ele>744.0</ele>
<speed>13.1</speed>
<course>264.1</course>
<desc>Speed 13.1 km/h Distance 3.38 km</desc>
<time>2011-09-24T09:47:53.59</time>
<name>762</name>
</trkpt>
<trkpt lat="41.811598" lon="-1.706402">
<ele>744.0</ele>
<speed>12.9</speed>
<course>270.0</course>
<desc>Speed 12.9 km/h Distance 3.39 km</desc>
<time>2011-09-24T09:47:54.59</time>
<name>763</name>
</trkpt>
<trkpt lat="41.811598" lon="-1.706445">
<ele>744.5</ele>
<speed>12.5</speed>
<course>262.0</course>
<desc>Speed 12.5 km/h Distance 3.39 km</desc>
<time>2011-09-24T09:47:55.59</time>
<name>764</name>
</trkpt>
<trkpt lat="41.811595" lon="-1.706477">
<ele>743.0</ele>
<speed>9.7</speed>
<course>264.1</course>
<desc>Speed 9.7 km/h Distance 3.39 km</desc>
<time>2011-09-24T09:47:56.59</time>
<name>765</name>
</trkpt>
<trkpt lat="41.811592" lon="-1.706520">
<ele>743.0</ele>
<speed>12.7</speed>
<course>264.1</course>
<desc>Speed 12.7 km/h Distance 3.40 km</desc>
<time>2011-09-24T09:47:57.59</time>
<name>766</name>
</trkpt>
<trkpt lat="41.811588" lon="-1.706563">
<ele>743.0</ele>
<speed>13.0</speed>
<course>264.1</course>
<desc>Speed 13.0 km/h Distance 3.40 km</desc>
<time>2011-09-24T09:47:58.59</time>
<name>767</name>
</trkpt>
<trkpt lat="41.811585" lon="-1.706607">
<ele>743.0</ele>
<speed>13.0</speed>
<course>270.0</course>
<desc>Speed 13.0 km/h Distance 3.40 km</desc>
<time>2011-09-24T09:48:01.59</time>
<name>768</name>
</trkpt>
<trkpt lat="41.811585" lon="-1.706652">
<ele>743.5</ele>
<speed>13.2</speed>
<course>273.0</course>
<desc>Speed 13.2 km/h Distance 3.41 km</desc>
<time>2011-09-24T09:48:02.59</time>
<name>769</name>
</trkpt>
<trkpt lat="41.811587" lon="-1.706695">
<ele>743.5</ele>
<speed>13.0</speed>
<course>270.0</course>
<desc>Speed 13.0 km/h Distance 3.41 km</desc>
<time>2011-09-24T09:48:03.59</time>
<name>770</name>
</trkpt>
<trkpt lat="41.811587" lon="-1.706738">
<ele>743.5</ele>
<speed>12.8</speed>
<course>267.0</course>
<desc>Speed 12.8 km/h Distance 3.42 km</desc>
<time>2011-09-24T09:48:04.59</time>
<name>771</name>
</trkpt>
<trkpt lat="41.811585" lon="-1.706782">
<ele>743.5</ele>
<speed>12.8</speed>
<course>267.0</course>
<desc>Speed 12.8 km/h Distance 3.42 km</desc>
<time>2011-09-24T09:48:05.59</time>
<name>772</name>
</trkpt>
<trkpt lat="41.811583" lon="-1.706825">
<ele>743.5</ele>
<speed>12.9</speed>
<course>267.0</course>
<desc>Speed 12.9 km/h Distance 3.42 km</desc>
<time>2011-09-24T09:48:06.59</time>
<name>773</name>
</trkpt>
<trkpt lat="41.811582" lon="-1.706868">
<ele>743.5</ele>
<speed>12.6</speed>
<course>267.0</course>
<desc>Speed 12.6 km/h Distance 3.43 km</desc>
<time>2011-09-24T09:48:07.59</time>
<name>774</name>
</trkpt>
<trkpt lat="41.811580" lon="-1.706912">
<ele>744.0</ele>
<speed>12.7</speed>
<course>261.5</course>
<desc>Speed 12.7 km/h Distance 3.43 km</desc>
<time>2011-09-24T09:48:08.58</time>
<name>775</name>
</trkpt>
<trkpt lat="41.811577" lon="-1.706942">
<ele>742.0</ele>
<speed>9.1</speed>
<course>270.0</course>
<desc>Speed 9.1 km/h Distance 3.43 km</desc>
<time>2011-09-24T09:48:09.59</time>
<name>776</name>
</trkpt>
<trkpt lat="41.811577" lon="-1.706985">
<ele>742.5</ele>
<speed>12.4</speed>
<course>267.0</course>
<desc>Speed 12.4 km/h Distance 3.44 km</desc>
<time>2011-09-24T09:48:10.58</time>
<name>777</name>
</trkpt>
<trkpt lat="41.811575" lon="-1.707028">
<ele>742.5</ele>
<speed>12.6</speed>
<course>270.0</course>
<desc>Speed 12.6 km/h Distance 3.44 km</desc>
<time>2011-09-24T09:48:11.58</time>
<name>778</name>
</trkpt>
<trkpt lat="41.811575" lon="-1.707072">
<ele>742.5</ele>
<speed>12.9</speed>
<course>267.0</course>
<desc>Speed 12.9 km/h Distance 3.44 km</desc>
<time>2011-09-24T09:48:12.58</time>
<name>779</name>
</trkpt>
<trkpt lat="41.811573" lon="-1.707115">
<ele>743.0</ele>
<speed>12.9</speed>
<course>270.0</course>
<desc>Speed 12.9 km/h Distance 3.45 km</desc>
<time>2011-09-24T09:48:13.58</time>
<name>780</name>
</trkpt>
<trkpt lat="41.811573" lon="-1.707160">
<ele>743.0</ele>
<speed>13.0</speed>
<course>270.0</course>
<desc>Speed 13.0 km/h Distance 3.45 km</desc>
<time>2011-09-24T09:48:14.58</time>
<name>781</name>
</trkpt>
<trkpt lat="41.811573" lon="-1.707205">
<ele>743.5</ele>
<speed>13.0</speed>
<course>270.0</course>
<desc>Speed 13.0 km/h Distance 3.45 km</desc>
<time>2011-09-24T09:48:15.58</time>
<name>782</name>
</trkpt>
<trkpt lat="41.811573" lon="-1.707250">
<ele>743.5</ele>
<speed>13.1</speed>
<course>270.0</course>
<desc>Speed 13.1 km/h Distance 3.46 km</desc>
<time>2011-09-24T09:48:16.58</time>
<name>783</name>
</trkpt>
<trkpt lat="41.811573" lon="-1.707295">
<ele>743.5</ele>
<speed>13.2</speed>
<course>270.0</course>
<desc>Speed 13.2 km/h Distance 3.46 km</desc>
<time>2011-09-24T09:48:17.58</time>
<name>784</name>
</trkpt>
<trkpt lat="41.811573" lon="-1.707340">
<ele>744.0</ele>
<speed>13.0</speed>
<course>267.0</course>
<desc>Speed 13.0 km/h Distance 3.47 km</desc>
<time>2011-09-24T09:48:18.58</time>
<name>785</name>
</trkpt>
<trkpt lat="41.811572" lon="-1.707383">
<ele>744.0</ele>
<speed>12.9</speed>
<course>267.2</course>
<desc>Speed 12.9 km/h Distance 3.47 km</desc>
<time>2011-09-24T09:48:19.58</time>
<name>786</name>
</trkpt>
<trkpt lat="41.811570" lon="-1.707428">
<ele>744.5</ele>
<speed>12.7</speed>
<course>272.8</course>
<desc>Speed 12.7 km/h Distance 3.47 km</desc>
<time>2011-09-24T09:48:20.58</time>
<name>787</name>
</trkpt>
<trkpt lat="41.811572" lon="-1.707473">
<ele>745.0</ele>
<speed>12.9</speed>
<course>267.0</course>
<desc>Speed 12.9 km/h Distance 3.48 km</desc>
<time>2011-09-24T09:48:21.58</time>
<name>788</name>
</trkpt>
<trkpt lat="41.811570" lon="-1.707517">
<ele>745.0</ele>
<speed>12.7</speed>
<course>267.0</course>
<desc>Speed 12.7 km/h Distance 3.48 km</desc>
<time>2011-09-24T09:48:22.58</time>
<name>789</name>
</trkpt>
<trkpt lat="41.811568" lon="-1.707560">
<ele>745.0</ele>
<speed>12.8</speed>
<course>275.7</course>
<desc>Speed 12.8 km/h Distance 3.48 km</desc>
<time>2011-09-24T09:48:23.58</time>
<name>790</name>
</trkpt>
<trkpt lat="41.811572" lon="-1.707605">
<ele>745.5</ele>
<speed>13.1</speed>
<course>273.0</course>
<desc>Speed 13.1 km/h Distance 3.49 km</desc>
<time>2011-09-24T09:48:24.57</time>
<name>791</name>
</trkpt>
<trkpt lat="41.811573" lon="-1.707648">
<ele>745.5</ele>
<speed>12.9</speed>
<course>273.0</course>
<desc>Speed 12.9 km/h Distance 3.49 km</desc>
<time>2011-09-24T09:48:25.57</time>
<name>792</name>
</trkpt>
<trkpt lat="41.811575" lon="-1.707692">
<ele>746.0</ele>
<speed>12.8</speed>
<course>267.0</course>
<desc>Speed 12.8 km/h Distance 3.49 km</desc>
<time>2011-09-24T09:48:26.58</time>
<name>793</name>
</trkpt>
<trkpt lat="41.811573" lon="-1.707735">
<ele>746.0</ele>
<speed>12.5</speed>
<course>270.0</course>
<desc>Speed 12.5 km/h Distance 3.50 km</desc>
<time>2011-09-24T09:48:27.58</time>
<name>794</name>
</trkpt>
<trkpt lat="41.811573" lon="-1.707778">
<ele>746.0</ele>
<speed>12.7</speed>
<course>263.9</course>
<desc>Speed 12.7 km/h Distance 3.50 km</desc>
<time>2011-09-24T09:48:28.57</time>
<name>795</name>
</trkpt>
<trkpt lat="41.811570" lon="-1.707820">
<ele>746.0</ele>
<speed>12.5</speed>
<course>270.0</course>
<desc>Speed 12.5 km/h Distance 3.51 km</desc>
<time>2011-09-24T09:48:29.57</time>
<name>796</name>
</trkpt>
<trkpt lat="41.811570" lon="-1.707863">
<ele>746.5</ele>
<speed>12.6</speed>
<course>267.0</course>
<desc>Speed 12.6 km/h Distance 3.51 km</desc>
<time>2011-09-24T09:48:30.57</time>
<name>797</name>
</trkpt>
<trkpt lat="41.811568" lon="-1.707907">
<ele>746.5</ele>
<speed>13.0</speed>
<course>270.0</course>
<desc>Speed 13.0 km/h Distance 3.51 km</desc>
<time>2011-09-24T09:48:31.57</time>
<name>798</name>
</trkpt>
<trkpt lat="41.811568" lon="-1.707952">
<ele>746.5</ele>
<speed>13.0</speed>
<course>266.9</course>
<desc>Speed 13.0 km/h Distance 3.52 km</desc>
<time>2011-09-24T09:48:32.57</time>
<name>799</name>
</trkpt>
<trkpt lat="41.811567" lon="-1.707993">
<ele>746.5</ele>
<speed>12.8</speed>
<course>267.2</course>
<desc>Speed 12.8 km/h Distance 3.52 km</desc>
<time>2011-09-24T09:48:33.57</time>
<name>800</name>
</trkpt>
<trkpt lat="41.811565" lon="-1.708038">
<ele>746.5</ele>
<speed>13.2</speed>
<course>270.0</course>
<desc>Speed 13.2 km/h Distance 3.52 km</desc>
<time>2011-09-24T09:48:34.57</time>
<name>801</name>
</trkpt>
<trkpt lat="41.811565" lon="-1.708085">
<ele>747.0</ele>
<speed>13.7</speed>
<course>270.0</course>
<desc>Speed 13.7 km/h Distance 3.53 km</desc>
<time>2011-09-24T09:48:35.57</time>
<name>802</name>
</trkpt>
<trkpt lat="41.811565" lon="-1.708132">
<ele>747.0</ele>
<speed>14.0</speed>
<course>270.0</course>
<desc>Speed 14.0 km/h Distance 3.53 km</desc>
<time>2011-09-24T09:48:36.57</time>
<name>803</name>
</trkpt>
<trkpt lat="41.811565" lon="-1.708182">
<ele>747.5</ele>
<speed>14.3</speed>
<course>264.7</course>
<desc>Speed 14.3 km/h Distance 3.54 km</desc>
<time>2011-09-24T09:48:37.57</time>
<name>804</name>
</trkpt>
<trkpt lat="41.811562" lon="-1.708230">
<ele>747.5</ele>
<speed>14.3</speed>
<course>267.3</course>
<desc>Speed 14.3 km/h Distance 3.54 km</desc>
<time>2011-09-24T09:48:38.57</time>
<name>805</name>
</trkpt>
<trkpt lat="41.811560" lon="-1.708277">
<ele>747.5</ele>
<speed>14.1</speed>
<course>267.4</course>
<desc>Speed 14.1 km/h Distance 3.54 km</desc>
<time>2011-09-24T09:48:39.57</time>
<name>806</name>
</trkpt>
<trkpt lat="41.811558" lon="-1.708325">
<ele>748.0</ele>
<speed>14.0</speed>
<course>264.5</course>
<desc>Speed 14.0 km/h Distance 3.55 km</desc>
<time>2011-09-24T09:48:40.57</time>
<name>807</name>
</trkpt>
<trkpt lat="41.811555" lon="-1.708372">
<ele>748.0</ele>
<speed>13.8</speed>
<course>270.0</course>
<desc>Speed 13.8 km/h Distance 3.55 km</desc>
<time>2011-09-24T09:48:41.57</time>
<name>808</name>
</trkpt>
<trkpt lat="41.811555" lon="-1.708418">
<ele>748.0</ele>
<speed>14.0</speed>
<course>258.8</course>
<desc>Speed 14.0 km/h Distance 3.56 km</desc>
<time>2011-09-24T09:48:42.57</time>
<name>809</name>
</trkpt>
<trkpt lat="41.811548" lon="-1.708463">
<ele>748.0</ele>
<speed>13.6</speed>
<course>267.3</course>
<desc>Speed 13.6 km/h Distance 3.56 km</desc>
<time>2011-09-24T09:48:43.57</time>
<name>810</name>
</trkpt>
<trkpt lat="41.811547" lon="-1.708510">
<ele>748.5</ele>
<speed>13.9</speed>
<course>267.3</course>
<desc>Speed 13.9 km/h Distance 3.56 km</desc>
<time>2011-09-24T09:48:44.56</time>
<name>811</name>
</trkpt>
<trkpt lat="41.811545" lon="-1.708557">
<ele>748.5</ele>
<speed>13.8</speed>
<course>264.5</course>
<desc>Speed 13.8 km/h Distance 3.57 km</desc>
<time>2011-09-24T09:48:45.56</time>
<name>812</name>
</trkpt>
<trkpt lat="41.811542" lon="-1.708603">
<ele>748.5</ele>
<speed>14.0</speed>
<course>261.5</course>
<desc>Speed 14.0 km/h Distance 3.57 km</desc>
<time>2011-09-24T09:48:46.57</time>
<name>813</name>
</trkpt>
<trkpt lat="41.811537" lon="-1.708648">
<ele>748.0</ele>
<speed>13.5</speed>
<course>264.9</course>
<desc>Speed 13.5 km/h Distance 3.57 km</desc>
<time>2011-09-24T09:48:47.56</time>
<name>814</name>
</trkpt>
<trkpt lat="41.811533" lon="-1.708698">
<ele>748.0</ele>
<speed>14.5</speed>
<course>259.5</course>
<desc>Speed 14.5 km/h Distance 3.58 km</desc>
<time>2011-09-24T09:48:48.56</time>
<name>815</name>
</trkpt>
<trkpt lat="41.811527" lon="-1.708747">
<ele>748.5</ele>
<speed>14.6</speed>
<course>259.1</course>
<desc>Speed 14.6 km/h Distance 3.58 km</desc>
<time>2011-09-24T09:48:49.56</time>
<name>816</name>
</trkpt>
<trkpt lat="41.811520" lon="-1.708793">
<ele>749.0</ele>
<speed>14.3</speed>
<course>241.3</course>
<desc>Speed 14.3 km/h Distance 3.59 km</desc>
<time>2011-09-24T09:48:50.56</time>
<name>817</name>
</trkpt>
<trkpt lat="41.811502" lon="-1.708838">
<ele>749.0</ele>
<speed>15.2</speed>
<course>275.3</course>
<desc>Speed 15.2 km/h Distance 3.59 km</desc>
<time>2011-09-24T09:48:51.56</time>
<name>818</name>
</trkpt>
<trkpt lat="41.811505" lon="-1.708887">
<ele>749.0</ele>
<speed>14.4</speed>
<course>262.1</course>
<desc>Speed 14.4 km/h Distance 3.59 km</desc>
<time>2011-09-24T09:48:52.56</time>
<name>819</name>
</trkpt>
<trkpt lat="41.811500" lon="-1.708935">
<ele>749.5</ele>
<speed>14.4</speed>
<course>256.5</course>
<desc>Speed 14.4 km/h Distance 3.60 km</desc>
<time>2011-09-24T09:48:53.56</time>
<name>820</name>
</trkpt>
<trkpt lat="41.811492" lon="-1.708982">
<ele>749.5</ele>
<speed>14.6</speed>
<course>257.0</course>
<desc>Speed 14.6 km/h Distance 3.60 km</desc>
<time>2011-09-24T09:48:54.56</time>
<name>821</name>
</trkpt>
<trkpt lat="41.811483" lon="-1.709030">
<ele>749.5</ele>
<speed>14.4</speed>
<course>259.2</course>
<desc>Speed 14.4 km/h Distance 3.61 km</desc>
<time>2011-09-24T09:48:55.56</time>
<name>822</name>
</trkpt>
<trkpt lat="41.811477" lon="-1.709077">
<ele>749.5</ele>
<speed>14.3</speed>
<course>256.0</course>
<desc>Speed 14.3 km/h Distance 3.61 km</desc>
<time>2011-09-24T09:48:56.56</time>
<name>823</name>
</trkpt>
<trkpt lat="41.811468" lon="-1.709122">
<ele>749.5</ele>
<speed>14.1</speed>
<course>253.4</course>
<desc>Speed 14.1 km/h Distance 3.61 km</desc>
<time>2011-09-24T09:48:57.56</time>
<name>824</name>
</trkpt>
<trkpt lat="41.811458" lon="-1.709167">
<ele>749.5</ele>
<speed>14.2</speed>
<course>251.5</course>
<desc>Speed 14.2 km/h Distance 3.62 km</desc>
<time>2011-09-24T09:48:58.56</time>
<name>825</name>
</trkpt>
<trkpt lat="41.811447" lon="-1.709213">
<ele>750.0</ele>
<speed>14.4</speed>
<course>248.3</course>
<desc>Speed 14.4 km/h Distance 3.62 km</desc>
<time>2011-09-24T09:48:59.57</time>
<name>826</name>
</trkpt>
<trkpt lat="41.811433" lon="-1.709258">
<ele>750.0</ele>
<speed>14.4</speed>
<course>259.2</course>
<desc>Speed 14.4 km/h Distance 3.63 km</desc>
<time>2011-09-24T09:49:00.56</time>
<name>827</name>
</trkpt>
<trkpt lat="41.811427" lon="-1.709305">
<ele>750.0</ele>
<speed>14.3</speed>
<course>256.5</course>
<desc>Speed 14.3 km/h Distance 3.63 km</desc>
<time>2011-09-24T09:49:01.56</time>
<name>828</name>
</trkpt>
<trkpt lat="41.811418" lon="-1.709352">
<ele>750.0</ele>
<speed>14.2</speed>
<course>256.0</course>
<desc>Speed 14.2 km/h Distance 3.63 km</desc>
<time>2011-09-24T09:49:02.56</time>
<name>829</name>
</trkpt>
<trkpt lat="41.811410" lon="-1.709397">
<ele>750.0</ele>
<speed>14.3</speed>
<course>254.0</course>
<desc>Speed 14.3 km/h Distance 3.64 km</desc>
<time>2011-09-24T09:49:03.55</time>
<name>830</name>
</trkpt>
<trkpt lat="41.811400" lon="-1.709443">
<ele>750.5</ele>
<speed>14.6</speed>
<course>253.4</course>
<desc>Speed 14.6 km/h Distance 3.64 km</desc>
<time>2011-09-24T09:49:04.55</time>
<name>831</name>
</trkpt>
<trkpt lat="41.811390" lon="-1.709488">
<ele>750.5</ele>
<speed>14.4</speed>
<course>250.1</course>
<desc>Speed 14.4 km/h Distance 3.65 km</desc>
<time>2011-09-24T09:49:05.55</time>
<name>832</name>
</trkpt>
<trkpt lat="41.811378" lon="-1.709532">
<ele>750.5</ele>
<speed>14.2</speed>
<course>250.8</course>
<desc>Speed 14.2 km/h Distance 3.65 km</desc>
<time>2011-09-24T09:49:06.55</time>
<name>833</name>
</trkpt>
<trkpt lat="41.811367" lon="-1.709577">
<ele>751.0</ele>
<speed>14.4</speed>
<course>247.6</course>
<desc>Speed 14.4 km/h Distance 3.65 km</desc>
<time>2011-09-24T09:49:07.55</time>
<name>834</name>
</trkpt>
<trkpt lat="41.811353" lon="-1.709620">
<ele>751.0</ele>
<speed>14.1</speed>
<course>248.3</course>
<desc>Speed 14.1 km/h Distance 3.66 km</desc>
<time>2011-09-24T09:49:08.55</time>
<name>835</name>
</trkpt>
<trkpt lat="41.811340" lon="-1.709665">
<ele>751.5</ele>
<speed>14.0</speed>
<course>247.6</course>
<desc>Speed 14.0 km/h Distance 3.66 km</desc>
<time>2011-09-24T09:49:09.55</time>
<name>836</name>
</trkpt>
<trkpt lat="41.811327" lon="-1.709708">
<ele>751.5</ele>
<speed>14.2</speed>
<course>247.6</course>
<desc>Speed 14.2 km/h Distance 3.67 km</desc>
<time>2011-09-24T09:49:10.55</time>
<name>837</name>
</trkpt>
<trkpt lat="41.811313" lon="-1.709752">
<ele>752.0</ele>
<speed>14.4</speed>
<course>248.3</course>
<desc>Speed 14.4 km/h Distance 3.67 km</desc>
<time>2011-09-24T09:49:11.55</time>
<name>838</name>
</trkpt>
<trkpt lat="41.811300" lon="-1.709797">
<ele>752.0</ele>
<speed>14.5</speed>
<course>245.9</course>
<desc>Speed 14.5 km/h Distance 3.67 km</desc>
<time>2011-09-24T09:49:12.55</time>
<name>839</name>
</trkpt>
<trkpt lat="41.811285" lon="-1.709842">
<ele>752.0</ele>
<speed>14.3</speed>
<course>246.8</course>
<desc>Speed 14.3 km/h Distance 3.68 km</desc>
<time>2011-09-24T09:49:13.55</time>
<name>840</name>
</trkpt>
<trkpt lat="41.811272" lon="-1.709883">
<ele>752.5</ele>
<speed>14.0</speed>
<course>248.3</course>
<desc>Speed 14.0 km/h Distance 3.68 km</desc>
<time>2011-09-24T09:49:14.55</time>
<name>841</name>
</trkpt>
<trkpt lat="41.811258" lon="-1.709928">
<ele>752.5</ele>
<speed>14.4</speed>
<course>244.2</course>
<desc>Speed 14.4 km/h Distance 3.69 km</desc>
<time>2011-09-24T09:49:15.55</time>
<name>842</name>
</trkpt>
<trkpt lat="41.811243" lon="-1.709970">
<ele>753.0</ele>
<speed>14.1</speed>
<course>245.1</course>
<desc>Speed 14.1 km/h Distance 3.69 km</desc>
<time>2011-09-24T09:49:16.55</time>
<name>843</name>
</trkpt>
<trkpt lat="41.811228" lon="-1.710013">
<ele>753.0</ele>
<speed>14.2</speed>
<course>247.6</course>
<desc>Speed 14.2 km/h Distance 3.69 km</desc>
<time>2011-09-24T09:49:17.55</time>
<name>844</name>
</trkpt>
<trkpt lat="41.811215" lon="-1.710057">
<ele>753.0</ele>
<speed>14.1</speed>
<course>244.2</course>
<desc>Speed 14.1 km/h Distance 3.70 km</desc>
<time>2011-09-24T09:49:18.55</time>
<name>845</name>
</trkpt>
<trkpt lat="41.811200" lon="-1.710098">
<ele>753.0</ele>
<speed>14.0</speed>
<course>244.2</course>
<desc>Speed 14.0 km/h Distance 3.70 km</desc>
<time>2011-09-24T09:49:19.54</time>
<name>846</name>
</trkpt>
<trkpt lat="41.811185" lon="-1.710140">
<ele>753.5</ele>
<speed>14.1</speed>
<course>240.8</course>
<desc>Speed 14.1 km/h Distance 3.71 km</desc>
<time>2011-09-24T09:49:20.54</time>
<name>847</name>
</trkpt>
<trkpt lat="41.811168" lon="-1.710180">
<ele>753.5</ele>
<speed>14.3</speed>
<course>239.4</course>
<desc>Speed 14.3 km/h Distance 3.71 km</desc>
<time>2011-09-24T09:49:21.55</time>
<name>848</name>
</trkpt>
<trkpt lat="41.811150" lon="-1.710222">
<ele>753.5</ele>
<speed>14.4</speed>
<course>242.7</course>
<desc>Speed 14.4 km/h Distance 3.71 km</desc>
<time>2011-09-24T09:49:22.54</time>
<name>849</name>
</trkpt>
<trkpt lat="41.811133" lon="-1.710265">
<ele>753.5</ele>
<speed>14.3</speed>
<course>248.3</course>
<desc>Speed 14.3 km/h Distance 3.72 km</desc>
<time>2011-09-24T09:49:23.54</time>
<name>850</name>
</trkpt>
<trkpt lat="41.811120" lon="-1.710310">
<ele>754.0</ele>
<speed>14.1</speed>
<course>237.3</course>
<desc>Speed 14.1 km/h Distance 3.72 km</desc>
<time>2011-09-24T09:49:24.54</time>
<name>851</name>
</trkpt>
<trkpt lat="41.811102" lon="-1.710348">
<ele>754.0</ele>
<speed>13.7</speed>
<course>239.4</course>
<desc>Speed 13.7 km/h Distance 3.72 km</desc>
<time>2011-09-24T09:49:25.54</time>
<name>852</name>
</trkpt>
<trkpt lat="41.811083" lon="-1.710390">
<ele>754.0</ele>
<speed>14.3</speed>
<course>242.7</course>
<desc>Speed 14.3 km/h Distance 3.73 km</desc>
<time>2011-09-24T09:49:26.54</time>
<name>853</name>
</trkpt>
<trkpt lat="41.811067" lon="-1.710433">
<ele>754.5</ele>
<speed>14.5</speed>
<course>239.4</course>
<desc>Speed 14.5 km/h Distance 3.73 km</desc>
<time>2011-09-24T09:49:27.54</time>
<name>854</name>
</trkpt>
<trkpt lat="41.811048" lon="-1.710475">
<ele>754.5</ele>
<speed>14.3</speed>
<course>243.3</course>
<desc>Speed 14.3 km/h Distance 3.74 km</desc>
<time>2011-09-24T09:49:28.54</time>
<name>855</name>
</trkpt>
<trkpt lat="41.811033" lon="-1.710515">
<ele>754.5</ele>
<speed>14.0</speed>
<course>240.8</course>
<desc>Speed 14.0 km/h Distance 3.74 km</desc>
<time>2011-09-24T09:49:29.54</time>
<name>856</name>
</trkpt>
<trkpt lat="41.811017" lon="-1.710555">
<ele>754.5</ele>
<speed>13.8</speed>
<course>244.2</course>
<desc>Speed 13.8 km/h Distance 3.74 km</desc>
<time>2011-09-24T09:49:30.54</time>
<name>857</name>
</trkpt>
<trkpt lat="41.811002" lon="-1.710597">
<ele>754.5</ele>
<speed>14.1</speed>
<course>241.8</course>
<desc>Speed 14.1 km/h Distance 3.75 km</desc>
<time>2011-09-24T09:49:31.54</time>
<name>858</name>
</trkpt>
<trkpt lat="41.810985" lon="-1.710638">
<ele>754.5</ele>
<speed>13.9</speed>
<course>244.2</course>
<desc>Speed 13.9 km/h Distance 3.75 km</desc>
<time>2011-09-24T09:49:32.54</time>
<name>859</name>
</trkpt>
<trkpt lat="41.810970" lon="-1.710680">
<ele>755.0</ele>
<speed>13.9</speed>
<course>240.8</course>
<desc>Speed 13.9 km/h Distance 3.76 km</desc>
<time>2011-09-24T09:49:33.54</time>
<name>860</name>
</trkpt>
<trkpt lat="41.810953" lon="-1.710720">
<ele>755.0</ele>
<speed>13.5</speed>
<course>241.8</course>
<desc>Speed 13.5 km/h Distance 3.76 km</desc>
<time>2011-09-24T09:49:34.54</time>
<name>861</name>
</trkpt>
<trkpt lat="41.810937" lon="-1.710762">
<ele>755.0</ele>
<speed>14.1</speed>
<course>240.8</course>
<desc>Speed 14.1 km/h Distance 3.76 km</desc>
<time>2011-09-24T09:49:35.53</time>
<name>862</name>
</trkpt>
<trkpt lat="41.810920" lon="-1.710802">
<ele>754.5</ele>
<speed>13.6</speed>
<course>240.8</course>
<desc>Speed 13.6 km/h Distance 3.77 km</desc>
<time>2011-09-24T09:49:36.54</time>
<name>863</name>
</trkpt>
<trkpt lat="41.810903" lon="-1.710842">
<ele>755.0</ele>
<speed>13.8</speed>
<course>238.4</course>
<desc>Speed 13.8 km/h Distance 3.77 km</desc>
<time>2011-09-24T09:49:37.53</time>
<name>864</name>
</trkpt>
<trkpt lat="41.810885" lon="-1.710882">
<ele>755.0</ele>
<speed>14.2</speed>
<course>239.4</course>
<desc>Speed 14.2 km/h Distance 3.78 km</desc>
<time>2011-09-24T09:49:38.53</time>
<name>865</name>
</trkpt>
<trkpt lat="41.810867" lon="-1.710923">
<ele>755.5</ele>
<speed>14.6</speed>
<course>241.3</course>
<desc>Speed 14.6 km/h Distance 3.78 km</desc>
<time>2011-09-24T09:49:39.53</time>
<name>866</name>
</trkpt>
<trkpt lat="41.810848" lon="-1.710968">
<ele>756.0</ele>
<speed>15.0</speed>
<course>242.7</course>
<desc>Speed 15.0 km/h Distance 3.78 km</desc>
<time>2011-09-24T09:49:40.53</time>
<name>867</name>
</trkpt>
<trkpt lat="41.810832" lon="-1.711012">
<ele>756.0</ele>
<speed>14.8</speed>
<course>241.8</course>
<desc>Speed 14.8 km/h Distance 3.79 km</desc>
<time>2011-09-24T09:49:41.53</time>
<name>868</name>
</trkpt>
<trkpt lat="41.810815" lon="-1.711053">
<ele>756.5</ele>
<speed>14.1</speed>
<course>242.7</course>
<desc>Speed 14.1 km/h Distance 3.79 km</desc>
<time>2011-09-24T09:49:42.53</time>
<name>869</name>
</trkpt>
<trkpt lat="41.810798" lon="-1.711097">
<ele>756.5</ele>
<speed>14.2</speed>
<course>239.7</course>
<desc>Speed 14.2 km/h Distance 3.80 km</desc>
<time>2011-09-24T09:49:43.54</time>
<name>870</name>
</trkpt>
<trkpt lat="41.810782" lon="-1.711135">
<ele>757.0</ele>
<speed>12.9</speed>
<course>240.5</course>
<desc>Speed 12.9 km/h Distance 3.80 km</desc>
<time>2011-09-24T09:49:44.53</time>
<name>871</name>
</trkpt>
<trkpt lat="41.810768" lon="-1.711167">
<ele>757.0</ele>
<speed>11.1</speed>
<course>240.8</course>
<desc>Speed 11.1 km/h Distance 3.80 km</desc>
<time>2011-09-24T09:49:45.52</time>
<name>872</name>
</trkpt>
<trkpt lat="41.810752" lon="-1.711207">
<ele>757.5</ele>
<speed>13.3</speed>
<course>242.2</course>
<desc>Speed 13.3 km/h Distance 3.81 km</desc>
<time>2011-09-24T09:49:46.52</time>
<name>873</name>
</trkpt>
<trkpt lat="41.810733" lon="-1.711253">
<ele>757.5</ele>
<speed>16.5</speed>
<course>239.2</course>
<desc>Speed 16.5 km/h Distance 3.81 km</desc>
<time>2011-09-24T09:49:47.54</time>
<name>874</name>
</trkpt>
<trkpt lat="41.810713" lon="-1.711298">
<ele>757.0</ele>
<speed>16.1</speed>
<course>241.8</course>
<desc>Speed 16.1 km/h Distance 3.81 km</desc>
<time>2011-09-24T09:49:48.53</time>
<name>875</name>
</trkpt>
<trkpt lat="41.810697" lon="-1.711340">
<ele>757.0</ele>
<speed>15.0</speed>
<course>241.8</course>
<desc>Speed 15.0 km/h Distance 3.82 km</desc>
<time>2011-09-24T09:49:49.52</time>
<name>876</name>
</trkpt>
<trkpt lat="41.810680" lon="-1.711382">
<ele>757.5</ele>
<speed>14.5</speed>
<course>249.0</course>
<desc>Speed 14.5 km/h Distance 3.82 km</desc>
<time>2011-09-24T09:49:50.52</time>
<name>877</name>
</trkpt>
<trkpt lat="41.810670" lon="-1.711417">
<ele>755.5</ele>
<speed>11.3</speed>
<course>235.1</course>
<desc>Speed 11.3 km/h Distance 3.83 km</desc>
<time>2011-09-24T09:49:51.53</time>
<name>878</name>
</trkpt>
<trkpt lat="41.810648" lon="-1.711458">
<ele>756.5</ele>
<speed>15.4</speed>
<course>237.3</course>
<desc>Speed 15.4 km/h Distance 3.83 km</desc>
<time>2011-09-24T09:49:52.54</time>
<name>879</name>
</trkpt>
<trkpt lat="41.810630" lon="-1.711497">
<ele>756.5</ele>
<speed>13.4</speed>
<course>243.3</course>
<desc>Speed 13.4 km/h Distance 3.83 km</desc>
<time>2011-09-24T09:49:53.53</time>
<name>880</name>
</trkpt>
<trkpt lat="41.810615" lon="-1.711537">
<ele>756.5</ele>
<speed>13.4</speed>
<course>239.8</course>
<desc>Speed 13.4 km/h Distance 3.84 km</desc>
<time>2011-09-24T09:49:54.52</time>
<name>881</name>
</trkpt>
<trkpt lat="41.810598" lon="-1.711575">
<ele>756.5</ele>
<speed>13.1</speed>
<course>232.5</course>
<desc>Speed 13.1 km/h Distance 3.84 km</desc>
<time>2011-09-24T09:49:55.52</time>
<name>882</name>
</trkpt>
<trkpt lat="41.810578" lon="-1.711610">
<ele>756.0</ele>
<speed>13.1</speed>
<course>289.7</course>
<desc>Speed 13.1 km/h Distance 3.84 km</desc>
<time>2011-09-24T09:49:56.53</time>
<name>883</name>
</trkpt>
<trkpt lat="41.810592" lon="-1.711660">
<ele>755.0</ele>
<speed>15.2</speed>
<course>275.7</course>
<desc>Speed 15.2 km/h Distance 3.85 km</desc>
<time>2011-09-24T09:49:57.52</time>
<name>884</name>
</trkpt>
<trkpt lat="41.810595" lon="-1.711705">
<ele>754.0</ele>
<speed>13.5</speed>
<course>278.2</course>
<desc>Speed 13.5 km/h Distance 3.85 km</desc>
<time>2011-09-24T09:49:58.52</time>
<name>885</name>
</trkpt>
<trkpt lat="41.810600" lon="-1.711752">
<ele>753.0</ele>
<speed>13.6</speed>
<course>261.2</course>
<desc>Speed 13.6 km/h Distance 3.86 km</desc>
<time>2011-09-24T09:49:59.52</time>
<name>886</name>
</trkpt>
<trkpt lat="41.810595" lon="-1.711795">
<ele>752.5</ele>
<speed>12.9</speed>
<course>239.7</course>
<desc>Speed 12.9 km/h Distance 3.86 km</desc>
<time>2011-09-24T09:50:00.53</time>
<name>887</name>
</trkpt>
<trkpt lat="41.810578" lon="-1.711833">
<ele>752.5</ele>
<speed>13.3</speed>
<course>237.2</course>
<desc>Speed 13.3 km/h Distance 3.86 km</desc>
<time>2011-09-24T09:50:01.52</time>
<name>888</name>
</trkpt>
<trkpt lat="41.810558" lon="-1.711875">
<ele>753.0</ele>
<speed>14.2</speed>
<course>239.5</course>
<desc>Speed 14.2 km/h Distance 3.87 km</desc>
<time>2011-09-24T09:50:02.52</time>
<name>889</name>
</trkpt>
<trkpt lat="41.810540" lon="-1.711917">
<ele>753.5</ele>
<speed>14.0</speed>
<course>247.6</course>
<desc>Speed 14.0 km/h Distance 3.87 km</desc>
<time>2011-09-24T09:50:03.52</time>
<name>890</name>
</trkpt>
<trkpt lat="41.810527" lon="-1.711960">
<ele>754.5</ele>
<speed>14.0</speed>
<course>238.4</course>
<desc>Speed 14.0 km/h Distance 3.88 km</desc>
<time>2011-09-24T09:50:04.51</time>
<name>891</name>
</trkpt>
<trkpt lat="41.810508" lon="-1.712000">
<ele>755.0</ele>
<speed>13.7</speed>
<course>236.2</course>
<desc>Speed 13.7 km/h Distance 3.88 km</desc>
<time>2011-09-24T09:50:05.51</time>
<name>892</name>
</trkpt>
<trkpt lat="41.810488" lon="-1.712040">
<ele>755.5</ele>
<speed>13.9</speed>
<course>231.6</course>
<desc>Speed 13.9 km/h Distance 3.88 km</desc>
<time>2011-09-24T09:50:06.52</time>
<name>893</name>
</trkpt>
<trkpt lat="41.810467" lon="-1.712077">
<ele>756.0</ele>
<speed>13.5</speed>
<course>237.3</course>
<desc>Speed 13.5 km/h Distance 3.89 km</desc>
<time>2011-09-24T09:50:07.52</time>
<name>894</name>
</trkpt>
<trkpt lat="41.810448" lon="-1.712115">
<ele>756.5</ele>
<speed>13.4</speed>
<course>238.4</course>
<desc>Speed 13.4 km/h Distance 3.89 km</desc>
<time>2011-09-24T09:50:08.52</time>
<name>895</name>
</trkpt>
<trkpt lat="41.810430" lon="-1.712155">
<ele>757.0</ele>
<speed>13.4</speed>
<course>229.5</course>
<desc>Speed 13.4 km/h Distance 3.90 km</desc>
<time>2011-09-24T09:50:09.51</time>
<name>896</name>
</trkpt>
<trkpt lat="41.810407" lon="-1.712192">
<ele>757.5</ele>
<speed>14.1</speed>
<course>237.3</course>
<desc>Speed 14.1 km/h Distance 3.90 km</desc>
<time>2011-09-24T09:50:10.51</time>
<name>897</name>
</trkpt>
<trkpt lat="41.810388" lon="-1.712230">
<ele>758.0</ele>
<speed>13.1</speed>
<course>236.1</course>
<desc>Speed 13.1 km/h Distance 3.90 km</desc>
<time>2011-09-24T09:50:11.51</time>
<name>898</name>
</trkpt>
<trkpt lat="41.810370" lon="-1.712267">
<ele>758.0</ele>
<speed>13.0</speed>
<course>239.8</course>
<desc>Speed 13.0 km/h Distance 3.91 km</desc>
<time>2011-09-24T09:50:12.51</time>
<name>899</name>
</trkpt>
<trkpt lat="41.810353" lon="-1.712305">
<ele>758.0</ele>
<speed>13.1</speed>
<course>237.4</course>
<desc>Speed 13.1 km/h Distance 3.91 km</desc>
<time>2011-09-24T09:50:13.51</time>
<name>900</name>
</trkpt>
<trkpt lat="41.810337" lon="-1.712340">
<ele>758.0</ele>
<speed>11.8</speed>
<course>236.1</course>
<desc>Speed 11.8 km/h Distance 3.91 km</desc>
<time>2011-09-24T09:50:14.51</time>
<name>901</name>
</trkpt>
<trkpt lat="41.810317" lon="-1.712380">
<ele>758.5</ele>
<speed>14.0</speed>
<course>245.9</course>
<desc>Speed 14.0 km/h Distance 3.92 km</desc>
<time>2011-09-24T09:50:15.51</time>
<name>902</name>
</trkpt>
<trkpt lat="41.810303" lon="-1.712420">
<ele>759.5</ele>
<speed>12.8</speed>
<course>235.0</course>
<desc>Speed 12.8 km/h Distance 3.92 km</desc>
<time>2011-09-24T09:50:16.51</time>
<name>903</name>
</trkpt>
<trkpt lat="41.810283" lon="-1.712458">
<ele>760.0</ele>
<speed>13.6</speed>
<course>236.1</course>
<desc>Speed 13.6 km/h Distance 3.93 km</desc>
<time>2011-09-24T09:50:17.51</time>
<name>904</name>
</trkpt>
<trkpt lat="41.810263" lon="-1.712498">
<ele>760.0</ele>
<speed>13.8</speed>
<course>238.4</course>
<desc>Speed 13.8 km/h Distance 3.93 km</desc>
<time>2011-09-24T09:50:18.51</time>
<name>905</name>
</trkpt>
<trkpt lat="41.810245" lon="-1.712538">
<ele>760.5</ele>
<speed>13.6</speed>
<course>240.8</course>
<desc>Speed 13.6 km/h Distance 3.93 km</desc>
<time>2011-09-24T09:50:19.50</time>
<name>906</name>
</trkpt>
<trkpt lat="41.810228" lon="-1.712578">
<ele>761.0</ele>
<speed>13.6</speed>
<course>241.8</course>
<desc>Speed 13.6 km/h Distance 3.94 km</desc>
<time>2011-09-24T09:50:20.50</time>
<name>907</name>
</trkpt>
<trkpt lat="41.810212" lon="-1.712620">
<ele>761.5</ele>
<speed>13.3</speed>
<course>244.2</course>
<desc>Speed 13.3 km/h Distance 3.94 km</desc>
<time>2011-09-24T09:50:21.50</time>
<name>908</name>
</trkpt>
<trkpt lat="41.810197" lon="-1.712662">
<ele>763.0</ele>
<speed>13.8</speed>
<course>237.3</course>
<desc>Speed 13.8 km/h Distance 3.95 km</desc>
<time>2011-09-24T09:50:22.50</time>
<name>909</name>
</trkpt>
<trkpt lat="41.810178" lon="-1.712700">
<ele>763.5</ele>
<speed>13.2</speed>
<course>237.3</course>
<desc>Speed 13.2 km/h Distance 3.95 km</desc>
<time>2011-09-24T09:50:23.50</time>
<name>910</name>
</trkpt>
<trkpt lat="41.810160" lon="-1.712738">
<ele>764.0</ele>
<speed>13.4</speed>
<course>239.7</course>
<desc>Speed 13.4 km/h Distance 3.95 km</desc>
<time>2011-09-24T09:50:24.49</time>
<name>911</name>
</trkpt>
<trkpt lat="41.810143" lon="-1.712777">
<ele>764.0</ele>
<speed>13.6</speed>
<course>231.6</course>
<desc>Speed 13.6 km/h Distance 3.96 km</desc>
<time>2011-09-24T09:50:25.49</time>
<name>912</name>
</trkpt>
<trkpt lat="41.810122" lon="-1.712813">
<ele>764.5</ele>
<speed>13.5</speed>
<course>228.2</course>
<desc>Speed 13.5 km/h Distance 3.96 km</desc>
<time>2011-09-24T09:50:26.50</time>
<name>913</name>
</trkpt>
<trkpt lat="41.810098" lon="-1.712848">
<ele>765.0</ele>
<speed>14.0</speed>
<course>238.4</course>
<desc>Speed 14.0 km/h Distance 3.96 km</desc>
<time>2011-09-24T09:50:27.49</time>
<name>914</name>
</trkpt>
<trkpt lat="41.810080" lon="-1.712888">
<ele>765.0</ele>
<speed>13.7</speed>
<course>237.3</course>
<desc>Speed 13.7 km/h Distance 3.97 km</desc>
<time>2011-09-24T09:50:28.49</time>
<name>915</name>
</trkpt>
<trkpt lat="41.810062" lon="-1.712927">
<ele>765.0</ele>
<speed>13.4</speed>
<course>237.2</course>
<desc>Speed 13.4 km/h Distance 3.97 km</desc>
<time>2011-09-24T09:50:29.49</time>
<name>916</name>
</trkpt>
<trkpt lat="41.810042" lon="-1.712968">
<ele>765.5</ele>
<speed>14.5</speed>
<course>239.4</course>
<desc>Speed 14.5 km/h Distance 3.98 km</desc>
<time>2011-09-24T09:50:30.49</time>
<name>917</name>
</trkpt>
<trkpt lat="41.810023" lon="-1.713010">
<ele>766.0</ele>
<speed>13.9</speed>
<course>244.2</course>
<desc>Speed 13.9 km/h Distance 3.98 km</desc>
<time>2011-09-24T09:50:31.49</time>
<name>918</name>
</trkpt>
<trkpt lat="41.810008" lon="-1.713052">
<ele>766.5</ele>
<speed>13.6</speed>
<course>246.8</course>
<desc>Speed 13.6 km/h Distance 3.98 km</desc>
<time>2011-09-24T09:50:32.49</time>
<name>919</name>
</trkpt>
<trkpt lat="41.809995" lon="-1.713093">
<ele>766.5</ele>
<speed>13.3</speed>
<course>237.3</course>
<desc>Speed 13.3 km/h Distance 3.99 km</desc>
<time>2011-09-24T09:50:33.49</time>
<name>920</name>
</trkpt>
<trkpt lat="41.809977" lon="-1.713132">
<ele>766.5</ele>
<speed>13.6</speed>
<course>238.4</course>
<desc>Speed 13.6 km/h Distance 3.99 km</desc>
<time>2011-09-24T09:50:34.49</time>
<name>921</name>
</trkpt>
<trkpt lat="41.809958" lon="-1.713172">
<ele>767.0</ele>
<speed>13.7</speed>
<course>243.3</course>
<desc>Speed 13.7 km/h Distance 4.00 km</desc>
<time>2011-09-24T09:50:35.48</time>
<name>922</name>
</trkpt>
<trkpt lat="41.809943" lon="-1.713212">
<ele>766.5</ele>
<speed>13.0</speed>
<course>259.5</course>
<desc>Speed 13.0 km/h Distance 4.00 km</desc>
<time>2011-09-24T09:50:36.49</time>
<name>923</name>
</trkpt>
<trkpt lat="41.809937" lon="-1.713260">
<ele>766.5</ele>
<speed>14.2</speed>
<course>246.8</course>
<desc>Speed 14.2 km/h Distance 4.00 km</desc>
<time>2011-09-24T09:50:37.49</time>
<name>924</name>
</trkpt>
<trkpt lat="41.809923" lon="-1.713302">
<ele>766.5</ele>
<speed>13.6</speed>
<course>250.1</course>
<desc>Speed 13.6 km/h Distance 4.01 km</desc>
<time>2011-09-24T09:50:38.49</time>
<name>925</name>
</trkpt>
<trkpt lat="41.809912" lon="-1.713345">
<ele>766.5</ele>
<speed>13.5</speed>
<course>234.0</course>
<desc>Speed 13.5 km/h Distance 4.01 km</desc>
<time>2011-09-24T09:50:39.48</time>
<name>926</name>
</trkpt>
<trkpt lat="41.809890" lon="-1.713385">
<ele>766.5</ele>
<speed>14.4</speed>
<course>232.8</course>
<desc>Speed 14.4 km/h Distance 4.01 km</desc>
<time>2011-09-24T09:50:40.48</time>
<name>927</name>
</trkpt>
<trkpt lat="41.809868" lon="-1.713423">
<ele>767.0</ele>
<speed>14.1</speed>
<course>257.9</course>
<desc>Speed 14.1 km/h Distance 4.02 km</desc>
<time>2011-09-24T09:50:41.48</time>
<name>928</name>
</trkpt>
<trkpt lat="41.809862" lon="-1.713465">
<ele>766.5</ele>
<speed>12.5</speed>
<course>239.5</course>
<desc>Speed 12.5 km/h Distance 4.02 km</desc>
<time>2011-09-24T09:50:42.48</time>
<name>929</name>
</trkpt>
<trkpt lat="41.809843" lon="-1.713507">
<ele>766.5</ele>
<speed>13.8</speed>
<course>234.0</course>
<desc>Speed 13.8 km/h Distance 4.03 km</desc>
<time>2011-09-24T09:50:43.48</time>
<name>930</name>
</trkpt>
<trkpt lat="41.809822" lon="-1.713547">
<ele>767.0</ele>
<speed>14.9</speed>
<course>234.0</course>
<desc>Speed 14.9 km/h Distance 4.03 km</desc>
<time>2011-09-24T09:50:44.48</time>
<name>931</name>
</trkpt>
<trkpt lat="41.809800" lon="-1.713587">
<ele>767.5</ele>
<speed>14.8</speed>
<course>236.1</course>
<desc>Speed 14.8 km/h Distance 4.03 km</desc>
<time>2011-09-24T09:50:45.48</time>
<name>932</name>
</trkpt>
<trkpt lat="41.809780" lon="-1.713627">
<ele>767.5</ele>
<speed>13.8</speed>
<course>226.2</course>
<desc>Speed 13.8 km/h Distance 4.04 km</desc>
<time>2011-09-24T09:50:46.48</time>
<name>933</name>
</trkpt>
<trkpt lat="41.809755" lon="-1.713662">
<ele>767.5</ele>
<speed>14.1</speed>
<course>229.5</course>
<desc>Speed 14.1 km/h Distance 4.04 km</desc>
<time>2011-09-24T09:50:47.48</time>
<name>934</name>
</trkpt>
<trkpt lat="41.809732" lon="-1.713698">
<ele>768.0</ele>
<speed>14.0</speed>
<course>244.2</course>
<desc>Speed 14.0 km/h Distance 4.05 km</desc>
<time>2011-09-24T09:50:48.48</time>
<name>935</name>
</trkpt>
<trkpt lat="41.809717" lon="-1.713740">
<ele>767.5</ele>
<speed>13.5</speed>
<course>233.8</course>
<desc>Speed 13.5 km/h Distance 4.05 km</desc>
<time>2011-09-24T09:50:49.47</time>
<name>936</name>
</trkpt>
<trkpt lat="41.809697" lon="-1.713777">
<ele>767.5</ele>
<speed>13.7</speed>
<course>227.5</course>
<desc>Speed 13.7 km/h Distance 4.05 km</desc>
<time>2011-09-24T09:50:50.48</time>
<name>937</name>
</trkpt>
<trkpt lat="41.809672" lon="-1.713813">
<ele>768.0</ele>
<speed>14.5</speed>
<course>228.9</course>
<desc>Speed 14.5 km/h Distance 4.06 km</desc>
<time>2011-09-24T09:50:51.48</time>
<name>938</name>
</trkpt>
<trkpt lat="41.809650" lon="-1.713847">
<ele>767.5</ele>
<speed>13.5</speed>
<course>227.5</course>
<desc>Speed 13.5 km/h Distance 4.06 km</desc>
<time>2011-09-24T09:50:52.48</time>
<name>939</name>
</trkpt>
<trkpt lat="41.809625" lon="-1.713883">
<ele>767.5</ele>
<speed>14.4</speed>
<course>224.4</course>
<desc>Speed 14.4 km/h Distance 4.07 km</desc>
<time>2011-09-24T09:50:53.47</time>
<name>940</name>
</trkpt>
<trkpt lat="41.809598" lon="-1.713918">
<ele>768.0</ele>
<speed>14.9</speed>
<course>224.4</course>
<desc>Speed 14.9 km/h Distance 4.07 km</desc>
<time>2011-09-24T09:50:54.47</time>
<name>941</name>
</trkpt>
<trkpt lat="41.809572" lon="-1.713953">
<ele>768.5</ele>
<speed>14.6</speed>
<course>223.4</course>
<desc>Speed 14.6 km/h Distance 4.07 km</desc>
<time>2011-09-24T09:50:55.48</time>
<name>942</name>
</trkpt>
<trkpt lat="41.809547" lon="-1.713985">
<ele>768.5</ele>
<speed>13.8</speed>
<course>224.4</course>
<desc>Speed 13.8 km/h Distance 4.08 km</desc>
<time>2011-09-24T09:50:56.48</time>
<name>943</name>
</trkpt>
<trkpt lat="41.809520" lon="-1.714020">
<ele>768.5</ele>
<speed>14.4</speed>
<course>223.0</course>
<desc>Speed 14.4 km/h Distance 4.08 km</desc>
<time>2011-09-24T09:50:57.47</time>
<name>944</name>
</trkpt>
<trkpt lat="41.809493" lon="-1.714053">
<ele>769.0</ele>
<speed>14.3</speed>
<course>224.8</course>
<desc>Speed 14.3 km/h Distance 4.09 km</desc>
<time>2011-09-24T09:50:58.47</time>
<name>945</name>
</trkpt>
<trkpt lat="41.809468" lon="-1.714087">
<ele>768.5</ele>
<speed>14.5</speed>
<course>229.5</course>
<desc>Speed 14.5 km/h Distance 4.09 km</desc>
<time>2011-09-24T09:50:59.47</time>
<name>946</name>
</trkpt>
<trkpt lat="41.809445" lon="-1.714123">
<ele>768.5</ele>
<speed>14.7</speed>
<course>224.8</course>
<desc>Speed 14.7 km/h Distance 4.09 km</desc>
<time>2011-09-24T09:51:00.47</time>
<name>947</name>
</trkpt>
<trkpt lat="41.809420" lon="-1.714157">
<ele>768.5</ele>
<speed>14.5</speed>
<course>223.4</course>
<desc>Speed 14.5 km/h Distance 4.10 km</desc>
<time>2011-09-24T09:51:01.47</time>
<name>948</name>
</trkpt>
<trkpt lat="41.809395" lon="-1.714188">
<ele>768.5</ele>
<speed>14.5</speed>
<course>224.4</course>
<desc>Speed 14.5 km/h Distance 4.10 km</desc>
<time>2011-09-24T09:51:02.47</time>
<name>949</name>
</trkpt>
<trkpt lat="41.809368" lon="-1.714223">
<ele>768.5</ele>
<speed>14.6</speed>
<course>220.0</course>
<desc>Speed 14.6 km/h Distance 4.11 km</desc>
<time>2011-09-24T09:51:03.47</time>
<name>950</name>
</trkpt>
<trkpt lat="41.809342" lon="-1.714253">
<ele>768.5</ele>
<speed>14.4</speed>
<course>226.2</course>
<desc>Speed 14.4 km/h Distance 4.11 km</desc>
<time>2011-09-24T09:51:04.47</time>
<name>951</name>
</trkpt>
<trkpt lat="41.809317" lon="-1.714288">
<ele>768.5</ele>
<speed>14.5</speed>
<course>224.8</course>
<desc>Speed 14.5 km/h Distance 4.11 km</desc>
<time>2011-09-24T09:51:05.47</time>
<name>952</name>
</trkpt>
<trkpt lat="41.809292" lon="-1.714322">
<ele>768.5</ele>
<speed>14.7</speed>
<course>231.6</course>
<desc>Speed 14.7 km/h Distance 4.12 km</desc>
<time>2011-09-24T09:51:06.46</time>
<name>953</name>
</trkpt>
<trkpt lat="41.809270" lon="-1.714358">
<ele>768.5</ele>
<speed>14.4</speed>
<course>232.8</course>
<desc>Speed 14.4 km/h Distance 4.12 km</desc>
<time>2011-09-24T09:51:07.46</time>
<name>954</name>
</trkpt>
<trkpt lat="41.809248" lon="-1.714397">
<ele>768.5</ele>
<speed>14.5</speed>
<course>226.2</course>
<desc>Speed 14.5 km/h Distance 4.13 km</desc>
<time>2011-09-24T09:51:08.46</time>
<name>955</name>
</trkpt>
<trkpt lat="41.809223" lon="-1.714432">
<ele>769.0</ele>
<speed>14.7</speed>
<course>230.8</course>
<desc>Speed 14.7 km/h Distance 4.13 km</desc>
<time>2011-09-24T09:51:09.46</time>
<name>956</name>
</trkpt>
<trkpt lat="41.809200" lon="-1.714470">
<ele>769.0</ele>
<speed>14.7</speed>
<course>230.8</course>
<desc>Speed 14.7 km/h Distance 4.13 km</desc>
<time>2011-09-24T09:51:10.46</time>
<name>957</name>
</trkpt>
<trkpt lat="41.809177" lon="-1.714508">
<ele>769.0</ele>
<speed>14.5</speed>
<course>236.2</course>
<desc>Speed 14.5 km/h Distance 4.14 km</desc>
<time>2011-09-24T09:51:11.46</time>
<name>958</name>
</trkpt>
<trkpt lat="41.809155" lon="-1.714552">
<ele>769.5</ele>
<speed>15.8</speed>
<course>236.1</course>
<desc>Speed 15.8 km/h Distance 4.14 km</desc>
<time>2011-09-24T09:51:12.47</time>
<name>959</name>
</trkpt>
<trkpt lat="41.809137" lon="-1.714588">
<ele>769.0</ele>
<speed>13.0</speed>
<course>239.4</course>
<desc>Speed 13.0 km/h Distance 4.15 km</desc>
<time>2011-09-24T09:51:13.46</time>
<name>960</name>
</trkpt>
<trkpt lat="41.809118" lon="-1.714630">
<ele>769.0</ele>
<speed>14.8</speed>
<course>235.1</course>
<desc>Speed 14.8 km/h Distance 4.15 km</desc>
<time>2011-09-24T09:51:14.46</time>
<name>961</name>
</trkpt>
<trkpt lat="41.809097" lon="-1.714672">
<ele>769.0</ele>
<speed>15.0</speed>
<course>238.2</course>
<desc>Speed 15.0 km/h Distance 4.15 km</desc>
<time>2011-09-24T09:51:15.46</time>
<name>962</name>
</trkpt>
<trkpt lat="41.809077" lon="-1.714715">
<ele>769.0</ele>
<speed>15.0</speed>
<course>243.6</course>
<desc>Speed 15.0 km/h Distance 4.16 km</desc>
<time>2011-09-24T09:51:16.46</time>
<name>963</name>
</trkpt>
<trkpt lat="41.809060" lon="-1.714760">
<ele>769.5</ele>
<speed>14.7</speed>
<course>238.2</course>
<desc>Speed 14.7 km/h Distance 4.16 km</desc>
<time>2011-09-24T09:51:17.46</time>
<name>964</name>
</trkpt>
<trkpt lat="41.809040" lon="-1.714803">
<ele>769.5</ele>
<speed>15.1</speed>
<course>244.4</course>
<desc>Speed 15.1 km/h Distance 4.17 km</desc>
<time>2011-09-24T09:51:18.46</time>
<name>965</name>
</trkpt>
<trkpt lat="41.809023" lon="-1.714850">
<ele>769.5</ele>
<speed>15.6</speed>
<course>248.1</course>
<desc>Speed 15.6 km/h Distance 4.17 km</desc>
<time>2011-09-24T09:51:19.46</time>
<name>966</name>
</trkpt>
<trkpt lat="41.809008" lon="-1.714900">
<ele>769.5</ele>
<speed>15.7</speed>
<course>252.6</course>
<desc>Speed 15.7 km/h Distance 4.18 km</desc>
<time>2011-09-24T09:51:20.45</time>
<name>967</name>
</trkpt>
<trkpt lat="41.808997" lon="-1.714950">
<ele>769.5</ele>
<speed>15.9</speed>
<course>252.6</course>
<desc>Speed 15.9 km/h Distance 4.18 km</desc>
<time>2011-09-24T09:51:21.45</time>
<name>968</name>
</trkpt>
<trkpt lat="41.808985" lon="-1.715000">
<ele>769.5</ele>
<speed>15.6</speed>
<course>252.6</course>
<desc>Speed 15.6 km/h Distance 4.18 km</desc>
<time>2011-09-24T09:51:22.45</time>
<name>969</name>
</trkpt>
<trkpt lat="41.808973" lon="-1.715050">
<ele>769.5</ele>
<speed>15.4</speed>
<course>255.4</course>
<desc>Speed 15.4 km/h Distance 4.19 km</desc>
<time>2011-09-24T09:51:23.45</time>
<name>970</name>
</trkpt>
<trkpt lat="41.808963" lon="-1.715102">
<ele>770.0</ele>
<speed>15.2</speed>
<course>252.1</course>
<desc>Speed 15.2 km/h Distance 4.19 km</desc>
<time>2011-09-24T09:51:24.48</time>
<name>971</name>
</trkpt>
<trkpt lat="41.808952" lon="-1.715150">
<ele>770.0</ele>
<speed>14.7</speed>
<course>255.0</course>
<desc>Speed 14.7 km/h Distance 4.20 km</desc>
<time>2011-09-24T09:51:25.45</time>
<name>972</name>
</trkpt>
<trkpt lat="41.808942" lon="-1.715200">
<ele>770.0</ele>
<speed>15.0</speed>
<course>254.5</course>
<desc>Speed 15.0 km/h Distance 4.20 km</desc>
<time>2011-09-24T09:51:26.45</time>
<name>973</name>
</trkpt>
<trkpt lat="41.808932" lon="-1.715248">
<ele>770.5</ele>
<speed>14.8</speed>
<course>259.1</course>
<desc>Speed 14.8 km/h Distance 4.21 km</desc>
<time>2011-09-24T09:51:27.45</time>
<name>974</name>
</trkpt>
<trkpt lat="41.808925" lon="-1.715295">
<ele>771.0</ele>
<speed>14.5</speed>
<course>259.5</course>
<desc>Speed 14.5 km/h Distance 4.21 km</desc>
<time>2011-09-24T09:51:28.45</time>
<name>975</name>
</trkpt>
<trkpt lat="41.808918" lon="-1.715343">
<ele>771.0</ele>
<speed>14.4</speed>
<course>254.0</course>
<desc>Speed 14.4 km/h Distance 4.21 km</desc>
<time>2011-09-24T09:51:29.45</time>
<name>976</name>
</trkpt>
<trkpt lat="41.808908" lon="-1.715390">
<ele>771.5</ele>
<speed>14.3</speed>
<course>256.5</course>
<desc>Speed 14.3 km/h Distance 4.22 km</desc>
<time>2011-09-24T09:51:30.45</time>
<name>977</name>
</trkpt>
<trkpt lat="41.808900" lon="-1.715437">
<ele>771.5</ele>
<speed>14.1</speed>
<course>257.0</course>
<desc>Speed 14.1 km/h Distance 4.22 km</desc>
<time>2011-09-24T09:51:31.44</time>
<name>978</name>
</trkpt>
<trkpt lat="41.808892" lon="-1.715485">
<ele>771.5</ele>
<speed>14.3</speed>
<course>259.5</course>
<desc>Speed 14.3 km/h Distance 4.23 km</desc>
<time>2011-09-24T09:51:32.44</time>
<name>979</name>
</trkpt>
<trkpt lat="41.808885" lon="-1.715533">
<ele>772.0</ele>
<speed>14.4</speed>
<course>259.5</course>
<desc>Speed 14.4 km/h Distance 4.23 km</desc>
<time>2011-09-24T09:51:33.44</time>
<name>980</name>
</trkpt>
<trkpt lat="41.808878" lon="-1.715582">
<ele>772.5</ele>
<speed>14.7</speed>
<course>257.0</course>
<desc>Speed 14.7 km/h Distance 4.23 km</desc>
<time>2011-09-24T09:51:34.44</time>
<name>981</name>
</trkpt>
<trkpt lat="41.808870" lon="-1.715630">
<ele>772.5</ele>
<speed>14.5</speed>
<course>259.9</course>
<desc>Speed 14.5 km/h Distance 4.24 km</desc>
<time>2011-09-24T09:51:35.44</time>
<name>982</name>
</trkpt>
<trkpt lat="41.808863" lon="-1.715680">
<ele>772.5</ele>
<speed>14.9</speed>
<course>259.9</course>
<desc>Speed 14.9 km/h Distance 4.24 km</desc>
<time>2011-09-24T09:51:36.44</time>
<name>983</name>
</trkpt>
<trkpt lat="41.808857" lon="-1.715730">
<ele>773.0</ele>
<speed>14.5</speed>
<course>254.0</course>
<desc>Speed 14.5 km/h Distance 4.25 km</desc>
<time>2011-09-24T09:51:37.44</time>
<name>984</name>
</trkpt>
<trkpt lat="41.808847" lon="-1.715777">
<ele>773.0</ele>
<speed>14.3</speed>
<course>251.5</course>
<desc>Speed 14.3 km/h Distance 4.25 km</desc>
<time>2011-09-24T09:51:38.44</time>
<name>985</name>
</trkpt>
<trkpt lat="41.808835" lon="-1.715823">
<ele>773.5</ele>
<speed>14.4</speed>
<course>258.8</course>
<desc>Speed 14.4 km/h Distance 4.25 km</desc>
<time>2011-09-24T09:51:39.45</time>
<name>986</name>
</trkpt>
<trkpt lat="41.808828" lon="-1.715868">
<ele>773.0</ele>
<speed>13.9</speed>
<course>259.1</course>
<desc>Speed 13.9 km/h Distance 4.26 km</desc>
<time>2011-09-24T09:51:40.44</time>
<name>987</name>
</trkpt>
<trkpt lat="41.808822" lon="-1.715915">
<ele>773.0</ele>
<speed>13.7</speed>
<course>252.1</course>
<desc>Speed 13.7 km/h Distance 4.26 km</desc>
<time>2011-09-24T09:51:41.44</time>
<name>988</name>
</trkpt>
<trkpt lat="41.808810" lon="-1.715963">
<ele>773.5</ele>
<speed>15.0</speed>
<course>251.5</course>
<desc>Speed 15.0 km/h Distance 4.27 km</desc>
<time>2011-09-24T09:51:42.44</time>
<name>989</name>
</trkpt>
<trkpt lat="41.808798" lon="-1.716010">
<ele>774.0</ele>
<speed>14.7</speed>
<course>251.5</course>
<desc>Speed 14.7 km/h Distance 4.27 km</desc>
<time>2011-09-24T09:51:43.44</time>
<name>990</name>
</trkpt>
<trkpt lat="41.808787" lon="-1.716057">
<ele>774.0</ele>
<speed>14.6</speed>
<course>256.5</course>
<desc>Speed 14.6 km/h Distance 4.27 km</desc>
<time>2011-09-24T09:51:44.44</time>
<name>991</name>
</trkpt>
<trkpt lat="41.808778" lon="-1.716103">
<ele>774.0</ele>
<speed>14.3</speed>
<course>218.0</course>
<desc>Speed 14.3 km/h Distance 4.28 km</desc>
<time>2011-09-24T09:51:45.44</time>
<name>992</name>
</trkpt>
<trkpt lat="41.808743" lon="-1.716140">
<ele>774.0</ele>
<speed>17.4</speed>
<course>259.5</course>
<desc>Speed 17.4 km/h Distance 4.28 km</desc>
<time>2011-09-24T09:51:46.45</time>
<name>993</name>
</trkpt>
<trkpt lat="41.808737" lon="-1.716188">
<ele>774.0</ele>
<speed>14.4</speed>
<course>242.7</course>
<desc>Speed 14.4 km/h Distance 4.29 km</desc>
<time>2011-09-24T09:51:47.44</time>
<name>994</name>
</trkpt>
<trkpt lat="41.808720" lon="-1.716232">
<ele>774.0</ele>
<speed>14.5</speed>
<course>230.8</course>
<desc>Speed 14.5 km/h Distance 4.29 km</desc>
<time>2011-09-24T09:51:48.44</time>
<name>995</name>
</trkpt>
<trkpt lat="41.808697" lon="-1.716270">
<ele>774.0</ele>
<speed>14.9</speed>
<course>245.2</course>
<desc>Speed 14.9 km/h Distance 4.30 km</desc>
<time>2011-09-24T09:51:49.44</time>
<name>996</name>
</trkpt>
<trkpt lat="41.808680" lon="-1.716318">
<ele>775.5</ele>
<speed>15.5</speed>
<course>254.5</course>
<desc>Speed 15.5 km/h Distance 4.30 km</desc>
<time>2011-09-24T09:51:50.43</time>
<name>997</name>
</trkpt>
<trkpt lat="41.808670" lon="-1.716367">
<ele>776.0</ele>
<speed>14.9</speed>
<course>252.1</course>
<desc>Speed 14.9 km/h Distance 4.30 km</desc>
<time>2011-09-24T09:51:51.44</time>
<name>998</name>
</trkpt>
<trkpt lat="41.808658" lon="-1.716415">
<ele>776.5</ele>
<speed>14.6</speed>
<course>251.5</course>
<desc>Speed 14.6 km/h Distance 4.31 km</desc>
<time>2011-09-24T09:51:52.44</time>
<name>999</name>
</trkpt>
<trkpt lat="41.808647" lon="-1.716462">
<ele>777.0</ele>
<speed>14.6</speed>
<course>251.5</course>
<desc>Speed 14.6 km/h Distance 4.31 km</desc>
<time>2011-09-24T09:51:53.44</time>
<name>1000</name>
</trkpt>
<trkpt lat="41.808635" lon="-1.716508">
<ele>777.0</ele>
<speed>14.2</speed>
<course>254.0</course>
<desc>Speed 14.2 km/h Distance 4.32 km</desc>
<time>2011-09-24T09:51:54.44</time>
<name>1001</name>
</trkpt>
<trkpt lat="41.808625" lon="-1.716555">
<ele>777.5</ele>
<speed>14.3</speed>
<course>254.0</course>
<desc>Speed 14.3 km/h Distance 4.32 km</desc>
<time>2011-09-24T09:51:55.44</time>
<name>1002</name>
</trkpt>
<trkpt lat="41.808615" lon="-1.716602">
<ele>777.5</ele>
<speed>14.5</speed>
<course>240.4</course>
<desc>Speed 14.5 km/h Distance 4.33 km</desc>
<time>2011-09-24T09:51:56.44</time>
<name>1003</name>
</trkpt>
<trkpt lat="41.808597" lon="-1.716645">
<ele>778.0</ele>
<speed>15.0</speed>
<course>243.6</course>
<desc>Speed 15.0 km/h Distance 4.33 km</desc>
<time>2011-09-24T09:51:57.43</time>
<name>1004</name>
</trkpt>
<trkpt lat="41.808580" lon="-1.716690">
<ele>778.0</ele>
<speed>14.5</speed>
<course>251.5</course>
<desc>Speed 14.5 km/h Distance 4.33 km</desc>
<time>2011-09-24T09:51:58.43</time>
<name>1005</name>
</trkpt>
<trkpt lat="41.808568" lon="-1.716737">
<ele>779.0</ele>
<speed>14.5</speed>
<course>243.6</course>
<desc>Speed 14.5 km/h Distance 4.34 km</desc>
<time>2011-09-24T09:51:59.43</time>
<name>1006</name>
</trkpt>
<trkpt lat="41.808552" lon="-1.716782">
<ele>779.0</ele>
<speed>14.3</speed>
<course>245.1</course>
<desc>Speed 14.3 km/h Distance 4.34 km</desc>
<time>2011-09-24T09:52:00.43</time>
<name>1007</name>
</trkpt>
<trkpt lat="41.808537" lon="-1.716825">
<ele>779.0</ele>
<speed>14.3</speed>
<course>250.8</course>
<desc>Speed 14.3 km/h Distance 4.35 km</desc>
<time>2011-09-24T09:52:01.42</time>
<name>1008</name>
</trkpt>
<trkpt lat="41.808525" lon="-1.716870">
<ele>779.0</ele>
<speed>13.6</speed>
<course>245.1</course>
<desc>Speed 13.6 km/h Distance 4.35 km</desc>
<time>2011-09-24T09:52:02.67</time>
<name>1009</name>
</trkpt>
<trkpt lat="41.808495" lon="-1.716957">
<ele>779.0</ele>
<speed>14.1</speed>
<course>247.6</course>
<desc>Speed 14.1 km/h Distance 4.36 km</desc>
<time>2011-09-24T09:52:04.42</time>
<name>1010</name>
</trkpt>
<trkpt lat="41.808482" lon="-1.717000">
<ele>779.0</ele>
<speed>14.1</speed>
<course>241.8</course>
<desc>Speed 14.1 km/h Distance 4.36 km</desc>
<time>2011-09-24T09:52:05.43</time>
<name>1011</name>
</trkpt>
<trkpt lat="41.808465" lon="-1.717042">
<ele>779.5</ele>
<speed>14.2</speed>
<course>248.3</course>
<desc>Speed 14.2 km/h Distance 4.37 km</desc>
<time>2011-09-24T09:52:06.43</time>
<name>1012</name>
</trkpt>
<trkpt lat="41.808452" lon="-1.717087">
<ele>779.5</ele>
<speed>14.1</speed>
<course>241.8</course>
<desc>Speed 14.1 km/h Distance 4.37 km</desc>
<time>2011-09-24T09:52:07.42</time>
<name>1013</name>
</trkpt>
<trkpt lat="41.808435" lon="-1.717128">
<ele>780.0</ele>
<speed>14.3</speed>
<course>245.1</course>
<desc>Speed 14.3 km/h Distance 4.37 km</desc>
<time>2011-09-24T09:52:08.43</time>
<name>1014</name>
</trkpt>
<trkpt lat="41.808420" lon="-1.717172">
<ele>780.0</ele>
<speed>13.6</speed>
<course>244.2</course>
<desc>Speed 13.6 km/h Distance 4.38 km</desc>
<time>2011-09-24T09:52:09.43</time>
<name>1015</name>
</trkpt>
<trkpt lat="41.808405" lon="-1.717213">
<ele>780.0</ele>
<speed>13.8</speed>
<course>240.8</course>
<desc>Speed 13.8 km/h Distance 4.38 km</desc>
<time>2011-09-24T09:52:10.42</time>
<name>1016</name>
</trkpt>
<trkpt lat="41.808388" lon="-1.717253">
<ele>780.0</ele>
<speed>13.4</speed>
<course>243.3</course>
<desc>Speed 13.4 km/h Distance 4.38 km</desc>
<time>2011-09-24T09:52:11.42</time>
<name>1017</name>
</trkpt>
<trkpt lat="41.808373" lon="-1.717293">
<ele>780.5</ele>
<speed>13.6</speed>
<course>250.4</course>
<desc>Speed 13.6 km/h Distance 4.39 km</desc>
<time>2011-09-24T09:52:12.63</time>
<name>1018</name>
</trkpt>
<trkpt lat="41.808352" lon="-1.717375">
<ele>781.5</ele>
<speed>12.7</speed>
<course>254.4</course>
<desc>Speed 12.7 km/h Distance 4.40 km</desc>
<time>2011-09-24T09:52:14.42</time>
<name>1019</name>
</trkpt>
<trkpt lat="41.808343" lon="-1.717415">
<ele>781.5</ele>
<speed>12.7</speed>
<course>251.5</course>
<desc>Speed 12.7 km/h Distance 4.40 km</desc>
<time>2011-09-24T09:52:15.42</time>
<name>1020</name>
</trkpt>
<trkpt lat="41.808333" lon="-1.717455">
<ele>782.0</ele>
<speed>12.6</speed>
<course>245.0</course>
<desc>Speed 12.6 km/h Distance 4.40 km</desc>
<time>2011-09-24T09:52:16.41</time>
<name>1021</name>
</trkpt>
<trkpt lat="41.808320" lon="-1.717493">
<ele>782.5</ele>
<speed>12.7</speed>
<course>241.2</course>
<desc>Speed 12.7 km/h Distance 4.41 km</desc>
<time>2011-09-24T09:52:17.41</time>
<name>1022</name>
</trkpt>
<trkpt lat="41.808305" lon="-1.717530">
<ele>782.5</ele>
<speed>12.5</speed>
<course>238.6</course>
<desc>Speed 12.5 km/h Distance 4.41 km</desc>
<time>2011-09-24T09:52:18.41</time>
<name>1023</name>
</trkpt>
<trkpt lat="41.808288" lon="-1.717567">
<ele>783.0</ele>
<speed>12.5</speed>
<course>234.9</course>
<desc>Speed 12.5 km/h Distance 4.41 km</desc>
<time>2011-09-24T09:52:19.41</time>
<name>1024</name>
</trkpt>
<trkpt lat="41.808270" lon="-1.717602">
<ele>783.0</ele>
<speed>12.8</speed>
<course>237.4</course>
<desc>Speed 12.8 km/h Distance 4.42 km</desc>
<time>2011-09-24T09:52:20.41</time>
<name>1025</name>
</trkpt>
<trkpt lat="41.808253" lon="-1.717637">
<ele>783.5</ele>
<speed>12.4</speed>
<course>234.9</course>
<desc>Speed 12.4 km/h Distance 4.42 km</desc>
<time>2011-09-24T09:52:21.41</time>
<name>1026</name>
</trkpt>
<trkpt lat="41.808235" lon="-1.717672">
<ele>783.5</ele>
<speed>12.6</speed>
<course>232.1</course>
<desc>Speed 12.6 km/h Distance 4.42 km</desc>
<time>2011-09-24T09:52:22.41</time>
<name>1027</name>
</trkpt>
<trkpt lat="41.808217" lon="-1.717703">
<ele>783.5</ele>
<speed>12.0</speed>
<course>229.7</course>
<desc>Speed 12.0 km/h Distance 4.43 km</desc>
<time>2011-09-24T09:52:23.41</time>
<name>1028</name>
</trkpt>
<trkpt lat="41.808197" lon="-1.717735">
<ele>783.5</ele>
<speed>12.6</speed>
<course>234.9</course>
<desc>Speed 12.6 km/h Distance 4.43 km</desc>
<time>2011-09-24T09:52:24.40</time>
<name>1029</name>
</trkpt>
<trkpt lat="41.808178" lon="-1.717770">
<ele>783.5</ele>
<speed>12.5</speed>
<course>234.9</course>
<desc>Speed 12.5 km/h Distance 4.43 km</desc>
<time>2011-09-24T09:52:25.40</time>
<name>1030</name>
</trkpt>
<trkpt lat="41.808160" lon="-1.717805">
<ele>784.0</ele>
<speed>12.8</speed>
<course>228.9</course>
<desc>Speed 12.8 km/h Distance 4.44 km</desc>
<time>2011-09-24T09:52:26.41</time>
<name>1031</name>
</trkpt>
<trkpt lat="41.808138" lon="-1.717838">
<ele>784.5</ele>
<speed>12.9</speed>
<course>226.8</course>
<desc>Speed 12.9 km/h Distance 4.44 km</desc>
<time>2011-09-24T09:52:27.40</time>
<name>1032</name>
</trkpt>
<trkpt lat="41.808115" lon="-1.717872">
<ele>784.5</ele>
<speed>13.5</speed>
<course>225.3</course>
<desc>Speed 13.5 km/h Distance 4.45 km</desc>
<time>2011-09-24T09:52:28.40</time>
<name>1033</name>
</trkpt>
<trkpt lat="41.808092" lon="-1.717903">
<ele>785.0</ele>
<speed>13.6</speed>
<course>228.9</course>
<desc>Speed 13.6 km/h Distance 4.45 km</desc>
<time>2011-09-24T09:52:29.40</time>
<name>1034</name>
</trkpt>
<trkpt lat="41.808070" lon="-1.717937">
<ele>785.5</ele>
<speed>13.1</speed>
<course>228.9</course>
<desc>Speed 13.1 km/h Distance 4.45 km</desc>
<time>2011-09-24T09:52:30.40</time>
<name>1035</name>
</trkpt>
<trkpt lat="41.808048" lon="-1.717970">
<ele>786.0</ele>
<speed>12.8</speed>
<course>232.2</course>
<desc>Speed 12.8 km/h Distance 4.46 km</desc>
<time>2011-09-24T09:52:31.40</time>
<name>1036</name>
</trkpt>
<trkpt lat="41.808030" lon="-1.718002">
<ele>786.5</ele>
<speed>12.5</speed>
<course>227.4</course>
<desc>Speed 12.5 km/h Distance 4.46 km</desc>
<time>2011-09-24T09:52:32.39</time>
<name>1037</name>
</trkpt>
<trkpt lat="41.808008" lon="-1.718033">
<ele>786.5</ele>
<speed>12.4</speed>
<course>229.7</course>
<desc>Speed 12.4 km/h Distance 4.46 km</desc>
<time>2011-09-24T09:52:33.39</time>
<name>1038</name>
</trkpt>
<trkpt lat="41.807988" lon="-1.718065">
<ele>786.5</ele>
<speed>12.7</speed>
<course>229.8</course>
<desc>Speed 12.7 km/h Distance 4.47 km</desc>
<time>2011-09-24T09:52:34.39</time>
<name>1039</name>
</trkpt>
<trkpt lat="41.807968" lon="-1.718097">
<ele>786.5</ele>
<speed>12.5</speed>
<course>233.6</course>
<desc>Speed 12.5 km/h Distance 4.47 km</desc>
<time>2011-09-24T09:52:35.39</time>
<name>1040</name>
</trkpt>
<trkpt lat="41.807950" lon="-1.718130">
<ele>787.0</ele>
<speed>12.5</speed>
<course>236.1</course>
<desc>Speed 12.5 km/h Distance 4.47 km</desc>
<time>2011-09-24T09:52:36.39</time>
<name>1041</name>
</trkpt>
<trkpt lat="41.807933" lon="-1.718163">
<ele>787.0</ele>
<speed>12.4</speed>
<course>240.1</course>
<desc>Speed 12.4 km/h Distance 4.48 km</desc>
<time>2011-09-24T09:52:37.39</time>
<name>1042</name>
</trkpt>
<trkpt lat="41.807918" lon="-1.718198">
<ele>787.5</ele>
<speed>12.3</speed>
<course>234.8</course>
<desc>Speed 12.3 km/h Distance 4.48 km</desc>
<time>2011-09-24T09:52:38.39</time>
<name>1043</name>
</trkpt>
<trkpt lat="41.807902" lon="-1.718230">
<ele>787.5</ele>
<speed>12.0</speed>
<course>230.6</course>
<desc>Speed 12.0 km/h Distance 4.48 km</desc>
<time>2011-09-24T09:52:39.39</time>
<name>1044</name>
</trkpt>
<trkpt lat="41.807883" lon="-1.718260">
<ele>787.5</ele>
<speed>11.7</speed>
<course>232.2</course>
<desc>Speed 11.7 km/h Distance 4.49 km</desc>
<time>2011-09-24T09:52:40.39</time>
<name>1045</name>
</trkpt>
<trkpt lat="41.807865" lon="-1.718292">
<ele>787.5</ele>
<speed>12.0</speed>
<course>232.2</course>
<desc>Speed 12.0 km/h Distance 4.49 km</desc>
<time>2011-09-24T09:52:41.63</time>
<name>1046</name>
</trkpt>
<trkpt lat="41.807828" lon="-1.718355">
<ele>787.5</ele>
<speed>11.6</speed>
<course>243.7</course>
<desc>Speed 11.6 km/h Distance 4.50 km</desc>
<time>2011-09-24T09:52:43.38</time>
<name>1047</name>
</trkpt>
<trkpt lat="41.807817" lon="-1.718387">
<ele>786.5</ele>
<speed>10.8</speed>
<course>240.1</course>
<desc>Speed 10.8 km/h Distance 4.50 km</desc>
<time>2011-09-24T09:52:44.39</time>
<name>1048</name>
</trkpt>
<trkpt lat="41.807802" lon="-1.718422">
<ele>787.0</ele>
<speed>11.5</speed>
<course>236.1</course>
<desc>Speed 11.5 km/h Distance 4.50 km</desc>
<time>2011-09-24T09:52:45.39</time>
<name>1049</name>
</trkpt>
<trkpt lat="41.807785" lon="-1.718455">
<ele>787.5</ele>
<speed>12.1</speed>
<course>236.1</course>
<desc>Speed 12.1 km/h Distance 4.51 km</desc>
<time>2011-09-24T09:52:46.38</time>
<name>1050</name>
</trkpt>
<trkpt lat="41.807768" lon="-1.718488">
<ele>787.5</ele>
<speed>12.1</speed>
<course>234.8</course>
<desc>Speed 12.1 km/h Distance 4.51 km</desc>
<time>2011-09-24T09:52:47.38</time>
<name>1051</name>
</trkpt>
<trkpt lat="41.807752" lon="-1.718520">
<ele>787.0</ele>
<speed>11.5</speed>
<course>240.1</course>
<desc>Speed 11.5 km/h Distance 4.51 km</desc>
<time>2011-09-24T09:52:48.39</time>
<name>1052</name>
</trkpt>
<trkpt lat="41.807737" lon="-1.718555">
<ele>787.5</ele>
<speed>11.9</speed>
<course>251.5</course>
<desc>Speed 11.9 km/h Distance 4.52 km</desc>
<time>2011-09-24T09:52:50.60</time>
<name>1053</name>
</trkpt>
<trkpt lat="41.807710" lon="-1.718662">
<ele>787.0</ele>
<speed>11.7</speed>
<course>255.7</course>
<desc>Speed 11.7 km/h Distance 4.53 km</desc>
<time>2011-09-24T09:52:52.38</time>
<name>1054</name>
</trkpt>
<trkpt lat="41.807703" lon="-1.718697">
<ele>786.5</ele>
<speed>11.9</speed>
<course>254.4</course>
<desc>Speed 11.9 km/h Distance 4.53 km</desc>
<time>2011-09-24T09:52:53.37</time>
<name>1055</name>
</trkpt>
<trkpt lat="41.807695" lon="-1.718737">
<ele>787.0</ele>
<speed>12.2</speed>
<course>256.9</course>
<desc>Speed 12.2 km/h Distance 4.53 km</desc>
<time>2011-09-24T09:52:54.38</time>
<name>1056</name>
</trkpt>
<trkpt lat="41.807688" lon="-1.718775">
<ele>787.0</ele>
<speed>12.0</speed>
<course>257.4</course>
<desc>Speed 12.0 km/h Distance 4.54 km</desc>
<time>2011-09-24T09:52:55.37</time>
<name>1057</name>
</trkpt>
<trkpt lat="41.807682" lon="-1.718815">
<ele>786.5</ele>
<speed>12.2</speed>
<course>260.5</course>
<desc>Speed 12.2 km/h Distance 4.54 km</desc>
<time>2011-09-24T09:52:56.38</time>
<name>1058</name>
</trkpt>
<trkpt lat="41.807677" lon="-1.718855">
<ele>787.0</ele>
<speed>12.3</speed>
<course>248.5</course>
<desc>Speed 12.3 km/h Distance 4.54 km</desc>
<time>2011-09-24T09:52:57.38</time>
<name>1059</name>
</trkpt>
<trkpt lat="41.807668" lon="-1.718883">
<ele>785.5</ele>
<speed>8.8</speed>
<course>258.8</course>
<desc>Speed 8.8 km/h Distance 4.54 km</desc>
<time>2011-09-24T09:52:58.37</time>
<name>1060</name>
</trkpt>
<trkpt lat="41.807662" lon="-1.718928">
<ele>786.0</ele>
<speed>13.4</speed>
<course>263.6</course>
<desc>Speed 13.4 km/h Distance 4.55 km</desc>
<time>2011-09-24T09:52:59.37</time>
<name>1061</name>
</trkpt>
<trkpt lat="41.807658" lon="-1.718968">
<ele>786.0</ele>
<speed>12.0</speed>
<course>267.0</course>
<desc>Speed 12.0 km/h Distance 4.55 km</desc>
<time>2011-09-24T09:53:00.37</time>
<name>1062</name>
</trkpt>
<trkpt lat="41.807657" lon="-1.719012">
<ele>786.5</ele>
<speed>12.4</speed>
<course>263.9</course>
<desc>Speed 12.4 km/h Distance 4.56 km</desc>
<time>2011-09-24T09:53:01.37</time>
<name>1063</name>
</trkpt>
<trkpt lat="41.807653" lon="-1.719053">
<ele>786.5</ele>
<speed>12.3</speed>
<course>254.4</course>
<desc>Speed 12.3 km/h Distance 4.56 km</desc>
<time>2011-09-24T09:53:02.36</time>
<name>1064</name>
</trkpt>
<trkpt lat="41.807645" lon="-1.719093">
<ele>786.5</ele>
<speed>12.2</speed>
<course>258.3</course>
<desc>Speed 12.2 km/h Distance 4.56 km</desc>
<time>2011-09-24T09:53:03.37</time>
<name>1065</name>
</trkpt>
<trkpt lat="41.807638" lon="-1.719137">
<ele>787.0</ele>
<speed>12.6</speed>
<course>260.5</course>
<desc>Speed 12.6 km/h Distance 4.57 km</desc>
<time>2011-09-24T09:53:04.37</time>
<name>1066</name>
</trkpt>
<trkpt lat="41.807633" lon="-1.719177">
<ele>787.0</ele>
<speed>12.3</speed>
<course>251.5</course>
<desc>Speed 12.3 km/h Distance 4.57 km</desc>
<time>2011-09-24T09:53:05.37</time>
<name>1067</name>
</trkpt>
<trkpt lat="41.807623" lon="-1.719217">
<ele>787.0</ele>
<speed>12.3</speed>
<course>250.7</course>
<desc>Speed 12.3 km/h Distance 4.57 km</desc>
<time>2011-09-24T09:53:06.39</time>
<name>1068</name>
</trkpt>
<trkpt lat="41.807613" lon="-1.719255">
<ele>787.0</ele>
<speed>12.0</speed>
<course>251.5</course>
<desc>Speed 12.0 km/h Distance 4.58 km</desc>
<time>2011-09-24T09:53:07.38</time>
<name>1069</name>
</trkpt>
<trkpt lat="41.807603" lon="-1.719295">
<ele>787.5</ele>
<speed>12.4</speed>
<course>250.7</course>
<desc>Speed 12.4 km/h Distance 4.58 km</desc>
<time>2011-09-24T09:53:08.37</time>
<name>1070</name>
</trkpt>
<trkpt lat="41.807593" lon="-1.719333">
<ele>787.5</ele>
<speed>12.2</speed>
<course>242.9</course>
<desc>Speed 12.2 km/h Distance 4.58 km</desc>
<time>2011-09-24T09:53:09.37</time>
<name>1071</name>
</trkpt>
<trkpt lat="41.807580" lon="-1.719368">
<ele>787.5</ele>
<speed>12.3</speed>
<course>245.0</course>
<desc>Speed 12.3 km/h Distance 4.59 km</desc>
<time>2011-09-24T09:53:10.36</time>
<name>1072</name>
</trkpt>
<trkpt lat="41.807567" lon="-1.719407">
<ele>788.0</ele>
<speed>12.3</speed>
<course>242.3</course>
<desc>Speed 12.3 km/h Distance 4.59 km</desc>
<time>2011-09-24T09:53:11.36</time>
<name>1073</name>
</trkpt>
<trkpt lat="41.807552" lon="-1.719445">
<ele>788.5</ele>
<speed>12.3</speed>
<course>236.1</course>
<desc>Speed 12.3 km/h Distance 4.59 km</desc>
<time>2011-09-24T09:53:12.36</time>
<name>1074</name>
</trkpt>
<trkpt lat="41.807535" lon="-1.719478">
<ele>789.0</ele>
<speed>12.1</speed>
<course>240.1</course>
<desc>Speed 12.1 km/h Distance 4.60 km</desc>
<time>2011-09-24T09:53:13.37</time>
<name>1075</name>
</trkpt>
<trkpt lat="41.807520" lon="-1.719513">
<ele>789.0</ele>
<speed>12.0</speed>
<course>230.7</course>
<desc>Speed 12.0 km/h Distance 4.60 km</desc>
<time>2011-09-24T09:53:14.44</time>
<name>1076</name>
</trkpt>
<trkpt lat="41.807502" lon="-1.719543">
<ele>789.0</ele>
<speed>11.8</speed>
<course>222.1</course>
<desc>Speed 11.8 km/h Distance 4.60 km</desc>
<time>2011-09-24T09:53:15.37</time>
<name>1077</name>
</trkpt>
<trkpt lat="41.807478" lon="-1.719572">
<ele>789.0</ele>
<speed>12.6</speed>
<course>215.2</course>
<desc>Speed 12.6 km/h Distance 4.61 km</desc>
<time>2011-09-24T09:53:16.36</time>
<name>1078</name>
</trkpt>
<trkpt lat="41.807447" lon="-1.719602">
<ele>790.5</ele>
<speed>15.2</speed>
<course>220.4</course>
<desc>Speed 15.2 km/h Distance 4.61 km</desc>
<time>2011-09-24T09:53:17.37</time>
<name>1079</name>
</trkpt>
<trkpt lat="41.807423" lon="-1.719628">
<ele>791.0</ele>
<speed>12.3</speed>
<course>218.5</course>
<desc>Speed 12.3 km/h Distance 4.61 km</desc>
<time>2011-09-24T09:53:18.36</time>
<name>1080</name>
</trkpt>
<trkpt lat="41.807398" lon="-1.719655">
<ele>791.5</ele>
<speed>12.4</speed>
<course>224.3</course>
<desc>Speed 12.4 km/h Distance 4.62 km</desc>
<time>2011-09-24T09:53:19.36</time>
<name>1081</name>
</trkpt>
<trkpt lat="41.807377" lon="-1.719683">
<ele>792.0</ele>
<speed>12.3</speed>
<course>218.5</course>
<desc>Speed 12.3 km/h Distance 4.62 km</desc>
<time>2011-09-24T09:53:20.35</time>
<name>1082</name>
</trkpt>
<trkpt lat="41.807352" lon="-1.719710">
<ele>792.0</ele>
<speed>12.3</speed>
<course>218.6</course>
<desc>Speed 12.3 km/h Distance 4.62 km</desc>
<time>2011-09-24T09:53:21.36</time>
<name>1083</name>
</trkpt>
<trkpt lat="41.807328" lon="-1.719735">
<ele>792.0</ele>
<speed>12.5</speed>
<course>220.2</course>
<desc>Speed 12.5 km/h Distance 4.63 km</desc>
<time>2011-09-24T09:53:22.35</time>
<name>1084</name>
</trkpt>
<trkpt lat="41.807303" lon="-1.719763">
<ele>792.0</ele>
<speed>12.7</speed>
<course>225.9</course>
<desc>Speed 12.7 km/h Distance 4.63 km</desc>
<time>2011-09-24T09:53:23.35</time>
<name>1085</name>
</trkpt>
<trkpt lat="41.807282" lon="-1.719793">
<ele>792.5</ele>
<speed>12.7</speed>
<course>225.9</course>
<desc>Speed 12.7 km/h Distance 4.64 km</desc>
<time>2011-09-24T09:53:24.35</time>
<name>1086</name>
</trkpt>
<trkpt lat="41.807260" lon="-1.719823">
<ele>792.5</ele>
<speed>12.9</speed>
<course>221.8</course>
<desc>Speed 12.9 km/h Distance 4.64 km</desc>
<time>2011-09-24T09:53:25.35</time>
<name>1087</name>
</trkpt>
<trkpt lat="41.807235" lon="-1.719853">
<ele>792.5</ele>
<speed>13.5</speed>
<course>234.9</course>
<desc>Speed 13.5 km/h Distance 4.64 km</desc>
<time>2011-09-24T09:53:26.35</time>
<name>1088</name>
</trkpt>
<trkpt lat="41.807217" lon="-1.719888">
<ele>792.5</ele>
<speed>13.7</speed>
<course>238.4</course>
<desc>Speed 13.7 km/h Distance 4.65 km</desc>
<time>2011-09-24T09:53:27.35</time>
<name>1089</name>
</trkpt>
<trkpt lat="41.807198" lon="-1.719928">
<ele>792.5</ele>
<speed>14.2</speed>
<course>235.1</course>
<desc>Speed 14.2 km/h Distance 4.65 km</desc>
<time>2011-09-24T09:53:28.35</time>
<name>1090</name>
</trkpt>
<trkpt lat="41.807177" lon="-1.719970">
<ele>793.0</ele>
<speed>14.5</speed>
<course>237.3</course>
<desc>Speed 14.5 km/h Distance 4.65 km</desc>
<time>2011-09-24T09:53:29.35</time>
<name>1091</name>
</trkpt>
<trkpt lat="41.807158" lon="-1.720008">
<ele>793.0</ele>
<speed>13.9</speed>
<course>236.2</course>
<desc>Speed 13.9 km/h Distance 4.66 km</desc>
<time>2011-09-24T09:53:30.34</time>
<name>1092</name>
</trkpt>
<trkpt lat="41.807138" lon="-1.720048">
<ele>793.0</ele>
<speed>14.6</speed>
<course>238.2</course>
<desc>Speed 14.6 km/h Distance 4.66 km</desc>
<time>2011-09-24T09:53:31.35</time>
<name>1093</name>
</trkpt>
<trkpt lat="41.807118" lon="-1.720092">
<ele>793.0</ele>
<speed>15.1</speed>
<course>239.4</course>
<desc>Speed 15.1 km/h Distance 4.67 km</desc>
<time>2011-09-24T09:53:32.34</time>
<name>1094</name>
</trkpt>
<trkpt lat="41.807100" lon="-1.720133">
<ele>792.5</ele>
<speed>13.9</speed>
<course>242.7</course>
<desc>Speed 13.9 km/h Distance 4.67 km</desc>
<time>2011-09-24T09:53:33.34</time>
<name>1095</name>
</trkpt>
<trkpt lat="41.807083" lon="-1.720177">
<ele>792.5</ele>
<speed>14.5</speed>
<course>245.1</course>
<desc>Speed 14.5 km/h Distance 4.67 km</desc>
<time>2011-09-24T09:53:34.34</time>
<name>1096</name>
</trkpt>
<trkpt lat="41.807068" lon="-1.720220">
<ele>792.5</ele>
<speed>14.1</speed>
<course>246.8</course>
<desc>Speed 14.1 km/h Distance 4.68 km</desc>
<time>2011-09-24T09:53:35.34</time>
<name>1097</name>
</trkpt>
<trkpt lat="41.807055" lon="-1.720262">
<ele>792.0</ele>
<speed>13.7</speed>
<course>253.4</course>
<desc>Speed 13.7 km/h Distance 4.68 km</desc>
<time>2011-09-24T09:53:36.34</time>
<name>1098</name>
</trkpt>
<trkpt lat="41.807045" lon="-1.720307">
<ele>792.0</ele>
<speed>14.0</speed>
<course>259.5</course>
<desc>Speed 14.0 km/h Distance 4.69 km</desc>
<time>2011-09-24T09:53:37.34</time>
<name>1099</name>
</trkpt>
<trkpt lat="41.807038" lon="-1.720355">
<ele>792.0</ele>
<speed>14.4</speed>
<course>262.4</course>
<desc>Speed 14.4 km/h Distance 4.69 km</desc>
<time>2011-09-24T09:53:38.33</time>
<name>1100</name>
</trkpt>
<trkpt lat="41.807033" lon="-1.720405">
<ele>792.0</ele>
<speed>14.5</speed>
<course>264.7</course>
<desc>Speed 14.5 km/h Distance 4.69 km</desc>
<time>2011-09-24T09:53:39.34</time>
<name>1101</name>
</trkpt>
<trkpt lat="41.807030" lon="-1.720453">
<ele>792.0</ele>
<speed>14.3</speed>
<course>262.4</course>
<desc>Speed 14.3 km/h Distance 4.70 km</desc>
<time>2011-09-24T09:53:40.33</time>
<name>1102</name>
</trkpt>
<trkpt lat="41.807025" lon="-1.720503">
<ele>792.5</ele>
<speed>14.1</speed>
<course>267.4</course>
<desc>Speed 14.1 km/h Distance 4.70 km</desc>
<time>2011-09-24T09:53:41.33</time>
<name>1103</name>
</trkpt>
<trkpt lat="41.807023" lon="-1.720552">
<ele>792.5</ele>
<speed>13.7</speed>
<course>264.5</course>
<desc>Speed 13.7 km/h Distance 4.71 km</desc>
<time>2011-09-24T09:53:42.33</time>
<name>1104</name>
</trkpt>
<trkpt lat="41.807020" lon="-1.720598">
<ele>792.5</ele>
<speed>13.6</speed>
<course>259.2</course>
<desc>Speed 13.6 km/h Distance 4.71 km</desc>
<time>2011-09-24T09:53:43.33</time>
<name>1105</name>
</trkpt>
<trkpt lat="41.807013" lon="-1.720645">
<ele>792.5</ele>
<speed>13.5</speed>
<course>264.3</course>
<desc>Speed 13.5 km/h Distance 4.71 km</desc>
<time>2011-09-24T09:53:44.33</time>
<name>1106</name>
</trkpt>
<trkpt lat="41.807010" lon="-1.720690">
<ele>793.0</ele>
<speed>12.9</speed>
<course>261.2</course>
<desc>Speed 12.9 km/h Distance 4.72 km</desc>
<time>2011-09-24T09:53:45.33</time>
<name>1107</name>
</trkpt>
<trkpt lat="41.807005" lon="-1.720733">
<ele>793.0</ele>
<speed>12.6</speed>
<course>263.9</course>
<desc>Speed 12.6 km/h Distance 4.72 km</desc>
<time>2011-09-24T09:53:46.33</time>
<name>1108</name>
</trkpt>
<trkpt lat="41.807002" lon="-1.720775">
<ele>793.0</ele>
<speed>12.5</speed>
<course>263.9</course>
<desc>Speed 12.5 km/h Distance 4.72 km</desc>
<time>2011-09-24T09:53:47.33</time>
<name>1109</name>
</trkpt>
<trkpt lat="41.806998" lon="-1.720817">
<ele>793.0</ele>
<speed>12.6</speed>
<course>267.2</course>
<desc>Speed 12.6 km/h Distance 4.73 km</desc>
<time>2011-09-24T09:53:48.33</time>
<name>1110</name>
</trkpt>
<trkpt lat="41.806997" lon="-1.720862">
<ele>793.0</ele>
<speed>13.0</speed>
<course>270.0</course>
<desc>Speed 13.0 km/h Distance 4.73 km</desc>
<time>2011-09-24T09:53:49.33</time>
<name>1111</name>
</trkpt>
<trkpt lat="41.806997" lon="-1.720908">
<ele>793.0</ele>
<speed>13.0</speed>
<course>270.0</course>
<desc>Speed 13.0 km/h Distance 4.74 km</desc>
<time>2011-09-24T09:53:50.34</time>
<name>1112</name>
</trkpt>
<trkpt lat="41.806997" lon="-1.720953">
<ele>793.5</ele>
<speed>12.9</speed>
<course>270.0</course>
<desc>Speed 12.9 km/h Distance 4.74 km</desc>
<time>2011-09-24T09:53:51.34</time>
<name>1113</name>
</trkpt>
<trkpt lat="41.806997" lon="-1.720998">
<ele>793.5</ele>
<speed>12.8</speed>
<course>270.0</course>
<desc>Speed 12.8 km/h Distance 4.74 km</desc>
<time>2011-09-24T09:53:52.33</time>
<name>1114</name>
</trkpt>
<trkpt lat="41.806997" lon="-1.721043">
<ele>794.0</ele>
<speed>12.8</speed>
<course>267.0</course>
<desc>Speed 12.8 km/h Distance 4.75 km</desc>
<time>2011-09-24T09:53:53.33</time>
<name>1115</name>
</trkpt>
<trkpt lat="41.806995" lon="-1.721087">
<ele>794.5</ele>
<speed>12.6</speed>
<course>263.9</course>
<desc>Speed 12.6 km/h Distance 4.75 km</desc>
<time>2011-09-24T09:53:54.32</time>
<name>1116</name>
</trkpt>
<trkpt lat="41.806992" lon="-1.721128">
<ele>794.5</ele>
<speed>12.4</speed>
<course>260.9</course>
<desc>Speed 12.4 km/h Distance 4.75 km</desc>
<time>2011-09-24T09:53:55.33</time>
<name>1117</name>
</trkpt>
<trkpt lat="41.806987" lon="-1.721170">
<ele>795.0</ele>
<speed>12.4</speed>
<course>266.9</course>
<desc>Speed 12.4 km/h Distance 4.76 km</desc>
<time>2011-09-24T09:53:56.32</time>
<name>1118</name>
</trkpt>
<trkpt lat="41.806985" lon="-1.721212">
<ele>795.0</ele>
<speed>12.3</speed>
<course>263.9</course>
<desc>Speed 12.3 km/h Distance 4.76 km</desc>
<time>2011-09-24T09:53:57.33</time>
<name>1119</name>
</trkpt>
<trkpt lat="41.806982" lon="-1.721253">
<ele>795.5</ele>
<speed>12.0</speed>
<course>263.6</course>
<desc>Speed 12.0 km/h Distance 4.76 km</desc>
<time>2011-09-24T09:53:58.32</time>
<name>1120</name>
</trkpt>
<trkpt lat="41.806978" lon="-1.721293">
<ele>795.5</ele>
<speed>11.7</speed>
<course>266.7</course>
<desc>Speed 11.7 km/h Distance 4.77 km</desc>
<time>2011-09-24T09:53:59.32</time>
<name>1121</name>
</trkpt>
<trkpt lat="41.806977" lon="-1.721332">
<ele>795.5</ele>
<speed>11.2</speed>
<course>266.3</course>
<desc>Speed 11.2 km/h Distance 4.77 km</desc>
<time>2011-09-24T09:54:00.32</time>
<name>1122</name>
</trkpt>
<trkpt lat="41.806975" lon="-1.721367">
<ele>796.0</ele>
<speed>10.5</speed>
<course>266.5</course>
<desc>Speed 10.5 km/h Distance 4.77 km</desc>
<time>2011-09-24T09:54:01.32</time>
<name>1123</name>
</trkpt>
<trkpt lat="41.806973" lon="-1.721403">
<ele>796.0</ele>
<speed>10.8</speed>
<course>266.2</course>
<desc>Speed 10.8 km/h Distance 4.78 km</desc>
<time>2011-09-24T09:54:02.31</time>
<name>1124</name>
</trkpt>
<trkpt lat="41.806972" lon="-1.721437">
<ele>796.0</ele>
<speed>10.5</speed>
<course>266.7</course>
<desc>Speed 10.5 km/h Distance 4.78 km</desc>
<time>2011-09-24T09:54:03.31</time>
<name>1125</name>
</trkpt>
<trkpt lat="41.806970" lon="-1.721475">
<ele>796.0</ele>
<speed>11.1</speed>
<course>273.2</course>
<desc>Speed 11.1 km/h Distance 4.78 km</desc>
<time>2011-09-24T09:54:04.32</time>
<name>1126</name>
</trkpt>
<trkpt lat="41.806972" lon="-1.721515">
<ele>796.5</ele>
<speed>11.7</speed>
<course>273.3</course>
<desc>Speed 11.7 km/h Distance 4.79 km</desc>
<time>2011-09-24T09:54:05.32</time>
<name>1127</name>
</trkpt>
<trkpt lat="41.806973" lon="-1.721553">
<ele>796.5</ele>
<speed>11.2</speed>
<course>266.9</course>
<desc>Speed 11.2 km/h Distance 4.79 km</desc>
<time>2011-09-24T09:54:06.31</time>
<name>1128</name>
</trkpt>
<trkpt lat="41.806972" lon="-1.721595">
<ele>796.5</ele>
<speed>12.1</speed>
<course>267.0</course>
<desc>Speed 12.1 km/h Distance 4.79 km</desc>
<time>2011-09-24T09:54:07.31</time>
<name>1129</name>
</trkpt>
<trkpt lat="41.806970" lon="-1.721638">
<ele>797.0</ele>
<speed>13.0</speed>
<course>270.0</course>
<desc>Speed 13.0 km/h Distance 4.80 km</desc>
<time>2011-09-24T09:54:08.31</time>
<name>1130</name>
</trkpt>
<trkpt lat="41.806970" lon="-1.721683">
<ele>797.0</ele>
<speed>13.0</speed>
<course>264.1</course>
<desc>Speed 13.0 km/h Distance 4.80 km</desc>
<time>2011-09-24T09:54:09.31</time>
<name>1131</name>
</trkpt>
<trkpt lat="41.806967" lon="-1.721727">
<ele>797.5</ele>
<speed>12.6</speed>
<course>266.9</course>
<desc>Speed 12.6 km/h Distance 4.80 km</desc>
<time>2011-09-24T09:54:10.31</time>
<name>1132</name>
</trkpt>
<trkpt lat="41.806965" lon="-1.721768">
<ele>797.5</ele>
<speed>12.7</speed>
<course>257.9</course>
<desc>Speed 12.7 km/h Distance 4.81 km</desc>
<time>2011-09-24T09:54:11.31</time>
<name>1133</name>
</trkpt>
<trkpt lat="41.806958" lon="-1.721810">
<ele>798.0</ele>
<speed>12.5</speed>
<course>256.9</course>
<desc>Speed 12.5 km/h Distance 4.81 km</desc>
<time>2011-09-24T09:54:12.32</time>
<name>1134</name>
</trkpt>
<trkpt lat="41.806952" lon="-1.721848">
<ele>798.0</ele>
<speed>12.0</speed>
<course>260.9</course>
<desc>Speed 12.0 km/h Distance 4.81 km</desc>
<time>2011-09-24T09:54:13.32</time>
<name>1135</name>
</trkpt>
<trkpt lat="41.806947" lon="-1.721890">
<ele>798.0</ele>
<speed>12.3</speed>
<course>260.9</course>
<desc>Speed 12.3 km/h Distance 4.82 km</desc>
<time>2011-09-24T09:54:14.32</time>
<name>1136</name>
</trkpt>
<trkpt lat="41.806942" lon="-1.721932">
<ele>798.5</ele>
<speed>12.5</speed>
<course>263.9</course>
<desc>Speed 12.5 km/h Distance 4.82 km</desc>
<time>2011-09-24T09:54:15.32</time>
<name>1137</name>
</trkpt>
<trkpt lat="41.806938" lon="-1.721973">
<ele>799.0</ele>
<speed>12.4</speed>
<course>257.4</course>
<desc>Speed 12.4 km/h Distance 4.82 km</desc>
<time>2011-09-24T09:54:16.30</time>
<name>1138</name>
</trkpt>
<trkpt lat="41.806932" lon="-1.722013">
<ele>799.5</ele>
<speed>12.3</speed>
<course>260.9</course>
<desc>Speed 12.3 km/h Distance 4.83 km</desc>
<time>2011-09-24T09:54:17.31</time>
<name>1139</name>
</trkpt>
<trkpt lat="41.806927" lon="-1.722055">
<ele>800.0</ele>
<speed>12.7</speed>
<course>257.4</course>
<desc>Speed 12.7 km/h Distance 4.83 km</desc>
<time>2011-09-24T09:54:18.30</time>
<name>1140</name>
</trkpt>
<trkpt lat="41.806920" lon="-1.722095">
<ele>800.0</ele>
<speed>12.4</speed>
<course>255.5</course>
<desc>Speed 12.4 km/h Distance 4.84 km</desc>
<time>2011-09-24T09:54:19.30</time>
<name>1141</name>
</trkpt>
<trkpt lat="41.806912" lon="-1.722138">
<ele>800.5</ele>
<speed>12.9</speed>
<course>253.0</course>
<desc>Speed 12.9 km/h Distance 4.84 km</desc>
<time>2011-09-24T09:54:20.30</time>
<name>1142</name>
</trkpt>
<trkpt lat="41.806903" lon="-1.722175">
<ele>800.5</ele>
<speed>11.7</speed>
<course>257.9</course>
<desc>Speed 11.7 km/h Distance 4.84 km</desc>
<time>2011-09-24T09:54:21.30</time>
<name>1143</name>
</trkpt>
<trkpt lat="41.806897" lon="-1.722217">
<ele>800.5</ele>
<speed>12.5</speed>
<course>252.1</course>
<desc>Speed 12.5 km/h Distance 4.85 km</desc>
<time>2011-09-24T09:54:22.30</time>
<name>1144</name>
</trkpt>
<trkpt lat="41.806887" lon="-1.722258">
<ele>801.0</ele>
<speed>13.2</speed>
<course>260.9</course>
<desc>Speed 13.2 km/h Distance 4.85 km</desc>
<time>2011-09-24T09:54:23.30</time>
<name>1145</name>
</trkpt>
<trkpt lat="41.806882" lon="-1.722300">
<ele>801.0</ele>
<speed>12.6</speed>
<course>256.9</course>
<desc>Speed 12.6 km/h Distance 4.85 km</desc>
<time>2011-09-24T09:54:24.31</time>
<name>1146</name>
</trkpt>
<trkpt lat="41.806875" lon="-1.722338">
<ele>801.0</ele>
<speed>12.1</speed>
<course>251.5</course>
<desc>Speed 12.1 km/h Distance 4.86 km</desc>
<time>2011-09-24T09:54:25.30</time>
<name>1147</name>
</trkpt>
<trkpt lat="41.806865" lon="-1.722378">
<ele>801.0</ele>
<speed>12.5</speed>
<course>251.5</course>
<desc>Speed 12.5 km/h Distance 4.86 km</desc>
<time>2011-09-24T09:54:26.30</time>
<name>1148</name>
</trkpt>
<trkpt lat="41.806855" lon="-1.722418">
<ele>801.5</ele>
<speed>12.3</speed>
<course>250.7</course>
<desc>Speed 12.3 km/h Distance 4.86 km</desc>
<time>2011-09-24T09:54:27.29</time>
<name>1149</name>
</trkpt>
<trkpt lat="41.806845" lon="-1.722457">
<ele>801.5</ele>
<speed>12.3</speed>
<course>241.2</course>
<desc>Speed 12.3 km/h Distance 4.87 km</desc>
<time>2011-09-24T09:54:28.29</time>
<name>1150</name>
</trkpt>
<trkpt lat="41.806830" lon="-1.722493">
<ele>802.0</ele>
<speed>12.5</speed>
<course>245.0</course>
<desc>Speed 12.5 km/h Distance 4.87 km</desc>
<time>2011-09-24T09:54:29.29</time>
<name>1151</name>
</trkpt>
<trkpt lat="41.806817" lon="-1.722532">
<ele>802.5</ele>
<speed>12.8</speed>
<course>242.3</course>
<desc>Speed 12.8 km/h Distance 4.87 km</desc>
<time>2011-09-24T09:54:30.29</time>
<name>1152</name>
</trkpt>
<trkpt lat="41.806802" lon="-1.722570">
<ele>802.5</ele>
<speed>12.9</speed>
<course>238.6</course>
<desc>Speed 12.9 km/h Distance 4.88 km</desc>
<time>2011-09-24T09:54:31.29</time>
<name>1153</name>
</trkpt>
<trkpt lat="41.806785" lon="-1.722607">
<ele>802.5</ele>
<speed>13.0</speed>
<course>245.0</course>
<desc>Speed 13.0 km/h Distance 4.88 km</desc>
<time>2011-09-24T09:54:32.30</time>
<name>1154</name>
</trkpt>
<trkpt lat="41.806772" lon="-1.722645">
<ele>803.0</ele>
<speed>12.6</speed>
<course>207.4</course>
<desc>Speed 12.6 km/h Distance 4.88 km</desc>
<time>2011-09-24T09:54:33.30</time>
<name>1155</name>
</trkpt>
<trkpt lat="41.806733" lon="-1.722672">
<ele>803.0</ele>
<speed>17.4</speed>
<course>238.6</course>
<desc>Speed 17.4 km/h Distance 4.89 km</desc>
<time>2011-09-24T09:54:34.30</time>
<name>1156</name>
</trkpt>
<trkpt lat="41.806717" lon="-1.722708">
<ele>803.5</ele>
<speed>13.1</speed>
<course>237.4</course>
<desc>Speed 13.1 km/h Distance 4.89 km</desc>
<time>2011-09-24T09:54:35.29</time>
<name>1157</name>
</trkpt>
<trkpt lat="41.806700" lon="-1.722743">
<ele>803.5</ele>
<speed>12.5</speed>
<course>250.1</course>
<desc>Speed 12.5 km/h Distance 4.90 km</desc>
<time>2011-09-24T09:54:36.29</time>
<name>1158</name>
</trkpt>
<trkpt lat="41.806688" lon="-1.722787">
<ele>804.5</ele>
<speed>13.7</speed>
<course>245.0</course>
<desc>Speed 13.7 km/h Distance 4.90 km</desc>
<time>2011-09-24T09:54:37.29</time>
<name>1159</name>
</trkpt>
<trkpt lat="41.806675" lon="-1.722825">
<ele>805.0</ele>
<speed>12.6</speed>
<course>236.1</course>
<desc>Speed 12.6 km/h Distance 4.90 km</desc>
<time>2011-09-24T09:54:38.29</time>
<name>1160</name>
</trkpt>
<trkpt lat="41.806658" lon="-1.722858">
<ele>805.0</ele>
<speed>11.9</speed>
<course>234.9</course>
<desc>Speed 11.9 km/h Distance 4.91 km</desc>
<time>2011-09-24T09:54:39.28</time>
<name>1161</name>
</trkpt>
<trkpt lat="41.806640" lon="-1.722893">
<ele>805.0</ele>
<speed>12.8</speed>
<course>287.2</course>
<desc>Speed 12.8 km/h Distance 4.91 km</desc>
<time>2011-09-24T09:54:40.29</time>
<name>1162</name>
</trkpt>
<trkpt lat="41.806650" lon="-1.722937">
<ele>804.0</ele>
<speed>13.5</speed>
<course>221.8</course>
<desc>Speed 13.5 km/h Distance 4.91 km</desc>
<time>2011-09-24T09:54:41.29</time>
<name>1163</name>
</trkpt>
<trkpt lat="41.806625" lon="-1.722967">
<ele>804.0</ele>
<speed>13.2</speed>
<course>236.1</course>
<desc>Speed 13.2 km/h Distance 4.92 km</desc>
<time>2011-09-24T09:54:42.28</time>
<name>1164</name>
</trkpt>
<trkpt lat="41.806608" lon="-1.723000">
<ele>804.0</ele>
<speed>11.8</speed>
<course>237.4</course>
<desc>Speed 11.8 km/h Distance 4.92 km</desc>
<time>2011-09-24T09:54:43.28</time>
<name>1165</name>
</trkpt>
<trkpt lat="41.806592" lon="-1.723035">
<ele>804.5</ele>
<speed>12.7</speed>
<course>231.2</course>
<desc>Speed 12.7 km/h Distance 4.92 km</desc>
<time>2011-09-24T09:54:44.28</time>
<name>1166</name>
</trkpt>
<trkpt lat="41.806572" lon="-1.723068">
<ele>804.5</ele>
<speed>12.3</speed>
<course>229.7</course>
<desc>Speed 12.3 km/h Distance 4.93 km</desc>
<time>2011-09-24T09:54:45.28</time>
<name>1167</name>
</trkpt>
<trkpt lat="41.806552" lon="-1.723100">
<ele>804.5</ele>
<speed>12.6</speed>
<course>228.2</course>
<desc>Speed 12.6 km/h Distance 4.93 km</desc>
<time>2011-09-24T09:54:46.28</time>
<name>1168</name>
</trkpt>
<trkpt lat="41.806532" lon="-1.723130">
<ele>804.5</ele>
<speed>12.1</speed>
<course>225.9</course>
<desc>Speed 12.1 km/h Distance 4.93 km</desc>
<time>2011-09-24T09:54:47.28</time>
<name>1169</name>
</trkpt>
<trkpt lat="41.806510" lon="-1.723160">
<ele>804.5</ele>
<speed>12.4</speed>
<course>223.8</course>
<desc>Speed 12.4 km/h Distance 4.94 km</desc>
<time>2011-09-24T09:54:48.27</time>
<name>1170</name>
</trkpt>
<trkpt lat="41.806487" lon="-1.723190">
<ele>804.5</ele>
<speed>12.7</speed>
<course>223.8</course>
<desc>Speed 12.7 km/h Distance 4.94 km</desc>
<time>2011-09-24T09:54:49.28</time>
<name>1171</name>
</trkpt>
<trkpt lat="41.806463" lon="-1.723220">
<ele>804.5</ele>
<speed>12.5</speed>
<course>222.6</course>
<desc>Speed 12.5 km/h Distance 4.95 km</desc>
<time>2011-09-24T09:54:50.27</time>
<name>1172</name>
</trkpt>
<trkpt lat="41.806442" lon="-1.723247">
<ele>804.5</ele>
<speed>12.3</speed>
<course>220.2</course>
<desc>Speed 12.3 km/h Distance 4.95 km</desc>
<time>2011-09-24T09:54:51.27</time>
<name>1173</name>
</trkpt>
<trkpt lat="41.806417" lon="-1.723275">
<ele>804.5</ele>
<speed>12.7</speed>
<course>220.2</course>
<desc>Speed 12.7 km/h Distance 4.95 km</desc>
<time>2011-09-24T09:54:52.27</time>
<name>1174</name>
</trkpt>
<trkpt lat="41.806392" lon="-1.723303">
<ele>804.5</ele>
<speed>13.0</speed>
<course>220.4</course>
<desc>Speed 13.0 km/h Distance 4.96 km</desc>
<time>2011-09-24T09:54:53.27</time>
<name>1175</name>
</trkpt>
<trkpt lat="41.806368" lon="-1.723330">
<ele>805.0</ele>
<speed>12.7</speed>
<course>220.5</course>
<desc>Speed 12.7 km/h Distance 4.96 km</desc>
<time>2011-09-24T09:54:54.27</time>
<name>1176</name>
</trkpt>
<trkpt lat="41.806345" lon="-1.723357">
<ele>805.5</ele>
<speed>12.1</speed>
<course>226.2</course>
<desc>Speed 12.1 km/h Distance 4.96 km</desc>
<time>2011-09-24T09:54:55.26</time>
<name>1177</name>
</trkpt>
<trkpt lat="41.806328" lon="-1.723380">
<ele>805.5</ele>
<speed>9.9</speed>
<course>212.6</course>
<desc>Speed 9.9 km/h Distance 4.97 km</desc>
<time>2011-09-24T09:54:56.26</time>
<name>1178</name>
</trkpt>
<trkpt lat="41.806305" lon="-1.723400">
<ele>805.5</ele>
<speed>11.0</speed>
<course>212.6</course>
<desc>Speed 11.0 km/h Distance 4.97 km</desc>
<time>2011-09-24T09:54:57.26</time>
<name>1179</name>
</trkpt>
<trkpt lat="41.806282" lon="-1.723420">
<ele>806.0</ele>
<speed>10.5</speed>
<course>212.6</course>
<desc>Speed 10.5 km/h Distance 4.97 km</desc>
<time>2011-09-24T09:54:58.26</time>
<name>1180</name>
</trkpt>
<trkpt lat="41.806258" lon="-1.723440">
<ele>806.0</ele>
<speed>11.3</speed>
<course>216.7</course>
<desc>Speed 11.3 km/h Distance 4.97 km</desc>
<time>2011-09-24T09:54:59.26</time>
<name>1181</name>
</trkpt>
<trkpt lat="41.806238" lon="-1.723460">
<ele>806.0</ele>
<speed>9.6</speed>
<course>208.1</course>
<desc>Speed 9.6 km/h Distance 4.98 km</desc>
<time>2011-09-24T09:55:00.26</time>
<name>1182</name>
</trkpt>
<trkpt lat="41.806215" lon="-1.723477">
<ele>806.0</ele>
<speed>10.5</speed>
<course>216.7</course>
<desc>Speed 10.5 km/h Distance 4.98 km</desc>
<time>2011-09-24T09:55:01.26</time>
<name>1183</name>
</trkpt>
<trkpt lat="41.806195" lon="-1.723497">
<ele>806.0</ele>
<speed>10.3</speed>
<course>212.6</course>
<desc>Speed 10.3 km/h Distance 4.98 km</desc>
<time>2011-09-24T09:55:02.26</time>
<name>1184</name>
</trkpt>
<trkpt lat="41.806172" lon="-1.723517">
<ele>806.0</ele>
<speed>10.8</speed>
<course>219.1</course>
<desc>Speed 10.8 km/h Distance 4.99 km</desc>
<time>2011-09-24T09:55:03.26</time>
<name>1185</name>
</trkpt>
<trkpt lat="41.806153" lon="-1.723537">
<ele>806.0</ele>
<speed>10.3</speed>
<course>216.7</course>
<desc>Speed 10.3 km/h Distance 4.99 km</desc>
<time>2011-09-24T09:55:04.25</time>
<name>1186</name>
</trkpt>
<trkpt lat="41.806132" lon="-1.723558">
<ele>806.0</ele>
<speed>10.7</speed>
<course>221.4</course>
<desc>Speed 10.7 km/h Distance 4.99 km</desc>
<time>2011-09-24T09:55:05.25</time>
<name>1187</name>
</trkpt>
<trkpt lat="41.806113" lon="-1.723580">
<ele>806.0</ele>
<speed>10.2</speed>
<course>219.1</course>
<desc>Speed 10.2 km/h Distance 4.99 km</desc>
<time>2011-09-24T09:55:06.25</time>
<name>1188</name>
</trkpt>
<trkpt lat="41.806095" lon="-1.723600">
<ele>806.0</ele>
<speed>10.2</speed>
<course>221.8</course>
<desc>Speed 10.2 km/h Distance 5.00 km</desc>
<time>2011-09-24T09:55:07.25</time>
<name>1189</name>
</trkpt>
<trkpt lat="41.806078" lon="-1.723620">
<ele>806.5</ele>
<speed>10.1</speed>
<course>212.6</course>
<desc>Speed 10.1 km/h Distance 5.00 km</desc>
<time>2011-09-24T09:55:08.25</time>
<name>1190</name>
</trkpt>
<trkpt lat="41.806055" lon="-1.723640">
<ele>806.5</ele>
<speed>10.9</speed>
<course>218.9</course>
<desc>Speed 10.9 km/h Distance 5.00 km</desc>
<time>2011-09-24T09:55:09.26</time>
<name>1191</name>
</trkpt>
<trkpt lat="41.806035" lon="-1.723662">
<ele>807.0</ele>
<speed>10.5</speed>
<course>212.6</course>
<desc>Speed 10.5 km/h Distance 5.01 km</desc>
<time>2011-09-24T09:55:10.25</time>
<name>1192</name>
</trkpt>
<trkpt lat="41.806012" lon="-1.723682">
<ele>807.0</ele>
<speed>11.7</speed>
<course>214.5</course>
<desc>Speed 11.7 km/h Distance 5.01 km</desc>
<time>2011-09-24T09:55:11.25</time>
<name>1193</name>
</trkpt>
<trkpt lat="41.805990" lon="-1.723702">
<ele>807.5</ele>
<speed>10.6</speed>
<course>212.6</course>
<desc>Speed 10.6 km/h Distance 5.01 km</desc>
<time>2011-09-24T09:55:12.25</time>
<name>1194</name>
</trkpt>
<trkpt lat="41.805967" lon="-1.723722">
<ele>807.5</ele>
<speed>11.0</speed>
<course>210.9</course>
<desc>Speed 11.0 km/h Distance 5.01 km</desc>
<time>2011-09-24T09:55:13.25</time>
<name>1195</name>
</trkpt>
<trkpt lat="41.805942" lon="-1.723742">
<ele>807.5</ele>
<speed>11.7</speed>
<course>208.7</course>
<desc>Speed 11.7 km/h Distance 5.02 km</desc>
<time>2011-09-24T09:55:14.25</time>
<name>1196</name>
</trkpt>
<trkpt lat="41.805917" lon="-1.723760">
<ele>807.5</ele>
<speed>11.3</speed>
<course>218.6</course>
<desc>Speed 11.3 km/h Distance 5.02 km</desc>
<time>2011-09-24T09:55:15.24</time>
<name>1197</name>
</trkpt>
<trkpt lat="41.805893" lon="-1.723785">
<ele>808.0</ele>
<speed>11.4</speed>
<course>214.7</course>
<desc>Speed 11.4 km/h Distance 5.02 km</desc>
<time>2011-09-24T09:55:16.24</time>
<name>1198</name>
</trkpt>
<trkpt lat="41.805870" lon="-1.723807">
<ele>808.0</ele>
<speed>11.3</speed>
<course>216.7</course>
<desc>Speed 11.3 km/h Distance 5.03 km</desc>
<time>2011-09-24T09:55:17.24</time>
<name>1199</name>
</trkpt>
<trkpt lat="41.805848" lon="-1.723828">
<ele>808.0</ele>
<speed>11.0</speed>
<course>214.7</course>
<desc>Speed 11.0 km/h Distance 5.03 km</desc>
<time>2011-09-24T09:55:18.24</time>
<name>1200</name>
</trkpt>
<trkpt lat="41.805825" lon="-1.723850">
<ele>808.0</ele>
<speed>11.3</speed>
<course>220.7</course>
<desc>Speed 11.3 km/h Distance 5.03 km</desc>
<time>2011-09-24T09:55:19.24</time>
<name>1201</name>
</trkpt>
<trkpt lat="41.805803" lon="-1.723875">
<ele>808.0</ele>
<speed>11.4</speed>
<course>216.7</course>
<desc>Speed 11.4 km/h Distance 5.04 km</desc>
<time>2011-09-24T09:55:20.25</time>
<name>1202</name>
</trkpt>
<trkpt lat="41.805780" lon="-1.723898">
<ele>808.0</ele>
<speed>11.4</speed>
<course>225.5</course>
<desc>Speed 11.4 km/h Distance 5.04 km</desc>
<time>2011-09-24T09:55:21.24</time>
<name>1203</name>
</trkpt>
<trkpt lat="41.805762" lon="-1.723923">
<ele>808.0</ele>
<speed>11.0</speed>
<course>212.9</course>
<desc>Speed 11.0 km/h Distance 5.04 km</desc>
<time>2011-09-24T09:55:22.24</time>
<name>1204</name>
</trkpt>
<trkpt lat="41.805737" lon="-1.723945">
<ele>808.0</ele>
<speed>12.2</speed>
<course>226.6</course>
<desc>Speed 12.2 km/h Distance 5.05 km</desc>
<time>2011-09-24T09:55:23.24</time>
<name>1205</name>
</trkpt>
<trkpt lat="41.805717" lon="-1.723973">
<ele>808.0</ele>
<speed>11.3</speed>
<course>239.2</course>
<desc>Speed 11.3 km/h Distance 5.05 km</desc>
<time>2011-09-24T09:55:24.24</time>
<name>1206</name>
</trkpt>
<trkpt lat="41.805703" lon="-1.724003">
<ele>808.0</ele>
<speed>10.4</speed>
<course>222.5</course>
<desc>Speed 10.4 km/h Distance 5.05 km</desc>
<time>2011-09-24T09:55:25.24</time>
<name>1207</name>
</trkpt>
<trkpt lat="41.805682" lon="-1.724030">
<ele>808.0</ele>
<speed>11.3</speed>
<course>231.7</course>
<desc>Speed 11.3 km/h Distance 5.06 km</desc>
<time>2011-09-24T09:55:26.24</time>
<name>1208</name>
</trkpt>
<trkpt lat="41.805665" lon="-1.724058">
<ele>808.5</ele>
<speed>11.1</speed>
<course>230.6</course>
<desc>Speed 11.1 km/h Distance 5.06 km</desc>
<time>2011-09-24T09:55:27.24</time>
<name>1209</name>
</trkpt>
<trkpt lat="41.805647" lon="-1.724088">
<ele>808.5</ele>
<speed>11.4</speed>
<course>233.3</course>
<desc>Speed 11.4 km/h Distance 5.06 km</desc>
<time>2011-09-24T09:55:28.24</time>
<name>1210</name>
</trkpt>
<trkpt lat="41.805630" lon="-1.724118">
<ele>808.5</ele>
<speed>10.9</speed>
<course>231.7</course>
<desc>Speed 10.9 km/h Distance 5.07 km</desc>
<time>2011-09-24T09:55:29.24</time>
<name>1211</name>
</trkpt>
<trkpt lat="41.805613" lon="-1.724147">
<ele>808.5</ele>
<speed>11.1</speed>
<course>228.2</course>
<desc>Speed 11.1 km/h Distance 5.07 km</desc>
<time>2011-09-24T09:55:30.23</time>
<name>1212</name>
</trkpt>
<trkpt lat="41.805593" lon="-1.724177">
<ele>809.0</ele>
<speed>11.8</speed>
<course>233.3</course>
<desc>Speed 11.8 km/h Distance 5.07 km</desc>
<time>2011-09-24T09:55:31.23</time>
<name>1213</name>
</trkpt>
<trkpt lat="41.805577" lon="-1.724207">
<ele>809.0</ele>
<speed>11.1</speed>
<course>237.6</course>
<desc>Speed 11.1 km/h Distance 5.07 km</desc>
<time>2011-09-24T09:55:32.23</time>
<name>1214</name>
</trkpt>
<trkpt lat="41.805562" lon="-1.724238">
<ele>809.0</ele>
<speed>10.8</speed>
<course>233.3</course>
<desc>Speed 10.8 km/h Distance 5.08 km</desc>
<time>2011-09-24T09:55:33.24</time>
<name>1215</name>
</trkpt>
<trkpt lat="41.805545" lon="-1.724268">
<ele>809.0</ele>
<speed>11.3</speed>
<course>239.2</course>
<desc>Speed 11.3 km/h Distance 5.08 km</desc>
<time>2011-09-24T09:55:34.24</time>
<name>1216</name>
</trkpt>
<trkpt lat="41.805532" lon="-1.724298">
<ele>808.5</ele>
<speed>10.2</speed>
<course>248.1</course>
<desc>Speed 10.2 km/h Distance 5.08 km</desc>
<time>2011-09-24T09:55:35.24</time>
<name>1217</name>
</trkpt>
<trkpt lat="41.805522" lon="-1.724332">
<ele>808.5</ele>
<speed>10.6</speed>
<course>245.9</course>
<desc>Speed 10.6 km/h Distance 5.09 km</desc>
<time>2011-09-24T09:55:36.24</time>
<name>1218</name>
</trkpt>
<trkpt lat="41.805510" lon="-1.724367">
<ele>808.5</ele>
<speed>10.7</speed>
<course>252.3</course>
<desc>Speed 10.7 km/h Distance 5.09 km</desc>
<time>2011-09-24T09:55:37.24</time>
<name>1219</name>
</trkpt>
<trkpt lat="41.805502" lon="-1.724402">
<ele>808.5</ele>
<speed>10.9</speed>
<course>252.3</course>
<desc>Speed 10.9 km/h Distance 5.09 km</desc>
<time>2011-09-24T09:55:38.23</time>
<name>1220</name>
</trkpt>
<trkpt lat="41.805493" lon="-1.724437">
<ele>808.5</ele>
<speed>11.0</speed>
<course>252.3</course>
<desc>Speed 11.0 km/h Distance 5.10 km</desc>
<time>2011-09-24T09:55:39.23</time>
<name>1221</name>
</trkpt>
<trkpt lat="41.805485" lon="-1.724472">
<ele>808.5</ele>
<speed>11.0</speed>
<course>256.3</course>
<desc>Speed 11.0 km/h Distance 5.10 km</desc>
<time>2011-09-24T09:55:40.22</time>
<name>1222</name>
</trkpt>
<trkpt lat="41.805478" lon="-1.724508">
<ele>808.5</ele>
<speed>10.9</speed>
<course>262.7</course>
<desc>Speed 10.9 km/h Distance 5.10 km</desc>
<time>2011-09-24T09:55:41.23</time>
<name>1223</name>
</trkpt>
<trkpt lat="41.805475" lon="-1.724543">
<ele>808.5</ele>
<speed>10.6</speed>
<course>241.8</course>
<desc>Speed 10.6 km/h Distance 5.11 km</desc>
<time>2011-09-24T09:55:42.23</time>
<name>1224</name>
</trkpt>
<trkpt lat="41.805462" lon="-1.724577">
<ele>809.0</ele>
<speed>11.0</speed>
<course>252.3</course>
<desc>Speed 11.0 km/h Distance 5.11 km</desc>
<time>2011-09-24T09:55:43.23</time>
<name>1225</name>
</trkpt>
<trkpt lat="41.805453" lon="-1.724612">
<ele>809.0</ele>
<speed>10.9</speed>
<course>249.9</course>
<desc>Speed 10.9 km/h Distance 5.11 km</desc>
<time>2011-09-24T09:55:44.22</time>
<name>1226</name>
</trkpt>
<trkpt lat="41.805443" lon="-1.724648">
<ele>809.0</ele>
<speed>11.4</speed>
<course>241.8</course>
<desc>Speed 11.4 km/h Distance 5.11 km</desc>
<time>2011-09-24T09:55:45.23</time>
<name>1227</name>
</trkpt>
<trkpt lat="41.805430" lon="-1.724682">
<ele>809.5</ele>
<speed>10.8</speed>
<course>248.1</course>
<desc>Speed 10.8 km/h Distance 5.12 km</desc>
<time>2011-09-24T09:55:46.23</time>
<name>1228</name>
</trkpt>
<trkpt lat="41.805420" lon="-1.724715">
<ele>810.0</ele>
<speed>10.4</speed>
<course>231.7</course>
<desc>Speed 10.4 km/h Distance 5.12 km</desc>
<time>2011-09-24T09:55:47.23</time>
<name>1229</name>
</trkpt>
<trkpt lat="41.805403" lon="-1.724743">
<ele>810.0</ele>
<speed>10.0</speed>
<course>248.1</course>
<desc>Speed 10.0 km/h Distance 5.12 km</desc>
<time>2011-09-24T09:55:48.23</time>
<name>1230</name>
</trkpt>
<trkpt lat="41.805393" lon="-1.724777">
<ele>810.0</ele>
<speed>10.3</speed>
<course>239.2</course>
<desc>Speed 10.3 km/h Distance 5.13 km</desc>
<time>2011-09-24T09:55:49.22</time>
<name>1231</name>
</trkpt>
<trkpt lat="41.805380" lon="-1.724807">
<ele>810.0</ele>
<speed>10.5</speed>
<course>233.6</course>
<desc>Speed 10.5 km/h Distance 5.13 km</desc>
<time>2011-09-24T09:55:50.22</time>
<name>1232</name>
</trkpt>
<trkpt lat="41.805362" lon="-1.724840">
<ele>811.5</ele>
<speed>12.2</speed>
<course>256.3</course>
<desc>Speed 12.2 km/h Distance 5.13 km</desc>
<time>2011-09-24T09:55:51.22</time>
<name>1233</name>
</trkpt>
<trkpt lat="41.805355" lon="-1.724877">
<ele>812.5</ele>
<speed>11.0</speed>
<course>225.9</course>
<desc>Speed 11.0 km/h Distance 5.14 km</desc>
<time>2011-09-24T09:55:52.22</time>
<name>1234</name>
</trkpt>
<trkpt lat="41.805333" lon="-1.724907">
<ele>813.5</ele>
<speed>12.1</speed>
<course>237.4</course>
<desc>Speed 12.1 km/h Distance 5.14 km</desc>
<time>2011-09-24T09:55:53.22</time>
<name>1235</name>
</trkpt>
<trkpt lat="41.805317" lon="-1.724942">
<ele>815.0</ele>
<speed>12.1</speed>
<course>259.2</course>
<desc>Speed 12.1 km/h Distance 5.14 km</desc>
<time>2011-09-24T09:55:54.22</time>
<name>1236</name>
</trkpt>
<trkpt lat="41.805312" lon="-1.724977">
<ele>815.0</ele>
<speed>10.4</speed>
<course>248.1</course>
<desc>Speed 10.4 km/h Distance 5.15 km</desc>
<time>2011-09-24T09:55:55.21</time>
<name>1237</name>
</trkpt>
<trkpt lat="41.805302" lon="-1.725010">
<ele>815.0</ele>
<speed>10.8</speed>
<course>249.9</course>
<desc>Speed 10.8 km/h Distance 5.15 km</desc>
<time>2011-09-24T09:55:56.22</time>
<name>1238</name>
</trkpt>
<trkpt lat="41.805292" lon="-1.725047">
<ele>815.0</ele>
<speed>11.2</speed>
<course>244.0</course>
<desc>Speed 11.2 km/h Distance 5.15 km</desc>
<time>2011-09-24T09:55:57.22</time>
<name>1239</name>
</trkpt>
<trkpt lat="41.805278" lon="-1.725083">
<ele>816.0</ele>
<speed>12.9</speed>
<course>263.0</course>
<desc>Speed 12.9 km/h Distance 5.16 km</desc>
<time>2011-09-24T09:55:58.22</time>
<name>1240</name>
</trkpt>
<trkpt lat="41.805275" lon="-1.725120">
<ele>815.5</ele>
<speed>11.2</speed>
<course>256.9</course>
<desc>Speed 11.2 km/h Distance 5.16 km</desc>
<time>2011-09-24T09:55:59.22</time>
<name>1241</name>
</trkpt>
<trkpt lat="41.805268" lon="-1.725158">
<ele>815.0</ele>
<speed>11.8</speed>
<course>237.6</course>
<desc>Speed 11.8 km/h Distance 5.16 km</desc>
<time>2011-09-24T09:56:00.22</time>
<name>1242</name>
</trkpt>
<trkpt lat="41.805253" lon="-1.725190">
<ele>815.0</ele>
<speed>12.2</speed>
<course>238.9</course>
<desc>Speed 12.2 km/h Distance 5.16 km</desc>
<time>2011-09-24T09:56:01.21</time>
<name>1243</name>
</trkpt>
<trkpt lat="41.805238" lon="-1.725223">
<ele>815.5</ele>
<speed>12.4</speed>
<course>236.1</course>
<desc>Speed 12.4 km/h Distance 5.17 km</desc>
<time>2011-09-24T09:56:02.22</time>
<name>1244</name>
</trkpt>
<trkpt lat="41.805222" lon="-1.725257">
<ele>816.5</ele>
<speed>11.8</speed>
<course>245.9</course>
<desc>Speed 11.8 km/h Distance 5.17 km</desc>
<time>2011-09-24T09:56:03.21</time>
<name>1245</name>
</trkpt>
<trkpt lat="41.805212" lon="-1.725287">
<ele>816.5</ele>
<speed>10.5</speed>
<course>224.3</course>
<desc>Speed 10.5 km/h Distance 5.17 km</desc>
<time>2011-09-24T09:56:04.22</time>
<name>1246</name>
</trkpt>
<trkpt lat="41.805190" lon="-1.725315">
<ele>817.0</ele>
<speed>11.9</speed>
<course>230.7</course>
<desc>Speed 11.9 km/h Distance 5.18 km</desc>
<time>2011-09-24T09:56:05.20</time>
<name>1247</name>
</trkpt>
<trkpt lat="41.805172" lon="-1.725345">
<ele>818.0</ele>
<speed>11.9</speed>
<course>230.7</course>
<desc>Speed 11.9 km/h Distance 5.18 km</desc>
<time>2011-09-24T09:56:06.21</time>
<name>1248</name>
</trkpt>
<trkpt lat="41.805153" lon="-1.725375">
<ele>818.0</ele>
<speed>11.1</speed>
<course>224.8</course>
<desc>Speed 11.1 km/h Distance 5.18 km</desc>
<time>2011-09-24T09:56:07.21</time>
<name>1249</name>
</trkpt>
<trkpt lat="41.805133" lon="-1.725402">
<ele>818.5</ele>
<speed>10.9</speed>
<course>233.3</course>
<desc>Speed 10.9 km/h Distance 5.19 km</desc>
<time>2011-09-24T09:56:08.20</time>
<name>1250</name>
</trkpt>
<trkpt lat="41.805117" lon="-1.725432">
<ele>818.5</ele>
<speed>10.7</speed>
<course>227.3</course>
<desc>Speed 10.7 km/h Distance 5.19 km</desc>
<time>2011-09-24T09:56:09.20</time>
<name>1251</name>
</trkpt>
<trkpt lat="41.805098" lon="-1.725458">
<ele>818.5</ele>
<speed>10.1</speed>
<course>237.7</course>
<desc>Speed 10.1 km/h Distance 5.19 km</desc>
<time>2011-09-24T09:56:10.20</time>
<name>1252</name>
</trkpt>
<trkpt lat="41.805085" lon="-1.725487">
<ele>818.5</ele>
<speed>9.9</speed>
<course>244.7</course>
<desc>Speed 9.9 km/h Distance 5.20 km</desc>
<time>2011-09-24T09:56:11.21</time>
<name>1253</name>
</trkpt>
<trkpt lat="41.805075" lon="-1.725515">
<ele>817.5</ele>
<speed>9.4</speed>
<course>234.6</course>
<desc>Speed 9.4 km/h Distance 5.20 km</desc>
<time>2011-09-24T09:56:12.20</time>
<name>1254</name>
</trkpt>
<trkpt lat="41.805060" lon="-1.725543">
<ele>817.5</ele>
<speed>10.5</speed>
<course>234.8</course>
<desc>Speed 10.5 km/h Distance 5.20 km</desc>
<time>2011-09-24T09:56:13.21</time>
<name>1255</name>
</trkpt>
<trkpt lat="41.805043" lon="-1.725575">
<ele>818.5</ele>
<speed>11.4</speed>
<course>236.1</course>
<desc>Speed 11.4 km/h Distance 5.20 km</desc>
<time>2011-09-24T09:56:14.21</time>
<name>1256</name>
</trkpt>
<trkpt lat="41.805030" lon="-1.725602">
<ele>818.0</ele>
<speed>10.4</speed>
<course>201.3</course>
<desc>Speed 10.4 km/h Distance 5.21 km</desc>
<time>2011-09-24T09:56:15.21</time>
<name>1257</name>
</trkpt>
<trkpt lat="41.804992" lon="-1.725622">
<ele>818.0</ele>
<speed>16.5</speed>
<course>259.6</course>
<desc>Speed 16.5 km/h Distance 5.21 km</desc>
<time>2011-09-24T09:56:16.20</time>
<name>1258</name>
</trkpt>
<trkpt lat="41.804987" lon="-1.725658">
<ele>818.5</ele>
<speed>11.6</speed>
<course>211.8</course>
<desc>Speed 11.6 km/h Distance 5.22 km</desc>
<time>2011-09-24T09:56:17.20</time>
<name>1259</name>
</trkpt>
<trkpt lat="41.804957" lon="-1.725683">
<ele>819.5</ele>
<speed>13.7</speed>
<course>244.7</course>
<desc>Speed 13.7 km/h Distance 5.22 km</desc>
<time>2011-09-24T09:56:18.20</time>
<name>1260</name>
</trkpt>
<trkpt lat="41.804947" lon="-1.725712">
<ele>820.0</ele>
<speed>9.5</speed>
<course>266.2</course>
<desc>Speed 9.5 km/h Distance 5.22 km</desc>
<time>2011-09-24T09:56:19.20</time>
<name>1261</name>
</trkpt>
<trkpt lat="41.804945" lon="-1.725745">
<ele>820.5</ele>
<speed>9.4</speed>
<course>262.4</course>
<desc>Speed 9.4 km/h Distance 5.22 km</desc>
<time>2011-09-24T09:56:20.20</time>
<name>1262</name>
</trkpt>
<trkpt lat="41.804942" lon="-1.725778">
<ele>821.0</ele>
<speed>9.9</speed>
<course>270.0</course>
<desc>Speed 9.9 km/h Distance 5.23 km</desc>
<time>2011-09-24T09:56:21.20</time>
<name>1263</name>
</trkpt>
<trkpt lat="41.804942" lon="-1.725815">
<ele>821.5</ele>
<speed>10.4</speed>
<course>237.7</course>
<desc>Speed 10.4 km/h Distance 5.23 km</desc>
<time>2011-09-24T09:56:22.20</time>
<name>1264</name>
</trkpt>
<trkpt lat="41.804928" lon="-1.725843">
<ele>821.5</ele>
<speed>10.4</speed>
<course>230.7</course>
<desc>Speed 10.4 km/h Distance 5.23 km</desc>
<time>2011-09-24T09:56:23.20</time>
<name>1265</name>
</trkpt>
<trkpt lat="41.804910" lon="-1.725873">
<ele>822.0</ele>
<speed>10.4</speed>
<course>228.1</course>
<desc>Speed 10.4 km/h Distance 5.24 km</desc>
<time>2011-09-24T09:56:24.19</time>
<name>1266</name>
</trkpt>
<trkpt lat="41.804893" lon="-1.725898">
<ele>822.5</ele>
<speed>10.3</speed>
<course>242.4</course>
<desc>Speed 10.3 km/h Distance 5.24 km</desc>
<time>2011-09-24T09:56:25.19</time>
<name>1267</name>
</trkpt>
<trkpt lat="41.804882" lon="-1.725928">
<ele>822.0</ele>
<speed>10.2</speed>
<course>245.9</course>
<desc>Speed 10.2 km/h Distance 5.24 km</desc>
<time>2011-09-24T09:56:26.19</time>
<name>1268</name>
</trkpt>
<trkpt lat="41.804872" lon="-1.725958">
<ele>822.0</ele>
<speed>10.7</speed>
<course>247.2</course>
<desc>Speed 10.7 km/h Distance 5.24 km</desc>
<time>2011-09-24T09:56:27.19</time>
<name>1269</name>
</trkpt>
<trkpt lat="41.804863" lon="-1.725985">
<ele>822.0</ele>
<speed>10.1</speed>
<course>245.9</course>
<desc>Speed 10.1 km/h Distance 5.25 km</desc>
<time>2011-09-24T09:56:28.19</time>
<name>1270</name>
</trkpt>
<trkpt lat="41.804853" lon="-1.726015">
<ele>822.0</ele>
<speed>9.9</speed>
<course>245.9</course>
<desc>Speed 9.9 km/h Distance 5.25 km</desc>
<time>2011-09-24T09:56:29.20</time>
<name>1271</name>
</trkpt>
<trkpt lat="41.804843" lon="-1.726045">
<ele>822.5</ele>
<speed>9.6</speed>
<course>245.9</course>
<desc>Speed 9.6 km/h Distance 5.25 km</desc>
<time>2011-09-24T09:56:30.18</time>
<name>1272</name>
</trkpt>
<trkpt lat="41.804833" lon="-1.726075">
<ele>823.0</ele>
<speed>10.2</speed>
<course>245.9</course>
<desc>Speed 10.2 km/h Distance 5.26 km</desc>
<time>2011-09-24T09:56:31.18</time>
<name>1273</name>
</trkpt>
<trkpt lat="41.804823" lon="-1.726105">
<ele>823.0</ele>
<speed>9.8</speed>
<course>242.4</course>
<desc>Speed 9.8 km/h Distance 5.26 km</desc>
<time>2011-09-24T09:56:32.18</time>
<name>1274</name>
</trkpt>
<trkpt lat="41.804812" lon="-1.726135">
<ele>823.5</ele>
<speed>10.0</speed>
<course>250.6</course>
<desc>Speed 10.0 km/h Distance 5.26 km</desc>
<time>2011-09-24T09:56:33.18</time>
<name>1275</name>
</trkpt>
<trkpt lat="41.804803" lon="-1.726167">
<ele>823.5</ele>
<speed>9.7</speed>
<course>245.9</course>
<desc>Speed 9.7 km/h Distance 5.26 km</desc>
<time>2011-09-24T09:56:34.18</time>
<name>1276</name>
</trkpt>
<trkpt lat="41.804793" lon="-1.726197">
<ele>824.0</ele>
<speed>10.1</speed>
<course>241.8</course>
<desc>Speed 10.1 km/h Distance 5.27 km</desc>
<time>2011-09-24T09:56:35.18</time>
<name>1277</name>
</trkpt>
<trkpt lat="41.804780" lon="-1.726230">
<ele>824.5</ele>
<speed>11.4</speed>
<course>255.0</course>
<desc>Speed 11.4 km/h Distance 5.27 km</desc>
<time>2011-09-24T09:56:36.18</time>
<name>1278</name>
</trkpt>
<trkpt lat="41.804773" lon="-1.726263">
<ele>824.5</ele>
<speed>10.1</speed>
<course>248.1</course>
<desc>Speed 10.1 km/h Distance 5.27 km</desc>
<time>2011-09-24T09:56:37.18</time>
<name>1279</name>
</trkpt>
<trkpt lat="41.804763" lon="-1.726297">
<ele>825.0</ele>
<speed>10.6</speed>
<course>248.1</course>
<desc>Speed 10.6 km/h Distance 5.28 km</desc>
<time>2011-09-24T09:56:38.19</time>
<name>1280</name>
</trkpt>
<trkpt lat="41.804753" lon="-1.726330">
<ele>825.5</ele>
<speed>11.0</speed>
<course>262.4</course>
<desc>Speed 11.0 km/h Distance 5.28 km</desc>
<time>2011-09-24T09:56:39.18</time>
<name>1281</name>
</trkpt>
<trkpt lat="41.804750" lon="-1.726363">
<ele>825.0</ele>
<speed>10.2</speed>
<course>252.3</course>
<desc>Speed 10.2 km/h Distance 5.28 km</desc>
<time>2011-09-24T09:56:40.17</time>
<name>1282</name>
</trkpt>
<trkpt lat="41.804742" lon="-1.726398">
<ele>825.0</ele>
<speed>11.6</speed>
<course>248.1</course>
<desc>Speed 11.6 km/h Distance 5.28 km</desc>
<time>2011-09-24T09:56:41.17</time>
<name>1283</name>
</trkpt>
<trkpt lat="41.804732" lon="-1.726432">
<ele>825.5</ele>
<speed>10.5</speed>
<course>248.1</course>
<desc>Speed 10.5 km/h Distance 5.29 km</desc>
<time>2011-09-24T09:56:42.17</time>
<name>1284</name>
</trkpt>
<trkpt lat="41.804722" lon="-1.726465">
<ele>825.5</ele>
<speed>10.5</speed>
<course>234.9</course>
<desc>Speed 10.5 km/h Distance 5.29 km</desc>
<time>2011-09-24T09:56:43.18</time>
<name>1285</name>
</trkpt>
<trkpt lat="41.804703" lon="-1.726500">
<ele>827.0</ele>
<speed>12.6</speed>
<course>236.1</course>
<desc>Speed 12.6 km/h Distance 5.29 km</desc>
<time>2011-09-24T09:56:44.17</time>
<name>1286</name>
</trkpt>
<trkpt lat="41.804687" lon="-1.726533">
<ele>828.0</ele>
<speed>11.9</speed>
<course>249.0</course>
<desc>Speed 11.9 km/h Distance 5.30 km</desc>
<time>2011-09-24T09:56:45.17</time>
<name>1287</name>
</trkpt>
<trkpt lat="41.804677" lon="-1.726568">
<ele>828.0</ele>
<speed>10.8</speed>
<course>266.9</course>
<desc>Speed 10.8 km/h Distance 5.30 km</desc>
<time>2011-09-24T09:56:46.18</time>
<name>1288</name>
</trkpt>
<trkpt lat="41.804675" lon="-1.726610">
<ele>829.5</ele>
<speed>12.6</speed>
<course>259.6</course>
<desc>Speed 12.6 km/h Distance 5.30 km</desc>
<time>2011-09-24T09:56:47.18</time>
<name>1289</name>
</trkpt>
<trkpt lat="41.804670" lon="-1.726647">
<ele>830.0</ele>
<speed>10.6</speed>
<course>273.8</course>
<desc>Speed 10.6 km/h Distance 5.31 km</desc>
<time>2011-09-24T09:56:48.17</time>
<name>1290</name>
</trkpt>
<trkpt lat="41.804672" lon="-1.726680">
<ele>829.0</ele>
<speed>10.2</speed>
<course>255.0</course>
<desc>Speed 10.2 km/h Distance 5.31 km</desc>
<time>2011-09-24T09:56:49.18</time>
<name>1291</name>
</trkpt>
<trkpt lat="41.804665" lon="-1.726713">
<ele>829.0</ele>
<speed>10.3</speed>
<course>259.2</course>
<desc>Speed 10.3 km/h Distance 5.31 km</desc>
<time>2011-09-24T09:56:50.17</time>
<name>1292</name>
</trkpt>
<trkpt lat="41.804660" lon="-1.726748">
<ele>829.0</ele>
<speed>10.1</speed>
<course>255.0</course>
<desc>Speed 10.1 km/h Distance 5.32 km</desc>
<time>2011-09-24T09:56:51.17</time>
<name>1293</name>
</trkpt>
<trkpt lat="41.804653" lon="-1.726782">
<ele>829.0</ele>
<speed>10.6</speed>
<course>248.1</course>
<desc>Speed 10.6 km/h Distance 5.32 km</desc>
<time>2011-09-24T09:56:52.17</time>
<name>1294</name>
</trkpt>
<trkpt lat="41.804643" lon="-1.726815">
<ele>829.5</ele>
<speed>10.5</speed>
<course>254.2</course>
<desc>Speed 10.5 km/h Distance 5.32 km</desc>
<time>2011-09-24T09:56:53.16</time>
<name>1295</name>
</trkpt>
<trkpt lat="41.804637" lon="-1.726847">
<ele>829.5</ele>
<speed>10.7</speed>
<course>251.5</course>
<desc>Speed 10.7 km/h Distance 5.32 km</desc>
<time>2011-09-24T09:56:54.17</time>
<name>1296</name>
</trkpt>
<trkpt lat="41.804628" lon="-1.726880">
<ele>829.5</ele>
<speed>10.6</speed>
<course>251.5</course>
<desc>Speed 10.6 km/h Distance 5.33 km</desc>
<time>2011-09-24T09:56:55.16</time>
<name>1297</name>
</trkpt>
<trkpt lat="41.804620" lon="-1.726913">
<ele>830.0</ele>
<speed>10.3</speed>
<course>258.1</course>
<desc>Speed 10.3 km/h Distance 5.33 km</desc>
<time>2011-09-24T09:56:56.16</time>
<name>1298</name>
</trkpt>
<trkpt lat="41.804615" lon="-1.726945">
<ele>829.5</ele>
<speed>9.7</speed>
<course>254.2</course>
<desc>Speed 9.7 km/h Distance 5.33 km</desc>
<time>2011-09-24T09:56:57.17</time>
<name>1299</name>
</trkpt>
<trkpt lat="41.804608" lon="-1.726977">
<ele>829.0</ele>
<speed>10.1</speed>
<course>253.4</course>
<desc>Speed 10.1 km/h Distance 5.33 km</desc>
<time>2011-09-24T09:56:58.16</time>
<name>1300</name>
</trkpt>
<trkpt lat="41.804602" lon="-1.727007">
<ele>829.0</ele>
<speed>9.8</speed>
<course>252.5</course>
<desc>Speed 9.8 km/h Distance 5.34 km</desc>
<time>2011-09-24T09:56:59.16</time>
<name>1301</name>
</trkpt>
<trkpt lat="41.804595" lon="-1.727035">
<ele>828.0</ele>
<speed>9.8</speed>
<course>236.1</course>
<desc>Speed 9.8 km/h Distance 5.34 km</desc>
<time>2011-09-24T09:57:00.16</time>
<name>1302</name>
</trkpt>
<trkpt lat="41.804582" lon="-1.727062">
<ele>827.0</ele>
<speed>10.1</speed>
<course>241.1</course>
<desc>Speed 10.1 km/h Distance 5.34 km</desc>
<time>2011-09-24T09:57:01.16</time>
<name>1303</name>
</trkpt>
<trkpt lat="41.804570" lon="-1.727090">
<ele>826.5</ele>
<speed>10.4</speed>
<course>247.1</course>
<desc>Speed 10.4 km/h Distance 5.35 km</desc>
<time>2011-09-24T09:57:02.16</time>
<name>1304</name>
</trkpt>
<trkpt lat="41.804560" lon="-1.727122">
<ele>826.5</ele>
<speed>10.5</speed>
<course>250.6</course>
<desc>Speed 10.5 km/h Distance 5.35 km</desc>
<time>2011-09-24T09:57:03.16</time>
<name>1305</name>
</trkpt>
<trkpt lat="41.804552" lon="-1.727153">
<ele>827.0</ele>
<speed>10.2</speed>
<course>255.0</course>
<desc>Speed 10.2 km/h Distance 5.35 km</desc>
<time>2011-09-24T09:57:04.16</time>
<name>1306</name>
</trkpt>
<trkpt lat="41.804545" lon="-1.727187">
<ele>827.0</ele>
<speed>9.8</speed>
<course>255.7</course>
<desc>Speed 9.8 km/h Distance 5.35 km</desc>
<time>2011-09-24T09:57:05.15</time>
<name>1307</name>
</trkpt>
<trkpt lat="41.804538" lon="-1.727222">
<ele>827.5</ele>
<speed>10.4</speed>
<course>255.7</course>
<desc>Speed 10.4 km/h Distance 5.36 km</desc>
<time>2011-09-24T09:57:06.15</time>
<name>1308</name>
</trkpt>
<trkpt lat="41.804532" lon="-1.727257">
<ele>828.0</ele>
<speed>10.5</speed>
<course>244.9</course>
<desc>Speed 10.5 km/h Distance 5.36 km</desc>
<time>2011-09-24T09:57:07.16</time>
<name>1309</name>
</trkpt>
<trkpt lat="41.804520" lon="-1.727290">
<ele>828.5</ele>
<speed>11.1</speed>
<course>249.0</course>
<desc>Speed 11.1 km/h Distance 5.36 km</desc>
<time>2011-09-24T09:57:08.16</time>
<name>1310</name>
</trkpt>
<trkpt lat="41.804510" lon="-1.727325">
<ele>829.0</ele>
<speed>10.6</speed>
<course>254.2</course>
<desc>Speed 10.6 km/h Distance 5.37 km</desc>
<time>2011-09-24T09:57:09.16</time>
<name>1311</name>
</trkpt>
<trkpt lat="41.804503" lon="-1.727357">
<ele>829.0</ele>
<speed>9.8</speed>
<course>255.0</course>
<desc>Speed 9.8 km/h Distance 5.37 km</desc>
<time>2011-09-24T09:57:10.15</time>
<name>1312</name>
</trkpt>
<trkpt lat="41.804497" lon="-1.727390">
<ele>829.0</ele>
<speed>10.3</speed>
<course>241.8</course>
<desc>Speed 10.3 km/h Distance 5.37 km</desc>
<time>2011-09-24T09:57:11.15</time>
<name>1313</name>
</trkpt>
<trkpt lat="41.804483" lon="-1.727423">
<ele>829.5</ele>
<speed>10.6</speed>
<course>224.1</course>
<desc>Speed 10.6 km/h Distance 5.37 km</desc>
<time>2011-09-24T09:57:12.15</time>
<name>1314</name>
</trkpt>
<trkpt lat="41.804467" lon="-1.727445">
<ele>829.5</ele>
<speed>9.1</speed>
<course>252.5</course>
<desc>Speed 9.1 km/h Distance 5.38 km</desc>
<time>2011-09-24T09:57:13.15</time>
<name>1315</name>
</trkpt>
<trkpt lat="41.804460" lon="-1.727473">
<ele>829.5</ele>
<speed>8.7</speed>
<course>249.6</course>
<desc>Speed 8.7 km/h Distance 5.38 km</desc>
<time>2011-09-24T09:57:14.15</time>
<name>1316</name>
</trkpt>
<trkpt lat="41.804452" lon="-1.727503">
<ele>829.5</ele>
<speed>9.4</speed>
<course>227.5</course>
<desc>Speed 9.4 km/h Distance 5.38 km</desc>
<time>2011-09-24T09:57:15.16</time>
<name>1317</name>
</trkpt>
<trkpt lat="41.804430" lon="-1.727535">
<ele>830.5</ele>
<speed>12.7</speed>
<course>237.6</course>
<desc>Speed 12.7 km/h Distance 5.39 km</desc>
<time>2011-09-24T09:57:16.15</time>
<name>1318</name>
</trkpt>
<trkpt lat="41.804415" lon="-1.727567">
<ele>831.0</ele>
<speed>10.7</speed>
<course>251.5</course>
<desc>Speed 10.7 km/h Distance 5.39 km</desc>
<time>2011-09-24T09:57:17.15</time>
<name>1319</name>
</trkpt>
<trkpt lat="41.804407" lon="-1.727600">
<ele>831.0</ele>
<speed>10.4</speed>
<course>248.1</course>
<desc>Speed 10.4 km/h Distance 5.39 km</desc>
<time>2011-09-24T09:57:18.15</time>
<name>1320</name>
</trkpt>
<trkpt lat="41.804397" lon="-1.727633">
<ele>831.0</ele>
<speed>10.5</speed>
<course>243.7</course>
<desc>Speed 10.5 km/h Distance 5.40 km</desc>
<time>2011-09-24T09:57:19.15</time>
<name>1321</name>
</trkpt>
<trkpt lat="41.804385" lon="-1.727665">
<ele>831.5</ele>
<speed>10.5</speed>
<course>241.8</course>
<desc>Speed 10.5 km/h Distance 5.40 km</desc>
<time>2011-09-24T09:57:20.15</time>
<name>1322</name>
</trkpt>
<trkpt lat="41.804372" lon="-1.727698">
<ele>832.0</ele>
<speed>11.2</speed>
<course>244.9</course>
<desc>Speed 11.2 km/h Distance 5.40 km</desc>
<time>2011-09-24T09:57:21.15</time>
<name>1323</name>
</trkpt>
<trkpt lat="41.804360" lon="-1.727732">
<ele>832.0</ele>
<speed>10.5</speed>
<course>251.5</course>
<desc>Speed 10.5 km/h Distance 5.40 km</desc>
<time>2011-09-24T09:57:22.15</time>
<name>1324</name>
</trkpt>
<trkpt lat="41.804352" lon="-1.727765">
<ele>832.0</ele>
<speed>10.4</speed>
<course>241.8</course>
<desc>Speed 10.4 km/h Distance 5.41 km</desc>
<time>2011-09-24T09:57:23.15</time>
<name>1325</name>
</trkpt>
<trkpt lat="41.804338" lon="-1.727798">
<ele>833.0</ele>
<speed>11.3</speed>
<course>232.2</course>
<desc>Speed 11.3 km/h Distance 5.41 km</desc>
<time>2011-09-24T09:57:24.23</time>
<name>1326</name>
</trkpt>
<trkpt lat="41.804320" lon="-1.727830">
<ele>833.0</ele>
<speed>10.9</speed>
<course>234.8</course>
<desc>Speed 10.9 km/h Distance 5.41 km</desc>
<time>2011-09-24T09:57:25.27</time>
<name>1327</name>
</trkpt>
<trkpt lat="41.804303" lon="-1.727862">
<ele>833.5</ele>
<speed>11.1</speed>
<course>225.3</course>
<desc>Speed 11.1 km/h Distance 5.42 km</desc>
<time>2011-09-24T09:57:26.15</time>
<name>1328</name>
</trkpt>
<trkpt lat="41.804280" lon="-1.727893">
<ele>834.0</ele>
<speed>12.1</speed>
<course>213.9</course>
<desc>Speed 12.1 km/h Distance 5.42 km</desc>
<time>2011-09-24T09:57:27.14</time>
<name>1329</name>
</trkpt>
<trkpt lat="41.804247" lon="-1.727923">
<ele>835.0</ele>
<speed>13.5</speed>
<course>233.6</course>
<desc>Speed 13.5 km/h Distance 5.42 km</desc>
<time>2011-09-24T09:57:28.14</time>
<name>1330</name>
</trkpt>
<trkpt lat="41.804228" lon="-1.727957">
<ele>835.0</ele>
<speed>10.7</speed>
<course>255.7</course>
<desc>Speed 10.7 km/h Distance 5.43 km</desc>
<time>2011-09-24T09:57:29.14</time>
<name>1331</name>
</trkpt>
<trkpt lat="41.804222" lon="-1.727992">
<ele>834.5</ele>
<speed>10.7</speed>
<course>250.6</course>
<desc>Speed 10.7 km/h Distance 5.43 km</desc>
<time>2011-09-24T09:57:30.14</time>
<name>1332</name>
</trkpt>
<trkpt lat="41.804213" lon="-1.728023">
<ele>834.0</ele>
<speed>9.8</speed>
<course>248.1</course>
<desc>Speed 9.8 km/h Distance 5.43 km</desc>
<time>2011-09-24T09:57:31.13</time>
<name>1333</name>
</trkpt>
<trkpt lat="41.804203" lon="-1.728057">
<ele>834.0</ele>
<speed>10.4</speed>
<course>243.3</course>
<desc>Speed 10.4 km/h Distance 5.44 km</desc>
<time>2011-09-24T09:57:32.13</time>
<name>1334</name>
</trkpt>
<trkpt lat="41.804193" lon="-1.728083">
<ele>833.0</ele>
<speed>8.4</speed>
<course>251.5</course>
<desc>Speed 8.4 km/h Distance 5.44 km</desc>
<time>2011-09-24T09:57:33.14</time>
<name>1335</name>
</trkpt>
<trkpt lat="41.804185" lon="-1.728117">
<ele>833.0</ele>
<speed>10.4</speed>
<course>247.0</course>
<desc>Speed 10.4 km/h Distance 5.44 km</desc>
<time>2011-09-24T09:57:34.14</time>
<name>1336</name>
</trkpt>
<trkpt lat="41.804175" lon="-1.728148">
<ele>833.5</ele>
<speed>10.4</speed>
<course>248.1</course>
<desc>Speed 10.4 km/h Distance 5.45 km</desc>
<time>2011-09-24T09:57:35.14</time>
<name>1337</name>
</trkpt>
<trkpt lat="41.804165" lon="-1.728182">
<ele>833.5</ele>
<speed>10.2</speed>
<course>251.5</course>
<desc>Speed 10.2 km/h Distance 5.45 km</desc>
<time>2011-09-24T09:57:36.14</time>
<name>1338</name>
</trkpt>
<trkpt lat="41.804157" lon="-1.728215">
<ele>834.0</ele>
<speed>10.2</speed>
<course>247.2</course>
<desc>Speed 10.2 km/h Distance 5.45 km</desc>
<time>2011-09-24T09:57:37.13</time>
<name>1339</name>
</trkpt>
<trkpt lat="41.804148" lon="-1.728242">
<ele>832.5</ele>
<speed>8.5</speed>
<course>251.5</course>
<desc>Speed 8.5 km/h Distance 5.45 km</desc>
<time>2011-09-24T09:57:38.13</time>
<name>1340</name>
</trkpt>
<trkpt lat="41.804140" lon="-1.728275">
<ele>832.5</ele>
<speed>10.3</speed>
<course>256.3</course>
<desc>Speed 10.3 km/h Distance 5.46 km</desc>
<time>2011-09-24T09:57:39.13</time>
<name>1341</name>
</trkpt>
<trkpt lat="41.804133" lon="-1.728312">
<ele>832.5</ele>
<speed>11.0</speed>
<course>254.2</course>
<desc>Speed 11.0 km/h Distance 5.46 km</desc>
<time>2011-09-24T09:57:40.13</time>
<name>1342</name>
</trkpt>
<trkpt lat="41.804127" lon="-1.728343">
<ele>833.0</ele>
<speed>9.6</speed>
<course>270.0</course>
<desc>Speed 9.6 km/h Distance 5.46 km</desc>
<time>2011-09-24T09:57:41.14</time>
<name>1343</name>
</trkpt>
<trkpt lat="41.804127" lon="-1.728377">
<ele>833.0</ele>
<speed>9.4</speed>
<course>289.7</course>
<desc>Speed 9.4 km/h Distance 5.47 km</desc>
<time>2011-09-24T09:57:42.12</time>
<name>1344</name>
</trkpt>
<trkpt lat="41.804133" lon="-1.728402">
<ele>831.5</ele>
<speed>6.1</speed>
<course>230.5</course>
<desc>Speed 6.1 km/h Distance 5.47 km</desc>
<time>2011-09-24T09:57:43.13</time>
<name>1345</name>
</trkpt>
<trkpt lat="41.804120" lon="-1.728423">
<ele>831.0</ele>
<speed>9.2</speed>
<course>236.2</course>
<desc>Speed 9.2 km/h Distance 5.47 km</desc>
<time>2011-09-24T09:57:44.13</time>
<name>1346</name>
</trkpt>
<trkpt lat="41.804105" lon="-1.728453">
<ele>832.5</ele>
<speed>10.6</speed>
<course>230.0</course>
<desc>Speed 10.6 km/h Distance 5.47 km</desc>
<time>2011-09-24T09:57:45.14</time>
<name>1347</name>
</trkpt>
<trkpt lat="41.804088" lon="-1.728480">
<ele>833.0</ele>
<speed>10.8</speed>
<course>226.5</course>
<desc>Speed 10.8 km/h Distance 5.48 km</desc>
<time>2011-09-24T09:57:46.12</time>
<name>1348</name>
</trkpt>
<trkpt lat="41.804068" lon="-1.728508">
<ele>833.0</ele>
<speed>11.3</speed>
<course>280.4</course>
<desc>Speed 11.3 km/h Distance 5.48 km</desc>
<time>2011-09-24T09:57:47.13</time>
<name>1349</name>
</trkpt>
<trkpt lat="41.804073" lon="-1.728545">
<ele>833.0</ele>
<speed>10.5</speed>
<course>247.0</course>
<desc>Speed 10.5 km/h Distance 5.48 km</desc>
<time>2011-09-24T09:57:48.13</time>
<name>1350</name>
</trkpt>
<trkpt lat="41.804063" lon="-1.728577">
<ele>833.5</ele>
<speed>9.3</speed>
<course>258.6</course>
<desc>Speed 9.3 km/h Distance 5.48 km</desc>
<time>2011-09-24T09:57:49.12</time>
<name>1351</name>
</trkpt>
<trkpt lat="41.804058" lon="-1.728610">
<ele>833.5</ele>
<speed>9.9</speed>
<course>212.1</course>
<desc>Speed 9.9 km/h Distance 5.49 km</desc>
<time>2011-09-24T09:57:50.13</time>
<name>1352</name>
</trkpt>
<trkpt lat="41.804027" lon="-1.728637">
<ele>834.5</ele>
<speed>14.6</speed>
<course>297.1</course>
<desc>Speed 14.6 km/h Distance 5.49 km</desc>
<time>2011-09-24T09:57:51.12</time>
<name>1353</name>
</trkpt>
<trkpt lat="41.804040" lon="-1.728672">
<ele>836.0</ele>
<speed>11.5</speed>
<course>253.4</course>
<desc>Speed 11.5 km/h Distance 5.50 km</desc>
<time>2011-09-24T09:57:52.12</time>
<name>1354</name>
</trkpt>
<trkpt lat="41.804033" lon="-1.728702">
<ele>834.5</ele>
<speed>9.1</speed>
<course>262.0</course>
<desc>Speed 9.1 km/h Distance 5.50 km</desc>
<time>2011-09-24T09:57:53.12</time>
<name>1355</name>
</trkpt>
<trkpt lat="41.804030" lon="-1.728733">
<ele>834.0</ele>
<speed>9.2</speed>
<course>239.2</course>
<desc>Speed 9.2 km/h Distance 5.50 km</desc>
<time>2011-09-24T09:57:54.12</time>
<name>1356</name>
</trkpt>
<trkpt lat="41.804017" lon="-1.728763">
<ele>834.0</ele>
<speed>9.8</speed>
<course>244.7</course>
<desc>Speed 9.8 km/h Distance 5.50 km</desc>
<time>2011-09-24T09:57:55.12</time>
<name>1357</name>
</trkpt>
<trkpt lat="41.804007" lon="-1.728792">
<ele>835.0</ele>
<speed>8.6</speed>
<course>228.1</course>
<desc>Speed 8.6 km/h Distance 5.51 km</desc>
<time>2011-09-24T09:57:56.12</time>
<name>1358</name>
</trkpt>
<trkpt lat="41.803990" lon="-1.728817">
<ele>836.0</ele>
<speed>9.5</speed>
<course>245.9</course>
<desc>Speed 9.5 km/h Distance 5.51 km</desc>
<time>2011-09-24T09:57:57.12</time>
<name>1359</name>
</trkpt>
<trkpt lat="41.803980" lon="-1.728847">
<ele>836.5</ele>
<speed>8.6</speed>
<course>265.5</course>
<desc>Speed 8.6 km/h Distance 5.51 km</desc>
<time>2011-09-24T09:57:58.12</time>
<name>1360</name>
</trkpt>
<trkpt lat="41.803978" lon="-1.728875">
<ele>837.0</ele>
<speed>8.3</speed>
<course>252.5</course>
<desc>Speed 8.3 km/h Distance 5.51 km</desc>
<time>2011-09-24T09:57:59.12</time>
<name>1361</name>
</trkpt>
<trkpt lat="41.803972" lon="-1.728903">
<ele>837.0</ele>
<speed>8.2</speed>
<course>205.2</course>
<desc>Speed 8.2 km/h Distance 5.52 km</desc>
<time>2011-09-24T09:58:00.12</time>
<name>1362</name>
</trkpt>
<trkpt lat="41.803940" lon="-1.728923">
<ele>838.0</ele>
<speed>13.9</speed>
<course>281.9</course>
<desc>Speed 13.9 km/h Distance 5.52 km</desc>
<time>2011-09-24T09:58:01.12</time>
<name>1363</name>
</trkpt>
<trkpt lat="41.803945" lon="-1.728955">
<ele>838.0</ele>
<speed>9.1</speed>
<course>256.7</course>
<desc>Speed 9.1 km/h Distance 5.52 km</desc>
<time>2011-09-24T09:58:02.12</time>
<name>1364</name>
</trkpt>
<trkpt lat="41.803940" lon="-1.728983">
<ele>838.0</ele>
<speed>8.5</speed>
<course>243.3</course>
<desc>Speed 8.5 km/h Distance 5.53 km</desc>
<time>2011-09-24T09:58:03.12</time>
<name>1365</name>
</trkpt>
<trkpt lat="41.803930" lon="-1.729010">
<ele>838.5</ele>
<speed>8.9</speed>
<course>257.4</course>
<desc>Speed 8.9 km/h Distance 5.53 km</desc>
<time>2011-09-24T09:58:04.12</time>
<name>1366</name>
</trkpt>
<trkpt lat="41.803925" lon="-1.729040">
<ele>838.5</ele>
<speed>8.4</speed>
<course>257.4</course>
<desc>Speed 8.4 km/h Distance 5.53 km</desc>
<time>2011-09-24T09:58:05.12</time>
<name>1367</name>
</trkpt>
<trkpt lat="41.803920" lon="-1.729070">
<ele>838.5</ele>
<speed>8.6</speed>
<course>309.3</course>
<desc>Speed 8.6 km/h Distance 5.53 km</desc>
<time>2011-09-24T09:58:06.12</time>
<name>1368</name>
</trkpt>
<trkpt lat="41.803938" lon="-1.729100">
<ele>837.0</ele>
<speed>10.4</speed>
<course>247.0</course>
<desc>Speed 10.4 km/h Distance 5.54 km</desc>
<time>2011-09-24T09:58:07.12</time>
<name>1369</name>
</trkpt>
<trkpt lat="41.803928" lon="-1.729132">
<ele>837.5</ele>
<speed>10.3</speed>
<course>248.5</course>
<desc>Speed 10.3 km/h Distance 5.54 km</desc>
<time>2011-09-24T09:58:08.11</time>
<name>1370</name>
</trkpt>
<trkpt lat="41.803920" lon="-1.729160">
<ele>837.5</ele>
<speed>8.7</speed>
<course>262.0</course>
<desc>Speed 8.7 km/h Distance 5.54 km</desc>
<time>2011-09-24T09:58:09.12</time>
<name>1371</name>
</trkpt>
<trkpt lat="41.803917" lon="-1.729192">
<ele>838.0</ele>
<speed>8.6</speed>
<course>241.1</course>
<desc>Speed 8.6 km/h Distance 5.54 km</desc>
<time>2011-09-24T09:58:10.11</time>
<name>1372</name>
</trkpt>
<trkpt lat="41.803905" lon="-1.729220">
<ele>838.5</ele>
<speed>9.3</speed>
<course>256.7</course>
<desc>Speed 9.3 km/h Distance 5.55 km</desc>
<time>2011-09-24T09:58:11.11</time>
<name>1373</name>
</trkpt>
<trkpt lat="41.803900" lon="-1.729248">
<ele>838.5</ele>
<speed>8.4</speed>
<course>257.4</course>
<desc>Speed 8.4 km/h Distance 5.55 km</desc>
<time>2011-09-24T09:58:12.10</time>
<name>1374</name>
</trkpt>
<trkpt lat="41.803895" lon="-1.729278">
<ele>838.5</ele>
<speed>8.5</speed>
<course>243.3</course>
<desc>Speed 8.5 km/h Distance 5.55 km</desc>
<time>2011-09-24T09:58:13.10</time>
<name>1375</name>
</trkpt>
<trkpt lat="41.803885" lon="-1.729305">
<ele>838.5</ele>
<speed>8.7</speed>
<course>231.2</course>
<desc>Speed 8.7 km/h Distance 5.55 km</desc>
<time>2011-09-24T09:58:14.10</time>
<name>1376</name>
</trkpt>
<trkpt lat="41.803870" lon="-1.729330">
<ele>838.5</ele>
<speed>9.0</speed>
<course>236.1</course>
<desc>Speed 9.0 km/h Distance 5.56 km</desc>
<time>2011-09-24T09:58:15.11</time>
<name>1377</name>
</trkpt>
<trkpt lat="41.803857" lon="-1.729357">
<ele>838.5</ele>
<speed>9.3</speed>
<course>303.9</course>
<desc>Speed 9.3 km/h Distance 5.56 km</desc>
<time>2011-09-24T09:58:16.11</time>
<name>1378</name>
</trkpt>
<trkpt lat="41.803870" lon="-1.729383">
<ele>837.0</ele>
<speed>9.2</speed>
<course>274.8</course>
<desc>Speed 9.2 km/h Distance 5.56 km</desc>
<time>2011-09-24T09:58:17.11</time>
<name>1379</name>
</trkpt>
<trkpt lat="41.803872" lon="-1.729410">
<ele>836.5</ele>
<speed>7.3</speed>
<course>265.5</course>
<desc>Speed 7.3 km/h Distance 5.56 km</desc>
<time>2011-09-24T09:58:18.10</time>
<name>1380</name>
</trkpt>
<trkpt lat="41.803870" lon="-1.729438">
<ele>835.5</ele>
<speed>7.9</speed>
<course>249.6</course>
<desc>Speed 7.9 km/h Distance 5.57 km</desc>
<time>2011-09-24T09:58:19.11</time>
<name>1381</name>
</trkpt>
<trkpt lat="41.803862" lon="-1.729468">
<ele>835.5</ele>
<speed>8.9</speed>
<course>237.9</course>
<desc>Speed 8.9 km/h Distance 5.57 km</desc>
<time>2011-09-24T09:58:20.11</time>
<name>1382</name>
</trkpt>
<trkpt lat="41.803850" lon="-1.729493">
<ele>835.5</ele>
<speed>8.7</speed>
<course>229.2</course>
<desc>Speed 8.7 km/h Distance 5.57 km</desc>
<time>2011-09-24T09:58:21.10</time>
<name>1383</name>
</trkpt>
<trkpt lat="41.803835" lon="-1.729517">
<ele>835.5</ele>
<speed>9.5</speed>
<course>241.1</course>
<desc>Speed 9.5 km/h Distance 5.57 km</desc>
<time>2011-09-24T09:58:22.10</time>
<name>1384</name>
</trkpt>
<trkpt lat="41.803823" lon="-1.729545">
<ele>836.0</ele>
<speed>9.1</speed>
<course>242.4</course>
<desc>Speed 9.1 km/h Distance 5.58 km</desc>
<time>2011-09-24T09:58:23.11</time>
<name>1385</name>
</trkpt>
<trkpt lat="41.803812" lon="-1.729575">
<ele>836.0</ele>
<speed>8.9</speed>
<course>260.5</course>
<desc>Speed 8.9 km/h Distance 5.58 km</desc>
<time>2011-09-24T09:58:24.11</time>
<name>1386</name>
</trkpt>
<trkpt lat="41.803808" lon="-1.729602">
<ele>835.5</ele>
<speed>8.0</speed>
<course>253.4</course>
<desc>Speed 8.0 km/h Distance 5.58 km</desc>
<time>2011-09-24T09:58:25.11</time>
<name>1387</name>
</trkpt>
<trkpt lat="41.803802" lon="-1.729632">
<ele>835.5</ele>
<speed>8.4</speed>
<course>252.5</course>
<desc>Speed 8.4 km/h Distance 5.58 km</desc>
<time>2011-09-24T09:58:26.11</time>
<name>1388</name>
</trkpt>
<trkpt lat="41.803795" lon="-1.729660">
<ele>835.0</ele>
<speed>8.7</speed>
<course>244.7</course>
<desc>Speed 8.7 km/h Distance 5.59 km</desc>
<time>2011-09-24T09:58:27.10</time>
<name>1389</name>
</trkpt>
<trkpt lat="41.803785" lon="-1.729688">
<ele>835.5</ele>
<speed>8.9</speed>
<course>244.7</course>
<desc>Speed 8.9 km/h Distance 5.59 km</desc>
<time>2011-09-24T09:58:28.10</time>
<name>1390</name>
</trkpt>
<trkpt lat="41.803775" lon="-1.729717">
<ele>835.5</ele>
<speed>8.9</speed>
<course>253.4</course>
<desc>Speed 8.9 km/h Distance 5.59 km</desc>
<time>2011-09-24T09:58:29.10</time>
<name>1391</name>
</trkpt>
<trkpt lat="41.803768" lon="-1.729747">
<ele>836.0</ele>
<speed>8.7</speed>
<course>241.1</course>
<desc>Speed 8.7 km/h Distance 5.59 km</desc>
<time>2011-09-24T09:58:30.10</time>
<name>1392</name>
</trkpt>
<trkpt lat="41.803757" lon="-1.729775">
<ele>836.5</ele>
<speed>9.0</speed>
<course>239.6</course>
<desc>Speed 9.0 km/h Distance 5.60 km</desc>
<time>2011-09-24T09:58:31.10</time>
<name>1393</name>
</trkpt>
<trkpt lat="41.803745" lon="-1.729802">
<ele>837.0</ele>
<speed>9.0</speed>
<course>248.5</course>
<desc>Speed 9.0 km/h Distance 5.60 km</desc>
<time>2011-09-24T09:58:32.10</time>
<name>1394</name>
</trkpt>
<trkpt lat="41.803737" lon="-1.729830">
<ele>837.5</ele>
<speed>8.8</speed>
<course>237.7</course>
<desc>Speed 8.8 km/h Distance 5.60 km</desc>
<time>2011-09-24T09:58:33.10</time>
<name>1395</name>
</trkpt>
<trkpt lat="41.803723" lon="-1.729858">
<ele>837.5</ele>
<speed>8.9</speed>
<course>285.0</course>
<desc>Speed 8.9 km/h Distance 5.61 km</desc>
<time>2011-09-24T09:58:34.09</time>
<name>1396</name>
</trkpt>
<trkpt lat="41.803730" lon="-1.729892">
<ele>838.0</ele>
<speed>10.4</speed>
<course>254.2</course>
<desc>Speed 10.4 km/h Distance 5.61 km</desc>
<time>2011-09-24T09:58:35.09</time>
<name>1397</name>
</trkpt>
<trkpt lat="41.803723" lon="-1.729923">
<ele>838.5</ele>
<speed>9.4</speed>
<course>253.4</course>
<desc>Speed 9.4 km/h Distance 5.61 km</desc>
<time>2011-09-24T09:58:36.10</time>
<name>1398</name>
</trkpt>
<trkpt lat="41.803717" lon="-1.729953">
<ele>838.5</ele>
<speed>9.0</speed>
<course>257.4</course>
<desc>Speed 9.0 km/h Distance 5.61 km</desc>
<time>2011-09-24T09:58:37.10</time>
<name>1399</name>
</trkpt>
<trkpt lat="41.803712" lon="-1.729983">
<ele>839.0</ele>
<speed>9.0</speed>
<course>262.0</course>
<desc>Speed 9.0 km/h Distance 5.62 km</desc>
<time>2011-09-24T09:58:38.09</time>
<name>1400</name>
</trkpt>
<trkpt lat="41.803708" lon="-1.730015">
<ele>839.0</ele>
<speed>8.9</speed>
<course>250.6</course>
<desc>Speed 8.9 km/h Distance 5.62 km</desc>
<time>2011-09-24T09:58:39.09</time>
<name>1401</name>
</trkpt>
<trkpt lat="41.803700" lon="-1.730047">
<ele>839.5</ele>
<speed>9.4</speed>
<course>257.4</course>
<desc>Speed 9.4 km/h Distance 5.62 km</desc>
<time>2011-09-24T09:58:40.09</time>
<name>1402</name>
</trkpt>
<trkpt lat="41.803695" lon="-1.730077">
<ele>839.5</ele>
<speed>9.1</speed>
<course>254.2</course>
<desc>Speed 9.1 km/h Distance 5.62 km</desc>
<time>2011-09-24T09:58:41.10</time>
<name>1403</name>
</trkpt>
<trkpt lat="41.803688" lon="-1.730108">
<ele>839.5</ele>
<speed>8.9</speed>
<course>252.5</course>
<desc>Speed 8.9 km/h Distance 5.63 km</desc>
<time>2011-09-24T09:58:42.09</time>
<name>1404</name>
</trkpt>
<trkpt lat="41.803682" lon="-1.730137">
<ele>839.5</ele>
<speed>9.0</speed>
<course>257.4</course>
<desc>Speed 9.0 km/h Distance 5.63 km</desc>
<time>2011-09-24T09:58:43.08</time>
<name>1405</name>
</trkpt>
<trkpt lat="41.803677" lon="-1.730167">
<ele>839.5</ele>
<speed>9.1</speed>
<course>262.0</course>
<desc>Speed 9.1 km/h Distance 5.63 km</desc>
<time>2011-09-24T09:58:44.08</time>
<name>1406</name>
</trkpt>
<trkpt lat="41.803673" lon="-1.730198">
<ele>840.0</ele>
<speed>9.3</speed>
<course>262.4</course>
<desc>Speed 9.3 km/h Distance 5.63 km</desc>
<time>2011-09-24T09:58:45.08</time>
<name>1407</name>
</trkpt>
<trkpt lat="41.803670" lon="-1.730232">
<ele>840.0</ele>
<speed>9.1</speed>
<course>257.4</course>
<desc>Speed 9.1 km/h Distance 5.64 km</desc>
<time>2011-09-24T09:58:46.08</time>
<name>1408</name>
</trkpt>
<trkpt lat="41.803665" lon="-1.730262">
<ele>840.5</ele>
<speed>8.9</speed>
<course>247.0</course>
<desc>Speed 8.9 km/h Distance 5.64 km</desc>
<time>2011-09-24T09:58:47.08</time>
<name>1409</name>
</trkpt>
<trkpt lat="41.803655" lon="-1.730293">
<ele>841.0</ele>
<speed>9.4</speed>
<course>258.1</course>
<desc>Speed 9.4 km/h Distance 5.64 km</desc>
<time>2011-09-24T09:58:48.08</time>
<name>1410</name>
</trkpt>
<trkpt lat="41.803650" lon="-1.730325">
<ele>841.0</ele>
<speed>9.3</speed>
<course>258.0</course>
<desc>Speed 9.3 km/h Distance 5.65 km</desc>
<time>2011-09-24T09:58:49.08</time>
<name>1411</name>
</trkpt>
<trkpt lat="41.803645" lon="-1.730357">
<ele>841.5</ele>
<speed>9.1</speed>
<course>254.2</course>
<desc>Speed 9.1 km/h Distance 5.65 km</desc>
<time>2011-09-24T09:58:50.08</time>
<name>1412</name>
</trkpt>
<trkpt lat="41.803638" lon="-1.730388">
<ele>841.5</ele>
<speed>9.2</speed>
<course>250.6</course>
<desc>Speed 9.2 km/h Distance 5.65 km</desc>
<time>2011-09-24T09:58:51.09</time>
<name>1413</name>
</trkpt>
<trkpt lat="41.803630" lon="-1.730420">
<ele>842.0</ele>
<speed>9.4</speed>
<course>253.4</course>
<desc>Speed 9.4 km/h Distance 5.65 km</desc>
<time>2011-09-24T09:58:52.09</time>
<name>1414</name>
</trkpt>
<trkpt lat="41.803623" lon="-1.730450">
<ele>842.0</ele>
<speed>9.2</speed>
<course>258.6</course>
<desc>Speed 9.2 km/h Distance 5.66 km</desc>
<time>2011-09-24T09:58:53.08</time>
<name>1415</name>
</trkpt>
<trkpt lat="41.803618" lon="-1.730483">
<ele>842.5</ele>
<speed>9.1</speed>
<course>245.9</course>
<desc>Speed 9.1 km/h Distance 5.66 km</desc>
<time>2011-09-24T09:58:54.08</time>
<name>1416</name>
</trkpt>
<trkpt lat="41.803608" lon="-1.730513">
<ele>843.5</ele>
<speed>9.0</speed>
<course>250.6</course>
<desc>Speed 9.0 km/h Distance 5.66 km</desc>
<time>2011-09-24T09:58:55.08</time>
<name>1417</name>
</trkpt>
<trkpt lat="41.803600" lon="-1.730545">
<ele>844.0</ele>
<speed>9.4</speed>
<course>258.0</course>
<desc>Speed 9.4 km/h Distance 5.66 km</desc>
<time>2011-09-24T09:58:56.08</time>
<name>1418</name>
</trkpt>
<trkpt lat="41.803595" lon="-1.730577">
<ele>844.5</ele>
<speed>9.0</speed>
<course>249.0</course>
<desc>Speed 9.0 km/h Distance 5.67 km</desc>
<time>2011-09-24T09:58:57.08</time>
<name>1419</name>
</trkpt>
<trkpt lat="41.803588" lon="-1.730600">
<ele>843.5</ele>
<speed>7.5</speed>
<course>253.4</course>
<desc>Speed 7.5 km/h Distance 5.67 km</desc>
<time>2011-09-24T09:58:58.08</time>
<name>1420</name>
</trkpt>
<trkpt lat="41.803582" lon="-1.730630">
<ele>843.5</ele>
<speed>8.6</speed>
<course>245.9</course>
<desc>Speed 8.6 km/h Distance 5.67 km</desc>
<time>2011-09-24T09:58:59.07</time>
<name>1421</name>
</trkpt>
<trkpt lat="41.803572" lon="-1.730660">
<ele>843.5</ele>
<speed>9.6</speed>
<course>250.6</course>
<desc>Speed 9.6 km/h Distance 5.67 km</desc>
<time>2011-09-24T09:59:00.07</time>
<name>1422</name>
</trkpt>
<trkpt lat="41.803563" lon="-1.730692">
<ele>843.5</ele>
<speed>9.4</speed>
<course>252.5</course>
<desc>Speed 9.4 km/h Distance 5.68 km</desc>
<time>2011-09-24T09:59:01.07</time>
<name>1423</name>
</trkpt>
<trkpt lat="41.803557" lon="-1.730720">
<ele>844.0</ele>
<speed>9.0</speed>
<course>254.2</course>
<desc>Speed 9.0 km/h Distance 5.68 km</desc>
<time>2011-09-24T09:59:02.07</time>
<name>1424</name>
</trkpt>
<trkpt lat="41.803550" lon="-1.730752">
<ele>844.0</ele>
<speed>9.1</speed>
<course>249.6</course>
<desc>Speed 9.1 km/h Distance 5.68 km</desc>
<time>2011-09-24T09:59:03.07</time>
<name>1425</name>
</trkpt>
<trkpt lat="41.803542" lon="-1.730782">
<ele>844.5</ele>
<speed>9.4</speed>
<course>270.0</course>
<desc>Speed 9.4 km/h Distance 5.69 km</desc>
<time>2011-09-24T09:59:04.08</time>
<name>1426</name>
</trkpt>
<trkpt lat="41.803542" lon="-1.730813">
<ele>845.0</ele>
<speed>9.1</speed>
<course>245.9</course>
<desc>Speed 9.1 km/h Distance 5.69 km</desc>
<time>2011-09-24T09:59:05.08</time>
<name>1427</name>
</trkpt>
<trkpt lat="41.803532" lon="-1.730843">
<ele>845.0</ele>
<speed>9.4</speed>
<course>230.0</course>
<desc>Speed 9.4 km/h Distance 5.69 km</desc>
<time>2011-09-24T09:59:06.08</time>
<name>1428</name>
</trkpt>
<trkpt lat="41.803515" lon="-1.730870">
<ele>845.5</ele>
<speed>10.7</speed>
<course>248.5</course>
<desc>Speed 10.7 km/h Distance 5.69 km</desc>
<time>2011-09-24T09:59:07.07</time>
<name>1429</name>
</trkpt>
<trkpt lat="41.803507" lon="-1.730898">
<ele>846.0</ele>
<speed>8.4</speed>
<course>247.3</course>
<desc>Speed 8.4 km/h Distance 5.70 km</desc>
<time>2011-09-24T09:59:08.09</time>
<name>1430</name>
</trkpt>
<trkpt lat="41.803498" lon="-1.730925">
<ele>846.5</ele>
<speed>8.6</speed>
<course>241.1</course>
<desc>Speed 8.6 km/h Distance 5.70 km</desc>
<time>2011-09-24T09:59:09.07</time>
<name>1431</name>
</trkpt>
<trkpt lat="41.803487" lon="-1.730953">
<ele>847.0</ele>
<speed>9.2</speed>
<course>248.5</course>
<desc>Speed 9.2 km/h Distance 5.70 km</desc>
<time>2011-09-24T09:59:10.07</time>
<name>1432</name>
</trkpt>
<trkpt lat="41.803478" lon="-1.730982">
<ele>847.5</ele>
<speed>8.7</speed>
<course>249.6</course>
<desc>Speed 8.7 km/h Distance 5.70 km</desc>
<time>2011-09-24T09:59:11.06</time>
<name>1433</name>
</trkpt>
<trkpt lat="41.803470" lon="-1.731012">
<ele>848.0</ele>
<speed>8.7</speed>
<course>243.3</course>
<desc>Speed 8.7 km/h Distance 5.71 km</desc>
<time>2011-09-24T09:59:12.06</time>
<name>1434</name>
</trkpt>
<trkpt lat="41.803460" lon="-1.731038">
<ele>848.5</ele>
<speed>8.4</speed>
<course>232.5</course>
<desc>Speed 8.4 km/h Distance 5.71 km</desc>
<time>2011-09-24T09:59:13.06</time>
<name>1435</name>
</trkpt>
<trkpt lat="41.803447" lon="-1.731062">
<ele>849.0</ele>
<speed>9.0</speed>
<course>238.0</course>
<desc>Speed 9.0 km/h Distance 5.71 km</desc>
<time>2011-09-24T09:59:14.06</time>
<name>1436</name>
</trkpt>
<trkpt lat="41.803435" lon="-1.731087">
<ele>849.0</ele>
<speed>8.7</speed>
<course>247.3</course>
<desc>Speed 8.7 km/h Distance 5.71 km</desc>
<time>2011-09-24T09:59:15.06</time>
<name>1437</name>
</trkpt>
<trkpt lat="41.803427" lon="-1.731113">
<ele>849.0</ele>
<speed>8.4</speed>
<course>245.9</course>
<desc>Speed 8.4 km/h Distance 5.72 km</desc>
<time>2011-09-24T09:59:16.06</time>
<name>1438</name>
</trkpt>
<trkpt lat="41.803418" lon="-1.731138">
<ele>849.5</ele>
<speed>8.4</speed>
<course>244.7</course>
<desc>Speed 8.4 km/h Distance 5.72 km</desc>
<time>2011-09-24T09:59:17.06</time>
<name>1439</name>
</trkpt>
<trkpt lat="41.803408" lon="-1.731167">
<ele>850.0</ele>
<speed>8.5</speed>
<course>243.3</course>
<desc>Speed 8.5 km/h Distance 5.72 km</desc>
<time>2011-09-24T09:59:18.06</time>
<name>1440</name>
</trkpt>
<trkpt lat="41.803398" lon="-1.731193">
<ele>850.5</ele>
<speed>8.6</speed>
<course>239.6</course>
<desc>Speed 8.6 km/h Distance 5.72 km</desc>
<time>2011-09-24T09:59:19.06</time>
<name>1441</name>
</trkpt>
<trkpt lat="41.803387" lon="-1.731220">
<ele>851.0</ele>
<speed>8.7</speed>
<course>239.6</course>
<desc>Speed 8.7 km/h Distance 5.73 km</desc>
<time>2011-09-24T09:59:20.06</time>
<name>1442</name>
</trkpt>
<trkpt lat="41.803375" lon="-1.731247">
<ele>851.0</ele>
<speed>8.8</speed>
<course>239.6</course>
<desc>Speed 8.8 km/h Distance 5.73 km</desc>
<time>2011-09-24T09:59:21.06</time>
<name>1443</name>
</trkpt>
<trkpt lat="41.803363" lon="-1.731273">
<ele>851.5</ele>
<speed>8.6</speed>
<course>239.6</course>
<desc>Speed 8.6 km/h Distance 5.73 km</desc>
<time>2011-09-24T09:59:22.06</time>
<name>1444</name>
</trkpt>
<trkpt lat="41.803352" lon="-1.731300">
<ele>852.0</ele>
<speed>9.2</speed>
<course>236.1</course>
<desc>Speed 9.2 km/h Distance 5.73 km</desc>
<time>2011-09-24T09:59:23.05</time>
<name>1445</name>
</trkpt>
<trkpt lat="41.803338" lon="-1.731327">
<ele>852.5</ele>
<speed>9.1</speed>
<course>239.6</course>
<desc>Speed 9.1 km/h Distance 5.74 km</desc>
<time>2011-09-24T09:59:24.06</time>
<name>1446</name>
</trkpt>
<trkpt lat="41.803327" lon="-1.731353">
<ele>853.0</ele>
<speed>9.2</speed>
<course>236.1</course>
<desc>Speed 9.2 km/h Distance 5.74 km</desc>
<time>2011-09-24T09:59:25.06</time>
<name>1447</name>
</trkpt>
<trkpt lat="41.803313" lon="-1.731380">
<ele>853.5</ele>
<speed>9.1</speed>
<course>239.6</course>
<desc>Speed 9.1 km/h Distance 5.74 km</desc>
<time>2011-09-24T09:59:26.05</time>
<name>1448</name>
</trkpt>
<trkpt lat="41.803302" lon="-1.731407">
<ele>854.0</ele>
<speed>9.4</speed>
<course>245.9</course>
<desc>Speed 9.4 km/h Distance 5.74 km</desc>
<time>2011-09-24T09:59:27.05</time>
<name>1449</name>
</trkpt>
<trkpt lat="41.803292" lon="-1.731437">
<ele>854.0</ele>
<speed>9.4</speed>
<course>247.6</course>
<desc>Speed 9.4 km/h Distance 5.75 km</desc>
<time>2011-09-24T09:59:28.05</time>
<name>1450</name>
</trkpt>
<trkpt lat="41.803285" lon="-1.731458">
<ele>854.0</ele>
<speed>7.2</speed>
<course>247.3</course>
<desc>Speed 7.2 km/h Distance 5.75 km</desc>
<time>2011-09-24T09:59:29.05</time>
<name>1451</name>
</trkpt>
<trkpt lat="41.803277" lon="-1.731485">
<ele>853.5</ele>
<speed>8.2</speed>
<course>247.3</course>
<desc>Speed 8.2 km/h Distance 5.75 km</desc>
<time>2011-09-24T09:59:30.06</time>
<name>1452</name>
</trkpt>
<trkpt lat="41.803268" lon="-1.731512">
<ele>853.0</ele>
<speed>8.7</speed>
<course>245.9</course>
<desc>Speed 8.7 km/h Distance 5.75 km</desc>
<time>2011-09-24T09:59:31.05</time>
<name>1453</name>
</trkpt>
<trkpt lat="41.803258" lon="-1.731542">
<ele>853.5</ele>
<speed>9.3</speed>
<course>265.5</course>
<desc>Speed 9.3 km/h Distance 5.76 km</desc>
<time>2011-09-24T09:59:32.05</time>
<name>1454</name>
</trkpt>
<trkpt lat="41.803257" lon="-1.731570">
<ele>853.0</ele>
<speed>8.7</speed>
<course>241.1</course>
<desc>Speed 8.7 km/h Distance 5.76 km</desc>
<time>2011-09-24T09:59:33.05</time>
<name>1455</name>
</trkpt>
<trkpt lat="41.803245" lon="-1.731598">
<ele>853.5</ele>
<speed>9.2</speed>
<course>239.2</course>
<desc>Speed 9.2 km/h Distance 5.76 km</desc>
<time>2011-09-24T09:59:34.06</time>
<name>1456</name>
</trkpt>
<trkpt lat="41.803232" lon="-1.731628">
<ele>854.0</ele>
<speed>9.7</speed>
<course>247.2</course>
<desc>Speed 9.7 km/h Distance 5.76 km</desc>
<time>2011-09-24T09:59:35.05</time>
<name>1457</name>
</trkpt>
<trkpt lat="41.803223" lon="-1.731655">
<ele>854.0</ele>
<speed>9.1</speed>
<course>241.1</course>
<desc>Speed 9.1 km/h Distance 5.77 km</desc>
<time>2011-09-24T09:59:36.06</time>
<name>1458</name>
</trkpt>
<trkpt lat="41.803212" lon="-1.731683">
<ele>854.0</ele>
<speed>8.9</speed>
<course>239.6</course>
<desc>Speed 8.9 km/h Distance 5.77 km</desc>
<time>2011-09-24T09:59:37.06</time>
<name>1459</name>
</trkpt>
<trkpt lat="41.803200" lon="-1.731710">
<ele>854.5</ele>
<speed>8.8</speed>
<course>239.6</course>
<desc>Speed 8.8 km/h Distance 5.77 km</desc>
<time>2011-09-24T09:59:38.06</time>
<name>1460</name>
</trkpt>
<trkpt lat="41.803188" lon="-1.731737">
<ele>855.0</ele>
<speed>8.9</speed>
<course>244.7</course>
<desc>Speed 8.9 km/h Distance 5.77 km</desc>
<time>2011-09-24T09:59:39.06</time>
<name>1461</name>
</trkpt>
<trkpt lat="41.803178" lon="-1.731765">
<ele>855.5</ele>
<speed>8.9</speed>
<course>237.7</course>
<desc>Speed 8.9 km/h Distance 5.78 km</desc>
<time>2011-09-24T09:59:40.05</time>
<name>1462</name>
</trkpt>
<trkpt lat="41.803165" lon="-1.731793">
<ele>855.0</ele>
<speed>9.5</speed>
<course>249.6</course>
<desc>Speed 9.5 km/h Distance 5.78 km</desc>
<time>2011-09-24T09:59:41.05</time>
<name>1463</name>
</trkpt>
<trkpt lat="41.803157" lon="-1.731823">
<ele>855.5</ele>
<speed>9.0</speed>
<course>253.4</course>
<desc>Speed 9.0 km/h Distance 5.78 km</desc>
<time>2011-09-24T09:59:42.05</time>
<name>1464</name>
</trkpt>
<trkpt lat="41.803150" lon="-1.731853">
<ele>856.0</ele>
<speed>9.0</speed>
<course>249.6</course>
<desc>Speed 9.0 km/h Distance 5.79 km</desc>
<time>2011-09-24T09:59:43.06</time>
<name>1465</name>
</trkpt>
<trkpt lat="41.803142" lon="-1.731883">
<ele>856.5</ele>
<speed>9.1</speed>
<course>261.0</course>
<desc>Speed 9.1 km/h Distance 5.79 km</desc>
<time>2011-09-24T09:59:44.04</time>
<name>1466</name>
</trkpt>
<trkpt lat="41.803138" lon="-1.731912">
<ele>856.5</ele>
<speed>8.5</speed>
<course>261.5</course>
<desc>Speed 8.5 km/h Distance 5.79 km</desc>
<time>2011-09-24T09:59:45.04</time>
<name>1467</name>
</trkpt>
<trkpt lat="41.803135" lon="-1.731942">
<ele>857.0</ele>
<speed>8.6</speed>
<course>258.1</course>
<desc>Speed 8.6 km/h Distance 5.79 km</desc>
<time>2011-09-24T09:59:46.04</time>
<name>1468</name>
</trkpt>
<trkpt lat="41.803130" lon="-1.731973">
<ele>858.0</ele>
<speed>9.2</speed>
<course>248.5</course>
<desc>Speed 9.2 km/h Distance 5.80 km</desc>
<time>2011-09-24T09:59:47.04</time>
<name>1469</name>
</trkpt>
<trkpt lat="41.803122" lon="-1.732002">
<ele>858.0</ele>
<speed>8.9</speed>
<course>253.4</course>
<desc>Speed 8.9 km/h Distance 5.80 km</desc>
<time>2011-09-24T09:59:48.05</time>
<name>1470</name>
</trkpt>
<trkpt lat="41.803115" lon="-1.732032">
<ele>858.5</ele>
<speed>9.1</speed>
<course>262.0</course>
<desc>Speed 9.1 km/h Distance 5.80 km</desc>
<time>2011-09-24T09:59:49.04</time>
<name>1471</name>
</trkpt>
<trkpt lat="41.803112" lon="-1.732063">
<ele>858.5</ele>
<speed>9.1</speed>
<course>261.5</course>
<desc>Speed 9.1 km/h Distance 5.80 km</desc>
<time>2011-09-24T09:59:50.04</time>
<name>1472</name>
</trkpt>
<trkpt lat="41.803108" lon="-1.732093">
<ele>858.5</ele>
<speed>9.1</speed>
<course>254.2</course>
<desc>Speed 9.1 km/h Distance 5.81 km</desc>
<time>2011-09-24T09:59:51.04</time>
<name>1473</name>
</trkpt>
<trkpt lat="41.803102" lon="-1.732125">
<ele>858.5</ele>
<speed>9.3</speed>
<course>253.4</course>
<desc>Speed 9.3 km/h Distance 5.81 km</desc>
<time>2011-09-24T09:59:52.05</time>
<name>1474</name>
</trkpt>
<trkpt lat="41.803095" lon="-1.732155">
<ele>858.5</ele>
<speed>9.1</speed>
<course>250.6</course>
<desc>Speed 9.1 km/h Distance 5.81 km</desc>
<time>2011-09-24T09:59:53.04</time>
<name>1475</name>
</trkpt>
<trkpt lat="41.803087" lon="-1.732187">
<ele>858.5</ele>
<speed>9.3</speed>
<course>249.6</course>
<desc>Speed 9.3 km/h Distance 5.81 km</desc>
<time>2011-09-24T09:59:54.04</time>
<name>1476</name>
</trkpt>
<trkpt lat="41.803078" lon="-1.732217">
<ele>859.0</ele>
<speed>9.4</speed>
<course>254.2</course>
<desc>Speed 9.4 km/h Distance 5.82 km</desc>
<time>2011-09-24T09:59:55.04</time>
<name>1477</name>
</trkpt>
<trkpt lat="41.803072" lon="-1.732248">
<ele>859.0</ele>
<speed>9.4</speed>
<course>249.6</course>
<desc>Speed 9.4 km/h Distance 5.82 km</desc>
<time>2011-09-24T09:59:56.04</time>
<name>1478</name>
</trkpt>
<trkpt lat="41.803063" lon="-1.732278">
<ele>859.0</ele>
<speed>9.3</speed>
<course>258.1</course>
<desc>Speed 9.3 km/h Distance 5.82 km</desc>
<time>2011-09-24T09:59:57.04</time>
<name>1479</name>
</trkpt>
<trkpt lat="41.803058" lon="-1.732310">
<ele>859.0</ele>
<speed>9.4</speed>
<course>247.0</course>
<desc>Speed 9.4 km/h Distance 5.82 km</desc>
<time>2011-09-24T09:59:58.04</time>
<name>1480</name>
</trkpt>
<trkpt lat="41.803048" lon="-1.732342">
<ele>859.0</ele>
<speed>10.2</speed>
<course>234.6</course>
<desc>Speed 10.2 km/h Distance 5.83 km</desc>
<time>2011-09-24T09:59:59.03</time>
<name>1481</name>
</trkpt>
<trkpt lat="41.803033" lon="-1.732370">
<ele>859.5</ele>
<speed>10.1</speed>
<course>222.2</course>
<desc>Speed 10.1 km/h Distance 5.83 km</desc>
<time>2011-09-24T10:00:00.03</time>
<name>1482</name>
</trkpt>
<trkpt lat="41.803010" lon="-1.732398">
<ele>861.0</ele>
<speed>12.5</speed>
<course>227.3</course>
<desc>Speed 12.5 km/h Distance 5.83 km</desc>
<time>2011-09-24T10:00:01.03</time>
<name>1483</name>
</trkpt>
<trkpt lat="41.802992" lon="-1.732425">
<ele>861.0</ele>
<speed>9.8</speed>
<course>219.0</course>
<desc>Speed 9.8 km/h Distance 5.84 km</desc>
<time>2011-09-24T10:00:02.04</time>
<name>1484</name>
</trkpt>
<trkpt lat="41.802972" lon="-1.732447">
<ele>861.0</ele>
<speed>10.4</speed>
<course>230.0</course>
<desc>Speed 10.4 km/h Distance 5.84 km</desc>
<time>2011-09-24T10:00:03.04</time>
<name>1485</name>
</trkpt>
<trkpt lat="41.802955" lon="-1.732473">
<ele>861.5</ele>
<speed>10.5</speed>
<course>237.9</course>
<desc>Speed 10.5 km/h Distance 5.84 km</desc>
<time>2011-09-24T10:00:04.04</time>
<name>1486</name>
</trkpt>
<trkpt lat="41.802943" lon="-1.732498">
<ele>861.0</ele>
<speed>9.1</speed>
<course>248.5</course>
<desc>Speed 9.1 km/h Distance 5.85 km</desc>
<time>2011-09-24T10:00:05.03</time>
<name>1487</name>
</trkpt>
<trkpt lat="41.802935" lon="-1.732527">
<ele>861.0</ele>
<speed>9.4</speed>
<course>227.3</course>
<desc>Speed 9.4 km/h Distance 5.85 km</desc>
<time>2011-09-24T10:00:06.04</time>
<name>1488</name>
</trkpt>
<trkpt lat="41.802917" lon="-1.732553">
<ele>861.0</ele>
<speed>10.8</speed>
<course>201.3</course>
<desc>Speed 10.8 km/h Distance 5.85 km</desc>
<time>2011-09-24T10:00:07.04</time>
<name>1489</name>
</trkpt>
<trkpt lat="41.802882" lon="-1.732572">
<ele>861.0</ele>
<speed>15.5</speed>
<course>253.4</course>
<desc>Speed 15.5 km/h Distance 5.85 km</desc>
<time>2011-09-24T10:00:08.03</time>
<name>1490</name>
</trkpt>
<trkpt lat="41.802875" lon="-1.732602">
<ele>861.0</ele>
<speed>9.4</speed>
<course>227.3</course>
<desc>Speed 9.4 km/h Distance 5.86 km</desc>
<time>2011-09-24T10:00:09.03</time>
<name>1491</name>
</trkpt>
<trkpt lat="41.802857" lon="-1.732628">
<ele>862.0</ele>
<speed>10.8</speed>
<course>222.5</course>
<desc>Speed 10.8 km/h Distance 5.86 km</desc>
<time>2011-09-24T10:00:10.03</time>
<name>1492</name>
</trkpt>
<trkpt lat="41.802835" lon="-1.732655">
<ele>863.0</ele>
<speed>11.7</speed>
<course>232.9</course>
<desc>Speed 11.7 km/h Distance 5.86 km</desc>
<time>2011-09-24T10:00:11.02</time>
<name>1493</name>
</trkpt>
<trkpt lat="41.802820" lon="-1.732682">
<ele>863.5</ele>
<speed>10.0</speed>
<course>232.9</course>
<desc>Speed 10.0 km/h Distance 5.87 km</desc>
<time>2011-09-24T10:00:12.02</time>
<name>1494</name>
</trkpt>
<trkpt lat="41.802805" lon="-1.732708">
<ele>863.5</ele>
<speed>9.9</speed>
<course>242.4</course>
<desc>Speed 9.9 km/h Distance 5.87 km</desc>
<time>2011-09-24T10:00:13.02</time>
<name>1495</name>
</trkpt>
<trkpt lat="41.802793" lon="-1.732738">
<ele>864.0</ele>
<speed>10.2</speed>
<course>234.6</course>
<desc>Speed 10.2 km/h Distance 5.87 km</desc>
<time>2011-09-24T10:00:14.02</time>
<name>1496</name>
</trkpt>
<trkpt lat="41.802778" lon="-1.732767">
<ele>864.0</ele>
<speed>10.3</speed>
<course>242.4</course>
<desc>Speed 10.3 km/h Distance 5.87 km</desc>
<time>2011-09-24T10:00:15.02</time>
<name>1497</name>
</trkpt>
<trkpt lat="41.802767" lon="-1.732797">
<ele>864.5</ele>
<speed>10.2</speed>
<course>234.6</course>
<desc>Speed 10.2 km/h Distance 5.88 km</desc>
<time>2011-09-24T10:00:16.02</time>
<name>1498</name>
</trkpt>
<trkpt lat="41.802752" lon="-1.732825">
<ele>864.5</ele>
<speed>10.4</speed>
<course>231.7</course>
<desc>Speed 10.4 km/h Distance 5.88 km</desc>
<time>2011-09-24T10:00:17.03</time>
<name>1499</name>
</trkpt>
<trkpt lat="41.802735" lon="-1.732853">
<ele>865.0</ele>
<speed>10.5</speed>
<course>250.6</course>
<desc>Speed 10.5 km/h Distance 5.88 km</desc>
<time>2011-09-24T10:00:18.02</time>
<name>1500</name>
</trkpt>
<trkpt lat="41.802727" lon="-1.732885">
<ele>865.0</ele>
<speed>9.5</speed>
<course>250.6</course>
<desc>Speed 9.5 km/h Distance 5.89 km</desc>
<time>2011-09-24T10:00:19.02</time>
<name>1501</name>
</trkpt>
<trkpt lat="41.802718" lon="-1.732917">
<ele>865.5</ele>
<speed>9.9</speed>
<course>257.4</course>
<desc>Speed 9.9 km/h Distance 5.89 km</desc>
<time>2011-09-24T10:00:20.02</time>
<name>1502</name>
</trkpt>
<trkpt lat="41.802713" lon="-1.732947">
<ele>865.5</ele>
<speed>9.2</speed>
<course>245.9</course>
<desc>Speed 9.2 km/h Distance 5.89 km</desc>
<time>2011-09-24T10:00:21.02</time>
<name>1503</name>
</trkpt>
<trkpt lat="41.802703" lon="-1.732977">
<ele>866.0</ele>
<speed>9.6</speed>
<course>250.6</course>
<desc>Speed 9.6 km/h Distance 5.89 km</desc>
<time>2011-09-24T10:00:22.02</time>
<name>1504</name>
</trkpt>
<trkpt lat="41.802695" lon="-1.733008">
<ele>866.0</ele>
<speed>9.5</speed>
<course>254.2</course>
<desc>Speed 9.5 km/h Distance 5.90 km</desc>
<time>2011-09-24T10:00:23.02</time>
<name>1505</name>
</trkpt>
<trkpt lat="41.802688" lon="-1.733040">
<ele>866.5</ele>
<speed>9.6</speed>
<course>262.4</course>
<desc>Speed 9.6 km/h Distance 5.90 km</desc>
<time>2011-09-24T10:00:24.01</time>
<name>1506</name>
</trkpt>
<trkpt lat="41.802685" lon="-1.733073">
<ele>866.5</ele>
<speed>9.7</speed>
<course>258.1</course>
<desc>Speed 9.7 km/h Distance 5.90 km</desc>
<time>2011-09-24T10:00:25.01</time>
<name>1507</name>
</trkpt>
<trkpt lat="41.802680" lon="-1.733105">
<ele>866.5</ele>
<speed>9.5</speed>
<course>211.8</course>
<desc>Speed 9.5 km/h Distance 5.91 km</desc>
<time>2011-09-24T10:00:26.02</time>
<name>1508</name>
</trkpt>
<trkpt lat="41.802650" lon="-1.733130">
<ele>867.5</ele>
<speed>14.5</speed>
<course>261.5</course>
<desc>Speed 14.5 km/h Distance 5.91 km</desc>
<time>2011-09-24T10:00:27.03</time>
<name>1509</name>
</trkpt>
<trkpt lat="41.802647" lon="-1.733160">
<ele>867.5</ele>
<speed>8.5</speed>
<course>243.3</course>
<desc>Speed 8.5 km/h Distance 5.91 km</desc>
<time>2011-09-24T10:00:28.02</time>
<name>1510</name>
</trkpt>
<trkpt lat="41.802637" lon="-1.733187">
<ele>867.5</ele>
<speed>8.5</speed>
<course>247.2</course>
<desc>Speed 8.5 km/h Distance 5.91 km</desc>
<time>2011-09-24T10:00:29.02</time>
<name>1511</name>
</trkpt>
<trkpt lat="41.802628" lon="-1.733213">
<ele>868.0</ele>
<speed>8.4</speed>
<course>241.8</course>
<desc>Speed 8.4 km/h Distance 5.92 km</desc>
<time>2011-09-24T10:00:30.02</time>
<name>1512</name>
</trkpt>
<trkpt lat="41.802618" lon="-1.733238">
<ele>868.0</ele>
<speed>8.5</speed>
<course>248.5</course>
<desc>Speed 8.5 km/h Distance 5.92 km</desc>
<time>2011-09-24T10:00:31.01</time>
<name>1513</name>
</trkpt>
<trkpt lat="41.802610" lon="-1.733267">
<ele>868.0</ele>
<speed>8.8</speed>
<course>226.2</course>
<desc>Speed 8.8 km/h Distance 5.92 km</desc>
<time>2011-09-24T10:00:32.02</time>
<name>1514</name>
</trkpt>
<trkpt lat="41.802593" lon="-1.733290">
<ele>868.5</ele>
<speed>9.6</speed>
<course>245.9</course>
<desc>Speed 9.6 km/h Distance 5.92 km</desc>
<time>2011-09-24T10:00:33.01</time>
<name>1515</name>
</trkpt>
<trkpt lat="41.802585" lon="-1.733315">
<ele>868.5</ele>
<speed>8.4</speed>
<course>236.2</course>
<desc>Speed 8.4 km/h Distance 5.93 km</desc>
<time>2011-09-24T10:00:34.02</time>
<name>1516</name>
</trkpt>
<trkpt lat="41.802573" lon="-1.733338">
<ele>869.0</ele>
<speed>8.4</speed>
<course>238.3</course>
<desc>Speed 8.4 km/h Distance 5.93 km</desc>
<time>2011-09-24T10:00:35.01</time>
<name>1517</name>
</trkpt>
<trkpt lat="41.802563" lon="-1.733360">
<ele>869.0</ele>
<speed>8.1</speed>
<course>241.7</course>
<desc>Speed 8.1 km/h Distance 5.93 km</desc>
<time>2011-09-24T10:00:36.01</time>
<name>1518</name>
</trkpt>
<trkpt lat="41.802553" lon="-1.733385">
<ele>869.0</ele>
<speed>8.1</speed>
<course>232.5</course>
<desc>Speed 8.1 km/h Distance 5.93 km</desc>
<time>2011-09-24T10:00:37.02</time>
<name>1519</name>
</trkpt>
<trkpt lat="41.802540" lon="-1.733408">
<ele>868.5</ele>
<speed>8.2</speed>
<course>234.1</course>
<desc>Speed 8.2 km/h Distance 5.94 km</desc>
<time>2011-09-24T10:00:38.00</time>
<name>1520</name>
</trkpt>
<trkpt lat="41.802528" lon="-1.733430">
<ele>868.5</ele>
<speed>8.1</speed>
<course>244.4</course>
<desc>Speed 8.1 km/h Distance 5.94 km</desc>
<time>2011-09-24T10:00:39.02</time>
<name>1521</name>
</trkpt>
<trkpt lat="41.802520" lon="-1.733453">
<ele>868.5</ele>
<speed>7.5</speed>
<course>233.7</course>
<desc>Speed 7.5 km/h Distance 5.94 km</desc>
<time>2011-09-24T10:00:40.00</time>
<name>1522</name>
</trkpt>
<trkpt lat="41.802510" lon="-1.733472">
<ele>868.5</ele>
<speed>6.6</speed>
<course>238.2</course>
<desc>Speed 6.6 km/h Distance 5.94 km</desc>
<time>2011-09-24T10:00:41.01</time>
<name>1523</name>
</trkpt>
<trkpt lat="41.802500" lon="-1.733493">
<ele>868.5</ele>
<speed>7.2</speed>
<course>244.4</course>
<desc>Speed 7.2 km/h Distance 5.94 km</desc>
<time>2011-09-24T10:00:42.01</time>
<name>1524</name>
</trkpt>
<trkpt lat="41.802492" lon="-1.733517">
<ele>868.5</ele>
<speed>7.9</speed>
<course>227.1</course>
<desc>Speed 7.9 km/h Distance 5.95 km</desc>
<time>2011-09-24T10:00:43.01</time>
<name>1525</name>
</trkpt>
<trkpt lat="41.802477" lon="-1.733538">
<ele>868.5</ele>
<speed>8.4</speed>
<course>221.4</course>
<desc>Speed 8.4 km/h Distance 5.95 km</desc>
<time>2011-09-24T10:00:44.01</time>
<name>1526</name>
</trkpt>
<trkpt lat="41.802458" lon="-1.733560">
<ele>870.0</ele>
<speed>10.0</speed>
<course>251.5</course>
<desc>Speed 10.0 km/h Distance 5.95 km</desc>
<time>2011-09-24T10:00:45.00</time>
<name>1527</name>
</trkpt>
<trkpt lat="41.802453" lon="-1.733580">
<ele>868.5</ele>
<speed>6.3</speed>
<course>252.8</course>
<desc>Speed 6.3 km/h Distance 5.95 km</desc>
<time>2011-09-24T10:00:46.00</time>
<name>1528</name>
</trkpt>
<trkpt lat="41.802448" lon="-1.733602">
<ele>868.5</ele>
<speed>7.6</speed>
<course>247.5</course>
<desc>Speed 7.6 km/h Distance 5.96 km</desc>
<time>2011-09-24T10:00:46.99</time>
<name>1529</name>
</trkpt>
<trkpt lat="41.802442" lon="-1.733623">
<ele>868.5</ele>
<speed>7.8</speed>
<course>234.1</course>
<desc>Speed 7.8 km/h Distance 5.96 km</desc>
<time>2011-09-24T10:00:48.00</time>
<name>1530</name>
</trkpt>
<trkpt lat="41.802430" lon="-1.733645">
<ele>868.0</ele>
<speed>8.1</speed>
<course>216.7</course>
<desc>Speed 8.1 km/h Distance 5.96 km</desc>
<time>2011-09-24T10:00:49.00</time>
<name>1531</name>
</trkpt>
<trkpt lat="41.802407" lon="-1.733668">
<ele>870.0</ele>
<speed>10.8</speed>
<course>224.1</course>
<desc>Speed 10.8 km/h Distance 5.96 km</desc>
<time>2011-09-24T10:00:50.00</time>
<name>1532</name>
</trkpt>
<trkpt lat="41.802390" lon="-1.733690">
<ele>870.5</ele>
<speed>9.0</speed>
<course>251.4</course>
<desc>Speed 9.0 km/h Distance 5.97 km</desc>
<time>2011-09-24T10:00:51.00</time>
<name>1533</name>
</trkpt>
<trkpt lat="41.802383" lon="-1.733717">
<ele>871.0</ele>
<speed>8.9</speed>
<course>230.5</course>
<desc>Speed 8.9 km/h Distance 5.97 km</desc>
<time>2011-09-24T10:00:52.01</time>
<name>1534</name>
</trkpt>
<trkpt lat="41.802370" lon="-1.733738">
<ele>871.5</ele>
<speed>8.4</speed>
<course>228.2</course>
<desc>Speed 8.4 km/h Distance 5.97 km</desc>
<time>2011-09-24T10:00:52.99</time>
<name>1535</name>
</trkpt>
<trkpt lat="41.802357" lon="-1.733758">
<ele>871.5</ele>
<speed>8.4</speed>
<course>224.8</course>
<desc>Speed 8.4 km/h Distance 5.97 km</desc>
<time>2011-09-24T10:00:54.00</time>
<name>1536</name>
</trkpt>
<trkpt lat="41.802342" lon="-1.733778">
<ele>872.0</ele>
<speed>8.6</speed>
<course>212.2</course>
<desc>Speed 8.6 km/h Distance 5.97 km</desc>
<time>2011-09-24T10:00:54.99</time>
<name>1537</name>
</trkpt>
<trkpt lat="41.802320" lon="-1.733797">
<ele>873.5</ele>
<speed>9.5</speed>
<course>221.8</course>
<desc>Speed 9.5 km/h Distance 5.98 km</desc>
<time>2011-09-24T10:00:56.00</time>
<name>1538</name>
</trkpt>
<trkpt lat="41.802303" lon="-1.733817">
<ele>872.5</ele>
<speed>8.4</speed>
<course>211.5</course>
<desc>Speed 8.4 km/h Distance 5.98 km</desc>
<time>2011-09-24T10:00:57.00</time>
<name>1539</name>
</trkpt>
<trkpt lat="41.802285" lon="-1.733832">
<ele>872.5</ele>
<speed>8.2</speed>
<course>216.7</course>
<desc>Speed 8.2 km/h Distance 5.98 km</desc>
<time>2011-09-24T10:00:57.99</time>
<name>1540</name>
</trkpt>
<trkpt lat="41.802265" lon="-1.733852">
<ele>873.0</ele>
<speed>9.3</speed>
<course>213.7</course>
<desc>Speed 9.3 km/h Distance 5.98 km</desc>
<time>2011-09-24T10:00:58.99</time>
<name>1541</name>
</trkpt>
<trkpt lat="41.802250" lon="-1.733865">
<ele>873.0</ele>
<speed>6.2</speed>
<course>234.2</course>
<desc>Speed 6.2 km/h Distance 5.99 km</desc>
<time>2011-09-24T10:00:59.99</time>
<name>1542</name>
</trkpt>
<trkpt lat="41.802238" lon="-1.733887">
<ele>873.0</ele>
<speed>8.0</speed>
<course>218.9</course>
<desc>Speed 8.0 km/h Distance 5.99 km</desc>
<time>2011-09-24T10:01:01.00</time>
<name>1543</name>
</trkpt>
<trkpt lat="41.802218" lon="-1.733908">
<ele>873.5</ele>
<speed>8.7</speed>
<course>227.1</course>
<desc>Speed 8.7 km/h Distance 5.99 km</desc>
<time>2011-09-24T10:01:02.00</time>
<name>1544</name>
</trkpt>
<trkpt lat="41.802203" lon="-1.733930">
<ele>874.0</ele>
<speed>8.9</speed>
<course>214.3</course>
<desc>Speed 8.9 km/h Distance 5.99 km</desc>
<time>2011-09-24T10:01:02.99</time>
<name>1545</name>
</trkpt>
<trkpt lat="41.802183" lon="-1.733948">
<ele>874.0</ele>
<speed>9.0</speed>
<course>245.9</course>
<desc>Speed 9.0 km/h Distance 6.00 km</desc>
<time>2011-09-24T10:01:04.00</time>
<name>1546</name>
</trkpt>
<trkpt lat="41.802175" lon="-1.733973">
<ele>875.0</ele>
<speed>7.9</speed>
<course>214.2</course>
<desc>Speed 7.9 km/h Distance 6.00 km</desc>
<time>2011-09-24T10:01:05.00</time>
<name>1547</name>
</trkpt>
<trkpt lat="41.802157" lon="-1.733990">
<ele>874.0</ele>
<speed>9.1</speed>
<course>221.8</course>
<desc>Speed 9.1 km/h Distance 6.00 km</desc>
<time>2011-09-24T10:01:05.99</time>
<name>1548</name>
</trkpt>
<trkpt lat="41.802140" lon="-1.734010">
<ele>874.0</ele>
<speed>8.6</speed>
<course>240.8</course>
<desc>Speed 8.6 km/h Distance 6.00 km</desc>
<time>2011-09-24T10:01:06.99</time>
<name>1549</name>
</trkpt>
<trkpt lat="41.802132" lon="-1.734030">
<ele>873.5</ele>
<speed>6.7</speed>
<course>232.0</course>
<desc>Speed 6.7 km/h Distance 6.01 km</desc>
<time>2011-09-24T10:01:07.99</time>
<name>1550</name>
</trkpt>
<trkpt lat="41.802120" lon="-1.734050">
<ele>873.0</ele>
<speed>7.7</speed>
<course>230.5</course>
<desc>Speed 7.7 km/h Distance 6.01 km</desc>
<time>2011-09-24T10:01:08.98</time>
<name>1551</name>
</trkpt>
<trkpt lat="41.802107" lon="-1.734072">
<ele>873.0</ele>
<speed>8.0</speed>
<course>224.8</course>
<desc>Speed 8.0 km/h Distance 6.01 km</desc>
<time>2011-09-24T10:01:09.99</time>
<name>1552</name>
</trkpt>
<trkpt lat="41.802092" lon="-1.734092">
<ele>873.0</ele>
<speed>8.5</speed>
<course>219.1</course>
<desc>Speed 8.5 km/h Distance 6.01 km</desc>
<time>2011-09-24T10:01:10.99</time>
<name>1553</name>
</trkpt>
<trkpt lat="41.802073" lon="-1.734112">
<ele>873.0</ele>
<speed>8.9</speed>
<course>224.1</course>
<desc>Speed 8.9 km/h Distance 6.02 km</desc>
<time>2011-09-24T10:01:11.99</time>
<name>1554</name>
</trkpt>
<trkpt lat="41.802057" lon="-1.734133">
<ele>873.5</ele>
<speed>8.9</speed>
<course>226.2</course>
<desc>Speed 8.9 km/h Distance 6.02 km</desc>
<time>2011-09-24T10:01:12.98</time>
<name>1555</name>
</trkpt>
<trkpt lat="41.802040" lon="-1.734157">
<ele>874.5</ele>
<speed>9.4</speed>
<course>224.1</course>
<desc>Speed 9.4 km/h Distance 6.02 km</desc>
<time>2011-09-24T10:01:13.99</time>
<name>1556</name>
</trkpt>
<trkpt lat="41.802023" lon="-1.734178">
<ele>874.5</ele>
<speed>8.8</speed>
<course>244.4</course>
<desc>Speed 8.8 km/h Distance 6.02 km</desc>
<time>2011-09-24T10:01:14.98</time>
<name>1557</name>
</trkpt>
<trkpt lat="41.802015" lon="-1.734202">
<ele>874.5</ele>
<speed>7.7</speed>
<course>224.1</course>
<desc>Speed 7.7 km/h Distance 6.03 km</desc>
<time>2011-09-24T10:01:15.99</time>
<name>1558</name>
</trkpt>
<trkpt lat="41.801998" lon="-1.734223">
<ele>874.5</ele>
<speed>9.7</speed>
<course>224.1</course>
<desc>Speed 9.7 km/h Distance 6.03 km</desc>
<time>2011-09-24T10:01:16.99</time>
<name>1559</name>
</trkpt>
<trkpt lat="41.801982" lon="-1.734245">
<ele>875.0</ele>
<speed>8.9</speed>
<course>226.3</course>
<desc>Speed 8.9 km/h Distance 6.03 km</desc>
<time>2011-09-24T10:01:17.99</time>
<name>1560</name>
</trkpt>
<trkpt lat="41.801965" lon="-1.734268">
<ele>875.0</ele>
<speed>9.0</speed>
<course>287.5</course>
<desc>Speed 9.0 km/h Distance 6.03 km</desc>
<time>2011-09-24T10:01:18.98</time>
<name>1561</name>
</trkpt>
<trkpt lat="41.801972" lon="-1.734297">
<ele>875.5</ele>
<speed>9.0</speed>
<course>226.2</course>
<desc>Speed 9.0 km/h Distance 6.04 km</desc>
<time>2011-09-24T10:01:19.99</time>
<name>1562</name>
</trkpt>
<trkpt lat="41.801955" lon="-1.734320">
<ele>876.0</ele>
<speed>9.6</speed>
<course>250.3</course>
<desc>Speed 9.6 km/h Distance 6.04 km</desc>
<time>2011-09-24T10:01:20.99</time>
<name>1563</name>
</trkpt>
<trkpt lat="41.801948" lon="-1.734345">
<ele>875.5</ele>
<speed>8.2</speed>
<course>202.5</course>
<desc>Speed 8.2 km/h Distance 6.04 km</desc>
<time>2011-09-24T10:01:21.99</time>
<name>1564</name>
</trkpt>
<trkpt lat="41.801888" lon="-1.734378">
<ele>875.5</ele>
<speed>11.2</speed>
<course>232.5</course>
<desc>Speed 11.2 km/h Distance 6.05 km</desc>
<time>2011-09-24T10:01:23.98</time>
<name>1565</name>
</trkpt>
<trkpt lat="41.801875" lon="-1.734402">
<ele>876.0</ele>
<speed>9.2</speed>
<course>231.1</course>
<desc>Speed 9.2 km/h Distance 6.05 km</desc>
<time>2011-09-24T10:01:24.98</time>
<name>1566</name>
</trkpt>
<trkpt lat="41.801860" lon="-1.734427">
<ele>876.0</ele>
<speed>9.2</speed>
<course>234.4</course>
<desc>Speed 9.2 km/h Distance 6.05 km</desc>
<time>2011-09-24T10:01:25.98</time>
<name>1567</name>
</trkpt>
<trkpt lat="41.801847" lon="-1.734452">
<ele>876.0</ele>
<speed>9.0</speed>
<course>236.2</course>
<desc>Speed 9.0 km/h Distance 6.06 km</desc>
<time>2011-09-24T10:01:26.98</time>
<name>1568</name>
</trkpt>
<trkpt lat="41.801835" lon="-1.734475">
<ele>876.0</ele>
<speed>8.8</speed>
<course>234.2</course>
<desc>Speed 8.8 km/h Distance 6.06 km</desc>
<time>2011-09-24T10:01:27.98</time>
<name>1569</name>
</trkpt>
<trkpt lat="41.801823" lon="-1.734497">
<ele>875.5</ele>
<speed>8.5</speed>
<course>227.1</course>
<desc>Speed 8.5 km/h Distance 6.06 km</desc>
<time>2011-09-24T10:01:28.98</time>
<name>1570</name>
</trkpt>
<trkpt lat="41.801808" lon="-1.734518">
<ele>875.5</ele>
<speed>8.7</speed>
<course>232.6</course>
<desc>Speed 8.7 km/h Distance 6.06 km</desc>
<time>2011-09-24T10:01:29.98</time>
<name>1571</name>
</trkpt>
<trkpt lat="41.801795" lon="-1.734542">
<ele>875.5</ele>
<speed>8.9</speed>
<course>230.5</course>
<desc>Speed 8.9 km/h Distance 6.07 km</desc>
<time>2011-09-24T10:01:30.97</time>
<name>1572</name>
</trkpt>
<trkpt lat="41.801782" lon="-1.734563">
<ele>875.5</ele>
<speed>9.4</speed>
<course>249.6</course>
<desc>Speed 9.4 km/h Distance 6.07 km</desc>
<time>2011-09-24T10:01:31.97</time>
<name>1573</name>
</trkpt>
<trkpt lat="41.801773" lon="-1.734593">
<ele>876.5</ele>
<speed>9.1</speed>
<course>238.2</course>
<desc>Speed 9.1 km/h Distance 6.07 km</desc>
<time>2011-09-24T10:01:32.97</time>
<name>1574</name>
</trkpt>
<trkpt lat="41.801763" lon="-1.734615">
<ele>876.5</ele>
<speed>8.8</speed>
<course>231.1</course>
<desc>Speed 8.8 km/h Distance 6.07 km</desc>
<time>2011-09-24T10:01:33.98</time>
<name>1575</name>
</trkpt>
<trkpt lat="41.801748" lon="-1.734640">
<ele>876.5</ele>
<speed>9.2</speed>
<course>232.5</course>
<desc>Speed 9.2 km/h Distance 6.08 km</desc>
<time>2011-09-24T10:01:34.97</time>
<name>1576</name>
</trkpt>
<trkpt lat="41.801735" lon="-1.734663">
<ele>876.0</ele>
<speed>9.0</speed>
<course>244.4</course>
<desc>Speed 9.0 km/h Distance 6.08 km</desc>
<time>2011-09-24T10:01:35.97</time>
<name>1577</name>
</trkpt>
<trkpt lat="41.801727" lon="-1.734687">
<ele>876.0</ele>
<speed>7.6</speed>
<course>234.1</course>
<desc>Speed 7.6 km/h Distance 6.08 km</desc>
<time>2011-09-24T10:01:36.97</time>
<name>1578</name>
</trkpt>
<trkpt lat="41.801715" lon="-1.734708">
<ele>876.0</ele>
<speed>7.8</speed>
<course>224.8</course>
<desc>Speed 7.8 km/h Distance 6.08 km</desc>
<time>2011-09-24T10:01:37.97</time>
<name>1579</name>
</trkpt>
<trkpt lat="41.801700" lon="-1.734728">
<ele>876.5</ele>
<speed>7.7</speed>
<course>229.5</course>
<desc>Speed 7.7 km/h Distance 6.08 km</desc>
<time>2011-09-24T10:01:38.97</time>
<name>1580</name>
</trkpt>
<trkpt lat="41.801688" lon="-1.734747">
<ele>876.5</ele>
<speed>7.0</speed>
<course>245.9</course>
<desc>Speed 7.0 km/h Distance 6.09 km</desc>
<time>2011-09-24T10:01:39.97</time>
<name>1581</name>
</trkpt>
<trkpt lat="41.801682" lon="-1.734767">
<ele>876.5</ele>
<speed>6.8</speed>
<course>236.1</course>
<desc>Speed 6.8 km/h Distance 6.09 km</desc>
<time>2011-09-24T10:01:40.97</time>
<name>1582</name>
</trkpt>
<trkpt lat="41.801672" lon="-1.734787">
<ele>876.5</ele>
<speed>6.7</speed>
<course>258.4</course>
<desc>Speed 6.7 km/h Distance 6.09 km</desc>
<time>2011-09-24T10:01:41.96</time>
<name>1583</name>
</trkpt>
<trkpt lat="41.801668" lon="-1.734808">
<ele>876.5</ele>
<speed>6.2</speed>
<course>240.8</course>
<desc>Speed 6.2 km/h Distance 6.09 km</desc>
<time>2011-09-24T10:01:42.96</time>
<name>1584</name>
</trkpt>
<trkpt lat="41.801660" lon="-1.734828">
<ele>876.0</ele>
<speed>5.4</speed>
<course>214.6</course>
<desc>Speed 5.4 km/h Distance 6.09 km</desc>
<time>2011-09-24T10:01:43.97</time>
<name>1585</name>
</trkpt>
<trkpt lat="41.801638" lon="-1.734848">
<ele>876.5</ele>
<speed>7.9</speed>
<course>230.4</course>
<desc>Speed 7.9 km/h Distance 6.10 km</desc>
<time>2011-09-24T10:01:44.96</time>
<name>1586</name>
</trkpt>
<trkpt lat="41.801625" lon="-1.734870">
<ele>876.5</ele>
<speed>8.1</speed>
<course>225.6</course>
<desc>Speed 8.1 km/h Distance 6.10 km</desc>
<time>2011-09-24T10:01:45.96</time>
<name>1587</name>
</trkpt>
<trkpt lat="41.801612" lon="-1.734888">
<ele>876.0</ele>
<speed>7.2</speed>
<course>240.1</course>
<desc>Speed 7.2 km/h Distance 6.10 km</desc>
<time>2011-09-24T10:01:46.96</time>
<name>1588</name>
</trkpt>
<trkpt lat="41.801602" lon="-1.734912">
<ele>876.0</ele>
<speed>7.7</speed>
<course>228.2</course>
<desc>Speed 7.7 km/h Distance 6.10 km</desc>
<time>2011-09-24T10:01:47.96</time>
<name>1589</name>
</trkpt>
<trkpt lat="41.801588" lon="-1.734932">
<ele>876.0</ele>
<speed>7.3</speed>
<course>232.6</course>
<desc>Speed 7.3 km/h Distance 6.11 km</desc>
<time>2011-09-24T10:01:48.96</time>
<name>1590</name>
</trkpt>
<trkpt lat="41.801575" lon="-1.734955">
<ele>876.0</ele>
<speed>7.9</speed>
<course>229.2</course>
<desc>Speed 7.9 km/h Distance 6.11 km</desc>
<time>2011-09-24T10:01:49.96</time>
<name>1591</name>
</trkpt>
<trkpt lat="41.801560" lon="-1.734978">
<ele>876.0</ele>
<speed>8.6</speed>
<course>226.2</course>
<desc>Speed 8.6 km/h Distance 6.11 km</desc>
<time>2011-09-24T10:01:50.96</time>
<name>1592</name>
</trkpt>
<trkpt lat="41.801543" lon="-1.735002">
<ele>877.0</ele>
<speed>9.5</speed>
<course>239.6</course>
<desc>Speed 9.5 km/h Distance 6.11 km</desc>
<time>2011-09-24T10:01:51.97</time>
<name>1593</name>
</trkpt>
<trkpt lat="41.801532" lon="-1.735028">
<ele>877.5</ele>
<speed>8.6</speed>
<course>216.7</course>
<desc>Speed 8.6 km/h Distance 6.12 km</desc>
<time>2011-09-24T10:01:52.96</time>
<name>1594</name>
</trkpt>
<trkpt lat="41.801510" lon="-1.735050">
<ele>878.0</ele>
<speed>10.9</speed>
<course>236.2</course>
<desc>Speed 10.9 km/h Distance 6.12 km</desc>
<time>2011-09-24T10:01:53.97</time>
<name>1595</name>
</trkpt>
<trkpt lat="41.801498" lon="-1.735073">
<ele>878.0</ele>
<speed>8.3</speed>
<course>247.2</course>
<desc>Speed 8.3 km/h Distance 6.12 km</desc>
<time>2011-09-24T10:01:54.96</time>
<name>1596</name>
</trkpt>
<trkpt lat="41.801490" lon="-1.735100">
<ele>878.0</ele>
<speed>8.4</speed>
<course>241.7</course>
<desc>Speed 8.4 km/h Distance 6.12 km</desc>
<time>2011-09-24T10:01:55.96</time>
<name>1597</name>
</trkpt>
<trkpt lat="41.801480" lon="-1.735125">
<ele>877.5</ele>
<speed>8.1</speed>
<course>251.4</course>
<desc>Speed 8.1 km/h Distance 6.13 km</desc>
<time>2011-09-24T10:01:56.96</time>
<name>1598</name>
</trkpt>
<trkpt lat="41.801473" lon="-1.735152">
<ele>877.5</ele>
<speed>8.4</speed>
<course>261.0</course>
<desc>Speed 8.4 km/h Distance 6.13 km</desc>
<time>2011-09-24T10:01:57.95</time>
<name>1599</name>
</trkpt>
<trkpt lat="41.801470" lon="-1.735180">
<ele>877.5</ele>
<speed>8.4</speed>
<course>256.7</course>
<desc>Speed 8.4 km/h Distance 6.13 km</desc>
<time>2011-09-24T10:01:58.95</time>
<name>1600</name>
</trkpt>
<trkpt lat="41.801465" lon="-1.735208">
<ele>877.5</ele>
<speed>8.4</speed>
<course>256.7</course>
<desc>Speed 8.4 km/h Distance 6.13 km</desc>
<time>2011-09-24T10:01:59.95</time>
<name>1601</name>
</trkpt>
<trkpt lat="41.801460" lon="-1.735237">
<ele>877.5</ele>
<speed>8.6</speed>
<course>257.4</course>
<desc>Speed 8.6 km/h Distance 6.14 km</desc>
<time>2011-09-24T10:02:00.95</time>
<name>1602</name>
</trkpt>
<trkpt lat="41.801455" lon="-1.735267">
<ele>878.0</ele>
<speed>8.2</speed>
<course>251.5</course>
<desc>Speed 8.2 km/h Distance 6.14 km</desc>
<time>2011-09-24T10:02:01.95</time>
<name>1603</name>
</trkpt>
<trkpt lat="41.801448" lon="-1.735293">
<ele>878.0</ele>
<speed>8.0</speed>
<course>243.3</course>
<desc>Speed 8.0 km/h Distance 6.14 km</desc>
<time>2011-09-24T10:02:02.95</time>
<name>1604</name>
</trkpt>
<trkpt lat="41.801438" lon="-1.735320">
<ele>878.5</ele>
<speed>8.1</speed>
<course>252.5</course>
<desc>Speed 8.1 km/h Distance 6.14 km</desc>
<time>2011-09-24T10:02:03.95</time>
<name>1605</name>
</trkpt>
<trkpt lat="41.801432" lon="-1.735348">
<ele>878.5</ele>
<speed>8.2</speed>
<course>245.9</course>
<desc>Speed 8.2 km/h Distance 6.15 km</desc>
<time>2011-09-24T10:02:04.94</time>
<name>1606</name>
</trkpt>
<trkpt lat="41.801423" lon="-1.735373">
<ele>879.0</ele>
<speed>8.1</speed>
<course>239.6</course>
<desc>Speed 8.1 km/h Distance 6.15 km</desc>
<time>2011-09-24T10:02:05.94</time>
<name>1607</name>
</trkpt>
<trkpt lat="41.801412" lon="-1.735400">
<ele>879.0</ele>
<speed>8.2</speed>
<course>239.6</course>
<desc>Speed 8.2 km/h Distance 6.15 km</desc>
<time>2011-09-24T10:02:06.94</time>
<name>1608</name>
</trkpt>
<trkpt lat="41.801400" lon="-1.735427">
<ele>879.5</ele>
<speed>8.4</speed>
<course>256.7</course>
<desc>Speed 8.4 km/h Distance 6.15 km</desc>
<time>2011-09-24T10:02:07.95</time>
<name>1609</name>
</trkpt>
<trkpt lat="41.801395" lon="-1.735455">
<ele>880.0</ele>
<speed>8.4</speed>
<course>261.0</course>
<desc>Speed 8.4 km/h Distance 6.16 km</desc>
<time>2011-09-24T10:02:08.95</time>
<name>1610</name>
</trkpt>
<trkpt lat="41.801392" lon="-1.735483">
<ele>880.0</ele>
<speed>8.2</speed>
<course>260.5</course>
<desc>Speed 8.2 km/h Distance 6.16 km</desc>
<time>2011-09-24T10:02:09.95</time>
<name>1611</name>
</trkpt>
<trkpt lat="41.801388" lon="-1.735510">
<ele>880.0</ele>
<speed>8.2</speed>
<course>248.5</course>
<desc>Speed 8.2 km/h Distance 6.16 km</desc>
<time>2011-09-24T10:02:10.94</time>
<name>1612</name>
</trkpt>
<trkpt lat="41.801380" lon="-1.735538">
<ele>880.5</ele>
<speed>8.2</speed>
<course>245.9</course>
<desc>Speed 8.2 km/h Distance 6.16 km</desc>
<time>2011-09-24T10:02:11.94</time>
<name>1613</name>
</trkpt>
<trkpt lat="41.801372" lon="-1.735563">
<ele>880.5</ele>
<speed>7.9</speed>
<course>241.8</course>
<desc>Speed 7.9 km/h Distance 6.16 km</desc>
<time>2011-09-24T10:02:12.94</time>
<name>1614</name>
</trkpt>
<trkpt lat="41.801362" lon="-1.735588">
<ele>881.0</ele>
<speed>8.2</speed>
<course>229.2</course>
<desc>Speed 8.2 km/h Distance 6.17 km</desc>
<time>2011-09-24T10:02:13.94</time>
<name>1615</name>
</trkpt>
<trkpt lat="41.801347" lon="-1.735612">
<ele>881.5</ele>
<speed>8.5</speed>
<course>227.1</course>
<desc>Speed 8.5 km/h Distance 6.17 km</desc>
<time>2011-09-24T10:02:14.94</time>
<name>1616</name>
</trkpt>
<trkpt lat="41.801332" lon="-1.735633">
<ele>882.0</ele>
<speed>8.7</speed>
<course>237.9</course>
<desc>Speed 8.7 km/h Distance 6.17 km</desc>
<time>2011-09-24T10:02:15.94</time>
<name>1617</name>
</trkpt>
<trkpt lat="41.801320" lon="-1.735658">
<ele>882.0</ele>
<speed>8.7</speed>
<course>241.7</course>
<desc>Speed 8.7 km/h Distance 6.17 km</desc>
<time>2011-09-24T10:02:16.95</time>
<name>1618</name>
</trkpt>
<trkpt lat="41.801310" lon="-1.735683">
<ele>882.5</ele>
<speed>8.2</speed>
<course>238.2</course>
<desc>Speed 8.2 km/h Distance 6.18 km</desc>
<time>2011-09-24T10:02:17.94</time>
<name>1619</name>
</trkpt>
<trkpt lat="41.801300" lon="-1.735705">
<ele>882.5</ele>
<speed>8.1</speed>
<course>241.8</course>
<desc>Speed 8.1 km/h Distance 6.18 km</desc>
<time>2011-09-24T10:02:18.93</time>
<name>1620</name>
</trkpt>
<trkpt lat="41.801290" lon="-1.735730">
<ele>883.0</ele>
<speed>8.2</speed>
<course>255.9</course>
<desc>Speed 8.2 km/h Distance 6.18 km</desc>
<time>2011-09-24T10:02:19.95</time>
<name>1621</name>
</trkpt>
<trkpt lat="41.801285" lon="-1.735757">
<ele>883.0</ele>
<speed>7.9</speed>
<course>255.0</course>
<desc>Speed 7.9 km/h Distance 6.18 km</desc>
<time>2011-09-24T10:02:20.93</time>
<name>1622</name>
</trkpt>
<trkpt lat="41.801280" lon="-1.735782">
<ele>883.0</ele>
<speed>7.6</speed>
<course>234.1</course>
<desc>Speed 7.6 km/h Distance 6.19 km</desc>
<time>2011-09-24T10:02:21.93</time>
<name>1623</name>
</trkpt>
<trkpt lat="41.801268" lon="-1.735803">
<ele>883.0</ele>
<speed>7.9</speed>
<course>230.5</course>
<desc>Speed 7.9 km/h Distance 6.19 km</desc>
<time>2011-09-24T10:02:22.94</time>
<name>1624</name>
</trkpt>
<trkpt lat="41.801255" lon="-1.735825">
<ele>883.5</ele>
<speed>8.0</speed>
<course>240.1</course>
<desc>Speed 8.0 km/h Distance 6.19 km</desc>
<time>2011-09-24T10:02:23.94</time>
<name>1625</name>
</trkpt>
<trkpt lat="41.801245" lon="-1.735848">
<ele>883.5</ele>
<speed>8.1</speed>
<course>234.1</course>
<desc>Speed 8.1 km/h Distance 6.19 km</desc>
<time>2011-09-24T10:02:24.93</time>
<name>1626</name>
</trkpt>
<trkpt lat="41.801233" lon="-1.735870">
<ele>884.0</ele>
<speed>8.4</speed>
<course>236.2</course>
<desc>Speed 8.4 km/h Distance 6.19 km</desc>
<time>2011-09-24T10:02:25.93</time>
<name>1627</name>
</trkpt>
<trkpt lat="41.801222" lon="-1.735893">
<ele>883.5</ele>
<speed>8.0</speed>
<course>249.0</course>
<desc>Speed 8.0 km/h Distance 6.20 km</desc>
<time>2011-09-24T10:02:26.93</time>
<name>1628</name>
</trkpt>
<trkpt lat="41.801215" lon="-1.735917">
<ele>883.5</ele>
<speed>7.6</speed>
<course>245.9</course>
<desc>Speed 7.6 km/h Distance 6.20 km</desc>
<time>2011-09-24T10:02:27.93</time>
<name>1629</name>
</trkpt>
<trkpt lat="41.801207" lon="-1.735942">
<ele>883.5</ele>
<speed>7.7</speed>
<course>247.5</course>
<desc>Speed 7.7 km/h Distance 6.20 km</desc>
<time>2011-09-24T10:02:28.93</time>
<name>1630</name>
</trkpt>
<trkpt lat="41.801200" lon="-1.735963">
<ele>883.5</ele>
<speed>7.1</speed>
<course>250.3</course>
<desc>Speed 7.1 km/h Distance 6.20 km</desc>
<time>2011-09-24T10:02:29.93</time>
<name>1631</name>
</trkpt>
<trkpt lat="41.801193" lon="-1.735988">
<ele>883.5</ele>
<speed>7.5</speed>
<course>242.7</course>
<desc>Speed 7.5 km/h Distance 6.21 km</desc>
<time>2011-09-24T10:02:30.93</time>
<name>1632</name>
</trkpt>
<trkpt lat="41.801185" lon="-1.736010">
<ele>883.0</ele>
<speed>7.5</speed>
<course>240.1</course>
<desc>Speed 7.5 km/h Distance 6.21 km</desc>
<time>2011-09-24T10:02:31.93</time>
<name>1633</name>
</trkpt>
<trkpt lat="41.801175" lon="-1.736033">
<ele>883.0</ele>
<speed>7.8</speed>
<course>238.2</course>
<desc>Speed 7.8 km/h Distance 6.21 km</desc>
<time>2011-09-24T10:02:32.94</time>
<name>1634</name>
</trkpt>
<trkpt lat="41.801165" lon="-1.736055">
<ele>883.0</ele>
<speed>7.8</speed>
<course>236.1</course>
<desc>Speed 7.8 km/h Distance 6.21 km</desc>
<time>2011-09-24T10:02:33.93</time>
<name>1635</name>
</trkpt>
<trkpt lat="41.801153" lon="-1.736078">
<ele>882.5</ele>
<speed>8.6</speed>
<course>251.4</course>
<desc>Speed 8.6 km/h Distance 6.21 km</desc>
<time>2011-09-24T10:02:34.93</time>
<name>1636</name>
</trkpt>
<trkpt lat="41.801147" lon="-1.736105">
<ele>883.5</ele>
<speed>8.9</speed>
<course>247.3</course>
<desc>Speed 8.9 km/h Distance 6.22 km</desc>
<time>2011-09-24T10:02:35.92</time>
<name>1637</name>
</trkpt>
<trkpt lat="41.801138" lon="-1.736132">
<ele>883.5</ele>
<speed>8.9</speed>
<course>240.1</course>
<desc>Speed 8.9 km/h Distance 6.22 km</desc>
<time>2011-09-24T10:02:36.92</time>
<name>1638</name>
</trkpt>
<trkpt lat="41.801128" lon="-1.736155">
<ele>884.0</ele>
<speed>9.4</speed>
<course>232.5</course>
<desc>Speed 9.4 km/h Distance 6.22 km</desc>
<time>2011-09-24T10:02:37.92</time>
<name>1639</name>
</trkpt>
<trkpt lat="41.801115" lon="-1.736178">
<ele>884.5</ele>
<speed>8.4</speed>
<course>249.0</course>
<desc>Speed 8.4 km/h Distance 6.22 km</desc>
<time>2011-09-24T10:02:38.92</time>
<name>1640</name>
</trkpt>
<trkpt lat="41.801108" lon="-1.736202">
<ele>884.5</ele>
<speed>8.6</speed>
<course>244.4</course>
<desc>Speed 8.6 km/h Distance 6.23 km</desc>
<time>2011-09-24T10:02:39.92</time>
<name>1641</name>
</trkpt>
<trkpt lat="41.801100" lon="-1.736225">
<ele>885.0</ele>
<speed>7.8</speed>
<course>236.2</course>
<desc>Speed 7.8 km/h Distance 6.23 km</desc>
<time>2011-09-24T10:02:40.93</time>
<name>1642</name>
</trkpt>
<trkpt lat="41.801088" lon="-1.736248">
<ele>886.0</ele>
<speed>8.7</speed>
<course>243.3</course>
<desc>Speed 8.7 km/h Distance 6.23 km</desc>
<time>2011-09-24T10:02:41.93</time>
<name>1643</name>
</trkpt>
<trkpt lat="41.801078" lon="-1.736275">
<ele>886.5</ele>
<speed>8.7</speed>
<course>241.8</course>
<desc>Speed 8.7 km/h Distance 6.23 km</desc>
<time>2011-09-24T10:02:42.92</time>
<name>1644</name>
</trkpt>
<trkpt lat="41.801068" lon="-1.736300">
<ele>887.0</ele>
<speed>9.0</speed>
<course>238.2</course>
<desc>Speed 9.0 km/h Distance 6.23 km</desc>
<time>2011-09-24T10:02:43.92</time>
<name>1645</name>
</trkpt>
<trkpt lat="41.801058" lon="-1.736322">
<ele>887.0</ele>
<speed>8.2</speed>
<course>230.4</course>
<desc>Speed 8.2 km/h Distance 6.24 km</desc>
<time>2011-09-24T10:02:44.92</time>
<name>1646</name>
</trkpt>
<trkpt lat="41.801045" lon="-1.736343">
<ele>887.0</ele>
<speed>8.7</speed>
<course>232.5</course>
<desc>Speed 8.7 km/h Distance 6.24 km</desc>
<time>2011-09-24T10:02:45.92</time>
<name>1647</name>
</trkpt>
<trkpt lat="41.801032" lon="-1.736367">
<ele>887.5</ele>
<speed>8.5</speed>
<course>236.2</course>
<desc>Speed 8.5 km/h Distance 6.24 km</desc>
<time>2011-09-24T10:02:46.91</time>
<name>1648</name>
</trkpt>
<trkpt lat="41.801020" lon="-1.736390">
<ele>887.5</ele>
<speed>8.1</speed>
<course>240.1</course>
<desc>Speed 8.1 km/h Distance 6.24 km</desc>
<time>2011-09-24T10:02:47.92</time>
<name>1649</name>
</trkpt>
<trkpt lat="41.801010" lon="-1.736413">
<ele>887.5</ele>
<speed>7.9</speed>
<course>240.1</course>
<desc>Speed 7.9 km/h Distance 6.25 km</desc>
<time>2011-09-24T10:02:48.91</time>
<name>1650</name>
</trkpt>
<trkpt lat="41.801000" lon="-1.736437">
<ele>887.5</ele>
<speed>7.7</speed>
<course>232.5</course>
<desc>Speed 7.7 km/h Distance 6.25 km</desc>
<time>2011-09-24T10:02:49.91</time>
<name>1651</name>
</trkpt>
<trkpt lat="41.800987" lon="-1.736460">
<ele>888.0</ele>
<speed>8.0</speed>
<course>240.1</course>
<desc>Speed 8.0 km/h Distance 6.25 km</desc>
<time>2011-09-24T10:02:50.91</time>
<name>1652</name>
</trkpt>
<trkpt lat="41.800977" lon="-1.736483">
<ele>889.0</ele>
<speed>7.8</speed>
<course>279.0</course>
<desc>Speed 7.8 km/h Distance 6.25 km</desc>
<time>2011-09-24T10:02:51.92</time>
<name>1653</name>
</trkpt>
<trkpt lat="41.800980" lon="-1.736512">
<ele>889.5</ele>
<speed>8.4</speed>
<course>247.2</course>
<desc>Speed 8.4 km/h Distance 6.26 km</desc>
<time>2011-09-24T10:02:52.91</time>
<name>1654</name>
</trkpt>
<trkpt lat="41.800972" lon="-1.736538">
<ele>890.0</ele>
<speed>7.9</speed>
<course>244.4</course>
<desc>Speed 7.9 km/h Distance 6.26 km</desc>
<time>2011-09-24T10:02:53.91</time>
<name>1655</name>
</trkpt>
<trkpt lat="41.800963" lon="-1.736562">
<ele>890.0</ele>
<speed>7.5</speed>
<course>225.6</course>
<desc>Speed 7.5 km/h Distance 6.26 km</desc>
<time>2011-09-24T10:02:54.91</time>
<name>1656</name>
</trkpt>
<trkpt lat="41.800950" lon="-1.736580">
<ele>890.5</ele>
<speed>7.6</speed>
<course>240.1</course>
<desc>Speed 7.6 km/h Distance 6.26 km</desc>
<time>2011-09-24T10:02:55.91</time>
<name>1657</name>
</trkpt>
<trkpt lat="41.800940" lon="-1.736603">
<ele>890.5</ele>
<speed>7.9</speed>
<course>247.3</course>
<desc>Speed 7.9 km/h Distance 6.26 km</desc>
<time>2011-09-24T10:02:56.91</time>
<name>1658</name>
</trkpt>
<trkpt lat="41.800932" lon="-1.736630">
<ele>891.0</ele>
<speed>7.6</speed>
<course>212.4</course>
<desc>Speed 7.6 km/h Distance 6.27 km</desc>
<time>2011-09-24T10:02:57.92</time>
<name>1659</name>
</trkpt>
<trkpt lat="41.800887" lon="-1.736668">
<ele>891.5</ele>
<speed>7.7</speed>
<course>234.2</course>
<desc>Speed 7.7 km/h Distance 6.27 km</desc>
<time>2011-09-24T10:02:59.91</time>
<name>1660</name>
</trkpt>
<trkpt lat="41.800875" lon="-1.736690">
<ele>892.0</ele>
<speed>8.1</speed>
<course>232.0</course>
<desc>Speed 8.1 km/h Distance 6.28 km</desc>
<time>2011-09-24T10:03:00.90</time>
<name>1661</name>
</trkpt>
<trkpt lat="41.800863" lon="-1.736710">
<ele>891.5</ele>
<speed>7.1</speed>
<course>240.1</course>
<desc>Speed 7.1 km/h Distance 6.28 km</desc>
<time>2011-09-24T10:03:01.91</time>
<name>1662</name>
</trkpt>
<trkpt lat="41.800853" lon="-1.736733">
<ele>891.5</ele>
<speed>8.1</speed>
<course>255.9</course>
<desc>Speed 8.1 km/h Distance 6.28 km</desc>
<time>2011-09-24T10:03:02.90</time>
<name>1663</name>
</trkpt>
<trkpt lat="41.800848" lon="-1.736760">
<ele>891.5</ele>
<speed>8.1</speed>
<course>255.9</course>
<desc>Speed 8.1 km/h Distance 6.28 km</desc>
<time>2011-09-24T10:03:03.90</time>
<name>1664</name>
</trkpt>
<trkpt lat="41.800843" lon="-1.736787">
<ele>891.5</ele>
<speed>8.0</speed>
<course>251.5</course>
<desc>Speed 8.0 km/h Distance 6.28 km</desc>
<time>2011-09-24T10:03:04.90</time>
<name>1665</name>
</trkpt>
<trkpt lat="41.800837" lon="-1.736813">
<ele>892.0</ele>
<speed>8.0</speed>
<course>260.5</course>
<desc>Speed 8.0 km/h Distance 6.29 km</desc>
<time>2011-09-24T10:03:05.90</time>
<name>1666</name>
</trkpt>
<trkpt lat="41.800833" lon="-1.736840">
<ele>892.0</ele>
<speed>8.1</speed>
<course>243.3</course>
<desc>Speed 8.1 km/h Distance 6.29 km</desc>
<time>2011-09-24T10:03:06.90</time>
<name>1667</name>
</trkpt>
<trkpt lat="41.800823" lon="-1.736867">
<ele>892.0</ele>
<speed>8.1</speed>
<course>245.9</course>
<desc>Speed 8.1 km/h Distance 6.29 km</desc>
<time>2011-09-24T10:03:07.90</time>
<name>1668</name>
</trkpt>
<trkpt lat="41.800815" lon="-1.736892">
<ele>892.0</ele>
<speed>8.4</speed>
<course>252.5</course>
<desc>Speed 8.4 km/h Distance 6.29 km</desc>
<time>2011-09-24T10:03:08.90</time>
<name>1669</name>
</trkpt>
<trkpt lat="41.800808" lon="-1.736920">
<ele>892.0</ele>
<speed>8.4</speed>
<course>255.9</course>
<desc>Speed 8.4 km/h Distance 6.30 km</desc>
<time>2011-09-24T10:03:09.90</time>
<name>1670</name>
</trkpt>
<trkpt lat="41.800803" lon="-1.736947">
<ele>892.5</ele>
<speed>8.0</speed>
<course>251.4</course>
<desc>Speed 8.0 km/h Distance 6.30 km</desc>
<time>2011-09-24T10:03:10.90</time>
<name>1671</name>
</trkpt>
<trkpt lat="41.800797" lon="-1.736973">
<ele>892.5</ele>
<speed>8.1</speed>
<course>241.8</course>
<desc>Speed 8.1 km/h Distance 6.30 km</desc>
<time>2011-09-24T10:03:11.90</time>
<name>1672</name>
</trkpt>
<trkpt lat="41.800787" lon="-1.736998">
<ele>893.0</ele>
<speed>8.2</speed>
<course>251.5</course>
<desc>Speed 8.2 km/h Distance 6.30 km</desc>
<time>2011-09-24T10:03:12.90</time>
<name>1673</name>
</trkpt>
<trkpt lat="41.800780" lon="-1.737025">
<ele>893.0</ele>
<speed>8.2</speed>
<course>256.7</course>
<desc>Speed 8.2 km/h Distance 6.31 km</desc>
<time>2011-09-24T10:03:13.90</time>
<name>1674</name>
</trkpt>
<trkpt lat="41.800775" lon="-1.737053">
<ele>893.5</ele>
<speed>8.2</speed>
<course>247.2</course>
<desc>Speed 8.2 km/h Distance 6.31 km</desc>
<time>2011-09-24T10:03:14.90</time>
<name>1675</name>
</trkpt>
<trkpt lat="41.800767" lon="-1.737080">
<ele>893.5</ele>
<speed>8.3</speed>
<course>251.5</course>
<desc>Speed 8.3 km/h Distance 6.31 km</desc>
<time>2011-09-24T10:03:15.90</time>
<name>1676</name>
</trkpt>
<trkpt lat="41.800760" lon="-1.737107">
<ele>894.0</ele>
<speed>8.4</speed>
<course>255.9</course>
<desc>Speed 8.4 km/h Distance 6.31 km</desc>
<time>2011-09-24T10:03:16.90</time>
<name>1677</name>
</trkpt>
<trkpt lat="41.800755" lon="-1.737133">
<ele>894.0</ele>
<speed>8.5</speed>
<course>265.7</course>
<desc>Speed 8.5 km/h Distance 6.31 km</desc>
<time>2011-09-24T10:03:17.89</time>
<name>1678</name>
</trkpt>
<trkpt lat="41.800753" lon="-1.737163">
<ele>894.5</ele>
<speed>8.3</speed>
<course>255.9</course>
<desc>Speed 8.3 km/h Distance 6.32 km</desc>
<time>2011-09-24T10:03:18.89</time>
<name>1679</name>
</trkpt>
<trkpt lat="41.800748" lon="-1.737190">
<ele>894.5</ele>
<speed>8.3</speed>
<course>248.5</course>
<desc>Speed 8.3 km/h Distance 6.32 km</desc>
<time>2011-09-24T10:03:19.89</time>
<name>1680</name>
</trkpt>
<trkpt lat="41.800740" lon="-1.737218">
<ele>895.0</ele>
<speed>8.4</speed>
<course>251.5</course>
<desc>Speed 8.4 km/h Distance 6.32 km</desc>
<time>2011-09-24T10:03:20.89</time>
<name>1681</name>
</trkpt>
<trkpt lat="41.800733" lon="-1.737245">
<ele>895.0</ele>
<speed>8.3</speed>
<course>256.7</course>
<desc>Speed 8.3 km/h Distance 6.32 km</desc>
<time>2011-09-24T10:03:21.89</time>
<name>1682</name>
</trkpt>
<trkpt lat="41.800728" lon="-1.737273">
<ele>895.5</ele>
<speed>8.6</speed>
<course>251.5</course>
<desc>Speed 8.6 km/h Distance 6.33 km</desc>
<time>2011-09-24T10:03:22.89</time>
<name>1683</name>
</trkpt>
<trkpt lat="41.800722" lon="-1.737300">
<ele>895.5</ele>
<speed>8.4</speed>
<course>252.5</course>
<desc>Speed 8.4 km/h Distance 6.33 km</desc>
<time>2011-09-24T10:03:23.89</time>
<name>1684</name>
</trkpt>
<trkpt lat="41.800715" lon="-1.737328">
<ele>895.5</ele>
<speed>8.4</speed>
<course>251.5</course>
<desc>Speed 8.4 km/h Distance 6.33 km</desc>
<time>2011-09-24T10:03:24.89</time>
<name>1685</name>
</trkpt>
<trkpt lat="41.800708" lon="-1.737355">
<ele>896.0</ele>
<speed>8.2</speed>
<course>255.0</course>
<desc>Speed 8.2 km/h Distance 6.33 km</desc>
<time>2011-09-24T10:03:25.90</time>
<name>1686</name>
</trkpt>
<trkpt lat="41.800703" lon="-1.737380">
<ele>896.0</ele>
<speed>7.7</speed>
<course>259.9</course>
<desc>Speed 7.7 km/h Distance 6.34 km</desc>
<time>2011-09-24T10:03:26.89</time>
<name>1687</name>
</trkpt>
<trkpt lat="41.800700" lon="-1.737405">
<ele>896.0</ele>
<speed>7.8</speed>
<course>255.9</course>
<desc>Speed 7.8 km/h Distance 6.34 km</desc>
<time>2011-09-24T10:03:27.89</time>
<name>1688</name>
</trkpt>
<trkpt lat="41.800695" lon="-1.737432">
<ele>896.0</ele>
<speed>8.1</speed>
<course>252.5</course>
<desc>Speed 8.1 km/h Distance 6.34 km</desc>
<time>2011-09-24T10:03:28.89</time>
<name>1689</name>
</trkpt>
<trkpt lat="41.800688" lon="-1.737460">
<ele>896.0</ele>
<speed>8.5</speed>
<course>251.4</course>
<desc>Speed 8.5 km/h Distance 6.34 km</desc>
<time>2011-09-24T10:03:29.89</time>
<name>1690</name>
</trkpt>
<trkpt lat="41.800682" lon="-1.737487">
<ele>896.0</ele>
<speed>8.6</speed>
<course>256.7</course>
<desc>Speed 8.6 km/h Distance 6.35 km</desc>
<time>2011-09-24T10:03:30.88</time>
<name>1691</name>
</trkpt>
<trkpt lat="41.800677" lon="-1.737515">
<ele>896.0</ele>
<speed>8.5</speed>
<course>255.9</course>
<desc>Speed 8.5 km/h Distance 6.35 km</desc>
<time>2011-09-24T10:03:31.88</time>
<name>1692</name>
</trkpt>
<trkpt lat="41.800672" lon="-1.737542">
<ele>896.0</ele>
<speed>8.3</speed>
<course>256.7</course>
<desc>Speed 8.3 km/h Distance 6.35 km</desc>
<time>2011-09-24T10:03:32.88</time>
<name>1693</name>
</trkpt>
<trkpt lat="41.800667" lon="-1.737570">
<ele>896.5</ele>
<speed>8.4</speed>
<course>255.9</course>
<desc>Speed 8.4 km/h Distance 6.35 km</desc>
<time>2011-09-24T10:03:33.88</time>
<name>1694</name>
</trkpt>
<trkpt lat="41.800662" lon="-1.737597">
<ele>896.5</ele>
<speed>8.4</speed>
<course>247.2</course>
<desc>Speed 8.4 km/h Distance 6.35 km</desc>
<time>2011-09-24T10:03:34.88</time>
<name>1695</name>
</trkpt>
<trkpt lat="41.800653" lon="-1.737623">
<ele>897.0</ele>
<speed>8.4</speed>
<course>252.5</course>
<desc>Speed 8.4 km/h Distance 6.36 km</desc>
<time>2011-09-24T10:03:35.88</time>
<name>1696</name>
</trkpt>
<trkpt lat="41.800647" lon="-1.737652">
<ele>897.0</ele>
<speed>8.4</speed>
<course>252.5</course>
<desc>Speed 8.4 km/h Distance 6.36 km</desc>
<time>2011-09-24T10:03:36.88</time>
<name>1697</name>
</trkpt>
<trkpt lat="41.800640" lon="-1.737680">
<ele>897.0</ele>
<speed>8.4</speed>
<course>252.5</course>
<desc>Speed 8.4 km/h Distance 6.36 km</desc>
<time>2011-09-24T10:03:37.88</time>
<name>1698</name>
</trkpt>
<trkpt lat="41.800633" lon="-1.737708">
<ele>897.5</ele>
<speed>8.6</speed>
<course>247.3</course>
<desc>Speed 8.6 km/h Distance 6.36 km</desc>
<time>2011-09-24T10:03:38.88</time>
<name>1699</name>
</trkpt>
<trkpt lat="41.800625" lon="-1.737735">
<ele>897.5</ele>
<speed>8.5</speed>
<course>247.3</course>
<desc>Speed 8.5 km/h Distance 6.37 km</desc>
<time>2011-09-24T10:03:39.88</time>
<name>1700</name>
</trkpt>
<trkpt lat="41.800617" lon="-1.737762">
<ele>897.5</ele>
<speed>8.1</speed>
<course>251.5</course>
<desc>Speed 8.1 km/h Distance 6.37 km</desc>
<time>2011-09-24T10:03:40.88</time>
<name>1701</name>
</trkpt>
<trkpt lat="41.800610" lon="-1.737788">
<ele>898.0</ele>
<speed>8.0</speed>
<course>245.9</course>
<desc>Speed 8.0 km/h Distance 6.37 km</desc>
<time>2011-09-24T10:03:41.88</time>
<name>1702</name>
</trkpt>
<trkpt lat="41.800602" lon="-1.737813">
<ele>898.0</ele>
<speed>8.1</speed>
<course>251.5</course>
<desc>Speed 8.1 km/h Distance 6.37 km</desc>
<time>2011-09-24T10:03:42.88</time>
<name>1703</name>
</trkpt>
<trkpt lat="41.800595" lon="-1.737840">
<ele>898.5</ele>
<speed>8.3</speed>
<course>247.3</course>
<desc>Speed 8.3 km/h Distance 6.38 km</desc>
<time>2011-09-24T10:03:43.87</time>
<name>1704</name>
</trkpt>
<trkpt lat="41.800587" lon="-1.737867">
<ele>898.5</ele>
<speed>8.4</speed>
<course>247.3</course>
<desc>Speed 8.4 km/h Distance 6.38 km</desc>
<time>2011-09-24T10:03:44.88</time>
<name>1705</name>
</trkpt>
<trkpt lat="41.800578" lon="-1.737893">
<ele>898.5</ele>
<speed>8.4</speed>
<course>251.5</course>
<desc>Speed 8.4 km/h Distance 6.38 km</desc>
<time>2011-09-24T10:03:45.88</time>
<name>1706</name>
</trkpt>
<trkpt lat="41.800572" lon="-1.737920">
<ele>899.0</ele>
<speed>8.4</speed>
<course>251.5</course>
<desc>Speed 8.4 km/h Distance 6.38 km</desc>
<time>2011-09-24T10:03:46.88</time>
<name>1707</name>
</trkpt>
<trkpt lat="41.800565" lon="-1.737947">
<ele>899.0</ele>
<speed>8.3</speed>
<course>255.9</course>
<desc>Speed 8.3 km/h Distance 6.39 km</desc>
<time>2011-09-24T10:03:47.88</time>
<name>1708</name>
</trkpt>
<trkpt lat="41.800560" lon="-1.737973">
<ele>899.0</ele>
<speed>8.1</speed>
<course>251.4</course>
<desc>Speed 8.1 km/h Distance 6.39 km</desc>
<time>2011-09-24T10:03:48.88</time>
<name>1709</name>
</trkpt>
<trkpt lat="41.800553" lon="-1.738000">
<ele>899.0</ele>
<speed>8.3</speed>
<course>255.9</course>
<desc>Speed 8.3 km/h Distance 6.39 km</desc>
<time>2011-09-24T10:03:49.87</time>
<name>1710</name>
</trkpt>
<trkpt lat="41.800548" lon="-1.738027">
<ele>899.0</ele>
<speed>8.2</speed>
<course>241.7</course>
<desc>Speed 8.2 km/h Distance 6.39 km</desc>
<time>2011-09-24T10:03:50.87</time>
<name>1711</name>
</trkpt>
<trkpt lat="41.800538" lon="-1.738052">
<ele>899.5</ele>
<speed>8.4</speed>
<course>245.9</course>
<desc>Speed 8.4 km/h Distance 6.39 km</desc>
<time>2011-09-24T10:03:51.87</time>
<name>1712</name>
</trkpt>
<trkpt lat="41.800530" lon="-1.738077">
<ele>899.5</ele>
<speed>8.4</speed>
<course>251.4</course>
<desc>Speed 8.4 km/h Distance 6.40 km</desc>
<time>2011-09-24T10:03:52.87</time>
<name>1713</name>
</trkpt>
<trkpt lat="41.800523" lon="-1.738103">
<ele>899.5</ele>
<speed>8.2</speed>
<course>255.0</course>
<desc>Speed 8.2 km/h Distance 6.40 km</desc>
<time>2011-09-24T10:03:53.87</time>
<name>1714</name>
</trkpt>
<trkpt lat="41.800518" lon="-1.738128">
<ele>899.5</ele>
<speed>7.8</speed>
<course>251.4</course>
<desc>Speed 7.8 km/h Distance 6.40 km</desc>
<time>2011-09-24T10:03:54.87</time>
<name>1715</name>
</trkpt>
<trkpt lat="41.800512" lon="-1.738155">
<ele>899.5</ele>
<speed>8.3</speed>
<course>255.0</course>
<desc>Speed 8.3 km/h Distance 6.40 km</desc>
<time>2011-09-24T10:03:55.87</time>
<name>1716</name>
</trkpt>
<trkpt lat="41.800507" lon="-1.738180">
<ele>900.0</ele>
<speed>8.1</speed>
<course>255.0</course>
<desc>Speed 8.1 km/h Distance 6.41 km</desc>
<time>2011-09-24T10:03:56.87</time>
<name>1717</name>
</trkpt>
<trkpt lat="41.800502" lon="-1.738205">
<ele>900.0</ele>
<speed>7.7</speed>
<course>254.0</course>
<desc>Speed 7.7 km/h Distance 6.41 km</desc>
<time>2011-09-24T10:03:57.86</time>
<name>1718</name>
</trkpt>
<trkpt lat="41.800497" lon="-1.738228">
<ele>900.0</ele>
<speed>7.2</speed>
<course>264.1</course>
<desc>Speed 7.2 km/h Distance 6.41 km</desc>
<time>2011-09-24T10:03:58.86</time>
<name>1719</name>
</trkpt>
<trkpt lat="41.800495" lon="-1.738250">
<ele>900.0</ele>
<speed>6.6</speed>
<course>238.3</course>
<desc>Speed 6.6 km/h Distance 6.41 km</desc>
<time>2011-09-24T10:03:59.86</time>
<name>1720</name>
</trkpt>
<trkpt lat="41.800485" lon="-1.738272">
<ele>900.0</ele>
<speed>7.2</speed>
<course>245.9</course>
<desc>Speed 7.2 km/h Distance 6.41 km</desc>
<time>2011-09-24T10:04:00.87</time>
<name>1721</name>
</trkpt>
<trkpt lat="41.800477" lon="-1.738297">
<ele>900.5</ele>
<speed>8.0</speed>
<course>245.9</course>
<desc>Speed 8.0 km/h Distance 6.42 km</desc>
<time>2011-09-24T10:04:01.86</time>
<name>1722</name>
</trkpt>
<trkpt lat="41.800468" lon="-1.738322">
<ele>900.5</ele>
<speed>8.2</speed>
<course>250.3</course>
<desc>Speed 8.2 km/h Distance 6.42 km</desc>
<time>2011-09-24T10:04:02.86</time>
<name>1723</name>
</trkpt>
<trkpt lat="41.800462" lon="-1.738347">
<ele>900.5</ele>
<speed>8.2</speed>
<course>255.9</course>
<desc>Speed 8.2 km/h Distance 6.42 km</desc>
<time>2011-09-24T10:04:03.86</time>
<name>1724</name>
</trkpt>
<trkpt lat="41.800457" lon="-1.738373">
<ele>900.5</ele>
<speed>8.0</speed>
<course>245.9</course>
<desc>Speed 8.0 km/h Distance 6.42 km</desc>
<time>2011-09-24T10:04:04.86</time>
<name>1725</name>
</trkpt>
<trkpt lat="41.800448" lon="-1.738398">
<ele>901.0</ele>
<speed>8.0</speed>
<course>240.1</course>
<desc>Speed 8.0 km/h Distance 6.43 km</desc>
<time>2011-09-24T10:04:05.86</time>
<name>1726</name>
</trkpt>
<trkpt lat="41.800438" lon="-1.738422">
<ele>901.0</ele>
<speed>8.1</speed>
<course>245.9</course>
<desc>Speed 8.1 km/h Distance 6.43 km</desc>
<time>2011-09-24T10:04:06.86</time>
<name>1727</name>
</trkpt>
<trkpt lat="41.800430" lon="-1.738447">
<ele>901.0</ele>
<speed>8.2</speed>
<course>245.9</course>
<desc>Speed 8.2 km/h Distance 6.43 km</desc>
<time>2011-09-24T10:04:07.86</time>
<name>1728</name>
</trkpt>
<trkpt lat="41.800422" lon="-1.738472">
<ele>901.5</ele>
<speed>8.0</speed>
<course>241.7</course>
<desc>Speed 8.0 km/h Distance 6.43 km</desc>
<time>2011-09-24T10:04:08.86</time>
<name>1729</name>
</trkpt>
<trkpt lat="41.800412" lon="-1.738497">
<ele>901.5</ele>
<speed>8.2</speed>
<course>250.3</course>
<desc>Speed 8.2 km/h Distance 6.43 km</desc>
<time>2011-09-24T10:04:09.86</time>
<name>1730</name>
</trkpt>
<trkpt lat="41.800405" lon="-1.738522">
<ele>901.5</ele>
<speed>8.0</speed>
<course>247.3</course>
<desc>Speed 8.0 km/h Distance 6.44 km</desc>
<time>2011-09-24T10:04:10.86</time>
<name>1731</name>
</trkpt>
<trkpt lat="41.800397" lon="-1.738548">
<ele>901.5</ele>
<speed>8.2</speed>
<course>244.4</course>
<desc>Speed 8.2 km/h Distance 6.44 km</desc>
<time>2011-09-24T10:04:11.85</time>
<name>1732</name>
</trkpt>
<trkpt lat="41.800388" lon="-1.738572">
<ele>901.5</ele>
<speed>7.7</speed>
<course>241.7</course>
<desc>Speed 7.7 km/h Distance 6.44 km</desc>
<time>2011-09-24T10:04:12.86</time>
<name>1733</name>
</trkpt>
<trkpt lat="41.800378" lon="-1.738597">
<ele>901.5</ele>
<speed>8.2</speed>
<course>245.9</course>
<desc>Speed 8.2 km/h Distance 6.44 km</desc>
<time>2011-09-24T10:04:13.85</time>
<name>1734</name>
</trkpt>
<trkpt lat="41.800370" lon="-1.738622">
<ele>901.5</ele>
<speed>7.8</speed>
<course>255.0</course>
<desc>Speed 7.8 km/h Distance 6.45 km</desc>
<time>2011-09-24T10:04:14.85</time>
<name>1735</name>
</trkpt>
<trkpt lat="41.800365" lon="-1.738647">
<ele>902.0</ele>
<speed>7.7</speed>
<course>241.8</course>
<desc>Speed 7.7 km/h Distance 6.45 km</desc>
<time>2011-09-24T10:04:15.86</time>
<name>1736</name>
</trkpt>
<trkpt lat="41.800355" lon="-1.738672">
<ele>902.5</ele>
<speed>7.8</speed>
<course>234.4</course>
<desc>Speed 7.8 km/h Distance 6.45 km</desc>
<time>2011-09-24T10:04:16.86</time>
<name>1737</name>
</trkpt>
<trkpt lat="41.800342" lon="-1.738697">
<ele>903.0</ele>
<speed>8.0</speed>
<course>241.8</course>
<desc>Speed 8.0 km/h Distance 6.45 km</desc>
<time>2011-09-24T10:04:17.85</time>
<name>1738</name>
</trkpt>
<trkpt lat="41.800332" lon="-1.738722">
<ele>903.5</ele>
<speed>7.7</speed>
<course>238.0</course>
<desc>Speed 7.7 km/h Distance 6.46 km</desc>
<time>2011-09-24T10:04:18.85</time>
<name>1739</name>
</trkpt>
<trkpt lat="41.800320" lon="-1.738747">
<ele>903.5</ele>
<speed>8.4</speed>
<course>243.3</course>
<desc>Speed 8.4 km/h Distance 6.46 km</desc>
<time>2011-09-24T10:04:19.85</time>
<name>1740</name>
</trkpt>
<trkpt lat="41.800310" lon="-1.738773">
<ele>904.0</ele>
<speed>8.7</speed>
<course>243.3</course>
<desc>Speed 8.7 km/h Distance 6.46 km</desc>
<time>2011-09-24T10:04:20.85</time>
<name>1741</name>
</trkpt>
<trkpt lat="41.800300" lon="-1.738800">
<ele>904.0</ele>
<speed>8.8</speed>
<course>250.3</course>
<desc>Speed 8.8 km/h Distance 6.46 km</desc>
<time>2011-09-24T10:04:21.85</time>
<name>1742</name>
</trkpt>
<trkpt lat="41.800293" lon="-1.738825">
<ele>904.5</ele>
<speed>8.4</speed>
<course>251.5</course>
<desc>Speed 8.4 km/h Distance 6.46 km</desc>
<time>2011-09-24T10:04:22.85</time>
<name>1743</name>
</trkpt>
<trkpt lat="41.800287" lon="-1.738852">
<ele>904.5</ele>
<speed>8.2</speed>
<course>251.5</course>
<desc>Speed 8.2 km/h Distance 6.47 km</desc>
<time>2011-09-24T10:04:23.85</time>
<name>1744</name>
</trkpt>
<trkpt lat="41.800280" lon="-1.738878">
<ele>904.5</ele>
<speed>8.1</speed>
<course>250.3</course>
<desc>Speed 8.1 km/h Distance 6.47 km</desc>
<time>2011-09-24T10:04:24.84</time>
<name>1745</name>
</trkpt>
<trkpt lat="41.800273" lon="-1.738903">
<ele>904.5</ele>
<speed>8.1</speed>
<course>250.3</course>
<desc>Speed 8.1 km/h Distance 6.47 km</desc>
<time>2011-09-24T10:04:25.85</time>
<name>1746</name>
</trkpt>
<trkpt lat="41.800267" lon="-1.738928">
<ele>904.5</ele>
<speed>8.0</speed>
<course>245.9</course>
<desc>Speed 8.0 km/h Distance 6.47 km</desc>
<time>2011-09-24T10:04:26.84</time>
<name>1747</name>
</trkpt>
<trkpt lat="41.800258" lon="-1.738953">
<ele>904.5</ele>
<speed>8.2</speed>
<course>241.8</course>
<desc>Speed 8.2 km/h Distance 6.48 km</desc>
<time>2011-09-24T10:04:27.84</time>
<name>1748</name>
</trkpt>
<trkpt lat="41.800248" lon="-1.738978">
<ele>905.0</ele>
<speed>8.3</speed>
<course>247.2</course>
<desc>Speed 8.3 km/h Distance 6.48 km</desc>
<time>2011-09-24T10:04:28.84</time>
<name>1749</name>
</trkpt>
<trkpt lat="41.800240" lon="-1.739005">
<ele>905.0</ele>
<speed>8.5</speed>
<course>245.9</course>
<desc>Speed 8.5 km/h Distance 6.48 km</desc>
<time>2011-09-24T10:04:29.84</time>
<name>1750</name>
</trkpt>
<trkpt lat="41.800232" lon="-1.739030">
<ele>905.0</ele>
<speed>8.2</speed>
<course>245.9</course>
<desc>Speed 8.2 km/h Distance 6.48 km</desc>
<time>2011-09-24T10:04:30.84</time>
<name>1751</name>
</trkpt>
<trkpt lat="41.800223" lon="-1.739055">
<ele>905.0</ele>
<speed>8.1</speed>
<course>241.7</course>
<desc>Speed 8.1 km/h Distance 6.49 km</desc>
<time>2011-09-24T10:04:31.84</time>
<name>1752</name>
</trkpt>
<trkpt lat="41.800213" lon="-1.739080">
<ele>905.5</ele>
<speed>8.6</speed>
<course>247.2</course>
<desc>Speed 8.6 km/h Distance 6.49 km</desc>
<time>2011-09-24T10:04:32.84</time>
<name>1753</name>
</trkpt>
<trkpt lat="41.800205" lon="-1.739107">
<ele>905.5</ele>
<speed>8.4</speed>
<course>245.9</course>
<desc>Speed 8.4 km/h Distance 6.49 km</desc>
<time>2011-09-24T10:04:33.84</time>
<name>1754</name>
</trkpt>
<trkpt lat="41.800197" lon="-1.739132">
<ele>905.5</ele>
<speed>8.4</speed>
<course>241.8</course>
<desc>Speed 8.4 km/h Distance 6.49 km</desc>
<time>2011-09-24T10:04:34.84</time>
<name>1755</name>
</trkpt>
<trkpt lat="41.800187" lon="-1.739157">
<ele>905.5</ele>
<speed>8.7</speed>
<course>243.3</course>
<desc>Speed 8.7 km/h Distance 6.49 km</desc>
<time>2011-09-24T10:04:35.84</time>
<name>1756</name>
</trkpt>
<trkpt lat="41.800177" lon="-1.739183">
<ele>906.0</ele>
<speed>8.3</speed>
<course>249.0</course>
<desc>Speed 8.3 km/h Distance 6.50 km</desc>
<time>2011-09-24T10:04:36.84</time>
<name>1757</name>
</trkpt>
<trkpt lat="41.800170" lon="-1.739207">
<ele>906.0</ele>
<speed>7.6</speed>
<course>252.8</course>
<desc>Speed 7.6 km/h Distance 6.50 km</desc>
<time>2011-09-24T10:04:37.84</time>
<name>1758</name>
</trkpt>
<trkpt lat="41.800165" lon="-1.739228">
<ele>906.0</ele>
<speed>6.7</speed>
<course>238.2</course>
<desc>Speed 6.7 km/h Distance 6.50 km</desc>
<time>2011-09-24T10:04:38.83</time>
<name>1759</name>
</trkpt>
<trkpt lat="41.800155" lon="-1.739250">
<ele>906.5</ele>
<speed>7.4</speed>
<course>244.4</course>
<desc>Speed 7.4 km/h Distance 6.50 km</desc>
<time>2011-09-24T10:04:39.83</time>
<name>1760</name>
</trkpt>
<trkpt lat="41.800147" lon="-1.739273">
<ele>906.5</ele>
<speed>7.8</speed>
<course>245.9</course>
<desc>Speed 7.8 km/h Distance 6.51 km</desc>
<time>2011-09-24T10:04:40.84</time>
<name>1761</name>
</trkpt>
<trkpt lat="41.800138" lon="-1.739298">
<ele>906.5</ele>
<speed>7.9</speed>
<course>240.2</course>
<desc>Speed 7.9 km/h Distance 6.51 km</desc>
<time>2011-09-24T10:04:41.83</time>
<name>1762</name>
</trkpt>
<trkpt lat="41.800128" lon="-1.739322">
<ele>907.0</ele>
<speed>8.1</speed>
<course>249.1</course>
<desc>Speed 8.1 km/h Distance 6.51 km</desc>
<time>2011-09-24T10:04:42.84</time>
<name>1763</name>
</trkpt>
<trkpt lat="41.800122" lon="-1.739345">
<ele>907.0</ele>
<speed>7.6</speed>
<course>249.0</course>
<desc>Speed 7.6 km/h Distance 6.51 km</desc>
<time>2011-09-24T10:04:43.84</time>
<name>1764</name>
</trkpt>
<trkpt lat="41.800115" lon="-1.739368">
<ele>907.0</ele>
<speed>7.5</speed>
<course>234.2</course>
<desc>Speed 7.5 km/h Distance 6.51 km</desc>
<time>2011-09-24T10:04:44.83</time>
<name>1765</name>
</trkpt>
<trkpt lat="41.800103" lon="-1.739390">
<ele>907.0</ele>
<speed>7.9</speed>
<course>227.2</course>
<desc>Speed 7.9 km/h Distance 6.52 km</desc>
<time>2011-09-24T10:04:45.83</time>
<name>1766</name>
</trkpt>
<trkpt lat="41.800088" lon="-1.739412">
<ele>907.5</ele>
<speed>8.0</speed>
<course>244.4</course>
<desc>Speed 8.0 km/h Distance 6.52 km</desc>
<time>2011-09-24T10:04:46.83</time>
<name>1767</name>
</trkpt>
<trkpt lat="41.800080" lon="-1.739435">
<ele>907.5</ele>
<speed>7.8</speed>
<course>251.4</course>
<desc>Speed 7.8 km/h Distance 6.52 km</desc>
<time>2011-09-24T10:04:47.83</time>
<name>1768</name>
</trkpt>
<trkpt lat="41.800073" lon="-1.739462">
<ele>908.0</ele>
<speed>7.9</speed>
<course>245.9</course>
<desc>Speed 7.9 km/h Distance 6.52 km</desc>
<time>2011-09-24T10:04:48.83</time>
<name>1769</name>
</trkpt>
<trkpt lat="41.800065" lon="-1.739487">
<ele>908.0</ele>
<speed>8.0</speed>
<course>247.3</course>
<desc>Speed 8.0 km/h Distance 6.53 km</desc>
<time>2011-09-24T10:04:49.83</time>
<name>1770</name>
</trkpt>
<trkpt lat="41.800057" lon="-1.739513">
<ele>908.5</ele>
<speed>8.4</speed>
<course>256.7</course>
<desc>Speed 8.4 km/h Distance 6.53 km</desc>
<time>2011-09-24T10:04:50.83</time>
<name>1771</name>
</trkpt>
<trkpt lat="41.800052" lon="-1.739542">
<ele>908.5</ele>
<speed>8.3</speed>
<course>247.3</course>
<desc>Speed 8.3 km/h Distance 6.53 km</desc>
<time>2011-09-24T10:04:51.83</time>
<name>1772</name>
</trkpt>
<trkpt lat="41.800043" lon="-1.739568">
<ele>908.5</ele>
<speed>8.3</speed>
<course>245.9</course>
<desc>Speed 8.3 km/h Distance 6.53 km</desc>
<time>2011-09-24T10:04:52.82</time>
<name>1773</name>
</trkpt>
<trkpt lat="41.800035" lon="-1.739593">
<ele>909.0</ele>
<speed>8.0</speed>
<course>245.9</course>
<desc>Speed 8.0 km/h Distance 6.54 km</desc>
<time>2011-09-24T10:04:53.82</time>
<name>1774</name>
</trkpt>
<trkpt lat="41.800027" lon="-1.739618">
<ele>909.0</ele>
<speed>7.8</speed>
<course>249.0</course>
<desc>Speed 7.8 km/h Distance 6.54 km</desc>
<time>2011-09-24T10:04:54.82</time>
<name>1775</name>
</trkpt>
<trkpt lat="41.800020" lon="-1.739642">
<ele>909.5</ele>
<speed>7.7</speed>
<course>240.1</course>
<desc>Speed 7.7 km/h Distance 6.54 km</desc>
<time>2011-09-24T10:04:55.82</time>
<name>1776</name>
</trkpt>
<trkpt lat="41.800010" lon="-1.739665">
<ele>909.5</ele>
<speed>7.9</speed>
<course>250.3</course>
<desc>Speed 7.9 km/h Distance 6.54 km</desc>
<time>2011-09-24T10:04:56.83</time>
<name>1777</name>
</trkpt>
<trkpt lat="41.800003" lon="-1.739690">
<ele>909.5</ele>
<speed>8.1</speed>
<course>241.8</course>
<desc>Speed 8.1 km/h Distance 6.54 km</desc>
<time>2011-09-24T10:04:57.82</time>
<name>1778</name>
</trkpt>
<trkpt lat="41.799993" lon="-1.739715">
<ele>910.0</ele>
<speed>8.3</speed>
<course>206.4</course>
<desc>Speed 8.3 km/h Distance 6.55 km</desc>
<time>2011-09-24T10:04:58.82</time>
<name>1779</name>
</trkpt>
<trkpt lat="41.799963" lon="-1.739735">
<ele>910.0</ele>
<speed>12.9</speed>
<course>232.5</course>
<desc>Speed 12.9 km/h Distance 6.55 km</desc>
<time>2011-09-24T10:04:59.83</time>
<name>1780</name>
</trkpt>
<trkpt lat="41.799950" lon="-1.739758">
<ele>910.5</ele>
<speed>8.6</speed>
<course>241.7</course>
<desc>Speed 8.6 km/h Distance 6.55 km</desc>
<time>2011-09-24T10:05:00.82</time>
<name>1781</name>
</trkpt>
<trkpt lat="41.799940" lon="-1.739783">
<ele>910.5</ele>
<speed>8.3</speed>
<course>241.8</course>
<desc>Speed 8.3 km/h Distance 6.55 km</desc>
<time>2011-09-24T10:05:01.82</time>
<name>1782</name>
</trkpt>
<trkpt lat="41.799930" lon="-1.739808">
<ele>910.5</ele>
<speed>8.5</speed>
<course>245.9</course>
<desc>Speed 8.5 km/h Distance 6.56 km</desc>
<time>2011-09-24T10:05:02.82</time>
<name>1783</name>
</trkpt>
<trkpt lat="41.799922" lon="-1.739833">
<ele>911.0</ele>
<speed>8.4</speed>
<course>255.9</course>
<desc>Speed 8.4 km/h Distance 6.56 km</desc>
<time>2011-09-24T10:05:03.82</time>
<name>1784</name>
</trkpt>
<trkpt lat="41.799917" lon="-1.739860">
<ele>911.0</ele>
<speed>8.4</speed>
<course>243.3</course>
<desc>Speed 8.4 km/h Distance 6.56 km</desc>
<time>2011-09-24T10:05:04.82</time>
<name>1785</name>
</trkpt>
<trkpt lat="41.799907" lon="-1.739887">
<ele>911.0</ele>
<speed>8.5</speed>
<course>250.3</course>
<desc>Speed 8.5 km/h Distance 6.56 km</desc>
<time>2011-09-24T10:05:05.82</time>
<name>1786</name>
</trkpt>
<trkpt lat="41.799900" lon="-1.739912">
<ele>911.5</ele>
<speed>8.2</speed>
<course>245.9</course>
<desc>Speed 8.2 km/h Distance 6.57 km</desc>
<time>2011-09-24T10:05:06.82</time>
<name>1787</name>
</trkpt>
<trkpt lat="41.799892" lon="-1.739937">
<ele>911.5</ele>
<speed>8.0</speed>
<course>241.8</course>
<desc>Speed 8.0 km/h Distance 6.57 km</desc>
<time>2011-09-24T10:05:07.81</time>
<name>1788</name>
</trkpt>
<trkpt lat="41.799882" lon="-1.739962">
<ele>911.5</ele>
<speed>8.4</speed>
<course>250.3</course>
<desc>Speed 8.4 km/h Distance 6.57 km</desc>
<time>2011-09-24T10:05:08.81</time>
<name>1789</name>
</trkpt>
<trkpt lat="41.799875" lon="-1.739987">
<ele>912.0</ele>
<speed>8.3</speed>
<course>247.2</course>
<desc>Speed 8.3 km/h Distance 6.57 km</desc>
<time>2011-09-24T10:05:09.81</time>
<name>1790</name>
</trkpt>
<trkpt lat="41.799867" lon="-1.740013">
<ele>912.0</ele>
<speed>8.2</speed>
<course>240.1</course>
<desc>Speed 8.2 km/h Distance 6.58 km</desc>
<time>2011-09-24T10:05:10.81</time>
<name>1791</name>
</trkpt>
<trkpt lat="41.799857" lon="-1.740037">
<ele>912.5</ele>
<speed>8.4</speed>
<course>237.9</course>
<desc>Speed 8.4 km/h Distance 6.58 km</desc>
<time>2011-09-24T10:05:11.81</time>
<name>1792</name>
</trkpt>
<trkpt lat="41.799845" lon="-1.740062">
<ele>912.5</ele>
<speed>8.3</speed>
<course>236.1</course>
<desc>Speed 8.3 km/h Distance 6.58 km</desc>
<time>2011-09-24T10:05:12.81</time>
<name>1793</name>
</trkpt>
<trkpt lat="41.799833" lon="-1.740085">
<ele>913.0</ele>
<speed>8.5</speed>
<course>250.3</course>
<desc>Speed 8.5 km/h Distance 6.58 km</desc>
<time>2011-09-24T10:05:13.81</time>
<name>1794</name>
</trkpt>
<trkpt lat="41.799827" lon="-1.740110">
<ele>913.0</ele>
<speed>8.1</speed>
<course>236.1</course>
<desc>Speed 8.1 km/h Distance 6.58 km</desc>
<time>2011-09-24T10:05:14.81</time>
<name>1795</name>
</trkpt>
<trkpt lat="41.799817" lon="-1.740130">
<ele>913.5</ele>
<speed>7.8</speed>
<course>232.0</course>
<desc>Speed 7.8 km/h Distance 6.59 km</desc>
<time>2011-09-24T10:05:15.81</time>
<name>1796</name>
</trkpt>
<trkpt lat="41.799805" lon="-1.740150">
<ele>913.5</ele>
<speed>7.7</speed>
<course>225.7</course>
<desc>Speed 7.7 km/h Distance 6.59 km</desc>
<time>2011-09-24T10:05:16.81</time>
<name>1797</name>
</trkpt>
<trkpt lat="41.799792" lon="-1.740168">
<ele>914.0</ele>
<speed>7.8</speed>
<course>240.1</course>
<desc>Speed 7.8 km/h Distance 6.59 km</desc>
<time>2011-09-24T10:05:17.82</time>
<name>1798</name>
</trkpt>
<trkpt lat="41.799782" lon="-1.740192">
<ele>914.0</ele>
<speed>7.5</speed>
<course>236.2</course>
<desc>Speed 7.5 km/h Distance 6.59 km</desc>
<time>2011-09-24T10:05:18.81</time>
<name>1799</name>
</trkpt>
<trkpt lat="41.799773" lon="-1.740208">
<ele>914.0</ele>
<speed>5.9</speed>
<course>224.9</course>
<desc>Speed 5.9 km/h Distance 6.59 km</desc>
<time>2011-09-24T10:05:19.81</time>
<name>1800</name>
</trkpt>
<trkpt lat="41.799763" lon="-1.740222">
<ele>914.0</ele>
<speed>6.3</speed>
<course>226.9</course>
<desc>Speed 6.3 km/h Distance 6.60 km</desc>
<time>2011-09-24T10:05:20.81</time>
<name>1801</name>
</trkpt>
<trkpt lat="41.799752" lon="-1.740238">
<ele>914.0</ele>
<speed>6.6</speed>
<course>228.3</course>
<desc>Speed 6.6 km/h Distance 6.60 km</desc>
<time>2011-09-24T10:05:21.82</time>
<name>1802</name>
</trkpt>
<trkpt lat="41.799742" lon="-1.740253">
<ele>914.0</ele>
<speed>5.8</speed>
<course>231.2</course>
<desc>Speed 5.8 km/h Distance 6.60 km</desc>
<time>2011-09-24T10:05:22.82</time>
<name>1803</name>
</trkpt>
<trkpt lat="41.799732" lon="-1.740270">
<ele>914.0</ele>
<speed>6.5</speed>
<course>244.0</course>
<desc>Speed 6.5 km/h Distance 6.60 km</desc>
<time>2011-09-24T10:05:23.81</time>
<name>1804</name>
</trkpt>
<trkpt lat="41.799725" lon="-1.740288">
<ele>914.0</ele>
<speed>6.4</speed>
<course>213.8</course>
<desc>Speed 6.4 km/h Distance 6.60 km</desc>
<time>2011-09-24T10:05:24.81</time>
<name>1805</name>
</trkpt>
<trkpt lat="41.799708" lon="-1.740303">
<ele>915.0</ele>
<speed>8.1</speed>
<course>223.0</course>
<desc>Speed 8.1 km/h Distance 6.61 km</desc>
<time>2011-09-24T10:05:25.82</time>
<name>1806</name>
</trkpt>
<trkpt lat="41.799695" lon="-1.740320">
<ele>915.0</ele>
<speed>7.5</speed>
<course>228.2</course>
<desc>Speed 7.5 km/h Distance 6.61 km</desc>
<time>2011-09-24T10:05:26.81</time>
<name>1807</name>
</trkpt>
<trkpt lat="41.799682" lon="-1.740340">
<ele>915.5</ele>
<speed>7.9</speed>
<course>219.6</course>
<desc>Speed 7.9 km/h Distance 6.61 km</desc>
<time>2011-09-24T10:05:27.81</time>
<name>1808</name>
</trkpt>
<trkpt lat="41.799667" lon="-1.740357">
<ele>915.5</ele>
<speed>7.4</speed>
<course>223.0</course>
<desc>Speed 7.4 km/h Distance 6.61 km</desc>
<time>2011-09-24T10:05:28.81</time>
<name>1809</name>
</trkpt>
<trkpt lat="41.799653" lon="-1.740373">
<ele>916.0</ele>
<speed>7.3</speed>
<course>216.8</course>
<desc>Speed 7.3 km/h Distance 6.61 km</desc>
<time>2011-09-24T10:05:29.81</time>
<name>1810</name>
</trkpt>
<trkpt lat="41.799638" lon="-1.740388">
<ele>916.0</ele>
<speed>7.8</speed>
<course>222.4</course>
<desc>Speed 7.8 km/h Distance 6.62 km</desc>
<time>2011-09-24T10:05:30.81</time>
<name>1811</name>
</trkpt>
<trkpt lat="41.799623" lon="-1.740407">
<ele>916.0</ele>
<speed>8.1</speed>
<course>222.3</course>
<desc>Speed 8.1 km/h Distance 6.62 km</desc>
<time>2011-09-24T10:05:31.81</time>
<name>1812</name>
</trkpt>
<trkpt lat="41.799608" lon="-1.740425">
<ele>916.0</ele>
<speed>8.0</speed>
<course>216.8</course>
<desc>Speed 8.0 km/h Distance 6.62 km</desc>
<time>2011-09-24T10:05:32.80</time>
<name>1813</name>
</trkpt>
<trkpt lat="41.799592" lon="-1.740442">
<ele>917.0</ele>
<speed>7.7</speed>
<course>228.2</course>
<desc>Speed 7.7 km/h Distance 6.62 km</desc>
<time>2011-09-24T10:05:33.81</time>
<name>1814</name>
</trkpt>
<trkpt lat="41.799578" lon="-1.740462">
<ele>917.0</ele>
<speed>7.9</speed>
<course>229.5</course>
<desc>Speed 7.9 km/h Distance 6.63 km</desc>
<time>2011-09-24T10:05:34.81</time>
<name>1815</name>
</trkpt>
<trkpt lat="41.799567" lon="-1.740480">
<ele>917.5</ele>
<speed>7.4</speed>
<course>216.7</course>
<desc>Speed 7.4 km/h Distance 6.63 km</desc>
<time>2011-09-24T10:05:35.80</time>
<name>1816</name>
</trkpt>
<trkpt lat="41.799552" lon="-1.740495">
<ele>917.5</ele>
<speed>7.2</speed>
<course>219.7</course>
<desc>Speed 7.2 km/h Distance 6.63 km</desc>
<time>2011-09-24T10:05:36.81</time>
<name>1817</name>
</trkpt>
<trkpt lat="41.799537" lon="-1.740512">
<ele>918.0</ele>
<speed>7.9</speed>
<course>210.9</course>
<desc>Speed 7.9 km/h Distance 6.63 km</desc>
<time>2011-09-24T10:05:37.83</time>
<name>1818</name>
</trkpt>
<trkpt lat="41.799520" lon="-1.740525">
<ele>918.0</ele>
<speed>7.7</speed>
<course>219.7</course>
<desc>Speed 7.7 km/h Distance 6.63 km</desc>
<time>2011-09-24T10:05:38.79</time>
<name>1819</name>
</trkpt>
<trkpt lat="41.799505" lon="-1.740542">
<ele>918.5</ele>
<speed>8.4</speed>
<course>225.7</course>
<desc>Speed 8.4 km/h Distance 6.64 km</desc>
<time>2011-09-24T10:05:39.79</time>
<name>1820</name>
</trkpt>
<trkpt lat="41.799492" lon="-1.740560">
<ele>918.5</ele>
<speed>7.5</speed>
<course>225.7</course>
<desc>Speed 7.5 km/h Distance 6.64 km</desc>
<time>2011-09-24T10:05:40.79</time>
<name>1821</name>
</trkpt>
<trkpt lat="41.799478" lon="-1.740578">
<ele>919.0</ele>
<speed>7.3</speed>
<course>220.0</course>
<desc>Speed 7.3 km/h Distance 6.64 km</desc>
<time>2011-09-24T10:05:41.79</time>
<name>1822</name>
</trkpt>
<trkpt lat="41.799465" lon="-1.740593">
<ele>919.0</ele>
<speed>7.1</speed>
<course>223.0</course>
<desc>Speed 7.1 km/h Distance 6.64 km</desc>
<time>2011-09-24T10:05:42.80</time>
<name>1823</name>
</trkpt>
<trkpt lat="41.799452" lon="-1.740610">
<ele>919.0</ele>
<speed>7.1</speed>
<course>219.9</course>
<desc>Speed 7.1 km/h Distance 6.64 km</desc>
<time>2011-09-24T10:05:43.80</time>
<name>1824</name>
</trkpt>
<trkpt lat="41.799438" lon="-1.740625">
<ele>919.0</ele>
<speed>7.1</speed>
<course>219.7</course>
<desc>Speed 7.1 km/h Distance 6.65 km</desc>
<time>2011-09-24T10:05:44.79</time>
<name>1825</name>
</trkpt>
<trkpt lat="41.799423" lon="-1.740642">
<ele>919.0</ele>
<speed>8.0</speed>
<course>216.8</course>
<desc>Speed 8.0 km/h Distance 6.65 km</desc>
<time>2011-09-24T10:05:45.79</time>
<name>1826</name>
</trkpt>
<trkpt lat="41.799408" lon="-1.740657">
<ele>919.0</ele>
<speed>7.8</speed>
<course>223.1</course>
<desc>Speed 7.8 km/h Distance 6.65 km</desc>
<time>2011-09-24T10:05:46.79</time>
<name>1827</name>
</trkpt>
<trkpt lat="41.799395" lon="-1.740673">
<ele>919.0</ele>
<speed>7.6</speed>
<course>226.8</course>
<desc>Speed 7.6 km/h Distance 6.65 km</desc>
<time>2011-09-24T10:05:47.79</time>
<name>1828</name>
</trkpt>
<trkpt lat="41.799383" lon="-1.740690">
<ele>919.0</ele>
<speed>7.4</speed>
<course>223.0</course>
<desc>Speed 7.4 km/h Distance 6.65 km</desc>
<time>2011-09-24T10:05:48.79</time>
<name>1829</name>
</trkpt>
<trkpt lat="41.799370" lon="-1.740707">
<ele>919.0</ele>
<speed>7.2</speed>
<course>220.0</course>
<desc>Speed 7.2 km/h Distance 6.66 km</desc>
<time>2011-09-24T10:05:49.79</time>
<name>1830</name>
</trkpt>
<trkpt lat="41.799357" lon="-1.740722">
<ele>919.0</ele>
<speed>7.5</speed>
<course>214.0</course>
<desc>Speed 7.5 km/h Distance 6.66 km</desc>
<time>2011-09-24T10:05:50.79</time>
<name>1831</name>
</trkpt>
<trkpt lat="41.799340" lon="-1.740737">
<ele>918.5</ele>
<speed>7.8</speed>
<course>222.3</course>
<desc>Speed 7.8 km/h Distance 6.66 km</desc>
<time>2011-09-24T10:05:51.79</time>
<name>1832</name>
</trkpt>
<trkpt lat="41.799325" lon="-1.740755">
<ele>919.0</ele>
<speed>7.8</speed>
<course>223.0</course>
<desc>Speed 7.8 km/h Distance 6.66 km</desc>
<time>2011-09-24T10:05:52.78</time>
<name>1833</name>
</trkpt>
<trkpt lat="41.799312" lon="-1.740772">
<ele>919.0</ele>
<speed>7.9</speed>
<course>222.3</course>
<desc>Speed 7.9 km/h Distance 6.66 km</desc>
<time>2011-09-24T10:05:53.78</time>
<name>1834</name>
</trkpt>
<trkpt lat="41.799297" lon="-1.740790">
<ele>919.0</ele>
<speed>8.0</speed>
<course>223.0</course>
<desc>Speed 8.0 km/h Distance 6.67 km</desc>
<time>2011-09-24T10:05:54.79</time>
<name>1835</name>
</trkpt>
<trkpt lat="41.799283" lon="-1.740807">
<ele>919.0</ele>
<speed>7.8</speed>
<course>222.4</course>
<desc>Speed 7.8 km/h Distance 6.67 km</desc>
<time>2011-09-24T10:05:55.78</time>
<name>1836</name>
</trkpt>
<trkpt lat="41.799268" lon="-1.740825">
<ele>919.0</ele>
<speed>7.6</speed>
<course>219.7</course>
<desc>Speed 7.6 km/h Distance 6.67 km</desc>
<time>2011-09-24T10:05:56.78</time>
<name>1837</name>
</trkpt>
<trkpt lat="41.799253" lon="-1.740842">
<ele>919.0</ele>
<speed>7.9</speed>
<course>223.0</course>
<desc>Speed 7.9 km/h Distance 6.67 km</desc>
<time>2011-09-24T10:05:57.78</time>
<name>1838</name>
</trkpt>
<trkpt lat="41.799240" lon="-1.740858">
<ele>919.5</ele>
<speed>7.4</speed>
<course>228.2</course>
<desc>Speed 7.4 km/h Distance 6.68 km</desc>
<time>2011-09-24T10:05:58.78</time>
<name>1839</name>
</trkpt>
<trkpt lat="41.799227" lon="-1.740878">
<ele>919.5</ele>
<speed>8.0</speed>
<course>216.7</course>
<desc>Speed 8.0 km/h Distance 6.68 km</desc>
<time>2011-09-24T10:05:59.78</time>
<name>1840</name>
</trkpt>
<trkpt lat="41.799212" lon="-1.740893">
<ele>920.0</ele>
<speed>7.5</speed>
<course>257.4</course>
<desc>Speed 7.5 km/h Distance 6.68 km</desc>
<time>2011-09-24T10:06:00.78</time>
<name>1841</name>
</trkpt>
<trkpt lat="41.799208" lon="-1.740913">
<ele>921.5</ele>
<speed>6.2</speed>
<course>199.0</course>
<desc>Speed 6.2 km/h Distance 6.68 km</desc>
<time>2011-09-24T10:06:01.78</time>
<name>1842</name>
</trkpt>
<trkpt lat="41.799187" lon="-1.740923">
<ele>921.5</ele>
<speed>9.4</speed>
<course>216.7</course>
<desc>Speed 9.4 km/h Distance 6.68 km</desc>
<time>2011-09-24T10:06:02.78</time>
<name>1843</name>
</trkpt>
<trkpt lat="41.799172" lon="-1.740938">
<ele>921.5</ele>
<speed>7.5</speed>
<course>228.2</course>
<desc>Speed 7.5 km/h Distance 6.69 km</desc>
<time>2011-09-24T10:06:03.78</time>
<name>1844</name>
</trkpt>
<trkpt lat="41.799158" lon="-1.740958">
<ele>921.0</ele>
<speed>7.5</speed>
<course>223.0</course>
<desc>Speed 7.5 km/h Distance 6.69 km</desc>
<time>2011-09-24T10:06:04.78</time>
<name>1845</name>
</trkpt>
<trkpt lat="41.799145" lon="-1.740975">
<ele>921.0</ele>
<speed>7.7</speed>
<course>216.7</course>
<desc>Speed 7.7 km/h Distance 6.69 km</desc>
<time>2011-09-24T10:06:05.78</time>
<name>1846</name>
</trkpt>
<trkpt lat="41.799130" lon="-1.740990">
<ele>921.5</ele>
<speed>7.5</speed>
<course>222.3</course>
<desc>Speed 7.5 km/h Distance 6.69 km</desc>
<time>2011-09-24T10:06:06.77</time>
<name>1847</name>
</trkpt>
<trkpt lat="41.799115" lon="-1.741008">
<ele>921.5</ele>
<speed>8.1</speed>
<course>222.3</course>
<desc>Speed 8.1 km/h Distance 6.69 km</desc>
<time>2011-09-24T10:06:07.78</time>
<name>1848</name>
</trkpt>
<trkpt lat="41.799100" lon="-1.741027">
<ele>921.5</ele>
<speed>8.0</speed>
<course>223.0</course>
<desc>Speed 8.0 km/h Distance 6.70 km</desc>
<time>2011-09-24T10:06:08.77</time>
<name>1849</name>
</trkpt>
<trkpt lat="41.799087" lon="-1.741043">
<ele>921.5</ele>
<speed>7.7</speed>
<course>223.0</course>
<desc>Speed 7.7 km/h Distance 6.70 km</desc>
<time>2011-09-24T10:06:09.77</time>
<name>1850</name>
</trkpt>
<trkpt lat="41.799073" lon="-1.741060">
<ele>922.0</ele>
<speed>7.5</speed>
<course>213.8</course>
<desc>Speed 7.5 km/h Distance 6.70 km</desc>
<time>2011-09-24T10:06:10.78</time>
<name>1851</name>
</trkpt>
<trkpt lat="41.799057" lon="-1.741075">
<ele>922.5</ele>
<speed>7.6</speed>
<course>225.7</course>
<desc>Speed 7.6 km/h Distance 6.70 km</desc>
<time>2011-09-24T10:06:11.78</time>
<name>1852</name>
</trkpt>
<trkpt lat="41.799043" lon="-1.741093">
<ele>922.5</ele>
<speed>7.4</speed>
<course>207.3</course>
<desc>Speed 7.4 km/h Distance 6.71 km</desc>
<time>2011-09-24T10:06:12.77</time>
<name>1853</name>
</trkpt>
<trkpt lat="41.799022" lon="-1.741108">
<ele>921.5</ele>
<speed>10.1</speed>
<course>226.8</course>
<desc>Speed 10.1 km/h Distance 6.71 km</desc>
<time>2011-09-24T10:06:13.77</time>
<name>1854</name>
</trkpt>
<trkpt lat="41.799010" lon="-1.741125">
<ele>922.5</ele>
<speed>6.4</speed>
<course>225.7</course>
<desc>Speed 6.4 km/h Distance 6.71 km</desc>
<time>2011-09-24T10:06:14.77</time>
<name>1855</name>
</trkpt>
<trkpt lat="41.798997" lon="-1.741143">
<ele>923.0</ele>
<speed>7.6</speed>
<course>222.3</course>
<desc>Speed 7.6 km/h Distance 6.71 km</desc>
<time>2011-09-24T10:06:15.78</time>
<name>1856</name>
</trkpt>
<trkpt lat="41.798982" lon="-1.741162">
<ele>923.0</ele>
<speed>8.0</speed>
<course>219.7</course>
<desc>Speed 8.0 km/h Distance 6.71 km</desc>
<time>2011-09-24T10:06:16.77</time>
<name>1857</name>
</trkpt>
<trkpt lat="41.798967" lon="-1.741178">
<ele>923.0</ele>
<speed>7.9</speed>
<course>222.3</course>
<desc>Speed 7.9 km/h Distance 6.72 km</desc>
<time>2011-09-24T10:06:17.77</time>
<name>1858</name>
</trkpt>
<trkpt lat="41.798952" lon="-1.741197">
<ele>923.0</ele>
<speed>7.8</speed>
<course>216.7</course>
<desc>Speed 7.8 km/h Distance 6.72 km</desc>
<time>2011-09-24T10:06:18.77</time>
<name>1859</name>
</trkpt>
<trkpt lat="41.798937" lon="-1.741212">
<ele>923.0</ele>
<speed>7.7</speed>
<course>213.5</course>
<desc>Speed 7.7 km/h Distance 6.72 km</desc>
<time>2011-09-24T10:06:19.77</time>
<name>1860</name>
</trkpt>
<trkpt lat="41.798922" lon="-1.741225">
<ele>923.5</ele>
<speed>6.8</speed>
<course>216.7</course>
<desc>Speed 6.8 km/h Distance 6.72 km</desc>
<time>2011-09-24T10:06:20.76</time>
<name>1861</name>
</trkpt>
<trkpt lat="41.798907" lon="-1.741240">
<ele>923.5</ele>
<speed>7.3</speed>
<course>229.5</course>
<desc>Speed 7.3 km/h Distance 6.73 km</desc>
<time>2011-09-24T10:06:21.76</time>
<name>1862</name>
</trkpt>
<trkpt lat="41.798895" lon="-1.741258">
<ele>923.5</ele>
<speed>7.2</speed>
<course>207.6</course>
<desc>Speed 7.2 km/h Distance 6.73 km</desc>
<time>2011-09-24T10:06:22.76</time>
<name>1863</name>
</trkpt>
<trkpt lat="41.798878" lon="-1.741270">
<ele>924.0</ele>
<speed>7.3</speed>
<course>105.0</course>
<desc>Speed 7.3 km/h Distance 6.73 km</desc>
<time>2011-09-24T10:06:23.77</time>
<name>1864</name>
</trkpt>
<trkpt lat="41.798873" lon="-1.741245">
<ele>923.5</ele>
<speed>8.2</speed>
<course>48.2</course>
<desc>Speed 8.2 km/h Distance 6.73 km</desc>
<time>2011-09-24T10:06:24.76</time>
<name>1865</name>
</trkpt>
<trkpt lat="41.798890" lon="-1.741220">
<ele>923.0</ele>
<speed>10.3</speed>
<course>45.5</course>
<desc>Speed 10.3 km/h Distance 6.73 km</desc>
<time>2011-09-24T10:06:25.76</time>
<name>1866</name>
</trkpt>
<trkpt lat="41.798908" lon="-1.741195">
<ele>923.0</ele>
<speed>10.7</speed>
<course>40.2</course>
<desc>Speed 10.7 km/h Distance 6.74 km</desc>
<time>2011-09-24T10:06:26.76</time>
<name>1867</name>
</trkpt>
<trkpt lat="41.798933" lon="-1.741167">
<ele>922.5</ele>
<speed>13.1</speed>
<course>35.2</course>
<desc>Speed 13.1 km/h Distance 6.74 km</desc>
<time>2011-09-24T10:06:27.76</time>
<name>1868</name>
</trkpt>
<trkpt lat="41.798965" lon="-1.741137">
<ele>922.0</ele>
<speed>15.4</speed>
<course>38.1</course>
<desc>Speed 15.4 km/h Distance 6.74 km</desc>
<time>2011-09-24T10:06:28.76</time>
<name>1869</name>
</trkpt>
<trkpt lat="41.798998" lon="-1.741102">
<ele>922.0</ele>
<speed>17.2</speed>
<course>40.6</course>
<desc>Speed 17.2 km/h Distance 6.75 km</desc>
<time>2011-09-24T10:06:29.75</time>
<name>1870</name>
</trkpt>
<trkpt lat="41.799032" lon="-1.741063">
<ele>921.5</ele>
<speed>17.9</speed>
<course>40.7</course>
<desc>Speed 17.9 km/h Distance 6.75 km</desc>
<time>2011-09-24T10:06:30.76</time>
<name>1871</name>
</trkpt>
<trkpt lat="41.799053" lon="-1.741038">
<ele>921.0</ele>
<speed>11.3</speed>
<course>270.0</course>
<desc>Speed 11.3 km/h Distance 6.76 km</desc>
<time>2011-09-24T10:06:31.75</time>
<name>1872</name>
</trkpt>
<trkpt lat="41.799053" lon="-1.741068">
<ele>921.5</ele>
<speed>5.3</speed>
<course>240.8</course>
<desc>Speed 5.3 km/h Distance 6.76 km</desc>
<time>2011-09-24T10:06:33.75</time>
<name>1873</name>
</trkpt>
<trkpt lat="41.799045" lon="-1.741088">
<ele>921.5</ele>
<speed>6.6</speed>
<course>219.1</course>
<desc>Speed 6.6 km/h Distance 6.76 km</desc>
<time>2011-09-24T10:06:34.75</time>
<name>1874</name>
</trkpt>
<trkpt lat="41.799027" lon="-1.741108">
<ele>922.0</ele>
<speed>9.3</speed>
<course>216.7</course>
<desc>Speed 9.3 km/h Distance 6.76 km</desc>
<time>2011-09-24T10:06:35.75</time>
<name>1875</name>
</trkpt>
<trkpt lat="41.799005" lon="-1.741130">
<ele>922.5</ele>
<speed>10.6</speed>
<course>221.4</course>
<desc>Speed 10.6 km/h Distance 6.77 km</desc>
<time>2011-09-24T10:06:36.75</time>
<name>1876</name>
</trkpt>
<trkpt lat="41.798987" lon="-1.741152">
<ele>922.5</ele>
<speed>10.0</speed>
<course>216.7</course>
<desc>Speed 10.0 km/h Distance 6.77 km</desc>
<time>2011-09-24T10:06:37.75</time>
<name>1877</name>
</trkpt>
<trkpt lat="41.798967" lon="-1.741172">
<ele>923.0</ele>
<speed>9.6</speed>
<course>224.1</course>
<desc>Speed 9.6 km/h Distance 6.77 km</desc>
<time>2011-09-24T10:06:38.75</time>
<name>1878</name>
</trkpt>
<trkpt lat="41.798950" lon="-1.741193">
<ele>923.0</ele>
<speed>9.1</speed>
<course>221.8</course>
<desc>Speed 9.1 km/h Distance 6.78 km</desc>
<time>2011-09-24T10:06:39.75</time>
<name>1879</name>
</trkpt>
<trkpt lat="41.798933" lon="-1.741213">
<ele>923.5</ele>
<speed>9.0</speed>
<course>219.3</course>
<desc>Speed 9.0 km/h Distance 6.78 km</desc>
<time>2011-09-24T10:06:40.75</time>
<name>1880</name>
</trkpt>
<trkpt lat="41.798917" lon="-1.741232">
<ele>923.5</ele>
<speed>8.5</speed>
<course>221.8</course>
<desc>Speed 8.5 km/h Distance 6.78 km</desc>
<time>2011-09-24T10:06:41.75</time>
<name>1881</name>
</trkpt>
<trkpt lat="41.798900" lon="-1.741252">
<ele>924.0</ele>
<speed>8.7</speed>
<course>222.3</course>
<desc>Speed 8.7 km/h Distance 6.78 km</desc>
<time>2011-09-24T10:06:42.75</time>
<name>1882</name>
</trkpt>
<trkpt lat="41.798885" lon="-1.741270">
<ele>924.0</ele>
<speed>8.6</speed>
<course>221.4</course>
<desc>Speed 8.6 km/h Distance 6.79 km</desc>
<time>2011-09-24T10:06:43.75</time>
<name>1883</name>
</trkpt>
<trkpt lat="41.798867" lon="-1.741292">
<ele>924.5</ele>
<speed>9.1</speed>
<course>219.1</course>
<desc>Speed 9.1 km/h Distance 6.79 km</desc>
<time>2011-09-24T10:06:44.75</time>
<name>1884</name>
</trkpt>
<trkpt lat="41.798848" lon="-1.741312">
<ele>925.0</ele>
<speed>9.5</speed>
<course>219.1</course>
<desc>Speed 9.5 km/h Distance 6.79 km</desc>
<time>2011-09-24T10:06:45.75</time>
<name>1885</name>
</trkpt>
<trkpt lat="41.798830" lon="-1.741332">
<ele>925.0</ele>
<speed>9.7</speed>
<course>214.3</course>
<desc>Speed 9.7 km/h Distance 6.79 km</desc>
<time>2011-09-24T10:06:46.75</time>
<name>1886</name>
</trkpt>
<trkpt lat="41.798810" lon="-1.741350">
<ele>925.0</ele>
<speed>9.6</speed>
<course>219.3</course>
<desc>Speed 9.6 km/h Distance 6.80 km</desc>
<time>2011-09-24T10:06:47.74</time>
<name>1887</name>
</trkpt>
<trkpt lat="41.798793" lon="-1.741368">
<ele>925.5</ele>
<speed>8.9</speed>
<course>221.4</course>
<desc>Speed 8.9 km/h Distance 6.80 km</desc>
<time>2011-09-24T10:06:48.75</time>
<name>1888</name>
</trkpt>
<trkpt lat="41.798775" lon="-1.741390">
<ele>925.5</ele>
<speed>9.1</speed>
<course>224.8</course>
<desc>Speed 9.1 km/h Distance 6.80 km</desc>
<time>2011-09-24T10:06:49.74</time>
<name>1889</name>
</trkpt>
<trkpt lat="41.798760" lon="-1.741410">
<ele>926.0</ele>
<speed>8.8</speed>
<course>216.7</course>
<desc>Speed 8.8 km/h Distance 6.80 km</desc>
<time>2011-09-24T10:06:50.74</time>
<name>1890</name>
</trkpt>
<trkpt lat="41.798740" lon="-1.741430">
<ele>926.0</ele>
<speed>9.3</speed>
<course>216.7</course>
<desc>Speed 9.3 km/h Distance 6.81 km</desc>
<time>2011-09-24T10:06:51.75</time>
<name>1891</name>
</trkpt>
<trkpt lat="41.798722" lon="-1.741448">
<ele>926.0</ele>
<speed>9.3</speed>
<course>214.3</course>
<desc>Speed 9.3 km/h Distance 6.81 km</desc>
<time>2011-09-24T10:06:52.74</time>
<name>1892</name>
</trkpt>
<trkpt lat="41.798702" lon="-1.741467">
<ele>926.0</ele>
<speed>9.5</speed>
<course>221.4</course>
<desc>Speed 9.5 km/h Distance 6.81 km</desc>
<time>2011-09-24T10:06:53.74</time>
<name>1893</name>
</trkpt>
<trkpt lat="41.798683" lon="-1.741488">
<ele>926.0</ele>
<speed>9.6</speed>
<course>219.1</course>
<desc>Speed 9.6 km/h Distance 6.81 km</desc>
<time>2011-09-24T10:06:54.74</time>
<name>1894</name>
</trkpt>
<trkpt lat="41.798665" lon="-1.741508">
<ele>926.0</ele>
<speed>9.6</speed>
<course>216.7</course>
<desc>Speed 9.6 km/h Distance 6.82 km</desc>
<time>2011-09-24T10:06:55.74</time>
<name>1895</name>
</trkpt>
<trkpt lat="41.798647" lon="-1.741527">
<ele>926.0</ele>
<speed>9.2</speed>
<course>216.7</course>
<desc>Speed 9.2 km/h Distance 6.82 km</desc>
<time>2011-09-24T10:06:56.74</time>
<name>1896</name>
</trkpt>
<trkpt lat="41.798627" lon="-1.741547">
<ele>926.5</ele>
<speed>9.6</speed>
<course>216.6</course>
<desc>Speed 9.6 km/h Distance 6.82 km</desc>
<time>2011-09-24T10:06:57.74</time>
<name>1897</name>
</trkpt>
<trkpt lat="41.798608" lon="-1.741565">
<ele>926.5</ele>
<speed>9.5</speed>
<course>207.1</course>
<desc>Speed 9.5 km/h Distance 6.82 km</desc>
<time>2011-09-24T10:06:58.74</time>
<name>1898</name>
</trkpt>
<trkpt lat="41.798582" lon="-1.741583">
<ele>926.0</ele>
<speed>11.7</speed>
<course>223.5</course>
<desc>Speed 11.7 km/h Distance 6.83 km</desc>
<time>2011-09-24T10:06:59.74</time>
<name>1899</name>
</trkpt>
<trkpt lat="41.798563" lon="-1.741607">
<ele>926.0</ele>
<speed>10.0</speed>
<course>218.9</course>
<desc>Speed 10.0 km/h Distance 6.83 km</desc>
<time>2011-09-24T10:07:00.75</time>
<name>1900</name>
</trkpt>
<trkpt lat="41.798543" lon="-1.741628">
<ele>926.0</ele>
<speed>10.0</speed>
<course>216.7</course>
<desc>Speed 10.0 km/h Distance 6.83 km</desc>
<time>2011-09-24T10:07:01.74</time>
<name>1901</name>
</trkpt>
<trkpt lat="41.798523" lon="-1.741648">
<ele>926.0</ele>
<speed>9.8</speed>
<course>224.1</course>
<desc>Speed 9.8 km/h Distance 6.84 km</desc>
<time>2011-09-24T10:07:02.74</time>
<name>1902</name>
</trkpt>
<trkpt lat="41.798507" lon="-1.741670">
<ele>926.5</ele>
<speed>9.0</speed>
<course>214.4</course>
<desc>Speed 9.0 km/h Distance 6.84 km</desc>
<time>2011-09-24T10:07:03.73</time>
<name>1903</name>
</trkpt>
<trkpt lat="41.798487" lon="-1.741688">
<ele>926.5</ele>
<speed>9.9</speed>
<course>224.8</course>
<desc>Speed 9.9 km/h Distance 6.84 km</desc>
<time>2011-09-24T10:07:04.73</time>
<name>1904</name>
</trkpt>
<trkpt lat="41.798472" lon="-1.741708">
<ele>927.0</ele>
<speed>8.9</speed>
<course>214.5</course>
<desc>Speed 8.9 km/h Distance 6.84 km</desc>
<time>2011-09-24T10:07:05.73</time>
<name>1905</name>
</trkpt>
<trkpt lat="41.798450" lon="-1.741728">
<ele>927.0</ele>
<speed>10.4</speed>
<course>219.1</course>
<desc>Speed 10.4 km/h Distance 6.85 km</desc>
<time>2011-09-24T10:07:06.73</time>
<name>1906</name>
</trkpt>
<trkpt lat="41.798432" lon="-1.741748">
<ele>927.0</ele>
<speed>9.7</speed>
<course>224.1</course>
<desc>Speed 9.7 km/h Distance 6.85 km</desc>
<time>2011-09-24T10:07:07.73</time>
<name>1907</name>
</trkpt>
<trkpt lat="41.798415" lon="-1.741770">
<ele>927.0</ele>
<speed>9.6</speed>
<course>214.3</course>
<desc>Speed 9.6 km/h Distance 6.85 km</desc>
<time>2011-09-24T10:07:08.73</time>
<name>1908</name>
</trkpt>
<trkpt lat="41.798395" lon="-1.741788">
<ele>927.5</ele>
<speed>9.5</speed>
<course>224.1</course>
<desc>Speed 9.5 km/h Distance 6.86 km</desc>
<time>2011-09-24T10:07:09.73</time>
<name>1909</name>
</trkpt>
<trkpt lat="41.798378" lon="-1.741810">
<ele>928.0</ele>
<speed>9.6</speed>
<course>222.3</course>
<desc>Speed 9.6 km/h Distance 6.86 km</desc>
<time>2011-09-24T10:07:10.74</time>
<name>1910</name>
</trkpt>
<trkpt lat="41.798363" lon="-1.741828">
<ele>928.5</ele>
<speed>9.0</speed>
<course>219.1</course>
<desc>Speed 9.0 km/h Distance 6.86 km</desc>
<time>2011-09-24T10:07:11.73</time>
<name>1911</name>
</trkpt>
<trkpt lat="41.798345" lon="-1.741848">
<ele>928.5</ele>
<speed>9.6</speed>
<course>219.1</course>
<desc>Speed 9.6 km/h Distance 6.86 km</desc>
<time>2011-09-24T10:07:12.73</time>
<name>1912</name>
</trkpt>
<trkpt lat="41.798327" lon="-1.741868">
<ele>928.5</ele>
<speed>9.8</speed>
<course>221.8</course>
<desc>Speed 9.8 km/h Distance 6.87 km</desc>
<time>2011-09-24T10:07:13.73</time>
<name>1913</name>
</trkpt>
<trkpt lat="41.798310" lon="-1.741888">
<ele>929.0</ele>
<speed>9.0</speed>
<course>221.8</course>
<desc>Speed 9.0 km/h Distance 6.87 km</desc>
<time>2011-09-24T10:07:14.73</time>
<name>1914</name>
</trkpt>
<trkpt lat="41.798293" lon="-1.741908">
<ele>929.0</ele>
<speed>9.1</speed>
<course>224.1</course>
<desc>Speed 9.1 km/h Distance 6.87 km</desc>
<time>2011-09-24T10:07:15.73</time>
<name>1915</name>
</trkpt>
<trkpt lat="41.798277" lon="-1.741930">
<ele>929.5</ele>
<speed>9.0</speed>
<course>216.7</course>
<desc>Speed 9.0 km/h Distance 6.87 km</desc>
<time>2011-09-24T10:07:16.72</time>
<name>1916</name>
</trkpt>
<trkpt lat="41.798258" lon="-1.741948">
<ele>929.5</ele>
<speed>9.2</speed>
<course>221.8</course>
<desc>Speed 9.2 km/h Distance 6.88 km</desc>
<time>2011-09-24T10:07:17.73</time>
<name>1917</name>
</trkpt>
<trkpt lat="41.798242" lon="-1.741968">
<ele>929.5</ele>
<speed>9.0</speed>
<course>221.8</course>
<desc>Speed 9.0 km/h Distance 6.88 km</desc>
<time>2011-09-24T10:07:18.72</time>
<name>1918</name>
</trkpt>
<trkpt lat="41.798225" lon="-1.741988">
<ele>929.5</ele>
<speed>9.4</speed>
<course>221.8</course>
<desc>Speed 9.4 km/h Distance 6.88 km</desc>
<time>2011-09-24T10:07:19.72</time>
<name>1919</name>
</trkpt>
<trkpt lat="41.798208" lon="-1.742008">
<ele>930.0</ele>
<speed>9.0</speed>
<course>221.8</course>
<desc>Speed 9.0 km/h Distance 6.88 km</desc>
<time>2011-09-24T10:07:20.72</time>
<name>1920</name>
</trkpt>
<trkpt lat="41.798192" lon="-1.742028">
<ele>930.0</ele>
<speed>9.1</speed>
<course>221.8</course>
<desc>Speed 9.1 km/h Distance 6.89 km</desc>
<time>2011-09-24T10:07:21.73</time>
<name>1921</name>
</trkpt>
<trkpt lat="41.798175" lon="-1.742048">
<ele>930.0</ele>
<speed>9.0</speed>
<course>221.8</course>
<desc>Speed 9.0 km/h Distance 6.89 km</desc>
<time>2011-09-24T10:07:22.72</time>
<name>1922</name>
</trkpt>
<trkpt lat="41.798158" lon="-1.742068">
<ele>930.0</ele>
<speed>9.0</speed>
<course>227.1</course>
<desc>Speed 9.0 km/h Distance 6.89 km</desc>
<time>2011-09-24T10:07:23.72</time>
<name>1923</name>
</trkpt>
<trkpt lat="41.798143" lon="-1.742090">
<ele>930.5</ele>
<speed>8.1</speed>
<course>219.4</course>
<desc>Speed 8.1 km/h Distance 6.89 km</desc>
<time>2011-09-24T10:07:24.72</time>
<name>1924</name>
</trkpt>
<trkpt lat="41.798127" lon="-1.742108">
<ele>930.5</ele>
<speed>9.1</speed>
<course>221.4</course>
<desc>Speed 9.1 km/h Distance 6.90 km</desc>
<time>2011-09-24T10:07:25.72</time>
<name>1925</name>
</trkpt>
<trkpt lat="41.798108" lon="-1.742130">
<ele>930.5</ele>
<speed>9.2</speed>
<course>219.3</course>
<desc>Speed 9.2 km/h Distance 6.90 km</desc>
<time>2011-09-24T10:07:26.72</time>
<name>1926</name>
</trkpt>
<trkpt lat="41.798092" lon="-1.742148">
<ele>931.0</ele>
<speed>9.1</speed>
<course>221.3</course>
<desc>Speed 9.1 km/h Distance 6.90 km</desc>
<time>2011-09-24T10:07:27.72</time>
<name>1927</name>
</trkpt>
<trkpt lat="41.798073" lon="-1.742170">
<ele>931.0</ele>
<speed>9.4</speed>
<course>216.7</course>
<desc>Speed 9.4 km/h Distance 6.90 km</desc>
<time>2011-09-24T10:07:28.72</time>
<name>1928</name>
</trkpt>
<trkpt lat="41.798055" lon="-1.742188">
<ele>931.0</ele>
<speed>9.2</speed>
<course>219.1</course>
<desc>Speed 9.2 km/h Distance 6.91 km</desc>
<time>2011-09-24T10:07:29.72</time>
<name>1929</name>
</trkpt>
<trkpt lat="41.798037" lon="-1.742208">
<ele>931.5</ele>
<speed>9.1</speed>
<course>224.1</course>
<desc>Speed 9.1 km/h Distance 6.91 km</desc>
<time>2011-09-24T10:07:30.73</time>
<name>1930</name>
</trkpt>
<trkpt lat="41.798020" lon="-1.742230">
<ele>931.5</ele>
<speed>9.5</speed>
<course>218.9</course>
<desc>Speed 9.5 km/h Distance 6.91 km</desc>
<time>2011-09-24T10:07:31.72</time>
<name>1931</name>
</trkpt>
<trkpt lat="41.798000" lon="-1.742252">
<ele>932.0</ele>
<speed>10.4</speed>
<course>209.8</course>
<desc>Speed 10.4 km/h Distance 6.91 km</desc>
<time>2011-09-24T10:07:32.72</time>
<name>1932</name>
</trkpt>
<trkpt lat="41.797978" lon="-1.742268">
<ele>930.5</ele>
<speed>9.7</speed>
<course>219.1</course>
<desc>Speed 9.7 km/h Distance 6.92 km</desc>
<time>2011-09-24T10:07:33.72</time>
<name>1933</name>
</trkpt>
<trkpt lat="41.797960" lon="-1.742288">
<ele>931.0</ele>
<speed>9.6</speed>
<course>219.4</course>
<desc>Speed 9.6 km/h Distance 6.92 km</desc>
<time>2011-09-24T10:07:34.73</time>
<name>1934</name>
</trkpt>
<trkpt lat="41.797943" lon="-1.742307">
<ele>931.0</ele>
<speed>9.0</speed>
<course>224.1</course>
<desc>Speed 9.0 km/h Distance 6.92 km</desc>
<time>2011-09-24T10:07:35.72</time>
<name>1935</name>
</trkpt>
<trkpt lat="41.797927" lon="-1.742328">
<ele>931.0</ele>
<speed>9.0</speed>
<course>219.4</course>
<desc>Speed 9.0 km/h Distance 6.92 km</desc>
<time>2011-09-24T10:07:36.71</time>
<name>1936</name>
</trkpt>
<trkpt lat="41.797910" lon="-1.742347">
<ele>931.0</ele>
<speed>9.2</speed>
<course>214.3</course>
<desc>Speed 9.2 km/h Distance 6.93 km</desc>
<time>2011-09-24T10:07:37.72</time>
<name>1937</name>
</trkpt>
<trkpt lat="41.797890" lon="-1.742365">
<ele>931.5</ele>
<speed>9.5</speed>
<course>221.3</course>
<desc>Speed 9.5 km/h Distance 6.93 km</desc>
<time>2011-09-24T10:07:38.72</time>
<name>1938</name>
</trkpt>
<trkpt lat="41.797872" lon="-1.742387">
<ele>931.5</ele>
<speed>9.3</speed>
<course>220.3</course>
<desc>Speed 9.3 km/h Distance 6.93 km</desc>
<time>2011-09-24T10:07:39.72</time>
<name>1939</name>
</trkpt>
<trkpt lat="41.797835" lon="-1.742428">
<ele>931.5</ele>
<speed>9.3</speed>
<course>224.1</course>
<desc>Speed 9.3 km/h Distance 6.94 km</desc>
<time>2011-09-24T10:07:41.71</time>
<name>1940</name>
</trkpt>
<trkpt lat="41.797802" lon="-1.742472">
<ele>931.5</ele>
<speed>8.9</speed>
<course>221.8</course>
<desc>Speed 8.9 km/h Distance 6.94 km</desc>
<time>2011-09-24T10:07:43.71</time>
<name>1941</name>
</trkpt>
<trkpt lat="41.797768" lon="-1.742512">
<ele>932.0</ele>
<speed>9.0</speed>
<course>221.9</course>
<desc>Speed 9.0 km/h Distance 6.95 km</desc>
<time>2011-09-24T10:07:45.71</time>
<name>1942</name>
</trkpt>
<trkpt lat="41.797752" lon="-1.742532">
<ele>932.0</ele>
<speed>8.5</speed>
<course>224.8</course>
<desc>Speed 8.5 km/h Distance 6.95 km</desc>
<time>2011-09-24T10:07:46.71</time>
<name>1943</name>
</trkpt>
<trkpt lat="41.797737" lon="-1.742552">
<ele>932.5</ele>
<speed>8.7</speed>
<course>221.8</course>
<desc>Speed 8.7 km/h Distance 6.95 km</desc>
<time>2011-09-24T10:07:47.71</time>
<name>1944</name>
</trkpt>
<trkpt lat="41.797720" lon="-1.742572">
<ele>933.0</ele>
<speed>8.5</speed>
<course>220.4</course>
<desc>Speed 8.5 km/h Distance 6.95 km</desc>
<time>2011-09-24T10:07:48.71</time>
<name>1945</name>
</trkpt>
<trkpt lat="41.797685" lon="-1.742612">
<ele>933.0</ele>
<speed>8.9</speed>
<course>216.7</course>
<desc>Speed 8.9 km/h Distance 6.96 km</desc>
<time>2011-09-24T10:07:50.71</time>
<name>1946</name>
</trkpt>
<trkpt lat="41.797668" lon="-1.742628">
<ele>933.5</ele>
<speed>8.7</speed>
<course>221.8</course>
<desc>Speed 8.7 km/h Distance 6.96 km</desc>
<time>2011-09-24T10:07:51.71</time>
<name>1947</name>
</trkpt>
<trkpt lat="41.797652" lon="-1.742648">
<ele>934.0</ele>
<speed>8.7</speed>
<course>221.8</course>
<desc>Speed 8.7 km/h Distance 6.96 km</desc>
<time>2011-09-24T10:07:52.70</time>
<name>1948</name>
</trkpt>
<trkpt lat="41.797635" lon="-1.742668">
<ele>934.5</ele>
<speed>8.9</speed>
<course>219.3</course>
<desc>Speed 8.9 km/h Distance 6.97 km</desc>
<time>2011-09-24T10:07:53.70</time>
<name>1949</name>
</trkpt>
<trkpt lat="41.797618" lon="-1.742687">
<ele>935.0</ele>
<speed>8.7</speed>
<course>216.7</course>
<desc>Speed 8.7 km/h Distance 6.97 km</desc>
<time>2011-09-24T10:07:54.70</time>
<name>1950</name>
</trkpt>
<trkpt lat="41.797600" lon="-1.742705">
<ele>935.0</ele>
<speed>8.9</speed>
<course>221.8</course>
<desc>Speed 8.9 km/h Distance 6.97 km</desc>
<time>2011-09-24T10:07:55.70</time>
<name>1951</name>
</trkpt>
<trkpt lat="41.797583" lon="-1.742725">
<ele>935.5</ele>
<speed>8.7</speed>
<course>227.1</course>
<desc>Speed 8.7 km/h Distance 6.97 km</desc>
<time>2011-09-24T10:07:56.70</time>
<name>1952</name>
</trkpt>
<trkpt lat="41.797568" lon="-1.742747">
<ele>935.5</ele>
<speed>8.8</speed>
<course>219.1</course>
<desc>Speed 8.8 km/h Distance 6.98 km</desc>
<time>2011-09-24T10:07:57.70</time>
<name>1953</name>
</trkpt>
<trkpt lat="41.797550" lon="-1.742767">
<ele>935.5</ele>
<speed>8.9</speed>
<course>216.7</course>
<desc>Speed 8.9 km/h Distance 6.98 km</desc>
<time>2011-09-24T10:07:58.70</time>
<name>1954</name>
</trkpt>
<trkpt lat="41.797532" lon="-1.742785">
<ele>935.5</ele>
<speed>9.5</speed>
<course>216.7</course>
<desc>Speed 9.5 km/h Distance 6.98 km</desc>
<time>2011-09-24T10:07:59.71</time>
<name>1955</name>
</trkpt>
<trkpt lat="41.797513" lon="-1.742803">
<ele>936.0</ele>
<speed>9.1</speed>
<course>214.1</course>
<desc>Speed 9.1 km/h Distance 6.98 km</desc>
<time>2011-09-24T10:08:00.70</time>
<name>1956</name>
</trkpt>
<trkpt lat="41.797495" lon="-1.742820">
<ele>936.5</ele>
<speed>8.4</speed>
<course>214.3</course>
<desc>Speed 8.4 km/h Distance 6.99 km</desc>
<time>2011-09-24T10:08:01.70</time>
<name>1957</name>
</trkpt>
<trkpt lat="41.797475" lon="-1.742838">
<ele>936.5</ele>
<speed>9.5</speed>
<course>214.1</course>
<desc>Speed 9.5 km/h Distance 6.99 km</desc>
<time>2011-09-24T10:08:02.70</time>
<name>1958</name>
</trkpt>
<trkpt lat="41.797457" lon="-1.742855">
<ele>936.5</ele>
<speed>9.3</speed>
<course>224.1</course>
<desc>Speed 9.3 km/h Distance 6.99 km</desc>
<time>2011-09-24T10:08:03.70</time>
<name>1959</name>
</trkpt>
<trkpt lat="41.797440" lon="-1.742877">
<ele>936.5</ele>
<speed>9.1</speed>
<course>221.8</course>
<desc>Speed 9.1 km/h Distance 6.99 km</desc>
<time>2011-09-24T10:08:04.70</time>
<name>1960</name>
</trkpt>
<trkpt lat="41.797423" lon="-1.742897">
<ele>936.5</ele>
<speed>8.9</speed>
<course>216.6</course>
<desc>Speed 8.9 km/h Distance 7.00 km</desc>
<time>2011-09-24T10:08:05.69</time>
<name>1961</name>
</trkpt>
<trkpt lat="41.797405" lon="-1.742915">
<ele>936.5</ele>
<speed>9.0</speed>
<course>215.4</course>
<desc>Speed 9.0 km/h Distance 7.00 km</desc>
<time>2011-09-24T10:08:06.69</time>
<name>1962</name>
</trkpt>
<trkpt lat="41.797370" lon="-1.742948">
<ele>937.0</ele>
<speed>8.5</speed>
<course>219.4</course>
<desc>Speed 8.5 km/h Distance 7.00 km</desc>
<time>2011-09-24T10:08:08.69</time>
<name>1963</name>
</trkpt>
<trkpt lat="41.797337" lon="-1.742985">
<ele>937.0</ele>
<speed>8.5</speed>
<course>224.8</course>
<desc>Speed 8.5 km/h Distance 7.01 km</desc>
<time>2011-09-24T10:08:10.69</time>
<name>1964</name>
</trkpt>
<trkpt lat="41.797322" lon="-1.743005">
<ele>937.5</ele>
<speed>8.4</speed>
<course>219.4</course>
<desc>Speed 8.4 km/h Distance 7.01 km</desc>
<time>2011-09-24T10:08:11.69</time>
<name>1965</name>
</trkpt>
<trkpt lat="41.797305" lon="-1.743023">
<ele>937.5</ele>
<speed>8.4</speed>
<course>222.3</course>
<desc>Speed 8.4 km/h Distance 7.01 km</desc>
<time>2011-09-24T10:08:12.69</time>
<name>1966</name>
</trkpt>
<trkpt lat="41.797290" lon="-1.743042">
<ele>937.5</ele>
<speed>8.2</speed>
<course>222.3</course>
<desc>Speed 8.2 km/h Distance 7.02 km</desc>
<time>2011-09-24T10:08:13.69</time>
<name>1967</name>
</trkpt>
<trkpt lat="41.797275" lon="-1.743060">
<ele>937.5</ele>
<speed>8.1</speed>
<course>216.7</course>
<desc>Speed 8.1 km/h Distance 7.02 km</desc>
<time>2011-09-24T10:08:14.69</time>
<name>1968</name>
</trkpt>
<trkpt lat="41.797258" lon="-1.743077">
<ele>937.5</ele>
<speed>7.8</speed>
<course>222.3</course>
<desc>Speed 7.8 km/h Distance 7.02 km</desc>
<time>2011-09-24T10:08:15.69</time>
<name>1969</name>
</trkpt>
<trkpt lat="41.797243" lon="-1.743095">
<ele>938.0</ele>
<speed>8.1</speed>
<course>216.8</course>
<desc>Speed 8.1 km/h Distance 7.02 km</desc>
<time>2011-09-24T10:08:16.69</time>
<name>1970</name>
</trkpt>
<trkpt lat="41.797227" lon="-1.743112">
<ele>938.0</ele>
<speed>8.2</speed>
<course>219.7</course>
<desc>Speed 8.2 km/h Distance 7.03 km</desc>
<time>2011-09-24T10:08:17.69</time>
<name>1971</name>
</trkpt>
<trkpt lat="41.797212" lon="-1.743128">
<ele>938.0</ele>
<speed>8.2</speed>
<course>216.8</course>
<desc>Speed 8.2 km/h Distance 7.03 km</desc>
<time>2011-09-24T10:08:18.69</time>
<name>1972</name>
</trkpt>
<trkpt lat="41.797195" lon="-1.743145">
<ele>938.5</ele>
<speed>8.0</speed>
<course>228.2</course>
<desc>Speed 8.0 km/h Distance 7.03 km</desc>
<time>2011-09-24T10:08:19.69</time>
<name>1973</name>
</trkpt>
<trkpt lat="41.797182" lon="-1.743165">
<ele>938.5</ele>
<speed>8.0</speed>
<course>213.9</course>
<desc>Speed 8.0 km/h Distance 7.03 km</desc>
<time>2011-09-24T10:08:20.70</time>
<name>1974</name>
</trkpt>
<trkpt lat="41.797165" lon="-1.743180">
<ele>938.5</ele>
<speed>8.1</speed>
<course>222.3</course>
<desc>Speed 8.1 km/h Distance 7.03 km</desc>
<time>2011-09-24T10:08:21.68</time>
<name>1975</name>
</trkpt>
<trkpt lat="41.797150" lon="-1.743198">
<ele>938.5</ele>
<speed>8.2</speed>
<course>228.2</course>
<desc>Speed 8.2 km/h Distance 7.04 km</desc>
<time>2011-09-24T10:08:22.68</time>
<name>1976</name>
</trkpt>
<trkpt lat="41.797137" lon="-1.743218">
<ele>938.5</ele>
<speed>8.1</speed>
<course>219.4</course>
<desc>Speed 8.1 km/h Distance 7.04 km</desc>
<time>2011-09-24T10:08:23.69</time>
<name>1977</name>
</trkpt>
<trkpt lat="41.797120" lon="-1.743237">
<ele>938.5</ele>
<speed>8.4</speed>
<course>222.3</course>
<desc>Speed 8.4 km/h Distance 7.04 km</desc>
<time>2011-09-24T10:08:24.69</time>
<name>1978</name>
</trkpt>
<trkpt lat="41.797105" lon="-1.743255">
<ele>939.0</ele>
<speed>8.1</speed>
<course>219.6</course>
<desc>Speed 8.1 km/h Distance 7.04 km</desc>
<time>2011-09-24T10:08:25.69</time>
<name>1979</name>
</trkpt>
<trkpt lat="41.797090" lon="-1.743272">
<ele>939.0</ele>
<speed>7.8</speed>
<course>228.2</course>
<desc>Speed 7.8 km/h Distance 7.05 km</desc>
<time>2011-09-24T10:08:26.68</time>
<name>1980</name>
</trkpt>
<trkpt lat="41.797077" lon="-1.743292">
<ele>939.0</ele>
<speed>8.0</speed>
<course>219.4</course>
<desc>Speed 8.0 km/h Distance 7.05 km</desc>
<time>2011-09-24T10:08:27.68</time>
<name>1981</name>
</trkpt>
<trkpt lat="41.797060" lon="-1.743310">
<ele>939.5</ele>
<speed>8.2</speed>
<course>222.3</course>
<desc>Speed 8.2 km/h Distance 7.05 km</desc>
<time>2011-09-24T10:08:28.68</time>
<name>1982</name>
</trkpt>
<trkpt lat="41.797045" lon="-1.743328">
<ele>939.5</ele>
<speed>8.4</speed>
<course>222.3</course>
<desc>Speed 8.4 km/h Distance 7.05 km</desc>
<time>2011-09-24T10:08:29.68</time>
<name>1983</name>
</trkpt>
<trkpt lat="41.797030" lon="-1.743347">
<ele>939.5</ele>
<speed>8.4</speed>
<course>219.3</course>
<desc>Speed 8.4 km/h Distance 7.06 km</desc>
<time>2011-09-24T10:08:30.68</time>
<name>1984</name>
</trkpt>
<trkpt lat="41.797013" lon="-1.743365">
<ele>940.0</ele>
<speed>8.7</speed>
<course>219.3</course>
<desc>Speed 8.7 km/h Distance 7.06 km</desc>
<time>2011-09-24T10:08:31.68</time>
<name>1985</name>
</trkpt>
<trkpt lat="41.796997" lon="-1.743383">
<ele>940.0</ele>
<speed>8.7</speed>
<course>219.3</course>
<desc>Speed 8.7 km/h Distance 7.06 km</desc>
<time>2011-09-24T10:08:32.68</time>
<name>1986</name>
</trkpt>
<trkpt lat="41.796980" lon="-1.743402">
<ele>940.0</ele>
<speed>8.6</speed>
<course>221.8</course>
<desc>Speed 8.6 km/h Distance 7.06 km</desc>
<time>2011-09-24T10:08:33.68</time>
<name>1987</name>
</trkpt>
<trkpt lat="41.796963" lon="-1.743422">
<ele>940.0</ele>
<speed>8.7</speed>
<course>219.3</course>
<desc>Speed 8.7 km/h Distance 7.06 km</desc>
<time>2011-09-24T10:08:34.68</time>
<name>1988</name>
</trkpt>
<trkpt lat="41.796947" lon="-1.743440">
<ele>940.5</ele>
<speed>8.7</speed>
<course>216.6</course>
<desc>Speed 8.7 km/h Distance 7.07 km</desc>
<time>2011-09-24T10:08:35.68</time>
<name>1989</name>
</trkpt>
<trkpt lat="41.796930" lon="-1.743457">
<ele>940.5</ele>
<speed>8.4</speed>
<course>219.3</course>
<desc>Speed 8.4 km/h Distance 7.07 km</desc>
<time>2011-09-24T10:08:36.67</time>
<name>1990</name>
</trkpt>
<trkpt lat="41.796913" lon="-1.743475">
<ele>941.0</ele>
<speed>8.6</speed>
<course>216.8</course>
<desc>Speed 8.6 km/h Distance 7.07 km</desc>
<time>2011-09-24T10:08:37.67</time>
<name>1991</name>
</trkpt>
<trkpt lat="41.796897" lon="-1.743492">
<ele>941.0</ele>
<speed>8.4</speed>
<course>225.7</course>
<desc>Speed 8.4 km/h Distance 7.07 km</desc>
<time>2011-09-24T10:08:38.67</time>
<name>1992</name>
</trkpt>
<trkpt lat="41.796883" lon="-1.743510">
<ele>941.5</ele>
<speed>8.2</speed>
<course>216.7</course>
<desc>Speed 8.2 km/h Distance 7.08 km</desc>
<time>2011-09-24T10:08:39.67</time>
<name>1993</name>
</trkpt>
<trkpt lat="41.796867" lon="-1.743527">
<ele>941.5</ele>
<speed>8.6</speed>
<course>227.1</course>
<desc>Speed 8.6 km/h Distance 7.08 km</desc>
<time>2011-09-24T10:08:40.67</time>
<name>1994</name>
</trkpt>
<trkpt lat="41.796852" lon="-1.743548">
<ele>941.5</ele>
<speed>9.0</speed>
<course>227.1</course>
<desc>Speed 9.0 km/h Distance 7.08 km</desc>
<time>2011-09-24T10:08:41.67</time>
<name>1995</name>
</trkpt>
<trkpt lat="41.796837" lon="-1.743570">
<ele>942.0</ele>
<speed>8.7</speed>
<course>224.8</course>
<desc>Speed 8.7 km/h Distance 7.08 km</desc>
<time>2011-09-24T10:08:42.67</time>
<name>1996</name>
</trkpt>
<trkpt lat="41.796822" lon="-1.743590">
<ele>942.0</ele>
<speed>8.3</speed>
<course>219.6</course>
<desc>Speed 8.3 km/h Distance 7.09 km</desc>
<time>2011-09-24T10:08:43.67</time>
<name>1997</name>
</trkpt>
<trkpt lat="41.796807" lon="-1.743607">
<ele>942.5</ele>
<speed>8.1</speed>
<course>222.3</course>
<desc>Speed 8.1 km/h Distance 7.09 km</desc>
<time>2011-09-24T10:08:44.67</time>
<name>1998</name>
</trkpt>
<trkpt lat="41.796792" lon="-1.743625">
<ele>942.5</ele>
<speed>7.8</speed>
<course>225.7</course>
<desc>Speed 7.8 km/h Distance 7.09 km</desc>
<time>2011-09-24T10:08:45.67</time>
<name>1999</name>
</trkpt>
<trkpt lat="41.796778" lon="-1.743643">
<ele>943.0</ele>
<speed>7.6</speed>
<course>223.0</course>
<desc>Speed 7.6 km/h Distance 7.09 km</desc>
<time>2011-09-24T10:08:46.67</time>
<name>2000</name>
</trkpt>
<trkpt lat="41.796765" lon="-1.743660">
<ele>943.0</ele>
<speed>7.5</speed>
<course>216.7</course>
<desc>Speed 7.5 km/h Distance 7.09 km</desc>
<time>2011-09-24T10:08:47.67</time>
<name>2001</name>
</trkpt>
<trkpt lat="41.796750" lon="-1.743675">
<ele>943.0</ele>
<speed>7.7</speed>
<course>225.7</course>
<desc>Speed 7.7 km/h Distance 7.10 km</desc>
<time>2011-09-24T10:08:48.67</time>
<name>2002</name>
</trkpt>
<trkpt lat="41.796737" lon="-1.743693">
<ele>943.5</ele>
<speed>7.7</speed>
<course>223.0</course>
<desc>Speed 7.7 km/h Distance 7.10 km</desc>
<time>2011-09-24T10:08:49.67</time>
<name>2003</name>
</trkpt>
<trkpt lat="41.796723" lon="-1.743710">
<ele>943.5</ele>
<speed>7.5</speed>
<course>220.0</course>
<desc>Speed 7.5 km/h Distance 7.10 km</desc>
<time>2011-09-24T10:08:50.67</time>
<name>2004</name>
</trkpt>
<trkpt lat="41.796710" lon="-1.743725">
<ele>943.5</ele>
<speed>6.9</speed>
<course>224.9</course>
<desc>Speed 6.9 km/h Distance 7.10 km</desc>
<time>2011-09-24T10:08:51.67</time>
<name>2005</name>
</trkpt>
<trkpt lat="41.796700" lon="-1.743738">
<ele>943.5</ele>
<speed>5.4</speed>
<course>212.4</course>
<desc>Speed 5.4 km/h Distance 7.10 km</desc>
<time>2011-09-24T10:08:52.67</time>
<name>2006</name>
</trkpt>
<trkpt lat="41.796688" lon="-1.743748">
<ele>943.5</ele>
<speed>5.4</speed>
<course>212.6</course>
<desc>Speed 5.4 km/h Distance 7.11 km</desc>
<time>2011-09-24T10:08:53.66</time>
<name>2007</name>
</trkpt>
<trkpt lat="41.796677" lon="-1.743758">
<ele>943.5</ele>
<speed>6.0</speed>
<course>228.2</course>
<desc>Speed 6.0 km/h Distance 7.11 km</desc>
<time>2011-09-24T10:08:54.66</time>
<name>2008</name>
</trkpt>
<trkpt lat="41.796667" lon="-1.743773">
<ele>944.0</ele>
<speed>6.3</speed>
<course>236.1</course>
<desc>Speed 6.3 km/h Distance 7.11 km</desc>
<time>2011-09-24T10:08:55.66</time>
<name>2009</name>
</trkpt>
<trkpt lat="41.796657" lon="-1.743793">
<ele>944.0</ele>
<speed>7.0</speed>
<course>229.5</course>
<desc>Speed 7.0 km/h Distance 7.11 km</desc>
<time>2011-09-24T10:08:56.66</time>
<name>2010</name>
</trkpt>
<trkpt lat="41.796645" lon="-1.743812">
<ele>944.0</ele>
<speed>7.5</speed>
<course>225.7</course>
<desc>Speed 7.5 km/h Distance 7.11 km</desc>
<time>2011-09-24T10:08:57.66</time>
<name>2011</name>
</trkpt>
<trkpt lat="41.796632" lon="-1.743830">
<ele>944.0</ele>
<speed>7.7</speed>
<course>222.3</course>
<desc>Speed 7.7 km/h Distance 7.12 km</desc>
<time>2011-09-24T10:08:58.66</time>
<name>2012</name>
</trkpt>
<trkpt lat="41.796617" lon="-1.743848">
<ele>944.0</ele>
<speed>8.0</speed>
<course>216.8</course>
<desc>Speed 8.0 km/h Distance 7.12 km</desc>
<time>2011-09-24T10:08:59.66</time>
<name>2013</name>
</trkpt>
<trkpt lat="41.796602" lon="-1.743863">
<ele>944.5</ele>
<speed>8.1</speed>
<course>224.8</course>
<desc>Speed 8.1 km/h Distance 7.12 km</desc>
<time>2011-09-24T10:09:00.66</time>
<name>2014</name>
</trkpt>
<trkpt lat="41.796587" lon="-1.743883">
<ele>944.5</ele>
<speed>8.1</speed>
<course>219.7</course>
<desc>Speed 8.1 km/h Distance 7.12 km</desc>
<time>2011-09-24T10:09:01.66</time>
<name>2015</name>
</trkpt>
<trkpt lat="41.796572" lon="-1.743900">
<ele>944.5</ele>
<speed>8.0</speed>
<course>228.2</course>
<desc>Speed 8.0 km/h Distance 7.12 km</desc>
<time>2011-09-24T10:09:02.66</time>
<name>2016</name>
</trkpt>
<trkpt lat="41.796558" lon="-1.743920">
<ele>944.5</ele>
<speed>8.1</speed>
<course>228.2</course>
<desc>Speed 8.1 km/h Distance 7.13 km</desc>
<time>2011-09-24T10:09:03.66</time>
<name>2017</name>
</trkpt>
<trkpt lat="41.796545" lon="-1.743940">
<ele>945.0</ele>
<speed>8.1</speed>
<course>222.3</course>
<desc>Speed 8.1 km/h Distance 7.13 km</desc>
<time>2011-09-24T10:09:04.66</time>
<name>2018</name>
</trkpt>
<trkpt lat="41.796530" lon="-1.743958">
<ele>945.0</ele>
<speed>8.4</speed>
<course>221.8</course>
<desc>Speed 8.4 km/h Distance 7.13 km</desc>
<time>2011-09-24T10:09:05.66</time>
<name>2019</name>
</trkpt>
<trkpt lat="41.796513" lon="-1.743978">
<ele>945.0</ele>
<speed>8.6</speed>
<course>234.1</course>
<desc>Speed 8.6 km/h Distance 7.13 km</desc>
<time>2011-09-24T10:09:06.66</time>
<name>2020</name>
</trkpt>
<trkpt lat="41.796502" lon="-1.744000">
<ele>945.5</ele>
<speed>8.7</speed>
<course>232.5</course>
<desc>Speed 8.7 km/h Distance 7.14 km</desc>
<time>2011-09-24T10:09:07.66</time>
<name>2021</name>
</trkpt>
<trkpt lat="41.796488" lon="-1.744023">
<ele>945.5</ele>
<speed>8.8</speed>
<course>227.1</course>
<desc>Speed 8.8 km/h Distance 7.14 km</desc>
<time>2011-09-24T10:09:08.66</time>
<name>2022</name>
</trkpt>
<trkpt lat="41.796473" lon="-1.744045">
<ele>945.5</ele>
<speed>8.6</speed>
<course>225.7</course>
<desc>Speed 8.6 km/h Distance 7.14 km</desc>
<time>2011-09-24T10:09:09.65</time>
<name>2023</name>
</trkpt>
<trkpt lat="41.796460" lon="-1.744063">
<ele>946.0</ele>
<speed>8.2</speed>
<course>230.5</course>
<desc>Speed 8.2 km/h Distance 7.14 km</desc>
<time>2011-09-24T10:09:10.65</time>
<name>2024</name>
</trkpt>
<trkpt lat="41.796447" lon="-1.744085">
<ele>946.0</ele>
<speed>8.4</speed>
<course>230.5</course>
<desc>Speed 8.4 km/h Distance 7.14 km</desc>
<time>2011-09-24T10:09:11.65</time>
<name>2025</name>
</trkpt>
<trkpt lat="41.796433" lon="-1.744107">
<ele>946.0</ele>
<speed>8.4</speed>
<course>222.3</course>
<desc>Speed 8.4 km/h Distance 7.15 km</desc>
<time>2011-09-24T10:09:12.65</time>
<name>2026</name>
</trkpt>
<trkpt lat="41.796418" lon="-1.744125">
<ele>946.0</ele>
<speed>8.5</speed>
<course>227.1</course>
<desc>Speed 8.5 km/h Distance 7.15 km</desc>
<time>2011-09-24T10:09:13.65</time>
<name>2027</name>
</trkpt>
<trkpt lat="41.796403" lon="-1.744147">
<ele>946.0</ele>
<speed>8.4</speed>
<course>237.9</course>
<desc>Speed 8.4 km/h Distance 7.15 km</desc>
<time>2011-09-24T10:09:14.65</time>
<name>2028</name>
</trkpt>
<trkpt lat="41.796392" lon="-1.744172">
<ele>946.0</ele>
<speed>8.6</speed>
<course>230.5</course>
<desc>Speed 8.6 km/h Distance 7.15 km</desc>
<time>2011-09-24T10:09:15.65</time>
<name>2029</name>
</trkpt>
<trkpt lat="41.796378" lon="-1.744193">
<ele>946.5</ele>
<speed>8.5</speed>
<course>240.2</course>
<desc>Speed 8.5 km/h Distance 7.16 km</desc>
<time>2011-09-24T10:09:16.65</time>
<name>2030</name>
</trkpt>
<trkpt lat="41.796368" lon="-1.744217">
<ele>946.5</ele>
<speed>8.1</speed>
<course>230.5</course>
<desc>Speed 8.1 km/h Distance 7.16 km</desc>
<time>2011-09-24T10:09:17.65</time>
<name>2031</name>
</trkpt>
<trkpt lat="41.796355" lon="-1.744238">
<ele>947.0</ele>
<speed>8.3</speed>
<course>230.5</course>
<desc>Speed 8.3 km/h Distance 7.16 km</desc>
<time>2011-09-24T10:09:18.65</time>
<name>2032</name>
</trkpt>
<trkpt lat="41.796342" lon="-1.744260">
<ele>947.0</ele>
<speed>8.4</speed>
<course>230.4</course>
<desc>Speed 8.4 km/h Distance 7.16 km</desc>
<time>2011-09-24T10:09:19.65</time>
<name>2033</name>
</trkpt>
<trkpt lat="41.796328" lon="-1.744282">
<ele>947.0</ele>
<speed>8.4</speed>
<course>224.8</course>
<desc>Speed 8.4 km/h Distance 7.17 km</desc>
<time>2011-09-24T10:09:20.65</time>
<name>2034</name>
</trkpt>
<trkpt lat="41.796313" lon="-1.744302">
<ele>947.0</ele>
<speed>8.1</speed>
<course>236.1</course>
<desc>Speed 8.1 km/h Distance 7.17 km</desc>
<time>2011-09-24T10:09:21.65</time>
<name>2035</name>
</trkpt>
<trkpt lat="41.796303" lon="-1.744322">
<ele>947.0</ele>
<speed>7.5</speed>
<course>244.4</course>
<desc>Speed 7.5 km/h Distance 7.17 km</desc>
<time>2011-09-24T10:09:22.65</time>
<name>2036</name>
</trkpt>
<trkpt lat="41.796295" lon="-1.744345">
<ele>947.5</ele>
<speed>7.5</speed>
<course>244.4</course>
<desc>Speed 7.5 km/h Distance 7.17 km</desc>
<time>2011-09-24T10:09:23.64</time>
<name>2037</name>
</trkpt>
<trkpt lat="41.796287" lon="-1.744368">
<ele>947.5</ele>
<speed>7.7</speed>
<course>240.1</course>
<desc>Speed 7.7 km/h Distance 7.17 km</desc>
<time>2011-09-24T10:09:24.64</time>
<name>2038</name>
</trkpt>
<trkpt lat="41.796277" lon="-1.744392">
<ele>947.5</ele>
<speed>8.1</speed>
<course>236.2</course>
<desc>Speed 8.1 km/h Distance 7.18 km</desc>
<time>2011-09-24T10:09:25.65</time>
<name>2039</name>
</trkpt>
<trkpt lat="41.796265" lon="-1.744415">
<ele>948.0</ele>
<speed>8.6</speed>
<course>230.4</course>
<desc>Speed 8.6 km/h Distance 7.18 km</desc>
<time>2011-09-24T10:09:26.64</time>
<name>2040</name>
</trkpt>
<trkpt lat="41.796252" lon="-1.744437">
<ele>948.0</ele>
<speed>8.6</speed>
<course>236.1</course>
<desc>Speed 8.6 km/h Distance 7.18 km</desc>
<time>2011-09-24T10:09:27.64</time>
<name>2041</name>
</trkpt>
<trkpt lat="41.796240" lon="-1.744460">
<ele>948.0</ele>
<speed>8.4</speed>
<course>234.1</course>
<desc>Speed 8.4 km/h Distance 7.18 km</desc>
<time>2011-09-24T10:09:28.64</time>
<name>2042</name>
</trkpt>
<trkpt lat="41.796228" lon="-1.744482">
<ele>948.0</ele>
<speed>8.2</speed>
<course>230.5</course>
<desc>Speed 8.2 km/h Distance 7.19 km</desc>
<time>2011-09-24T10:09:29.64</time>
<name>2043</name>
</trkpt>
<trkpt lat="41.796215" lon="-1.744503">
<ele>948.0</ele>
<speed>8.8</speed>
<course>238.0</course>
<desc>Speed 8.8 km/h Distance 7.19 km</desc>
<time>2011-09-24T10:09:30.64</time>
<name>2044</name>
</trkpt>
<trkpt lat="41.796203" lon="-1.744528">
<ele>948.5</ele>
<speed>8.5</speed>
<course>243.3</course>
<desc>Speed 8.5 km/h Distance 7.19 km</desc>
<time>2011-09-24T10:09:31.64</time>
<name>2045</name>
</trkpt>
<trkpt lat="41.796193" lon="-1.744555">
<ele>948.5</ele>
<speed>8.7</speed>
<course>241.7</course>
<desc>Speed 8.7 km/h Distance 7.19 km</desc>
<time>2011-09-24T10:09:32.64</time>
<name>2046</name>
</trkpt>
<trkpt lat="41.796183" lon="-1.744580">
<ele>948.5</ele>
<speed>8.5</speed>
<course>241.7</course>
<desc>Speed 8.5 km/h Distance 7.20 km</desc>
<time>2011-09-24T10:09:33.64</time>
<name>2047</name>
</trkpt>
<trkpt lat="41.796173" lon="-1.744605">
<ele>949.0</ele>
<speed>8.7</speed>
<course>237.9</course>
<desc>Speed 8.7 km/h Distance 7.20 km</desc>
<time>2011-09-24T10:09:34.64</time>
<name>2048</name>
</trkpt>
<trkpt lat="41.796162" lon="-1.744630">
<ele>949.0</ele>
<speed>8.8</speed>
<course>245.9</course>
<desc>Speed 8.8 km/h Distance 7.20 km</desc>
<time>2011-09-24T10:09:35.64</time>
<name>2049</name>
</trkpt>
<trkpt lat="41.796153" lon="-1.744655">
<ele>949.0</ele>
<speed>8.2</speed>
<course>230.4</course>
<desc>Speed 8.2 km/h Distance 7.20 km</desc>
<time>2011-09-24T10:09:36.64</time>
<name>2050</name>
</trkpt>
<trkpt lat="41.796140" lon="-1.744677">
<ele>949.0</ele>
<speed>8.8</speed>
<course>237.9</course>
<desc>Speed 8.8 km/h Distance 7.20 km</desc>
<time>2011-09-24T10:09:37.63</time>
<name>2051</name>
</trkpt>
<trkpt lat="41.796128" lon="-1.744702">
<ele>949.5</ele>
<speed>8.6</speed>
<course>237.9</course>
<desc>Speed 8.6 km/h Distance 7.21 km</desc>
<time>2011-09-24T10:09:38.63</time>
<name>2052</name>
</trkpt>
<trkpt lat="41.796117" lon="-1.744727">
<ele>949.5</ele>
<speed>8.8</speed>
<course>237.9</course>
<desc>Speed 8.8 km/h Distance 7.21 km</desc>
<time>2011-09-24T10:09:39.63</time>
<name>2053</name>
</trkpt>
<trkpt lat="41.796105" lon="-1.744752">
<ele>949.5</ele>
<speed>9.0</speed>
<course>234.4</course>
<desc>Speed 9.0 km/h Distance 7.21 km</desc>
<time>2011-09-24T10:09:40.63</time>
<name>2054</name>
</trkpt>
<trkpt lat="41.796092" lon="-1.744777">
<ele>949.5</ele>
<speed>9.0</speed>
<course>237.9</course>
<desc>Speed 9.0 km/h Distance 7.21 km</desc>
<time>2011-09-24T10:09:41.64</time>
<name>2055</name>
</trkpt>
<trkpt lat="41.796080" lon="-1.744802">
<ele>950.0</ele>
<speed>9.0</speed>
<course>237.9</course>
<desc>Speed 9.0 km/h Distance 7.22 km</desc>
<time>2011-09-24T10:09:42.63</time>
<name>2056</name>
</trkpt>
<trkpt lat="41.796068" lon="-1.744827">
<ele>950.0</ele>
<speed>8.9</speed>
<course>238.0</course>
<desc>Speed 8.9 km/h Distance 7.22 km</desc>
<time>2011-09-24T10:09:43.63</time>
<name>2057</name>
</trkpt>
<trkpt lat="41.796057" lon="-1.744852">
<ele>950.5</ele>
<speed>9.1</speed>
<course>238.0</course>
<desc>Speed 9.1 km/h Distance 7.22 km</desc>
<time>2011-09-24T10:09:44.63</time>
<name>2058</name>
</trkpt>
<trkpt lat="41.796045" lon="-1.744877">
<ele>950.5</ele>
<speed>8.8</speed>
<course>237.9</course>
<desc>Speed 8.8 km/h Distance 7.22 km</desc>
<time>2011-09-24T10:09:45.63</time>
<name>2059</name>
</trkpt>
<trkpt lat="41.796033" lon="-1.744902">
<ele>950.5</ele>
<speed>9.0</speed>
<course>234.4</course>
<desc>Speed 9.0 km/h Distance 7.23 km</desc>
<time>2011-09-24T10:09:46.63</time>
<name>2060</name>
</trkpt>
<trkpt lat="41.796020" lon="-1.744927">
<ele>950.5</ele>
<speed>8.9</speed>
<course>229.2</course>
<desc>Speed 8.9 km/h Distance 7.23 km</desc>
<time>2011-09-24T10:09:47.63</time>
<name>2061</name>
</trkpt>
<trkpt lat="41.796005" lon="-1.744950">
<ele>951.0</ele>
<speed>9.4</speed>
<course>231.2</course>
<desc>Speed 9.4 km/h Distance 7.23 km</desc>
<time>2011-09-24T10:09:48.63</time>
<name>2062</name>
</trkpt>
<trkpt lat="41.795990" lon="-1.744975">
<ele>951.0</ele>
<speed>9.3</speed>
<course>248.5</course>
<desc>Speed 9.3 km/h Distance 7.23 km</desc>
<time>2011-09-24T10:09:49.63</time>
<name>2063</name>
</trkpt>
<trkpt lat="41.795982" lon="-1.745003">
<ele>951.0</ele>
<speed>9.2</speed>
<course>243.3</course>
<desc>Speed 9.2 km/h Distance 7.24 km</desc>
<time>2011-09-24T10:09:50.63</time>
<name>2064</name>
</trkpt>
<trkpt lat="41.795972" lon="-1.745030">
<ele>951.5</ele>
<speed>9.1</speed>
<course>239.6</course>
<desc>Speed 9.1 km/h Distance 7.24 km</desc>
<time>2011-09-24T10:09:51.63</time>
<name>2065</name>
</trkpt>
<trkpt lat="41.795960" lon="-1.745057">
<ele>951.5</ele>
<speed>9.3</speed>
<course>241.8</course>
<desc>Speed 9.3 km/h Distance 7.24 km</desc>
<time>2011-09-24T10:09:52.63</time>
<name>2066</name>
</trkpt>
<trkpt lat="41.795950" lon="-1.745082">
<ele>951.5</ele>
<speed>9.0</speed>
<course>231.1</course>
<desc>Speed 9.0 km/h Distance 7.24 km</desc>
<time>2011-09-24T10:09:53.63</time>
<name>2067</name>
</trkpt>
<trkpt lat="41.795935" lon="-1.745107">
<ele>952.0</ele>
<speed>9.0</speed>
<course>237.9</course>
<desc>Speed 9.0 km/h Distance 7.25 km</desc>
<time>2011-09-24T10:09:54.62</time>
<name>2068</name>
</trkpt>
<trkpt lat="41.795923" lon="-1.745132">
<ele>952.0</ele>
<speed>9.0</speed>
<course>234.4</course>
<desc>Speed 9.0 km/h Distance 7.25 km</desc>
<time>2011-09-24T10:09:55.62</time>
<name>2069</name>
</trkpt>
<trkpt lat="41.795910" lon="-1.745157">
<ele>952.5</ele>
<speed>9.2</speed>
<course>234.4</course>
<desc>Speed 9.2 km/h Distance 7.25 km</desc>
<time>2011-09-24T10:09:56.62</time>
<name>2070</name>
</trkpt>
<trkpt lat="41.795897" lon="-1.745182">
<ele>952.5</ele>
<speed>9.2</speed>
<course>239.6</course>
<desc>Speed 9.2 km/h Distance 7.25 km</desc>
<time>2011-09-24T10:09:57.62</time>
<name>2071</name>
</trkpt>
<trkpt lat="41.795885" lon="-1.745208">
<ele>952.5</ele>
<speed>9.3</speed>
<course>239.6</course>
<desc>Speed 9.3 km/h Distance 7.26 km</desc>
<time>2011-09-24T10:09:58.62</time>
<name>2072</name>
</trkpt>
<trkpt lat="41.795873" lon="-1.745235">
<ele>952.5</ele>
<speed>9.4</speed>
<course>231.1</course>
<desc>Speed 9.4 km/h Distance 7.26 km</desc>
<time>2011-09-24T10:09:59.62</time>
<name>2073</name>
</trkpt>
<trkpt lat="41.795858" lon="-1.745260">
<ele>953.0</ele>
<speed>9.5</speed>
<course>239.6</course>
<desc>Speed 9.5 km/h Distance 7.26 km</desc>
<time>2011-09-24T10:10:00.62</time>
<name>2074</name>
</trkpt>
<trkpt lat="41.795847" lon="-1.745287">
<ele>953.0</ele>
<speed>9.2</speed>
<course>236.1</course>
<desc>Speed 9.2 km/h Distance 7.27 km</desc>
<time>2011-09-24T10:10:01.62</time>
<name>2075</name>
</trkpt>
<trkpt lat="41.795833" lon="-1.745313">
<ele>953.0</ele>
<speed>9.7</speed>
<course>232.9</course>
<desc>Speed 9.7 km/h Distance 7.27 km</desc>
<time>2011-09-24T10:10:02.62</time>
<name>2076</name>
</trkpt>
<trkpt lat="41.795818" lon="-1.745340">
<ele>953.5</ele>
<speed>9.8</speed>
<course>241.1</course>
<desc>Speed 9.8 km/h Distance 7.27 km</desc>
<time>2011-09-24T10:10:03.62</time>
<name>2077</name>
</trkpt>
<trkpt lat="41.795807" lon="-1.745368">
<ele>953.5</ele>
<speed>9.7</speed>
<course>239.6</course>
<desc>Speed 9.7 km/h Distance 7.27 km</desc>
<time>2011-09-24T10:10:04.62</time>
<name>2078</name>
</trkpt>
<trkpt lat="41.795795" lon="-1.745395">
<ele>953.5</ele>
<speed>9.5</speed>
<course>241.1</course>
<desc>Speed 9.5 km/h Distance 7.28 km</desc>
<time>2011-09-24T10:10:05.62</time>
<name>2079</name>
</trkpt>
<trkpt lat="41.795783" lon="-1.745423">
<ele>953.5</ele>
<speed>9.5</speed>
<course>234.4</course>
<desc>Speed 9.5 km/h Distance 7.28 km</desc>
<time>2011-09-24T10:10:06.62</time>
<name>2080</name>
</trkpt>
<trkpt lat="41.795770" lon="-1.745448">
<ele>953.5</ele>
<speed>9.4</speed>
<course>236.1</course>
<desc>Speed 9.4 km/h Distance 7.28 km</desc>
<time>2011-09-24T10:10:07.61</time>
<name>2081</name>
</trkpt>
<trkpt lat="41.795757" lon="-1.745475">
<ele>954.0</ele>
<speed>9.7</speed>
<course>241.1</course>
<desc>Speed 9.7 km/h Distance 7.28 km</desc>
<time>2011-09-24T10:10:08.61</time>
<name>2082</name>
</trkpt>
<trkpt lat="41.795745" lon="-1.745503">
<ele>954.0</ele>
<speed>9.7</speed>
<course>236.1</course>
<desc>Speed 9.7 km/h Distance 7.29 km</desc>
<time>2011-09-24T10:10:09.61</time>
<name>2083</name>
</trkpt>
<trkpt lat="41.795732" lon="-1.745530">
<ele>954.0</ele>
<speed>9.6</speed>
<course>231.1</course>
<desc>Speed 9.6 km/h Distance 7.29 km</desc>
<time>2011-09-24T10:10:10.62</time>
<name>2084</name>
</trkpt>
<trkpt lat="41.795717" lon="-1.745555">
<ele>954.5</ele>
<speed>9.8</speed>
<course>244.7</course>
<desc>Speed 9.8 km/h Distance 7.29 km</desc>
<time>2011-09-24T10:10:11.61</time>
<name>2085</name>
</trkpt>
<trkpt lat="41.795707" lon="-1.745583">
<ele>954.5</ele>
<speed>9.5</speed>
<course>231.1</course>
<desc>Speed 9.5 km/h Distance 7.29 km</desc>
<time>2011-09-24T10:10:12.61</time>
<name>2086</name>
</trkpt>
<trkpt lat="41.795692" lon="-1.745608">
<ele>954.5</ele>
<speed>9.4</speed>
<course>249.6</course>
<desc>Speed 9.4 km/h Distance 7.30 km</desc>
<time>2011-09-24T10:10:13.61</time>
<name>2087</name>
</trkpt>
<trkpt lat="41.795683" lon="-1.745638">
<ele>954.5</ele>
<speed>9.3</speed>
<course>243.3</course>
<desc>Speed 9.3 km/h Distance 7.30 km</desc>
<time>2011-09-24T10:10:14.61</time>
<name>2088</name>
</trkpt>
<trkpt lat="41.795673" lon="-1.745665">
<ele>955.0</ele>
<speed>9.3</speed>
<course>241.1</course>
<desc>Speed 9.3 km/h Distance 7.30 km</desc>
<time>2011-09-24T10:10:15.61</time>
<name>2089</name>
</trkpt>
<trkpt lat="41.795662" lon="-1.745693">
<ele>955.0</ele>
<speed>9.4</speed>
<course>239.6</course>
<desc>Speed 9.4 km/h Distance 7.30 km</desc>
<time>2011-09-24T10:10:16.61</time>
<name>2090</name>
</trkpt>
<trkpt lat="41.795650" lon="-1.745720">
<ele>955.0</ele>
<speed>9.4</speed>
<course>239.6</course>
<desc>Speed 9.4 km/h Distance 7.31 km</desc>
<time>2011-09-24T10:10:17.61</time>
<name>2091</name>
</trkpt>
<trkpt lat="41.795638" lon="-1.745747">
<ele>955.0</ele>
<speed>9.5</speed>
<course>244.7</course>
<desc>Speed 9.5 km/h Distance 7.31 km</desc>
<time>2011-09-24T10:10:18.61</time>
<name>2092</name>
</trkpt>
<trkpt lat="41.795628" lon="-1.745775">
<ele>955.5</ele>
<speed>9.2</speed>
<course>241.1</course>
<desc>Speed 9.2 km/h Distance 7.31 km</desc>
<time>2011-09-24T10:10:19.61</time>
<name>2093</name>
</trkpt>
<trkpt lat="41.795617" lon="-1.745803">
<ele>955.5</ele>
<speed>9.3</speed>
<course>243.3</course>
<desc>Speed 9.3 km/h Distance 7.32 km</desc>
<time>2011-09-24T10:10:20.61</time>
<name>2094</name>
</trkpt>
<trkpt lat="41.795607" lon="-1.745830">
<ele>955.5</ele>
<speed>9.0</speed>
<course>247.2</course>
<desc>Speed 9.0 km/h Distance 7.32 km</desc>
<time>2011-09-24T10:10:21.61</time>
<name>2095</name>
</trkpt>
<trkpt lat="41.795598" lon="-1.745857">
<ele>955.5</ele>
<speed>8.9</speed>
<course>244.6</course>
<desc>Speed 8.9 km/h Distance 7.32 km</desc>
<time>2011-09-24T10:10:22.60</time>
<name>2096</name>
</trkpt>
<trkpt lat="41.795588" lon="-1.745885">
<ele>955.5</ele>
<speed>9.0</speed>
<course>241.8</course>
<desc>Speed 9.0 km/h Distance 7.32 km</desc>
<time>2011-09-24T10:10:23.60</time>
<name>2097</name>
</trkpt>
<trkpt lat="41.795578" lon="-1.745910">
<ele>955.5</ele>
<speed>8.4</speed>
<course>247.2</course>
<desc>Speed 8.4 km/h Distance 7.33 km</desc>
<time>2011-09-24T10:10:24.60</time>
<name>2098</name>
</trkpt>
<trkpt lat="41.795570" lon="-1.745937">
<ele>956.0</ele>
<speed>8.4</speed>
<course>245.9</course>
<desc>Speed 8.4 km/h Distance 7.33 km</desc>
<time>2011-09-24T10:10:25.60</time>
<name>2099</name>
</trkpt>
<trkpt lat="41.795562" lon="-1.745962">
<ele>956.0</ele>
<speed>8.6</speed>
<course>244.7</course>
<desc>Speed 8.6 km/h Distance 7.33 km</desc>
<time>2011-09-24T10:10:26.60</time>
<name>2100</name>
</trkpt>
<trkpt lat="41.795552" lon="-1.745990">
<ele>956.0</ele>
<speed>8.9</speed>
<course>250.3</course>
<desc>Speed 8.9 km/h Distance 7.33 km</desc>
<time>2011-09-24T10:10:27.60</time>
<name>2101</name>
</trkpt>
<trkpt lat="41.795545" lon="-1.746015">
<ele>956.0</ele>
<speed>8.1</speed>
<course>244.4</course>
<desc>Speed 8.1 km/h Distance 7.33 km</desc>
<time>2011-09-24T10:10:28.60</time>
<name>2102</name>
</trkpt>
<trkpt lat="41.795537" lon="-1.746038">
<ele>956.5</ele>
<speed>7.5</speed>
<course>247.6</course>
<desc>Speed 7.5 km/h Distance 7.34 km</desc>
<time>2011-09-24T10:10:29.60</time>
<name>2103</name>
</trkpt>
<trkpt lat="41.795530" lon="-1.746060">
<ele>956.5</ele>
<speed>7.2</speed>
<course>244.4</course>
<desc>Speed 7.2 km/h Distance 7.34 km</desc>
<time>2011-09-24T10:10:30.60</time>
<name>2104</name>
</trkpt>
<trkpt lat="41.795522" lon="-1.746083">
<ele>956.5</ele>
<speed>7.5</speed>
<course>245.9</course>
<desc>Speed 7.5 km/h Distance 7.34 km</desc>
<time>2011-09-24T10:10:31.60</time>
<name>2105</name>
</trkpt>
<trkpt lat="41.795513" lon="-1.746108">
<ele>956.5</ele>
<speed>8.0</speed>
<course>252.5</course>
<desc>Speed 8.0 km/h Distance 7.34 km</desc>
<time>2011-09-24T10:10:32.60</time>
<name>2106</name>
</trkpt>
<trkpt lat="41.795507" lon="-1.746137">
<ele>957.0</ele>
<speed>8.9</speed>
<course>249.6</course>
<desc>Speed 8.9 km/h Distance 7.35 km</desc>
<time>2011-09-24T10:10:33.60</time>
<name>2107</name>
</trkpt>
<trkpt lat="41.795498" lon="-1.746167">
<ele>957.0</ele>
<speed>9.5</speed>
<course>249.6</course>
<desc>Speed 9.5 km/h Distance 7.35 km</desc>
<time>2011-09-24T10:10:34.60</time>
<name>2108</name>
</trkpt>
<trkpt lat="41.795490" lon="-1.746197">
<ele>957.0</ele>
<speed>9.6</speed>
<course>251.5</course>
<desc>Speed 9.6 km/h Distance 7.35 km</desc>
<time>2011-09-24T10:10:35.59</time>
<name>2109</name>
</trkpt>
<trkpt lat="41.795482" lon="-1.746230">
<ele>957.0</ele>
<speed>10.4</speed>
<course>252.3</course>
<desc>Speed 10.4 km/h Distance 7.35 km</desc>
<time>2011-09-24T10:10:36.59</time>
<name>2110</name>
</trkpt>
<trkpt lat="41.795473" lon="-1.746265">
<ele>957.0</ele>
<speed>11.2</speed>
<course>257.4</course>
<desc>Speed 11.2 km/h Distance 7.36 km</desc>
<time>2011-09-24T10:10:37.59</time>
<name>2111</name>
</trkpt>
<trkpt lat="41.795467" lon="-1.746305">
<ele>957.5</ele>
<speed>12.1</speed>
<course>257.0</course>
<desc>Speed 12.1 km/h Distance 7.36 km</desc>
<time>2011-09-24T10:10:38.60</time>
<name>2112</name>
</trkpt>
<trkpt lat="41.795458" lon="-1.746353">
<ele>957.5</ele>
<speed>14.7</speed>
<course>256.3</course>
<desc>Speed 14.7 km/h Distance 7.36 km</desc>
<time>2011-09-24T10:10:39.59</time>
<name>2113</name>
</trkpt>
<trkpt lat="41.795448" lon="-1.746408">
<ele>957.5</ele>
<speed>16.8</speed>
<course>257.4</course>
<desc>Speed 16.8 km/h Distance 7.37 km</desc>
<time>2011-09-24T10:10:40.59</time>
<name>2114</name>
</trkpt>
<trkpt lat="41.795438" lon="-1.746468">
<ele>958.0</ele>
<speed>18.7</speed>
<course>253.8</course>
<desc>Speed 18.7 km/h Distance 7.37 km</desc>
<time>2011-09-24T10:10:41.59</time>
<name>2115</name>
</trkpt>
<trkpt lat="41.795425" lon="-1.746530">
<ele>958.0</ele>
<speed>19.0</speed>
<course>255.8</course>
<desc>Speed 19.0 km/h Distance 7.38 km</desc>
<time>2011-09-24T10:10:42.59</time>
<name>2116</name>
</trkpt>
<trkpt lat="41.795413" lon="-1.746592">
<ele>958.5</ele>
<speed>19.2</speed>
<course>253.8</course>
<desc>Speed 19.2 km/h Distance 7.38 km</desc>
<time>2011-09-24T10:10:43.59</time>
<name>2117</name>
</trkpt>
<trkpt lat="41.795400" lon="-1.746653">
<ele>958.5</ele>
<speed>19.0</speed>
<course>253.4</course>
<desc>Speed 19.0 km/h Distance 7.39 km</desc>
<time>2011-09-24T10:10:44.59</time>
<name>2118</name>
</trkpt>
<trkpt lat="41.795387" lon="-1.746713">
<ele>959.0</ele>
<speed>18.6</speed>
<course>253.0</course>
<desc>Speed 18.6 km/h Distance 7.40 km</desc>
<time>2011-09-24T10:10:45.59</time>
<name>2119</name>
</trkpt>
<trkpt lat="41.795373" lon="-1.746772">
<ele>959.0</ele>
<speed>18.5</speed>
<course>253.0</course>
<desc>Speed 18.5 km/h Distance 7.40 km</desc>
<time>2011-09-24T10:10:46.59</time>
<name>2120</name>
</trkpt>
<trkpt lat="41.795360" lon="-1.746830">
<ele>959.0</ele>
<speed>18.3</speed>
<course>251.0</course>
<desc>Speed 18.3 km/h Distance 7.41 km</desc>
<time>2011-09-24T10:10:47.59</time>
<name>2121</name>
</trkpt>
<trkpt lat="41.795345" lon="-1.746888">
<ele>959.5</ele>
<speed>18.4</speed>
<course>255.0</course>
<desc>Speed 18.4 km/h Distance 7.41 km</desc>
<time>2011-09-24T10:10:48.60</time>
<name>2122</name>
</trkpt>
<trkpt lat="41.795333" lon="-1.746947">
<ele>959.5</ele>
<speed>18.1</speed>
<course>255.0</course>
<desc>Speed 18.1 km/h Distance 7.42 km</desc>
<time>2011-09-24T10:10:49.58</time>
<name>2123</name>
</trkpt>
<trkpt lat="41.795322" lon="-1.747005">
<ele>960.0</ele>
<speed>17.9</speed>
<course>255.0</course>
<desc>Speed 17.9 km/h Distance 7.42 km</desc>
<time>2011-09-24T10:10:50.58</time>
<name>2124</name>
</trkpt>
<trkpt lat="41.795310" lon="-1.747063">
<ele>960.0</ele>
<speed>18.0</speed>
<course>253.0</course>
<desc>Speed 18.0 km/h Distance 7.43 km</desc>
<time>2011-09-24T10:10:51.59</time>
<name>2125</name>
</trkpt>
<trkpt lat="41.795297" lon="-1.747122">
<ele>960.5</ele>
<speed>18.3</speed>
<course>253.0</course>
<desc>Speed 18.3 km/h Distance 7.43 km</desc>
<time>2011-09-24T10:10:52.58</time>
<name>2126</name>
</trkpt>
<trkpt lat="41.795283" lon="-1.747180">
<ele>960.5</ele>
<speed>18.6</speed>
<course>253.4</course>
<desc>Speed 18.6 km/h Distance 7.44 km</desc>
<time>2011-09-24T10:10:53.58</time>
<name>2127</name>
</trkpt>
<trkpt lat="41.795270" lon="-1.747240">
<ele>960.5</ele>
<speed>18.8</speed>
<course>253.4</course>
<desc>Speed 18.8 km/h Distance 7.44 km</desc>
<time>2011-09-24T10:10:54.58</time>
<name>2128</name>
</trkpt>
<trkpt lat="41.795257" lon="-1.747300">
<ele>961.0</ele>
<speed>18.8</speed>
<course>253.0</course>
<desc>Speed 18.8 km/h Distance 7.45 km</desc>
<time>2011-09-24T10:10:55.57</time>
<name>2129</name>
</trkpt>
<trkpt lat="41.795243" lon="-1.747358">
<ele>961.0</ele>
<speed>18.6</speed>
<course>253.4</course>
<desc>Speed 18.6 km/h Distance 7.45 km</desc>
<time>2011-09-24T10:10:56.57</time>
<name>2130</name>
</trkpt>
<trkpt lat="41.795230" lon="-1.747418">
<ele>961.5</ele>
<speed>18.3</speed>
<course>252.5</course>
<desc>Speed 18.3 km/h Distance 7.46 km</desc>
<time>2011-09-24T10:10:57.59</time>
<name>2131</name>
</trkpt>
<trkpt lat="41.795217" lon="-1.747475">
<ele>961.5</ele>
<speed>18.2</speed>
<course>253.0</course>
<desc>Speed 18.2 km/h Distance 7.46 km</desc>
<time>2011-09-24T10:10:58.57</time>
<name>2132</name>
</trkpt>
<trkpt lat="41.795203" lon="-1.747533">
<ele>962.0</ele>
<speed>18.3</speed>
<course>251.0</course>
<desc>Speed 18.3 km/h Distance 7.47 km</desc>
<time>2011-09-24T10:10:59.57</time>
<name>2133</name>
</trkpt>
<trkpt lat="41.795188" lon="-1.747592">
<ele>962.0</ele>
<speed>18.3</speed>
<course>253.0</course>
<desc>Speed 18.3 km/h Distance 7.47 km</desc>
<time>2011-09-24T10:11:00.57</time>
<name>2134</name>
</trkpt>
<trkpt lat="41.795175" lon="-1.747650">
<ele>962.5</ele>
<speed>18.3</speed>
<course>252.5</course>
<desc>Speed 18.3 km/h Distance 7.48 km</desc>
<time>2011-09-24T10:11:01.57</time>
<name>2135</name>
</trkpt>
<trkpt lat="41.795162" lon="-1.747707">
<ele>963.0</ele>
<speed>18.3</speed>
<course>249.0</course>
<desc>Speed 18.3 km/h Distance 7.48 km</desc>
<time>2011-09-24T10:11:02.58</time>
<name>2136</name>
</trkpt>
<trkpt lat="41.795145" lon="-1.747765">
<ele>963.0</ele>
<speed>18.5</speed>
<course>253.0</course>
<desc>Speed 18.5 km/h Distance 7.49 km</desc>
<time>2011-09-24T10:11:03.57</time>
<name>2137</name>
</trkpt>
<trkpt lat="41.795132" lon="-1.747823">
<ele>963.5</ele>
<speed>18.2</speed>
<course>251.0</course>
<desc>Speed 18.2 km/h Distance 7.49 km</desc>
<time>2011-09-24T10:11:04.57</time>
<name>2138</name>
</trkpt>
<trkpt lat="41.795117" lon="-1.747882">
<ele>964.0</ele>
<speed>18.4</speed>
<course>249.0</course>
<desc>Speed 18.4 km/h Distance 7.50 km</desc>
<time>2011-09-24T10:11:05.57</time>
<name>2139</name>
</trkpt>
<trkpt lat="41.795100" lon="-1.747940">
<ele>964.0</ele>
<speed>18.3</speed>
<course>247.9</course>
<desc>Speed 18.3 km/h Distance 7.50 km</desc>
<time>2011-09-24T10:11:06.57</time>
<name>2140</name>
</trkpt>
<trkpt lat="41.795083" lon="-1.747995">
<ele>964.5</ele>
<speed>18.0</speed>
<course>250.5</course>
<desc>Speed 18.0 km/h Distance 7.51 km</desc>
<time>2011-09-24T10:11:07.57</time>
<name>2141</name>
</trkpt>
<trkpt lat="41.795068" lon="-1.748052">
<ele>964.5</ele>
<speed>18.2</speed>
<course>247.9</course>
<desc>Speed 18.2 km/h Distance 7.51 km</desc>
<time>2011-09-24T10:11:08.56</time>
<name>2142</name>
</trkpt>
<trkpt lat="41.795052" lon="-1.748107">
<ele>965.0</ele>
<speed>17.6</speed>
<course>246.6</course>
<desc>Speed 17.6 km/h Distance 7.52 km</desc>
<time>2011-09-24T10:11:09.56</time>
<name>2143</name>
</trkpt>
<trkpt lat="41.795035" lon="-1.748158">
<ele>965.0</ele>
<speed>17.2</speed>
<course>250.3</course>
<desc>Speed 17.2 km/h Distance 7.52 km</desc>
<time>2011-09-24T10:11:10.57</time>
<name>2144</name>
</trkpt>
<trkpt lat="41.795022" lon="-1.748208">
<ele>965.5</ele>
<speed>16.1</speed>
<course>249.7</course>
<desc>Speed 16.1 km/h Distance 7.53 km</desc>
<time>2011-09-24T10:11:11.56</time>
<name>2145</name>
</trkpt>
<trkpt lat="41.795008" lon="-1.748257">
<ele>965.5</ele>
<speed>16.1</speed>
<course>249.7</course>
<desc>Speed 16.1 km/h Distance 7.53 km</desc>
<time>2011-09-24T10:11:12.56</time>
<name>2146</name>
</trkpt>
<trkpt lat="41.794995" lon="-1.748305">
<ele>966.0</ele>
<speed>15.6</speed>
<course>246.7</course>
<desc>Speed 15.6 km/h Distance 7.53 km</desc>
<time>2011-09-24T10:11:13.56</time>
<name>2147</name>
</trkpt>
<trkpt lat="41.794980" lon="-1.748352">
<ele>966.5</ele>
<speed>15.1</speed>
<course>246.7</course>
<desc>Speed 15.1 km/h Distance 7.54 km</desc>
<time>2011-09-24T10:11:14.56</time>
<name>2148</name>
</trkpt>
<trkpt lat="41.794965" lon="-1.748398">
<ele>966.5</ele>
<speed>15.0</speed>
<course>242.7</course>
<desc>Speed 15.0 km/h Distance 7.54 km</desc>
<time>2011-09-24T10:11:15.57</time>
<name>2149</name>
</trkpt>
<trkpt lat="41.794948" lon="-1.748442">
<ele>967.0</ele>
<speed>14.8</speed>
<course>237.2</course>
<desc>Speed 14.8 km/h Distance 7.55 km</desc>
<time>2011-09-24T10:11:16.56</time>
<name>2150</name>
</trkpt>
<trkpt lat="41.794928" lon="-1.748483">
<ele>967.0</ele>
<speed>14.3</speed>
<course>245.0</course>
<desc>Speed 14.3 km/h Distance 7.55 km</desc>
<time>2011-09-24T10:11:17.56</time>
<name>2151</name>
</trkpt>
<trkpt lat="41.794915" lon="-1.748522">
<ele>967.5</ele>
<speed>12.7</speed>
<course>240.1</course>
<desc>Speed 12.7 km/h Distance 7.55 km</desc>
<time>2011-09-24T10:11:18.57</time>
<name>2152</name>
</trkpt>
<trkpt lat="41.794900" lon="-1.748557">
<ele>967.5</ele>
<speed>12.1</speed>
<course>247.8</course>
<desc>Speed 12.1 km/h Distance 7.56 km</desc>
<time>2011-09-24T10:11:19.56</time>
<name>2153</name>
</trkpt>
<trkpt lat="41.794888" lon="-1.748595">
<ele>968.0</ele>
<speed>12.4</speed>
<course>244.2</course>
<desc>Speed 12.4 km/h Distance 7.56 km</desc>
<time>2011-09-24T10:11:20.56</time>
<name>2154</name>
</trkpt>
<trkpt lat="41.794873" lon="-1.748637">
<ele>968.0</ele>
<speed>13.6</speed>
<course>240.4</course>
<desc>Speed 13.6 km/h Distance 7.57 km</desc>
<time>2011-09-24T10:11:21.56</time>
<name>2155</name>
</trkpt>
<trkpt lat="41.794855" lon="-1.748680">
<ele>968.5</ele>
<speed>14.9</speed>
<course>236.2</course>
<desc>Speed 14.9 km/h Distance 7.57 km</desc>
<time>2011-09-24T10:11:22.56</time>
<name>2156</name>
</trkpt>
<trkpt lat="41.794833" lon="-1.748723">
<ele>969.0</ele>
<speed>15.3</speed>
<course>241.3</course>
<desc>Speed 15.3 km/h Distance 7.57 km</desc>
<time>2011-09-24T10:11:23.56</time>
<name>2157</name>
</trkpt>
<trkpt lat="41.794815" lon="-1.748768">
<ele>969.0</ele>
<speed>15.3</speed>
<course>238.2</course>
<desc>Speed 15.3 km/h Distance 7.58 km</desc>
<time>2011-09-24T10:11:24.55</time>
<name>2158</name>
</trkpt>
<trkpt lat="41.794795" lon="-1.748812">
<ele>969.5</ele>
<speed>15.0</speed>
<course>241.3</course>
<desc>Speed 15.0 km/h Distance 7.58 km</desc>
<time>2011-09-24T10:11:25.55</time>
<name>2159</name>
</trkpt>
<trkpt lat="41.794777" lon="-1.748857">
<ele>969.5</ele>
<speed>14.9</speed>
<course>241.3</course>
<desc>Speed 14.9 km/h Distance 7.59 km</desc>
<time>2011-09-24T10:11:26.55</time>
<name>2160</name>
</trkpt>
<trkpt lat="41.794758" lon="-1.748902">
<ele>970.0</ele>
<speed>15.2</speed>
<course>238.2</course>
<desc>Speed 15.2 km/h Distance 7.59 km</desc>
<time>2011-09-24T10:11:27.55</time>
<name>2161</name>
</trkpt>
<trkpt lat="41.794738" lon="-1.748945">
<ele>970.5</ele>
<speed>15.2</speed>
<course>236.1</course>
<desc>Speed 15.2 km/h Distance 7.60 km</desc>
<time>2011-09-24T10:11:28.55</time>
<name>2162</name>
</trkpt>
<trkpt lat="41.794717" lon="-1.748988">
<ele>971.0</ele>
<speed>15.3</speed>
<course>234.2</course>
<desc>Speed 15.3 km/h Distance 7.60 km</desc>
<time>2011-09-24T10:11:29.56</time>
<name>2163</name>
</trkpt>
<trkpt lat="41.794693" lon="-1.749032">
<ele>971.0</ele>
<speed>15.4</speed>
<course>236.2</course>
<desc>Speed 15.4 km/h Distance 7.60 km</desc>
<time>2011-09-24T10:11:30.54</time>
<name>2164</name>
</trkpt>
<trkpt lat="41.794672" lon="-1.749075">
<ele>971.5</ele>
<speed>15.6</speed>
<course>234.2</course>
<desc>Speed 15.6 km/h Distance 7.61 km</desc>
<time>2011-09-24T10:11:31.55</time>
<name>2165</name>
</trkpt>
<trkpt lat="41.794648" lon="-1.749118">
<ele>972.0</ele>
<speed>15.5</speed>
<course>231.2</course>
<desc>Speed 15.5 km/h Distance 7.61 km</desc>
<time>2011-09-24T10:11:32.55</time>
<name>2166</name>
</trkpt>
<trkpt lat="41.794623" lon="-1.749160">
<ele>972.5</ele>
<speed>15.4</speed>
<course>235.1</course>
<desc>Speed 15.4 km/h Distance 7.62 km</desc>
<time>2011-09-24T10:11:33.54</time>
<name>2167</name>
</trkpt>
<trkpt lat="41.794602" lon="-1.749202">
<ele>972.5</ele>
<speed>15.3</speed>
<course>236.2</course>
<desc>Speed 15.3 km/h Distance 7.62 km</desc>
<time>2011-09-24T10:11:34.54</time>
<name>2168</name>
</trkpt>
<trkpt lat="41.794580" lon="-1.749245">
<ele>973.0</ele>
<speed>15.2</speed>
<course>238.2</course>
<desc>Speed 15.2 km/h Distance 7.63 km</desc>
<time>2011-09-24T10:11:35.54</time>
<name>2169</name>
</trkpt>
<trkpt lat="41.794560" lon="-1.749288">
<ele>973.5</ele>
<speed>15.4</speed>
<course>234.2</course>
<desc>Speed 15.4 km/h Distance 7.63 km</desc>
<time>2011-09-24T10:11:36.55</time>
<name>2170</name>
</trkpt>
<trkpt lat="41.794537" lon="-1.749332">
<ele>973.5</ele>
<speed>15.7</speed>
<course>236.2</course>
<desc>Speed 15.7 km/h Distance 7.63 km</desc>
<time>2011-09-24T10:11:37.54</time>
<name>2171</name>
</trkpt>
<trkpt lat="41.794515" lon="-1.749375">
<ele>974.0</ele>
<speed>15.3</speed>
<course>235.1</course>
<desc>Speed 15.3 km/h Distance 7.64 km</desc>
<time>2011-09-24T10:11:38.55</time>
<name>2172</name>
</trkpt>
<trkpt lat="41.794493" lon="-1.749417">
<ele>974.0</ele>
<speed>14.8</speed>
<course>234.0</course>
<desc>Speed 14.8 km/h Distance 7.64 km</desc>
<time>2011-09-24T10:11:39.54</time>
<name>2173</name>
</trkpt>
<trkpt lat="41.794472" lon="-1.749457">
<ele>974.5</ele>
<speed>14.8</speed>
<course>235.0</course>
<desc>Speed 14.8 km/h Distance 7.65 km</desc>
<time>2011-09-24T10:11:40.54</time>
<name>2174</name>
</trkpt>
<trkpt lat="41.794452" lon="-1.749495">
<ele>974.5</ele>
<speed>14.3</speed>
<course>230.8</course>
<desc>Speed 14.3 km/h Distance 7.65 km</desc>
<time>2011-09-24T10:11:41.54</time>
<name>2175</name>
</trkpt>
<trkpt lat="41.794428" lon="-1.749533">
<ele>975.0</ele>
<speed>14.6</speed>
<course>230.8</course>
<desc>Speed 14.6 km/h Distance 7.65 km</desc>
<time>2011-09-24T10:11:42.54</time>
<name>2176</name>
</trkpt>
<trkpt lat="41.794405" lon="-1.749572">
<ele>975.0</ele>
<speed>14.8</speed>
<course>230.8</course>
<desc>Speed 14.8 km/h Distance 7.66 km</desc>
<time>2011-09-24T10:11:43.54</time>
<name>2177</name>
</trkpt>
<trkpt lat="41.794382" lon="-1.749610">
<ele>975.5</ele>
<speed>14.7</speed>
<course>229.5</course>
<desc>Speed 14.7 km/h Distance 7.66 km</desc>
<time>2011-09-24T10:11:44.54</time>
<name>2178</name>
</trkpt>
<trkpt lat="41.794358" lon="-1.749647">
<ele>975.5</ele>
<speed>14.4</speed>
<course>229.5</course>
<desc>Speed 14.4 km/h Distance 7.67 km</desc>
<time>2011-09-24T10:11:45.54</time>
<name>2179</name>
</trkpt>
<trkpt lat="41.794335" lon="-1.749683">
<ele>976.0</ele>
<speed>14.0</speed>
<course>230.3</course>
<desc>Speed 14.0 km/h Distance 7.67 km</desc>
<time>2011-09-24T10:11:46.54</time>
<name>2180</name>
</trkpt>
<trkpt lat="41.794313" lon="-1.749718">
<ele>976.0</ele>
<speed>13.9</speed>
<course>233.8</course>
<desc>Speed 13.9 km/h Distance 7.67 km</desc>
<time>2011-09-24T10:11:47.54</time>
<name>2181</name>
</trkpt>
<trkpt lat="41.794293" lon="-1.749755">
<ele>976.5</ele>
<speed>13.4</speed>
<course>231.2</course>
<desc>Speed 13.4 km/h Distance 7.68 km</desc>
<time>2011-09-24T10:11:48.54</time>
<name>2182</name>
</trkpt>
<trkpt lat="41.794273" lon="-1.749788">
<ele>976.5</ele>
<speed>13.0</speed>
<course>234.9</course>
<desc>Speed 13.0 km/h Distance 7.68 km</desc>
<time>2011-09-24T10:11:49.54</time>
<name>2183</name>
</trkpt>
<trkpt lat="41.794255" lon="-1.749823">
<ele>977.0</ele>
<speed>12.8</speed>
<course>231.2</course>
<desc>Speed 12.8 km/h Distance 7.69 km</desc>
<time>2011-09-24T10:11:50.54</time>
<name>2184</name>
</trkpt>
<trkpt lat="41.794235" lon="-1.749857">
<ele>977.0</ele>
<speed>13.0</speed>
<course>232.5</course>
<desc>Speed 13.0 km/h Distance 7.69 km</desc>
<time>2011-09-24T10:11:51.54</time>
<name>2185</name>
</trkpt>
<trkpt lat="41.794215" lon="-1.749892">
<ele>977.5</ele>
<speed>12.9</speed>
<course>234.9</course>
<desc>Speed 12.9 km/h Distance 7.69 km</desc>
<time>2011-09-24T10:11:52.53</time>
<name>2186</name>
</trkpt>
<trkpt lat="41.794197" lon="-1.749927">
<ele>978.0</ele>
<speed>13.0</speed>
<course>237.4</course>
<desc>Speed 13.0 km/h Distance 7.70 km</desc>
<time>2011-09-24T10:11:53.53</time>
<name>2187</name>
</trkpt>
<trkpt lat="41.794180" lon="-1.749962">
<ele>978.0</ele>
<speed>12.8</speed>
<course>238.6</course>
<desc>Speed 12.8 km/h Distance 7.70 km</desc>
<time>2011-09-24T10:11:54.53</time>
<name>2188</name>
</trkpt>
<trkpt lat="41.794163" lon="-1.749998">
<ele>978.5</ele>
<speed>12.9</speed>
<course>242.3</course>
<desc>Speed 12.9 km/h Distance 7.70 km</desc>
<time>2011-09-24T10:11:55.53</time>
<name>2189</name>
</trkpt>
<trkpt lat="41.794148" lon="-1.750037">
<ele>978.5</ele>
<speed>13.0</speed>
<course>242.3</course>
<desc>Speed 13.0 km/h Distance 7.71 km</desc>
<time>2011-09-24T10:11:56.53</time>
<name>2190</name>
</trkpt>
<trkpt lat="41.794133" lon="-1.750075">
<ele>979.0</ele>
<speed>13.0</speed>
<course>245.0</course>
<desc>Speed 13.0 km/h Distance 7.71 km</desc>
<time>2011-09-24T10:11:57.53</time>
<name>2191</name>
</trkpt>
<trkpt lat="41.794120" lon="-1.750113">
<ele>979.0</ele>
<speed>12.9</speed>
<course>245.0</course>
<desc>Speed 12.9 km/h Distance 7.71 km</desc>
<time>2011-09-24T10:11:58.53</time>
<name>2192</name>
</trkpt>
<trkpt lat="41.794107" lon="-1.750152">
<ele>979.0</ele>
<speed>12.7</speed>
<course>247.8</course>
<desc>Speed 12.7 km/h Distance 7.72 km</desc>
<time>2011-09-24T10:11:59.53</time>
<name>2193</name>
</trkpt>
<trkpt lat="41.794095" lon="-1.750190">
<ele>979.5</ele>
<speed>12.5</speed>
<course>251.5</course>
<desc>Speed 12.5 km/h Distance 7.72 km</desc>
<time>2011-09-24T10:12:00.53</time>
<name>2194</name>
</trkpt>
<trkpt lat="41.794085" lon="-1.750230">
<ele>979.5</ele>
<speed>12.6</speed>
<course>251.5</course>
<desc>Speed 12.6 km/h Distance 7.72 km</desc>
<time>2011-09-24T10:12:01.53</time>
<name>2195</name>
</trkpt>
<trkpt lat="41.794075" lon="-1.750270">
<ele>979.5</ele>
<speed>12.1</speed>
<course>253.7</course>
<desc>Speed 12.1 km/h Distance 7.73 km</desc>
<time>2011-09-24T10:12:02.53</time>
<name>2196</name>
</trkpt>
<trkpt lat="41.794067" lon="-1.750308">
<ele>980.0</ele>
<speed>11.8</speed>
<course>260.1</course>
<desc>Speed 11.8 km/h Distance 7.73 km</desc>
<time>2011-09-24T10:12:03.53</time>
<name>2197</name>
</trkpt>
<trkpt lat="41.794062" lon="-1.750347">
<ele>980.0</ele>
<speed>11.8</speed>
<course>257.4</course>
<desc>Speed 11.8 km/h Distance 7.73 km</desc>
<time>2011-09-24T10:12:04.52</time>
<name>2198</name>
</trkpt>
<trkpt lat="41.794055" lon="-1.750387">
<ele>980.0</ele>
<speed>12.1</speed>
<course>260.5</course>
<desc>Speed 12.1 km/h Distance 7.74 km</desc>
<time>2011-09-24T10:12:05.52</time>
<name>2199</name>
</trkpt>
<trkpt lat="41.794050" lon="-1.750427">
<ele>980.5</ele>
<speed>12.3</speed>
<course>263.9</course>
<desc>Speed 12.3 km/h Distance 7.74 km</desc>
<time>2011-09-24T10:12:06.52</time>
<name>2200</name>
</trkpt>
<trkpt lat="41.794047" lon="-1.750468">
<ele>980.5</ele>
<speed>12.5</speed>
<course>266.9</course>
<desc>Speed 12.5 km/h Distance 7.74 km</desc>
<time>2011-09-24T10:12:07.52</time>
<name>2201</name>
</trkpt>
<trkpt lat="41.794045" lon="-1.750510">
<ele>980.5</ele>
<speed>12.6</speed>
<course>260.9</course>
<desc>Speed 12.6 km/h Distance 7.75 km</desc>
<time>2011-09-24T10:12:08.52</time>
<name>2202</name>
</trkpt>
<trkpt lat="41.794040" lon="-1.750552">
<ele>980.5</ele>
<speed>12.5</speed>
<course>266.9</course>
<desc>Speed 12.5 km/h Distance 7.75 km</desc>
<time>2011-09-24T10:12:09.52</time>
<name>2203</name>
</trkpt>
<trkpt lat="41.794038" lon="-1.750593">
<ele>980.5</ele>
<speed>12.3</speed>
<course>266.8</course>
<desc>Speed 12.3 km/h Distance 7.76 km</desc>
<time>2011-09-24T10:12:10.53</time>
<name>2204</name>
</trkpt>
<trkpt lat="41.794037" lon="-1.750633">
<ele>980.5</ele>
<speed>12.4</speed>
<course>270.0</course>
<desc>Speed 12.4 km/h Distance 7.76 km</desc>
<time>2011-09-24T10:12:11.52</time>
<name>2205</name>
</trkpt>
<trkpt lat="41.794037" lon="-1.750675">
<ele>981.0</ele>
<speed>12.5</speed>
<course>273.1</course>
<desc>Speed 12.5 km/h Distance 7.76 km</desc>
<time>2011-09-24T10:12:12.52</time>
<name>2206</name>
</trkpt>
<trkpt lat="41.794038" lon="-1.750717">
<ele>981.0</ele>
<speed>12.4</speed>
<course>276.1</course>
<desc>Speed 12.4 km/h Distance 7.77 km</desc>
<time>2011-09-24T10:12:13.52</time>
<name>2207</name>
</trkpt>
<trkpt lat="41.794042" lon="-1.750758">
<ele>981.0</ele>
<speed>12.5</speed>
<course>279.1</course>
<desc>Speed 12.5 km/h Distance 7.77 km</desc>
<time>2011-09-24T10:12:14.52</time>
<name>2208</name>
</trkpt>
<trkpt lat="41.794047" lon="-1.750800">
<ele>981.0</ele>
<speed>12.3</speed>
<course>282.6</course>
<desc>Speed 12.3 km/h Distance 7.77 km</desc>
<time>2011-09-24T10:12:15.52</time>
<name>2209</name>
</trkpt>
<trkpt lat="41.794053" lon="-1.750840">
<ele>981.5</ele>
<speed>12.3</speed>
<course>282.6</course>
<desc>Speed 12.3 km/h Distance 7.78 km</desc>
<time>2011-09-24T10:12:16.52</time>
<name>2210</name>
</trkpt>
<trkpt lat="41.794060" lon="-1.750880">
<ele>981.5</ele>
<speed>12.3</speed>
<course>283.1</course>
<desc>Speed 12.3 km/h Distance 7.78 km</desc>
<time>2011-09-24T10:12:17.51</time>
<name>2211</name>
</trkpt>
<trkpt lat="41.794067" lon="-1.750918">
<ele>981.5</ele>
<speed>12.1</speed>
<course>292.2</course>
<desc>Speed 12.1 km/h Distance 7.78 km</desc>
<time>2011-09-24T10:12:18.51</time>
<name>2212</name>
</trkpt>
<trkpt lat="41.794078" lon="-1.750957">
<ele>981.5</ele>
<speed>12.1</speed>
<course>296.0</course>
<desc>Speed 12.1 km/h Distance 7.79 km</desc>
<time>2011-09-24T10:12:19.51</time>
<name>2213</name>
</trkpt>
<trkpt lat="41.794092" lon="-1.750993">
<ele>982.0</ele>
<speed>12.2</speed>
<course>296.0</course>
<desc>Speed 12.2 km/h Distance 7.79 km</desc>
<time>2011-09-24T10:12:20.51</time>
<name>2214</name>
</trkpt>
<trkpt lat="41.794105" lon="-1.751030">
<ele>982.0</ele>
<speed>12.1</speed>
<course>294.1</course>
<desc>Speed 12.1 km/h Distance 7.79 km</desc>
<time>2011-09-24T10:12:21.51</time>
<name>2215</name>
</trkpt>
<trkpt lat="41.794117" lon="-1.751065">
<ele>982.0</ele>
<speed>11.7</speed>
<course>303.9</course>
<desc>Speed 11.7 km/h Distance 7.80 km</desc>
<time>2011-09-24T10:12:22.51</time>
<name>2216</name>
</trkpt>
<trkpt lat="41.794133" lon="-1.751098">
<ele>982.0</ele>
<speed>11.6</speed>
<course>301.1</course>
<desc>Speed 11.6 km/h Distance 7.80 km</desc>
<time>2011-09-24T10:12:23.51</time>
<name>2217</name>
</trkpt>
<trkpt lat="41.794148" lon="-1.751132">
<ele>982.5</ele>
<speed>11.7</speed>
<course>301.1</course>
<desc>Speed 11.7 km/h Distance 7.80 km</desc>
<time>2011-09-24T10:12:24.51</time>
<name>2218</name>
</trkpt>
<trkpt lat="41.794163" lon="-1.751165">
<ele>982.5</ele>
<speed>11.8</speed>
<course>307.8</course>
<desc>Speed 11.8 km/h Distance 7.81 km</desc>
<time>2011-09-24T10:12:25.51</time>
<name>2219</name>
</trkpt>
<trkpt lat="41.794182" lon="-1.751197">
<ele>982.5</ele>
<speed>11.7</speed>
<course>307.8</course>
<desc>Speed 11.7 km/h Distance 7.81 km</desc>
<time>2011-09-24T10:12:26.51</time>
<name>2220</name>
</trkpt>
<trkpt lat="41.794200" lon="-1.751228">
<ele>982.5</ele>
<speed>11.9</speed>
<course>302.6</course>
<desc>Speed 11.9 km/h Distance 7.81 km</desc>
<time>2011-09-24T10:12:27.51</time>
<name>2221</name>
</trkpt>
<trkpt lat="41.794217" lon="-1.751263">
<ele>983.0</ele>
<speed>12.2</speed>
<course>306.4</course>
<desc>Speed 12.2 km/h Distance 7.82 km</desc>
<time>2011-09-24T10:12:28.50</time>
<name>2222</name>
</trkpt>
<trkpt lat="41.794235" lon="-1.751297">
<ele>983.0</ele>
<speed>12.3</speed>
<course>307.8</course>
<desc>Speed 12.3 km/h Distance 7.82 km</desc>
<time>2011-09-24T10:12:29.51</time>
<name>2223</name>
</trkpt>
<trkpt lat="41.794253" lon="-1.751328">
<ele>983.0</ele>
<speed>12.0</speed>
<course>311.8</course>
<desc>Speed 12.0 km/h Distance 7.82 km</desc>
<time>2011-09-24T10:12:30.50</time>
<name>2224</name>
</trkpt>
<trkpt lat="41.794273" lon="-1.751358">
<ele>983.5</ele>
<speed>12.1</speed>
<course>310.3</course>
<desc>Speed 12.1 km/h Distance 7.83 km</desc>
<time>2011-09-24T10:12:31.51</time>
<name>2225</name>
</trkpt>
<trkpt lat="41.794293" lon="-1.751390">
<ele>983.5</ele>
<speed>12.5</speed>
<course>301.4</course>
<desc>Speed 12.5 km/h Distance 7.83 km</desc>
<time>2011-09-24T10:12:32.50</time>
<name>2226</name>
</trkpt>
<trkpt lat="41.794310" lon="-1.751427">
<ele>983.5</ele>
<speed>12.6</speed>
<course>298.8</course>
<desc>Speed 12.6 km/h Distance 7.83 km</desc>
<time>2011-09-24T10:12:33.50</time>
<name>2227</name>
</trkpt>
<trkpt lat="41.794325" lon="-1.751463">
<ele>984.0</ele>
<speed>12.6</speed>
<course>305.1</course>
<desc>Speed 12.6 km/h Distance 7.84 km</desc>
<time>2011-09-24T10:12:34.50</time>
<name>2228</name>
</trkpt>
<trkpt lat="41.794343" lon="-1.751498">
<ele>984.0</ele>
<speed>12.8</speed>
<course>314.7</course>
<desc>Speed 12.8 km/h Distance 7.84 km</desc>
<time>2011-09-24T10:12:35.50</time>
<name>2229</name>
</trkpt>
<trkpt lat="41.794367" lon="-1.751530">
<ele>984.0</ele>
<speed>13.3</speed>
<course>316.2</course>
<desc>Speed 13.3 km/h Distance 7.84 km</desc>
<time>2011-09-24T10:12:36.50</time>
<name>2230</name>
</trkpt>
<trkpt lat="41.794390" lon="-1.751560">
<ele>984.0</ele>
<speed>12.9</speed>
<course>302.6</course>
<desc>Speed 12.9 km/h Distance 7.85 km</desc>
<time>2011-09-24T10:12:37.50</time>
<name>2231</name>
</trkpt>
<trkpt lat="41.794407" lon="-1.751595">
<ele>984.5</ele>
<speed>12.1</speed>
<course>303.9</course>
<desc>Speed 12.1 km/h Distance 7.85 km</desc>
<time>2011-09-24T10:12:38.50</time>
<name>2232</name>
</trkpt>
<trkpt lat="41.794423" lon="-1.751628">
<ele>984.5</ele>
<speed>11.6</speed>
<course>306.7</course>
<desc>Speed 11.6 km/h Distance 7.85 km</desc>
<time>2011-09-24T10:12:39.50</time>
<name>2233</name>
</trkpt>
<trkpt lat="41.794440" lon="-1.751658">
<ele>985.0</ele>
<speed>11.3</speed>
<course>299.4</course>
<desc>Speed 11.3 km/h Distance 7.86 km</desc>
<time>2011-09-24T10:12:40.50</time>
<name>2234</name>
</trkpt>
<trkpt lat="41.794453" lon="-1.751690">
<ele>985.0</ele>
<speed>10.7</speed>
<course>302.4</course>
<desc>Speed 10.7 km/h Distance 7.86 km</desc>
<time>2011-09-24T10:12:41.50</time>
<name>2235</name>
</trkpt>
<trkpt lat="41.794468" lon="-1.751722">
<ele>985.0</ele>
<speed>10.9</speed>
<course>298.2</course>
<desc>Speed 10.9 km/h Distance 7.86 km</desc>
<time>2011-09-24T10:12:42.50</time>
<name>2236</name>
</trkpt>
<trkpt lat="41.794482" lon="-1.751755">
<ele>985.5</ele>
<speed>11.4</speed>
<course>299.9</course>
<desc>Speed 11.4 km/h Distance 7.87 km</desc>
<time>2011-09-24T10:12:43.50</time>
<name>2237</name>
</trkpt>
<trkpt lat="41.794497" lon="-1.751790">
<ele>985.5</ele>
<speed>11.6</speed>
<course>291.0</course>
<desc>Speed 11.6 km/h Distance 7.87 km</desc>
<time>2011-09-24T10:12:44.49</time>
<name>2238</name>
</trkpt>
<trkpt lat="41.794507" lon="-1.751825">
<ele>986.0</ele>
<speed>11.2</speed>
<course>289.4</course>
<desc>Speed 11.2 km/h Distance 7.87 km</desc>
<time>2011-09-24T10:12:45.49</time>
<name>2239</name>
</trkpt>
<trkpt lat="41.794515" lon="-1.751857">
<ele>986.0</ele>
<speed>10.0</speed>
<course>309.5</course>
<desc>Speed 10.0 km/h Distance 7.88 km</desc>
<time>2011-09-24T10:12:46.49</time>
<name>2240</name>
</trkpt>
<trkpt lat="41.794528" lon="-1.751878">
<ele>986.0</ele>
<speed>8.1</speed>
<course>288.5</course>
<desc>Speed 8.1 km/h Distance 7.88 km</desc>
<time>2011-09-24T10:12:47.50</time>
<name>2241</name>
</trkpt>
<trkpt lat="41.794533" lon="-1.751898">
<ele>986.5</ele>
<speed>6.4</speed>
<course>270.0</course>
<desc>Speed 6.4 km/h Distance 7.88 km</desc>
<time>2011-09-24T10:12:48.49</time>
<name>2242</name>
</trkpt>
<trkpt lat="41.794533" lon="-1.751918">
<ele>986.5</ele>
<speed>5.7</speed>
<course>167.4</course>
<desc>Speed 5.7 km/h Distance 7.88 km</desc>
<time>2011-09-24T10:12:49.49</time>
<name>2243</name>
</trkpt>
<trkpt lat="41.794530" lon="-1.751918">
<ele>986.5</ele>
<speed>1.2</speed>
<course>114.0</course>
<desc>Speed 1.2 km/h Distance 7.88 km</desc>
<time>2011-09-24T10:12:50.49</time>
<name>2244</name>
</trkpt>
<trkpt lat="41.794528" lon="-1.751913">
<ele>987.0</ele>
<speed>1.2</speed>
<course>146.3</course>
<desc>Speed 1.2 km/h Distance 7.88 km</desc>
<time>2011-09-24T10:12:51.50</time>
<name>2245</name>
</trkpt>
<trkpt lat="41.794525" lon="-1.751910">
<ele>986.5</ele>
<speed>1.6</speed>
<course>330.8</course>
<desc>Speed 1.6 km/h Distance 7.88 km</desc>
<time>2011-09-24T10:12:52.75</time>
<name>2246</name>
</trkpt>
<trkpt lat="41.794532" lon="-1.751915">
<ele>984.0</ele>
<speed>1.3</speed>
<course>241.7</course>
<desc>Speed 1.3 km/h Distance 7.88 km</desc>
<time>2011-09-24T10:12:53.50</time>
<name>2247</name>
</trkpt>
<trkpt lat="41.794528" lon="-1.751923">
<ele>984.5</ele>
<speed>3.5</speed>
<course>249.9</course>
<desc>Speed 3.5 km/h Distance 7.88 km</desc>
<time>2011-09-24T10:12:54.50</time>
<name>2248</name>
</trkpt>
<trkpt lat="41.794523" lon="-1.751942">
<ele>985.0</ele>
<speed>5.7</speed>
<course>245.9</course>
<desc>Speed 5.7 km/h Distance 7.89 km</desc>
<time>2011-09-24T10:12:55.50</time>
<name>2249</name>
</trkpt>
<trkpt lat="41.794515" lon="-1.751967">
<ele>985.0</ele>
<speed>8.4</speed>
<course>254.2</course>
<desc>Speed 8.4 km/h Distance 7.89 km</desc>
<time>2011-09-24T10:12:56.49</time>
<name>2250</name>
</trkpt>
<trkpt lat="41.794508" lon="-1.751998">
<ele>985.5</ele>
<speed>10.0</speed>
<course>256.3</course>
<desc>Speed 10.0 km/h Distance 7.89 km</desc>
<time>2011-09-24T10:12:57.49</time>
<name>2251</name>
</trkpt>
<trkpt lat="41.794502" lon="-1.752035">
<ele>985.5</ele>
<speed>11.1</speed>
<course>258.1</course>
<desc>Speed 11.1 km/h Distance 7.89 km</desc>
<time>2011-09-24T10:12:58.48</time>
<name>2252</name>
</trkpt>
<trkpt lat="41.794497" lon="-1.752067">
<ele>986.0</ele>
<speed>10.1</speed>
<course>270.0</course>
<desc>Speed 10.1 km/h Distance 7.90 km</desc>
<time>2011-09-24T10:12:59.48</time>
<name>2253</name>
</trkpt>
<trkpt lat="41.794497" lon="-1.752092">
<ele>986.0</ele>
<speed>7.4</speed>
<course>277.6</course>
<desc>Speed 7.4 km/h Distance 7.90 km</desc>
<time>2011-09-24T10:13:00.48</time>
<name>2254</name>
</trkpt>
<trkpt lat="41.794498" lon="-1.752108">
<ele>986.5</ele>
<speed>4.8</speed>
<course>260.5</course>
<desc>Speed 4.8 km/h Distance 7.90 km</desc>
<time>2011-09-24T10:13:01.48</time>
<name>2255</name>
</trkpt>
<trkpt lat="41.794497" lon="-1.752122">
<ele>986.5</ele>
<speed>4.2</speed>
<course>242.7</course>
<desc>Speed 4.2 km/h Distance 7.90 km</desc>
<time>2011-09-24T10:13:02.48</time>
<name>2256</name>
</trkpt>
<trkpt lat="41.794488" lon="-1.752143">
<ele>986.5</ele>
<speed>7.4</speed>
<course>236.2</course>
<desc>Speed 7.4 km/h Distance 7.90 km</desc>
<time>2011-09-24T10:13:03.48</time>
<name>2257</name>
</trkpt>
<trkpt lat="41.794477" lon="-1.752167">
<ele>987.0</ele>
<speed>8.1</speed>
<course>228.2</course>
<desc>Speed 8.1 km/h Distance 7.91 km</desc>
<time>2011-09-24T10:13:04.48</time>
<name>2258</name>
</trkpt>
<trkpt lat="41.794463" lon="-1.752187">
<ele>987.0</ele>
<speed>8.3</speed>
<course>230.4</course>
<desc>Speed 8.3 km/h Distance 7.91 km</desc>
<time>2011-09-24T10:13:05.48</time>
<name>2259</name>
</trkpt>
<trkpt lat="41.794450" lon="-1.752208">
<ele>987.0</ele>
<speed>8.2</speed>
<course>230.4</course>
<desc>Speed 8.2 km/h Distance 7.91 km</desc>
<time>2011-09-24T10:13:06.47</time>
<name>2260</name>
</trkpt>
<trkpt lat="41.794437" lon="-1.752230">
<ele>987.0</ele>
<speed>8.4</speed>
<course>230.5</course>
<desc>Speed 8.4 km/h Distance 7.91 km</desc>
<time>2011-09-24T10:13:07.47</time>
<name>2261</name>
</trkpt>
<trkpt lat="41.794423" lon="-1.752252">
<ele>987.5</ele>
<speed>8.6</speed>
<course>228.2</course>
<desc>Speed 8.6 km/h Distance 7.92 km</desc>
<time>2011-09-24T10:13:08.47</time>
<name>2262</name>
</trkpt>
<trkpt lat="41.794410" lon="-1.752272">
<ele>987.5</ele>
<speed>8.1</speed>
<course>243.3</course>
<desc>Speed 8.1 km/h Distance 7.92 km</desc>
<time>2011-09-24T10:13:09.47</time>
<name>2263</name>
</trkpt>
<trkpt lat="41.794400" lon="-1.752298">
<ele>987.5</ele>
<speed>8.6</speed>
<course>241.1</course>
<desc>Speed 8.6 km/h Distance 7.92 km</desc>
<time>2011-09-24T10:13:10.47</time>
<name>2264</name>
</trkpt>
<trkpt lat="41.794388" lon="-1.752327">
<ele>988.0</ele>
<speed>9.5</speed>
<course>237.7</course>
<desc>Speed 9.5 km/h Distance 7.92 km</desc>
<time>2011-09-24T10:13:11.47</time>
<name>2265</name>
</trkpt>
<trkpt lat="41.794375" lon="-1.752355">
<ele>988.0</ele>
<speed>10.2</speed>
<course>234.6</course>
<desc>Speed 10.2 km/h Distance 7.93 km</desc>
<time>2011-09-24T10:13:12.47</time>
<name>2266</name>
</trkpt>
<trkpt lat="41.794360" lon="-1.752383">
<ele>988.0</ele>
<speed>10.2</speed>
<course>232.9</course>
<desc>Speed 10.2 km/h Distance 7.93 km</desc>
<time>2011-09-24T10:13:13.47</time>
<name>2267</name>
</trkpt>
<trkpt lat="41.794345" lon="-1.752410">
<ele>988.5</ele>
<speed>9.9</speed>
<course>234.6</course>
<desc>Speed 9.9 km/h Distance 7.93 km</desc>
<time>2011-09-24T10:13:14.47</time>
<name>2268</name>
</trkpt>
<trkpt lat="41.794330" lon="-1.752438">
<ele>988.5</ele>
<speed>10.2</speed>
<course>228.2</course>
<desc>Speed 10.2 km/h Distance 7.93 km</desc>
<time>2011-09-24T10:13:15.46</time>
<name>2269</name>
</trkpt>
<trkpt lat="41.794313" lon="-1.752463">
<ele>988.5</ele>
<speed>10.1</speed>
<course>232.9</course>
<desc>Speed 10.1 km/h Distance 7.94 km</desc>
<time>2011-09-24T10:13:16.46</time>
<name>2270</name>
</trkpt>
<trkpt lat="41.794298" lon="-1.752490">
<ele>989.0</ele>
<speed>10.2</speed>
<course>234.6</course>
<desc>Speed 10.2 km/h Distance 7.94 km</desc>
<time>2011-09-24T10:13:17.46</time>
<name>2271</name>
</trkpt>
<trkpt lat="41.794283" lon="-1.752518">
<ele>989.0</ele>
<speed>10.4</speed>
<course>230.0</course>
<desc>Speed 10.4 km/h Distance 7.94 km</desc>
<time>2011-09-24T10:13:18.46</time>
<name>2272</name>
</trkpt>
<trkpt lat="41.794267" lon="-1.752545">
<ele>989.0</ele>
<speed>10.3</speed>
<course>226.3</course>
<desc>Speed 10.3 km/h Distance 7.95 km</desc>
<time>2011-09-24T10:13:19.46</time>
<name>2273</name>
</trkpt>
<trkpt lat="41.794250" lon="-1.752568">
<ele>989.5</ele>
<speed>10.1</speed>
<course>223.5</course>
<desc>Speed 10.1 km/h Distance 7.95 km</desc>
<time>2011-09-24T10:13:20.45</time>
<name>2274</name>
</trkpt>
<trkpt lat="41.794232" lon="-1.752592">
<ele>989.5</ele>
<speed>10.0</speed>
<course>231.2</course>
<desc>Speed 10.0 km/h Distance 7.95 km</desc>
<time>2011-09-24T10:13:21.46</time>
<name>2275</name>
</trkpt>
<trkpt lat="41.794217" lon="-1.752617">
<ele>989.5</ele>
<speed>9.7</speed>
<course>232.9</course>
<desc>Speed 9.7 km/h Distance 7.95 km</desc>
<time>2011-09-24T10:13:22.45</time>
<name>2276</name>
</trkpt>
<trkpt lat="41.794202" lon="-1.752643">
<ele>990.0</ele>
<speed>9.7</speed>
<course>231.1</course>
<desc>Speed 9.7 km/h Distance 7.96 km</desc>
<time>2011-09-24T10:13:23.46</time>
<name>2277</name>
</trkpt>
<trkpt lat="41.794187" lon="-1.752668">
<ele>990.0</ele>
<speed>9.8</speed>
<course>228.1</course>
<desc>Speed 9.8 km/h Distance 7.96 km</desc>
<time>2011-09-24T10:13:24.45</time>
<name>2278</name>
</trkpt>
<trkpt lat="41.794170" lon="-1.752693">
<ele>990.0</ele>
<speed>10.1</speed>
<course>231.7</course>
<desc>Speed 10.1 km/h Distance 7.96 km</desc>
<time>2011-09-24T10:13:25.46</time>
<name>2279</name>
</trkpt>
<trkpt lat="41.794153" lon="-1.752722">
<ele>990.0</ele>
<speed>10.8</speed>
<course>227.3</course>
<desc>Speed 10.8 km/h Distance 7.96 km</desc>
<time>2011-09-24T10:13:26.45</time>
<name>2280</name>
</trkpt>
<trkpt lat="41.794135" lon="-1.752748">
<ele>990.0</ele>
<speed>11.1</speed>
<course>227.3</course>
<desc>Speed 11.1 km/h Distance 7.97 km</desc>
<time>2011-09-24T10:13:27.45</time>
<name>2281</name>
</trkpt>
<trkpt lat="41.794117" lon="-1.752775">
<ele>990.5</ele>
<speed>11.1</speed>
<course>227.3</course>
<desc>Speed 11.1 km/h Distance 7.97 km</desc>
<time>2011-09-24T10:13:28.45</time>
<name>2282</name>
</trkpt>
<trkpt lat="41.794098" lon="-1.752802">
<ele>990.5</ele>
<speed>10.7</speed>
<course>230.0</course>
<desc>Speed 10.7 km/h Distance 7.97 km</desc>
<time>2011-09-24T10:13:29.45</time>
<name>2283</name>
</trkpt>
<trkpt lat="41.794082" lon="-1.752828">
<ele>990.5</ele>
<speed>10.0</speed>
<course>231.1</course>
<desc>Speed 10.0 km/h Distance 7.98 km</desc>
<time>2011-09-24T10:13:30.46</time>
<name>2284</name>
</trkpt>
<trkpt lat="41.794067" lon="-1.752853">
<ele>991.0</ele>
<speed>9.9</speed>
<course>221.4</course>
<desc>Speed 9.9 km/h Distance 7.98 km</desc>
<time>2011-09-24T10:13:31.45</time>
<name>2285</name>
</trkpt>
<trkpt lat="41.794048" lon="-1.752875">
<ele>991.0</ele>
<speed>10.0</speed>
<course>228.1</course>
<desc>Speed 10.0 km/h Distance 7.98 km</desc>
<time>2011-09-24T10:13:32.45</time>
<name>2286</name>
</trkpt>
<trkpt lat="41.794032" lon="-1.752900">
<ele>991.5</ele>
<speed>10.0</speed>
<course>223.0</course>
<desc>Speed 10.0 km/h Distance 7.98 km</desc>
<time>2011-09-24T10:13:33.45</time>
<name>2287</name>
</trkpt>
<trkpt lat="41.794012" lon="-1.752925">
<ele>991.5</ele>
<speed>10.5</speed>
<course>228.2</course>
<desc>Speed 10.5 km/h Distance 7.99 km</desc>
<time>2011-09-24T10:13:34.45</time>
<name>2288</name>
</trkpt>
<trkpt lat="41.793995" lon="-1.752950">
<ele>991.5</ele>
<speed>10.4</speed>
<course>228.2</course>
<desc>Speed 10.4 km/h Distance 7.99 km</desc>
<time>2011-09-24T10:13:35.45</time>
<name>2289</name>
</trkpt>
<trkpt lat="41.793978" lon="-1.752975">
<ele>992.0</ele>
<speed>10.3</speed>
<course>231.5</course>
<desc>Speed 10.3 km/h Distance 7.99 km</desc>
<time>2011-09-24T10:13:36.92</time>
<name>2290</name>
</trkpt>
<trkpt lat="41.793947" lon="-1.753028">
<ele>992.0</ele>
<speed>10.3</speed>
<course>230.0</course>
<desc>Speed 10.3 km/h Distance 8.00 km</desc>
<time>2011-09-24T10:13:38.68</time>
<name>2291</name>
</trkpt>
<trkpt lat="41.793930" lon="-1.753055">
<ele>992.5</ele>
<speed>10.3</speed>
<course>230.0</course>
<desc>Speed 10.3 km/h Distance 8.00 km</desc>
<time>2011-09-24T10:13:39.45</time>
<name>2292</name>
</trkpt>
<trkpt lat="41.793913" lon="-1.753082">
<ele>992.5</ele>
<speed>10.1</speed>
<course>231.2</course>
<desc>Speed 10.1 km/h Distance 8.00 km</desc>
<time>2011-09-24T10:13:40.45</time>
<name>2293</name>
</trkpt>
<trkpt lat="41.793898" lon="-1.753107">
<ele>992.5</ele>
<speed>10.0</speed>
<course>223.5</course>
<desc>Speed 10.0 km/h Distance 8.01 km</desc>
<time>2011-09-24T10:13:41.45</time>
<name>2294</name>
</trkpt>
<trkpt lat="41.793880" lon="-1.753130">
<ele>993.0</ele>
<speed>9.9</speed>
<course>233.0</course>
<desc>Speed 9.9 km/h Distance 8.01 km</desc>
<time>2011-09-24T10:13:42.45</time>
<name>2295</name>
</trkpt>
<trkpt lat="41.793865" lon="-1.753157">
<ele>993.0</ele>
<speed>10.2</speed>
<course>229.0</course>
<desc>Speed 10.2 km/h Distance 8.01 km</desc>
<time>2011-09-24T10:13:43.44</time>
<name>2296</name>
</trkpt>
<trkpt lat="41.793847" lon="-1.753185">
<ele>993.0</ele>
<speed>10.9</speed>
<course>225.5</course>
<desc>Speed 10.9 km/h Distance 8.02 km</desc>
<time>2011-09-24T10:13:44.44</time>
<name>2297</name>
</trkpt>
<trkpt lat="41.793828" lon="-1.753210">
<ele>993.5</ele>
<speed>10.7</speed>
<course>230.0</course>
<desc>Speed 10.7 km/h Distance 8.02 km</desc>
<time>2011-09-24T10:13:45.44</time>
<name>2298</name>
</trkpt>
<trkpt lat="41.793812" lon="-1.753237">
<ele>993.5</ele>
<speed>10.5</speed>
<course>225.5</course>
<desc>Speed 10.5 km/h Distance 8.02 km</desc>
<time>2011-09-24T10:13:46.44</time>
<name>2299</name>
</trkpt>
<trkpt lat="41.793793" lon="-1.753262">
<ele>993.5</ele>
<speed>10.3</speed>
<course>228.2</course>
<desc>Speed 10.3 km/h Distance 8.02 km</desc>
<time>2011-09-24T10:13:47.44</time>
<name>2300</name>
</trkpt>
<trkpt lat="41.793777" lon="-1.753287">
<ele>994.0</ele>
<speed>10.1</speed>
<course>236.1</course>
<desc>Speed 10.1 km/h Distance 8.03 km</desc>
<time>2011-09-24T10:13:48.44</time>
<name>2301</name>
</trkpt>
<trkpt lat="41.793763" lon="-1.753313">
<ele>994.0</ele>
<speed>9.9</speed>
<course>228.2</course>
<desc>Speed 9.9 km/h Distance 8.03 km</desc>
<time>2011-09-24T10:13:49.44</time>
<name>2302</name>
</trkpt>
<trkpt lat="41.793747" lon="-1.753338">
<ele>994.0</ele>
<speed>10.0</speed>
<course>229.2</course>
<desc>Speed 10.0 km/h Distance 8.03 km</desc>
<time>2011-09-24T10:13:50.44</time>
<name>2303</name>
</trkpt>
<trkpt lat="41.793732" lon="-1.753362">
<ele>994.0</ele>
<speed>9.8</speed>
<course>230.0</course>
<desc>Speed 9.8 km/h Distance 8.04 km</desc>
<time>2011-09-24T10:13:51.44</time>
<name>2304</name>
</trkpt>
<trkpt lat="41.793715" lon="-1.753388">
<ele>994.5</ele>
<speed>10.2</speed>
<course>230.0</course>
<desc>Speed 10.2 km/h Distance 8.04 km</desc>
<time>2011-09-24T10:13:52.43</time>
<name>2305</name>
</trkpt>
<trkpt lat="41.793698" lon="-1.753415">
<ele>994.5</ele>
<speed>10.8</speed>
<course>231.7</course>
<desc>Speed 10.8 km/h Distance 8.04 km</desc>
<time>2011-09-24T10:13:53.43</time>
<name>2306</name>
</trkpt>
<trkpt lat="41.793682" lon="-1.753443">
<ele>995.0</ele>
<speed>10.7</speed>
<course>231.7</course>
<desc>Speed 10.7 km/h Distance 8.04 km</desc>
<time>2011-09-24T10:13:54.43</time>
<name>2307</name>
</trkpt>
<trkpt lat="41.793665" lon="-1.753472">
<ele>995.0</ele>
<speed>10.6</speed>
<course>231.7</course>
<desc>Speed 10.6 km/h Distance 8.05 km</desc>
<time>2011-09-24T10:13:55.43</time>
<name>2308</name>
</trkpt>
<trkpt lat="41.793648" lon="-1.753500">
<ele>995.0</ele>
<speed>10.8</speed>
<course>224.9</course>
<desc>Speed 10.8 km/h Distance 8.05 km</desc>
<time>2011-09-24T10:13:56.43</time>
<name>2309</name>
</trkpt>
<trkpt lat="41.793628" lon="-1.753527">
<ele>995.5</ele>
<speed>10.9</speed>
<course>231.7</course>
<desc>Speed 10.9 km/h Distance 8.05 km</desc>
<time>2011-09-24T10:13:57.43</time>
<name>2310</name>
</trkpt>
<trkpt lat="41.793612" lon="-1.753555">
<ele>995.5</ele>
<speed>11.1</speed>
<course>229.0</course>
<desc>Speed 11.1 km/h Distance 8.06 km</desc>
<time>2011-09-24T10:13:58.43</time>
<name>2311</name>
</trkpt>
<trkpt lat="41.793593" lon="-1.753583">
<ele>996.0</ele>
<speed>11.3</speed>
<course>231.7</course>
<desc>Speed 11.3 km/h Distance 8.06 km</desc>
<time>2011-09-24T10:13:59.43</time>
<name>2312</name>
</trkpt>
<trkpt lat="41.793577" lon="-1.753612">
<ele>996.0</ele>
<speed>11.3</speed>
<course>229.0</course>
<desc>Speed 11.3 km/h Distance 8.06 km</desc>
<time>2011-09-24T10:14:00.43</time>
<name>2313</name>
</trkpt>
<trkpt lat="41.793558" lon="-1.753640">
<ele>996.0</ele>
<speed>11.1</speed>
<course>224.9</course>
<desc>Speed 11.1 km/h Distance 8.07 km</desc>
<time>2011-09-24T10:14:01.43</time>
<name>2314</name>
</trkpt>
<trkpt lat="41.793538" lon="-1.753667">
<ele>996.5</ele>
<speed>11.1</speed>
<course>230.0</course>
<desc>Speed 11.1 km/h Distance 8.07 km</desc>
<time>2011-09-24T10:14:02.42</time>
<name>2315</name>
</trkpt>
<trkpt lat="41.793522" lon="-1.753693">
<ele>996.5</ele>
<speed>10.8</speed>
<course>231.7</course>
<desc>Speed 10.8 km/h Distance 8.07 km</desc>
<time>2011-09-24T10:14:03.43</time>
<name>2316</name>
</trkpt>
<trkpt lat="41.793505" lon="-1.753722">
<ele>996.5</ele>
<speed>10.7</speed>
<course>227.3</course>
<desc>Speed 10.7 km/h Distance 8.07 km</desc>
<time>2011-09-24T10:14:04.42</time>
<name>2317</name>
</trkpt>
<trkpt lat="41.793487" lon="-1.753748">
<ele>996.5</ele>
<speed>10.8</speed>
<course>231.7</course>
<desc>Speed 10.8 km/h Distance 8.08 km</desc>
<time>2011-09-24T10:14:05.42</time>
<name>2318</name>
</trkpt>
<trkpt lat="41.793470" lon="-1.753777">
<ele>997.0</ele>
<speed>10.9</speed>
<course>224.8</course>
<desc>Speed 10.9 km/h Distance 8.08 km</desc>
<time>2011-09-24T10:14:06.42</time>
<name>2319</name>
</trkpt>
<trkpt lat="41.793450" lon="-1.753803">
<ele>997.0</ele>
<speed>11.2</speed>
<course>227.3</course>
<desc>Speed 11.2 km/h Distance 8.08 km</desc>
<time>2011-09-24T10:14:07.42</time>
<name>2320</name>
</trkpt>
<trkpt lat="41.793432" lon="-1.753830">
<ele>997.5</ele>
<speed>11.2</speed>
<course>233.3</course>
<desc>Speed 11.2 km/h Distance 8.09 km</desc>
<time>2011-09-24T10:14:08.42</time>
<name>2321</name>
</trkpt>
<trkpt lat="41.793415" lon="-1.753860">
<ele>997.5</ele>
<speed>11.0</speed>
<course>231.7</course>
<desc>Speed 11.0 km/h Distance 8.09 km</desc>
<time>2011-09-24T10:14:09.42</time>
<name>2322</name>
</trkpt>
<trkpt lat="41.793398" lon="-1.753888">
<ele>997.5</ele>
<speed>11.2</speed>
<course>231.7</course>
<desc>Speed 11.2 km/h Distance 8.09 km</desc>
<time>2011-09-24T10:14:10.42</time>
<name>2323</name>
</trkpt>
<trkpt lat="41.793382" lon="-1.753917">
<ele>998.0</ele>
<speed>10.9</speed>
<course>229.1</course>
<desc>Speed 10.9 km/h Distance 8.10 km</desc>
<time>2011-09-24T10:14:11.42</time>
<name>2324</name>
</trkpt>
<trkpt lat="41.793363" lon="-1.753945">
<ele>998.0</ele>
<speed>10.8</speed>
<course>227.3</course>
<desc>Speed 10.8 km/h Distance 8.10 km</desc>
<time>2011-09-24T10:14:12.42</time>
<name>2325</name>
</trkpt>
<trkpt lat="41.793345" lon="-1.753972">
<ele>998.5</ele>
<speed>11.2</speed>
<course>231.7</course>
<desc>Speed 11.2 km/h Distance 8.10 km</desc>
<time>2011-09-24T10:14:13.42</time>
<name>2326</name>
</trkpt>
<trkpt lat="41.793328" lon="-1.754000">
<ele>998.5</ele>
<speed>11.0</speed>
<course>233.3</course>
<desc>Speed 11.0 km/h Distance 8.10 km</desc>
<time>2011-09-24T10:14:14.42</time>
<name>2327</name>
</trkpt>
<trkpt lat="41.793312" lon="-1.754030">
<ele>999.0</ele>
<speed>11.0</speed>
<course>229.1</course>
<desc>Speed 11.0 km/h Distance 8.11 km</desc>
<time>2011-09-24T10:14:15.42</time>
<name>2328</name>
</trkpt>
<trkpt lat="41.793293" lon="-1.754058">
<ele>999.0</ele>
<speed>10.8</speed>
<course>227.3</course>
<desc>Speed 10.8 km/h Distance 8.11 km</desc>
<time>2011-09-24T10:14:16.42</time>
<name>2329</name>
</trkpt>
<trkpt lat="41.793275" lon="-1.754085">
<ele>999.0</ele>
<speed>10.9</speed>
<course>234.6</course>
<desc>Speed 10.9 km/h Distance 8.11 km</desc>
<time>2011-09-24T10:14:17.42</time>
<name>2330</name>
</trkpt>
<trkpt lat="41.793260" lon="-1.754113">
<ele>999.5</ele>
<speed>10.6</speed>
<course>231.7</course>
<desc>Speed 10.6 km/h Distance 8.12 km</desc>
<time>2011-09-24T10:14:18.41</time>
<name>2331</name>
</trkpt>
<trkpt lat="41.793243" lon="-1.754142">
<ele>999.5</ele>
<speed>10.2</speed>
<course>234.6</course>
<desc>Speed 10.2 km/h Distance 8.12 km</desc>
<time>2011-09-24T10:14:19.42</time>
<name>2332</name>
</trkpt>
<trkpt lat="41.793228" lon="-1.754170">
<ele>999.5</ele>
<speed>10.3</speed>
<course>230.0</course>
<desc>Speed 10.3 km/h Distance 8.12 km</desc>
<time>2011-09-24T10:14:20.41</time>
<name>2333</name>
</trkpt>
<trkpt lat="41.793212" lon="-1.754197">
<ele>999.5</ele>
<speed>10.5</speed>
<course>227.3</course>
<desc>Speed 10.5 km/h Distance 8.13 km</desc>
<time>2011-09-24T10:14:21.41</time>
<name>2334</name>
</trkpt>
<trkpt lat="41.793193" lon="-1.754223">
<ele>1000.0</ele>
<speed>10.6</speed>
<course>234.4</course>
<desc>Speed 10.6 km/h Distance 8.13 km</desc>
<time>2011-09-24T10:14:22.42</time>
<name>2335</name>
</trkpt>
<trkpt lat="41.793180" lon="-1.754248">
<ele>1000.0</ele>
<speed>9.5</speed>
<course>233.0</course>
<desc>Speed 9.5 km/h Distance 8.13 km</desc>
<time>2011-09-24T10:14:23.41</time>
<name>2336</name>
</trkpt>
<trkpt lat="41.793165" lon="-1.754275">
<ele>1000.0</ele>
<speed>9.6</speed>
<course>231.2</course>
<desc>Speed 9.6 km/h Distance 8.13 km</desc>
<time>2011-09-24T10:14:24.41</time>
<name>2337</name>
</trkpt>
<trkpt lat="41.793150" lon="-1.754300">
<ele>1000.5</ele>
<speed>9.7</speed>
<course>230.0</course>
<desc>Speed 9.7 km/h Distance 8.14 km</desc>
<time>2011-09-24T10:14:25.41</time>
<name>2338</name>
</trkpt>
<trkpt lat="41.793133" lon="-1.754327">
<ele>1000.5</ele>
<speed>10.3</speed>
<course>228.1</course>
<desc>Speed 10.3 km/h Distance 8.14 km</desc>
<time>2011-09-24T10:14:26.41</time>
<name>2339</name>
</trkpt>
<trkpt lat="41.793117" lon="-1.754352">
<ele>1000.5</ele>
<speed>10.1</speed>
<course>231.7</course>
<desc>Speed 10.1 km/h Distance 8.14 km</desc>
<time>2011-09-24T10:14:27.41</time>
<name>2340</name>
</trkpt>
<trkpt lat="41.793100" lon="-1.754380">
<ele>1001.5</ele>
<speed>10.7</speed>
<course>224.3</course>
<desc>Speed 10.7 km/h Distance 8.15 km</desc>
<time>2011-09-24T10:14:28.40</time>
<name>2341</name>
</trkpt>
<trkpt lat="41.793078" lon="-1.754408">
<ele>1002.0</ele>
<speed>11.6</speed>
<course>231.1</course>
<desc>Speed 11.6 km/h Distance 8.15 km</desc>
<time>2011-09-24T10:14:29.41</time>
<name>2342</name>
</trkpt>
<trkpt lat="41.793063" lon="-1.754433">
<ele>1002.5</ele>
<speed>10.0</speed>
<course>228.1</course>
<desc>Speed 10.0 km/h Distance 8.15 km</desc>
<time>2011-09-24T10:14:30.40</time>
<name>2343</name>
</trkpt>
<trkpt lat="41.793047" lon="-1.754458">
<ele>1002.5</ele>
<speed>10.0</speed>
<course>231.1</course>
<desc>Speed 10.0 km/h Distance 8.15 km</desc>
<time>2011-09-24T10:14:31.40</time>
<name>2344</name>
</trkpt>
<trkpt lat="41.793032" lon="-1.754483">
<ele>1002.0</ele>
<speed>9.3</speed>
<course>240.1</course>
<desc>Speed 9.3 km/h Distance 8.16 km</desc>
<time>2011-09-24T10:14:32.41</time>
<name>2345</name>
</trkpt>
<trkpt lat="41.793022" lon="-1.754507">
<ele>1001.5</ele>
<speed>8.0</speed>
<course>247.3</course>
<desc>Speed 8.0 km/h Distance 8.16 km</desc>
<time>2011-09-24T10:14:33.40</time>
<name>2346</name>
</trkpt>
<trkpt lat="41.793013" lon="-1.754533">
<ele>1001.5</ele>
<speed>8.4</speed>
<course>227.3</course>
<desc>Speed 8.4 km/h Distance 8.16 km</desc>
<time>2011-09-24T10:14:34.41</time>
<name>2347</name>
</trkpt>
<trkpt lat="41.792995" lon="-1.754560">
<ele>1002.0</ele>
<speed>10.6</speed>
<course>228.1</course>
<desc>Speed 10.6 km/h Distance 8.16 km</desc>
<time>2011-09-24T10:14:35.40</time>
<name>2348</name>
</trkpt>
<trkpt lat="41.792978" lon="-1.754585">
<ele>1002.0</ele>
<speed>10.4</speed>
<course>227.3</course>
<desc>Speed 10.4 km/h Distance 8.17 km</desc>
<time>2011-09-24T10:14:36.40</time>
<name>2349</name>
</trkpt>
<trkpt lat="41.792960" lon="-1.754612">
<ele>1002.5</ele>
<speed>10.0</speed>
<course>228.2</course>
<desc>Speed 10.0 km/h Distance 8.17 km</desc>
<time>2011-09-24T10:14:37.39</time>
<name>2350</name>
</trkpt>
<trkpt lat="41.792943" lon="-1.754637">
<ele>1002.0</ele>
<speed>9.8</speed>
<course>236.2</course>
<desc>Speed 9.8 km/h Distance 8.17 km</desc>
<time>2011-09-24T10:14:38.39</time>
<name>2351</name>
</trkpt>
<trkpt lat="41.792930" lon="-1.754663">
<ele>1002.0</ele>
<speed>9.6</speed>
<course>233.0</course>
<desc>Speed 9.6 km/h Distance 8.18 km</desc>
<time>2011-09-24T10:14:39.39</time>
<name>2352</name>
</trkpt>
<trkpt lat="41.792915" lon="-1.754690">
<ele>1002.0</ele>
<speed>10.1</speed>
<course>230.5</course>
<desc>Speed 10.1 km/h Distance 8.18 km</desc>
<time>2011-09-24T10:14:40.39</time>
<name>2353</name>
</trkpt>
<trkpt lat="41.792902" lon="-1.754712">
<ele>1001.5</ele>
<speed>8.0</speed>
<course>228.2</course>
<desc>Speed 8.0 km/h Distance 8.18 km</desc>
<time>2011-09-24T10:14:41.39</time>
<name>2354</name>
</trkpt>
<trkpt lat="41.792885" lon="-1.754737">
<ele>1002.0</ele>
<speed>10.0</speed>
<course>233.0</course>
<desc>Speed 10.0 km/h Distance 8.18 km</desc>
<time>2011-09-24T10:14:42.39</time>
<name>2355</name>
</trkpt>
<trkpt lat="41.792870" lon="-1.754763">
<ele>1002.0</ele>
<speed>9.8</speed>
<course>236.2</course>
<desc>Speed 9.8 km/h Distance 8.19 km</desc>
<time>2011-09-24T10:14:43.39</time>
<name>2356</name>
</trkpt>
<trkpt lat="41.792857" lon="-1.754790">
<ele>1002.0</ele>
<speed>9.5</speed>
<course>228.2</course>
<desc>Speed 9.5 km/h Distance 8.19 km</desc>
<time>2011-09-24T10:14:44.39</time>
<name>2357</name>
</trkpt>
<trkpt lat="41.792840" lon="-1.754815">
<ele>1002.5</ele>
<speed>9.7</speed>
<course>229.0</course>
<desc>Speed 9.7 km/h Distance 8.19 km</desc>
<time>2011-09-24T10:14:45.39</time>
<name>2358</name>
</trkpt>
<trkpt lat="41.792822" lon="-1.754843">
<ele>1003.0</ele>
<speed>10.4</speed>
<course>230.0</course>
<desc>Speed 10.4 km/h Distance 8.20 km</desc>
<time>2011-09-24T10:14:46.38</time>
<name>2359</name>
</trkpt>
<trkpt lat="41.792805" lon="-1.754870">
<ele>1003.0</ele>
<speed>10.1</speed>
<course>237.7</course>
<desc>Speed 10.1 km/h Distance 8.20 km</desc>
<time>2011-09-24T10:14:47.38</time>
<name>2360</name>
</trkpt>
<trkpt lat="41.792792" lon="-1.754898">
<ele>1003.0</ele>
<speed>10.2</speed>
<course>234.6</course>
<desc>Speed 10.2 km/h Distance 8.20 km</desc>
<time>2011-09-24T10:14:48.38</time>
<name>2361</name>
</trkpt>
<trkpt lat="41.792777" lon="-1.754927">
<ele>1003.0</ele>
<speed>10.1</speed>
<course>234.6</course>
<desc>Speed 10.1 km/h Distance 8.20 km</desc>
<time>2011-09-24T10:14:49.38</time>
<name>2362</name>
</trkpt>
<trkpt lat="41.792762" lon="-1.754955">
<ele>1003.0</ele>
<speed>10.1</speed>
<course>239.2</course>
<desc>Speed 10.1 km/h Distance 8.21 km</desc>
<time>2011-09-24T10:14:50.38</time>
<name>2363</name>
</trkpt>
<trkpt lat="41.792748" lon="-1.754985">
<ele>1003.5</ele>
<speed>10.0</speed>
<course>234.6</course>
<desc>Speed 10.0 km/h Distance 8.21 km</desc>
<time>2011-09-24T10:14:51.38</time>
<name>2364</name>
</trkpt>
<trkpt lat="41.792733" lon="-1.755013">
<ele>1003.5</ele>
<speed>10.4</speed>
<course>243.7</course>
<desc>Speed 10.4 km/h Distance 8.21 km</desc>
<time>2011-09-24T10:14:52.41</time>
<name>2365</name>
</trkpt>
<trkpt lat="41.792722" lon="-1.755045">
<ele>1003.5</ele>
<speed>10.2</speed>
<course>233.0</course>
<desc>Speed 10.2 km/h Distance 8.22 km</desc>
<time>2011-09-24T10:14:53.38</time>
<name>2366</name>
</trkpt>
<trkpt lat="41.792707" lon="-1.755072">
<ele>1004.0</ele>
<speed>9.9</speed>
<course>242.4</course>
<desc>Speed 9.9 km/h Distance 8.22 km</desc>
<time>2011-09-24T10:14:54.38</time>
<name>2367</name>
</trkpt>
<trkpt lat="41.792695" lon="-1.755102">
<ele>1004.0</ele>
<speed>9.9</speed>
<course>247.0</course>
<desc>Speed 9.9 km/h Distance 8.22 km</desc>
<time>2011-09-24T10:14:55.38</time>
<name>2368</name>
</trkpt>
<trkpt lat="41.792685" lon="-1.755133">
<ele>1004.0</ele>
<speed>10.1</speed>
<course>243.7</course>
<desc>Speed 10.1 km/h Distance 8.22 km</desc>
<time>2011-09-24T10:14:56.38</time>
<name>2369</name>
</trkpt>
<trkpt lat="41.792673" lon="-1.755165">
<ele>1004.5</ele>
<speed>10.2</speed>
<course>243.7</course>
<desc>Speed 10.2 km/h Distance 8.23 km</desc>
<time>2011-09-24T10:14:57.38</time>
<name>2370</name>
</trkpt>
<trkpt lat="41.792662" lon="-1.755197">
<ele>1004.5</ele>
<speed>10.4</speed>
<course>240.6</course>
<desc>Speed 10.4 km/h Distance 8.23 km</desc>
<time>2011-09-24T10:14:58.38</time>
<name>2371</name>
</trkpt>
<trkpt lat="41.792648" lon="-1.755228">
<ele>1004.5</ele>
<speed>10.3</speed>
<course>236.2</course>
<desc>Speed 10.3 km/h Distance 8.23 km</desc>
<time>2011-09-24T10:14:59.37</time>
<name>2372</name>
</trkpt>
<trkpt lat="41.792633" lon="-1.755258">
<ele>1004.5</ele>
<speed>10.6</speed>
<course>244.9</course>
<desc>Speed 10.6 km/h Distance 8.24 km</desc>
<time>2011-09-24T10:15:00.38</time>
<name>2373</name>
</trkpt>
<trkpt lat="41.792622" lon="-1.755292">
<ele>1005.0</ele>
<speed>10.5</speed>
<course>248.1</course>
<desc>Speed 10.5 km/h Distance 8.24 km</desc>
<time>2011-09-24T10:15:01.37</time>
<name>2374</name>
</trkpt>
<trkpt lat="41.792612" lon="-1.755325">
<ele>1005.0</ele>
<speed>10.4</speed>
<course>247.0</course>
<desc>Speed 10.4 km/h Distance 8.24 km</desc>
<time>2011-09-24T10:15:02.37</time>
<name>2375</name>
</trkpt>
<trkpt lat="41.792602" lon="-1.755357">
<ele>1005.5</ele>
<speed>10.2</speed>
<course>247.1</course>
<desc>Speed 10.2 km/h Distance 8.24 km</desc>
<time>2011-09-24T10:15:03.37</time>
<name>2376</name>
</trkpt>
<trkpt lat="41.792592" lon="-1.755388">
<ele>1006.0</ele>
<speed>10.3</speed>
<course>243.7</course>
<desc>Speed 10.3 km/h Distance 8.25 km</desc>
<time>2011-09-24T10:15:04.37</time>
<name>2377</name>
</trkpt>
<trkpt lat="41.792580" lon="-1.755420">
<ele>1006.0</ele>
<speed>10.5</speed>
<course>248.1</course>
<desc>Speed 10.5 km/h Distance 8.25 km</desc>
<time>2011-09-24T10:15:05.37</time>
<name>2378</name>
</trkpt>
<trkpt lat="41.792570" lon="-1.755453">
<ele>1006.5</ele>
<speed>10.2</speed>
<course>240.5</course>
<desc>Speed 10.2 km/h Distance 8.25 km</desc>
<time>2011-09-24T10:15:06.37</time>
<name>2379</name>
</trkpt>
<trkpt lat="41.792557" lon="-1.755485">
<ele>1006.5</ele>
<speed>10.4</speed>
<course>239.2</course>
<desc>Speed 10.4 km/h Distance 8.26 km</desc>
<time>2011-09-24T10:15:07.37</time>
<name>2380</name>
</trkpt>
<trkpt lat="41.792543" lon="-1.755515">
<ele>1006.5</ele>
<speed>10.5</speed>
<course>239.2</course>
<desc>Speed 10.5 km/h Distance 8.26 km</desc>
<time>2011-09-24T10:15:08.37</time>
<name>2381</name>
</trkpt>
<trkpt lat="41.792530" lon="-1.755545">
<ele>1006.5</ele>
<speed>10.5</speed>
<course>243.7</course>
<desc>Speed 10.5 km/h Distance 8.26 km</desc>
<time>2011-09-24T10:15:09.37</time>
<name>2382</name>
</trkpt>
<trkpt lat="41.792518" lon="-1.755577">
<ele>1006.5</ele>
<speed>10.4</speed>
<course>239.2</course>
<desc>Speed 10.4 km/h Distance 8.26 km</desc>
<time>2011-09-24T10:15:10.37</time>
<name>2383</name>
</trkpt>
<trkpt lat="41.792505" lon="-1.755607">
<ele>1006.5</ele>
<speed>10.2</speed>
<course>239.2</course>
<desc>Speed 10.2 km/h Distance 8.27 km</desc>
<time>2011-09-24T10:15:11.36</time>
<name>2384</name>
</trkpt>
<trkpt lat="41.792492" lon="-1.755637">
<ele>1007.0</ele>
<speed>10.2</speed>
<course>236.2</course>
<desc>Speed 10.2 km/h Distance 8.27 km</desc>
<time>2011-09-24T10:15:12.36</time>
<name>2385</name>
</trkpt>
<trkpt lat="41.792477" lon="-1.755667">
<ele>1007.0</ele>
<speed>10.5</speed>
<course>242.4</course>
<desc>Speed 10.5 km/h Distance 8.27 km</desc>
<time>2011-09-24T10:15:13.36</time>
<name>2386</name>
</trkpt>
<trkpt lat="41.792465" lon="-1.755697">
<ele>1007.0</ele>
<speed>10.3</speed>
<course>231.7</course>
<desc>Speed 10.3 km/h Distance 8.28 km</desc>
<time>2011-09-24T10:15:14.37</time>
<name>2387</name>
</trkpt>
<trkpt lat="41.792448" lon="-1.755725">
<ele>1007.0</ele>
<speed>10.6</speed>
<course>236.2</course>
<desc>Speed 10.6 km/h Distance 8.28 km</desc>
<time>2011-09-24T10:15:15.36</time>
<name>2388</name>
</trkpt>
<trkpt lat="41.792433" lon="-1.755755">
<ele>1007.0</ele>
<speed>10.5</speed>
<course>226.6</course>
<desc>Speed 10.5 km/h Distance 8.28 km</desc>
<time>2011-09-24T10:15:16.36</time>
<name>2389</name>
</trkpt>
<trkpt lat="41.792413" lon="-1.755783">
<ele>1007.5</ele>
<speed>11.1</speed>
<course>229.7</course>
<desc>Speed 11.1 km/h Distance 8.29 km</desc>
<time>2011-09-24T10:15:17.36</time>
<name>2390</name>
</trkpt>
<trkpt lat="41.792393" lon="-1.755815">
<ele>1007.5</ele>
<speed>11.7</speed>
<course>228.2</course>
<desc>Speed 11.7 km/h Distance 8.29 km</desc>
<time>2011-09-24T10:15:18.36</time>
<name>2391</name>
</trkpt>
<trkpt lat="41.792373" lon="-1.755845">
<ele>1007.5</ele>
<speed>11.8</speed>
<course>222.6</course>
<desc>Speed 11.8 km/h Distance 8.29 km</desc>
<time>2011-09-24T10:15:19.36</time>
<name>2392</name>
</trkpt>
<trkpt lat="41.792352" lon="-1.755872">
<ele>1007.5</ele>
<speed>11.5</speed>
<course>220.7</course>
<desc>Speed 11.5 km/h Distance 8.30 km</desc>
<time>2011-09-24T10:15:20.36</time>
<name>2393</name>
</trkpt>
<trkpt lat="41.792330" lon="-1.755897">
<ele>1008.0</ele>
<speed>11.6</speed>
<course>220.7</course>
<desc>Speed 11.6 km/h Distance 8.30 km</desc>
<time>2011-09-24T10:15:21.36</time>
<name>2394</name>
</trkpt>
<trkpt lat="41.792308" lon="-1.755922">
<ele>1008.0</ele>
<speed>11.6</speed>
<course>212.6</course>
<desc>Speed 11.6 km/h Distance 8.30 km</desc>
<time>2011-09-24T10:15:22.36</time>
<name>2395</name>
</trkpt>
<trkpt lat="41.792285" lon="-1.755942">
<ele>1008.0</ele>
<speed>11.4</speed>
<course>214.7</course>
<desc>Speed 11.4 km/h Distance 8.31 km</desc>
<time>2011-09-24T10:15:23.35</time>
<name>2396</name>
</trkpt>
<trkpt lat="41.792262" lon="-1.755963">
<ele>1008.0</ele>
<speed>10.9</speed>
<course>210.4</course>
<desc>Speed 10.9 km/h Distance 8.31 km</desc>
<time>2011-09-24T10:15:24.35</time>
<name>2397</name>
</trkpt>
<trkpt lat="41.792238" lon="-1.755982">
<ele>1008.0</ele>
<speed>11.2</speed>
<course>201.8</course>
<desc>Speed 11.2 km/h Distance 8.31 km</desc>
<time>2011-09-24T10:15:25.35</time>
<name>2398</name>
</trkpt>
<trkpt lat="41.792213" lon="-1.755995">
<ele>1008.0</ele>
<speed>11.2</speed>
<course>201.8</course>
<desc>Speed 11.2 km/h Distance 8.31 km</desc>
<time>2011-09-24T10:15:26.35</time>
<name>2399</name>
</trkpt>
<trkpt lat="41.792188" lon="-1.756008">
<ele>1008.5</ele>
<speed>11.5</speed>
<course>199.2</course>
<desc>Speed 11.5 km/h Distance 8.32 km</desc>
<time>2011-09-24T10:15:27.36</time>
<name>2400</name>
</trkpt>
<trkpt lat="41.792163" lon="-1.756020">
<ele>1008.5</ele>
<speed>11.1</speed>
<course>196.6</course>
<desc>Speed 11.1 km/h Distance 8.32 km</desc>
<time>2011-09-24T10:15:28.35</time>
<name>2401</name>
</trkpt>
<trkpt lat="41.792138" lon="-1.756030">
<ele>1008.5</ele>
<speed>11.1</speed>
<course>190.6</course>
<desc>Speed 11.1 km/h Distance 8.32 km</desc>
<time>2011-09-24T10:15:29.35</time>
<name>2402</name>
</trkpt>
<trkpt lat="41.792112" lon="-1.756037">
<ele>1009.0</ele>
<speed>10.8</speed>
<course>187.8</course>
<desc>Speed 10.8 km/h Distance 8.33 km</desc>
<time>2011-09-24T10:15:30.36</time>
<name>2403</name>
</trkpt>
<trkpt lat="41.792085" lon="-1.756042">
<ele>1008.5</ele>
<speed>11.1</speed>
<course>185.0</course>
<desc>Speed 11.1 km/h Distance 8.33 km</desc>
<time>2011-09-24T10:15:31.35</time>
<name>2404</name>
</trkpt>
<trkpt lat="41.792058" lon="-1.756045">
<ele>1008.5</ele>
<speed>11.3</speed>
<course>192.5</course>
<desc>Speed 11.3 km/h Distance 8.33 km</desc>
<time>2011-09-24T10:15:32.35</time>
<name>2405</name>
</trkpt>
<trkpt lat="41.792030" lon="-1.756053">
<ele>1008.5</ele>
<speed>11.5</speed>
<course>178.1</course>
<desc>Speed 11.5 km/h Distance 8.34 km</desc>
<time>2011-09-24T10:15:33.35</time>
<name>2406</name>
</trkpt>
<trkpt lat="41.792000" lon="-1.756053">
<ele>1009.0</ele>
<speed>12.0</speed>
<course>187.1</course>
<desc>Speed 12.0 km/h Distance 8.34 km</desc>
<time>2011-09-24T10:15:34.34</time>
<name>2407</name>
</trkpt>
<trkpt lat="41.791970" lon="-1.756058">
<ele>1009.5</ele>
<speed>12.4</speed>
<course>178.1</course>
<desc>Speed 12.4 km/h Distance 8.34 km</desc>
<time>2011-09-24T10:15:35.34</time>
<name>2408</name>
</trkpt>
<trkpt lat="41.791940" lon="-1.756057">
<ele>1009.5</ele>
<speed>11.9</speed>
<course>178.6</course>
<desc>Speed 11.9 km/h Distance 8.35 km</desc>
<time>2011-09-24T10:15:36.34</time>
<name>2409</name>
</trkpt>
<trkpt lat="41.791912" lon="-1.756055">
<ele>1009.5</ele>
<speed>11.8</speed>
<course>175.3</course>
<desc>Speed 11.8 km/h Distance 8.35 km</desc>
<time>2011-09-24T10:15:37.34</time>
<name>2410</name>
</trkpt>
<trkpt lat="41.791882" lon="-1.756052">
<ele>1009.0</ele>
<speed>11.8</speed>
<course>177.5</course>
<desc>Speed 11.8 km/h Distance 8.35 km</desc>
<time>2011-09-24T10:15:38.34</time>
<name>2411</name>
</trkpt>
<trkpt lat="41.791852" lon="-1.756050">
<ele>1009.0</ele>
<speed>12.2</speed>
<course>178.1</course>
<desc>Speed 12.2 km/h Distance 8.36 km</desc>
<time>2011-09-24T10:15:39.34</time>
<name>2412</name>
</trkpt>
<trkpt lat="41.791818" lon="-1.756048">
<ele>1009.5</ele>
<speed>13.3</speed>
<course>178.1</course>
<desc>Speed 13.3 km/h Distance 8.36 km</desc>
<time>2011-09-24T10:15:40.34</time>
<name>2413</name>
</trkpt>
<trkpt lat="41.791785" lon="-1.756047">
<ele>1010.0</ele>
<speed>13.5</speed>
<course>178.1</course>
<desc>Speed 13.5 km/h Distance 8.36 km</desc>
<time>2011-09-24T10:15:41.35</time>
<name>2414</name>
</trkpt>
<trkpt lat="41.791752" lon="-1.756045">
<ele>1010.0</ele>
<speed>13.7</speed>
<course>172.0</course>
<desc>Speed 13.7 km/h Distance 8.37 km</desc>
<time>2011-09-24T10:15:42.34</time>
<name>2415</name>
</trkpt>
<trkpt lat="41.791717" lon="-1.756038">
<ele>1010.0</ele>
<speed>14.1</speed>
<course>172.0</course>
<desc>Speed 14.1 km/h Distance 8.37 km</desc>
<time>2011-09-24T10:15:43.35</time>
<name>2416</name>
</trkpt>
<trkpt lat="41.791682" lon="-1.756032">
<ele>1010.0</ele>
<speed>14.4</speed>
<course>174.1</course>
<desc>Speed 14.4 km/h Distance 8.37 km</desc>
<time>2011-09-24T10:15:44.34</time>
<name>2417</name>
</trkpt>
<trkpt lat="41.791645" lon="-1.756027">
<ele>1010.5</ele>
<speed>14.8</speed>
<course>176.2</course>
<desc>Speed 14.8 km/h Distance 8.38 km</desc>
<time>2011-09-24T10:15:45.34</time>
<name>2418</name>
</trkpt>
<trkpt lat="41.791610" lon="-1.756023">
<ele>1010.0</ele>
<speed>14.0</speed>
<course>174.1</course>
<desc>Speed 14.0 km/h Distance 8.38 km</desc>
<time>2011-09-24T10:15:46.34</time>
<name>2419</name>
</trkpt>
<trkpt lat="41.791573" lon="-1.756018">
<ele>1010.0</ele>
<speed>14.7</speed>
<course>172.7</course>
<desc>Speed 14.7 km/h Distance 8.39 km</desc>
<time>2011-09-24T10:15:47.34</time>
<name>2420</name>
</trkpt>
<trkpt lat="41.791535" lon="-1.756012">
<ele>1010.0</ele>
<speed>15.4</speed>
<course>176.6</course>
<desc>Speed 15.4 km/h Distance 8.39 km</desc>
<time>2011-09-24T10:15:48.33</time>
<name>2421</name>
</trkpt>
<trkpt lat="41.791497" lon="-1.756008">
<ele>1010.0</ele>
<speed>15.7</speed>
<course>178.1</course>
<desc>Speed 15.7 km/h Distance 8.40 km</desc>
<time>2011-09-24T10:15:49.33</time>
<name>2422</name>
</trkpt>
<trkpt lat="41.791458" lon="-1.756007">
<ele>1010.0</ele>
<speed>15.4</speed>
<course>179.6</course>
<desc>Speed 15.4 km/h Distance 8.40 km</desc>
<time>2011-09-24T10:15:50.33</time>
<name>2423</name>
</trkpt>
<trkpt lat="41.791420" lon="-1.756007">
<ele>1010.5</ele>
<speed>15.2</speed>
<course>176.2</course>
<desc>Speed 15.2 km/h Distance 8.40 km</desc>
<time>2011-09-24T10:15:51.33</time>
<name>2424</name>
</trkpt>
<trkpt lat="41.791385" lon="-1.756003">
<ele>1010.5</ele>
<speed>14.8</speed>
<course>184.1</course>
<desc>Speed 14.8 km/h Distance 8.41 km</desc>
<time>2011-09-24T10:15:52.33</time>
<name>2425</name>
</trkpt>
<trkpt lat="41.791352" lon="-1.756007">
<ele>1010.5</ele>
<speed>13.6</speed>
<course>186.5</course>
<desc>Speed 13.6 km/h Distance 8.41 km</desc>
<time>2011-09-24T10:15:53.33</time>
<name>2426</name>
</trkpt>
<trkpt lat="41.791318" lon="-1.756012">
<ele>1010.5</ele>
<speed>13.4</speed>
<course>186.5</course>
<desc>Speed 13.4 km/h Distance 8.42 km</desc>
<time>2011-09-24T10:15:54.34</time>
<name>2427</name>
</trkpt>
<trkpt lat="41.791285" lon="-1.756017">
<ele>1010.5</ele>
<speed>13.8</speed>
<course>192.6</course>
<desc>Speed 13.8 km/h Distance 8.42 km</desc>
<time>2011-09-24T10:15:55.33</time>
<name>2428</name>
</trkpt>
<trkpt lat="41.791252" lon="-1.756027">
<ele>1010.5</ele>
<speed>14.3</speed>
<course>201.3</course>
<desc>Speed 14.3 km/h Distance 8.42 km</desc>
<time>2011-09-24T10:15:56.33</time>
<name>2429</name>
</trkpt>
<trkpt lat="41.791217" lon="-1.756045">
<ele>1010.5</ele>
<speed>15.1</speed>
<course>206.4</course>
<desc>Speed 15.1 km/h Distance 8.43 km</desc>
<time>2011-09-24T10:15:57.33</time>
<name>2430</name>
</trkpt>
<trkpt lat="41.791182" lon="-1.756068">
<ele>1010.0</ele>
<speed>15.9</speed>
<course>216.7</course>
<desc>Speed 15.9 km/h Distance 8.43 km</desc>
<time>2011-09-24T10:15:58.33</time>
<name>2431</name>
</trkpt>
<trkpt lat="41.791148" lon="-1.756102">
<ele>1010.5</ele>
<speed>16.3</speed>
<course>220.6</course>
<desc>Speed 16.3 km/h Distance 8.44 km</desc>
<time>2011-09-24T10:15:59.34</time>
<name>2432</name>
</trkpt>
<trkpt lat="41.791115" lon="-1.756140">
<ele>1011.0</ele>
<speed>17.2</speed>
<course>233.5</course>
<desc>Speed 17.2 km/h Distance 8.44 km</desc>
<time>2011-09-24T10:16:00.33</time>
<name>2433</name>
</trkpt>
<trkpt lat="41.791088" lon="-1.756188">
<ele>1011.5</ele>
<speed>17.7</speed>
<course>238.6</course>
<desc>Speed 17.7 km/h Distance 8.45 km</desc>
<time>2011-09-24T10:16:01.33</time>
<name>2434</name>
</trkpt>
<trkpt lat="41.791063" lon="-1.756243">
<ele>1012.5</ele>
<speed>18.2</speed>
<course>252.0</course>
<desc>Speed 18.2 km/h Distance 8.45 km</desc>
<time>2011-09-24T10:16:02.33</time>
<name>2435</name>
</trkpt>
<trkpt lat="41.791050" lon="-1.756298">
<ele>1012.5</ele>
<speed>17.1</speed>
<course>257.7</course>
<desc>Speed 17.1 km/h Distance 8.46 km</desc>
<time>2011-09-24T10:16:03.32</time>
<name>2436</name>
</trkpt>
<trkpt lat="41.791040" lon="-1.756360">
<ele>1013.5</ele>
<speed>19.0</speed>
<course>261.3</course>
<desc>Speed 19.0 km/h Distance 8.46 km</desc>
<time>2011-09-24T10:16:04.33</time>
<name>2437</name>
</trkpt>
<trkpt lat="41.791033" lon="-1.756418">
<ele>1014.0</ele>
<speed>17.5</speed>
<course>263.3</course>
<desc>Speed 17.5 km/h Distance 8.47 km</desc>
<time>2011-09-24T10:16:05.36</time>
<name>2438</name>
</trkpt>
<trkpt lat="41.791028" lon="-1.756475">
<ele>1014.5</ele>
<speed>16.8</speed>
<course>267.6</course>
<desc>Speed 16.8 km/h Distance 8.47 km</desc>
<time>2011-09-24T10:16:06.32</time>
<name>2439</name>
</trkpt>
<trkpt lat="41.791027" lon="-1.756528">
<ele>1015.0</ele>
<speed>15.7</speed>
<course>270.0</course>
<desc>Speed 15.7 km/h Distance 8.48 km</desc>
<time>2011-09-24T10:16:07.33</time>
<name>2440</name>
</trkpt>
<trkpt lat="41.791027" lon="-1.756578">
<ele>1015.5</ele>
<speed>15.2</speed>
<course>277.9</course>
<desc>Speed 15.2 km/h Distance 8.48 km</desc>
<time>2011-09-24T10:16:08.33</time>
<name>2441</name>
</trkpt>
<trkpt lat="41.791032" lon="-1.756627">
<ele>1015.0</ele>
<speed>14.2</speed>
<course>272.8</course>
<desc>Speed 14.2 km/h Distance 8.48 km</desc>
<time>2011-09-24T10:16:09.32</time>
<name>2442</name>
</trkpt>
<trkpt lat="41.791033" lon="-1.756672">
<ele>1015.0</ele>
<speed>13.8</speed>
<course>273.0</course>
<desc>Speed 13.8 km/h Distance 8.49 km</desc>
<time>2011-09-24T10:16:10.33</time>
<name>2443</name>
</trkpt>
<trkpt lat="41.791035" lon="-1.756715">
<ele>1014.5</ele>
<speed>13.2</speed>
<course>272.8</course>
<desc>Speed 13.2 km/h Distance 8.49 km</desc>
<time>2011-09-24T10:16:11.32</time>
<name>2444</name>
</trkpt>
<trkpt lat="41.791037" lon="-1.756760">
<ele>1014.0</ele>
<speed>13.3</speed>
<course>272.8</course>
<desc>Speed 13.3 km/h Distance 8.49 km</desc>
<time>2011-09-24T10:16:12.32</time>
<name>2445</name>
</trkpt>
<trkpt lat="41.791038" lon="-1.756805">
<ele>1014.0</ele>
<speed>13.1</speed>
<course>270.0</course>
<desc>Speed 13.1 km/h Distance 8.50 km</desc>
<time>2011-09-24T10:16:13.32</time>
<name>2446</name>
</trkpt>
<trkpt lat="41.791038" lon="-1.756840">
<ele>1012.5</ele>
<speed>10.4</speed>
<course>284.3</course>
<desc>Speed 10.4 km/h Distance 8.50 km</desc>
<time>2011-09-24T10:16:14.33</time>
<name>2447</name>
</trkpt>
<trkpt lat="41.791045" lon="-1.756875">
<ele>1011.0</ele>
<speed>10.9</speed>
<course>266.5</course>
<desc>Speed 10.9 km/h Distance 8.50 km</desc>
<time>2011-09-24T10:16:15.33</time>
<name>2448</name>
</trkpt>
<trkpt lat="41.791043" lon="-1.756912">
<ele>1010.5</ele>
<speed>11.0</speed>
<course>273.0</course>
<desc>Speed 11.0 km/h Distance 8.51 km</desc>
<time>2011-09-24T10:16:16.32</time>
<name>2449</name>
</trkpt>
<trkpt lat="41.791045" lon="-1.756955">
<ele>1010.5</ele>
<speed>12.5</speed>
<course>273.1</course>
<desc>Speed 12.5 km/h Distance 8.51 km</desc>
<time>2011-09-24T10:16:17.32</time>
<name>2450</name>
</trkpt>
<trkpt lat="41.791047" lon="-1.756997">
<ele>1010.0</ele>
<speed>12.4</speed>
<course>261.5</course>
<desc>Speed 12.4 km/h Distance 8.51 km</desc>
<time>2011-09-24T10:16:18.31</time>
<name>2451</name>
</trkpt>
<trkpt lat="41.791042" lon="-1.757042">
<ele>1011.0</ele>
<speed>13.4</speed>
<course>267.0</course>
<desc>Speed 13.4 km/h Distance 8.52 km</desc>
<time>2011-09-24T10:16:19.32</time>
<name>2452</name>
</trkpt>
<trkpt lat="41.791040" lon="-1.757085">
<ele>1011.0</ele>
<speed>12.8</speed>
<course>267.2</course>
<desc>Speed 12.8 km/h Distance 8.52 km</desc>
<time>2011-09-24T10:16:20.31</time>
<name>2453</name>
</trkpt>
<trkpt lat="41.791038" lon="-1.757130">
<ele>1011.0</ele>
<speed>13.0</speed>
<course>284.3</course>
<desc>Speed 13.0 km/h Distance 8.53 km</desc>
<time>2011-09-24T10:16:21.31</time>
<name>2454</name>
</trkpt>
<trkpt lat="41.791045" lon="-1.757165">
<ele>1010.0</ele>
<speed>11.2</speed>
<course>270.0</course>
<desc>Speed 11.2 km/h Distance 8.53 km</desc>
<time>2011-09-24T10:16:22.31</time>
<name>2455</name>
</trkpt>
<trkpt lat="41.791045" lon="-1.757207">
<ele>1010.0</ele>
<speed>12.1</speed>
<course>286.3</course>
<desc>Speed 12.1 km/h Distance 8.53 km</desc>
<time>2011-09-24T10:16:23.31</time>
<name>2456</name>
</trkpt>
<trkpt lat="41.791053" lon="-1.757245">
<ele>1009.0</ele>
<speed>11.8</speed>
<course>290.1</course>
<desc>Speed 11.8 km/h Distance 8.53 km</desc>
<time>2011-09-24T10:16:24.31</time>
<name>2457</name>
</trkpt>
<trkpt lat="41.791063" lon="-1.757282">
<ele>1007.5</ele>
<speed>11.3</speed>
<course>270.0</course>
<desc>Speed 11.3 km/h Distance 8.54 km</desc>
<time>2011-09-24T10:16:25.31</time>
<name>2458</name>
</trkpt>
<trkpt lat="41.791063" lon="-1.757323">
<ele>1007.5</ele>
<speed>12.1</speed>
<course>273.3</course>
<desc>Speed 12.1 km/h Distance 8.54 km</desc>
<time>2011-09-24T10:16:26.31</time>
<name>2459</name>
</trkpt>
<trkpt lat="41.791065" lon="-1.757362">
<ele>1007.0</ele>
<speed>11.4</speed>
<course>270.0</course>
<desc>Speed 11.4 km/h Distance 8.54 km</desc>
<time>2011-09-24T10:16:27.31</time>
<name>2460</name>
</trkpt>
<trkpt lat="41.791065" lon="-1.757400">
<ele>1006.5</ele>
<speed>11.0</speed>
<course>263.6</course>
<desc>Speed 11.0 km/h Distance 8.55 km</desc>
<time>2011-09-24T10:16:28.31</time>
<name>2461</name>
</trkpt>
<trkpt lat="41.791062" lon="-1.757440">
<ele>1007.0</ele>
<speed>11.6</speed>
<course>266.8</course>
<desc>Speed 11.6 km/h Distance 8.55 km</desc>
<time>2011-09-24T10:16:29.31</time>
<name>2462</name>
</trkpt>
<trkpt lat="41.791060" lon="-1.757480">
<ele>1007.5</ele>
<speed>11.6</speed>
<course>266.8</course>
<desc>Speed 11.6 km/h Distance 8.55 km</desc>
<time>2011-09-24T10:16:30.30</time>
<name>2463</name>
</trkpt>
<trkpt lat="41.791058" lon="-1.757520">
<ele>1007.5</ele>
<speed>11.5</speed>
<course>263.0</course>
<desc>Speed 11.5 km/h Distance 8.56 km</desc>
<time>2011-09-24T10:16:31.31</time>
<name>2464</name>
</trkpt>
<trkpt lat="41.791055" lon="-1.757557">
<ele>1007.5</ele>
<speed>11.0</speed>
<course>266.3</course>
<desc>Speed 11.0 km/h Distance 8.56 km</desc>
<time>2011-09-24T10:16:32.30</time>
<name>2465</name>
</trkpt>
<trkpt lat="41.791053" lon="-1.757592">
<ele>1007.5</ele>
<speed>9.8</speed>
<course>270.0</course>
<desc>Speed 9.8 km/h Distance 8.56 km</desc>
<time>2011-09-24T10:16:33.30</time>
<name>2466</name>
</trkpt>
<trkpt lat="41.791053" lon="-1.757630">
<ele>1007.5</ele>
<speed>11.1</speed>
<course>270.0</course>
<desc>Speed 11.1 km/h Distance 8.57 km</desc>
<time>2011-09-24T10:16:34.30</time>
<name>2467</name>
</trkpt>
<trkpt lat="41.791053" lon="-1.757668">
<ele>1008.0</ele>
<speed>11.1</speed>
<course>270.0</course>
<desc>Speed 11.1 km/h Distance 8.57 km</desc>
<time>2011-09-24T10:16:35.30</time>
<name>2468</name>
</trkpt>
<trkpt lat="41.791053" lon="-1.757708">
<ele>1008.5</ele>
<speed>11.2</speed>
<course>266.7</course>
<desc>Speed 11.2 km/h Distance 8.57 km</desc>
<time>2011-09-24T10:16:36.30</time>
<name>2469</name>
</trkpt>
<trkpt lat="41.791052" lon="-1.757747">
<ele>1009.0</ele>
<speed>10.9</speed>
<course>270.0</course>
<desc>Speed 10.9 km/h Distance 8.58 km</desc>
<time>2011-09-24T10:16:37.30</time>
<name>2470</name>
</trkpt>
<trkpt lat="41.791052" lon="-1.757783">
<ele>1009.0</ele>
<speed>10.9</speed>
<course>273.5</course>
<desc>Speed 10.9 km/h Distance 8.58 km</desc>
<time>2011-09-24T10:16:38.31</time>
<name>2471</name>
</trkpt>
<trkpt lat="41.791053" lon="-1.757820">
<ele>1009.5</ele>
<speed>10.8</speed>
<course>270.0</course>
<desc>Speed 10.8 km/h Distance 8.58 km</desc>
<time>2011-09-24T10:16:39.30</time>
<name>2472</name>
</trkpt>
<trkpt lat="41.791053" lon="-1.757857">
<ele>1009.5</ele>
<speed>10.5</speed>
<course>266.5</course>
<desc>Speed 10.5 km/h Distance 8.59 km</desc>
<time>2011-09-24T10:16:40.30</time>
<name>2473</name>
</trkpt>
<trkpt lat="41.791052" lon="-1.757893">
<ele>1010.0</ele>
<speed>10.7</speed>
<course>266.8</course>
<desc>Speed 10.7 km/h Distance 8.59 km</desc>
<time>2011-09-24T10:16:41.29</time>
<name>2474</name>
</trkpt>
<trkpt lat="41.791050" lon="-1.757933">
<ele>1010.5</ele>
<speed>10.8</speed>
<course>266.0</course>
<desc>Speed 10.8 km/h Distance 8.59 km</desc>
<time>2011-09-24T10:16:42.29</time>
<name>2475</name>
</trkpt>
<trkpt lat="41.791048" lon="-1.757965">
<ele>1010.0</ele>
<speed>9.4</speed>
<course>273.5</course>
<desc>Speed 9.4 km/h Distance 8.60 km</desc>
<time>2011-09-24T10:16:43.30</time>
<name>2476</name>
</trkpt>
<trkpt lat="41.791050" lon="-1.758002">
<ele>1010.0</ele>
<speed>10.6</speed>
<course>270.0</course>
<desc>Speed 10.6 km/h Distance 8.60 km</desc>
<time>2011-09-24T10:16:44.29</time>
<name>2477</name>
</trkpt>
<trkpt lat="41.791050" lon="-1.758040">
<ele>1010.5</ele>
<speed>10.8</speed>
<course>270.0</course>
<desc>Speed 10.8 km/h Distance 8.60 km</desc>
<time>2011-09-24T10:16:45.30</time>
<name>2478</name>
</trkpt>
<trkpt lat="41.791050" lon="-1.758075">
<ele>1011.0</ele>
<speed>10.2</speed>
<course>270.0</course>
<desc>Speed 10.2 km/h Distance 8.60 km</desc>
<time>2011-09-24T10:16:46.29</time>
<name>2479</name>
</trkpt>
<trkpt lat="41.791050" lon="-1.758112">
<ele>1011.0</ele>
<speed>10.2</speed>
<course>270.0</course>
<desc>Speed 10.2 km/h Distance 8.61 km</desc>
<time>2011-09-24T10:16:47.29</time>
<name>2480</name>
</trkpt>
<trkpt lat="41.791050" lon="-1.758145">
<ele>1011.0</ele>
<speed>9.8</speed>
<course>262.4</course>
<desc>Speed 9.8 km/h Distance 8.61 km</desc>
<time>2011-09-24T10:16:48.29</time>
<name>2481</name>
</trkpt>
<trkpt lat="41.791047" lon="-1.758178">
<ele>1011.0</ele>
<speed>9.7</speed>
<course>262.7</course>
<desc>Speed 9.7 km/h Distance 8.61 km</desc>
<time>2011-09-24T10:16:49.29</time>
<name>2482</name>
</trkpt>
<trkpt lat="41.791043" lon="-1.758213">
<ele>1011.5</ele>
<speed>10.1</speed>
<course>270.0</course>
<desc>Speed 10.1 km/h Distance 8.62 km</desc>
<time>2011-09-24T10:16:50.29</time>
<name>2483</name>
</trkpt>
<trkpt lat="41.791043" lon="-1.758248">
<ele>1011.5</ele>
<speed>10.3</speed>
<course>258.6</course>
<desc>Speed 10.3 km/h Distance 8.62 km</desc>
<time>2011-09-24T10:16:51.29</time>
<name>2484</name>
</trkpt>
<trkpt lat="41.791038" lon="-1.758282">
<ele>1012.0</ele>
<speed>10.2</speed>
<course>255.7</course>
<desc>Speed 10.2 km/h Distance 8.62 km</desc>
<time>2011-09-24T10:16:52.29</time>
<name>2485</name>
</trkpt>
<trkpt lat="41.791032" lon="-1.758317">
<ele>1012.5</ele>
<speed>10.4</speed>
<course>258.6</course>
<desc>Speed 10.4 km/h Distance 8.62 km</desc>
<time>2011-09-24T10:16:53.29</time>
<name>2486</name>
</trkpt>
<trkpt lat="41.791027" lon="-1.758350">
<ele>1013.0</ele>
<speed>10.2</speed>
<course>262.4</course>
<desc>Speed 10.2 km/h Distance 8.63 km</desc>
<time>2011-09-24T10:16:54.28</time>
<name>2487</name>
</trkpt>
<trkpt lat="41.791023" lon="-1.758383">
<ele>1013.5</ele>
<speed>9.7</speed>
<course>266.0</course>
<desc>Speed 9.7 km/h Distance 8.63 km</desc>
<time>2011-09-24T10:16:55.28</time>
<name>2488</name>
</trkpt>
<trkpt lat="41.791022" lon="-1.758415">
<ele>1013.0</ele>
<speed>9.0</speed>
<course>262.0</course>
<desc>Speed 9.0 km/h Distance 8.63 km</desc>
<time>2011-09-24T10:16:56.28</time>
<name>2489</name>
</trkpt>
<trkpt lat="41.791018" lon="-1.758447">
<ele>1013.5</ele>
<speed>9.3</speed>
<course>257.4</course>
<desc>Speed 9.3 km/h Distance 8.64 km</desc>
<time>2011-09-24T10:16:57.28</time>
<name>2490</name>
</trkpt>
<trkpt lat="41.791013" lon="-1.758477">
<ele>1013.5</ele>
<speed>9.5</speed>
<course>258.0</course>
<desc>Speed 9.5 km/h Distance 8.64 km</desc>
<time>2011-09-24T10:16:58.28</time>
<name>2491</name>
</trkpt>
<trkpt lat="41.791008" lon="-1.758508">
<ele>1013.5</ele>
<speed>9.7</speed>
<course>254.2</course>
<desc>Speed 9.7 km/h Distance 8.64 km</desc>
<time>2011-09-24T10:16:59.28</time>
<name>2492</name>
</trkpt>
<trkpt lat="41.791002" lon="-1.758540">
<ele>1014.0</ele>
<speed>9.7</speed>
<course>250.6</course>
<desc>Speed 9.7 km/h Distance 8.64 km</desc>
<time>2011-09-24T10:17:00.28</time>
<name>2493</name>
</trkpt>
<trkpt lat="41.790993" lon="-1.758572">
<ele>1014.5</ele>
<speed>10.5</speed>
<course>250.6</course>
<desc>Speed 10.5 km/h Distance 8.65 km</desc>
<time>2011-09-24T10:17:01.28</time>
<name>2494</name>
</trkpt>
<trkpt lat="41.790985" lon="-1.758603">
<ele>1014.0</ele>
<speed>10.3</speed>
<course>232.2</course>
<desc>Speed 10.3 km/h Distance 8.65 km</desc>
<time>2011-09-24T10:17:02.28</time>
<name>2495</name>
</trkpt>
<trkpt lat="41.790967" lon="-1.758635">
<ele>1015.0</ele>
<speed>11.8</speed>
<course>244.8</course>
<desc>Speed 11.8 km/h Distance 8.65 km</desc>
<time>2011-09-24T10:17:03.29</time>
<name>2496</name>
</trkpt>
<trkpt lat="41.790955" lon="-1.758668">
<ele>1015.5</ele>
<speed>10.7</speed>
<course>237.7</course>
<desc>Speed 10.7 km/h Distance 8.66 km</desc>
<time>2011-09-24T10:17:04.29</time>
<name>2497</name>
</trkpt>
<trkpt lat="41.790942" lon="-1.758697">
<ele>1015.5</ele>
<speed>9.9</speed>
<course>236.2</course>
<desc>Speed 9.9 km/h Distance 8.66 km</desc>
<time>2011-09-24T10:17:05.28</time>
<name>2498</name>
</trkpt>
<trkpt lat="41.790927" lon="-1.758727">
<ele>1016.0</ele>
<speed>10.0</speed>
<course>270.0</course>
<desc>Speed 10.0 km/h Distance 8.66 km</desc>
<time>2011-09-24T10:17:06.27</time>
<name>2499</name>
</trkpt>
<trkpt lat="41.790927" lon="-1.758755">
<ele>1017.0</ele>
<speed>8.2</speed>
<course>253.4</course>
<desc>Speed 8.2 km/h Distance 8.66 km</desc>
<time>2011-09-24T10:17:07.27</time>
<name>2500</name>
</trkpt>
<trkpt lat="41.790920" lon="-1.758785">
<ele>1018.0</ele>
<speed>8.7</speed>
<course>239.6</course>
<desc>Speed 8.7 km/h Distance 8.67 km</desc>
<time>2011-09-24T10:17:08.27</time>
<name>2501</name>
</trkpt>
<trkpt lat="41.790908" lon="-1.758812">
<ele>1018.5</ele>
<speed>9.3</speed>
<course>231.7</course>
<desc>Speed 9.3 km/h Distance 8.67 km</desc>
<time>2011-09-24T10:17:09.27</time>
<name>2502</name>
</trkpt>
<trkpt lat="41.790892" lon="-1.758840">
<ele>1019.0</ele>
<speed>10.0</speed>
<course>228.2</course>
<desc>Speed 10.0 km/h Distance 8.67 km</desc>
<time>2011-09-24T10:17:10.28</time>
<name>2503</name>
</trkpt>
<trkpt lat="41.790875" lon="-1.758865">
<ele>1019.5</ele>
<speed>9.8</speed>
<course>224.3</course>
<desc>Speed 9.8 km/h Distance 8.67 km</desc>
<time>2011-09-24T10:17:11.27</time>
<name>2504</name>
</trkpt>
<trkpt lat="41.790853" lon="-1.758893">
<ele>1020.0</ele>
<speed>11.2</speed>
<course>234.6</course>
<desc>Speed 11.2 km/h Distance 8.68 km</desc>
<time>2011-09-24T10:17:12.27</time>
<name>2505</name>
</trkpt>
<trkpt lat="41.790838" lon="-1.758922">
<ele>1020.5</ele>
<speed>9.9</speed>
<course>230.0</course>
<desc>Speed 9.9 km/h Distance 8.68 km</desc>
<time>2011-09-24T10:17:13.28</time>
<name>2506</name>
</trkpt>
<trkpt lat="41.790822" lon="-1.758948">
<ele>1020.5</ele>
<speed>9.7</speed>
<course>236.1</course>
<desc>Speed 9.7 km/h Distance 8.68 km</desc>
<time>2011-09-24T10:17:14.27</time>
<name>2507</name>
</trkpt>
<trkpt lat="41.790808" lon="-1.758975">
<ele>1020.5</ele>
<speed>9.2</speed>
<course>237.7</course>
<desc>Speed 9.2 km/h Distance 8.69 km</desc>
<time>2011-09-24T10:17:15.27</time>
<name>2508</name>
</trkpt>
<trkpt lat="41.790795" lon="-1.759003">
<ele>1021.0</ele>
<speed>9.9</speed>
<course>239.2</course>
<desc>Speed 9.9 km/h Distance 8.69 km</desc>
<time>2011-09-24T10:17:16.27</time>
<name>2509</name>
</trkpt>
<trkpt lat="41.790782" lon="-1.759033">
<ele>1021.0</ele>
<speed>9.8</speed>
<course>239.2</course>
<desc>Speed 9.8 km/h Distance 8.69 km</desc>
<time>2011-09-24T10:17:17.27</time>
<name>2510</name>
</trkpt>
<trkpt lat="41.790768" lon="-1.759063">
<ele>1021.0</ele>
<speed>9.9</speed>
<course>242.5</course>
<desc>Speed 9.9 km/h Distance 8.69 km</desc>
<time>2011-09-24T10:17:18.27</time>
<name>2511</name>
</trkpt>
<trkpt lat="41.790757" lon="-1.759093">
<ele>1021.0</ele>
<speed>9.6</speed>
<course>239.2</course>
<desc>Speed 9.6 km/h Distance 8.70 km</desc>
<time>2011-09-24T10:17:19.27</time>
<name>2512</name>
</trkpt>
<trkpt lat="41.790743" lon="-1.759123">
<ele>1021.5</ele>
<speed>10.0</speed>
<course>242.5</course>
<desc>Speed 10.0 km/h Distance 8.70 km</desc>
<time>2011-09-24T10:17:20.26</time>
<name>2513</name>
</trkpt>
<trkpt lat="41.790732" lon="-1.759153">
<ele>1021.5</ele>
<speed>9.6</speed>
<course>243.7</course>
<desc>Speed 9.6 km/h Distance 8.70 km</desc>
<time>2011-09-24T10:17:21.30</time>
<name>2514</name>
</trkpt>
<trkpt lat="41.790720" lon="-1.759185">
<ele>1021.5</ele>
<speed>10.1</speed>
<course>247.0</course>
<desc>Speed 10.1 km/h Distance 8.71 km</desc>
<time>2011-09-24T10:17:22.26</time>
<name>2515</name>
</trkpt>
<trkpt lat="41.790710" lon="-1.759217">
<ele>1021.5</ele>
<speed>10.0</speed>
<course>244.9</course>
<desc>Speed 10.0 km/h Distance 8.71 km</desc>
<time>2011-09-24T10:17:23.26</time>
<name>2516</name>
</trkpt>
<trkpt lat="41.790698" lon="-1.759250">
<ele>1022.0</ele>
<speed>10.1</speed>
<course>247.1</course>
<desc>Speed 10.1 km/h Distance 8.71 km</desc>
<time>2011-09-24T10:17:24.26</time>
<name>2517</name>
</trkpt>
<trkpt lat="41.790688" lon="-1.759282">
<ele>1022.0</ele>
<speed>9.9</speed>
<course>248.1</course>
<desc>Speed 9.9 km/h Distance 8.71 km</desc>
<time>2011-09-24T10:17:25.26</time>
<name>2518</name>
</trkpt>
<trkpt lat="41.790678" lon="-1.759315">
<ele>1022.5</ele>
<speed>10.3</speed>
<course>251.5</course>
<desc>Speed 10.3 km/h Distance 8.72 km</desc>
<time>2011-09-24T10:17:26.26</time>
<name>2519</name>
</trkpt>
<trkpt lat="41.790670" lon="-1.759348">
<ele>1023.0</ele>
<speed>10.1</speed>
<course>259.6</course>
<desc>Speed 10.1 km/h Distance 8.72 km</desc>
<time>2011-09-24T10:17:27.26</time>
<name>2520</name>
</trkpt>
<trkpt lat="41.790665" lon="-1.759385">
<ele>1023.5</ele>
<speed>10.4</speed>
<course>248.1</course>
<desc>Speed 10.4 km/h Distance 8.72 km</desc>
<time>2011-09-24T10:17:28.26</time>
<name>2521</name>
</trkpt>
<trkpt lat="41.790655" lon="-1.759418">
<ele>1024.0</ele>
<speed>10.3</speed>
<course>256.3</course>
<desc>Speed 10.3 km/h Distance 8.73 km</desc>
<time>2011-09-24T10:17:29.26</time>
<name>2522</name>
</trkpt>
<trkpt lat="41.790648" lon="-1.759455">
<ele>1024.5</ele>
<speed>10.6</speed>
<course>263.0</course>
<desc>Speed 10.6 km/h Distance 8.73 km</desc>
<time>2011-09-24T10:17:30.26</time>
<name>2523</name>
</trkpt>
<trkpt lat="41.790645" lon="-1.759492">
<ele>1025.0</ele>
<speed>10.6</speed>
<course>263.0</course>
<desc>Speed 10.6 km/h Distance 8.73 km</desc>
<time>2011-09-24T10:17:31.25</time>
<name>2524</name>
</trkpt>
<trkpt lat="41.790642" lon="-1.759528">
<ele>1025.0</ele>
<speed>10.7</speed>
<course>259.6</course>
<desc>Speed 10.7 km/h Distance 8.74 km</desc>
<time>2011-09-24T10:17:32.26</time>
<name>2525</name>
</trkpt>
<trkpt lat="41.790637" lon="-1.759565">
<ele>1025.5</ele>
<speed>10.8</speed>
<course>259.2</course>
<desc>Speed 10.8 km/h Distance 8.74 km</desc>
<time>2011-09-24T10:17:33.25</time>
<name>2526</name>
</trkpt>
<trkpt lat="41.790632" lon="-1.759600">
<ele>1026.0</ele>
<speed>10.8</speed>
<course>263.0</course>
<desc>Speed 10.8 km/h Distance 8.74 km</desc>
<time>2011-09-24T10:17:34.26</time>
<name>2527</name>
</trkpt>
<trkpt lat="41.790628" lon="-1.759637">
<ele>1026.0</ele>
<speed>10.6</speed>
<course>262.7</course>
<desc>Speed 10.6 km/h Distance 8.75 km</desc>
<time>2011-09-24T10:17:35.25</time>
<name>2528</name>
</trkpt>
<trkpt lat="41.790625" lon="-1.759672">
<ele>1026.5</ele>
<speed>10.5</speed>
<course>259.2</course>
<desc>Speed 10.5 km/h Distance 8.75 km</desc>
<time>2011-09-24T10:17:36.25</time>
<name>2529</name>
</trkpt>
<trkpt lat="41.790620" lon="-1.759707">
<ele>1026.5</ele>
<speed>10.5</speed>
<course>259.6</course>
<desc>Speed 10.5 km/h Distance 8.75 km</desc>
<time>2011-09-24T10:17:37.25</time>
<name>2530</name>
</trkpt>
<trkpt lat="41.790615" lon="-1.759743">
<ele>1026.5</ele>
<speed>10.6</speed>
<course>256.3</course>
<desc>Speed 10.6 km/h Distance 8.75 km</desc>
<time>2011-09-24T10:17:38.25</time>
<name>2531</name>
</trkpt>
<trkpt lat="41.790608" lon="-1.759780">
<ele>1027.0</ele>
<speed>10.6</speed>
<course>263.3</course>
<desc>Speed 10.6 km/h Distance 8.76 km</desc>
<time>2011-09-24T10:17:39.25</time>
<name>2532</name>
</trkpt>
<trkpt lat="41.790605" lon="-1.759818">
<ele>1027.5</ele>
<speed>10.9</speed>
<course>263.3</course>
<desc>Speed 10.9 km/h Distance 8.76 km</desc>
<time>2011-09-24T10:17:40.25</time>
<name>2533</name>
</trkpt>
<trkpt lat="41.790602" lon="-1.759857">
<ele>1028.0</ele>
<speed>11.1</speed>
<course>266.7</course>
<desc>Speed 11.1 km/h Distance 8.76 km</desc>
<time>2011-09-24T10:17:41.25</time>
<name>2534</name>
</trkpt>
<trkpt lat="41.790600" lon="-1.759895">
<ele>1028.0</ele>
<speed>11.0</speed>
<course>266.8</course>
<desc>Speed 11.0 km/h Distance 8.77 km</desc>
<time>2011-09-24T10:17:42.25</time>
<name>2535</name>
</trkpt>
<trkpt lat="41.790598" lon="-1.759935">
<ele>1028.5</ele>
<speed>11.1</speed>
<course>266.7</course>
<desc>Speed 11.1 km/h Distance 8.77 km</desc>
<time>2011-09-24T10:17:43.25</time>
<name>2536</name>
</trkpt>
<trkpt lat="41.790597" lon="-1.759973">
<ele>1028.5</ele>
<speed>11.2</speed>
<course>270.0</course>
<desc>Speed 11.2 km/h Distance 8.77 km</desc>
<time>2011-09-24T10:17:44.25</time>
<name>2537</name>
</trkpt>
<trkpt lat="41.790597" lon="-1.760010">
<ele>1028.5</ele>
<speed>10.9</speed>
<course>270.0</course>
<desc>Speed 10.9 km/h Distance 8.78 km</desc>
<time>2011-09-24T10:17:45.24</time>
<name>2538</name>
</trkpt>
<trkpt lat="41.790597" lon="-1.760048">
<ele>1029.0</ele>
<speed>10.8</speed>
<course>277.0</course>
<desc>Speed 10.8 km/h Distance 8.78 km</desc>
<time>2011-09-24T10:17:46.24</time>
<name>2539</name>
</trkpt>
<trkpt lat="41.790600" lon="-1.760085">
<ele>1029.0</ele>
<speed>10.7</speed>
<course>270.0</course>
<desc>Speed 10.7 km/h Distance 8.78 km</desc>
<time>2011-09-24T10:17:47.24</time>
<name>2540</name>
</trkpt>
<trkpt lat="41.790600" lon="-1.760120">
<ele>1029.0</ele>
<speed>10.5</speed>
<course>276.7</course>
<desc>Speed 10.5 km/h Distance 8.79 km</desc>
<time>2011-09-24T10:17:48.25</time>
<name>2541</name>
</trkpt>
<trkpt lat="41.790603" lon="-1.760158">
<ele>1029.0</ele>
<speed>10.7</speed>
<course>277.0</course>
<desc>Speed 10.7 km/h Distance 8.79 km</desc>
<time>2011-09-24T10:17:49.24</time>
<name>2542</name>
</trkpt>
<trkpt lat="41.790607" lon="-1.760195">
<ele>1029.0</ele>
<speed>10.8</speed>
<course>277.0</course>
<desc>Speed 10.8 km/h Distance 8.79 km</desc>
<time>2011-09-24T10:17:50.24</time>
<name>2543</name>
</trkpt>
<trkpt lat="41.790610" lon="-1.760232">
<ele>1029.0</ele>
<speed>10.8</speed>
<course>277.0</course>
<desc>Speed 10.8 km/h Distance 8.80 km</desc>
<time>2011-09-24T10:17:51.24</time>
<name>2544</name>
</trkpt>
<trkpt lat="41.790613" lon="-1.760268">
<ele>1029.0</ele>
<speed>11.1</speed>
<course>283.7</course>
<desc>Speed 11.1 km/h Distance 8.80 km</desc>
<time>2011-09-24T10:17:52.24</time>
<name>2545</name>
</trkpt>
<trkpt lat="41.790620" lon="-1.760305">
<ele>1029.0</ele>
<speed>11.3</speed>
<course>286.9</course>
<desc>Speed 11.3 km/h Distance 8.80 km</desc>
<time>2011-09-24T10:17:53.24</time>
<name>2546</name>
</trkpt>
<trkpt lat="41.790628" lon="-1.760342">
<ele>1029.0</ele>
<speed>11.1</speed>
<course>284.3</course>
<desc>Speed 11.1 km/h Distance 8.80 km</desc>
<time>2011-09-24T10:17:54.24</time>
<name>2547</name>
</trkpt>
<trkpt lat="41.790635" lon="-1.760377">
<ele>1029.5</ele>
<speed>10.8</speed>
<course>287.7</course>
<desc>Speed 10.8 km/h Distance 8.81 km</desc>
<time>2011-09-24T10:17:55.24</time>
<name>2548</name>
</trkpt>
<trkpt lat="41.790643" lon="-1.760412">
<ele>1029.5</ele>
<speed>10.7</speed>
<course>291.9</course>
<desc>Speed 10.7 km/h Distance 8.81 km</desc>
<time>2011-09-24T10:17:56.24</time>
<name>2549</name>
</trkpt>
<trkpt lat="41.790653" lon="-1.760445">
<ele>1029.5</ele>
<speed>10.7</speed>
<course>291.9</course>
<desc>Speed 10.7 km/h Distance 8.81 km</desc>
<time>2011-09-24T10:17:57.23</time>
<name>2550</name>
</trkpt>
<trkpt lat="41.790663" lon="-1.760478">
<ele>1029.5</ele>
<speed>10.5</speed>
<course>284.3</course>
<desc>Speed 10.5 km/h Distance 8.82 km</desc>
<time>2011-09-24T10:17:58.23</time>
<name>2551</name>
</trkpt>
<trkpt lat="41.790670" lon="-1.760513">
<ele>1029.5</ele>
<speed>10.5</speed>
<course>288.5</course>
<desc>Speed 10.5 km/h Distance 8.82 km</desc>
<time>2011-09-24T10:17:59.23</time>
<name>2552</name>
</trkpt>
<trkpt lat="41.790678" lon="-1.760547">
<ele>1029.5</ele>
<speed>10.7</speed>
<course>291.0</course>
<desc>Speed 10.7 km/h Distance 8.82 km</desc>
<time>2011-09-24T10:18:00.23</time>
<name>2553</name>
</trkpt>
<trkpt lat="41.790688" lon="-1.760582">
<ele>1029.5</ele>
<speed>11.0</speed>
<course>287.7</course>
<desc>Speed 11.0 km/h Distance 8.83 km</desc>
<time>2011-09-24T10:18:01.23</time>
<name>2554</name>
</trkpt>
<trkpt lat="41.790697" lon="-1.760617">
<ele>1029.5</ele>
<speed>10.8</speed>
<course>284.3</course>
<desc>Speed 10.8 km/h Distance 8.83 km</desc>
<time>2011-09-24T10:18:02.23</time>
<name>2555</name>
</trkpt>
<trkpt lat="41.790703" lon="-1.760652">
<ele>1030.0</ele>
<speed>10.6</speed>
<course>288.5</course>
<desc>Speed 10.6 km/h Distance 8.83 km</desc>
<time>2011-09-24T10:18:03.23</time>
<name>2556</name>
</trkpt>
<trkpt lat="41.790712" lon="-1.760685">
<ele>1030.0</ele>
<speed>10.5</speed>
<course>287.7</course>
<desc>Speed 10.5 km/h Distance 8.83 km</desc>
<time>2011-09-24T10:18:04.23</time>
<name>2557</name>
</trkpt>
<trkpt lat="41.790720" lon="-1.760720">
<ele>1030.5</ele>
<speed>10.6</speed>
<course>288.5</course>
<desc>Speed 10.6 km/h Distance 8.84 km</desc>
<time>2011-09-24T10:18:05.23</time>
<name>2558</name>
</trkpt>
<trkpt lat="41.790728" lon="-1.760753">
<ele>1030.5</ele>
<speed>10.5</speed>
<course>288.5</course>
<desc>Speed 10.5 km/h Distance 8.84 km</desc>
<time>2011-09-24T10:18:06.23</time>
<name>2559</name>
</trkpt>
<trkpt lat="41.790737" lon="-1.760787">
<ele>1031.0</ele>
<speed>10.6</speed>
<course>291.9</course>
<desc>Speed 10.6 km/h Distance 8.84 km</desc>
<time>2011-09-24T10:18:07.23</time>
<name>2560</name>
</trkpt>
<trkpt lat="41.790747" lon="-1.760820">
<ele>1031.0</ele>
<speed>10.5</speed>
<course>288.5</course>
<desc>Speed 10.5 km/h Distance 8.85 km</desc>
<time>2011-09-24T10:18:08.23</time>
<name>2561</name>
</trkpt>
<trkpt lat="41.790755" lon="-1.760853">
<ele>1031.0</ele>
<speed>10.4</speed>
<course>291.0</course>
<desc>Speed 10.4 km/h Distance 8.85 km</desc>
<time>2011-09-24T10:18:09.22</time>
<name>2562</name>
</trkpt>
<trkpt lat="41.790765" lon="-1.760888">
<ele>1031.5</ele>
<speed>10.7</speed>
<course>288.5</course>
<desc>Speed 10.7 km/h Distance 8.85 km</desc>
<time>2011-09-24T10:18:10.23</time>
<name>2563</name>
</trkpt>
<trkpt lat="41.790773" lon="-1.760922">
<ele>1031.5</ele>
<speed>10.7</speed>
<course>288.5</course>
<desc>Speed 10.7 km/h Distance 8.86 km</desc>
<time>2011-09-24T10:18:11.22</time>
<name>2564</name>
</trkpt>
<trkpt lat="41.790782" lon="-1.760955">
<ele>1031.5</ele>
<speed>10.6</speed>
<course>291.0</course>
<desc>Speed 10.6 km/h Distance 8.86 km</desc>
<time>2011-09-24T10:18:12.22</time>
<name>2565</name>
</trkpt>
<trkpt lat="41.790792" lon="-1.760990">
<ele>1032.0</ele>
<speed>10.8</speed>
<course>291.0</course>
<desc>Speed 10.8 km/h Distance 8.86 km</desc>
<time>2011-09-24T10:18:13.22</time>
<name>2566</name>
</trkpt>
<trkpt lat="41.790802" lon="-1.761025">
<ele>1032.0</ele>
<speed>10.7</speed>
<course>288.5</course>
<desc>Speed 10.7 km/h Distance 8.86 km</desc>
<time>2011-09-24T10:18:14.23</time>
<name>2567</name>
</trkpt>
<trkpt lat="41.790810" lon="-1.761058">
<ele>1032.0</ele>
<speed>10.7</speed>
<course>295.1</course>
<desc>Speed 10.7 km/h Distance 8.87 km</desc>
<time>2011-09-24T10:18:15.22</time>
<name>2568</name>
</trkpt>
<trkpt lat="41.790822" lon="-1.761092">
<ele>1032.0</ele>
<speed>10.7</speed>
<course>293.0</course>
<desc>Speed 10.7 km/h Distance 8.87 km</desc>
<time>2011-09-24T10:18:16.22</time>
<name>2569</name>
</trkpt>
<trkpt lat="41.790832" lon="-1.761123">
<ele>1032.5</ele>
<speed>10.3</speed>
<course>288.5</course>
<desc>Speed 10.3 km/h Distance 8.87 km</desc>
<time>2011-09-24T10:18:17.22</time>
<name>2570</name>
</trkpt>
<trkpt lat="41.790840" lon="-1.761157">
<ele>1032.5</ele>
<speed>10.4</speed>
<course>288.5</course>
<desc>Speed 10.4 km/h Distance 8.88 km</desc>
<time>2011-09-24T10:18:18.22</time>
<name>2571</name>
</trkpt>
<trkpt lat="41.790848" lon="-1.761190">
<ele>1032.5</ele>
<speed>10.1</speed>
<course>289.5</course>
<desc>Speed 10.1 km/h Distance 8.88 km</desc>
<time>2011-09-24T10:18:19.21</time>
<name>2572</name>
</trkpt>
<trkpt lat="41.790857" lon="-1.761222">
<ele>1033.0</ele>
<speed>10.0</speed>
<course>288.5</course>
<desc>Speed 10.0 km/h Distance 8.88 km</desc>
<time>2011-09-24T10:18:20.22</time>
<name>2573</name>
</trkpt>
<trkpt lat="41.790865" lon="-1.761255">
<ele>1033.0</ele>
<speed>10.3</speed>
<course>293.0</course>
<desc>Speed 10.3 km/h Distance 8.88 km</desc>
<time>2011-09-24T10:18:21.22</time>
<name>2574</name>
</trkpt>
<trkpt lat="41.790875" lon="-1.761287">
<ele>1033.0</ele>
<speed>10.3</speed>
<course>291.9</course>
<desc>Speed 10.3 km/h Distance 8.89 km</desc>
<time>2011-09-24T10:18:22.21</time>
<name>2575</name>
</trkpt>
<trkpt lat="41.790885" lon="-1.761320">
<ele>1033.0</ele>
<speed>10.5</speed>
<course>289.4</course>
<desc>Speed 10.5 km/h Distance 8.89 km</desc>
<time>2011-09-24T10:18:23.21</time>
<name>2576</name>
</trkpt>
<trkpt lat="41.790893" lon="-1.761352">
<ele>1033.5</ele>
<speed>10.2</speed>
<course>291.9</course>
<desc>Speed 10.2 km/h Distance 8.89 km</desc>
<time>2011-09-24T10:18:24.21</time>
<name>2577</name>
</trkpt>
<trkpt lat="41.790903" lon="-1.761385">
<ele>1033.5</ele>
<speed>10.5</speed>
<course>296.3</course>
<desc>Speed 10.5 km/h Distance 8.90 km</desc>
<time>2011-09-24T10:18:25.21</time>
<name>2578</name>
</trkpt>
<trkpt lat="41.790915" lon="-1.761417">
<ele>1033.5</ele>
<speed>10.3</speed>
<course>291.9</course>
<desc>Speed 10.3 km/h Distance 8.90 km</desc>
<time>2011-09-24T10:18:26.21</time>
<name>2579</name>
</trkpt>
<trkpt lat="41.790925" lon="-1.761450">
<ele>1034.0</ele>
<speed>10.7</speed>
<course>295.1</course>
<desc>Speed 10.7 km/h Distance 8.90 km</desc>
<time>2011-09-24T10:18:27.21</time>
<name>2580</name>
</trkpt>
<trkpt lat="41.790937" lon="-1.761483">
<ele>1034.0</ele>
<speed>10.8</speed>
<course>295.1</course>
<desc>Speed 10.8 km/h Distance 8.91 km</desc>
<time>2011-09-24T10:18:28.21</time>
<name>2581</name>
</trkpt>
<trkpt lat="41.790948" lon="-1.761517">
<ele>1034.0</ele>
<speed>10.5</speed>
<course>299.4</course>
<desc>Speed 10.5 km/h Distance 8.91 km</desc>
<time>2011-09-24T10:18:29.21</time>
<name>2582</name>
</trkpt>
<trkpt lat="41.790962" lon="-1.761548">
<ele>1034.0</ele>
<speed>10.6</speed>
<course>296.3</course>
<desc>Speed 10.6 km/h Distance 8.91 km</desc>
<time>2011-09-24T10:18:30.21</time>
<name>2583</name>
</trkpt>
<trkpt lat="41.790973" lon="-1.761580">
<ele>1034.0</ele>
<speed>10.7</speed>
<course>299.4</course>
<desc>Speed 10.7 km/h Distance 8.91 km</desc>
<time>2011-09-24T10:18:31.20</time>
<name>2584</name>
</trkpt>
<trkpt lat="41.790987" lon="-1.761612">
<ele>1034.0</ele>
<speed>10.8</speed>
<course>302.4</course>
<desc>Speed 10.8 km/h Distance 8.92 km</desc>
<time>2011-09-24T10:18:32.20</time>
<name>2585</name>
</trkpt>
<trkpt lat="41.791002" lon="-1.761643">
<ele>1034.0</ele>
<speed>11.0</speed>
<course>308.3</course>
<desc>Speed 11.0 km/h Distance 8.92 km</desc>
<time>2011-09-24T10:18:33.20</time>
<name>2586</name>
</trkpt>
<trkpt lat="41.791018" lon="-1.761672">
<ele>1034.0</ele>
<speed>10.8</speed>
<course>309.3</course>
<desc>Speed 10.8 km/h Distance 8.92 km</desc>
<time>2011-09-24T10:18:34.20</time>
<name>2587</name>
</trkpt>
<trkpt lat="41.791037" lon="-1.761702">
<ele>1034.0</ele>
<speed>11.1</speed>
<course>306.7</course>
<desc>Speed 11.1 km/h Distance 8.93 km</desc>
<time>2011-09-24T10:18:35.21</time>
<name>2588</name>
</trkpt>
<trkpt lat="41.791053" lon="-1.761732">
<ele>1034.0</ele>
<speed>11.2</speed>
<course>309.3</course>
<desc>Speed 11.2 km/h Distance 8.93 km</desc>
<time>2011-09-24T10:18:36.20</time>
<name>2589</name>
</trkpt>
<trkpt lat="41.791072" lon="-1.761762">
<ele>1034.5</ele>
<speed>11.2</speed>
<course>311.4</course>
<desc>Speed 11.2 km/h Distance 8.93 km</desc>
<time>2011-09-24T10:18:37.20</time>
<name>2590</name>
</trkpt>
<trkpt lat="41.791110" lon="-1.761820">
<ele>1034.0</ele>
<speed>11.6</speed>
<course>311.8</course>
<desc>Speed 11.6 km/h Distance 8.94 km</desc>
<time>2011-09-24T10:18:39.20</time>
<name>2591</name>
</trkpt>
<trkpt lat="41.791130" lon="-1.761850">
<ele>1034.0</ele>
<speed>11.8</speed>
<course>319.5</course>
<desc>Speed 11.8 km/h Distance 8.94 km</desc>
<time>2011-09-24T10:18:40.20</time>
<name>2592</name>
</trkpt>
<trkpt lat="41.791153" lon="-1.761877">
<ele>1034.0</ele>
<speed>12.2</speed>
<course>319.7</course>
<desc>Speed 12.2 km/h Distance 8.95 km</desc>
<time>2011-09-24T10:18:41.32</time>
<name>2593</name>
</trkpt>
<trkpt lat="41.791202" lon="-1.761932">
<ele>1034.0</ele>
<speed>12.6</speed>
<course>319.5</course>
<desc>Speed 12.6 km/h Distance 8.95 km</desc>
<time>2011-09-24T10:18:43.20</time>
<name>2594</name>
</trkpt>
<trkpt lat="41.791225" lon="-1.761958">
<ele>1034.0</ele>
<speed>12.6</speed>
<course>323.3</course>
<desc>Speed 12.6 km/h Distance 8.96 km</desc>
<time>2011-09-24T10:18:44.20</time>
<name>2595</name>
</trkpt>
<trkpt lat="41.791252" lon="-1.761985">
<ele>1033.5</ele>
<speed>12.7</speed>
<course>326.9</course>
<desc>Speed 12.7 km/h Distance 8.96 km</desc>
<time>2011-09-24T10:18:45.19</time>
<name>2596</name>
</trkpt>
<trkpt lat="41.791278" lon="-1.762008">
<ele>1033.5</ele>
<speed>13.0</speed>
<course>328.5</course>
<desc>Speed 13.0 km/h Distance 8.96 km</desc>
<time>2011-09-24T10:18:46.19</time>
<name>2597</name>
</trkpt>
<trkpt lat="41.791307" lon="-1.762032">
<ele>1033.5</ele>
<speed>13.0</speed>
<course>328.6</course>
<desc>Speed 13.0 km/h Distance 8.97 km</desc>
<time>2011-09-24T10:18:47.19</time>
<name>2598</name>
</trkpt>
<trkpt lat="41.791362" lon="-1.762077">
<ele>1033.5</ele>
<speed>12.9</speed>
<course>328.4</course>
<desc>Speed 12.9 km/h Distance 8.97 km</desc>
<time>2011-09-24T10:18:49.19</time>
<name>2599</name>
</trkpt>
<trkpt lat="41.791390" lon="-1.762100">
<ele>1033.5</ele>
<speed>13.0</speed>
<course>328.5</course>
<desc>Speed 13.0 km/h Distance 8.98 km</desc>
<time>2011-09-24T10:18:50.19</time>
<name>2600</name>
</trkpt>
<trkpt lat="41.791418" lon="-1.762123">
<ele>1033.5</ele>
<speed>13.0</speed>
<course>332.0</course>
<desc>Speed 13.0 km/h Distance 8.98 km</desc>
<time>2011-09-24T10:18:51.19</time>
<name>2601</name>
</trkpt>
<trkpt lat="41.791477" lon="-1.762165">
<ele>1034.0</ele>
<speed>13.3</speed>
<course>326.9</course>
<desc>Speed 13.3 km/h Distance 8.99 km</desc>
<time>2011-09-24T10:18:53.19</time>
<name>2602</name>
</trkpt>
<trkpt lat="41.791503" lon="-1.762188">
<ele>1034.0</ele>
<speed>13.0</speed>
<course>326.9</course>
<desc>Speed 13.0 km/h Distance 8.99 km</desc>
<time>2011-09-24T10:18:54.19</time>
<name>2603</name>
</trkpt>
<trkpt lat="41.791530" lon="-1.762212">
<ele>1034.0</ele>
<speed>13.0</speed>
<course>325.1</course>
<desc>Speed 13.0 km/h Distance 9.00 km</desc>
<time>2011-09-24T10:18:55.19</time>
<name>2604</name>
</trkpt>
<trkpt lat="41.791557" lon="-1.762237">
<ele>1034.0</ele>
<speed>12.8</speed>
<course>328.8</course>
<desc>Speed 12.8 km/h Distance 9.00 km</desc>
<time>2011-09-24T10:18:56.19</time>
<name>2605</name>
</trkpt>
<trkpt lat="41.791583" lon="-1.762258">
<ele>1034.0</ele>
<speed>12.7</speed>
<course>325.1</course>
<desc>Speed 12.7 km/h Distance 9.00 km</desc>
<time>2011-09-24T10:18:57.19</time>
<name>2606</name>
</trkpt>
<trkpt lat="41.791610" lon="-1.762283">
<ele>1034.5</ele>
<speed>13.1</speed>
<course>328.8</course>
<desc>Speed 13.1 km/h Distance 9.01 km</desc>
<time>2011-09-24T10:18:58.19</time>
<name>2607</name>
</trkpt>
<trkpt lat="41.791637" lon="-1.762305">
<ele>1034.5</ele>
<speed>12.8</speed>
<course>330.3</course>
<desc>Speed 12.8 km/h Distance 9.01 km</desc>
<time>2011-09-24T10:18:59.19</time>
<name>2608</name>
</trkpt>
<trkpt lat="41.791665" lon="-1.762327">
<ele>1035.0</ele>
<speed>12.7</speed>
<course>323.3</course>
<desc>Speed 12.7 km/h Distance 9.01 km</desc>
<time>2011-09-24T10:19:00.19</time>
<name>2609</name>
</trkpt>
<trkpt lat="41.791690" lon="-1.762352">
<ele>1035.0</ele>
<speed>12.7</speed>
<course>326.9</course>
<desc>Speed 12.7 km/h Distance 9.02 km</desc>
<time>2011-09-24T10:19:01.19</time>
<name>2610</name>
</trkpt>
<trkpt lat="41.791717" lon="-1.762375">
<ele>1035.5</ele>
<speed>12.6</speed>
<course>325.2</course>
<desc>Speed 12.6 km/h Distance 9.02 km</desc>
<time>2011-09-24T10:19:02.19</time>
<name>2611</name>
</trkpt>
<trkpt lat="41.791742" lon="-1.762398">
<ele>1035.5</ele>
<speed>12.3</speed>
<course>328.8</course>
<desc>Speed 12.3 km/h Distance 9.02 km</desc>
<time>2011-09-24T10:19:03.18</time>
<name>2612</name>
</trkpt>
<trkpt lat="41.791768" lon="-1.762420">
<ele>1035.5</ele>
<speed>12.3</speed>
<course>328.8</course>
<desc>Speed 12.3 km/h Distance 9.03 km</desc>
<time>2011-09-24T10:19:04.18</time>
<name>2613</name>
</trkpt>
<trkpt lat="41.791795" lon="-1.762442">
<ele>1035.5</ele>
<speed>12.6</speed>
<course>328.8</course>
<desc>Speed 12.6 km/h Distance 9.03 km</desc>
<time>2011-09-24T10:19:05.18</time>
<name>2614</name>
</trkpt>
<trkpt lat="41.791822" lon="-1.762463">
<ele>1036.0</ele>
<speed>12.6</speed>
<course>332.3</course>
<desc>Speed 12.6 km/h Distance 9.04 km</desc>
<time>2011-09-24T10:19:06.18</time>
<name>2615</name>
</trkpt>
<trkpt lat="41.791850" lon="-1.762483">
<ele>1036.0</ele>
<speed>12.4</speed>
<course>330.8</course>
<desc>Speed 12.4 km/h Distance 9.04 km</desc>
<time>2011-09-24T10:19:07.18</time>
<name>2616</name>
</trkpt>
<trkpt lat="41.791877" lon="-1.762503">
<ele>1036.5</ele>
<speed>12.4</speed>
<course>328.8</course>
<desc>Speed 12.4 km/h Distance 9.04 km</desc>
<time>2011-09-24T10:19:08.18</time>
<name>2617</name>
</trkpt>
<trkpt lat="41.791903" lon="-1.762525">
<ele>1036.5</ele>
<speed>12.5</speed>
<course>326.8</course>
<desc>Speed 12.5 km/h Distance 9.05 km</desc>
<time>2011-09-24T10:19:09.18</time>
<name>2618</name>
</trkpt>
<trkpt lat="41.791930" lon="-1.762548">
<ele>1036.5</ele>
<speed>12.5</speed>
<course>329.2</course>
<desc>Speed 12.5 km/h Distance 9.05 km</desc>
<time>2011-09-24T10:19:10.18</time>
<name>2619</name>
</trkpt>
<trkpt lat="41.791955" lon="-1.762568">
<ele>1036.5</ele>
<speed>12.0</speed>
<course>330.8</course>
<desc>Speed 12.0 km/h Distance 9.05 km</desc>
<time>2011-09-24T10:19:11.19</time>
<name>2620</name>
</trkpt>
<trkpt lat="41.791982" lon="-1.762588">
<ele>1037.0</ele>
<speed>12.0</speed>
<course>327.1</course>
<desc>Speed 12.0 km/h Distance 9.06 km</desc>
<time>2011-09-24T10:19:12.18</time>
<name>2621</name>
</trkpt>
<trkpt lat="41.792007" lon="-1.762610">
<ele>1037.0</ele>
<speed>12.1</speed>
<course>328.8</course>
<desc>Speed 12.1 km/h Distance 9.06 km</desc>
<time>2011-09-24T10:19:13.18</time>
<name>2622</name>
</trkpt>
<trkpt lat="41.792033" lon="-1.762632">
<ele>1037.0</ele>
<speed>12.1</speed>
<course>329.1</course>
<desc>Speed 12.1 km/h Distance 9.06 km</desc>
<time>2011-09-24T10:19:14.18</time>
<name>2623</name>
</trkpt>
<trkpt lat="41.792058" lon="-1.762652">
<ele>1037.5</ele>
<speed>11.7</speed>
<course>326.9</course>
<desc>Speed 11.7 km/h Distance 9.07 km</desc>
<time>2011-09-24T10:19:15.17</time>
<name>2624</name>
</trkpt>
<trkpt lat="41.792085" lon="-1.762675">
<ele>1037.5</ele>
<speed>12.2</speed>
<course>330.8</course>
<desc>Speed 12.2 km/h Distance 9.07 km</desc>
<time>2011-09-24T10:19:16.17</time>
<name>2625</name>
</trkpt>
<trkpt lat="41.792112" lon="-1.762695">
<ele>1037.5</ele>
<speed>12.2</speed>
<course>328.8</course>
<desc>Speed 12.2 km/h Distance 9.07 km</desc>
<time>2011-09-24T10:19:17.17</time>
<name>2626</name>
</trkpt>
<trkpt lat="41.792138" lon="-1.762717">
<ele>1038.0</ele>
<speed>12.3</speed>
<course>328.8</course>
<desc>Speed 12.3 km/h Distance 9.08 km</desc>
<time>2011-09-24T10:19:18.18</time>
<name>2627</name>
</trkpt>
<trkpt lat="41.792165" lon="-1.762738">
<ele>1038.0</ele>
<speed>12.5</speed>
<course>330.3</course>
<desc>Speed 12.5 km/h Distance 9.08 km</desc>
<time>2011-09-24T10:19:19.17</time>
<name>2628</name>
</trkpt>
<trkpt lat="41.792193" lon="-1.762760">
<ele>1038.0</ele>
<speed>12.5</speed>
<course>330.3</course>
<desc>Speed 12.5 km/h Distance 9.08 km</desc>
<time>2011-09-24T10:19:20.17</time>
<name>2629</name>
</trkpt>
<trkpt lat="41.792222" lon="-1.762782">
<ele>1038.5</ele>
<speed>12.8</speed>
<course>326.9</course>
<desc>Speed 12.8 km/h Distance 9.09 km</desc>
<time>2011-09-24T10:19:21.17</time>
<name>2630</name>
</trkpt>
<trkpt lat="41.792248" lon="-1.762805">
<ele>1038.5</ele>
<speed>12.6</speed>
<course>331.7</course>
<desc>Speed 12.6 km/h Distance 9.09 km</desc>
<time>2011-09-24T10:19:22.17</time>
<name>2631</name>
</trkpt>
<trkpt lat="41.792278" lon="-1.762827">
<ele>1039.0</ele>
<speed>12.6</speed>
<course>328.8</course>
<desc>Speed 12.6 km/h Distance 9.09 km</desc>
<time>2011-09-24T10:19:23.17</time>
<name>2632</name>
</trkpt>
<trkpt lat="41.792305" lon="-1.762848">
<ele>1039.0</ele>
<speed>12.7</speed>
<course>328.5</course>
<desc>Speed 12.7 km/h Distance 9.10 km</desc>
<time>2011-09-24T10:19:24.17</time>
<name>2633</name>
</trkpt>
<trkpt lat="41.792333" lon="-1.762872">
<ele>1039.0</ele>
<speed>12.9</speed>
<course>330.3</course>
<desc>Speed 12.9 km/h Distance 9.10 km</desc>
<time>2011-09-24T10:19:25.17</time>
<name>2634</name>
</trkpt>
<trkpt lat="41.792362" lon="-1.762893">
<ele>1039.5</ele>
<speed>12.9</speed>
<course>330.3</course>
<desc>Speed 12.9 km/h Distance 9.11 km</desc>
<time>2011-09-24T10:19:26.17</time>
<name>2635</name>
</trkpt>
<trkpt lat="41.792390" lon="-1.762915">
<ele>1039.5</ele>
<speed>13.0</speed>
<course>329.9</course>
<desc>Speed 13.0 km/h Distance 9.11 km</desc>
<time>2011-09-24T10:19:27.16</time>
<name>2636</name>
</trkpt>
<trkpt lat="41.792420" lon="-1.762938">
<ele>1039.5</ele>
<speed>13.5</speed>
<course>326.7</course>
<desc>Speed 13.5 km/h Distance 9.11 km</desc>
<time>2011-09-24T10:19:28.17</time>
<name>2637</name>
</trkpt>
<trkpt lat="41.792448" lon="-1.762963">
<ele>1040.0</ele>
<speed>13.4</speed>
<course>328.2</course>
<desc>Speed 13.4 km/h Distance 9.12 km</desc>
<time>2011-09-24T10:19:29.17</time>
<name>2638</name>
</trkpt>
<trkpt lat="41.792478" lon="-1.762988">
<ele>1040.0</ele>
<speed>13.5</speed>
<course>325.1</course>
<desc>Speed 13.5 km/h Distance 9.12 km</desc>
<time>2011-09-24T10:19:30.16</time>
<name>2639</name>
</trkpt>
<trkpt lat="41.792505" lon="-1.763013">
<ele>1040.0</ele>
<speed>13.3</speed>
<course>323.3</course>
<desc>Speed 13.3 km/h Distance 9.12 km</desc>
<time>2011-09-24T10:19:31.16</time>
<name>2640</name>
</trkpt>
<trkpt lat="41.792532" lon="-1.763040">
<ele>1040.0</ele>
<speed>13.2</speed>
<course>320.0</course>
<desc>Speed 13.2 km/h Distance 9.13 km</desc>
<time>2011-09-24T10:19:32.16</time>
<name>2641</name>
</trkpt>
<trkpt lat="41.792558" lon="-1.763070">
<ele>1040.0</ele>
<speed>13.6</speed>
<course>316.6</course>
<desc>Speed 13.6 km/h Distance 9.13 km</desc>
<time>2011-09-24T10:19:33.16</time>
<name>2642</name>
</trkpt>
<trkpt lat="41.792583" lon="-1.763102">
<ele>1040.0</ele>
<speed>13.4</speed>
<course>309.7</course>
<desc>Speed 13.4 km/h Distance 9.14 km</desc>
<time>2011-09-24T10:19:34.16</time>
<name>2643</name>
</trkpt>
<trkpt lat="41.792605" lon="-1.763137">
<ele>1040.0</ele>
<speed>13.7</speed>
<course>308.4</course>
<desc>Speed 13.7 km/h Distance 9.14 km</desc>
<time>2011-09-24T10:19:35.16</time>
<name>2644</name>
</trkpt>
<trkpt lat="41.792627" lon="-1.763173">
<ele>1040.0</ele>
<speed>13.9</speed>
<course>305.0</course>
<desc>Speed 13.9 km/h Distance 9.14 km</desc>
<time>2011-09-24T10:19:36.16</time>
<name>2645</name>
</trkpt>
<trkpt lat="41.792647" lon="-1.763212">
<ele>1040.0</ele>
<speed>14.3</speed>
<course>299.6</course>
<desc>Speed 14.3 km/h Distance 9.15 km</desc>
<time>2011-09-24T10:19:37.16</time>
<name>2646</name>
</trkpt>
<trkpt lat="41.792665" lon="-1.763255">
<ele>1040.0</ele>
<speed>14.6</speed>
<course>296.4</course>
<desc>Speed 14.6 km/h Distance 9.15 km</desc>
<time>2011-09-24T10:19:38.16</time>
<name>2647</name>
</trkpt>
<trkpt lat="41.792682" lon="-1.763300">
<ele>1040.0</ele>
<speed>15.0</speed>
<course>291.0</course>
<desc>Speed 15.0 km/h Distance 9.16 km</desc>
<time>2011-09-24T10:19:39.16</time>
<name>2648</name>
</trkpt>
<trkpt lat="41.792695" lon="-1.763347">
<ele>1040.0</ele>
<speed>15.1</speed>
<course>282.6</course>
<desc>Speed 15.1 km/h Distance 9.16 km</desc>
<time>2011-09-24T10:19:40.16</time>
<name>2649</name>
</trkpt>
<trkpt lat="41.792703" lon="-1.763397">
<ele>1040.0</ele>
<speed>15.0</speed>
<course>280.5</course>
<desc>Speed 15.0 km/h Distance 9.16 km</desc>
<time>2011-09-24T10:19:41.16</time>
<name>2650</name>
</trkpt>
<trkpt lat="41.792710" lon="-1.763445">
<ele>1040.0</ele>
<speed>14.6</speed>
<course>278.2</course>
<desc>Speed 14.6 km/h Distance 9.17 km</desc>
<time>2011-09-24T10:19:42.15</time>
<name>2651</name>
</trkpt>
<trkpt lat="41.792715" lon="-1.763492">
<ele>1040.0</ele>
<speed>14.1</speed>
<course>270.0</course>
<desc>Speed 14.1 km/h Distance 9.17 km</desc>
<time>2011-09-24T10:19:43.16</time>
<name>2652</name>
</trkpt>
<trkpt lat="41.792715" lon="-1.763537">
<ele>1040.0</ele>
<speed>13.5</speed>
<course>267.2</course>
<desc>Speed 13.5 km/h Distance 9.18 km</desc>
<time>2011-09-24T10:19:44.15</time>
<name>2653</name>
</trkpt>
<trkpt lat="41.792713" lon="-1.763582">
<ele>1040.0</ele>
<speed>13.6</speed>
<course>259.2</course>
<desc>Speed 13.6 km/h Distance 9.18 km</desc>
<time>2011-09-24T10:19:45.15</time>
<name>2654</name>
</trkpt>
<trkpt lat="41.792707" lon="-1.763628">
<ele>1040.5</ele>
<speed>14.0</speed>
<course>256.0</course>
<desc>Speed 14.0 km/h Distance 9.18 km</desc>
<time>2011-09-24T10:19:46.15</time>
<name>2655</name>
</trkpt>
<trkpt lat="41.792698" lon="-1.763673">
<ele>1040.5</ele>
<speed>14.1</speed>
<course>254.0</course>
<desc>Speed 14.1 km/h Distance 9.19 km</desc>
<time>2011-09-24T10:19:47.15</time>
<name>2656</name>
</trkpt>
<trkpt lat="41.792688" lon="-1.763720">
<ele>1040.5</ele>
<speed>14.4</speed>
<course>245.1</course>
<desc>Speed 14.4 km/h Distance 9.19 km</desc>
<time>2011-09-24T10:19:48.15</time>
<name>2657</name>
</trkpt>
<trkpt lat="41.792673" lon="-1.763763">
<ele>1040.5</ele>
<speed>14.2</speed>
<course>241.8</course>
<desc>Speed 14.2 km/h Distance 9.19 km</desc>
<time>2011-09-24T10:19:49.15</time>
<name>2658</name>
</trkpt>
<trkpt lat="41.792657" lon="-1.763805">
<ele>1040.5</ele>
<speed>14.3</speed>
<course>239.5</course>
<desc>Speed 14.3 km/h Distance 9.20 km</desc>
<time>2011-09-24T10:19:50.15</time>
<name>2659</name>
</trkpt>
<trkpt lat="41.792638" lon="-1.763847">
<ele>1041.0</ele>
<speed>14.1</speed>
<course>237.3</course>
<desc>Speed 14.1 km/h Distance 9.20 km</desc>
<time>2011-09-24T10:19:51.16</time>
<name>2660</name>
</trkpt>
<trkpt lat="41.792620" lon="-1.763885">
<ele>1041.0</ele>
<speed>13.8</speed>
<course>235.0</course>
<desc>Speed 13.8 km/h Distance 9.21 km</desc>
<time>2011-09-24T10:19:52.14</time>
<name>2661</name>
</trkpt>
<trkpt lat="41.792600" lon="-1.763923">
<ele>1041.0</ele>
<speed>13.8</speed>
<course>232.5</course>
<desc>Speed 13.8 km/h Distance 9.21 km</desc>
<time>2011-09-24T10:19:53.15</time>
<name>2662</name>
</trkpt>
<trkpt lat="41.792580" lon="-1.763958">
<ele>1041.0</ele>
<speed>13.5</speed>
<course>231.6</course>
<desc>Speed 13.5 km/h Distance 9.21 km</desc>
<time>2011-09-24T10:19:54.15</time>
<name>2663</name>
</trkpt>
<trkpt lat="41.792558" lon="-1.763995">
<ele>1041.5</ele>
<speed>13.4</speed>
<course>228.2</course>
<desc>Speed 13.4 km/h Distance 9.22 km</desc>
<time>2011-09-24T10:19:55.14</time>
<name>2664</name>
</trkpt>
<trkpt lat="41.792535" lon="-1.764030">
<ele>1041.5</ele>
<speed>13.8</speed>
<course>231.6</course>
<desc>Speed 13.8 km/h Distance 9.22 km</desc>
<time>2011-09-24T10:19:56.15</time>
<name>2665</name>
</trkpt>
<trkpt lat="41.792513" lon="-1.764067">
<ele>1041.5</ele>
<speed>14.1</speed>
<course>226.2</course>
<desc>Speed 14.1 km/h Distance 9.23 km</desc>
<time>2011-09-24T10:19:57.14</time>
<name>2666</name>
</trkpt>
<trkpt lat="41.792488" lon="-1.764102">
<ele>1041.5</ele>
<speed>14.5</speed>
<course>224.4</course>
<desc>Speed 14.5 km/h Distance 9.23 km</desc>
<time>2011-09-24T10:19:58.14</time>
<name>2667</name>
</trkpt>
<trkpt lat="41.792462" lon="-1.764137">
<ele>1042.0</ele>
<speed>14.6</speed>
<course>226.2</course>
<desc>Speed 14.6 km/h Distance 9.23 km</desc>
<time>2011-09-24T10:19:59.14</time>
<name>2668</name>
</trkpt>
<trkpt lat="41.792437" lon="-1.764172">
<ele>1042.0</ele>
<speed>14.3</speed>
<course>228.2</course>
<desc>Speed 14.3 km/h Distance 9.24 km</desc>
<time>2011-09-24T10:20:00.14</time>
<name>2669</name>
</trkpt>
<trkpt lat="41.792413" lon="-1.764207">
<ele>1042.5</ele>
<speed>14.0</speed>
<course>226.8</course>
<desc>Speed 14.0 km/h Distance 9.24 km</desc>
<time>2011-09-24T10:20:01.14</time>
<name>2670</name>
</trkpt>
<trkpt lat="41.792390" lon="-1.764240">
<ele>1042.5</ele>
<speed>13.9</speed>
<course>228.2</course>
<desc>Speed 13.9 km/h Distance 9.25 km</desc>
<time>2011-09-24T10:20:02.14</time>
<name>2671</name>
</trkpt>
<trkpt lat="41.792367" lon="-1.764275">
<ele>1042.5</ele>
<speed>13.6</speed>
<course>228.9</course>
<desc>Speed 13.6 km/h Distance 9.25 km</desc>
<time>2011-09-24T10:20:03.14</time>
<name>2672</name>
</trkpt>
<trkpt lat="41.792345" lon="-1.764308">
<ele>1043.0</ele>
<speed>13.2</speed>
<course>223.8</course>
<desc>Speed 13.2 km/h Distance 9.25 km</desc>
<time>2011-09-24T10:20:04.14</time>
<name>2673</name>
</trkpt>
<trkpt lat="41.792322" lon="-1.764338">
<ele>1043.0</ele>
<speed>13.0</speed>
<course>223.8</course>
<desc>Speed 13.0 km/h Distance 9.26 km</desc>
<time>2011-09-24T10:20:05.14</time>
<name>2674</name>
</trkpt>
<trkpt lat="41.792298" lon="-1.764368">
<ele>1043.0</ele>
<speed>12.7</speed>
<course>222.5</course>
<desc>Speed 12.7 km/h Distance 9.26 km</desc>
<time>2011-09-24T10:20:06.14</time>
<name>2675</name>
</trkpt>
<trkpt lat="41.792277" lon="-1.764395">
<ele>1043.5</ele>
<speed>11.4</speed>
<course>225.5</course>
<desc>Speed 11.4 km/h Distance 9.26 km</desc>
<time>2011-09-24T10:20:07.13</time>
<name>2676</name>
</trkpt>
<trkpt lat="41.792258" lon="-1.764420">
<ele>1043.5</ele>
<speed>10.9</speed>
<course>226.5</course>
<desc>Speed 10.9 km/h Distance 9.27 km</desc>
<time>2011-09-24T10:20:08.13</time>
<name>2677</name>
</trkpt>
<trkpt lat="41.792238" lon="-1.764448">
<ele>1043.5</ele>
<speed>11.0</speed>
<course>222.9</course>
<desc>Speed 11.0 km/h Distance 9.27 km</desc>
<time>2011-09-24T10:20:09.13</time>
<name>2678</name>
</trkpt>
<trkpt lat="41.792218" lon="-1.764473">
<ele>1044.0</ele>
<speed>11.2</speed>
<course>224.9</course>
<desc>Speed 11.2 km/h Distance 9.27 km</desc>
<time>2011-09-24T10:20:10.13</time>
<name>2679</name>
</trkpt>
<trkpt lat="41.792198" lon="-1.764500">
<ele>1044.0</ele>
<speed>11.5</speed>
<course>233.3</course>
<desc>Speed 11.5 km/h Distance 9.28 km</desc>
<time>2011-09-24T10:20:11.13</time>
<name>2680</name>
</trkpt>
<trkpt lat="41.792182" lon="-1.764530">
<ele>1044.5</ele>
<speed>11.5</speed>
<course>230.7</course>
<desc>Speed 11.5 km/h Distance 9.28 km</desc>
<time>2011-09-24T10:20:12.13</time>
<name>2681</name>
</trkpt>
<trkpt lat="41.792163" lon="-1.764560">
<ele>1044.5</ele>
<speed>11.5</speed>
<course>226.6</course>
<desc>Speed 11.5 km/h Distance 9.28 km</desc>
<time>2011-09-24T10:20:13.13</time>
<name>2682</name>
</trkpt>
<trkpt lat="41.792143" lon="-1.764588">
<ele>1044.5</ele>
<speed>11.8</speed>
<course>224.3</course>
<desc>Speed 11.8 km/h Distance 9.29 km</desc>
<time>2011-09-24T10:20:14.14</time>
<name>2683</name>
</trkpt>
<trkpt lat="41.792122" lon="-1.764617">
<ele>1045.0</ele>
<speed>12.0</speed>
<course>228.2</course>
<desc>Speed 12.0 km/h Distance 9.29 km</desc>
<time>2011-09-24T10:20:15.13</time>
<name>2684</name>
</trkpt>
<trkpt lat="41.792102" lon="-1.764647">
<ele>1045.0</ele>
<speed>12.2</speed>
<course>224.3</course>
<desc>Speed 12.2 km/h Distance 9.29 km</desc>
<time>2011-09-24T10:20:16.13</time>
<name>2685</name>
</trkpt>
<trkpt lat="41.792080" lon="-1.764675">
<ele>1045.5</ele>
<speed>12.1</speed>
<course>225.9</course>
<desc>Speed 12.1 km/h Distance 9.30 km</desc>
<time>2011-09-24T10:20:17.13</time>
<name>2686</name>
</trkpt>
<trkpt lat="41.792058" lon="-1.764705">
<ele>1045.5</ele>
<speed>12.0</speed>
<course>226.6</course>
<desc>Speed 12.0 km/h Distance 9.30 km</desc>
<time>2011-09-24T10:20:18.13</time>
<name>2687</name>
</trkpt>
<trkpt lat="41.792038" lon="-1.764733">
<ele>1045.5</ele>
<speed>12.2</speed>
<course>224.3</course>
<desc>Speed 12.2 km/h Distance 9.30 km</desc>
<time>2011-09-24T10:20:19.13</time>
<name>2688</name>
</trkpt>
<trkpt lat="41.792017" lon="-1.764762">
<ele>1046.0</ele>
<speed>12.2</speed>
<course>224.3</course>
<desc>Speed 12.2 km/h Distance 9.31 km</desc>
<time>2011-09-24T10:20:20.13</time>
<name>2689</name>
</trkpt>
<trkpt lat="41.791995" lon="-1.764790">
<ele>1046.0</ele>
<speed>12.5</speed>
<course>227.5</course>
<desc>Speed 12.5 km/h Distance 9.31 km</desc>
<time>2011-09-24T10:20:21.13</time>
<name>2690</name>
</trkpt>
<trkpt lat="41.791973" lon="-1.764822">
<ele>1046.5</ele>
<speed>12.4</speed>
<course>228.2</course>
<desc>Speed 12.4 km/h Distance 9.31 km</desc>
<time>2011-09-24T10:20:22.12</time>
<name>2691</name>
</trkpt>
<trkpt lat="41.791953" lon="-1.764852">
<ele>1046.5</ele>
<speed>12.4</speed>
<course>225.9</course>
<desc>Speed 12.4 km/h Distance 9.32 km</desc>
<time>2011-09-24T10:20:23.12</time>
<name>2692</name>
</trkpt>
<trkpt lat="41.791932" lon="-1.764882">
<ele>1046.5</ele>
<speed>12.4</speed>
<course>222.5</course>
<desc>Speed 12.4 km/h Distance 9.32 km</desc>
<time>2011-09-24T10:20:24.12</time>
<name>2693</name>
</trkpt>
<trkpt lat="41.791910" lon="-1.764908">
<ele>1047.0</ele>
<speed>12.3</speed>
<course>224.3</course>
<desc>Speed 12.3 km/h Distance 9.32 km</desc>
<time>2011-09-24T10:20:25.12</time>
<name>2694</name>
</trkpt>
<trkpt lat="41.791888" lon="-1.764937">
<ele>1047.0</ele>
<speed>12.2</speed>
<course>225.9</course>
<desc>Speed 12.2 km/h Distance 9.33 km</desc>
<time>2011-09-24T10:20:26.12</time>
<name>2695</name>
</trkpt>
<trkpt lat="41.791867" lon="-1.764967">
<ele>1047.0</ele>
<speed>12.0</speed>
<course>216.7</course>
<desc>Speed 12.0 km/h Distance 9.33 km</desc>
<time>2011-09-24T10:20:27.12</time>
<name>2696</name>
</trkpt>
<trkpt lat="41.791845" lon="-1.764988">
<ele>1047.5</ele>
<speed>10.9</speed>
<course>228.2</course>
<desc>Speed 10.9 km/h Distance 9.33 km</desc>
<time>2011-09-24T10:20:28.12</time>
<name>2697</name>
</trkpt>
<trkpt lat="41.791828" lon="-1.765013">
<ele>1047.5</ele>
<speed>9.9</speed>
<course>231.1</course>
<desc>Speed 9.9 km/h Distance 9.34 km</desc>
<time>2011-09-24T10:20:29.12</time>
<name>2698</name>
</trkpt>
<trkpt lat="41.791813" lon="-1.765038">
<ele>1047.5</ele>
<speed>9.8</speed>
<course>230.1</course>
<desc>Speed 9.8 km/h Distance 9.34 km</desc>
<time>2011-09-24T10:20:30.12</time>
<name>2699</name>
</trkpt>
<trkpt lat="41.791797" lon="-1.765065">
<ele>1047.5</ele>
<speed>10.2</speed>
<course>225.5</course>
<desc>Speed 10.2 km/h Distance 9.34 km</desc>
<time>2011-09-24T10:20:31.12</time>
<name>2700</name>
</trkpt>
<trkpt lat="41.791778" lon="-1.765090">
<ele>1048.0</ele>
<speed>10.7</speed>
<course>224.9</course>
<desc>Speed 10.7 km/h Distance 9.34 km</desc>
<time>2011-09-24T10:20:32.12</time>
<name>2701</name>
</trkpt>
<trkpt lat="41.791758" lon="-1.765117">
<ele>1048.0</ele>
<speed>11.3</speed>
<course>223.0</course>
<desc>Speed 11.3 km/h Distance 9.35 km</desc>
<time>2011-09-24T10:20:33.12</time>
<name>2702</name>
</trkpt>
<trkpt lat="41.791738" lon="-1.765142">
<ele>1048.5</ele>
<speed>11.0</speed>
<course>223.0</course>
<desc>Speed 11.0 km/h Distance 9.35 km</desc>
<time>2011-09-24T10:20:34.11</time>
<name>2703</name>
</trkpt>
<trkpt lat="41.791718" lon="-1.765167">
<ele>1048.5</ele>
<speed>10.9</speed>
<course>223.0</course>
<desc>Speed 10.9 km/h Distance 9.35 km</desc>
<time>2011-09-24T10:20:35.11</time>
<name>2704</name>
</trkpt>
<trkpt lat="41.791698" lon="-1.765192">
<ele>1048.5</ele>
<speed>11.1</speed>
<course>229.0</course>
<desc>Speed 11.1 km/h Distance 9.36 km</desc>
<time>2011-09-24T10:20:36.11</time>
<name>2705</name>
</trkpt>
<trkpt lat="41.791680" lon="-1.765220">
<ele>1049.0</ele>
<speed>11.1</speed>
<course>222.9</course>
<desc>Speed 11.1 km/h Distance 9.36 km</desc>
<time>2011-09-24T10:20:37.11</time>
<name>2706</name>
</trkpt>
<trkpt lat="41.791660" lon="-1.765245">
<ele>1049.0</ele>
<speed>11.0</speed>
<course>230.0</course>
<desc>Speed 11.0 km/h Distance 9.36 km</desc>
<time>2011-09-24T10:20:38.11</time>
<name>2707</name>
</trkpt>
<trkpt lat="41.791643" lon="-1.765272">
<ele>1049.0</ele>
<speed>10.4</speed>
<course>230.0</course>
<desc>Speed 10.4 km/h Distance 9.37 km</desc>
<time>2011-09-24T10:20:39.11</time>
<name>2708</name>
</trkpt>
<trkpt lat="41.791627" lon="-1.765298">
<ele>1049.0</ele>
<speed>10.2</speed>
<course>228.2</course>
<desc>Speed 10.2 km/h Distance 9.37 km</desc>
<time>2011-09-24T10:20:40.11</time>
<name>2709</name>
</trkpt>
<trkpt lat="41.791610" lon="-1.765323">
<ele>1049.0</ele>
<speed>10.2</speed>
<course>230.0</course>
<desc>Speed 10.2 km/h Distance 9.37 km</desc>
<time>2011-09-24T10:20:41.11</time>
<name>2710</name>
</trkpt>
<trkpt lat="41.791593" lon="-1.765350">
<ele>1049.5</ele>
<speed>10.3</speed>
<course>233.0</course>
<desc>Speed 10.3 km/h Distance 9.37 km</desc>
<time>2011-09-24T10:20:42.11</time>
<name>2711</name>
</trkpt>
<trkpt lat="41.791578" lon="-1.765377">
<ele>1049.5</ele>
<speed>10.3</speed>
<course>225.4</course>
<desc>Speed 10.3 km/h Distance 9.38 km</desc>
<time>2011-09-24T10:20:43.11</time>
<name>2712</name>
</trkpt>
<trkpt lat="41.791560" lon="-1.765402">
<ele>1049.5</ele>
<speed>10.3</speed>
<course>230.0</course>
<desc>Speed 10.3 km/h Distance 9.38 km</desc>
<time>2011-09-24T10:20:44.11</time>
<name>2713</name>
</trkpt>
<trkpt lat="41.791543" lon="-1.765428">
<ele>1049.5</ele>
<speed>10.5</speed>
<course>228.1</course>
<desc>Speed 10.5 km/h Distance 9.38 km</desc>
<time>2011-09-24T10:20:45.11</time>
<name>2714</name>
</trkpt>
<trkpt lat="41.791527" lon="-1.765453">
<ele>1050.0</ele>
<speed>10.1</speed>
<course>219.1</course>
<desc>Speed 10.1 km/h Distance 9.39 km</desc>
<time>2011-09-24T10:20:46.10</time>
<name>2715</name>
</trkpt>
<trkpt lat="41.791508" lon="-1.765473">
<ele>1050.0</ele>
<speed>9.2</speed>
<course>216.7</course>
<desc>Speed 9.2 km/h Distance 9.39 km</desc>
<time>2011-09-24T10:20:47.10</time>
<name>2716</name>
</trkpt>
<trkpt lat="41.791490" lon="-1.765492">
<ele>1050.0</ele>
<speed>9.4</speed>
<course>227.1</course>
<desc>Speed 9.4 km/h Distance 9.39 km</desc>
<time>2011-09-24T10:20:48.10</time>
<name>2717</name>
</trkpt>
<trkpt lat="41.791475" lon="-1.765513">
<ele>1050.0</ele>
<speed>9.2</speed>
<course>231.1</course>
<desc>Speed 9.2 km/h Distance 9.39 km</desc>
<time>2011-09-24T10:20:49.10</time>
<name>2718</name>
</trkpt>
<trkpt lat="41.791460" lon="-1.765538">
<ele>1050.0</ele>
<speed>9.1</speed>
<course>224.1</course>
<desc>Speed 9.1 km/h Distance 9.40 km</desc>
<time>2011-09-24T10:20:50.10</time>
<name>2719</name>
</trkpt>
<trkpt lat="41.791443" lon="-1.765560">
<ele>1050.5</ele>
<speed>9.4</speed>
<course>221.0</course>
<desc>Speed 9.4 km/h Distance 9.40 km</desc>
<time>2011-09-24T10:20:51.10</time>
<name>2720</name>
</trkpt>
<trkpt lat="41.791423" lon="-1.765583">
<ele>1050.5</ele>
<speed>10.7</speed>
<course>226.6</course>
<desc>Speed 10.7 km/h Distance 9.40 km</desc>
<time>2011-09-24T10:20:52.10</time>
<name>2721</name>
</trkpt>
<trkpt lat="41.791403" lon="-1.765612">
<ele>1050.5</ele>
<speed>11.7</speed>
<course>222.5</course>
<desc>Speed 11.7 km/h Distance 9.40 km</desc>
<time>2011-09-24T10:20:53.10</time>
<name>2722</name>
</trkpt>
<trkpt lat="41.791382" lon="-1.765638">
<ele>1050.5</ele>
<speed>12.1</speed>
<course>229.7</course>
<desc>Speed 12.1 km/h Distance 9.41 km</desc>
<time>2011-09-24T10:20:54.10</time>
<name>2723</name>
</trkpt>
<trkpt lat="41.791362" lon="-1.765670">
<ele>1050.5</ele>
<speed>12.0</speed>
<course>226.5</course>
<desc>Speed 12.0 km/h Distance 9.41 km</desc>
<time>2011-09-24T10:20:55.10</time>
<name>2724</name>
</trkpt>
<trkpt lat="41.791342" lon="-1.765698">
<ele>1051.0</ele>
<speed>11.8</speed>
<course>229.0</course>
<desc>Speed 11.8 km/h Distance 9.41 km</desc>
<time>2011-09-24T10:20:56.10</time>
<name>2725</name>
</trkpt>
<trkpt lat="41.791323" lon="-1.765727">
<ele>1051.0</ele>
<speed>11.3</speed>
<course>229.0</course>
<desc>Speed 11.3 km/h Distance 9.42 km</desc>
<time>2011-09-24T10:20:57.10</time>
<name>2726</name>
</trkpt>
<trkpt lat="41.791305" lon="-1.765755">
<ele>1051.0</ele>
<speed>11.1</speed>
<course>230.7</course>
<desc>Speed 11.1 km/h Distance 9.42 km</desc>
<time>2011-09-24T10:20:58.10</time>
<name>2727</name>
</trkpt>
<trkpt lat="41.791287" lon="-1.765785">
<ele>1051.0</ele>
<speed>11.8</speed>
<course>229.7</course>
<desc>Speed 11.8 km/h Distance 9.42 km</desc>
<time>2011-09-24T10:20:59.10</time>
<name>2728</name>
</trkpt>
<trkpt lat="41.791267" lon="-1.765817">
<ele>1051.0</ele>
<speed>12.7</speed>
<course>226.8</course>
<desc>Speed 12.7 km/h Distance 9.43 km</desc>
<time>2011-09-24T10:21:00.09</time>
<name>2729</name>
</trkpt>
<trkpt lat="41.791243" lon="-1.765850">
<ele>1051.0</ele>
<speed>13.5</speed>
<course>230.8</course>
<desc>Speed 13.5 km/h Distance 9.43 km</desc>
<time>2011-09-24T10:21:01.09</time>
<name>2730</name>
</trkpt>
<trkpt lat="41.791220" lon="-1.765888">
<ele>1051.0</ele>
<speed>14.7</speed>
<course>224.0</course>
<desc>Speed 14.7 km/h Distance 9.43 km</desc>
<time>2011-09-24T10:21:02.09</time>
<name>2731</name>
</trkpt>
<trkpt lat="41.791192" lon="-1.765925">
<ele>1051.5</ele>
<speed>15.7</speed>
<course>224.8</course>
<desc>Speed 15.7 km/h Distance 9.44 km</desc>
<time>2011-09-24T10:21:03.10</time>
<name>2732</name>
</trkpt>
<trkpt lat="41.791162" lon="-1.765965">
<ele>1051.5</ele>
<speed>16.9</speed>
<course>224.4</course>
<desc>Speed 16.9 km/h Distance 9.44 km</desc>
<time>2011-09-24T10:21:04.09</time>
<name>2733</name>
</trkpt>
<trkpt lat="41.791130" lon="-1.766007">
<ele>1051.5</ele>
<speed>17.5</speed>
<course>216.7</course>
<desc>Speed 17.5 km/h Distance 9.45 km</desc>
<time>2011-09-24T10:21:05.09</time>
<name>2734</name>
</trkpt>
<trkpt lat="41.791098" lon="-1.766038">
<ele>1051.5</ele>
<speed>16.1</speed>
<course>221.2</course>
<desc>Speed 16.1 km/h Distance 9.45 km</desc>
<time>2011-09-24T10:21:06.09</time>
<name>2735</name>
</trkpt>
<trkpt lat="41.791070" lon="-1.766072">
<ele>1051.5</ele>
<speed>15.0</speed>
<course>226.8</course>
<desc>Speed 15.0 km/h Distance 9.46 km</desc>
<time>2011-09-24T10:21:07.09</time>
<name>2736</name>
</trkpt>
<trkpt lat="41.791047" lon="-1.766105">
<ele>1051.5</ele>
<speed>13.7</speed>
<course>225.3</course>
<desc>Speed 13.7 km/h Distance 9.46 km</desc>
<time>2011-09-24T10:21:08.09</time>
<name>2737</name>
</trkpt>
<trkpt lat="41.791023" lon="-1.766137">
<ele>1052.0</ele>
<speed>13.1</speed>
<course>224.3</course>
<desc>Speed 13.1 km/h Distance 9.47 km</desc>
<time>2011-09-24T10:21:09.09</time>
<name>2738</name>
</trkpt>
<trkpt lat="41.791002" lon="-1.766165">
<ele>1052.0</ele>
<speed>12.1</speed>
<course>230.7</course>
<desc>Speed 12.1 km/h Distance 9.47 km</desc>
<time>2011-09-24T10:21:10.09</time>
<name>2739</name>
</trkpt>
<trkpt lat="41.790983" lon="-1.766195">
<ele>1052.0</ele>
<speed>11.4</speed>
<course>227.3</course>
<desc>Speed 11.4 km/h Distance 9.47 km</desc>
<time>2011-09-24T10:21:11.09</time>
<name>2740</name>
</trkpt>
<trkpt lat="41.790965" lon="-1.766222">
<ele>1052.0</ele>
<speed>11.0</speed>
<course>229.0</course>
<desc>Speed 11.0 km/h Distance 9.47 km</desc>
<time>2011-09-24T10:21:12.08</time>
<name>2741</name>
</trkpt>
<trkpt lat="41.790947" lon="-1.766250">
<ele>1052.0</ele>
<speed>11.3</speed>
<course>233.3</course>
<desc>Speed 11.3 km/h Distance 9.48 km</desc>
<time>2011-09-24T10:21:13.09</time>
<name>2742</name>
</trkpt>
<trkpt lat="41.790930" lon="-1.766280">
<ele>1052.0</ele>
<speed>11.1</speed>
<course>230.7</course>
<desc>Speed 11.1 km/h Distance 9.48 km</desc>
<time>2011-09-24T10:21:14.09</time>
<name>2743</name>
</trkpt>
<trkpt lat="41.790912" lon="-1.766310">
<ele>1052.0</ele>
<speed>11.6</speed>
<course>231.7</course>
<desc>Speed 11.6 km/h Distance 9.48 km</desc>
<time>2011-09-24T10:21:15.09</time>
<name>2744</name>
</trkpt>
<trkpt lat="41.790895" lon="-1.766338">
<ele>1052.0</ele>
<speed>11.0</speed>
<course>227.3</course>
<desc>Speed 11.0 km/h Distance 9.49 km</desc>
<time>2011-09-24T10:21:16.08</time>
<name>2745</name>
</trkpt>
<trkpt lat="41.790877" lon="-1.766365">
<ele>1052.0</ele>
<speed>10.7</speed>
<course>223.0</course>
<desc>Speed 10.7 km/h Distance 9.49 km</desc>
<time>2011-09-24T10:21:17.08</time>
<name>2746</name>
</trkpt>
<trkpt lat="41.790857" lon="-1.766390">
<ele>1052.0</ele>
<speed>10.8</speed>
<course>231.7</course>
<desc>Speed 10.8 km/h Distance 9.49 km</desc>
<time>2011-09-24T10:21:18.08</time>
<name>2747</name>
</trkpt>
<trkpt lat="41.790840" lon="-1.766418">
<ele>1052.0</ele>
<speed>10.8</speed>
<course>229.0</course>
<desc>Speed 10.8 km/h Distance 9.50 km</desc>
<time>2011-09-24T10:21:19.08</time>
<name>2748</name>
</trkpt>
<trkpt lat="41.790822" lon="-1.766447">
<ele>1052.5</ele>
<speed>11.3</speed>
<course>226.5</course>
<desc>Speed 11.3 km/h Distance 9.50 km</desc>
<time>2011-09-24T10:21:20.08</time>
<name>2749</name>
</trkpt>
<trkpt lat="41.790802" lon="-1.766475">
<ele>1052.5</ele>
<speed>11.7</speed>
<course>222.6</course>
<desc>Speed 11.7 km/h Distance 9.50 km</desc>
<time>2011-09-24T10:21:21.08</time>
<name>2750</name>
</trkpt>
<trkpt lat="41.790780" lon="-1.766502">
<ele>1052.5</ele>
<speed>11.8</speed>
<course>227.4</course>
<desc>Speed 11.8 km/h Distance 9.51 km</desc>
<time>2011-09-24T10:21:22.31</time>
<name>2751</name>
</trkpt>
<trkpt lat="41.790740" lon="-1.766560">
<ele>1052.5</ele>
<speed>11.7</speed>
<course>226.5</course>
<desc>Speed 11.7 km/h Distance 9.51 km</desc>
<time>2011-09-24T10:21:24.08</time>
<name>2752</name>
</trkpt>
<trkpt lat="41.790720" lon="-1.766588">
<ele>1052.5</ele>
<speed>11.6</speed>
<course>226.5</course>
<desc>Speed 11.6 km/h Distance 9.52 km</desc>
<time>2011-09-24T10:21:25.08</time>
<name>2753</name>
</trkpt>
<trkpt lat="41.790700" lon="-1.766617">
<ele>1053.0</ele>
<speed>11.8</speed>
<course>228.2</course>
<desc>Speed 11.8 km/h Distance 9.52 km</desc>
<time>2011-09-24T10:21:26.08</time>
<name>2754</name>
</trkpt>
<trkpt lat="41.790680" lon="-1.766647">
<ele>1053.0</ele>
<speed>11.8</speed>
<course>224.9</course>
<desc>Speed 11.8 km/h Distance 9.52 km</desc>
<time>2011-09-24T10:21:27.08</time>
<name>2755</name>
</trkpt>
<trkpt lat="41.790660" lon="-1.766673">
<ele>1053.0</ele>
<speed>11.8</speed>
<course>228.2</course>
<desc>Speed 11.8 km/h Distance 9.53 km</desc>
<time>2011-09-24T10:21:28.07</time>
<name>2756</name>
</trkpt>
<trkpt lat="41.790640" lon="-1.766703">
<ele>1053.0</ele>
<speed>11.8</speed>
<course>224.9</course>
<desc>Speed 11.8 km/h Distance 9.53 km</desc>
<time>2011-09-24T10:21:29.07</time>
<name>2757</name>
</trkpt>
<trkpt lat="41.790620" lon="-1.766730">
<ele>1053.5</ele>
<speed>11.7</speed>
<course>226.6</course>
<desc>Speed 11.7 km/h Distance 9.53 km</desc>
<time>2011-09-24T10:21:30.07</time>
<name>2758</name>
</trkpt>
<trkpt lat="41.790600" lon="-1.766758">
<ele>1053.5</ele>
<speed>11.7</speed>
<course>226.5</course>
<desc>Speed 11.7 km/h Distance 9.54 km</desc>
<time>2011-09-24T10:21:31.07</time>
<name>2759</name>
</trkpt>
<trkpt lat="41.790580" lon="-1.766787">
<ele>1053.5</ele>
<speed>11.5</speed>
<course>224.5</course>
<desc>Speed 11.5 km/h Distance 9.54 km</desc>
<time>2011-09-24T10:21:32.78</time>
<name>2760</name>
</trkpt>
<trkpt lat="41.790538" lon="-1.766842">
<ele>1054.0</ele>
<speed>11.5</speed>
<course>229.0</course>
<desc>Speed 11.5 km/h Distance 9.54 km</desc>
<time>2011-09-24T10:21:34.07</time>
<name>2761</name>
</trkpt>
<trkpt lat="41.790520" lon="-1.766870">
<ele>1054.0</ele>
<speed>11.4</speed>
<course>227.3</course>
<desc>Speed 11.4 km/h Distance 9.55 km</desc>
<time>2011-09-24T10:21:35.07</time>
<name>2762</name>
</trkpt>
<trkpt lat="41.790502" lon="-1.766897">
<ele>1054.0</ele>
<speed>11.3</speed>
<course>218.6</course>
<desc>Speed 11.3 km/h Distance 9.55 km</desc>
<time>2011-09-24T10:21:36.07</time>
<name>2763</name>
</trkpt>
<trkpt lat="41.790478" lon="-1.766922">
<ele>1054.0</ele>
<speed>11.3</speed>
<course>229.0</course>
<desc>Speed 11.3 km/h Distance 9.55 km</desc>
<time>2011-09-24T10:21:37.07</time>
<name>2764</name>
</trkpt>
<trkpt lat="41.790460" lon="-1.766950">
<ele>1054.5</ele>
<speed>11.7</speed>
<course>224.2</course>
<desc>Speed 11.7 km/h Distance 9.56 km</desc>
<time>2011-09-24T10:21:38.07</time>
<name>2765</name>
</trkpt>
<trkpt lat="41.790438" lon="-1.766978">
<ele>1054.5</ele>
<speed>12.0</speed>
<course>228.2</course>
<desc>Speed 12.0 km/h Distance 9.56 km</desc>
<time>2011-09-24T10:21:39.06</time>
<name>2766</name>
</trkpt>
<trkpt lat="41.790418" lon="-1.767008">
<ele>1054.5</ele>
<speed>12.0</speed>
<course>228.2</course>
<desc>Speed 12.0 km/h Distance 9.56 km</desc>
<time>2011-09-24T10:21:40.06</time>
<name>2767</name>
</trkpt>
<trkpt lat="41.790398" lon="-1.767038">
<ele>1054.5</ele>
<speed>12.0</speed>
<course>226.5</course>
<desc>Speed 12.0 km/h Distance 9.57 km</desc>
<time>2011-09-24T10:21:41.06</time>
<name>2768</name>
</trkpt>
<trkpt lat="41.790378" lon="-1.767067">
<ele>1054.5</ele>
<speed>11.9</speed>
<course>224.3</course>
<desc>Speed 11.9 km/h Distance 9.57 km</desc>
<time>2011-09-24T10:21:42.06</time>
<name>2769</name>
</trkpt>
<trkpt lat="41.790357" lon="-1.767095">
<ele>1055.0</ele>
<speed>11.9</speed>
<course>230.7</course>
<desc>Speed 11.9 km/h Distance 9.57 km</desc>
<time>2011-09-24T10:21:43.06</time>
<name>2770</name>
</trkpt>
<trkpt lat="41.790338" lon="-1.767125">
<ele>1055.0</ele>
<speed>11.7</speed>
<course>226.6</course>
<desc>Speed 11.7 km/h Distance 9.58 km</desc>
<time>2011-09-24T10:21:44.06</time>
<name>2771</name>
</trkpt>
<trkpt lat="41.790318" lon="-1.767153">
<ele>1055.0</ele>
<speed>11.7</speed>
<course>226.6</course>
<desc>Speed 11.7 km/h Distance 9.58 km</desc>
<time>2011-09-24T10:21:45.05</time>
<name>2772</name>
</trkpt>
<trkpt lat="41.790298" lon="-1.767182">
<ele>1055.0</ele>
<speed>11.7</speed>
<course>226.5</course>
<desc>Speed 11.7 km/h Distance 9.58 km</desc>
<time>2011-09-24T10:21:46.05</time>
<name>2773</name>
</trkpt>
<trkpt lat="41.790278" lon="-1.767210">
<ele>1055.0</ele>
<speed>11.6</speed>
<course>226.6</course>
<desc>Speed 11.6 km/h Distance 9.59 km</desc>
<time>2011-09-24T10:21:47.05</time>
<name>2774</name>
</trkpt>
<trkpt lat="41.790258" lon="-1.767238">
<ele>1055.0</ele>
<speed>11.5</speed>
<course>227.3</course>
<desc>Speed 11.5 km/h Distance 9.59 km</desc>
<time>2011-09-24T10:21:48.05</time>
<name>2775</name>
</trkpt>
<trkpt lat="41.790240" lon="-1.767265">
<ele>1055.0</ele>
<speed>10.9</speed>
<course>227.3</course>
<desc>Speed 10.9 km/h Distance 9.59 km</desc>
<time>2011-09-24T10:21:49.05</time>
<name>2776</name>
</trkpt>
<trkpt lat="41.790222" lon="-1.767292">
<ele>1055.0</ele>
<speed>11.0</speed>
<course>230.0</course>
<desc>Speed 11.0 km/h Distance 9.60 km</desc>
<time>2011-09-24T10:21:50.05</time>
<name>2777</name>
</trkpt>
<trkpt lat="41.790205" lon="-1.767318">
<ele>1055.0</ele>
<speed>10.7</speed>
<course>224.9</course>
<desc>Speed 10.7 km/h Distance 9.60 km</desc>
<time>2011-09-24T10:21:51.06</time>
<name>2778</name>
</trkpt>
<trkpt lat="41.790185" lon="-1.767345">
<ele>1055.0</ele>
<speed>11.1</speed>
<course>233.3</course>
<desc>Speed 11.1 km/h Distance 9.60 km</desc>
<time>2011-09-24T10:21:52.05</time>
<name>2779</name>
</trkpt>
<trkpt lat="41.790168" lon="-1.767375">
<ele>1055.0</ele>
<speed>11.0</speed>
<course>223.4</course>
<desc>Speed 11.0 km/h Distance 9.61 km</desc>
<time>2011-09-24T10:21:53.05</time>
<name>2780</name>
</trkpt>
<trkpt lat="41.790143" lon="-1.767407">
<ele>1055.5</ele>
<speed>13.9</speed>
<course>226.8</course>
<desc>Speed 13.9 km/h Distance 9.61 km</desc>
<time>2011-09-24T10:21:54.05</time>
<name>2781</name>
</trkpt>
<trkpt lat="41.790120" lon="-1.767440">
<ele>1055.5</ele>
<speed>13.7</speed>
<course>228.2</course>
<desc>Speed 13.7 km/h Distance 9.61 km</desc>
<time>2011-09-24T10:21:55.05</time>
<name>2782</name>
</trkpt>
<trkpt lat="41.790100" lon="-1.767470">
<ele>1055.5</ele>
<speed>11.9</speed>
<course>226.6</course>
<desc>Speed 11.9 km/h Distance 9.62 km</desc>
<time>2011-09-24T10:21:56.04</time>
<name>2783</name>
</trkpt>
<trkpt lat="41.790080" lon="-1.767498">
<ele>1055.5</ele>
<speed>11.1</speed>
<course>226.2</course>
<desc>Speed 11.1 km/h Distance 9.62 km</desc>
<time>2011-09-24T10:21:57.04</time>
<name>2784</name>
</trkpt>
<trkpt lat="41.790063" lon="-1.767522">
<ele>1056.0</ele>
<speed>10.0</speed>
<course>224.9</course>
<desc>Speed 10.0 km/h Distance 9.62 km</desc>
<time>2011-09-24T10:21:58.04</time>
<name>2785</name>
</trkpt>
<trkpt lat="41.790043" lon="-1.767548">
<ele>1056.5</ele>
<speed>10.4</speed>
<course>222.9</course>
<desc>Speed 10.4 km/h Distance 9.63 km</desc>
<time>2011-09-24T10:21:59.04</time>
<name>2786</name>
</trkpt>
<trkpt lat="41.790023" lon="-1.767573">
<ele>1056.5</ele>
<speed>10.7</speed>
<course>226.2</course>
<desc>Speed 10.7 km/h Distance 9.63 km</desc>
<time>2011-09-24T10:22:00.04</time>
<name>2787</name>
</trkpt>
<trkpt lat="41.790007" lon="-1.767597">
<ele>1056.0</ele>
<speed>10.4</speed>
<course>224.8</course>
<desc>Speed 10.4 km/h Distance 9.63 km</desc>
<time>2011-09-24T10:22:01.04</time>
<name>2788</name>
</trkpt>
<trkpt lat="41.789987" lon="-1.767623">
<ele>1056.5</ele>
<speed>10.7</speed>
<course>228.2</course>
<desc>Speed 10.7 km/h Distance 9.63 km</desc>
<time>2011-09-24T10:22:02.04</time>
<name>2789</name>
</trkpt>
<trkpt lat="41.789970" lon="-1.767648">
<ele>1056.0</ele>
<speed>10.4</speed>
<course>227.4</course>
<desc>Speed 10.4 km/h Distance 9.64 km</desc>
<time>2011-09-24T10:22:03.04</time>
<name>2790</name>
</trkpt>
<trkpt lat="41.789952" lon="-1.767675">
<ele>1056.0</ele>
<speed>10.4</speed>
<course>229.1</course>
<desc>Speed 10.4 km/h Distance 9.64 km</desc>
<time>2011-09-24T10:22:04.04</time>
<name>2791</name>
</trkpt>
<trkpt lat="41.789933" lon="-1.767703">
<ele>1056.0</ele>
<speed>10.9</speed>
<course>225.5</course>
<desc>Speed 10.9 km/h Distance 9.64 km</desc>
<time>2011-09-24T10:22:05.04</time>
<name>2792</name>
</trkpt>
<trkpt lat="41.789915" lon="-1.767728">
<ele>1056.0</ele>
<speed>10.9</speed>
<course>231.7</course>
<desc>Speed 10.9 km/h Distance 9.65 km</desc>
<time>2011-09-24T10:22:06.03</time>
<name>2793</name>
</trkpt>
<trkpt lat="41.789898" lon="-1.767757">
<ele>1056.0</ele>
<speed>10.8</speed>
<course>230.7</course>
<desc>Speed 10.8 km/h Distance 9.65 km</desc>
<time>2011-09-24T10:22:07.03</time>
<name>2794</name>
</trkpt>
<trkpt lat="41.789880" lon="-1.767787">
<ele>1056.0</ele>
<speed>11.0</speed>
<course>233.3</course>
<desc>Speed 11.0 km/h Distance 9.65 km</desc>
<time>2011-09-24T10:22:08.03</time>
<name>2795</name>
</trkpt>
<trkpt lat="41.789863" lon="-1.767817">
<ele>1056.0</ele>
<speed>11.1</speed>
<course>220.7</course>
<desc>Speed 11.1 km/h Distance 9.66 km</desc>
<time>2011-09-24T10:22:09.05</time>
<name>2796</name>
</trkpt>
<trkpt lat="41.789842" lon="-1.767842">
<ele>1055.5</ele>
<speed>11.6</speed>
<course>222.6</course>
<desc>Speed 11.6 km/h Distance 9.66 km</desc>
<time>2011-09-24T10:22:10.03</time>
<name>2797</name>
</trkpt>
<trkpt lat="41.789820" lon="-1.767868">
<ele>1056.0</ele>
<speed>12.0</speed>
<course>225.9</course>
<desc>Speed 12.0 km/h Distance 9.66 km</desc>
<time>2011-09-24T10:22:11.03</time>
<name>2798</name>
</trkpt>
<trkpt lat="41.789798" lon="-1.767898">
<ele>1056.0</ele>
<speed>12.3</speed>
<course>224.3</course>
<desc>Speed 12.3 km/h Distance 9.67 km</desc>
<time>2011-09-24T10:22:12.04</time>
<name>2799</name>
</trkpt>
<trkpt lat="41.789777" lon="-1.767927">
<ele>1056.0</ele>
<speed>12.4</speed>
<course>225.9</course>
<desc>Speed 12.4 km/h Distance 9.67 km</desc>
<time>2011-09-24T10:22:13.03</time>
<name>2800</name>
</trkpt>
<trkpt lat="41.789755" lon="-1.767957">
<ele>1056.0</ele>
<speed>12.7</speed>
<course>225.3</course>
<desc>Speed 12.7 km/h Distance 9.67 km</desc>
<time>2011-09-24T10:22:14.03</time>
<name>2801</name>
</trkpt>
<trkpt lat="41.789732" lon="-1.767988">
<ele>1056.0</ele>
<speed>13.0</speed>
<course>228.2</course>
<desc>Speed 13.0 km/h Distance 9.68 km</desc>
<time>2011-09-24T10:22:15.02</time>
<name>2802</name>
</trkpt>
<trkpt lat="41.789708" lon="-1.768023">
<ele>1056.5</ele>
<speed>13.6</speed>
<course>230.3</course>
<desc>Speed 13.6 km/h Distance 9.68 km</desc>
<time>2011-09-24T10:22:16.02</time>
<name>2803</name>
</trkpt>
<trkpt lat="41.789687" lon="-1.768058">
<ele>1056.5</ele>
<speed>13.7</speed>
<course>223.4</course>
<desc>Speed 13.7 km/h Distance 9.68 km</desc>
<time>2011-09-24T10:22:17.02</time>
<name>2804</name>
</trkpt>
<trkpt lat="41.789662" lon="-1.768090">
<ele>1056.5</ele>
<speed>13.9</speed>
<course>229.5</course>
<desc>Speed 13.9 km/h Distance 9.69 km</desc>
<time>2011-09-24T10:22:18.02</time>
<name>2805</name>
</trkpt>
<trkpt lat="41.789638" lon="-1.768127">
<ele>1056.5</ele>
<speed>13.7</speed>
<course>229.5</course>
<desc>Speed 13.7 km/h Distance 9.69 km</desc>
<time>2011-09-24T10:22:19.02</time>
<name>2806</name>
</trkpt>
<trkpt lat="41.789615" lon="-1.768163">
<ele>1056.5</ele>
<speed>13.9</speed>
<course>224.8</course>
<desc>Speed 13.9 km/h Distance 9.70 km</desc>
<time>2011-09-24T10:22:20.02</time>
<name>2807</name>
</trkpt>
<trkpt lat="41.789590" lon="-1.768197">
<ele>1057.0</ele>
<speed>14.2</speed>
<course>224.8</course>
<desc>Speed 14.2 km/h Distance 9.70 km</desc>
<time>2011-09-24T10:22:21.02</time>
<name>2808</name>
</trkpt>
<trkpt lat="41.789565" lon="-1.768230">
<ele>1057.0</ele>
<speed>13.8</speed>
<course>226.8</course>
<desc>Speed 13.8 km/h Distance 9.70 km</desc>
<time>2011-09-24T10:22:22.01</time>
<name>2809</name>
</trkpt>
<trkpt lat="41.789542" lon="-1.768263">
<ele>1057.5</ele>
<speed>13.4</speed>
<course>226.8</course>
<desc>Speed 13.4 km/h Distance 9.71 km</desc>
<time>2011-09-24T10:22:23.02</time>
<name>2810</name>
</trkpt>
<trkpt lat="41.789518" lon="-1.768297">
<ele>1057.5</ele>
<speed>13.2</speed>
<course>226.8</course>
<desc>Speed 13.2 km/h Distance 9.71 km</desc>
<time>2011-09-24T10:22:24.01</time>
<name>2811</name>
</trkpt>
<trkpt lat="41.789495" lon="-1.768330">
<ele>1058.0</ele>
<speed>13.3</speed>
<course>230.3</course>
<desc>Speed 13.3 km/h Distance 9.71 km</desc>
<time>2011-09-24T10:22:25.02</time>
<name>2812</name>
</trkpt>
<trkpt lat="41.789473" lon="-1.768365">
<ele>1058.5</ele>
<speed>13.3</speed>
<course>229.5</course>
<desc>Speed 13.3 km/h Distance 9.72 km</desc>
<time>2011-09-24T10:22:26.01</time>
<name>2813</name>
</trkpt>
<trkpt lat="41.789450" lon="-1.768402">
<ele>1058.5</ele>
<speed>13.5</speed>
<course>233.8</course>
<desc>Speed 13.5 km/h Distance 9.72 km</desc>
<time>2011-09-24T10:22:27.01</time>
<name>2814</name>
</trkpt>
<trkpt lat="41.789430" lon="-1.768438">
<ele>1059.0</ele>
<speed>13.5</speed>
<course>231.6</course>
<desc>Speed 13.5 km/h Distance 9.73 km</desc>
<time>2011-09-24T10:22:28.01</time>
<name>2815</name>
</trkpt>
<trkpt lat="41.789408" lon="-1.768475">
<ele>1059.0</ele>
<speed>14.2</speed>
<course>235.0</course>
<desc>Speed 14.2 km/h Distance 9.73 km</desc>
<time>2011-09-24T10:22:29.01</time>
<name>2816</name>
</trkpt>
<trkpt lat="41.789388" lon="-1.768513">
<ele>1059.0</ele>
<speed>13.9</speed>
<course>233.8</course>
<desc>Speed 13.9 km/h Distance 9.73 km</desc>
<time>2011-09-24T10:22:30.01</time>
<name>2817</name>
</trkpt>
<trkpt lat="41.789368" lon="-1.768550">
<ele>1059.5</ele>
<speed>13.6</speed>
<course>231.6</course>
<desc>Speed 13.6 km/h Distance 9.74 km</desc>
<time>2011-09-24T10:22:31.01</time>
<name>2818</name>
</trkpt>
<trkpt lat="41.789347" lon="-1.768587">
<ele>1060.0</ele>
<speed>13.5</speed>
<course>236.1</course>
<desc>Speed 13.5 km/h Distance 9.74 km</desc>
<time>2011-09-24T10:22:32.01</time>
<name>2819</name>
</trkpt>
<trkpt lat="41.789328" lon="-1.768623">
<ele>1060.0</ele>
<speed>13.4</speed>
<course>237.3</course>
<desc>Speed 13.4 km/h Distance 9.75 km</desc>
<time>2011-09-24T10:22:33.01</time>
<name>2820</name>
</trkpt>
<trkpt lat="41.789310" lon="-1.768662">
<ele>1060.0</ele>
<speed>13.4</speed>
<course>245.0</course>
<desc>Speed 13.4 km/h Distance 9.75 km</desc>
<time>2011-09-24T10:22:34.00</time>
<name>2821</name>
</trkpt>
<trkpt lat="41.789297" lon="-1.768700">
<ele>1060.0</ele>
<speed>12.5</speed>
<course>239.8</course>
<desc>Speed 12.5 km/h Distance 9.75 km</desc>
<time>2011-09-24T10:22:35.01</time>
<name>2822</name>
</trkpt>
<trkpt lat="41.789280" lon="-1.768738">
<ele>1060.0</ele>
<speed>13.4</speed>
<course>237.3</course>
<desc>Speed 13.4 km/h Distance 9.76 km</desc>
<time>2011-09-24T10:22:36.00</time>
<name>2823</name>
</trkpt>
<trkpt lat="41.789262" lon="-1.768777">
<ele>1060.5</ele>
<speed>13.4</speed>
<course>243.3</course>
<desc>Speed 13.4 km/h Distance 9.76 km</desc>
<time>2011-09-24T10:22:37.00</time>
<name>2824</name>
</trkpt>
<trkpt lat="41.789247" lon="-1.768817">
<ele>1060.5</ele>
<speed>13.3</speed>
<course>242.3</course>
<desc>Speed 13.3 km/h Distance 9.76 km</desc>
<time>2011-09-24T10:22:38.00</time>
<name>2825</name>
</trkpt>
<trkpt lat="41.789232" lon="-1.768855">
<ele>1060.5</ele>
<speed>13.1</speed>
<course>239.8</course>
<desc>Speed 13.1 km/h Distance 9.77 km</desc>
<time>2011-09-24T10:22:39.00</time>
<name>2826</name>
</trkpt>
<trkpt lat="41.789215" lon="-1.768893">
<ele>1060.5</ele>
<speed>13.1</speed>
<course>245.9</course>
<desc>Speed 13.1 km/h Distance 9.77 km</desc>
<time>2011-09-24T10:22:40.00</time>
<name>2827</name>
</trkpt>
<trkpt lat="41.789202" lon="-1.768933">
<ele>1061.0</ele>
<speed>13.0</speed>
<course>245.9</course>
<desc>Speed 13.0 km/h Distance 9.77 km</desc>
<time>2011-09-24T10:22:41.00</time>
<name>2828</name>
</trkpt>
<trkpt lat="41.789188" lon="-1.768973">
<ele>1061.0</ele>
<speed>12.8</speed>
<course>245.0</course>
<desc>Speed 12.8 km/h Distance 9.78 km</desc>
<time>2011-09-24T10:22:41.99</time>
<name>2829</name>
</trkpt>
<trkpt lat="41.789175" lon="-1.769012">
<ele>1061.0</ele>
<speed>12.7</speed>
<course>248.6</course>
<desc>Speed 12.7 km/h Distance 9.78 km</desc>
<time>2011-09-24T10:22:42.99</time>
<name>2830</name>
</trkpt>
<trkpt lat="41.789163" lon="-1.769052">
<ele>1061.5</ele>
<speed>12.9</speed>
<course>246.8</course>
<desc>Speed 12.9 km/h Distance 9.79 km</desc>
<time>2011-09-24T10:22:44.00</time>
<name>2831</name>
</trkpt>
<trkpt lat="41.789150" lon="-1.769093">
<ele>1061.5</ele>
<speed>13.0</speed>
<course>245.0</course>
<desc>Speed 13.0 km/h Distance 9.79 km</desc>
<time>2011-09-24T10:22:44.99</time>
<name>2832</name>
</trkpt>
<trkpt lat="41.789137" lon="-1.769132">
<ele>1061.5</ele>
<speed>12.8</speed>
<course>248.6</course>
<desc>Speed 12.8 km/h Distance 9.79 km</desc>
<time>2011-09-24T10:22:45.99</time>
<name>2833</name>
</trkpt>
<trkpt lat="41.789125" lon="-1.769172">
<ele>1061.5</ele>
<speed>12.6</speed>
<course>251.5</course>
<desc>Speed 12.6 km/h Distance 9.80 km</desc>
<time>2011-09-24T10:22:46.99</time>
<name>2834</name>
</trkpt>
<trkpt lat="41.789115" lon="-1.769212">
<ele>1062.0</ele>
<speed>12.6</speed>
<course>248.6</course>
<desc>Speed 12.6 km/h Distance 9.80 km</desc>
<time>2011-09-24T10:22:47.99</time>
<name>2835</name>
</trkpt>
<trkpt lat="41.789103" lon="-1.769252">
<ele>1062.0</ele>
<speed>12.4</speed>
<course>253.7</course>
<desc>Speed 12.4 km/h Distance 9.80 km</desc>
<time>2011-09-24T10:22:48.98</time>
<name>2836</name>
</trkpt>
<trkpt lat="41.789095" lon="-1.769290">
<ele>1062.5</ele>
<speed>12.2</speed>
<course>248.6</course>
<desc>Speed 12.2 km/h Distance 9.81 km</desc>
<time>2011-09-24T10:22:49.99</time>
<name>2837</name>
</trkpt>
<trkpt lat="41.789083" lon="-1.769330">
<ele>1062.5</ele>
<speed>12.5</speed>
<course>251.5</course>
<desc>Speed 12.5 km/h Distance 9.81 km</desc>
<time>2011-09-24T10:22:50.98</time>
<name>2838</name>
</trkpt>
<trkpt lat="41.789073" lon="-1.769370">
<ele>1062.5</ele>
<speed>12.6</speed>
<course>257.9</course>
<desc>Speed 12.6 km/h Distance 9.81 km</desc>
<time>2011-09-24T10:22:51.98</time>
<name>2839</name>
</trkpt>
<trkpt lat="41.789067" lon="-1.769412">
<ele>1062.5</ele>
<speed>12.5</speed>
<course>254.4</course>
<desc>Speed 12.5 km/h Distance 9.82 km</desc>
<time>2011-09-24T10:22:52.98</time>
<name>2840</name>
</trkpt>
<trkpt lat="41.789058" lon="-1.769452">
<ele>1063.0</ele>
<speed>12.4</speed>
<course>254.4</course>
<desc>Speed 12.4 km/h Distance 9.82 km</desc>
<time>2011-09-24T10:22:53.98</time>
<name>2841</name>
</trkpt>
<trkpt lat="41.789050" lon="-1.769492">
<ele>1063.0</ele>
<speed>12.3</speed>
<course>254.4</course>
<desc>Speed 12.3 km/h Distance 9.82 km</desc>
<time>2011-09-24T10:22:54.99</time>
<name>2842</name>
</trkpt>
<trkpt lat="41.789042" lon="-1.769532">
<ele>1063.0</ele>
<speed>12.3</speed>
<course>257.4</course>
<desc>Speed 12.3 km/h Distance 9.83 km</desc>
<time>2011-09-24T10:22:55.98</time>
<name>2843</name>
</trkpt>
<trkpt lat="41.789035" lon="-1.769572">
<ele>1063.0</ele>
<speed>12.1</speed>
<course>259.6</course>
<desc>Speed 12.1 km/h Distance 9.83 km</desc>
<time>2011-09-24T10:22:56.98</time>
<name>2844</name>
</trkpt>
<trkpt lat="41.789030" lon="-1.769608">
<ele>1063.0</ele>
<speed>10.7</speed>
<course>263.0</course>
<desc>Speed 10.7 km/h Distance 9.83 km</desc>
<time>2011-09-24T10:22:57.97</time>
<name>2845</name>
</trkpt>
<trkpt lat="41.789027" lon="-1.769645">
<ele>1062.5</ele>
<speed>11.0</speed>
<course>260.1</course>
<desc>Speed 11.0 km/h Distance 9.84 km</desc>
<time>2011-09-24T10:22:58.97</time>
<name>2846</name>
</trkpt>
<trkpt lat="41.789022" lon="-1.769683">
<ele>1062.0</ele>
<speed>11.5</speed>
<course>256.3</course>
<desc>Speed 11.5 km/h Distance 9.84 km</desc>
<time>2011-09-24T10:22:59.98</time>
<name>2847</name>
</trkpt>
<trkpt lat="41.789015" lon="-1.769720">
<ele>1062.5</ele>
<speed>11.3</speed>
<course>256.9</course>
<desc>Speed 11.3 km/h Distance 9.84 km</desc>
<time>2011-09-24T10:23:00.97</time>
<name>2848</name>
</trkpt>
<trkpt lat="41.789008" lon="-1.769758">
<ele>1062.5</ele>
<speed>11.4</speed>
<course>263.0</course>
<desc>Speed 11.4 km/h Distance 9.85 km</desc>
<time>2011-09-24T10:23:01.98</time>
<name>2849</name>
</trkpt>
<trkpt lat="41.789005" lon="-1.769795">
<ele>1062.0</ele>
<speed>11.0</speed>
<course>256.9</course>
<desc>Speed 11.0 km/h Distance 9.85 km</desc>
<time>2011-09-24T10:23:02.97</time>
<name>2850</name>
</trkpt>
<trkpt lat="41.788998" lon="-1.769833">
<ele>1062.5</ele>
<speed>11.5</speed>
<course>266.8</course>
<desc>Speed 11.5 km/h Distance 9.85 km</desc>
<time>2011-09-24T10:23:03.96</time>
<name>2851</name>
</trkpt>
<trkpt lat="41.788997" lon="-1.769873">
<ele>1062.0</ele>
<speed>11.6</speed>
<course>266.5</course>
<desc>Speed 11.6 km/h Distance 9.86 km</desc>
<time>2011-09-24T10:23:04.96</time>
<name>2852</name>
</trkpt>
<trkpt lat="41.788995" lon="-1.769910">
<ele>1061.5</ele>
<speed>11.1</speed>
<course>266.7</course>
<desc>Speed 11.1 km/h Distance 9.86 km</desc>
<time>2011-09-24T10:23:05.96</time>
<name>2853</name>
</trkpt>
<trkpt lat="41.788993" lon="-1.769948">
<ele>1061.5</ele>
<speed>11.1</speed>
<course>263.3</course>
<desc>Speed 11.1 km/h Distance 9.86 km</desc>
<time>2011-09-24T10:23:06.96</time>
<name>2854</name>
</trkpt>
<trkpt lat="41.788990" lon="-1.769987">
<ele>1061.5</ele>
<speed>11.4</speed>
<course>266.8</course>
<desc>Speed 11.4 km/h Distance 9.87 km</desc>
<time>2011-09-24T10:23:07.96</time>
<name>2855</name>
</trkpt>
<trkpt lat="41.788988" lon="-1.770027">
<ele>1061.0</ele>
<speed>11.5</speed>
<course>260.9</course>
<desc>Speed 11.5 km/h Distance 9.87 km</desc>
<time>2011-09-24T10:23:08.96</time>
<name>2856</name>
</trkpt>
<trkpt lat="41.788983" lon="-1.770068">
<ele>1061.5</ele>
<speed>12.3</speed>
<course>266.9</course>
<desc>Speed 12.3 km/h Distance 9.87 km</desc>
<time>2011-09-24T10:23:09.96</time>
<name>2857</name>
</trkpt>
<trkpt lat="41.788982" lon="-1.770110">
<ele>1061.5</ele>
<speed>12.4</speed>
<course>270.0</course>
<desc>Speed 12.4 km/h Distance 9.88 km</desc>
<time>2011-09-24T10:23:10.96</time>
<name>2858</name>
</trkpt>
<trkpt lat="41.788982" lon="-1.770150">
<ele>1061.0</ele>
<speed>11.4</speed>
<course>260.5</course>
<desc>Speed 11.4 km/h Distance 9.88 km</desc>
<time>2011-09-24T10:23:11.96</time>
<name>2859</name>
</trkpt>
<trkpt lat="41.788977" lon="-1.770190">
<ele>1061.0</ele>
<speed>11.9</speed>
<course>270.0</course>
<desc>Speed 11.9 km/h Distance 9.88 km</desc>
<time>2011-09-24T10:23:12.95</time>
<name>2860</name>
</trkpt>
<trkpt lat="41.788977" lon="-1.770230">
<ele>1061.0</ele>
<speed>11.4</speed>
<course>273.3</course>
<desc>Speed 11.4 km/h Distance 9.89 km</desc>
<time>2011-09-24T10:23:13.96</time>
<name>2861</name>
</trkpt>
<trkpt lat="41.788978" lon="-1.770268">
<ele>1060.5</ele>
<speed>11.6</speed>
<course>273.1</course>
<desc>Speed 11.6 km/h Distance 9.89 km</desc>
<time>2011-09-24T10:23:14.95</time>
<name>2862</name>
</trkpt>
<trkpt lat="41.788980" lon="-1.770310">
<ele>1060.5</ele>
<speed>11.8</speed>
<course>266.9</course>
<desc>Speed 11.8 km/h Distance 9.89 km</desc>
<time>2011-09-24T10:23:15.97</time>
<name>2863</name>
</trkpt>
<trkpt lat="41.788978" lon="-1.770352">
<ele>1060.5</ele>
<speed>12.2</speed>
<course>266.9</course>
<desc>Speed 12.2 km/h Distance 9.90 km</desc>
<time>2011-09-24T10:23:16.95</time>
<name>2864</name>
</trkpt>
<trkpt lat="41.788977" lon="-1.770393">
<ele>1061.0</ele>
<speed>12.1</speed>
<course>270.0</course>
<desc>Speed 12.1 km/h Distance 9.90 km</desc>
<time>2011-09-24T10:23:17.95</time>
<name>2865</name>
</trkpt>
<trkpt lat="41.788977" lon="-1.770433">
<ele>1061.0</ele>
<speed>11.9</speed>
<course>266.9</course>
<desc>Speed 11.9 km/h Distance 9.90 km</desc>
<time>2011-09-24T10:23:18.95</time>
<name>2866</name>
</trkpt>
<trkpt lat="41.788975" lon="-1.770475">
<ele>1061.0</ele>
<speed>11.8</speed>
<course>266.8</course>
<desc>Speed 11.8 km/h Distance 9.91 km</desc>
<time>2011-09-24T10:23:19.95</time>
<name>2867</name>
</trkpt>
<trkpt lat="41.788973" lon="-1.770515">
<ele>1061.5</ele>
<speed>11.6</speed>
<course>273.5</course>
<desc>Speed 11.6 km/h Distance 9.91 km</desc>
<time>2011-09-24T10:23:20.95</time>
<name>2868</name>
</trkpt>
<trkpt lat="41.788975" lon="-1.770552">
<ele>1061.5</ele>
<speed>11.0</speed>
<course>277.0</course>
<desc>Speed 11.0 km/h Distance 9.91 km</desc>
<time>2011-09-24T10:23:21.95</time>
<name>2869</name>
</trkpt>
<trkpt lat="41.788978" lon="-1.770588">
<ele>1061.5</ele>
<speed>10.7</speed>
<course>263.0</course>
<desc>Speed 10.7 km/h Distance 9.92 km</desc>
<time>2011-09-24T10:23:22.95</time>
<name>2870</name>
</trkpt>
<trkpt lat="41.788975" lon="-1.770625">
<ele>1062.0</ele>
<speed>10.5</speed>
<course>270.0</course>
<desc>Speed 10.5 km/h Distance 9.92 km</desc>
<time>2011-09-24T10:23:23.94</time>
<name>2871</name>
</trkpt>
<trkpt lat="41.788975" lon="-1.770663">
<ele>1062.0</ele>
<speed>11.2</speed>
<course>277.0</course>
<desc>Speed 11.2 km/h Distance 9.92 km</desc>
<time>2011-09-24T10:23:24.95</time>
<name>2872</name>
</trkpt>
<trkpt lat="41.788978" lon="-1.770700">
<ele>1062.5</ele>
<speed>10.5</speed>
<course>273.5</course>
<desc>Speed 10.5 km/h Distance 9.93 km</desc>
<time>2011-09-24T10:23:25.94</time>
<name>2873</name>
</trkpt>
<trkpt lat="41.788980" lon="-1.770737">
<ele>1063.0</ele>
<speed>10.3</speed>
<course>284.3</course>
<desc>Speed 10.3 km/h Distance 9.93 km</desc>
<time>2011-09-24T10:23:26.94</time>
<name>2874</name>
</trkpt>
<trkpt lat="41.788987" lon="-1.770772">
<ele>1063.0</ele>
<speed>10.5</speed>
<course>284.3</course>
<desc>Speed 10.5 km/h Distance 9.93 km</desc>
<time>2011-09-24T10:23:27.94</time>
<name>2875</name>
</trkpt>
<trkpt lat="41.788993" lon="-1.770807">
<ele>1063.0</ele>
<speed>10.3</speed>
<course>284.3</course>
<desc>Speed 10.3 km/h Distance 9.93 km</desc>
<time>2011-09-24T10:23:28.94</time>
<name>2876</name>
</trkpt>
<trkpt lat="41.789000" lon="-1.770842">
<ele>1062.5</ele>
<speed>10.3</speed>
<course>280.8</course>
<desc>Speed 10.3 km/h Distance 9.94 km</desc>
<time>2011-09-24T10:23:29.94</time>
<name>2877</name>
</trkpt>
<trkpt lat="41.789005" lon="-1.770877">
<ele>1062.0</ele>
<speed>10.1</speed>
<course>283.7</course>
<desc>Speed 10.1 km/h Distance 9.94 km</desc>
<time>2011-09-24T10:23:30.94</time>
<name>2878</name>
</trkpt>
<trkpt lat="41.789012" lon="-1.770913">
<ele>1062.0</ele>
<speed>10.2</speed>
<course>280.8</course>
<desc>Speed 10.2 km/h Distance 9.94 km</desc>
<time>2011-09-24T10:23:31.94</time>
<name>2879</name>
</trkpt>
<trkpt lat="41.789017" lon="-1.770948">
<ele>1062.0</ele>
<speed>10.2</speed>
<course>277.3</course>
<desc>Speed 10.2 km/h Distance 9.95 km</desc>
<time>2011-09-24T10:23:32.94</time>
<name>2880</name>
</trkpt>
<trkpt lat="41.789020" lon="-1.770983">
<ele>1062.0</ele>
<speed>10.4</speed>
<course>281.4</course>
<desc>Speed 10.4 km/h Distance 9.95 km</desc>
<time>2011-09-24T10:23:33.94</time>
<name>2881</name>
</trkpt>
<trkpt lat="41.789025" lon="-1.771017">
<ele>1062.0</ele>
<speed>10.2</speed>
<course>277.0</course>
<desc>Speed 10.2 km/h Distance 9.95 km</desc>
<time>2011-09-24T10:23:34.94</time>
<name>2882</name>
</trkpt>
<trkpt lat="41.789028" lon="-1.771053">
<ele>1061.0</ele>
<speed>10.6</speed>
<course>294.1</course>
<desc>Speed 10.6 km/h Distance 9.96 km</desc>
<time>2011-09-24T10:23:35.94</time>
<name>2883</name>
</trkpt>
<trkpt lat="41.789038" lon="-1.771083">
<ele>1060.5</ele>
<speed>9.9</speed>
<course>295.1</course>
<desc>Speed 9.9 km/h Distance 9.96 km</desc>
<time>2011-09-24T10:23:36.94</time>
<name>2884</name>
</trkpt>
<trkpt lat="41.789050" lon="-1.771117">
<ele>1061.0</ele>
<speed>10.8</speed>
<course>293.0</course>
<desc>Speed 10.8 km/h Distance 9.96 km</desc>
<time>2011-09-24T10:23:37.94</time>
<name>2885</name>
</trkpt>
<trkpt lat="41.789060" lon="-1.771148">
<ele>1062.0</ele>
<speed>10.4</speed>
<course>288.5</course>
<desc>Speed 10.4 km/h Distance 9.96 km</desc>
<time>2011-09-24T10:23:38.94</time>
<name>2886</name>
</trkpt>
<trkpt lat="41.789068" lon="-1.771182">
<ele>1062.5</ele>
<speed>10.0</speed>
<course>289.4</course>
<desc>Speed 10.0 km/h Distance 9.97 km</desc>
<time>2011-09-24T10:23:39.94</time>
<name>2887</name>
</trkpt>
<trkpt lat="41.789077" lon="-1.771213">
<ele>1063.0</ele>
<speed>10.3</speed>
<course>288.5</course>
<desc>Speed 10.3 km/h Distance 9.97 km</desc>
<time>2011-09-24T10:23:40.93</time>
<name>2888</name>
</trkpt>
<trkpt lat="41.789085" lon="-1.771247">
<ele>1063.5</ele>
<speed>10.3</speed>
<course>296.3</course>
<desc>Speed 10.3 km/h Distance 9.97 km</desc>
<time>2011-09-24T10:23:41.93</time>
<name>2889</name>
</trkpt>
<trkpt lat="41.789097" lon="-1.771278">
<ele>1064.0</ele>
<speed>10.1</speed>
<course>293.0</course>
<desc>Speed 10.1 km/h Distance 9.98 km</desc>
<time>2011-09-24T10:23:42.93</time>
<name>2890</name>
</trkpt>
<trkpt lat="41.789107" lon="-1.771310">
<ele>1064.0</ele>
<speed>10.3</speed>
<course>293.0</course>
<desc>Speed 10.3 km/h Distance 9.98 km</desc>
<time>2011-09-24T10:23:43.93</time>
<name>2891</name>
</trkpt>
<trkpt lat="41.789117" lon="-1.771342">
<ele>1064.5</ele>
<speed>10.4</speed>
<course>297.5</course>
<desc>Speed 10.4 km/h Distance 9.98 km</desc>
<time>2011-09-24T10:23:44.94</time>
<name>2892</name>
</trkpt>
<trkpt lat="41.789128" lon="-1.771372">
<ele>1064.5</ele>
<speed>9.9</speed>
<course>284.1</course>
<desc>Speed 9.9 km/h Distance 9.98 km</desc>
<time>2011-09-24T10:23:45.93</time>
<name>2893</name>
</trkpt>
<trkpt lat="41.789133" lon="-1.771398">
<ele>1064.5</ele>
<speed>8.2</speed>
<course>289.4</course>
<desc>Speed 8.2 km/h Distance 9.99 km</desc>
<time>2011-09-24T10:23:46.93</time>
<name>2894</name>
</trkpt>
<trkpt lat="41.789142" lon="-1.771430">
<ele>1065.0</ele>
<speed>9.9</speed>
<course>297.5</course>
<desc>Speed 9.9 km/h Distance 9.99 km</desc>
<time>2011-09-24T10:23:47.93</time>
<name>2895</name>
</trkpt>
<trkpt lat="41.789153" lon="-1.771460">
<ele>1064.5</ele>
<speed>9.4</speed>
<course>298.9</course>
<desc>Speed 9.4 km/h Distance 9.99 km</desc>
<time>2011-09-24T10:23:48.93</time>
<name>2896</name>
</trkpt>
<trkpt lat="41.789165" lon="-1.771488">
<ele>1064.5</ele>
<speed>9.7</speed>
<course>300.8</course>
<desc>Speed 9.7 km/h Distance 9.99 km</desc>
<time>2011-09-24T10:23:49.93</time>
<name>2897</name>
</trkpt>
<trkpt lat="41.789178" lon="-1.771518">
<ele>1064.0</ele>
<speed>9.9</speed>
<course>299.4</course>
<desc>Speed 9.9 km/h Distance 10.00 km</desc>
<time>2011-09-24T10:23:50.92</time>
<name>2898</name>
</trkpt>
<trkpt lat="41.789192" lon="-1.771550">
<ele>1063.5</ele>
<speed>10.3</speed>
<course>312.7</course>
<desc>Speed 10.3 km/h Distance 10.00 km</desc>
<time>2011-09-24T10:23:51.93</time>
<name>2899</name>
</trkpt>
<trkpt lat="41.789210" lon="-1.771577">
<ele>1062.5</ele>
<speed>10.8</speed>
<course>309.3</course>
<desc>Speed 10.8 km/h Distance 10.00 km</desc>
<time>2011-09-24T10:23:52.93</time>
<name>2900</name>
</trkpt>
<trkpt lat="41.789228" lon="-1.771607">
<ele>1061.5</ele>
<speed>10.9</speed>
<course>286.3</course>
<desc>Speed 10.9 km/h Distance 10.01 km</desc>
<time>2011-09-24T10:23:53.92</time>
<name>2901</name>
</trkpt>
<trkpt lat="41.789237" lon="-1.771645">
<ele>1062.5</ele>
<speed>11.5</speed>
<course>296.3</course>
<desc>Speed 11.5 km/h Distance 10.01 km</desc>
<time>2011-09-24T10:23:54.93</time>
<name>2902</name>
</trkpt>
<trkpt lat="41.789248" lon="-1.771677">
<ele>1063.0</ele>
<speed>10.4</speed>
<course>297.5</course>
<desc>Speed 10.4 km/h Distance 10.01 km</desc>
<time>2011-09-24T10:23:55.92</time>
<name>2903</name>
</trkpt>
<trkpt lat="41.789260" lon="-1.771707">
<ele>1062.5</ele>
<speed>10.1</speed>
<course>298.2</course>
<desc>Speed 10.1 km/h Distance 10.02 km</desc>
<time>2011-09-24T10:23:56.92</time>
<name>2904</name>
</trkpt>
<trkpt lat="41.789273" lon="-1.771740">
<ele>1062.5</ele>
<speed>10.9</speed>
<course>299.4</course>
<desc>Speed 10.9 km/h Distance 10.02 km</desc>
<time>2011-09-24T10:23:57.92</time>
<name>2905</name>
</trkpt>
<trkpt lat="41.789287" lon="-1.771772">
<ele>1062.0</ele>
<speed>10.0</speed>
<course>302.4</course>
<desc>Speed 10.0 km/h Distance 10.02 km</desc>
<time>2011-09-24T10:23:58.92</time>
<name>2906</name>
</trkpt>
<trkpt lat="41.789302" lon="-1.771803">
<ele>1062.0</ele>
<speed>11.1</speed>
<course>305.1</course>
<desc>Speed 11.1 km/h Distance 10.02 km</desc>
<time>2011-09-24T10:23:59.92</time>
<name>2907</name>
</trkpt>
<trkpt lat="41.789320" lon="-1.771838">
<ele>1062.0</ele>
<speed>12.9</speed>
<course>306.2</course>
<desc>Speed 12.9 km/h Distance 10.03 km</desc>
<time>2011-09-24T10:24:00.92</time>
<name>2908</name>
</trkpt>
<trkpt lat="41.789340" lon="-1.771875">
<ele>1062.0</ele>
<speed>12.9</speed>
<course>302.7</course>
<desc>Speed 12.9 km/h Distance 10.03 km</desc>
<time>2011-09-24T10:24:01.92</time>
<name>2909</name>
</trkpt>
<trkpt lat="41.789358" lon="-1.771913">
<ele>1061.5</ele>
<speed>12.8</speed>
<course>291.4</course>
<desc>Speed 12.8 km/h Distance 10.04 km</desc>
<time>2011-09-24T10:24:02.91</time>
<name>2910</name>
</trkpt>
<trkpt lat="41.789370" lon="-1.771953">
<ele>1062.0</ele>
<speed>12.7</speed>
<course>299.2</course>
<desc>Speed 12.7 km/h Distance 10.04 km</desc>
<time>2011-09-24T10:24:03.92</time>
<name>2911</name>
</trkpt>
<trkpt lat="41.789387" lon="-1.771993">
<ele>1062.0</ele>
<speed>13.4</speed>
<course>300.2</course>
<desc>Speed 13.4 km/h Distance 10.04 km</desc>
<time>2011-09-24T10:24:04.91</time>
<name>2912</name>
</trkpt>
<trkpt lat="41.789403" lon="-1.772032">
<ele>1062.0</ele>
<speed>12.9</speed>
<course>305.0</course>
<desc>Speed 12.9 km/h Distance 10.05 km</desc>
<time>2011-09-24T10:24:05.92</time>
<name>2913</name>
</trkpt>
<trkpt lat="41.789423" lon="-1.772070">
<ele>1062.0</ele>
<speed>13.2</speed>
<course>309.2</course>
<desc>Speed 13.2 km/h Distance 10.05 km</desc>
<time>2011-09-24T10:24:06.91</time>
<name>2914</name>
</trkpt>
<trkpt lat="41.789447" lon="-1.772108">
<ele>1061.5</ele>
<speed>14.4</speed>
<course>306.2</course>
<desc>Speed 14.4 km/h Distance 10.05 km</desc>
<time>2011-09-24T10:24:07.91</time>
<name>2915</name>
</trkpt>
<trkpt lat="41.789467" lon="-1.772145">
<ele>1061.5</ele>
<speed>13.3</speed>
<course>302.7</course>
<desc>Speed 13.3 km/h Distance 10.06 km</desc>
<time>2011-09-24T10:24:08.91</time>
<name>2916</name>
</trkpt>
<trkpt lat="41.789485" lon="-1.772183">
<ele>1061.0</ele>
<speed>12.8</speed>
<course>299.9</course>
<desc>Speed 12.8 km/h Distance 10.06 km</desc>
<time>2011-09-24T10:24:09.91</time>
<name>2917</name>
</trkpt>
<trkpt lat="41.789500" lon="-1.772218">
<ele>1061.0</ele>
<speed>11.6</speed>
<course>302.7</course>
<desc>Speed 11.6 km/h Distance 10.07 km</desc>
<time>2011-09-24T10:24:10.91</time>
<name>2918</name>
</trkpt>
<trkpt lat="41.789518" lon="-1.772257">
<ele>1061.0</ele>
<speed>12.9</speed>
<course>302.7</course>
<desc>Speed 12.9 km/h Distance 10.07 km</desc>
<time>2011-09-24T10:24:11.91</time>
<name>2919</name>
</trkpt>
<trkpt lat="41.789537" lon="-1.772295">
<ele>1060.5</ele>
<speed>13.2</speed>
<course>301.6</course>
<desc>Speed 13.2 km/h Distance 10.07 km</desc>
<time>2011-09-24T10:24:12.91</time>
<name>2920</name>
</trkpt>
<trkpt lat="41.789555" lon="-1.772335">
<ele>1060.5</ele>
<speed>13.7</speed>
<course>301.6</course>
<desc>Speed 13.7 km/h Distance 10.08 km</desc>
<time>2011-09-24T10:24:13.91</time>
<name>2921</name>
</trkpt>
<trkpt lat="41.789573" lon="-1.772375">
<ele>1060.5</ele>
<speed>13.4</speed>
<course>302.7</course>
<desc>Speed 13.4 km/h Distance 10.08 km</desc>
<time>2011-09-24T10:24:14.90</time>
<name>2922</name>
</trkpt>
<trkpt lat="41.789592" lon="-1.772413">
<ele>1060.0</ele>
<speed>13.2</speed>
<course>296.7</course>
<desc>Speed 13.2 km/h Distance 10.08 km</desc>
<time>2011-09-24T10:24:15.90</time>
<name>2923</name>
</trkpt>
<trkpt lat="41.789607" lon="-1.772453">
<ele>1059.5</ele>
<speed>13.2</speed>
<course>300.5</course>
<desc>Speed 13.2 km/h Distance 10.09 km</desc>
<time>2011-09-24T10:24:16.90</time>
<name>2924</name>
</trkpt>
<trkpt lat="41.789625" lon="-1.772495">
<ele>1059.5</ele>
<speed>14.0</speed>
<course>302.8</course>
<desc>Speed 14.0 km/h Distance 10.09 km</desc>
<time>2011-09-24T10:24:17.90</time>
<name>2925</name>
</trkpt>
<trkpt lat="41.789645" lon="-1.772537">
<ele>1059.5</ele>
<speed>14.2</speed>
<course>305.0</course>
<desc>Speed 14.2 km/h Distance 10.10 km</desc>
<time>2011-09-24T10:24:18.90</time>
<name>2926</name>
</trkpt>
<trkpt lat="41.789665" lon="-1.772575">
<ele>1059.5</ele>
<speed>13.6</speed>
<course>306.2</course>
<desc>Speed 13.6 km/h Distance 10.10 km</desc>
<time>2011-09-24T10:24:19.90</time>
<name>2927</name>
</trkpt>
<trkpt lat="41.789685" lon="-1.772612">
<ele>1059.5</ele>
<speed>13.5</speed>
<course>301.6</course>
<desc>Speed 13.5 km/h Distance 10.10 km</desc>
<time>2011-09-24T10:24:20.90</time>
<name>2928</name>
</trkpt>
<trkpt lat="41.789703" lon="-1.772652">
<ele>1059.5</ele>
<speed>13.4</speed>
<course>298.2</course>
<desc>Speed 13.4 km/h Distance 10.11 km</desc>
<time>2011-09-24T10:24:21.90</time>
<name>2929</name>
</trkpt>
<trkpt lat="41.789720" lon="-1.772693">
<ele>1059.5</ele>
<speed>13.7</speed>
<course>314.8</course>
<desc>Speed 13.7 km/h Distance 10.11 km</desc>
<time>2011-09-24T10:24:22.90</time>
<name>2930</name>
</trkpt>
<trkpt lat="41.789748" lon="-1.772732">
<ele>1059.5</ele>
<speed>15.2</speed>
<course>308.0</course>
<desc>Speed 15.2 km/h Distance 10.12 km</desc>
<time>2011-09-24T10:24:23.90</time>
<name>2931</name>
</trkpt>
<trkpt lat="41.789772" lon="-1.772772">
<ele>1060.0</ele>
<speed>14.3</speed>
<course>313.0</course>
<desc>Speed 14.3 km/h Distance 10.12 km</desc>
<time>2011-09-24T10:24:24.90</time>
<name>2932</name>
</trkpt>
<trkpt lat="41.789798" lon="-1.772810">
<ele>1061.0</ele>
<speed>15.3</speed>
<course>299.6</course>
<desc>Speed 15.3 km/h Distance 10.13 km</desc>
<time>2011-09-24T10:24:25.90</time>
<name>2933</name>
</trkpt>
<trkpt lat="41.789817" lon="-1.772853">
<ele>1060.5</ele>
<speed>14.2</speed>
<course>306.0</course>
<desc>Speed 14.2 km/h Distance 10.13 km</desc>
<time>2011-09-24T10:24:26.90</time>
<name>2934</name>
</trkpt>
<trkpt lat="41.789838" lon="-1.772893">
<ele>1060.5</ele>
<speed>14.9</speed>
<course>303.8</course>
<desc>Speed 14.9 km/h Distance 10.13 km</desc>
<time>2011-09-24T10:24:27.89</time>
<name>2935</name>
</trkpt>
<trkpt lat="41.789858" lon="-1.772933">
<ele>1060.5</ele>
<speed>13.7</speed>
<course>302.7</course>
<desc>Speed 13.7 km/h Distance 10.14 km</desc>
<time>2011-09-24T10:24:28.89</time>
<name>2936</name>
</trkpt>
<trkpt lat="41.789877" lon="-1.772972">
<ele>1060.5</ele>
<speed>13.4</speed>
<course>301.8</course>
<desc>Speed 13.4 km/h Distance 10.14 km</desc>
<time>2011-09-24T10:24:29.89</time>
<name>2937</name>
</trkpt>
<trkpt lat="41.789897" lon="-1.773015">
<ele>1060.5</ele>
<speed>13.6</speed>
<course>317.4</course>
<desc>Speed 13.6 km/h Distance 10.15 km</desc>
<time>2011-09-24T10:24:30.89</time>
<name>2938</name>
</trkpt>
<trkpt lat="41.789925" lon="-1.773050">
<ele>1058.5</ele>
<speed>14.9</speed>
<course>300.4</course>
<desc>Speed 14.9 km/h Distance 10.15 km</desc>
<time>2011-09-24T10:24:31.89</time>
<name>2939</name>
</trkpt>
<trkpt lat="41.789948" lon="-1.773103">
<ele>1059.0</ele>
<speed>14.8</speed>
<course>306.9</course>
<desc>Speed 14.8 km/h Distance 10.16 km</desc>
<time>2011-09-24T10:24:32.89</time>
<name>2940</name>
</trkpt>
<trkpt lat="41.789972" lon="-1.773145">
<ele>1059.5</ele>
<speed>15.5</speed>
<course>310.0</course>
<desc>Speed 15.5 km/h Distance 10.16 km</desc>
<time>2011-09-24T10:24:33.89</time>
<name>2941</name>
</trkpt>
<trkpt lat="41.790005" lon="-1.773198">
<ele>1060.0</ele>
<speed>14.5</speed>
<course>306.0</course>
<desc>Speed 14.5 km/h Distance 10.17 km</desc>
<time>2011-09-24T10:24:34.89</time>
<name>2942</name>
</trkpt>
<trkpt lat="41.790027" lon="-1.773238">
<ele>1059.0</ele>
<speed>14.1</speed>
<course>316.4</course>
<desc>Speed 14.1 km/h Distance 10.17 km</desc>
<time>2011-09-24T10:24:35.89</time>
<name>2943</name>
</trkpt>
<trkpt lat="41.790057" lon="-1.773277">
<ele>1059.0</ele>
<speed>15.9</speed>
<course>318.6</course>
<desc>Speed 15.9 km/h Distance 10.17 km</desc>
<time>2011-09-24T10:24:36.89</time>
<name>2944</name>
</trkpt>
<trkpt lat="41.790093" lon="-1.773320">
<ele>1059.0</ele>
<speed>16.6</speed>
<course>311.8</course>
<desc>Speed 16.6 km/h Distance 10.18 km</desc>
<time>2011-09-24T10:24:37.89</time>
<name>2945</name>
</trkpt>
<trkpt lat="41.790127" lon="-1.773370">
<ele>1060.0</ele>
<speed>15.5</speed>
<course>315.2</course>
<desc>Speed 15.5 km/h Distance 10.18 km</desc>
<time>2011-09-24T10:24:38.88</time>
<name>2946</name>
</trkpt>
<trkpt lat="41.790162" lon="-1.773417">
<ele>1060.5</ele>
<speed>15.4</speed>
<course>315.8</course>
<desc>Speed 15.4 km/h Distance 10.19 km</desc>
<time>2011-09-24T10:24:39.89</time>
<name>2947</name>
</trkpt>
<trkpt lat="41.790200" lon="-1.773467">
<ele>1061.0</ele>
<speed>16.5</speed>
<course>308.5</course>
<desc>Speed 16.5 km/h Distance 10.20 km</desc>
<time>2011-09-24T10:24:40.89</time>
<name>2948</name>
</trkpt>
<trkpt lat="41.790227" lon="-1.773512">
<ele>1060.5</ele>
<speed>16.8</speed>
<course>311.8</course>
<desc>Speed 16.8 km/h Distance 10.20 km</desc>
<time>2011-09-24T10:24:41.88</time>
<name>2949</name>
</trkpt>
<trkpt lat="41.790260" lon="-1.773562">
<ele>1060.5</ele>
<speed>17.9</speed>
<course>304.6</course>
<desc>Speed 17.9 km/h Distance 10.21 km</desc>
<time>2011-09-24T10:24:42.88</time>
<name>2950</name>
</trkpt>
<trkpt lat="41.790288" lon="-1.773617">
<ele>1060.5</ele>
<speed>17.6</speed>
<course>307.7</course>
<desc>Speed 17.6 km/h Distance 10.21 km</desc>
<time>2011-09-24T10:24:43.89</time>
<name>2951</name>
</trkpt>
<trkpt lat="41.790320" lon="-1.773672">
<ele>1061.0</ele>
<speed>18.5</speed>
<course>309.8</course>
<desc>Speed 18.5 km/h Distance 10.22 km</desc>
<time>2011-09-24T10:24:44.88</time>
<name>2952</name>
</trkpt>
<trkpt lat="41.790350" lon="-1.773720">
<ele>1060.5</ele>
<speed>18.7</speed>
<course>313.2</course>
<desc>Speed 18.7 km/h Distance 10.22 km</desc>
<time>2011-09-24T10:24:45.89</time>
<name>2953</name>
</trkpt>
<trkpt lat="41.790385" lon="-1.773770">
<ele>1060.5</ele>
<speed>19.6</speed>
<course>322.3</course>
<desc>Speed 19.6 km/h Distance 10.23 km</desc>
<time>2011-09-24T10:24:46.87</time>
<name>2954</name>
</trkpt>
<trkpt lat="41.790430" lon="-1.773817">
<ele>1060.5</ele>
<speed>21.3</speed>
<course>317.0</course>
<desc>Speed 21.3 km/h Distance 10.24 km</desc>
<time>2011-09-24T10:24:47.87</time>
<name>2955</name>
</trkpt>
<trkpt lat="41.790470" lon="-1.773867">
<ele>1061.0</ele>
<speed>19.8</speed>
<course>312.3</course>
<desc>Speed 19.8 km/h Distance 10.24 km</desc>
<time>2011-09-24T10:24:48.88</time>
<name>2956</name>
</trkpt>
<trkpt lat="41.790502" lon="-1.773913">
<ele>1061.0</ele>
<speed>19.0</speed>
<course>317.0</course>
<desc>Speed 19.0 km/h Distance 10.25 km</desc>
<time>2011-09-24T10:24:49.88</time>
<name>2957</name>
</trkpt>
<trkpt lat="41.790542" lon="-1.773963">
<ele>1061.5</ele>
<speed>19.1</speed>
<course>319.2</course>
<desc>Speed 19.1 km/h Distance 10.25 km</desc>
<time>2011-09-24T10:24:50.88</time>
<name>2958</name>
</trkpt>
<trkpt lat="41.790583" lon="-1.774012">
<ele>1062.0</ele>
<speed>19.5</speed>
<course>315.8</course>
<desc>Speed 19.5 km/h Distance 10.26 km</desc>
<time>2011-09-24T10:24:51.88</time>
<name>2959</name>
</trkpt>
<trkpt lat="41.790622" lon="-1.774062">
<ele>1062.5</ele>
<speed>18.6</speed>
<course>314.8</course>
<desc>Speed 18.6 km/h Distance 10.26 km</desc>
<time>2011-09-24T10:24:52.87</time>
<name>2960</name>
</trkpt>
<trkpt lat="41.790655" lon="-1.774107">
<ele>1062.5</ele>
<speed>17.4</speed>
<course>318.4</course>
<desc>Speed 17.4 km/h Distance 10.27 km</desc>
<time>2011-09-24T10:24:53.88</time>
<name>2961</name>
</trkpt>
<trkpt lat="41.790690" lon="-1.774148">
<ele>1062.0</ele>
<speed>17.9</speed>
<course>318.2</course>
<desc>Speed 17.9 km/h Distance 10.28 km</desc>
<time>2011-09-24T10:24:54.88</time>
<name>2962</name>
</trkpt>
<trkpt lat="41.790723" lon="-1.774188">
<ele>1062.0</ele>
<speed>17.1</speed>
<course>320.9</course>
<desc>Speed 17.1 km/h Distance 10.28 km</desc>
<time>2011-09-24T10:24:55.87</time>
<name>2963</name>
</trkpt>
<trkpt lat="41.790760" lon="-1.774228">
<ele>1062.0</ele>
<speed>18.2</speed>
<course>317.3</course>
<desc>Speed 18.2 km/h Distance 10.29 km</desc>
<time>2011-09-24T10:24:56.88</time>
<name>2964</name>
</trkpt>
<trkpt lat="41.790795" lon="-1.774272">
<ele>1062.5</ele>
<speed>17.0</speed>
<course>319.2</course>
<desc>Speed 17.0 km/h Distance 10.29 km</desc>
<time>2011-09-24T10:24:57.86</time>
<name>2965</name>
</trkpt>
<trkpt lat="41.790827" lon="-1.774308">
<ele>1063.0</ele>
<speed>16.8</speed>
<course>325.7</course>
<desc>Speed 16.8 km/h Distance 10.30 km</desc>
<time>2011-09-24T10:24:58.87</time>
<name>2966</name>
</trkpt>
<trkpt lat="41.790867" lon="-1.774345">
<ele>1063.0</ele>
<speed>17.4</speed>
<course>320.8</course>
<desc>Speed 17.4 km/h Distance 10.30 km</desc>
<time>2011-09-24T10:24:59.86</time>
<name>2967</name>
</trkpt>
<trkpt lat="41.790902" lon="-1.774383">
<ele>1063.5</ele>
<speed>16.5</speed>
<course>324.6</course>
<desc>Speed 16.5 km/h Distance 10.31 km</desc>
<time>2011-09-24T10:25:00.86</time>
<name>2968</name>
</trkpt>
<trkpt lat="41.790938" lon="-1.774418">
<ele>1063.5</ele>
<speed>16.5</speed>
<course>323.3</course>
<desc>Speed 16.5 km/h Distance 10.31 km</desc>
<time>2011-09-24T10:25:01.86</time>
<name>2969</name>
</trkpt>
<trkpt lat="41.790975" lon="-1.774455">
<ele>1063.5</ele>
<speed>17.2</speed>
<course>325.8</course>
<desc>Speed 17.2 km/h Distance 10.32 km</desc>
<time>2011-09-24T10:25:02.86</time>
<name>2970</name>
</trkpt>
<trkpt lat="41.791013" lon="-1.774490">
<ele>1064.0</ele>
<speed>17.6</speed>
<course>324.6</course>
<desc>Speed 17.6 km/h Distance 10.32 km</desc>
<time>2011-09-24T10:25:03.86</time>
<name>2971</name>
</trkpt>
<trkpt lat="41.791050" lon="-1.774525">
<ele>1064.0</ele>
<speed>17.0</speed>
<course>320.6</course>
<desc>Speed 17.0 km/h Distance 10.33 km</desc>
<time>2011-09-24T10:25:04.86</time>
<name>2972</name>
</trkpt>
<trkpt lat="41.791083" lon="-1.774562">
<ele>1063.5</ele>
<speed>17.3</speed>
<course>322.0</course>
<desc>Speed 17.3 km/h Distance 10.33 km</desc>
<time>2011-09-24T10:25:05.86</time>
<name>2973</name>
</trkpt>
<trkpt lat="41.791118" lon="-1.774598">
<ele>1063.5</ele>
<speed>17.0</speed>
<course>320.6</course>
<desc>Speed 17.0 km/h Distance 10.34 km</desc>
<time>2011-09-24T10:25:06.85</time>
<name>2974</name>
</trkpt>
<trkpt lat="41.791152" lon="-1.774635">
<ele>1064.0</ele>
<speed>16.8</speed>
<course>323.3</course>
<desc>Speed 16.8 km/h Distance 10.34 km</desc>
<time>2011-09-24T10:25:07.86</time>
<name>2975</name>
</trkpt>
<trkpt lat="41.791188" lon="-1.774672">
<ele>1064.0</ele>
<speed>17.5</speed>
<course>323.3</course>
<desc>Speed 17.5 km/h Distance 10.35 km</desc>
<time>2011-09-24T10:25:08.86</time>
<name>2976</name>
</trkpt>
<trkpt lat="41.791223" lon="-1.774707">
<ele>1064.0</ele>
<speed>17.3</speed>
<course>323.3</course>
<desc>Speed 17.3 km/h Distance 10.35 km</desc>
<time>2011-09-24T10:25:09.85</time>
<name>2977</name>
</trkpt>
<trkpt lat="41.791262" lon="-1.774745">
<ele>1064.0</ele>
<speed>18.0</speed>
<course>324.5</course>
<desc>Speed 18.0 km/h Distance 10.36 km</desc>
<time>2011-09-24T10:25:10.85</time>
<name>2978</name>
</trkpt>
<trkpt lat="41.791300" lon="-1.774782">
<ele>1064.5</ele>
<speed>17.9</speed>
<course>322.0</course>
<desc>Speed 17.9 km/h Distance 10.36 km</desc>
<time>2011-09-24T10:25:11.85</time>
<name>2979</name>
</trkpt>
<trkpt lat="41.791335" lon="-1.774818">
<ele>1064.5</ele>
<speed>17.5</speed>
<course>320.9</course>
<desc>Speed 17.5 km/h Distance 10.37 km</desc>
<time>2011-09-24T10:25:12.85</time>
<name>2980</name>
</trkpt>
<trkpt lat="41.791372" lon="-1.774858">
<ele>1064.5</ele>
<speed>17.8</speed>
<course>322.0</course>
<desc>Speed 17.8 km/h Distance 10.37 km</desc>
<time>2011-09-24T10:25:13.85</time>
<name>2981</name>
</trkpt>
<trkpt lat="41.791407" lon="-1.774895">
<ele>1064.5</ele>
<speed>18.0</speed>
<course>323.3</course>
<desc>Speed 18.0 km/h Distance 10.38 km</desc>
<time>2011-09-24T10:25:14.85</time>
<name>2982</name>
</trkpt>
<trkpt lat="41.791443" lon="-1.774932">
<ele>1064.5</ele>
<speed>17.7</speed>
<course>320.8</course>
<desc>Speed 17.7 km/h Distance 10.38 km</desc>
<time>2011-09-24T10:25:15.84</time>
<name>2983</name>
</trkpt>
<trkpt lat="41.791478" lon="-1.774970">
<ele>1064.0</ele>
<speed>17.6</speed>
<course>320.8</course>
<desc>Speed 17.6 km/h Distance 10.39 km</desc>
<time>2011-09-24T10:25:16.84</time>
<name>2984</name>
</trkpt>
<trkpt lat="41.791513" lon="-1.775008">
<ele>1063.5</ele>
<speed>17.9</speed>
<course>324.4</course>
<desc>Speed 17.9 km/h Distance 10.39 km</desc>
<time>2011-09-24T10:25:17.84</time>
<name>2985</name>
</trkpt>
<trkpt lat="41.791553" lon="-1.775047">
<ele>1063.5</ele>
<speed>18.3</speed>
<course>317.3</course>
<desc>Speed 18.3 km/h Distance 10.40 km</desc>
<time>2011-09-24T10:25:18.85</time>
<name>2986</name>
</trkpt>
<trkpt lat="41.791588" lon="-1.775090">
<ele>1063.5</ele>
<speed>18.3</speed>
<course>317.0</course>
<desc>Speed 18.3 km/h Distance 10.40 km</desc>
<time>2011-09-24T10:25:19.85</time>
<name>2987</name>
</trkpt>
<trkpt lat="41.791622" lon="-1.775132">
<ele>1063.5</ele>
<speed>17.8</speed>
<course>322.1</course>
<desc>Speed 17.8 km/h Distance 10.41 km</desc>
<time>2011-09-24T10:25:20.84</time>
<name>2988</name>
</trkpt>
<trkpt lat="41.791658" lon="-1.775170">
<ele>1063.5</ele>
<speed>18.2</speed>
<course>318.4</course>
<desc>Speed 18.2 km/h Distance 10.41 km</desc>
<time>2011-09-24T10:25:21.83</time>
<name>2989</name>
</trkpt>
<trkpt lat="41.791693" lon="-1.775212">
<ele>1063.5</ele>
<speed>18.3</speed>
<course>315.9</course>
<desc>Speed 18.3 km/h Distance 10.42 km</desc>
<time>2011-09-24T10:25:22.84</time>
<name>2990</name>
</trkpt>
<trkpt lat="41.791727" lon="-1.775255">
<ele>1063.5</ele>
<speed>17.6</speed>
<course>317.3</course>
<desc>Speed 17.6 km/h Distance 10.42 km</desc>
<time>2011-09-24T10:25:23.84</time>
<name>2991</name>
</trkpt>
<trkpt lat="41.791762" lon="-1.775298">
<ele>1064.0</ele>
<speed>18.3</speed>
<course>315.9</course>
<desc>Speed 18.3 km/h Distance 10.43 km</desc>
<time>2011-09-24T10:25:24.83</time>
<name>2992</name>
</trkpt>
<trkpt lat="41.791795" lon="-1.775342">
<ele>1064.0</ele>
<speed>18.4</speed>
<course>313.8</course>
<desc>Speed 18.4 km/h Distance 10.43 km</desc>
<time>2011-09-24T10:25:25.83</time>
<name>2993</name>
</trkpt>
<trkpt lat="41.791828" lon="-1.775388">
<ele>1064.0</ele>
<speed>18.5</speed>
<course>310.8</course>
<desc>Speed 18.5 km/h Distance 10.44 km</desc>
<time>2011-09-24T10:25:26.84</time>
<name>2994</name>
</trkpt>
<trkpt lat="41.791858" lon="-1.775435">
<ele>1064.0</ele>
<speed>18.4</speed>
<course>311.8</course>
<desc>Speed 18.4 km/h Distance 10.44 km</desc>
<time>2011-09-24T10:25:27.84</time>
<name>2995</name>
</trkpt>
<trkpt lat="41.791888" lon="-1.775480">
<ele>1063.5</ele>
<speed>18.0</speed>
<course>312.9</course>
<desc>Speed 18.0 km/h Distance 10.45 km</desc>
<time>2011-09-24T10:25:28.84</time>
<name>2996</name>
</trkpt>
<trkpt lat="41.791918" lon="-1.775523">
<ele>1063.0</ele>
<speed>17.4</speed>
<course>318.2</course>
<desc>Speed 17.4 km/h Distance 10.45 km</desc>
<time>2011-09-24T10:25:29.83</time>
<name>2997</name>
</trkpt>
<trkpt lat="41.791952" lon="-1.775563">
<ele>1062.5</ele>
<speed>17.5</speed>
<course>312.9</course>
<desc>Speed 17.5 km/h Distance 10.46 km</desc>
<time>2011-09-24T10:25:30.83</time>
<name>2998</name>
</trkpt>
<trkpt lat="41.791982" lon="-1.775607">
<ele>1062.5</ele>
<speed>16.8</speed>
<course>304.8</course>
<desc>Speed 16.8 km/h Distance 10.46 km</desc>
<time>2011-09-24T10:25:31.83</time>
<name>2999</name>
</trkpt>
<trkpt lat="41.792005" lon="-1.775652">
<ele>1062.5</ele>
<speed>16.1</speed>
<course>306.5</course>
<desc>Speed 16.1 km/h Distance 10.47 km</desc>
<time>2011-09-24T10:25:32.82</time>
<name>3000</name>
</trkpt>
<trkpt lat="41.792032" lon="-1.775700">
<ele>1062.5</ele>
<speed>17.7</speed>
<course>307.5</course>
<desc>Speed 17.7 km/h Distance 10.47 km</desc>
<time>2011-09-24T10:25:33.82</time>
<name>3001</name>
</trkpt>
<trkpt lat="41.792058" lon="-1.775747">
<ele>1063.0</ele>
<speed>17.7</speed>
<course>304.7</course>
<desc>Speed 17.7 km/h Distance 10.48 km</desc>
<time>2011-09-24T10:25:34.82</time>
<name>3002</name>
</trkpt>
<trkpt lat="41.792083" lon="-1.775795">
<ele>1063.0</ele>
<speed>17.2</speed>
<course>303.8</course>
<desc>Speed 17.2 km/h Distance 10.48 km</desc>
<time>2011-09-24T10:25:35.82</time>
<name>3003</name>
</trkpt>
<trkpt lat="41.792108" lon="-1.775845">
<ele>1063.0</ele>
<speed>17.1</speed>
<course>304.7</course>
<desc>Speed 17.1 km/h Distance 10.49 km</desc>
<time>2011-09-24T10:25:36.82</time>
<name>3004</name>
</trkpt>
<trkpt lat="41.792133" lon="-1.775893">
<ele>1063.0</ele>
<speed>17.3</speed>
<course>305.6</course>
<desc>Speed 17.3 km/h Distance 10.49 km</desc>
<time>2011-09-24T10:25:37.82</time>
<name>3005</name>
</trkpt>
<trkpt lat="41.792160" lon="-1.775943">
<ele>1063.5</ele>
<speed>17.0</speed>
<course>302.0</course>
<desc>Speed 17.0 km/h Distance 10.50 km</desc>
<time>2011-09-24T10:25:38.82</time>
<name>3006</name>
</trkpt>
<trkpt lat="41.792183" lon="-1.775993">
<ele>1063.5</ele>
<speed>16.6</speed>
<course>302.0</course>
<desc>Speed 16.6 km/h Distance 10.50 km</desc>
<time>2011-09-24T10:25:39.82</time>
<name>3007</name>
</trkpt>
<trkpt lat="41.792207" lon="-1.776043">
<ele>1064.0</ele>
<speed>16.7</speed>
<course>312.3</course>
<desc>Speed 16.7 km/h Distance 10.51 km</desc>
<time>2011-09-24T10:25:40.82</time>
<name>3008</name>
</trkpt>
<trkpt lat="41.792238" lon="-1.776090">
<ele>1063.0</ele>
<speed>18.8</speed>
<course>300.2</course>
<desc>Speed 18.8 km/h Distance 10.51 km</desc>
<time>2011-09-24T10:25:41.81</time>
<name>3009</name>
</trkpt>
<trkpt lat="41.792260" lon="-1.776140">
<ele>1064.0</ele>
<speed>16.6</speed>
<course>290.7</course>
<desc>Speed 16.6 km/h Distance 10.52 km</desc>
<time>2011-09-24T10:25:42.81</time>
<name>3010</name>
</trkpt>
<trkpt lat="41.792275" lon="-1.776193">
<ele>1065.0</ele>
<speed>16.7</speed>
<course>297.4</course>
<desc>Speed 16.7 km/h Distance 10.52 km</desc>
<time>2011-09-24T10:25:43.81</time>
<name>3011</name>
</trkpt>
<trkpt lat="41.792295" lon="-1.776245">
<ele>1065.0</ele>
<speed>16.2</speed>
<course>296.2</course>
<desc>Speed 16.2 km/h Distance 10.53 km</desc>
<time>2011-09-24T10:25:44.81</time>
<name>3012</name>
</trkpt>
<trkpt lat="41.792313" lon="-1.776295">
<ele>1065.5</ele>
<speed>16.2</speed>
<course>290.7</course>
<desc>Speed 16.2 km/h Distance 10.53 km</desc>
<time>2011-09-24T10:25:45.81</time>
<name>3013</name>
</trkpt>
<trkpt lat="41.792328" lon="-1.776348">
<ele>1066.0</ele>
<speed>16.4</speed>
<course>292.7</course>
<desc>Speed 16.4 km/h Distance 10.54 km</desc>
<time>2011-09-24T10:25:46.81</time>
<name>3014</name>
</trkpt>
<trkpt lat="41.792345" lon="-1.776402">
<ele>1067.0</ele>
<speed>16.3</speed>
<course>295.4</course>
<desc>Speed 16.3 km/h Distance 10.54 km</desc>
<time>2011-09-24T10:25:47.81</time>
<name>3015</name>
</trkpt>
<trkpt lat="41.792363" lon="-1.776453">
<ele>1067.5</ele>
<speed>16.3</speed>
<course>291.3</course>
<desc>Speed 16.3 km/h Distance 10.55 km</desc>
<time>2011-09-24T10:25:48.82</time>
<name>3016</name>
</trkpt>
<trkpt lat="41.792378" lon="-1.776505">
<ele>1067.5</ele>
<speed>16.1</speed>
<course>288.5</course>
<desc>Speed 16.1 km/h Distance 10.55 km</desc>
<time>2011-09-24T10:25:49.81</time>
<name>3017</name>
</trkpt>
<trkpt lat="41.792392" lon="-1.776558">
<ele>1068.0</ele>
<speed>16.4</speed>
<course>279.2</course>
<desc>Speed 16.4 km/h Distance 10.56 km</desc>
<time>2011-09-24T10:25:50.81</time>
<name>3018</name>
</trkpt>
<trkpt lat="41.792398" lon="-1.776613">
<ele>1069.0</ele>
<speed>16.1</speed>
<course>291.3</course>
<desc>Speed 16.1 km/h Distance 10.56 km</desc>
<time>2011-09-24T10:25:51.80</time>
<name>3019</name>
</trkpt>
<trkpt lat="41.792413" lon="-1.776665">
<ele>1069.0</ele>
<speed>16.1</speed>
<course>289.1</course>
<desc>Speed 16.1 km/h Distance 10.56 km</desc>
<time>2011-09-24T10:25:52.81</time>
<name>3020</name>
</trkpt>
<trkpt lat="41.792427" lon="-1.776717">
<ele>1069.0</ele>
<speed>15.8</speed>
<course>291.9</course>
<desc>Speed 15.8 km/h Distance 10.57 km</desc>
<time>2011-09-24T10:25:53.80</time>
<name>3021</name>
</trkpt>
<trkpt lat="41.792442" lon="-1.776767">
<ele>1069.5</ele>
<speed>15.8</speed>
<course>290.7</course>
<desc>Speed 15.8 km/h Distance 10.57 km</desc>
<time>2011-09-24T10:25:54.80</time>
<name>3022</name>
</trkpt>
<trkpt lat="41.792457" lon="-1.776820">
<ele>1069.5</ele>
<speed>16.1</speed>
<course>286.8</course>
<desc>Speed 16.1 km/h Distance 10.58 km</desc>
<time>2011-09-24T10:25:55.80</time>
<name>3023</name>
</trkpt>
<trkpt lat="41.792468" lon="-1.776872">
<ele>1070.0</ele>
<speed>15.9</speed>
<course>290.7</course>
<desc>Speed 15.9 km/h Distance 10.58 km</desc>
<time>2011-09-24T10:25:56.80</time>
<name>3024</name>
</trkpt>
<trkpt lat="41.792483" lon="-1.776925">
<ele>1070.0</ele>
<speed>16.7</speed>
<course>285.9</course>
<desc>Speed 16.7 km/h Distance 10.59 km</desc>
<time>2011-09-24T10:25:57.79</time>
<name>3025</name>
</trkpt>
<trkpt lat="41.792495" lon="-1.776980">
<ele>1070.5</ele>
<speed>16.7</speed>
<course>302.0</course>
<desc>Speed 16.7 km/h Distance 10.59 km</desc>
<time>2011-09-24T10:25:58.80</time>
<name>3026</name>
</trkpt>
<trkpt lat="41.792518" lon="-1.777030">
<ele>1070.5</ele>
<speed>17.6</speed>
<course>290.7</course>
<desc>Speed 17.6 km/h Distance 10.60 km</desc>
<time>2011-09-24T10:25:59.80</time>
<name>3027</name>
</trkpt>
<trkpt lat="41.792533" lon="-1.777083">
<ele>1070.5</ele>
<speed>16.6</speed>
<course>293.4</course>
<desc>Speed 16.6 km/h Distance 10.60 km</desc>
<time>2011-09-24T10:26:00.80</time>
<name>3028</name>
</trkpt>
<trkpt lat="41.792550" lon="-1.777135">
<ele>1071.0</ele>
<speed>16.6</speed>
<course>293.4</course>
<desc>Speed 16.6 km/h Distance 10.61 km</desc>
<time>2011-09-24T10:26:01.79</time>
<name>3029</name>
</trkpt>
<trkpt lat="41.792567" lon="-1.777187">
<ele>1071.0</ele>
<speed>16.4</speed>
<course>291.3</course>
<desc>Speed 16.4 km/h Distance 10.61 km</desc>
<time>2011-09-24T10:26:02.79</time>
<name>3030</name>
</trkpt>
<trkpt lat="41.792582" lon="-1.777238">
<ele>1070.5</ele>
<speed>16.3</speed>
<course>297.8</course>
<desc>Speed 16.3 km/h Distance 10.62 km</desc>
<time>2011-09-24T10:26:03.80</time>
<name>3031</name>
</trkpt>
<trkpt lat="41.792600" lon="-1.777285">
<ele>1071.0</ele>
<speed>15.6</speed>
<course>302.9</course>
<desc>Speed 15.6 km/h Distance 10.62 km</desc>
<time>2011-09-24T10:26:04.79</time>
<name>3032</name>
</trkpt>
<trkpt lat="41.792622" lon="-1.777330">
<ele>1069.5</ele>
<speed>15.6</speed>
<course>296.4</course>
<desc>Speed 15.6 km/h Distance 10.62 km</desc>
<time>2011-09-24T10:26:05.79</time>
<name>3033</name>
</trkpt>
<trkpt lat="41.792638" lon="-1.777375">
<ele>1067.5</ele>
<speed>15.0</speed>
<course>313.8</course>
<desc>Speed 15.0 km/h Distance 10.63 km</desc>
<time>2011-09-24T10:26:06.79</time>
<name>3034</name>
</trkpt>
<trkpt lat="41.792663" lon="-1.777410">
<ele>1067.5</ele>
<speed>14.6</speed>
<course>287.9</course>
<desc>Speed 14.6 km/h Distance 10.63 km</desc>
<time>2011-09-24T10:26:07.79</time>
<name>3035</name>
</trkpt>
<trkpt lat="41.792675" lon="-1.777458">
<ele>1066.5</ele>
<speed>14.5</speed>
<course>308.1</course>
<desc>Speed 14.5 km/h Distance 10.64 km</desc>
<time>2011-09-24T10:26:08.79</time>
<name>3036</name>
</trkpt>
<trkpt lat="41.792698" lon="-1.777498">
<ele>1066.5</ele>
<speed>15.2</speed>
<course>298.6</course>
<desc>Speed 15.2 km/h Distance 10.64 km</desc>
<time>2011-09-24T10:26:09.78</time>
<name>3037</name>
</trkpt>
<trkpt lat="41.792717" lon="-1.777543">
<ele>1066.0</ele>
<speed>15.3</speed>
<course>294.1</course>
<desc>Speed 15.3 km/h Distance 10.65 km</desc>
<time>2011-09-24T10:26:10.79</time>
<name>3038</name>
</trkpt>
<trkpt lat="41.792732" lon="-1.777588">
<ele>1065.5</ele>
<speed>14.5</speed>
<course>295.6</course>
<desc>Speed 14.5 km/h Distance 10.65 km</desc>
<time>2011-09-24T10:26:11.78</time>
<name>3039</name>
</trkpt>
<trkpt lat="41.792748" lon="-1.777635">
<ele>1065.5</ele>
<speed>15.5</speed>
<course>317.9</course>
<desc>Speed 15.5 km/h Distance 10.65 km</desc>
<time>2011-09-24T10:26:12.78</time>
<name>3040</name>
</trkpt>
<trkpt lat="41.792780" lon="-1.777673">
<ele>1065.5</ele>
<speed>16.8</speed>
<course>294.8</course>
<desc>Speed 16.8 km/h Distance 10.66 km</desc>
<time>2011-09-24T10:26:13.78</time>
<name>3041</name>
</trkpt>
<trkpt lat="41.792797" lon="-1.777722">
<ele>1066.0</ele>
<speed>15.5</speed>
<course>298.6</course>
<desc>Speed 15.5 km/h Distance 10.66 km</desc>
<time>2011-09-24T10:26:14.78</time>
<name>3042</name>
</trkpt>
<trkpt lat="41.792815" lon="-1.777767">
<ele>1065.0</ele>
<speed>15.2</speed>
<course>283.9</course>
<desc>Speed 15.2 km/h Distance 10.67 km</desc>
<time>2011-09-24T10:26:15.78</time>
<name>3043</name>
</trkpt>
<trkpt lat="41.792827" lon="-1.777830">
<ele>1065.5</ele>
<speed>11.6</speed>
<course>294.9</course>
<desc>Speed 11.6 km/h Distance 10.67 km</desc>
<time>2011-09-24T10:26:17.78</time>
<name>3044</name>
</trkpt>
<trkpt lat="41.792842" lon="-1.777873">
<ele>1065.5</ele>
<speed>13.6</speed>
<course>302.8</course>
<desc>Speed 13.6 km/h Distance 10.68 km</desc>
<time>2011-09-24T10:26:18.77</time>
<name>3045</name>
</trkpt>
<trkpt lat="41.792862" lon="-1.777915">
<ele>1065.5</ele>
<speed>14.3</speed>
<course>287.4</course>
<desc>Speed 14.3 km/h Distance 10.68 km</desc>
<time>2011-09-24T10:26:19.77</time>
<name>3046</name>
</trkpt>
<trkpt lat="41.792873" lon="-1.777965">
<ele>1066.5</ele>
<speed>14.7</speed>
<course>306.7</course>
<desc>Speed 14.7 km/h Distance 10.69 km</desc>
<time>2011-09-24T10:26:20.77</time>
<name>3047</name>
</trkpt>
<trkpt lat="41.792898" lon="-1.778010">
<ele>1065.0</ele>
<speed>16.7</speed>
<course>303.8</course>
<desc>Speed 16.7 km/h Distance 10.69 km</desc>
<time>2011-09-24T10:26:21.77</time>
<name>3048</name>
</trkpt>
<trkpt lat="41.792920" lon="-1.778053">
<ele>1065.0</ele>
<speed>15.8</speed>
<course>301.7</course>
<desc>Speed 15.8 km/h Distance 10.69 km</desc>
<time>2011-09-24T10:26:22.77</time>
<name>3049</name>
</trkpt>
<trkpt lat="41.792940" lon="-1.778097">
<ele>1064.5</ele>
<speed>14.8</speed>
<course>282.6</course>
<desc>Speed 14.8 km/h Distance 10.70 km</desc>
<time>2011-09-24T10:26:23.78</time>
<name>3050</name>
</trkpt>
<trkpt lat="41.792950" lon="-1.778157">
<ele>1063.5</ele>
<speed>11.3</speed>
<course>296.0</course>
<desc>Speed 11.3 km/h Distance 10.70 km</desc>
<time>2011-09-24T10:26:25.77</time>
<name>3051</name>
</trkpt>
<trkpt lat="41.792963" lon="-1.778193">
<ele>1063.0</ele>
<speed>12.0</speed>
<course>317.6</course>
<desc>Speed 12.0 km/h Distance 10.71 km</desc>
<time>2011-09-24T10:26:26.77</time>
<name>3052</name>
</trkpt>
<trkpt lat="41.793030" lon="-1.778275">
<ele>1064.5</ele>
<speed>13.8</speed>
<course>306.0</course>
<desc>Speed 13.8 km/h Distance 10.72 km</desc>
<time>2011-09-24T10:26:28.77</time>
<name>3053</name>
</trkpt>
<trkpt lat="41.793052" lon="-1.778315">
<ele>1064.0</ele>
<speed>14.3</speed>
<course>314.4</course>
<desc>Speed 14.3 km/h Distance 10.72 km</desc>
<time>2011-09-24T10:26:29.77</time>
<name>3054</name>
</trkpt>
<trkpt lat="41.793083" lon="-1.778358">
<ele>1064.0</ele>
<speed>17.1</speed>
<course>314.0</course>
<desc>Speed 17.1 km/h Distance 10.73 km</desc>
<time>2011-09-24T10:26:30.77</time>
<name>3055</name>
</trkpt>
<trkpt lat="41.793113" lon="-1.778400">
<ele>1064.0</ele>
<speed>17.6</speed>
<course>306.3</course>
<desc>Speed 17.6 km/h Distance 10.73 km</desc>
<time>2011-09-24T10:26:31.77</time>
<name>3056</name>
</trkpt>
<trkpt lat="41.793142" lon="-1.778452">
<ele>1064.0</ele>
<speed>16.9</speed>
<course>329.2</course>
<desc>Speed 16.9 km/h Distance 10.74 km</desc>
<time>2011-09-24T10:26:32.77</time>
<name>3057</name>
</trkpt>
<trkpt lat="41.793192" lon="-1.778492">
<ele>1063.5</ele>
<speed>20.4</speed>
<course>327.6</course>
<desc>Speed 20.4 km/h Distance 10.74 km</desc>
<time>2011-09-24T10:26:33.77</time>
<name>3058</name>
</trkpt>
<trkpt lat="41.793237" lon="-1.778530">
<ele>1063.5</ele>
<speed>18.2</speed>
<course>329.2</course>
<desc>Speed 18.2 km/h Distance 10.75 km</desc>
<time>2011-09-24T10:26:34.76</time>
<name>3059</name>
</trkpt>
<trkpt lat="41.793278" lon="-1.778563">
<ele>1063.5</ele>
<speed>16.9</speed>
<course>331.6</course>
<desc>Speed 16.9 km/h Distance 10.75 km</desc>
<time>2011-09-24T10:26:35.77</time>
<name>3060</name>
</trkpt>
<trkpt lat="41.793327" lon="-1.778598">
<ele>1063.5</ele>
<speed>19.3</speed>
<course>335.6</course>
<desc>Speed 19.3 km/h Distance 10.76 km</desc>
<time>2011-09-24T10:26:36.77</time>
<name>3061</name>
</trkpt>
<trkpt lat="41.793373" lon="-1.778627">
<ele>1064.5</ele>
<speed>17.4</speed>
<course>340.8</course>
<desc>Speed 17.4 km/h Distance 10.77 km</desc>
<time>2011-09-24T10:26:37.76</time>
<name>3062</name>
</trkpt>
<trkpt lat="41.793427" lon="-1.778652">
<ele>1064.5</ele>
<speed>19.5</speed>
<course>340.2</course>
<desc>Speed 19.5 km/h Distance 10.77 km</desc>
<time>2011-09-24T10:26:38.76</time>
<name>3063</name>
</trkpt>
<trkpt lat="41.793478" lon="-1.778677">
<ele>1064.5</ele>
<speed>19.5</speed>
<course>342.1</course>
<desc>Speed 19.5 km/h Distance 10.78 km</desc>
<time>2011-09-24T10:26:39.76</time>
<name>3064</name>
</trkpt>
<trkpt lat="41.793528" lon="-1.778698">
<ele>1064.5</ele>
<speed>19.0</speed>
<course>343.7</course>
<desc>Speed 19.0 km/h Distance 10.78 km</desc>
<time>2011-09-24T10:26:40.75</time>
<name>3065</name>
</trkpt>
<trkpt lat="41.793575" lon="-1.778717">
<ele>1065.0</ele>
<speed>18.1</speed>
<course>345.5</course>
<desc>Speed 18.1 km/h Distance 10.79 km</desc>
<time>2011-09-24T10:26:41.76</time>
<name>3066</name>
</trkpt>
<trkpt lat="41.793623" lon="-1.778733">
<ele>1065.0</ele>
<speed>18.3</speed>
<course>343.4</course>
<desc>Speed 18.3 km/h Distance 10.80 km</desc>
<time>2011-09-24T10:26:42.75</time>
<name>3067</name>
</trkpt>
<trkpt lat="41.793673" lon="-1.778753">
<ele>1065.5</ele>
<speed>18.8</speed>
<course>339.6</course>
<desc>Speed 18.8 km/h Distance 10.80 km</desc>
<time>2011-09-24T10:26:43.75</time>
<name>3068</name>
</trkpt>
<trkpt lat="41.793717" lon="-1.778775">
<ele>1066.0</ele>
<speed>17.0</speed>
<course>342.3</course>
<desc>Speed 17.0 km/h Distance 10.81 km</desc>
<time>2011-09-24T10:26:44.76</time>
<name>3069</name>
</trkpt>
<trkpt lat="41.793763" lon="-1.778795">
<ele>1066.0</ele>
<speed>18.6</speed>
<course>342.5</course>
<desc>Speed 18.6 km/h Distance 10.81 km</desc>
<time>2011-09-24T10:26:45.75</time>
<name>3070</name>
</trkpt>
<trkpt lat="41.793807" lon="-1.778813">
<ele>1067.0</ele>
<speed>17.1</speed>
<course>341.7</course>
<desc>Speed 17.1 km/h Distance 10.82 km</desc>
<time>2011-09-24T10:26:46.75</time>
<name>3071</name>
</trkpt>
<trkpt lat="41.793852" lon="-1.778833">
<ele>1067.0</ele>
<speed>18.0</speed>
<course>343.7</course>
<desc>Speed 18.0 km/h Distance 10.82 km</desc>
<time>2011-09-24T10:26:47.75</time>
<name>3072</name>
</trkpt>
<trkpt lat="41.793898" lon="-1.778852">
<ele>1067.0</ele>
<speed>18.7</speed>
<course>342.3</course>
<desc>Speed 18.7 km/h Distance 10.83 km</desc>
<time>2011-09-24T10:26:48.75</time>
<name>3073</name>
</trkpt>
<trkpt lat="41.793945" lon="-1.778872">
<ele>1067.0</ele>
<speed>18.5</speed>
<course>338.1</course>
<desc>Speed 18.5 km/h Distance 10.83 km</desc>
<time>2011-09-24T10:26:49.75</time>
<name>3074</name>
</trkpt>
<trkpt lat="41.793988" lon="-1.778895">
<ele>1067.0</ele>
<speed>18.2</speed>
<course>336.9</course>
<desc>Speed 18.2 km/h Distance 10.84 km</desc>
<time>2011-09-24T10:26:50.75</time>
<name>3075</name>
</trkpt>
<trkpt lat="41.794035" lon="-1.778922">
<ele>1067.0</ele>
<speed>18.6</speed>
<course>336.2</course>
<desc>Speed 18.6 km/h Distance 10.84 km</desc>
<time>2011-09-24T10:26:51.75</time>
<name>3076</name>
</trkpt>
<trkpt lat="41.794080" lon="-1.778948">
<ele>1067.0</ele>
<speed>18.6</speed>
<course>332.3</course>
<desc>Speed 18.6 km/h Distance 10.85 km</desc>
<time>2011-09-24T10:26:52.74</time>
<name>3077</name>
</trkpt>
<trkpt lat="41.794125" lon="-1.778980">
<ele>1067.0</ele>
<speed>18.7</speed>
<course>322.0</course>
<desc>Speed 18.7 km/h Distance 10.85 km</desc>
<time>2011-09-24T10:26:53.74</time>
<name>3078</name>
</trkpt>
<trkpt lat="41.794160" lon="-1.779017">
<ele>1067.0</ele>
<speed>18.3</speed>
<course>319.7</course>
<desc>Speed 18.3 km/h Distance 10.86 km</desc>
<time>2011-09-24T10:26:54.74</time>
<name>3079</name>
</trkpt>
<trkpt lat="41.794197" lon="-1.779058">
<ele>1067.5</ele>
<speed>17.7</speed>
<course>314.0</course>
<desc>Speed 17.7 km/h Distance 10.87 km</desc>
<time>2011-09-24T10:26:55.74</time>
<name>3080</name>
</trkpt>
<trkpt lat="41.794227" lon="-1.779100">
<ele>1067.0</ele>
<speed>17.9</speed>
<course>310.2</course>
<desc>Speed 17.9 km/h Distance 10.87 km</desc>
<time>2011-09-24T10:26:56.74</time>
<name>3081</name>
</trkpt>
<trkpt lat="41.794255" lon="-1.779145">
<ele>1067.0</ele>
<speed>18.0</speed>
<course>309.8</course>
<desc>Speed 18.0 km/h Distance 10.87 km</desc>
<time>2011-09-24T10:26:57.74</time>
<name>3082</name>
</trkpt>
<trkpt lat="41.794285" lon="-1.779193">
<ele>1067.5</ele>
<speed>18.7</speed>
<course>299.6</course>
<desc>Speed 18.7 km/h Distance 10.88 km</desc>
<time>2011-09-24T10:26:58.74</time>
<name>3083</name>
</trkpt>
<trkpt lat="41.794308" lon="-1.779248">
<ele>1067.5</ele>
<speed>19.0</speed>
<course>301.4</course>
<desc>Speed 19.0 km/h Distance 10.89 km</desc>
<time>2011-09-24T10:26:59.74</time>
<name>3084</name>
</trkpt>
<trkpt lat="41.794333" lon="-1.779303">
<ele>1067.5</ele>
<speed>19.8</speed>
<course>299.2</course>
<desc>Speed 19.8 km/h Distance 10.89 km</desc>
<time>2011-09-24T10:27:00.73</time>
<name>3085</name>
</trkpt>
<trkpt lat="41.794358" lon="-1.779363">
<ele>1067.5</ele>
<speed>20.3</speed>
<course>302.4</course>
<desc>Speed 20.3 km/h Distance 10.90 km</desc>
<time>2011-09-24T10:27:01.73</time>
<name>3086</name>
</trkpt>
<trkpt lat="41.794387" lon="-1.779423">
<ele>1067.5</ele>
<speed>20.6</speed>
<course>300.1</course>
<desc>Speed 20.6 km/h Distance 10.90 km</desc>
<time>2011-09-24T10:27:02.73</time>
<name>3087</name>
</trkpt>
<trkpt lat="41.794413" lon="-1.779485">
<ele>1067.5</ele>
<speed>20.4</speed>
<course>299.5</course>
<desc>Speed 20.4 km/h Distance 10.91 km</desc>
<time>2011-09-24T10:27:03.74</time>
<name>3088</name>
</trkpt>
<trkpt lat="41.794440" lon="-1.779548">
<ele>1067.5</ele>
<speed>21.9</speed>
<course>295.7</course>
<desc>Speed 21.9 km/h Distance 10.91 km</desc>
<time>2011-09-24T10:27:04.73</time>
<name>3089</name>
</trkpt>
<trkpt lat="41.794463" lon="-1.779613">
<ele>1067.0</ele>
<speed>21.7</speed>
<course>293.6</course>
<desc>Speed 21.7 km/h Distance 10.92 km</desc>
<time>2011-09-24T10:27:05.74</time>
<name>3090</name>
</trkpt>
<trkpt lat="41.794487" lon="-1.779685">
<ele>1066.5</ele>
<speed>23.3</speed>
<course>298.8</course>
<desc>Speed 23.3 km/h Distance 10.93 km</desc>
<time>2011-09-24T10:27:06.73</time>
<name>3091</name>
</trkpt>
<trkpt lat="41.794517" lon="-1.779758">
<ele>1066.0</ele>
<speed>24.3</speed>
<course>302.6</course>
<desc>Speed 24.3 km/h Distance 10.93 km</desc>
<time>2011-09-24T10:27:07.73</time>
<name>3092</name>
</trkpt>
<trkpt lat="41.794552" lon="-1.779832">
<ele>1066.0</ele>
<speed>25.3</speed>
<course>297.2</course>
<desc>Speed 25.3 km/h Distance 10.94 km</desc>
<time>2011-09-24T10:27:08.73</time>
<name>3093</name>
</trkpt>
<trkpt lat="41.794582" lon="-1.779910">
<ele>1066.0</ele>
<speed>26.2</speed>
<course>298.5</course>
<desc>Speed 26.2 km/h Distance 10.95 km</desc>
<time>2011-09-24T10:27:09.72</time>
<name>3094</name>
</trkpt>
<trkpt lat="41.794613" lon="-1.779988">
<ele>1065.5</ele>
<speed>26.5</speed>
<course>299.2</course>
<desc>Speed 26.5 km/h Distance 10.96 km</desc>
<time>2011-09-24T10:27:10.72</time>
<name>3095</name>
</trkpt>
<trkpt lat="41.794647" lon="-1.780068">
<ele>1065.5</ele>
<speed>27.4</speed>
<course>298.9</course>
<desc>Speed 27.4 km/h Distance 10.96 km</desc>
<time>2011-09-24T10:27:11.72</time>
<name>3096</name>
</trkpt>
<trkpt lat="41.794682" lon="-1.780153">
<ele>1065.5</ele>
<speed>27.9</speed>
<course>302.3</course>
<desc>Speed 27.9 km/h Distance 10.97 km</desc>
<time>2011-09-24T10:27:12.72</time>
<name>3097</name>
</trkpt>
<trkpt lat="41.794722" lon="-1.780238">
<ele>1065.5</ele>
<speed>28.5</speed>
<course>300.7</course>
<desc>Speed 28.5 km/h Distance 10.98 km</desc>
<time>2011-09-24T10:27:13.74</time>
<name>3098</name>
</trkpt>
<trkpt lat="41.794760" lon="-1.780325">
<ele>1065.5</ele>
<speed>28.6</speed>
<course>301.9</course>
<desc>Speed 28.6 km/h Distance 10.99 km</desc>
<time>2011-09-24T10:27:15.79</time>
<name>3099</name>
</trkpt>
<trkpt lat="41.794918" lon="-1.780667">
<ele>1066.0</ele>
<speed>28.1</speed>
<course>302.2</course>
<desc>Speed 28.1 km/h Distance 11.02 km</desc>
<time>2011-09-24T10:27:18.72</time>
<name>3100</name>
</trkpt>
<trkpt lat="41.794957" lon="-1.780748">
<ele>1066.5</ele>
<speed>27.9</speed>
<course>299.9</course>
<desc>Speed 27.9 km/h Distance 11.03 km</desc>
<time>2011-09-24T10:27:19.72</time>
<name>3101</name>
</trkpt>
<trkpt lat="41.794992" lon="-1.780830">
<ele>1066.5</ele>
<speed>27.3</speed>
<course>300.4</course>
<desc>Speed 27.3 km/h Distance 11.04 km</desc>
<time>2011-09-24T10:27:20.72</time>
<name>3102</name>
</trkpt>
<trkpt lat="41.795027" lon="-1.780910">
<ele>1066.5</ele>
<speed>27.0</speed>
<course>301.6</course>
<desc>Speed 27.0 km/h Distance 11.04 km</desc>
<time>2011-09-24T10:27:21.71</time>
<name>3103</name>
</trkpt>
<trkpt lat="41.795063" lon="-1.780990">
<ele>1066.5</ele>
<speed>26.5</speed>
<course>299.7</course>
<desc>Speed 26.5 km/h Distance 11.05 km</desc>
<time>2011-09-24T10:27:22.72</time>
<name>3104</name>
</trkpt>
<trkpt lat="41.795097" lon="-1.781068">
<ele>1067.0</ele>
<speed>26.2</speed>
<course>300.3</course>
<desc>Speed 26.2 km/h Distance 11.06 km</desc>
<time>2011-09-24T10:27:23.72</time>
<name>3105</name>
</trkpt>
<trkpt lat="41.795130" lon="-1.781145">
<ele>1067.0</ele>
<speed>26.1</speed>
<course>300.3</course>
<desc>Speed 26.1 km/h Distance 11.07 km</desc>
<time>2011-09-24T10:27:24.71</time>
<name>3106</name>
</trkpt>
<trkpt lat="41.795163" lon="-1.781222">
<ele>1067.0</ele>
<speed>25.8</speed>
<course>300.9</course>
<desc>Speed 25.8 km/h Distance 11.07 km</desc>
<time>2011-09-24T10:27:25.71</time>
<name>3107</name>
</trkpt>
<trkpt lat="41.795198" lon="-1.781300">
<ele>1067.0</ele>
<speed>26.2</speed>
<course>293.2</course>
<desc>Speed 26.2 km/h Distance 11.08 km</desc>
<time>2011-09-24T10:27:26.71</time>
<name>3108</name>
</trkpt>
<trkpt lat="41.795225" lon="-1.781383">
<ele>1067.0</ele>
<speed>26.4</speed>
<course>299.2</course>
<desc>Speed 26.4 km/h Distance 11.09 km</desc>
<time>2011-09-24T10:27:27.71</time>
<name>3109</name>
</trkpt>
<trkpt lat="41.795258" lon="-1.781463">
<ele>1068.0</ele>
<speed>26.6</speed>
<course>296.7</course>
<desc>Speed 26.6 km/h Distance 11.10 km</desc>
<time>2011-09-24T10:27:28.71</time>
<name>3110</name>
</trkpt>
<trkpt lat="41.795288" lon="-1.781543">
<ele>1068.5</ele>
<speed>26.6</speed>
<course>296.2</course>
<desc>Speed 26.6 km/h Distance 11.10 km</desc>
<time>2011-09-24T10:27:29.71</time>
<name>3111</name>
</trkpt>
<trkpt lat="41.795318" lon="-1.781625">
<ele>1069.5</ele>
<speed>26.9</speed>
<course>297.5</course>
<desc>Speed 26.9 km/h Distance 11.11 km</desc>
<time>2011-09-24T10:27:30.71</time>
<name>3112</name>
</trkpt>
<trkpt lat="41.795350" lon="-1.781707">
<ele>1070.0</ele>
<speed>27.3</speed>
<course>299.9</course>
<desc>Speed 27.3 km/h Distance 11.12 km</desc>
<time>2011-09-24T10:27:31.71</time>
<name>3113</name>
</trkpt>
<trkpt lat="41.795385" lon="-1.781788">
<ele>1070.5</ele>
<speed>28.0</speed>
<course>299.4</course>
<desc>Speed 28.0 km/h Distance 11.13 km</desc>
<time>2011-09-24T10:27:32.70</time>
<name>3114</name>
</trkpt>
<trkpt lat="41.795420" lon="-1.781872">
<ele>1071.5</ele>
<speed>28.2</speed>
<course>297.7</course>
<desc>Speed 28.2 km/h Distance 11.14 km</desc>
<time>2011-09-24T10:27:33.71</time>
<name>3115</name>
</trkpt>
<trkpt lat="41.795453" lon="-1.781957">
<ele>1072.5</ele>
<speed>28.3</speed>
<course>300.5</course>
<desc>Speed 28.3 km/h Distance 11.14 km</desc>
<time>2011-09-24T10:27:34.71</time>
<name>3116</name>
</trkpt>
<trkpt lat="41.795490" lon="-1.782040">
<ele>1073.5</ele>
<speed>28.6</speed>
<course>302.3</course>
<desc>Speed 28.6 km/h Distance 11.15 km</desc>
<time>2011-09-24T10:27:35.70</time>
<name>3117</name>
</trkpt>
<trkpt lat="41.795530" lon="-1.782125">
<ele>1074.5</ele>
<speed>29.4</speed>
<course>310.0</course>
<desc>Speed 29.4 km/h Distance 11.16 km</desc>
<time>2011-09-24T10:27:36.71</time>
<name>3118</name>
</trkpt>
<trkpt lat="41.795580" lon="-1.782205">
<ele>1073.5</ele>
<speed>30.9</speed>
<course>305.4</course>
<desc>Speed 30.9 km/h Distance 11.17 km</desc>
<time>2011-09-24T10:27:37.71</time>
<name>3119</name>
</trkpt>
<trkpt lat="41.795625" lon="-1.782290">
<ele>1073.5</ele>
<speed>30.6</speed>
<course>300.8</course>
<desc>Speed 30.6 km/h Distance 11.18 km</desc>
<time>2011-09-24T10:27:38.70</time>
<name>3120</name>
</trkpt>
<trkpt lat="41.795665" lon="-1.782380">
<ele>1073.0</ele>
<speed>30.7</speed>
<course>302.9</course>
<desc>Speed 30.7 km/h Distance 11.19 km</desc>
<time>2011-09-24T10:27:39.70</time>
<name>3121</name>
</trkpt>
<trkpt lat="41.795708" lon="-1.782470">
<ele>1073.0</ele>
<speed>31.4</speed>
<course>302.9</course>
<desc>Speed 31.4 km/h Distance 11.20 km</desc>
<time>2011-09-24T10:27:40.70</time>
<name>3122</name>
</trkpt>
<trkpt lat="41.795752" lon="-1.782560">
<ele>1073.0</ele>
<speed>31.5</speed>
<course>302.4</course>
<desc>Speed 31.5 km/h Distance 11.20 km</desc>
<time>2011-09-24T10:27:41.70</time>
<name>3123</name>
</trkpt>
<trkpt lat="41.795795" lon="-1.782652">
<ele>1073.0</ele>
<speed>31.5</speed>
<course>301.8</course>
<desc>Speed 31.5 km/h Distance 11.21 km</desc>
<time>2011-09-24T10:27:42.70</time>
<name>3124</name>
</trkpt>
<trkpt lat="41.795837" lon="-1.782742">
<ele>1073.5</ele>
<speed>31.2</speed>
<course>299.3</course>
<desc>Speed 31.2 km/h Distance 11.22 km</desc>
<time>2011-09-24T10:27:43.70</time>
<name>3125</name>
</trkpt>
<trkpt lat="41.795875" lon="-1.782833">
<ele>1073.5</ele>
<speed>30.9</speed>
<course>300.8</course>
<desc>Speed 30.9 km/h Distance 11.23 km</desc>
<time>2011-09-24T10:27:44.69</time>
<name>3126</name>
</trkpt>
<trkpt lat="41.795915" lon="-1.782923">
<ele>1073.5</ele>
<speed>30.9</speed>
<course>300.7</course>
<desc>Speed 30.9 km/h Distance 11.24 km</desc>
<time>2011-09-24T10:27:45.69</time>
<name>3127</name>
</trkpt>
<trkpt lat="41.795953" lon="-1.783010">
<ele>1074.0</ele>
<speed>30.2</speed>
<course>298.0</course>
<desc>Speed 30.2 km/h Distance 11.25 km</desc>
<time>2011-09-24T10:27:46.69</time>
<name>3128</name>
</trkpt>
<trkpt lat="41.795988" lon="-1.783098">
<ele>1073.5</ele>
<speed>29.5</speed>
<course>296.6</course>
<desc>Speed 29.5 km/h Distance 11.26 km</desc>
<time>2011-09-24T10:27:47.69</time>
<name>3129</name>
</trkpt>
<trkpt lat="41.796020" lon="-1.783183">
<ele>1073.5</ele>
<speed>28.4</speed>
<course>292.4</course>
<desc>Speed 28.4 km/h Distance 11.26 km</desc>
<time>2011-09-24T10:27:48.69</time>
<name>3130</name>
</trkpt>
<trkpt lat="41.796047" lon="-1.783270">
<ele>1073.5</ele>
<speed>27.4</speed>
<course>289.2</course>
<desc>Speed 27.4 km/h Distance 11.27 km</desc>
<time>2011-09-24T10:27:49.69</time>
<name>3131</name>
</trkpt>
<trkpt lat="41.796068" lon="-1.783353">
<ele>1073.5</ele>
<speed>26.4</speed>
<course>286.4</course>
<desc>Speed 26.4 km/h Distance 11.28 km</desc>
<time>2011-09-24T10:27:50.69</time>
<name>3132</name>
</trkpt>
<trkpt lat="41.796087" lon="-1.783437">
<ele>1073.5</ele>
<speed>25.5</speed>
<course>287.1</course>
<desc>Speed 25.5 km/h Distance 11.29 km</desc>
<time>2011-09-24T10:27:51.69</time>
<name>3133</name>
</trkpt>
<trkpt lat="41.796105" lon="-1.783517">
<ele>1073.0</ele>
<speed>24.6</speed>
<course>284.4</course>
<desc>Speed 24.6 km/h Distance 11.29 km</desc>
<time>2011-09-24T10:27:52.69</time>
<name>3134</name>
</trkpt>
<trkpt lat="41.796120" lon="-1.783595">
<ele>1073.0</ele>
<speed>23.5</speed>
<course>285.3</course>
<desc>Speed 23.5 km/h Distance 11.30 km</desc>
<time>2011-09-24T10:27:53.69</time>
<name>3135</name>
</trkpt>
<trkpt lat="41.796135" lon="-1.783668">
<ele>1072.5</ele>
<speed>22.7</speed>
<course>280.6</course>
<desc>Speed 22.7 km/h Distance 11.31 km</desc>
<time>2011-09-24T10:27:54.69</time>
<name>3136</name>
</trkpt>
<trkpt lat="41.796145" lon="-1.783740">
<ele>1072.0</ele>
<speed>21.8</speed>
<course>281.1</course>
<desc>Speed 21.8 km/h Distance 11.31 km</desc>
<time>2011-09-24T10:27:55.69</time>
<name>3137</name>
</trkpt>
<trkpt lat="41.796155" lon="-1.783808">
<ele>1072.0</ele>
<speed>20.7</speed>
<course>279.3</course>
<desc>Speed 20.7 km/h Distance 11.32 km</desc>
<time>2011-09-24T10:27:56.69</time>
<name>3138</name>
</trkpt>
<trkpt lat="41.796163" lon="-1.783877">
<ele>1072.0</ele>
<speed>20.5</speed>
<course>275.7</course>
<desc>Speed 20.5 km/h Distance 11.32 km</desc>
<time>2011-09-24T10:27:57.69</time>
<name>3139</name>
</trkpt>
<trkpt lat="41.796168" lon="-1.783943">
<ele>1072.0</ele>
<speed>20.1</speed>
<course>264.8</course>
<desc>Speed 20.1 km/h Distance 11.33 km</desc>
<time>2011-09-24T10:27:58.69</time>
<name>3140</name>
</trkpt>
<trkpt lat="41.796163" lon="-1.784017">
<ele>1073.0</ele>
<speed>21.3</speed>
<course>271.8</course>
<desc>Speed 21.3 km/h Distance 11.34 km</desc>
<time>2011-09-24T10:27:59.68</time>
<name>3141</name>
</trkpt>
<trkpt lat="41.796165" lon="-1.784087">
<ele>1073.0</ele>
<speed>20.8</speed>
<course>273.7</course>
<desc>Speed 20.8 km/h Distance 11.34 km</desc>
<time>2011-09-24T10:28:00.68</time>
<name>3142</name>
</trkpt>
<trkpt lat="41.796168" lon="-1.784157">
<ele>1072.5</ele>
<speed>20.8</speed>
<course>277.6</course>
<desc>Speed 20.8 km/h Distance 11.35 km</desc>
<time>2011-09-24T10:28:01.69</time>
<name>3143</name>
</trkpt>
<trkpt lat="41.796175" lon="-1.784223">
<ele>1072.0</ele>
<speed>20.1</speed>
<course>272.5</course>
<desc>Speed 20.1 km/h Distance 11.35 km</desc>
<time>2011-09-24T10:28:02.68</time>
<name>3144</name>
</trkpt>
<trkpt lat="41.796177" lon="-1.784275">
<ele>1072.0</ele>
<speed>15.4</speed>
<course>273.9</course>
<desc>Speed 15.4 km/h Distance 11.36 km</desc>
<time>2011-09-24T10:28:03.68</time>
<name>3145</name>
</trkpt>
<trkpt lat="41.796180" lon="-1.784340">
<ele>1072.0</ele>
<speed>19.3</speed>
<course>273.9</course>
<desc>Speed 19.3 km/h Distance 11.36 km</desc>
<time>2011-09-24T10:28:04.68</time>
<name>3146</name>
</trkpt>
<trkpt lat="41.796183" lon="-1.784405">
<ele>1071.5</ele>
<speed>18.9</speed>
<course>274.5</course>
<desc>Speed 18.9 km/h Distance 11.37 km</desc>
<time>2011-09-24T10:28:05.68</time>
<name>3147</name>
</trkpt>
<trkpt lat="41.796187" lon="-1.784462">
<ele>1071.5</ele>
<speed>16.7</speed>
<course>286.2</course>
<desc>Speed 16.7 km/h Distance 11.37 km</desc>
<time>2011-09-24T10:28:06.68</time>
<name>3148</name>
</trkpt>
<trkpt lat="41.796200" lon="-1.784523">
<ele>1069.0</ele>
<speed>19.4</speed>
<course>282.6</course>
<desc>Speed 19.4 km/h Distance 11.38 km</desc>
<time>2011-09-24T10:28:07.68</time>
<name>3149</name>
</trkpt>
<trkpt lat="41.796210" lon="-1.784583">
<ele>1069.0</ele>
<speed>18.0</speed>
<course>283.9</course>
<desc>Speed 18.0 km/h Distance 11.38 km</desc>
<time>2011-09-24T10:28:08.68</time>
<name>3150</name>
</trkpt>
<trkpt lat="41.796222" lon="-1.784647">
<ele>1068.0</ele>
<speed>19.1</speed>
<course>273.7</course>
<desc>Speed 19.1 km/h Distance 11.39 km</desc>
<time>2011-09-24T10:28:09.68</time>
<name>3151</name>
</trkpt>
<trkpt lat="41.796225" lon="-1.784717">
<ele>1069.0</ele>
<speed>20.4</speed>
<course>277.8</course>
<desc>Speed 20.4 km/h Distance 11.39 km</desc>
<time>2011-09-24T10:28:10.67</time>
<name>3152</name>
</trkpt>
<trkpt lat="41.796232" lon="-1.784782">
<ele>1069.0</ele>
<speed>19.4</speed>
<course>255.5</course>
<desc>Speed 19.4 km/h Distance 11.40 km</desc>
<time>2011-09-24T10:28:11.67</time>
<name>3153</name>
</trkpt>
<trkpt lat="41.796223" lon="-1.784825">
<ele>1067.0</ele>
<speed>13.3</speed>
<course>267.8</course>
<desc>Speed 13.3 km/h Distance 11.40 km</desc>
<time>2011-09-24T10:28:12.67</time>
<name>3154</name>
</trkpt>
<trkpt lat="41.796222" lon="-1.784883">
<ele>1066.5</ele>
<speed>16.9</speed>
<course>270.0</course>
<desc>Speed 16.9 km/h Distance 11.41 km</desc>
<time>2011-09-24T10:28:13.68</time>
<name>3155</name>
</trkpt>
<trkpt lat="41.796222" lon="-1.784943">
<ele>1066.5</ele>
<speed>17.9</speed>
<course>275.9</course>
<desc>Speed 17.9 km/h Distance 11.41 km</desc>
<time>2011-09-24T10:28:14.67</time>
<name>3156</name>
</trkpt>
<trkpt lat="41.796227" lon="-1.785008">
<ele>1066.5</ele>
<speed>19.2</speed>
<course>279.3</course>
<desc>Speed 19.2 km/h Distance 11.42 km</desc>
<time>2011-09-24T10:28:15.68</time>
<name>3157</name>
</trkpt>
<trkpt lat="41.796235" lon="-1.785077">
<ele>1066.5</ele>
<speed>20.6</speed>
<course>273.7</course>
<desc>Speed 20.6 km/h Distance 11.42 km</desc>
<time>2011-09-24T10:28:16.67</time>
<name>3158</name>
</trkpt>
<trkpt lat="41.796238" lon="-1.785147">
<ele>1067.0</ele>
<speed>20.7</speed>
<course>277.6</course>
<desc>Speed 20.7 km/h Distance 11.43 km</desc>
<time>2011-09-24T10:28:17.68</time>
<name>3159</name>
</trkpt>
<trkpt lat="41.796245" lon="-1.785213">
<ele>1066.5</ele>
<speed>20.3</speed>
<course>280.6</course>
<desc>Speed 20.3 km/h Distance 11.44 km</desc>
<time>2011-09-24T10:28:18.67</time>
<name>3160</name>
</trkpt>
<trkpt lat="41.796255" lon="-1.785285">
<ele>1067.5</ele>
<speed>21.4</speed>
<course>273.7</course>
<desc>Speed 21.4 km/h Distance 11.44 km</desc>
<time>2011-09-24T10:28:19.66</time>
<name>3161</name>
</trkpt>
<trkpt lat="41.796258" lon="-1.785355">
<ele>1067.5</ele>
<speed>20.7</speed>
<course>278.7</course>
<desc>Speed 20.7 km/h Distance 11.45 km</desc>
<time>2011-09-24T10:28:20.66</time>
<name>3162</name>
</trkpt>
<trkpt lat="41.796267" lon="-1.785428">
<ele>1067.0</ele>
<speed>21.8</speed>
<course>282.3</course>
<desc>Speed 21.8 km/h Distance 11.45 km</desc>
<time>2011-09-24T10:28:21.68</time>
<name>3163</name>
</trkpt>
<trkpt lat="41.796278" lon="-1.785500">
<ele>1067.0</ele>
<speed>21.6</speed>
<course>283.7</course>
<desc>Speed 21.6 km/h Distance 11.46 km</desc>
<time>2011-09-24T10:28:22.66</time>
<name>3164</name>
</trkpt>
<trkpt lat="41.796292" lon="-1.785573">
<ele>1067.5</ele>
<speed>22.1</speed>
<course>288.9</course>
<desc>Speed 22.1 km/h Distance 11.47 km</desc>
<time>2011-09-24T10:28:23.66</time>
<name>3165</name>
</trkpt>
<trkpt lat="41.796310" lon="-1.785645">
<ele>1067.5</ele>
<speed>22.2</speed>
<course>294.6</course>
<desc>Speed 22.2 km/h Distance 11.47 km</desc>
<time>2011-09-24T10:28:24.67</time>
<name>3166</name>
</trkpt>
<trkpt lat="41.796333" lon="-1.785713">
<ele>1067.5</ele>
<speed>22.6</speed>
<course>301.8</course>
<desc>Speed 22.6 km/h Distance 11.48 km</desc>
<time>2011-09-24T10:28:25.67</time>
<name>3167</name>
</trkpt>
<trkpt lat="41.796363" lon="-1.785778">
<ele>1067.5</ele>
<speed>22.2</speed>
<course>308.8</course>
<desc>Speed 22.2 km/h Distance 11.48 km</desc>
<time>2011-09-24T10:28:26.66</time>
<name>3168</name>
</trkpt>
<trkpt lat="41.796398" lon="-1.785837">
<ele>1067.5</ele>
<speed>22.2</speed>
<course>316.3</course>
<desc>Speed 22.2 km/h Distance 11.49 km</desc>
<time>2011-09-24T10:28:27.66</time>
<name>3169</name>
</trkpt>
<trkpt lat="41.796440" lon="-1.785890">
<ele>1067.0</ele>
<speed>23.3</speed>
<course>320.2</course>
<desc>Speed 23.3 km/h Distance 11.50 km</desc>
<time>2011-09-24T10:28:28.67</time>
<name>3170</name>
</trkpt>
<trkpt lat="41.796483" lon="-1.785938">
<ele>1067.0</ele>
<speed>22.7</speed>
<course>325.2</course>
<desc>Speed 22.7 km/h Distance 11.50 km</desc>
<time>2011-09-24T10:28:29.66</time>
<name>3171</name>
</trkpt>
<trkpt lat="41.796532" lon="-1.785983">
<ele>1066.5</ele>
<speed>23.7</speed>
<course>329.0</course>
<desc>Speed 23.7 km/h Distance 11.51 km</desc>
<time>2011-09-24T10:28:30.66</time>
<name>3172</name>
</trkpt>
<trkpt lat="41.796583" lon="-1.786025">
<ele>1065.5</ele>
<speed>24.3</speed>
<course>331.0</course>
<desc>Speed 24.3 km/h Distance 11.52 km</desc>
<time>2011-09-24T10:28:31.66</time>
<name>3173</name>
</trkpt>
<trkpt lat="41.796635" lon="-1.786063">
<ele>1064.5</ele>
<speed>24.0</speed>
<course>328.3</course>
<desc>Speed 24.0 km/h Distance 11.52 km</desc>
<time>2011-09-24T10:28:32.66</time>
<name>3174</name>
</trkpt>
<trkpt lat="41.796683" lon="-1.786103">
<ele>1064.5</ele>
<speed>22.3</speed>
<course>335.9</course>
<desc>Speed 22.3 km/h Distance 11.53 km</desc>
<time>2011-09-24T10:28:33.66</time>
<name>3175</name>
</trkpt>
<trkpt lat="41.796742" lon="-1.786138">
<ele>1065.0</ele>
<speed>23.1</speed>
<course>331.1</course>
<desc>Speed 23.1 km/h Distance 11.54 km</desc>
<time>2011-09-24T10:28:34.65</time>
<name>3176</name>
</trkpt>
<trkpt lat="41.796793" lon="-1.786177">
<ele>1065.5</ele>
<speed>22.1</speed>
<course>327.1</course>
<desc>Speed 22.1 km/h Distance 11.54 km</desc>
<time>2011-09-24T10:28:35.66</time>
<name>3177</name>
</trkpt>
<trkpt lat="41.796843" lon="-1.786220">
<ele>1065.5</ele>
<speed>23.2</speed>
<course>331.3</course>
<desc>Speed 23.2 km/h Distance 11.55 km</desc>
<time>2011-09-24T10:28:36.65</time>
<name>3178</name>
</trkpt>
<trkpt lat="41.796900" lon="-1.786262">
<ele>1066.0</ele>
<speed>23.9</speed>
<course>333.9</course>
<desc>Speed 23.9 km/h Distance 11.56 km</desc>
<time>2011-09-24T10:28:37.65</time>
<name>3179</name>
</trkpt>
<trkpt lat="41.796953" lon="-1.786297">
<ele>1066.0</ele>
<speed>24.1</speed>
<course>336.3</course>
<desc>Speed 24.1 km/h Distance 11.56 km</desc>
<time>2011-09-24T10:28:38.65</time>
<name>3180</name>
</trkpt>
<trkpt lat="41.797010" lon="-1.786330">
<ele>1066.0</ele>
<speed>24.7</speed>
<course>331.1</course>
<desc>Speed 24.7 km/h Distance 11.57 km</desc>
<time>2011-09-24T10:28:39.66</time>
<name>3181</name>
</trkpt>
<trkpt lat="41.797062" lon="-1.786368">
<ele>1065.5</ele>
<speed>23.8</speed>
<course>330.8</course>
<desc>Speed 23.8 km/h Distance 11.58 km</desc>
<time>2011-09-24T10:28:40.66</time>
<name>3182</name>
</trkpt>
<trkpt lat="41.797115" lon="-1.786408">
<ele>1065.5</ele>
<speed>24.0</speed>
<course>330.0</course>
<desc>Speed 24.0 km/h Distance 11.58 km</desc>
<time>2011-09-24T10:28:41.65</time>
<name>3183</name>
</trkpt>
<trkpt lat="41.797167" lon="-1.786448">
<ele>1065.5</ele>
<speed>23.8</speed>
<course>331.1</course>
<desc>Speed 23.8 km/h Distance 11.59 km</desc>
<time>2011-09-24T10:28:42.65</time>
<name>3184</name>
</trkpt>
<trkpt lat="41.797218" lon="-1.786487">
<ele>1065.0</ele>
<speed>23.5</speed>
<course>331.0</course>
<desc>Speed 23.5 km/h Distance 11.60 km</desc>
<time>2011-09-24T10:28:43.65</time>
<name>3185</name>
</trkpt>
<trkpt lat="41.797270" lon="-1.786525">
<ele>1064.5</ele>
<speed>23.8</speed>
<course>330.0</course>
<desc>Speed 23.8 km/h Distance 11.60 km</desc>
<time>2011-09-24T10:28:44.64</time>
<name>3186</name>
</trkpt>
<trkpt lat="41.797322" lon="-1.786565">
<ele>1064.5</ele>
<speed>23.9</speed>
<course>327.8</course>
<desc>Speed 23.9 km/h Distance 11.61 km</desc>
<time>2011-09-24T10:28:45.65</time>
<name>3187</name>
</trkpt>
<trkpt lat="41.797375" lon="-1.786610">
<ele>1064.5</ele>
<speed>25.1</speed>
<course>326.0</course>
<desc>Speed 25.1 km/h Distance 11.62 km</desc>
<time>2011-09-24T10:28:46.64</time>
<name>3188</name>
</trkpt>
<trkpt lat="41.797427" lon="-1.786657">
<ele>1064.5</ele>
<speed>24.8</speed>
<course>326.9</course>
<desc>Speed 24.8 km/h Distance 11.62 km</desc>
<time>2011-09-24T10:28:47.64</time>
<name>3189</name>
</trkpt>
<trkpt lat="41.797480" lon="-1.786703">
<ele>1064.0</ele>
<speed>25.6</speed>
<course>323.3</course>
<desc>Speed 25.6 km/h Distance 11.63 km</desc>
<time>2011-09-24T10:28:48.64</time>
<name>3190</name>
</trkpt>
<trkpt lat="41.797530" lon="-1.786753">
<ele>1064.0</ele>
<speed>25.2</speed>
<course>320.6</course>
<desc>Speed 25.2 km/h Distance 11.64 km</desc>
<time>2011-09-24T10:28:49.64</time>
<name>3191</name>
</trkpt>
<trkpt lat="41.797580" lon="-1.786808">
<ele>1063.5</ele>
<speed>25.3</speed>
<course>317.7</course>
<desc>Speed 25.3 km/h Distance 11.65 km</desc>
<time>2011-09-24T10:28:50.64</time>
<name>3192</name>
</trkpt>
<trkpt lat="41.797625" lon="-1.786863">
<ele>1063.5</ele>
<speed>24.9</speed>
<course>316.8</course>
<desc>Speed 24.9 km/h Distance 11.65 km</desc>
<time>2011-09-24T10:28:51.63</time>
<name>3193</name>
</trkpt>
<trkpt lat="41.797670" lon="-1.786920">
<ele>1063.5</ele>
<speed>24.8</speed>
<course>316.8</course>
<desc>Speed 24.8 km/h Distance 11.66 km</desc>
<time>2011-09-24T10:28:52.64</time>
<name>3194</name>
</trkpt>
<trkpt lat="41.797715" lon="-1.786977">
<ele>1063.0</ele>
<speed>24.6</speed>
<course>314.1</course>
<desc>Speed 24.6 km/h Distance 11.67 km</desc>
<time>2011-09-24T10:28:53.63</time>
<name>3195</name>
</trkpt>
<trkpt lat="41.797758" lon="-1.787037">
<ele>1062.0</ele>
<speed>24.7</speed>
<course>311.8</course>
<desc>Speed 24.7 km/h Distance 11.67 km</desc>
<time>2011-09-24T10:28:54.64</time>
<name>3196</name>
</trkpt>
<trkpt lat="41.797798" lon="-1.787097">
<ele>1062.0</ele>
<speed>23.9</speed>
<course>310.6</course>
<desc>Speed 23.9 km/h Distance 11.68 km</desc>
<time>2011-09-24T10:28:55.63</time>
<name>3197</name>
</trkpt>
<trkpt lat="41.797837" lon="-1.787157">
<ele>1062.0</ele>
<speed>23.9</speed>
<course>311.0</course>
<desc>Speed 23.9 km/h Distance 11.69 km</desc>
<time>2011-09-24T10:28:56.63</time>
<name>3198</name>
</trkpt>
<trkpt lat="41.797877" lon="-1.787218">
<ele>1061.5</ele>
<speed>24.3</speed>
<course>307.8</course>
<desc>Speed 24.3 km/h Distance 11.69 km</desc>
<time>2011-09-24T10:28:57.63</time>
<name>3199</name>
</trkpt>
<trkpt lat="41.797913" lon="-1.787282">
<ele>1062.0</ele>
<speed>23.7</speed>
<course>301.9</course>
<desc>Speed 23.7 km/h Distance 11.70 km</desc>
<time>2011-09-24T10:28:58.63</time>
<name>3200</name>
</trkpt>
<trkpt lat="41.797945" lon="-1.787350">
<ele>1062.5</ele>
<speed>23.7</speed>
<course>301.2</course>
<desc>Speed 23.7 km/h Distance 11.71 km</desc>
<time>2011-09-24T10:28:59.63</time>
<name>3201</name>
</trkpt>
<trkpt lat="41.797977" lon="-1.787420">
<ele>1063.0</ele>
<speed>23.7</speed>
<course>299.9</course>
<desc>Speed 23.7 km/h Distance 11.71 km</desc>
<time>2011-09-24T10:29:00.63</time>
<name>3202</name>
</trkpt>
<trkpt lat="41.798007" lon="-1.787490">
<ele>1063.5</ele>
<speed>23.6</speed>
<course>296.5</course>
<desc>Speed 23.6 km/h Distance 11.72 km</desc>
<time>2011-09-24T10:29:01.63</time>
<name>3203</name>
</trkpt>
<trkpt lat="41.798033" lon="-1.787562">
<ele>1064.0</ele>
<speed>23.7</speed>
<course>297.4</course>
<desc>Speed 23.7 km/h Distance 11.73 km</desc>
<time>2011-09-24T10:29:02.63</time>
<name>3204</name>
</trkpt>
<trkpt lat="41.798062" lon="-1.787635">
<ele>1064.0</ele>
<speed>24.1</speed>
<course>297.9</course>
<desc>Speed 24.1 km/h Distance 11.73 km</desc>
<time>2011-09-24T10:29:03.63</time>
<name>3205</name>
</trkpt>
<trkpt lat="41.798090" lon="-1.787707">
<ele>1064.5</ele>
<speed>24.3</speed>
<course>290.0</course>
<desc>Speed 24.3 km/h Distance 11.74 km</desc>
<time>2011-09-24T10:29:04.62</time>
<name>3206</name>
</trkpt>
<trkpt lat="41.798112" lon="-1.787787">
<ele>1066.5</ele>
<speed>24.4</speed>
<course>297.4</course>
<desc>Speed 24.4 km/h Distance 11.75 km</desc>
<time>2011-09-24T10:29:05.62</time>
<name>3207</name>
</trkpt>
<trkpt lat="41.798140" lon="-1.787860">
<ele>1067.0</ele>
<speed>24.4</speed>
<course>294.1</course>
<desc>Speed 24.4 km/h Distance 11.75 km</desc>
<time>2011-09-24T10:29:06.62</time>
<name>3208</name>
</trkpt>
<trkpt lat="41.798165" lon="-1.787935">
<ele>1068.0</ele>
<speed>23.8</speed>
<course>287.4</course>
<desc>Speed 23.8 km/h Distance 11.76 km</desc>
<time>2011-09-24T10:29:07.63</time>
<name>3209</name>
</trkpt>
<trkpt lat="41.798183" lon="-1.788013">
<ele>1068.5</ele>
<speed>24.1</speed>
<course>288.9</course>
<desc>Speed 24.1 km/h Distance 11.77 km</desc>
<time>2011-09-24T10:29:08.62</time>
<name>3210</name>
</trkpt>
<trkpt lat="41.798203" lon="-1.788092">
<ele>1068.5</ele>
<speed>24.4</speed>
<course>287.4</course>
<desc>Speed 24.4 km/h Distance 11.77 km</desc>
<time>2011-09-24T10:29:09.62</time>
<name>3211</name>
</trkpt>
<trkpt lat="41.798222" lon="-1.788170">
<ele>1069.0</ele>
<speed>24.0</speed>
<course>284.1</course>
<desc>Speed 24.0 km/h Distance 11.78 km</desc>
<time>2011-09-24T10:29:10.62</time>
<name>3212</name>
</trkpt>
<trkpt lat="41.798237" lon="-1.788250">
<ele>1070.0</ele>
<speed>23.8</speed>
<course>287.4</course>
<desc>Speed 23.8 km/h Distance 11.79 km</desc>
<time>2011-09-24T10:29:11.62</time>
<name>3213</name>
</trkpt>
<trkpt lat="41.798255" lon="-1.788328">
<ele>1069.5</ele>
<speed>24.2</speed>
<course>290.0</course>
<desc>Speed 24.2 km/h Distance 11.80 km</desc>
<time>2011-09-24T10:29:12.62</time>
<name>3214</name>
</trkpt>
<trkpt lat="41.798277" lon="-1.788408">
<ele>1069.5</ele>
<speed>25.1</speed>
<course>286.4</course>
<desc>Speed 25.1 km/h Distance 11.80 km</desc>
<time>2011-09-24T10:29:13.62</time>
<name>3215</name>
</trkpt>
<trkpt lat="41.798295" lon="-1.788492">
<ele>1070.0</ele>
<speed>24.9</speed>
<course>295.4</course>
<desc>Speed 24.9 km/h Distance 11.81 km</desc>
<time>2011-09-24T10:29:14.62</time>
<name>3216</name>
</trkpt>
<trkpt lat="41.798323" lon="-1.788572">
<ele>1069.5</ele>
<speed>26.3</speed>
<course>299.7</course>
<desc>Speed 26.3 km/h Distance 11.82 km</desc>
<time>2011-09-24T10:29:15.62</time>
<name>3217</name>
</trkpt>
<trkpt lat="41.798357" lon="-1.788650">
<ele>1069.5</ele>
<speed>26.7</speed>
<course>301.6</course>
<desc>Speed 26.7 km/h Distance 11.82 km</desc>
<time>2011-09-24T10:29:16.61</time>
<name>3218</name>
</trkpt>
<trkpt lat="41.798393" lon="-1.788730">
<ele>1069.0</ele>
<speed>27.4</speed>
<course>303.9</course>
<desc>Speed 27.4 km/h Distance 11.83 km</desc>
<time>2011-09-24T10:29:17.61</time>
<name>3219</name>
</trkpt>
<trkpt lat="41.798433" lon="-1.788810">
<ele>1068.5</ele>
<speed>28.0</speed>
<course>300.6</course>
<desc>Speed 28.0 km/h Distance 11.84 km</desc>
<time>2011-09-24T10:29:18.61</time>
<name>3220</name>
</trkpt>
<trkpt lat="41.798470" lon="-1.788893">
<ele>1068.5</ele>
<speed>28.3</speed>
<course>301.7</course>
<desc>Speed 28.3 km/h Distance 11.85 km</desc>
<time>2011-09-24T10:29:19.60</time>
<name>3221</name>
</trkpt>
<trkpt lat="41.798508" lon="-1.788977">
<ele>1068.5</ele>
<speed>28.7</speed>
<course>301.7</course>
<desc>Speed 28.7 km/h Distance 11.86 km</desc>
<time>2011-09-24T10:29:20.60</time>
<name>3222</name>
</trkpt>
<trkpt lat="41.798547" lon="-1.789060">
<ele>1068.0</ele>
<speed>28.9</speed>
<course>307.0</course>
<desc>Speed 28.9 km/h Distance 11.86 km</desc>
<time>2011-09-24T10:29:21.60</time>
<name>3223</name>
</trkpt>
<trkpt lat="41.798592" lon="-1.789140">
<ele>1067.5</ele>
<speed>29.4</speed>
<course>307.0</course>
<desc>Speed 29.4 km/h Distance 11.87 km</desc>
<time>2011-09-24T10:29:22.60</time>
<name>3224</name>
</trkpt>
<trkpt lat="41.798637" lon="-1.789220">
<ele>1067.0</ele>
<speed>29.3</speed>
<course>306.6</course>
<desc>Speed 29.3 km/h Distance 11.88 km</desc>
<time>2011-09-24T10:29:23.60</time>
<name>3225</name>
</trkpt>
<trkpt lat="41.798680" lon="-1.789298">
<ele>1067.0</ele>
<speed>28.6</speed>
<course>306.6</course>
<desc>Speed 28.6 km/h Distance 11.89 km</desc>
<time>2011-09-24T10:29:24.60</time>
<name>3226</name>
</trkpt>
<trkpt lat="41.798723" lon="-1.789377">
<ele>1066.0</ele>
<speed>28.4</speed>
<course>310.1</course>
<desc>Speed 28.4 km/h Distance 11.90 km</desc>
<time>2011-09-24T10:29:25.60</time>
<name>3227</name>
</trkpt>
<trkpt lat="41.798768" lon="-1.789448">
<ele>1065.5</ele>
<speed>27.7</speed>
<course>326.1</course>
<desc>Speed 27.7 km/h Distance 11.91 km</desc>
<time>2011-09-24T10:29:26.60</time>
<name>3228</name>
</trkpt>
<trkpt lat="41.798837" lon="-1.789510">
<ele>1065.0</ele>
<speed>31.9</speed>
<course>327.4</course>
<desc>Speed 31.9 km/h Distance 11.91 km</desc>
<time>2011-09-24T10:29:27.60</time>
<name>3229</name>
</trkpt>
<trkpt lat="41.798895" lon="-1.789560">
<ele>1066.0</ele>
<speed>27.1</speed>
<course>336.1</course>
<desc>Speed 27.1 km/h Distance 11.92 km</desc>
<time>2011-09-24T10:29:28.60</time>
<name>3230</name>
</trkpt>
<trkpt lat="41.798957" lon="-1.789597">
<ele>1066.0</ele>
<speed>26.8</speed>
<course>0.0</course>
<desc>Speed 26.8 km/h Distance 11.93 km</desc>
<time>2011-09-24T10:29:29.59</time>
<name>3231</name>
</trkpt>
<trkpt lat="41.799040" lon="-1.789597">
<ele>1065.5</ele>
<speed>32.9</speed>
<course>1.8</course>
<desc>Speed 32.9 km/h Distance 11.94 km</desc>
<time>2011-09-24T10:29:30.60</time>
<name>3232</name>
</trkpt>
<trkpt lat="41.799115" lon="-1.789593">
<ele>1065.0</ele>
<speed>29.2</speed>
<course>15.8</course>
<desc>Speed 29.2 km/h Distance 11.95 km</desc>
<time>2011-09-24T10:29:31.59</time>
<name>3233</name>
</trkpt>
<trkpt lat="41.799185" lon="-1.789567">
<ele>1065.0</ele>
<speed>28.7</speed>
<course>21.9</course>
<desc>Speed 28.7 km/h Distance 11.96 km</desc>
<time>2011-09-24T10:29:32.59</time>
<name>3234</name>
</trkpt>
<trkpt lat="41.799250" lon="-1.789532">
<ele>1065.0</ele>
<speed>27.7</speed>
<course>34.3</course>
<desc>Speed 27.7 km/h Distance 11.96 km</desc>
<time>2011-09-24T10:29:33.59</time>
<name>3235</name>
</trkpt>
<trkpt lat="41.799308" lon="-1.789478">
<ele>1065.5</ele>
<speed>28.3</speed>
<course>42.4</course>
<desc>Speed 28.3 km/h Distance 11.97 km</desc>
<time>2011-09-24T10:29:34.59</time>
<name>3236</name>
</trkpt>
<trkpt lat="41.799360" lon="-1.789415">
<ele>1065.5</ele>
<speed>28.6</speed>
<course>48.6</course>
<desc>Speed 28.6 km/h Distance 11.98 km</desc>
<time>2011-09-24T10:29:35.59</time>
<name>3237</name>
</trkpt>
<trkpt lat="41.799402" lon="-1.789352">
<ele>1065.5</ele>
<speed>25.2</speed>
<course>49.3</course>
<desc>Speed 25.2 km/h Distance 11.99 km</desc>
<time>2011-09-24T10:29:36.58</time>
<name>3238</name>
</trkpt>
<trkpt lat="41.799443" lon="-1.789287">
<ele>1065.0</ele>
<speed>26.1</speed>
<course>47.5</course>
<desc>Speed 26.1 km/h Distance 11.99 km</desc>
<time>2011-09-24T10:29:37.69</time>
<name>3239</name>
</trkpt>
<trkpt lat="41.799490" lon="-1.789218">
<ele>1065.0</ele>
<speed>27.7</speed>
<course>47.5</course>
<desc>Speed 27.7 km/h Distance 12.00 km</desc>
<time>2011-09-24T10:29:38.59</time>
<name>3240</name>
</trkpt>
<trkpt lat="41.799537" lon="-1.789150">
<ele>1064.0</ele>
<speed>27.6</speed>
<course>46.8</course>
<desc>Speed 27.6 km/h Distance 12.01 km</desc>
<time>2011-09-24T10:29:39.59</time>
<name>3241</name>
</trkpt>
<trkpt lat="41.799583" lon="-1.789083">
<ele>1064.0</ele>
<speed>27.4</speed>
<course>45.8</course>
<desc>Speed 27.4 km/h Distance 12.02 km</desc>
<time>2011-09-24T10:29:40.59</time>
<name>3242</name>
</trkpt>
<trkpt lat="41.799632" lon="-1.789017">
<ele>1063.5</ele>
<speed>27.7</speed>
<course>45.3</course>
<desc>Speed 27.7 km/h Distance 12.02 km</desc>
<time>2011-09-24T10:29:41.58</time>
<name>3243</name>
</trkpt>
<trkpt lat="41.799678" lon="-1.788953">
<ele>1063.5</ele>
<speed>26.3</speed>
<course>44.0</course>
<desc>Speed 26.3 km/h Distance 12.03 km</desc>
<time>2011-09-24T10:29:42.58</time>
<name>3244</name>
</trkpt>
<trkpt lat="41.799723" lon="-1.788895">
<ele>1063.0</ele>
<speed>25.4</speed>
<course>43.8</course>
<desc>Speed 25.4 km/h Distance 12.04 km</desc>
<time>2011-09-24T10:29:43.58</time>
<name>3245</name>
</trkpt>
<trkpt lat="41.799770" lon="-1.788835">
<ele>1062.5</ele>
<speed>25.7</speed>
<course>44.8</course>
<desc>Speed 25.7 km/h Distance 12.04 km</desc>
<time>2011-09-24T10:29:44.58</time>
<name>3246</name>
</trkpt>
<trkpt lat="41.799815" lon="-1.788775">
<ele>1062.5</ele>
<speed>24.9</speed>
<course>49.0</course>
<desc>Speed 24.9 km/h Distance 12.05 km</desc>
<time>2011-09-24T10:29:45.58</time>
<name>3247</name>
</trkpt>
<trkpt lat="41.799855" lon="-1.788713">
<ele>1062.5</ele>
<speed>24.7</speed>
<course>44.6</course>
<desc>Speed 24.7 km/h Distance 12.06 km</desc>
<time>2011-09-24T10:29:46.58</time>
<name>3248</name>
</trkpt>
<trkpt lat="41.799902" lon="-1.788652">
<ele>1062.5</ele>
<speed>25.8</speed>
<course>44.0</course>
<desc>Speed 25.8 km/h Distance 12.07 km</desc>
<time>2011-09-24T10:29:47.58</time>
<name>3249</name>
</trkpt>
<trkpt lat="41.799947" lon="-1.788593">
<ele>1062.5</ele>
<speed>25.1</speed>
<course>45.1</course>
<desc>Speed 25.1 km/h Distance 12.07 km</desc>
<time>2011-09-24T10:29:48.58</time>
<name>3250</name>
</trkpt>
<trkpt lat="41.799990" lon="-1.788535">
<ele>1062.5</ele>
<speed>24.5</speed>
<course>45.6</course>
<desc>Speed 24.5 km/h Distance 12.08 km</desc>
<time>2011-09-24T10:29:49.57</time>
<name>3251</name>
</trkpt>
<trkpt lat="41.800035" lon="-1.788473">
<ele>1062.5</ele>
<speed>25.3</speed>
<course>46.4</course>
<desc>Speed 25.3 km/h Distance 12.09 km</desc>
<time>2011-09-24T10:29:50.57</time>
<name>3252</name>
</trkpt>
<trkpt lat="41.800080" lon="-1.788410">
<ele>1062.0</ele>
<speed>25.6</speed>
<course>47.5</course>
<desc>Speed 25.6 km/h Distance 12.09 km</desc>
<time>2011-09-24T10:29:51.58</time>
<name>3253</name>
</trkpt>
<trkpt lat="41.800123" lon="-1.788347">
<ele>1062.0</ele>
<speed>25.9</speed>
<course>48.2</course>
<desc>Speed 25.9 km/h Distance 12.10 km</desc>
<time>2011-09-24T10:29:52.57</time>
<name>3254</name>
</trkpt>
<trkpt lat="41.800167" lon="-1.788282">
<ele>1062.0</ele>
<speed>25.6</speed>
<course>50.0</course>
<desc>Speed 25.6 km/h Distance 12.11 km</desc>
<time>2011-09-24T10:29:53.57</time>
<name>3255</name>
</trkpt>
<trkpt lat="41.800208" lon="-1.788215">
<ele>1062.0</ele>
<speed>25.5</speed>
<course>53.0</course>
<desc>Speed 25.5 km/h Distance 12.12 km</desc>
<time>2011-09-24T10:29:54.57</time>
<name>3256</name>
</trkpt>
<trkpt lat="41.800247" lon="-1.788147">
<ele>1062.0</ele>
<speed>25.2</speed>
<course>56.2</course>
<desc>Speed 25.2 km/h Distance 12.12 km</desc>
<time>2011-09-24T10:29:55.57</time>
<name>3257</name>
</trkpt>
<trkpt lat="41.800282" lon="-1.788077">
<ele>1062.0</ele>
<speed>24.8</speed>
<course>55.5</course>
<desc>Speed 24.8 km/h Distance 12.13 km</desc>
<time>2011-09-24T10:29:56.57</time>
<name>3258</name>
</trkpt>
<trkpt lat="41.800317" lon="-1.788008">
<ele>1062.0</ele>
<speed>24.4</speed>
<course>52.9</course>
<desc>Speed 24.4 km/h Distance 12.14 km</desc>
<time>2011-09-24T10:29:57.57</time>
<name>3259</name>
</trkpt>
<trkpt lat="41.800353" lon="-1.787943">
<ele>1062.5</ele>
<speed>23.8</speed>
<course>54.8</course>
<desc>Speed 23.8 km/h Distance 12.14 km</desc>
<time>2011-09-24T10:29:58.57</time>
<name>3260</name>
</trkpt>
<trkpt lat="41.800388" lon="-1.787877">
<ele>1062.0</ele>
<speed>23.7</speed>
<course>58.1</course>
<desc>Speed 23.7 km/h Distance 12.15 km</desc>
<time>2011-09-24T10:29:59.57</time>
<name>3261</name>
</trkpt>
<trkpt lat="41.800420" lon="-1.787808">
<ele>1062.0</ele>
<speed>23.6</speed>
<course>60.3</course>
<desc>Speed 23.6 km/h Distance 12.16 km</desc>
<time>2011-09-24T10:30:00.57</time>
<name>3262</name>
</trkpt>
<trkpt lat="41.800448" lon="-1.787742">
<ele>1062.0</ele>
<speed>22.8</speed>
<course>55.4</course>
<desc>Speed 22.8 km/h Distance 12.16 km</desc>
<time>2011-09-24T10:30:01.56</time>
<name>3263</name>
</trkpt>
<trkpt lat="41.800480" lon="-1.787680">
<ele>1062.0</ele>
<speed>22.2</speed>
<course>54.7</course>
<desc>Speed 22.2 km/h Distance 12.17 km</desc>
<time>2011-09-24T10:30:02.56</time>
<name>3264</name>
</trkpt>
<trkpt lat="41.800512" lon="-1.787620">
<ele>1062.0</ele>
<speed>21.7</speed>
<course>55.4</course>
<desc>Speed 21.7 km/h Distance 12.18 km</desc>
<time>2011-09-24T10:30:03.57</time>
<name>3265</name>
</trkpt>
<trkpt lat="41.800542" lon="-1.787562">
<ele>1061.5</ele>
<speed>20.8</speed>
<course>57.0</course>
<desc>Speed 20.8 km/h Distance 12.18 km</desc>
<time>2011-09-24T10:30:04.56</time>
<name>3266</name>
</trkpt>
<trkpt lat="41.800568" lon="-1.787507">
<ele>1062.0</ele>
<speed>19.4</speed>
<course>54.5</course>
<desc>Speed 19.4 km/h Distance 12.19 km</desc>
<time>2011-09-24T10:30:05.56</time>
<name>3267</name>
</trkpt>
<trkpt lat="41.800597" lon="-1.787453">
<ele>1062.0</ele>
<speed>19.0</speed>
<course>57.0</course>
<desc>Speed 19.0 km/h Distance 12.19 km</desc>
<time>2011-09-24T10:30:06.56</time>
<name>3268</name>
</trkpt>
<trkpt lat="41.800622" lon="-1.787402">
<ele>1062.0</ele>
<speed>18.3</speed>
<course>53.8</course>
<desc>Speed 18.3 km/h Distance 12.20 km</desc>
<time>2011-09-24T10:30:07.56</time>
<name>3269</name>
</trkpt>
<trkpt lat="41.800652" lon="-1.787347">
<ele>1061.5</ele>
<speed>19.9</speed>
<course>41.3</course>
<desc>Speed 19.9 km/h Distance 12.20 km</desc>
<time>2011-09-24T10:30:08.56</time>
<name>3270</name>
</trkpt>
<trkpt lat="41.800698" lon="-1.787292">
<ele>1062.0</ele>
<speed>20.8</speed>
<course>51.2</course>
<desc>Speed 20.8 km/h Distance 12.21 km</desc>
<time>2011-09-24T10:30:09.56</time>
<name>3271</name>
</trkpt>
<trkpt lat="41.800733" lon="-1.787233">
<ele>1062.0</ele>
<speed>21.9</speed>
<course>44.3</course>
<desc>Speed 21.9 km/h Distance 12.22 km</desc>
<time>2011-09-24T10:30:10.56</time>
<name>3272</name>
</trkpt>
<trkpt lat="41.800777" lon="-1.787177">
<ele>1061.5</ele>
<speed>22.0</speed>
<course>57.6</course>
<desc>Speed 22.0 km/h Distance 12.22 km</desc>
<time>2011-09-24T10:30:11.56</time>
<name>3273</name>
</trkpt>
<trkpt lat="41.800807" lon="-1.787113">
<ele>1061.0</ele>
<speed>22.0</speed>
<course>56.9</course>
<desc>Speed 22.0 km/h Distance 12.23 km</desc>
<time>2011-09-24T10:30:12.56</time>
<name>3274</name>
</trkpt>
<trkpt lat="41.800837" lon="-1.787052">
<ele>1060.5</ele>
<speed>21.7</speed>
<course>55.4</course>
<desc>Speed 21.7 km/h Distance 12.24 km</desc>
<time>2011-09-24T10:30:13.56</time>
<name>3275</name>
</trkpt>
<trkpt lat="41.800868" lon="-1.786990">
<ele>1060.5</ele>
<speed>21.7</speed>
<course>54.7</course>
<desc>Speed 21.7 km/h Distance 12.24 km</desc>
<time>2011-09-24T10:30:14.55</time>
<name>3276</name>
</trkpt>
<trkpt lat="41.800900" lon="-1.786930">
<ele>1060.5</ele>
<speed>21.8</speed>
<course>54.7</course>
<desc>Speed 21.8 km/h Distance 12.25 km</desc>
<time>2011-09-24T10:30:15.55</time>
<name>3277</name>
</trkpt>
<trkpt lat="41.800932" lon="-1.786870">
<ele>1060.5</ele>
<speed>21.5</speed>
<course>56.2</course>
<desc>Speed 21.5 km/h Distance 12.25 km</desc>
<time>2011-09-24T10:30:16.55</time>
<name>3278</name>
</trkpt>
<trkpt lat="41.800962" lon="-1.786810">
<ele>1060.5</ele>
<speed>21.2</speed>
<course>54.7</course>
<desc>Speed 21.2 km/h Distance 12.26 km</desc>
<time>2011-09-24T10:30:17.55</time>
<name>3279</name>
</trkpt>
<trkpt lat="41.800993" lon="-1.786750">
<ele>1060.5</ele>
<speed>21.2</speed>
<course>59.2</course>
<desc>Speed 21.2 km/h Distance 12.27 km</desc>
<time>2011-09-24T10:30:18.55</time>
<name>3280</name>
</trkpt>
<trkpt lat="41.801020" lon="-1.786690">
<ele>1060.5</ele>
<speed>20.8</speed>
<course>57.6</course>
<desc>Speed 20.8 km/h Distance 12.27 km</desc>
<time>2011-09-24T10:30:19.55</time>
<name>3281</name>
</trkpt>
<trkpt lat="41.801048" lon="-1.786630">
<ele>1060.5</ele>
<speed>20.4</speed>
<course>58.5</course>
<desc>Speed 20.4 km/h Distance 12.28 km</desc>
<time>2011-09-24T10:30:20.55</time>
<name>3282</name>
</trkpt>
<trkpt lat="41.801075" lon="-1.786572">
<ele>1060.5</ele>
<speed>20.3</speed>
<course>56.9</course>
<desc>Speed 20.3 km/h Distance 12.28 km</desc>
<time>2011-09-24T10:30:21.55</time>
<name>3283</name>
</trkpt>
<trkpt lat="41.801103" lon="-1.786513">
<ele>1061.0</ele>
<speed>20.5</speed>
<course>57.7</course>
<desc>Speed 20.5 km/h Distance 12.29 km</desc>
<time>2011-09-24T10:30:22.55</time>
<name>3284</name>
</trkpt>
<trkpt lat="41.801130" lon="-1.786457">
<ele>1061.0</ele>
<speed>20.3</speed>
<course>58.5</course>
<desc>Speed 20.3 km/h Distance 12.29 km</desc>
<time>2011-09-24T10:30:23.55</time>
<name>3285</name>
</trkpt>
<trkpt lat="41.801157" lon="-1.786398">
<ele>1061.0</ele>
<speed>20.2</speed>
<course>56.9</course>
<desc>Speed 20.2 km/h Distance 12.30 km</desc>
<time>2011-09-24T10:30:24.54</time>
<name>3286</name>
</trkpt>
<trkpt lat="41.801185" lon="-1.786340">
<ele>1060.5</ele>
<speed>20.6</speed>
<course>56.9</course>
<desc>Speed 20.6 km/h Distance 12.31 km</desc>
<time>2011-09-24T10:30:25.55</time>
<name>3287</name>
</trkpt>
<trkpt lat="41.801213" lon="-1.786282">
<ele>1061.0</ele>
<speed>20.5</speed>
<course>51.5</course>
<desc>Speed 20.5 km/h Distance 12.31 km</desc>
<time>2011-09-24T10:30:26.54</time>
<name>3288</name>
</trkpt>
<trkpt lat="41.801245" lon="-1.786228">
<ele>1060.5</ele>
<speed>20.6</speed>
<course>43.2</course>
<desc>Speed 20.6 km/h Distance 12.32 km</desc>
<time>2011-09-24T10:30:27.54</time>
<name>3289</name>
</trkpt>
<trkpt lat="41.801283" lon="-1.786180">
<ele>1060.5</ele>
<speed>20.5</speed>
<course>33.5</course>
<desc>Speed 20.5 km/h Distance 12.32 km</desc>
<time>2011-09-24T10:30:28.54</time>
<name>3290</name>
</trkpt>
<trkpt lat="41.801328" lon="-1.786140">
<ele>1060.5</ele>
<speed>20.7</speed>
<course>18.5</course>
<desc>Speed 20.7 km/h Distance 12.33 km</desc>
<time>2011-09-24T10:30:29.54</time>
<name>3291</name>
</trkpt>
<trkpt lat="41.801377" lon="-1.786118">
<ele>1061.0</ele>
<speed>19.5</speed>
<course>8.8</course>
<desc>Speed 19.5 km/h Distance 12.34 km</desc>
<time>2011-09-24T10:30:30.54</time>
<name>3292</name>
</trkpt>
<trkpt lat="41.801425" lon="-1.786108">
<ele>1061.5</ele>
<speed>18.8</speed>
<course>358.5</course>
<desc>Speed 18.8 km/h Distance 12.34 km</desc>
<time>2011-09-24T10:30:31.54</time>
<name>3293</name>
</trkpt>
<trkpt lat="41.801473" lon="-1.786110">
<ele>1061.5</ele>
<speed>19.1</speed>
<course>346.8</course>
<desc>Speed 19.1 km/h Distance 12.35 km</desc>
<time>2011-09-24T10:30:32.54</time>
<name>3294</name>
</trkpt>
<trkpt lat="41.801532" lon="-1.786128">
<ele>1061.5</ele>
<speed>18.9</speed>
<course>340.2</course>
<desc>Speed 18.9 km/h Distance 12.35 km</desc>
<time>2011-09-24T10:30:33.53</time>
<name>3295</name>
</trkpt>
<trkpt lat="41.801580" lon="-1.786152">
<ele>1061.5</ele>
<speed>19.9</speed>
<course>343.9</course>
<desc>Speed 19.9 km/h Distance 12.36 km</desc>
<time>2011-09-24T10:30:34.53</time>
<name>3296</name>
</trkpt>
<trkpt lat="41.801632" lon="-1.786172">
<ele>1061.0</ele>
<speed>20.7</speed>
<course>342.7</course>
<desc>Speed 20.7 km/h Distance 12.36 km</desc>
<time>2011-09-24T10:30:35.53</time>
<name>3297</name>
</trkpt>
<trkpt lat="41.801692" lon="-1.786197">
<ele>1061.0</ele>
<speed>20.6</speed>
<course>344.1</course>
<desc>Speed 20.6 km/h Distance 12.37 km</desc>
<time>2011-09-24T10:30:36.53</time>
<name>3298</name>
</trkpt>
<trkpt lat="41.801748" lon="-1.786218">
<ele>1060.5</ele>
<speed>20.6</speed>
<course>337.3</course>
<desc>Speed 20.6 km/h Distance 12.38 km</desc>
<time>2011-09-24T10:30:37.53</time>
<name>3299</name>
</trkpt>
<trkpt lat="41.801802" lon="-1.786248">
<ele>1061.0</ele>
<speed>20.6</speed>
<course>338.4</course>
<desc>Speed 20.6 km/h Distance 12.38 km</desc>
<time>2011-09-24T10:30:38.54</time>
<name>3300</name>
</trkpt>
<trkpt lat="41.801855" lon="-1.786277">
<ele>1061.0</ele>
<speed>21.1</speed>
<course>340.1</course>
<desc>Speed 21.1 km/h Distance 12.39 km</desc>
<time>2011-09-24T10:30:39.53</time>
<name>3301</name>
</trkpt>
<trkpt lat="41.801910" lon="-1.786303">
<ele>1061.0</ele>
<speed>21.6</speed>
<course>336.5</course>
<desc>Speed 21.6 km/h Distance 12.40 km</desc>
<time>2011-09-24T10:30:40.53</time>
<name>3302</name>
</trkpt>
<trkpt lat="41.801950" lon="-1.786327">
<ele>1062.0</ele>
<speed>14.8</speed>
<course>335.7</course>
<desc>Speed 14.8 km/h Distance 12.40 km</desc>
<time>2011-09-24T10:30:41.53</time>
<name>3303</name>
</trkpt>
<trkpt lat="41.801997" lon="-1.786355">
<ele>1063.5</ele>
<speed>18.1</speed>
<course>333.6</course>
<desc>Speed 18.1 km/h Distance 12.41 km</desc>
<time>2011-09-24T10:30:42.53</time>
<name>3304</name>
</trkpt>
<trkpt lat="41.802042" lon="-1.786385">
<ele>1064.5</ele>
<speed>18.7</speed>
<course>331.4</course>
<desc>Speed 18.7 km/h Distance 12.41 km</desc>
<time>2011-09-24T10:30:43.53</time>
<name>3305</name>
</trkpt>
<trkpt lat="41.802085" lon="-1.786417">
<ele>1065.0</ele>
<speed>17.9</speed>
<course>328.3</course>
<desc>Speed 17.9 km/h Distance 12.42 km</desc>
<time>2011-09-24T10:30:44.53</time>
<name>3306</name>
</trkpt>
<trkpt lat="41.802123" lon="-1.786448">
<ele>1065.0</ele>
<speed>17.7</speed>
<course>322.1</course>
<desc>Speed 17.7 km/h Distance 12.42 km</desc>
<time>2011-09-24T10:30:45.53</time>
<name>3307</name>
</trkpt>
<trkpt lat="41.802160" lon="-1.786487">
<ele>1065.5</ele>
<speed>17.4</speed>
<course>314.4</course>
<desc>Speed 17.4 km/h Distance 12.43 km</desc>
<time>2011-09-24T10:30:46.53</time>
<name>3308</name>
</trkpt>
<trkpt lat="41.802192" lon="-1.786530">
<ele>1066.0</ele>
<speed>16.9</speed>
<course>312.9</course>
<desc>Speed 16.9 km/h Distance 12.43 km</desc>
<time>2011-09-24T10:30:47.53</time>
<name>3309</name>
</trkpt>
<trkpt lat="41.802222" lon="-1.786573">
<ele>1066.0</ele>
<speed>17.3</speed>
<course>311.3</course>
<desc>Speed 17.3 km/h Distance 12.44 km</desc>
<time>2011-09-24T10:30:48.53</time>
<name>3310</name>
</trkpt>
<trkpt lat="41.802250" lon="-1.786617">
<ele>1066.5</ele>
<speed>16.7</speed>
<course>307.5</course>
<desc>Speed 16.7 km/h Distance 12.44 km</desc>
<time>2011-09-24T10:30:49.53</time>
<name>3311</name>
</trkpt>
<trkpt lat="41.802277" lon="-1.786663">
<ele>1067.0</ele>
<speed>16.9</speed>
<course>303.9</course>
<desc>Speed 16.9 km/h Distance 12.45 km</desc>
<time>2011-09-24T10:30:50.52</time>
<name>3312</name>
</trkpt>
<trkpt lat="41.802302" lon="-1.786713">
<ele>1067.5</ele>
<speed>17.5</speed>
<course>303.9</course>
<desc>Speed 17.5 km/h Distance 12.45 km</desc>
<time>2011-09-24T10:30:51.52</time>
<name>3313</name>
</trkpt>
<trkpt lat="41.802328" lon="-1.786767">
<ele>1067.5</ele>
<speed>18.0</speed>
<course>298.6</course>
<desc>Speed 18.0 km/h Distance 12.46 km</desc>
<time>2011-09-24T10:30:52.52</time>
<name>3314</name>
</trkpt>
<trkpt lat="41.802350" lon="-1.786820">
<ele>1068.0</ele>
<speed>17.4</speed>
<course>298.6</course>
<desc>Speed 17.4 km/h Distance 12.46 km</desc>
<time>2011-09-24T10:30:53.53</time>
<name>3315</name>
</trkpt>
<trkpt lat="41.802372" lon="-1.786873">
<ele>1068.0</ele>
<speed>16.6</speed>
<course>299.9</course>
<desc>Speed 16.6 km/h Distance 12.47 km</desc>
<time>2011-09-24T10:30:54.52</time>
<name>3316</name>
</trkpt>
<trkpt lat="41.802392" lon="-1.786920">
<ele>1068.0</ele>
<speed>16.1</speed>
<course>304.8</course>
<desc>Speed 16.1 km/h Distance 12.47 km</desc>
<time>2011-09-24T10:30:55.52</time>
<name>3317</name>
</trkpt>
<trkpt lat="41.802415" lon="-1.786965">
<ele>1068.0</ele>
<speed>15.5</speed>
<course>309.6</course>
<desc>Speed 15.5 km/h Distance 12.48 km</desc>
<time>2011-09-24T10:30:56.51</time>
<name>3318</name>
</trkpt>
<trkpt lat="41.802442" lon="-1.787008">
<ele>1068.0</ele>
<speed>15.2</speed>
<course>305.8</course>
<desc>Speed 15.2 km/h Distance 12.48 km</desc>
<time>2011-09-24T10:30:57.51</time>
<name>3319</name>
</trkpt>
<trkpt lat="41.802465" lon="-1.787052">
<ele>1067.5</ele>
<speed>14.8</speed>
<course>298.7</course>
<desc>Speed 14.8 km/h Distance 12.49 km</desc>
<time>2011-09-24T10:30:58.51</time>
<name>3320</name>
</trkpt>
<trkpt lat="41.802483" lon="-1.787097">
<ele>1067.5</ele>
<speed>14.5</speed>
<course>301.8</course>
<desc>Speed 14.5 km/h Distance 12.49 km</desc>
<time>2011-09-24T10:30:59.51</time>
<name>3321</name>
</trkpt>
<trkpt lat="41.802503" lon="-1.787140">
<ele>1068.0</ele>
<speed>14.3</speed>
<course>300.5</course>
<desc>Speed 14.3 km/h Distance 12.50 km</desc>
<time>2011-09-24T10:31:00.51</time>
<name>3322</name>
</trkpt>
<trkpt lat="41.802522" lon="-1.787182">
<ele>1068.0</ele>
<speed>14.0</speed>
<course>301.6</course>
<desc>Speed 14.0 km/h Distance 12.50 km</desc>
<time>2011-09-24T10:31:01.51</time>
<name>3323</name>
</trkpt>
<trkpt lat="41.802540" lon="-1.787222">
<ele>1068.0</ele>
<speed>13.4</speed>
<course>304.9</course>
<desc>Speed 13.4 km/h Distance 12.50 km</desc>
<time>2011-09-24T10:31:02.51</time>
<name>3324</name>
</trkpt>
<trkpt lat="41.802562" lon="-1.787263">
<ele>1068.5</ele>
<speed>14.4</speed>
<course>296.4</course>
<desc>Speed 14.4 km/h Distance 12.51 km</desc>
<time>2011-09-24T10:31:03.52</time>
<name>3325</name>
</trkpt>
<trkpt lat="41.802578" lon="-1.787308">
<ele>1069.0</ele>
<speed>14.1</speed>
<course>302.8</course>
<desc>Speed 14.1 km/h Distance 12.51 km</desc>
<time>2011-09-24T10:31:04.51</time>
<name>3326</name>
</trkpt>
<trkpt lat="41.802598" lon="-1.787350">
<ele>1068.5</ele>
<speed>13.9</speed>
<course>305.1</course>
<desc>Speed 13.9 km/h Distance 12.52 km</desc>
<time>2011-09-24T10:31:05.51</time>
<name>3327</name>
</trkpt>
<trkpt lat="41.802617" lon="-1.787385">
<ele>1068.0</ele>
<speed>12.8</speed>
<course>300.3</course>
<desc>Speed 12.8 km/h Distance 12.52 km</desc>
<time>2011-09-24T10:31:06.51</time>
<name>3328</name>
</trkpt>
<trkpt lat="41.802633" lon="-1.787423">
<ele>1068.0</ele>
<speed>13.0</speed>
<course>292.4</course>
<desc>Speed 13.0 km/h Distance 12.52 km</desc>
<time>2011-09-24T10:31:07.51</time>
<name>3329</name>
</trkpt>
<trkpt lat="41.802647" lon="-1.787467">
<ele>1068.0</ele>
<speed>13.3</speed>
<course>292.4</course>
<desc>Speed 13.3 km/h Distance 12.53 km</desc>
<time>2011-09-24T10:31:08.51</time>
<name>3330</name>
</trkpt>
<trkpt lat="41.802660" lon="-1.787510">
<ele>1068.5</ele>
<speed>13.5</speed>
<course>298.2</course>
<desc>Speed 13.5 km/h Distance 12.53 km</desc>
<time>2011-09-24T10:31:09.50</time>
<name>3331</name>
</trkpt>
<trkpt lat="41.802677" lon="-1.787552">
<ele>1069.0</ele>
<speed>13.4</speed>
<course>295.8</course>
<desc>Speed 13.4 km/h Distance 12.54 km</desc>
<time>2011-09-24T10:31:10.50</time>
<name>3332</name>
</trkpt>
<trkpt lat="41.802692" lon="-1.787593">
<ele>1069.0</ele>
<speed>13.3</speed>
<course>296.7</course>
<desc>Speed 13.3 km/h Distance 12.54 km</desc>
<time>2011-09-24T10:31:11.50</time>
<name>3333</name>
</trkpt>
<trkpt lat="41.802707" lon="-1.787633">
<ele>1069.5</ele>
<speed>13.1</speed>
<course>301.6</course>
<desc>Speed 13.1 km/h Distance 12.54 km</desc>
<time>2011-09-24T10:31:12.50</time>
<name>3334</name>
</trkpt>
<trkpt lat="41.802725" lon="-1.787673">
<ele>1069.5</ele>
<speed>13.9</speed>
<course>301.8</course>
<desc>Speed 13.9 km/h Distance 12.55 km</desc>
<time>2011-09-24T10:31:13.51</time>
<name>3335</name>
</trkpt>
<trkpt lat="41.802745" lon="-1.787717">
<ele>1069.5</ele>
<speed>14.3</speed>
<course>302.7</course>
<desc>Speed 14.3 km/h Distance 12.55 km</desc>
<time>2011-09-24T10:31:14.50</time>
<name>3336</name>
</trkpt>
<trkpt lat="41.802763" lon="-1.787755">
<ele>1068.5</ele>
<speed>13.4</speed>
<course>303.9</course>
<desc>Speed 13.4 km/h Distance 12.55 km</desc>
<time>2011-09-24T10:31:15.50</time>
<name>3337</name>
</trkpt>
<trkpt lat="41.802782" lon="-1.787792">
<ele>1068.0</ele>
<speed>13.1</speed>
<course>308.4</course>
<desc>Speed 13.1 km/h Distance 12.56 km</desc>
<time>2011-09-24T10:31:16.50</time>
<name>3338</name>
</trkpt>
<trkpt lat="41.802803" lon="-1.787828">
<ele>1067.5</ele>
<speed>13.9</speed>
<course>299.2</course>
<desc>Speed 13.9 km/h Distance 12.56 km</desc>
<time>2011-09-24T10:31:17.50</time>
<name>3339</name>
</trkpt>
<trkpt lat="41.802820" lon="-1.787868">
<ele>1067.5</ele>
<speed>13.5</speed>
<course>295.8</course>
<desc>Speed 13.5 km/h Distance 12.57 km</desc>
<time>2011-09-24T10:31:18.50</time>
<name>3340</name>
</trkpt>
<trkpt lat="41.802835" lon="-1.787910">
<ele>1068.0</ele>
<speed>13.3</speed>
<course>297.7</course>
<desc>Speed 13.3 km/h Distance 12.57 km</desc>
<time>2011-09-24T10:31:19.50</time>
<name>3341</name>
</trkpt>
<trkpt lat="41.802850" lon="-1.787948">
<ele>1069.0</ele>
<speed>13.1</speed>
<course>296.7</course>
<desc>Speed 13.1 km/h Distance 12.57 km</desc>
<time>2011-09-24T10:31:20.49</time>
<name>3342</name>
</trkpt>
<trkpt lat="41.802865" lon="-1.787988">
<ele>1069.5</ele>
<speed>13.2</speed>
<course>303.8</course>
<desc>Speed 13.2 km/h Distance 12.58 km</desc>
<time>2011-09-24T10:31:21.49</time>
<name>3343</name>
</trkpt>
<trkpt lat="41.802885" lon="-1.788028">
<ele>1069.5</ele>
<speed>13.7</speed>
<course>301.6</course>
<desc>Speed 13.7 km/h Distance 12.58 km</desc>
<time>2011-09-24T10:31:22.49</time>
<name>3344</name>
</trkpt>
<trkpt lat="41.802903" lon="-1.788068">
<ele>1069.5</ele>
<speed>13.1</speed>
<course>303.9</course>
<desc>Speed 13.1 km/h Distance 12.58 km</desc>
<time>2011-09-24T10:31:23.49</time>
<name>3345</name>
</trkpt>
<trkpt lat="41.802922" lon="-1.788105">
<ele>1069.5</ele>
<speed>12.5</speed>
<course>296.0</course>
<desc>Speed 12.5 km/h Distance 12.59 km</desc>
<time>2011-09-24T10:31:24.49</time>
<name>3346</name>
</trkpt>
<trkpt lat="41.802935" lon="-1.788142">
<ele>1069.5</ele>
<speed>11.9</speed>
<course>301.1</course>
<desc>Speed 11.9 km/h Distance 12.59 km</desc>
<time>2011-09-24T10:31:25.49</time>
<name>3347</name>
</trkpt>
<trkpt lat="41.802950" lon="-1.788175">
<ele>1070.0</ele>
<speed>11.2</speed>
<course>305.2</course>
<desc>Speed 11.2 km/h Distance 12.60 km</desc>
<time>2011-09-24T10:31:26.49</time>
<name>3348</name>
</trkpt>
<trkpt lat="41.802967" lon="-1.788207">
<ele>1070.0</ele>
<speed>10.7</speed>
<course>294.1</course>
<desc>Speed 10.7 km/h Distance 12.60 km</desc>
<time>2011-09-24T10:31:27.49</time>
<name>3349</name>
</trkpt>
<trkpt lat="41.802977" lon="-1.788237">
<ele>1070.5</ele>
<speed>9.1</speed>
<course>302.3</course>
<desc>Speed 9.1 km/h Distance 12.60 km</desc>
<time>2011-09-24T10:31:28.48</time>
<name>3350</name>
</trkpt>
<trkpt lat="41.802990" lon="-1.788265">
<ele>1070.5</ele>
<speed>9.6</speed>
<course>300.4</course>
<desc>Speed 9.6 km/h Distance 12.60 km</desc>
<time>2011-09-24T10:31:29.48</time>
<name>3351</name>
</trkpt>
<trkpt lat="41.803002" lon="-1.788292">
<ele>1071.0</ele>
<speed>9.0</speed>
<course>281.9</course>
<desc>Speed 9.0 km/h Distance 12.61 km</desc>
<time>2011-09-24T10:31:30.48</time>
<name>3352</name>
</trkpt>
<trkpt lat="41.803007" lon="-1.788323">
<ele>1071.5</ele>
<speed>9.8</speed>
<course>287.7</course>
<desc>Speed 9.8 km/h Distance 12.61 km</desc>
<time>2011-09-24T10:31:31.49</time>
<name>3353</name>
</trkpt>
<trkpt lat="41.803015" lon="-1.788358">
<ele>1072.0</ele>
<speed>10.5</speed>
<course>298.2</course>
<desc>Speed 10.5 km/h Distance 12.61 km</desc>
<time>2011-09-24T10:31:32.48</time>
<name>3354</name>
</trkpt>
<trkpt lat="41.803028" lon="-1.788392">
<ele>1072.5</ele>
<speed>11.3</speed>
<course>301.4</course>
<desc>Speed 11.3 km/h Distance 12.62 km</desc>
<time>2011-09-24T10:31:33.48</time>
<name>3355</name>
</trkpt>
<trkpt lat="41.803045" lon="-1.788428">
<ele>1072.5</ele>
<speed>12.3</speed>
<course>300.3</course>
<desc>Speed 12.3 km/h Distance 12.62 km</desc>
<time>2011-09-24T10:31:34.48</time>
<name>3356</name>
</trkpt>
<trkpt lat="41.803062" lon="-1.788467">
<ele>1072.5</ele>
<speed>13.1</speed>
<course>301.6</course>
<desc>Speed 13.1 km/h Distance 12.62 km</desc>
<time>2011-09-24T10:31:35.48</time>
<name>3357</name>
</trkpt>
<trkpt lat="41.803080" lon="-1.788507">
<ele>1072.5</ele>
<speed>13.0</speed>
<course>306.0</course>
<desc>Speed 13.0 km/h Distance 12.63 km</desc>
<time>2011-09-24T10:31:36.48</time>
<name>3358</name>
</trkpt>
<trkpt lat="41.803102" lon="-1.788547">
<ele>1072.5</ele>
<speed>14.4</speed>
<course>310.5</course>
<desc>Speed 14.4 km/h Distance 12.63 km</desc>
<time>2011-09-24T10:31:37.48</time>
<name>3359</name>
</trkpt>
<trkpt lat="41.803125" lon="-1.788583">
<ele>1072.0</ele>
<speed>14.1</speed>
<course>313.8</course>
<desc>Speed 14.1 km/h Distance 12.63 km</desc>
<time>2011-09-24T10:31:38.47</time>
<name>3360</name>
</trkpt>
<trkpt lat="41.803150" lon="-1.788618">
<ele>1072.0</ele>
<speed>13.4</speed>
<course>316.6</course>
<desc>Speed 13.4 km/h Distance 12.64 km</desc>
<time>2011-09-24T10:31:39.47</time>
<name>3361</name>
</trkpt>
<trkpt lat="41.803175" lon="-1.788650">
<ele>1071.5</ele>
<speed>13.3</speed>
<course>321.6</course>
<desc>Speed 13.3 km/h Distance 12.64 km</desc>
<time>2011-09-24T10:31:40.48</time>
<name>3362</name>
</trkpt>
<trkpt lat="41.803202" lon="-1.788678">
<ele>1071.5</ele>
<speed>13.2</speed>
<course>323.3</course>
<desc>Speed 13.2 km/h Distance 12.65 km</desc>
<time>2011-09-24T10:31:41.47</time>
<name>3363</name>
</trkpt>
<trkpt lat="41.803228" lon="-1.788705">
<ele>1071.5</ele>
<speed>12.5</speed>
<course>325.1</course>
<desc>Speed 12.5 km/h Distance 12.65 km</desc>
<time>2011-09-24T10:31:42.47</time>
<name>3364</name>
</trkpt>
<trkpt lat="41.803255" lon="-1.788730">
<ele>1071.5</ele>
<speed>12.8</speed>
<course>334.2</course>
<desc>Speed 12.8 km/h Distance 12.65 km</desc>
<time>2011-09-24T10:31:43.47</time>
<name>3365</name>
</trkpt>
<trkpt lat="41.803288" lon="-1.788752">
<ele>1071.0</ele>
<speed>13.5</speed>
<course>339.6</course>
<desc>Speed 13.5 km/h Distance 12.66 km</desc>
<time>2011-09-24T10:31:44.47</time>
<name>3366</name>
</trkpt>
<trkpt lat="41.803322" lon="-1.788768">
<ele>1070.5</ele>
<speed>14.3</speed>
<course>340.5</course>
<desc>Speed 14.3 km/h Distance 12.66 km</desc>
<time>2011-09-24T10:31:45.47</time>
<name>3367</name>
</trkpt>
<trkpt lat="41.803357" lon="-1.788785">
<ele>1070.0</ele>
<speed>14.0</speed>
<course>342.2</course>
<desc>Speed 14.0 km/h Distance 12.67 km</desc>
<time>2011-09-24T10:31:46.47</time>
<name>3368</name>
</trkpt>
<trkpt lat="41.803392" lon="-1.788800">
<ele>1070.0</ele>
<speed>14.6</speed>
<course>349.0</course>
<desc>Speed 14.6 km/h Distance 12.67 km</desc>
<time>2011-09-24T10:31:47.47</time>
<name>3369</name>
</trkpt>
<trkpt lat="41.803430" lon="-1.788810">
<ele>1069.0</ele>
<speed>14.8</speed>
<course>346.7</course>
<desc>Speed 14.8 km/h Distance 12.67 km</desc>
<time>2011-09-24T10:31:48.47</time>
<name>3370</name>
</trkpt>
<trkpt lat="41.803467" lon="-1.788822">
<ele>1069.5</ele>
<speed>14.1</speed>
<course>350.7</course>
<desc>Speed 14.1 km/h Distance 12.68 km</desc>
<time>2011-09-24T10:31:49.46</time>
<name>3371</name>
</trkpt>
<trkpt lat="41.803497" lon="-1.788828">
<ele>1070.0</ele>
<speed>12.3</speed>
<course>353.7</course>
<desc>Speed 12.3 km/h Distance 12.68 km</desc>
<time>2011-09-24T10:31:50.47</time>
<name>3372</name>
</trkpt>
<trkpt lat="41.803530" lon="-1.788833">
<ele>1070.5</ele>
<speed>13.1</speed>
<course>354.1</course>
<desc>Speed 13.1 km/h Distance 12.69 km</desc>
<time>2011-09-24T10:31:51.46</time>
<name>3373</name>
</trkpt>
<trkpt lat="41.803567" lon="-1.788838">
<ele>1070.5</ele>
<speed>14.1</speed>
<course>354.3</course>
<desc>Speed 14.1 km/h Distance 12.69 km</desc>
<time>2011-09-24T10:31:52.46</time>
<name>3374</name>
</trkpt>
<trkpt lat="41.803603" lon="-1.788843">
<ele>1070.5</ele>
<speed>14.1</speed>
<course>354.2</course>
<desc>Speed 14.1 km/h Distance 12.69 km</desc>
<time>2011-09-24T10:31:53.46</time>
<name>3375</name>
</trkpt>
<trkpt lat="41.803638" lon="-1.788848">
<ele>1070.0</ele>
<speed>14.3</speed>
<course>358.1</course>
<desc>Speed 14.3 km/h Distance 12.70 km</desc>
<time>2011-09-24T10:31:54.46</time>
<name>3376</name>
</trkpt>
<trkpt lat="41.803672" lon="-1.788850">
<ele>1070.0</ele>
<speed>12.8</speed>
<course>355.6</course>
<desc>Speed 12.8 km/h Distance 12.70 km</desc>
<time>2011-09-24T10:31:55.46</time>
<name>3377</name>
</trkpt>
<trkpt lat="41.803703" lon="-1.788853">
<ele>1070.5</ele>
<speed>12.1</speed>
<course>352.6</course>
<desc>Speed 12.1 km/h Distance 12.70 km</desc>
<time>2011-09-24T10:31:56.45</time>
<name>3378</name>
</trkpt>
<trkpt lat="41.803742" lon="-1.788860">
<ele>1069.5</ele>
<speed>15.3</speed>
<course>354.3</course>
<desc>Speed 15.3 km/h Distance 12.71 km</desc>
<time>2011-09-24T10:31:57.45</time>
<name>3379</name>
</trkpt>
<trkpt lat="41.803780" lon="-1.788865">
<ele>1069.5</ele>
<speed>14.7</speed>
<course>354.3</course>
<desc>Speed 14.7 km/h Distance 12.71 km</desc>
<time>2011-09-24T10:31:58.45</time>
<name>3380</name>
</trkpt>
<trkpt lat="41.803817" lon="-1.788870">
<ele>1069.5</ele>
<speed>14.3</speed>
<course>354.1</course>
<desc>Speed 14.3 km/h Distance 12.72 km</desc>
<time>2011-09-24T10:31:59.45</time>
<name>3381</name>
</trkpt>
<trkpt lat="41.803853" lon="-1.788875">
<ele>1069.5</ele>
<speed>14.2</speed>
<course>353.9</course>
<desc>Speed 14.2 km/h Distance 12.72 km</desc>
<time>2011-09-24T10:32:00.45</time>
<name>3382</name>
</trkpt>
<trkpt lat="41.803888" lon="-1.788880">
<ele>1070.0</ele>
<speed>14.5</speed>
<course>356.3</course>
<desc>Speed 14.5 km/h Distance 12.73 km</desc>
<time>2011-09-24T10:32:01.45</time>
<name>3383</name>
</trkpt>
<trkpt lat="41.803925" lon="-1.788883">
<ele>1070.0</ele>
<speed>14.6</speed>
<course>354.1</course>
<desc>Speed 14.6 km/h Distance 12.73 km</desc>
<time>2011-09-24T10:32:02.45</time>
<name>3384</name>
</trkpt>
<trkpt lat="41.803962" lon="-1.788888">
<ele>1070.0</ele>
<speed>14.5</speed>
<course>354.3</course>
<desc>Speed 14.5 km/h Distance 12.73 km</desc>
<time>2011-09-24T10:32:03.44</time>
<name>3385</name>
</trkpt>
<trkpt lat="41.804000" lon="-1.788893">
<ele>1070.0</ele>
<speed>14.8</speed>
<course>356.4</course>
<desc>Speed 14.8 km/h Distance 12.74 km</desc>
<time>2011-09-24T10:32:04.44</time>
<name>3386</name>
</trkpt>
<trkpt lat="41.804038" lon="-1.788897">
<ele>1070.0</ele>
<speed>15.7</speed>
<course>355.0</course>
<desc>Speed 15.7 km/h Distance 12.74 km</desc>
<time>2011-09-24T10:32:05.44</time>
<name>3387</name>
</trkpt>
<trkpt lat="41.804080" lon="-1.788902">
<ele>1069.5</ele>
<speed>16.4</speed>
<course>350.8</course>
<desc>Speed 16.4 km/h Distance 12.75 km</desc>
<time>2011-09-24T10:32:06.44</time>
<name>3388</name>
</trkpt>
<trkpt lat="41.804118" lon="-1.788910">
<ele>1070.0</ele>
<speed>16.2</speed>
<course>354.7</course>
<desc>Speed 16.2 km/h Distance 12.75 km</desc>
<time>2011-09-24T10:32:07.44</time>
<name>3389</name>
</trkpt>
<trkpt lat="41.804158" lon="-1.788915">
<ele>1070.5</ele>
<speed>15.8</speed>
<course>353.0</course>
<desc>Speed 15.8 km/h Distance 12.76 km</desc>
<time>2011-09-24T10:32:08.44</time>
<name>3390</name>
</trkpt>
<trkpt lat="41.804198" lon="-1.788922">
<ele>1070.5</ele>
<speed>15.9</speed>
<course>354.6</course>
<desc>Speed 15.9 km/h Distance 12.76 km</desc>
<time>2011-09-24T10:32:09.45</time>
<name>3391</name>
</trkpt>
<trkpt lat="41.804237" lon="-1.788927">
<ele>1071.5</ele>
<speed>15.9</speed>
<course>355.0</course>
<desc>Speed 15.9 km/h Distance 12.76 km</desc>
<time>2011-09-24T10:32:10.44</time>
<name>3392</name>
</trkpt>
<trkpt lat="41.804278" lon="-1.788932">
<ele>1071.5</ele>
<speed>16.0</speed>
<course>351.2</course>
<desc>Speed 16.0 km/h Distance 12.77 km</desc>
<time>2011-09-24T10:32:11.44</time>
<name>3393</name>
</trkpt>
<trkpt lat="41.804318" lon="-1.788940">
<ele>1071.5</ele>
<speed>16.0</speed>
<course>351.2</course>
<desc>Speed 16.0 km/h Distance 12.77 km</desc>
<time>2011-09-24T10:32:12.45</time>
<name>3394</name>
</trkpt>
<trkpt lat="41.804358" lon="-1.788948">
<ele>1071.5</ele>
<speed>16.2</speed>
<course>351.6</course>
<desc>Speed 16.2 km/h Distance 12.78 km</desc>
<time>2011-09-24T10:32:13.44</time>
<name>3395</name>
</trkpt>
<trkpt lat="41.804400" lon="-1.788957">
<ele>1071.5</ele>
<speed>16.3</speed>
<course>341.2</course>
<desc>Speed 16.3 km/h Distance 12.78 km</desc>
<time>2011-09-24T10:32:14.44</time>
<name>3396</name>
</trkpt>
<trkpt lat="41.804437" lon="-1.788973">
<ele>1071.5</ele>
<speed>15.2</speed>
<course>338.0</course>
<desc>Speed 15.2 km/h Distance 12.79 km</desc>
<time>2011-09-24T10:32:15.44</time>
<name>3397</name>
</trkpt>
<trkpt lat="41.804477" lon="-1.788995">
<ele>1071.5</ele>
<speed>16.6</speed>
<course>325.9</course>
<desc>Speed 16.6 km/h Distance 12.79 km</desc>
<time>2011-09-24T10:32:16.44</time>
<name>3398</name>
</trkpt>
<trkpt lat="41.804513" lon="-1.789028">
<ele>1071.0</ele>
<speed>17.4</speed>
<course>310.8</course>
<desc>Speed 17.4 km/h Distance 12.80 km</desc>
<time>2011-09-24T10:32:17.44</time>
<name>3399</name>
</trkpt>
<trkpt lat="41.804543" lon="-1.789075">
<ele>1071.5</ele>
<speed>17.5</speed>
<course>303.9</course>
<desc>Speed 17.5 km/h Distance 12.80 km</desc>
<time>2011-09-24T10:32:18.43</time>
<name>3400</name>
</trkpt>
<trkpt lat="41.804568" lon="-1.789125">
<ele>1071.0</ele>
<speed>17.9</speed>
<course>284.1</course>
<desc>Speed 17.9 km/h Distance 12.81 km</desc>
<time>2011-09-24T10:32:19.43</time>
<name>3401</name>
</trkpt>
<trkpt lat="41.804578" lon="-1.789178">
<ele>1071.0</ele>
<speed>16.7</speed>
<course>281.5</course>
<desc>Speed 16.7 km/h Distance 12.81 km</desc>
<time>2011-09-24T10:32:20.44</time>
<name>3402</name>
</trkpt>
<trkpt lat="41.804587" lon="-1.789233">
<ele>1071.0</ele>
<speed>16.5</speed>
<course>272.5</course>
<desc>Speed 16.5 km/h Distance 12.82 km</desc>
<time>2011-09-24T10:32:21.43</time>
<name>3403</name>
</trkpt>
<trkpt lat="41.804588" lon="-1.789285">
<ele>1071.0</ele>
<speed>15.3</speed>
<course>270.0</course>
<desc>Speed 15.3 km/h Distance 12.82 km</desc>
<time>2011-09-24T10:32:22.44</time>
<name>3404</name>
</trkpt>
<trkpt lat="41.804588" lon="-1.789333">
<ele>1071.5</ele>
<speed>14.8</speed>
<course>267.4</course>
<desc>Speed 14.8 km/h Distance 12.82 km</desc>
<time>2011-09-24T10:32:23.43</time>
<name>3405</name>
</trkpt>
<trkpt lat="41.804587" lon="-1.789383">
<ele>1071.5</ele>
<speed>14.7</speed>
<course>267.3</course>
<desc>Speed 14.7 km/h Distance 12.83 km</desc>
<time>2011-09-24T10:32:24.43</time>
<name>3406</name>
</trkpt>
<trkpt lat="41.804585" lon="-1.789430">
<ele>1071.5</ele>
<speed>14.6</speed>
<course>268.7</course>
<desc>Speed 14.6 km/h Distance 12.83 km</desc>
<time>2011-09-24T10:32:25.57</time>
<name>3407</name>
</trkpt>
<trkpt lat="41.804583" lon="-1.789528">
<ele>1072.5</ele>
<speed>14.6</speed>
<course>263.8</course>
<desc>Speed 14.6 km/h Distance 12.84 km</desc>
<time>2011-09-24T10:32:27.42</time>
<name>3408</name>
</trkpt>
<trkpt lat="41.804575" lon="-1.789632">
<ele>1073.0</ele>
<speed>15.1</speed>
<course>262.4</course>
<desc>Speed 15.1 km/h Distance 12.85 km</desc>
<time>2011-09-24T10:32:29.42</time>
<name>3409</name>
</trkpt>
<trkpt lat="41.804570" lon="-1.789682">
<ele>1073.5</ele>
<speed>15.0</speed>
<course>262.4</course>
<desc>Speed 15.0 km/h Distance 12.85 km</desc>
<time>2011-09-24T10:32:30.45</time>
<name>3410</name>
</trkpt>
<trkpt lat="41.804565" lon="-1.789732">
<ele>1074.0</ele>
<speed>14.3</speed>
<course>259.2</course>
<desc>Speed 14.3 km/h Distance 12.86 km</desc>
<time>2011-09-24T10:32:31.57</time>
<name>3411</name>
</trkpt>
<trkpt lat="41.804552" lon="-1.789825">
<ele>1074.5</ele>
<speed>14.0</speed>
<course>264.5</course>
<desc>Speed 14.0 km/h Distance 12.87 km</desc>
<time>2011-09-24T10:32:33.41</time>
<name>3412</name>
</trkpt>
<trkpt lat="41.804548" lon="-1.789872">
<ele>1074.5</ele>
<speed>14.2</speed>
<course>262.1</course>
<desc>Speed 14.2 km/h Distance 12.87 km</desc>
<time>2011-09-24T10:32:34.41</time>
<name>3413</name>
</trkpt>
<trkpt lat="41.804543" lon="-1.789920">
<ele>1074.5</ele>
<speed>14.1</speed>
<course>264.5</course>
<desc>Speed 14.1 km/h Distance 12.87 km</desc>
<time>2011-09-24T10:32:35.41</time>
<name>3414</name>
</trkpt>
<trkpt lat="41.804540" lon="-1.789967">
<ele>1074.5</ele>
<speed>14.0</speed>
<course>262.1</course>
<desc>Speed 14.0 km/h Distance 12.88 km</desc>
<time>2011-09-24T10:32:36.41</time>
<name>3415</name>
</trkpt>
<trkpt lat="41.804535" lon="-1.790015">
<ele>1075.0</ele>
<speed>14.1</speed>
<course>267.3</course>
<desc>Speed 14.1 km/h Distance 12.88 km</desc>
<time>2011-09-24T10:32:37.41</time>
<name>3416</name>
</trkpt>
<trkpt lat="41.804533" lon="-1.790062">
<ele>1075.0</ele>
<speed>13.9</speed>
<course>267.2</course>
<desc>Speed 13.9 km/h Distance 12.89 km</desc>
<time>2011-09-24T10:32:38.41</time>
<name>3417</name>
</trkpt>
<trkpt lat="41.804532" lon="-1.790107">
<ele>1075.0</ele>
<speed>13.5</speed>
<course>264.3</course>
<desc>Speed 13.5 km/h Distance 12.89 km</desc>
<time>2011-09-24T10:32:39.45</time>
<name>3418</name>
</trkpt>
<trkpt lat="41.804528" lon="-1.790152">
<ele>1075.0</ele>
<speed>13.5</speed>
<course>264.5</course>
<desc>Speed 13.5 km/h Distance 12.89 km</desc>
<time>2011-09-24T10:32:40.41</time>
<name>3419</name>
</trkpt>
<trkpt lat="41.804525" lon="-1.790198">
<ele>1075.0</ele>
<speed>13.8</speed>
<course>258.8</course>
<desc>Speed 13.8 km/h Distance 12.90 km</desc>
<time>2011-09-24T10:32:41.40</time>
<name>3420</name>
</trkpt>
<trkpt lat="41.804518" lon="-1.790243">
<ele>1075.0</ele>
<speed>13.6</speed>
<course>270.0</course>
<desc>Speed 13.6 km/h Distance 12.90 km</desc>
<time>2011-09-24T10:32:42.40</time>
<name>3421</name>
</trkpt>
<trkpt lat="41.804518" lon="-1.790287">
<ele>1075.0</ele>
<speed>13.2</speed>
<course>264.1</course>
<desc>Speed 13.2 km/h Distance 12.90 km</desc>
<time>2011-09-24T10:32:43.40</time>
<name>3422</name>
</trkpt>
<trkpt lat="41.804515" lon="-1.790330">
<ele>1075.0</ele>
<speed>13.0</speed>
<course>273.1</course>
<desc>Speed 13.0 km/h Distance 12.91 km</desc>
<time>2011-09-24T10:32:44.40</time>
<name>3423</name>
</trkpt>
<trkpt lat="41.804517" lon="-1.790372">
<ele>1075.0</ele>
<speed>13.1</speed>
<course>267.2</course>
<desc>Speed 13.1 km/h Distance 12.91 km</desc>
<time>2011-09-24T10:32:45.40</time>
<name>3424</name>
</trkpt>
<trkpt lat="41.804515" lon="-1.790417">
<ele>1075.0</ele>
<speed>13.2</speed>
<course>267.0</course>
<desc>Speed 13.2 km/h Distance 12.92 km</desc>
<time>2011-09-24T10:32:46.45</time>
<name>3425</name>
</trkpt>
<trkpt lat="41.804513" lon="-1.790460">
<ele>1075.0</ele>
<speed>13.4</speed>
<course>267.2</course>
<desc>Speed 13.4 km/h Distance 12.92 km</desc>
<time>2011-09-24T10:32:47.40</time>
<name>3426</name>
</trkpt>
<trkpt lat="41.804512" lon="-1.790505">
<ele>1075.0</ele>
<speed>13.2</speed>
<course>264.3</course>
<desc>Speed 13.2 km/h Distance 12.92 km</desc>
<time>2011-09-24T10:32:48.40</time>
<name>3427</name>
</trkpt>
<trkpt lat="41.804508" lon="-1.790550">
<ele>1075.5</ele>
<speed>13.5</speed>
<course>264.3</course>
<desc>Speed 13.5 km/h Distance 12.93 km</desc>
<time>2011-09-24T10:32:49.40</time>
<name>3428</name>
</trkpt>
<trkpt lat="41.804505" lon="-1.790595">
<ele>1075.5</ele>
<speed>13.5</speed>
<course>264.5</course>
<desc>Speed 13.5 km/h Distance 12.93 km</desc>
<time>2011-09-24T10:32:50.39</time>
<name>3429</name>
</trkpt>
<trkpt lat="41.804502" lon="-1.790642">
<ele>1075.5</ele>
<speed>13.8</speed>
<course>259.2</course>
<desc>Speed 13.8 km/h Distance 12.93 km</desc>
<time>2011-09-24T10:32:51.39</time>
<name>3430</name>
</trkpt>
<trkpt lat="41.804495" lon="-1.790688">
<ele>1076.0</ele>
<speed>13.9</speed>
<course>270.0</course>
<desc>Speed 13.9 km/h Distance 12.94 km</desc>
<time>2011-09-24T10:32:52.40</time>
<name>3431</name>
</trkpt>
<trkpt lat="41.804495" lon="-1.790733">
<ele>1076.0</ele>
<speed>13.7</speed>
<course>264.5</course>
<desc>Speed 13.7 km/h Distance 12.94 km</desc>
<time>2011-09-24T10:32:53.56</time>
<name>3432</name>
</trkpt>
<trkpt lat="41.804488" lon="-1.790827">
<ele>1076.0</ele>
<speed>14.1</speed>
<course>264.5</course>
<desc>Speed 14.1 km/h Distance 12.95 km</desc>
<time>2011-09-24T10:32:55.39</time>
<name>3433</name>
</trkpt>
<trkpt lat="41.804485" lon="-1.790873">
<ele>1076.0</ele>
<speed>14.0</speed>
<course>264.5</course>
<desc>Speed 14.0 km/h Distance 12.95 km</desc>
<time>2011-09-24T10:32:56.38</time>
<name>3434</name>
</trkpt>
<trkpt lat="41.804482" lon="-1.790920">
<ele>1076.5</ele>
<speed>14.0</speed>
<course>264.5</course>
<desc>Speed 14.0 km/h Distance 12.96 km</desc>
<time>2011-09-24T10:32:57.38</time>
<name>3435</name>
</trkpt>
<trkpt lat="41.804478" lon="-1.790967">
<ele>1076.5</ele>
<speed>14.1</speed>
<course>267.3</course>
<desc>Speed 14.1 km/h Distance 12.96 km</desc>
<time>2011-09-24T10:32:58.39</time>
<name>3436</name>
</trkpt>
<trkpt lat="41.804477" lon="-1.791013">
<ele>1076.5</ele>
<speed>14.2</speed>
<course>270.0</course>
<desc>Speed 14.2 km/h Distance 12.96 km</desc>
<time>2011-09-24T10:32:59.38</time>
<name>3437</name>
</trkpt>
<trkpt lat="41.804477" lon="-1.791062">
<ele>1076.5</ele>
<speed>14.1</speed>
<course>272.7</course>
<desc>Speed 14.1 km/h Distance 12.97 km</desc>
<time>2011-09-24T10:33:00.38</time>
<name>3438</name>
</trkpt>
<trkpt lat="41.804478" lon="-1.791108">
<ele>1076.5</ele>
<speed>14.1</speed>
<course>275.5</course>
<desc>Speed 14.1 km/h Distance 12.97 km</desc>
<time>2011-09-24T10:33:01.39</time>
<name>3439</name>
</trkpt>
<trkpt lat="41.804482" lon="-1.791155">
<ele>1077.0</ele>
<speed>14.1</speed>
<course>278.2</course>
<desc>Speed 14.1 km/h Distance 12.98 km</desc>
<time>2011-09-24T10:33:02.38</time>
<name>3440</name>
</trkpt>
<trkpt lat="41.804487" lon="-1.791202">
<ele>1077.0</ele>
<speed>13.8</speed>
<course>283.0</course>
<desc>Speed 13.8 km/h Distance 12.98 km</desc>
<time>2011-09-24T10:33:03.37</time>
<name>3441</name>
</trkpt>
<trkpt lat="41.804495" lon="-1.791250">
<ele>1077.5</ele>
<speed>14.6</speed>
<course>289.2</course>
<desc>Speed 14.6 km/h Distance 12.98 km</desc>
<time>2011-09-24T10:33:04.38</time>
<name>3442</name>
</trkpt>
<trkpt lat="41.804507" lon="-1.791295">
<ele>1077.5</ele>
<speed>14.5</speed>
<course>295.6</course>
<desc>Speed 14.5 km/h Distance 12.99 km</desc>
<time>2011-09-24T10:33:05.37</time>
<name>3443</name>
</trkpt>
<trkpt lat="41.804523" lon="-1.791342">
<ele>1078.0</ele>
<speed>15.0</speed>
<course>293.3</course>
<desc>Speed 15.0 km/h Distance 12.99 km</desc>
<time>2011-09-24T10:33:06.38</time>
<name>3444</name>
</trkpt>
<trkpt lat="41.804538" lon="-1.791388">
<ele>1078.0</ele>
<speed>14.8</speed>
<course>306.0</course>
<desc>Speed 14.8 km/h Distance 13.00 km</desc>
<time>2011-09-24T10:33:07.37</time>
<name>3445</name>
</trkpt>
<trkpt lat="41.804560" lon="-1.791428">
<ele>1078.5</ele>
<speed>14.5</speed>
<course>306.0</course>
<desc>Speed 14.5 km/h Distance 13.00 km</desc>
<time>2011-09-24T10:33:08.37</time>
<name>3446</name>
</trkpt>
<trkpt lat="41.804582" lon="-1.791468">
<ele>1078.5</ele>
<speed>15.2</speed>
<course>313.0</course>
<desc>Speed 15.2 km/h Distance 13.01 km</desc>
<time>2011-09-24T10:33:09.38</time>
<name>3447</name>
</trkpt>
<trkpt lat="41.804608" lon="-1.791507">
<ele>1079.0</ele>
<speed>15.3</speed>
<course>315.2</course>
<desc>Speed 15.3 km/h Distance 13.01 km</desc>
<time>2011-09-24T10:33:10.37</time>
<name>3448</name>
</trkpt>
<trkpt lat="41.804633" lon="-1.791540">
<ele>1080.0</ele>
<speed>14.1</speed>
<course>320.5</course>
<desc>Speed 14.1 km/h Distance 13.01 km</desc>
<time>2011-09-24T10:33:11.37</time>
<name>3449</name>
</trkpt>
<trkpt lat="41.804665" lon="-1.791575">
<ele>1080.0</ele>
<speed>16.3</speed>
<course>326.0</course>
<desc>Speed 16.3 km/h Distance 13.02 km</desc>
<time>2011-09-24T10:33:12.37</time>
<name>3450</name>
</trkpt>
<trkpt lat="41.804700" lon="-1.791607">
<ele>1079.5</ele>
<speed>16.6</speed>
<course>323.3</course>
<desc>Speed 16.6 km/h Distance 13.02 km</desc>
<time>2011-09-24T10:33:13.37</time>
<name>3451</name>
</trkpt>
<trkpt lat="41.804732" lon="-1.791638">
<ele>1079.5</ele>
<speed>16.0</speed>
<course>323.3</course>
<desc>Speed 16.0 km/h Distance 13.03 km</desc>
<time>2011-09-24T10:33:14.36</time>
<name>3452</name>
</trkpt>
<trkpt lat="41.804763" lon="-1.791670">
<ele>1080.0</ele>
<speed>15.7</speed>
<course>323.3</course>
<desc>Speed 15.7 km/h Distance 13.03 km</desc>
<time>2011-09-24T10:33:15.36</time>
<name>3453</name>
</trkpt>
<trkpt lat="41.804795" lon="-1.791702">
<ele>1080.0</ele>
<speed>15.6</speed>
<course>338.9</course>
<desc>Speed 15.6 km/h Distance 13.04 km</desc>
<time>2011-09-24T10:33:16.36</time>
<name>3454</name>
</trkpt>
<trkpt lat="41.804837" lon="-1.791723">
<ele>1081.5</ele>
<speed>17.5</speed>
<course>325.7</course>
<desc>Speed 17.5 km/h Distance 13.04 km</desc>
<time>2011-09-24T10:33:17.36</time>
<name>3455</name>
</trkpt>
<trkpt lat="41.804877" lon="-1.791760">
<ele>1081.5</ele>
<speed>19.4</speed>
<course>326.0</course>
<desc>Speed 19.4 km/h Distance 13.05 km</desc>
<time>2011-09-24T10:33:18.36</time>
<name>3456</name>
</trkpt>
<trkpt lat="41.804912" lon="-1.791792">
<ele>1081.5</ele>
<speed>16.7</speed>
<course>326.0</course>
<desc>Speed 16.7 km/h Distance 13.05 km</desc>
<time>2011-09-24T10:33:19.35</time>
<name>3457</name>
</trkpt>
<trkpt lat="41.804947" lon="-1.791823">
<ele>1081.0</ele>
<speed>16.0</speed>
<course>327.4</course>
<desc>Speed 16.0 km/h Distance 13.06 km</desc>
<time>2011-09-24T10:33:20.36</time>
<name>3458</name>
</trkpt>
<trkpt lat="41.804982" lon="-1.791853">
<ele>1081.5</ele>
<speed>15.9</speed>
<course>324.7</course>
<desc>Speed 15.9 km/h Distance 13.06 km</desc>
<time>2011-09-24T10:33:21.35</time>
<name>3459</name>
</trkpt>
<trkpt lat="41.805015" lon="-1.791885">
<ele>1081.0</ele>
<speed>15.9</speed>
<course>323.3</course>
<desc>Speed 15.9 km/h Distance 13.06 km</desc>
<time>2011-09-24T10:33:22.35</time>
<name>3460</name>
</trkpt>
<trkpt lat="41.805047" lon="-1.791917">
<ele>1081.0</ele>
<speed>15.8</speed>
<course>323.3</course>
<desc>Speed 15.8 km/h Distance 13.07 km</desc>
<time>2011-09-24T10:33:23.35</time>
<name>3461</name>
</trkpt>
<trkpt lat="41.805078" lon="-1.791948">
<ele>1081.0</ele>
<speed>15.6</speed>
<course>327.4</course>
<desc>Speed 15.6 km/h Distance 13.07 km</desc>
<time>2011-09-24T10:33:24.35</time>
<name>3462</name>
</trkpt>
<trkpt lat="41.805113" lon="-1.791978">
<ele>1081.0</ele>
<speed>16.1</speed>
<course>324.8</course>
<desc>Speed 16.1 km/h Distance 13.08 km</desc>
<time>2011-09-24T10:33:25.35</time>
<name>3463</name>
</trkpt>
<trkpt lat="41.805145" lon="-1.792008">
<ele>1081.5</ele>
<speed>15.3</speed>
<course>324.8</course>
<desc>Speed 15.3 km/h Distance 13.08 km</desc>
<time>2011-09-24T10:33:26.35</time>
<name>3464</name>
</trkpt>
<trkpt lat="41.805177" lon="-1.792038">
<ele>1081.5</ele>
<speed>15.2</speed>
<course>326.5</course>
<desc>Speed 15.2 km/h Distance 13.09 km</desc>
<time>2011-09-24T10:33:27.34</time>
<name>3465</name>
</trkpt>
<trkpt lat="41.805207" lon="-1.792065">
<ele>1081.0</ele>
<speed>14.4</speed>
<course>319.0</course>
<desc>Speed 14.4 km/h Distance 13.09 km</desc>
<time>2011-09-24T10:33:28.35</time>
<name>3466</name>
</trkpt>
<trkpt lat="41.805237" lon="-1.792100">
<ele>1081.5</ele>
<speed>15.4</speed>
<course>324.7</course>
<desc>Speed 15.4 km/h Distance 13.10 km</desc>
<time>2011-09-24T10:33:29.34</time>
<name>3467</name>
</trkpt>
<trkpt lat="41.805270" lon="-1.792132">
<ele>1081.5</ele>
<speed>15.9</speed>
<course>324.7</course>
<desc>Speed 15.9 km/h Distance 13.10 km</desc>
<time>2011-09-24T10:33:30.35</time>
<name>3468</name>
</trkpt>
<trkpt lat="41.805303" lon="-1.792163">
<ele>1081.5</ele>
<speed>15.9</speed>
<course>324.7</course>
<desc>Speed 15.9 km/h Distance 13.10 km</desc>
<time>2011-09-24T10:33:31.34</time>
<name>3469</name>
</trkpt>
<trkpt lat="41.805337" lon="-1.792195">
<ele>1082.0</ele>
<speed>15.9</speed>
<course>330.1</course>
<desc>Speed 15.9 km/h Distance 13.11 km</desc>
<time>2011-09-24T10:33:32.34</time>
<name>3470</name>
</trkpt>
<trkpt lat="41.805373" lon="-1.792223">
<ele>1081.5</ele>
<speed>15.9</speed>
<course>323.3</course>
<desc>Speed 15.9 km/h Distance 13.11 km</desc>
<time>2011-09-24T10:33:33.34</time>
<name>3471</name>
</trkpt>
<trkpt lat="41.805405" lon="-1.792255">
<ele>1081.5</ele>
<speed>15.7</speed>
<course>323.3</course>
<desc>Speed 15.7 km/h Distance 13.12 km</desc>
<time>2011-09-24T10:33:34.34</time>
<name>3472</name>
</trkpt>
<trkpt lat="41.805437" lon="-1.792287">
<ele>1081.5</ele>
<speed>15.7</speed>
<course>317.7</course>
<desc>Speed 15.7 km/h Distance 13.12 km</desc>
<time>2011-09-24T10:33:35.34</time>
<name>3473</name>
</trkpt>
<trkpt lat="41.805467" lon="-1.792323">
<ele>1081.5</ele>
<speed>16.0</speed>
<course>321.9</course>
<desc>Speed 16.0 km/h Distance 13.13 km</desc>
<time>2011-09-24T10:33:36.34</time>
<name>3474</name>
</trkpt>
<trkpt lat="41.805498" lon="-1.792357">
<ele>1081.5</ele>
<speed>15.8</speed>
<course>320.5</course>
<desc>Speed 15.8 km/h Distance 13.13 km</desc>
<time>2011-09-24T10:33:37.34</time>
<name>3475</name>
</trkpt>
<trkpt lat="41.805530" lon="-1.792392">
<ele>1081.5</ele>
<speed>15.9</speed>
<course>326.0</course>
<desc>Speed 15.9 km/h Distance 13.14 km</desc>
<time>2011-09-24T10:33:38.34</time>
<name>3476</name>
</trkpt>
<trkpt lat="41.805565" lon="-1.792423">
<ele>1081.5</ele>
<speed>16.3</speed>
<course>323.3</course>
<desc>Speed 16.3 km/h Distance 13.14 km</desc>
<time>2011-09-24T10:33:39.34</time>
<name>3477</name>
</trkpt>
<trkpt lat="41.805597" lon="-1.792455">
<ele>1081.5</ele>
<speed>15.7</speed>
<course>322.0</course>
<desc>Speed 15.7 km/h Distance 13.15 km</desc>
<time>2011-09-24T10:33:40.34</time>
<name>3478</name>
</trkpt>
<trkpt lat="41.805630" lon="-1.792490">
<ele>1081.0</ele>
<speed>16.5</speed>
<course>323.3</course>
<desc>Speed 16.5 km/h Distance 13.15 km</desc>
<time>2011-09-24T10:33:41.33</time>
<name>3479</name>
</trkpt>
<trkpt lat="41.805665" lon="-1.792525">
<ele>1081.0</ele>
<speed>17.0</speed>
<course>323.3</course>
<desc>Speed 17.0 km/h Distance 13.15 km</desc>
<time>2011-09-24T10:33:42.33</time>
<name>3480</name>
</trkpt>
<trkpt lat="41.805698" lon="-1.792558">
<ele>1080.5</ele>
<speed>16.5</speed>
<course>323.3</course>
<desc>Speed 16.5 km/h Distance 13.16 km</desc>
<time>2011-09-24T10:33:43.34</time>
<name>3481</name>
</trkpt>
<trkpt lat="41.805732" lon="-1.792592">
<ele>1080.0</ele>
<speed>16.5</speed>
<course>322.0</course>
<desc>Speed 16.5 km/h Distance 13.16 km</desc>
<time>2011-09-24T10:33:44.34</time>
<name>3482</name>
</trkpt>
<trkpt lat="41.805765" lon="-1.792627">
<ele>1080.0</ele>
<speed>16.3</speed>
<course>323.3</course>
<desc>Speed 16.3 km/h Distance 13.17 km</desc>
<time>2011-09-24T10:33:45.34</time>
<name>3483</name>
</trkpt>
<trkpt lat="41.805798" lon="-1.792660">
<ele>1080.0</ele>
<speed>16.4</speed>
<course>323.3</course>
<desc>Speed 16.4 km/h Distance 13.17 km</desc>
<time>2011-09-24T10:33:46.33</time>
<name>3484</name>
</trkpt>
<trkpt lat="41.805832" lon="-1.792693">
<ele>1080.0</ele>
<speed>16.3</speed>
<course>330.1</course>
<desc>Speed 16.3 km/h Distance 13.18 km</desc>
<time>2011-09-24T10:33:47.33</time>
<name>3485</name>
</trkpt>
<trkpt lat="41.805868" lon="-1.792722">
<ele>1080.0</ele>
<speed>17.0</speed>
<course>325.9</course>
<desc>Speed 17.0 km/h Distance 13.18 km</desc>
<time>2011-09-24T10:33:48.33</time>
<name>3486</name>
</trkpt>
<trkpt lat="41.805905" lon="-1.792755">
<ele>1079.0</ele>
<speed>17.3</speed>
<course>323.3</course>
<desc>Speed 17.3 km/h Distance 13.19 km</desc>
<time>2011-09-24T10:33:49.34</time>
<name>3487</name>
</trkpt>
<trkpt lat="41.805937" lon="-1.792787">
<ele>1079.0</ele>
<speed>16.0</speed>
<course>320.4</course>
<desc>Speed 16.0 km/h Distance 13.19 km</desc>
<time>2011-09-24T10:33:50.33</time>
<name>3488</name>
</trkpt>
<trkpt lat="41.805967" lon="-1.792820">
<ele>1080.0</ele>
<speed>15.5</speed>
<course>320.4</course>
<desc>Speed 15.5 km/h Distance 13.20 km</desc>
<time>2011-09-24T10:33:51.34</time>
<name>3489</name>
</trkpt>
<trkpt lat="41.805997" lon="-1.792853">
<ele>1080.5</ele>
<speed>15.4</speed>
<course>321.9</course>
<desc>Speed 15.4 km/h Distance 13.20 km</desc>
<time>2011-09-24T10:33:52.32</time>
<name>3490</name>
</trkpt>
<trkpt lat="41.806028" lon="-1.792887">
<ele>1080.5</ele>
<speed>15.8</speed>
<course>326.2</course>
<desc>Speed 15.8 km/h Distance 13.21 km</desc>
<time>2011-09-24T10:33:53.32</time>
<name>3491</name>
</trkpt>
<trkpt lat="41.806062" lon="-1.792917">
<ele>1080.5</ele>
<speed>15.9</speed>
<course>321.9</course>
<desc>Speed 15.9 km/h Distance 13.21 km</desc>
<time>2011-09-24T10:33:54.32</time>
<name>3492</name>
</trkpt>
<trkpt lat="41.806093" lon="-1.792950">
<ele>1081.0</ele>
<speed>15.6</speed>
<course>323.3</course>
<desc>Speed 15.6 km/h Distance 13.21 km</desc>
<time>2011-09-24T10:33:55.32</time>
<name>3493</name>
</trkpt>
<trkpt lat="41.806125" lon="-1.792982">
<ele>1081.5</ele>
<speed>15.4</speed>
<course>320.5</course>
<desc>Speed 15.4 km/h Distance 13.22 km</desc>
<time>2011-09-24T10:33:56.32</time>
<name>3494</name>
</trkpt>
<trkpt lat="41.806157" lon="-1.793017">
<ele>1081.5</ele>
<speed>15.9</speed>
<course>321.9</course>
<desc>Speed 15.9 km/h Distance 13.22 km</desc>
<time>2011-09-24T10:33:57.32</time>
<name>3495</name>
</trkpt>
<trkpt lat="41.806188" lon="-1.793050">
<ele>1081.5</ele>
<speed>16.3</speed>
<course>327.2</course>
<desc>Speed 16.3 km/h Distance 13.23 km</desc>
<time>2011-09-24T10:33:58.33</time>
<name>3496</name>
</trkpt>
<trkpt lat="41.806225" lon="-1.793082">
<ele>1081.0</ele>
<speed>16.8</speed>
<course>326.0</course>
<desc>Speed 16.8 km/h Distance 13.23 km</desc>
<time>2011-09-24T10:33:59.32</time>
<name>3497</name>
</trkpt>
<trkpt lat="41.806260" lon="-1.793113">
<ele>1081.5</ele>
<speed>16.4</speed>
<course>326.0</course>
<desc>Speed 16.4 km/h Distance 13.24 km</desc>
<time>2011-09-24T10:34:00.32</time>
<name>3498</name>
</trkpt>
<trkpt lat="41.806295" lon="-1.793145">
<ele>1081.5</ele>
<speed>16.6</speed>
<course>322.0</course>
<desc>Speed 16.6 km/h Distance 13.24 km</desc>
<time>2011-09-24T10:34:01.32</time>
<name>3499</name>
</trkpt>
<trkpt lat="41.806328" lon="-1.793180">
<ele>1082.0</ele>
<speed>16.8</speed>
<course>317.9</course>
<desc>Speed 16.8 km/h Distance 13.25 km</desc>
<time>2011-09-24T10:34:02.32</time>
<name>3500</name>
</trkpt>
<trkpt lat="41.806360" lon="-1.793218">
<ele>1082.0</ele>
<speed>17.4</speed>
<course>323.3</course>
<desc>Speed 17.4 km/h Distance 13.25 km</desc>
<time>2011-09-24T10:34:03.32</time>
<name>3501</name>
</trkpt>
<trkpt lat="41.806397" lon="-1.793255">
<ele>1082.0</ele>
<speed>18.0</speed>
<course>320.8</course>
<desc>Speed 18.0 km/h Distance 13.26 km</desc>
<time>2011-09-24T10:34:04.32</time>
<name>3502</name>
</trkpt>
<trkpt lat="41.806432" lon="-1.793293">
<ele>1082.0</ele>
<speed>17.5</speed>
<course>314.4</course>
<desc>Speed 17.5 km/h Distance 13.26 km</desc>
<time>2011-09-24T10:34:05.32</time>
<name>3503</name>
</trkpt>
<trkpt lat="41.806463" lon="-1.793337">
<ele>1081.5</ele>
<speed>18.2</speed>
<course>308.2</course>
<desc>Speed 18.2 km/h Distance 13.27 km</desc>
<time>2011-09-24T10:34:06.31</time>
<name>3504</name>
</trkpt>
<trkpt lat="41.806492" lon="-1.793385">
<ele>1082.0</ele>
<speed>17.8</speed>
<course>304.7</course>
<desc>Speed 17.8 km/h Distance 13.27 km</desc>
<time>2011-09-24T10:34:07.31</time>
<name>3505</name>
</trkpt>
<trkpt lat="41.806518" lon="-1.793437">
<ele>1081.5</ele>
<speed>18.3</speed>
<course>300.4</course>
<desc>Speed 18.3 km/h Distance 13.28 km</desc>
<time>2011-09-24T10:34:08.31</time>
<name>3506</name>
</trkpt>
<trkpt lat="41.806542" lon="-1.793490">
<ele>1081.5</ele>
<speed>18.3</speed>
<course>301.2</course>
<desc>Speed 18.3 km/h Distance 13.28 km</desc>
<time>2011-09-24T10:34:09.31</time>
<name>3507</name>
</trkpt>
<trkpt lat="41.806565" lon="-1.793542">
<ele>1081.0</ele>
<speed>17.2</speed>
<course>297.4</course>
<desc>Speed 17.2 km/h Distance 13.29 km</desc>
<time>2011-09-24T10:34:10.31</time>
<name>3508</name>
</trkpt>
<trkpt lat="41.806585" lon="-1.793593">
<ele>1081.0</ele>
<speed>16.8</speed>
<course>293.4</course>
<desc>Speed 16.8 km/h Distance 13.29 km</desc>
<time>2011-09-24T10:34:11.31</time>
<name>3509</name>
</trkpt>
<trkpt lat="41.806602" lon="-1.793645">
<ele>1081.0</ele>
<speed>16.6</speed>
<course>291.3</course>
<desc>Speed 16.6 km/h Distance 13.30 km</desc>
<time>2011-09-24T10:34:12.31</time>
<name>3510</name>
</trkpt>
<trkpt lat="41.806617" lon="-1.793697">
<ele>1081.0</ele>
<speed>15.9</speed>
<course>280.1</course>
<desc>Speed 15.9 km/h Distance 13.30 km</desc>
<time>2011-09-24T10:34:13.31</time>
<name>3511</name>
</trkpt>
<trkpt lat="41.806623" lon="-1.793747">
<ele>1081.0</ele>
<speed>15.2</speed>
<course>284.1</course>
<desc>Speed 15.2 km/h Distance 13.31 km</desc>
<time>2011-09-24T10:34:14.31</time>
<name>3512</name>
</trkpt>
<trkpt lat="41.806633" lon="-1.793800">
<ele>1080.5</ele>
<speed>15.7</speed>
<course>274.9</course>
<desc>Speed 15.7 km/h Distance 13.31 km</desc>
<time>2011-09-24T10:34:15.31</time>
<name>3513</name>
</trkpt>
<trkpt lat="41.806637" lon="-1.793852">
<ele>1080.5</ele>
<speed>15.7</speed>
<course>267.6</course>
<desc>Speed 15.7 km/h Distance 13.31 km</desc>
<time>2011-09-24T10:34:16.31</time>
<name>3514</name>
</trkpt>
<trkpt lat="41.806635" lon="-1.793905">
<ele>1081.0</ele>
<speed>15.6</speed>
<course>272.4</course>
<desc>Speed 15.6 km/h Distance 13.32 km</desc>
<time>2011-09-24T10:34:17.30</time>
<name>3515</name>
</trkpt>
<trkpt lat="41.806637" lon="-1.793958">
<ele>1081.5</ele>
<speed>15.8</speed>
<course>272.4</course>
<desc>Speed 15.8 km/h Distance 13.32 km</desc>
<time>2011-09-24T10:34:18.30</time>
<name>3516</name>
</trkpt>
<trkpt lat="41.806638" lon="-1.794012">
<ele>1081.5</ele>
<speed>15.8</speed>
<course>277.0</course>
<desc>Speed 15.8 km/h Distance 13.33 km</desc>
<time>2011-09-24T10:34:19.30</time>
<name>3517</name>
</trkpt>
<trkpt lat="41.806643" lon="-1.794067">
<ele>1081.0</ele>
<speed>15.8</speed>
<course>265.4</course>
<desc>Speed 15.8 km/h Distance 13.33 km</desc>
<time>2011-09-24T10:34:20.30</time>
<name>3518</name>
</trkpt>
<trkpt lat="41.806640" lon="-1.794122">
<ele>1081.0</ele>
<speed>16.2</speed>
<course>265.4</course>
<desc>Speed 16.2 km/h Distance 13.34 km</desc>
<time>2011-09-24T10:34:21.30</time>
<name>3519</name>
</trkpt>
<trkpt lat="41.806637" lon="-1.794177">
<ele>1081.0</ele>
<speed>16.1</speed>
<course>265.4</course>
<desc>Speed 16.1 km/h Distance 13.34 km</desc>
<time>2011-09-24T10:34:22.30</time>
<name>3520</name>
</trkpt>
<trkpt lat="41.806633" lon="-1.794232">
<ele>1081.5</ele>
<speed>15.9</speed>
<course>267.6</course>
<desc>Speed 15.9 km/h Distance 13.35 km</desc>
<time>2011-09-24T10:34:23.30</time>
<name>3521</name>
</trkpt>
<trkpt lat="41.806632" lon="-1.794285">
<ele>1081.5</ele>
<speed>15.6</speed>
<course>267.6</course>
<desc>Speed 15.6 km/h Distance 13.35 km</desc>
<time>2011-09-24T10:34:24.30</time>
<name>3522</name>
</trkpt>
<trkpt lat="41.806630" lon="-1.794338">
<ele>1081.5</ele>
<speed>15.4</speed>
<course>265.2</course>
<desc>Speed 15.4 km/h Distance 13.35 km</desc>
<time>2011-09-24T10:34:25.30</time>
<name>3523</name>
</trkpt>
<trkpt lat="41.806627" lon="-1.794392">
<ele>1081.5</ele>
<speed>15.6</speed>
<course>267.6</course>
<desc>Speed 15.6 km/h Distance 13.36 km</desc>
<time>2011-09-24T10:34:26.30</time>
<name>3524</name>
</trkpt>
<trkpt lat="41.806625" lon="-1.794445">
<ele>1081.5</ele>
<speed>16.0</speed>
<course>267.7</course>
<desc>Speed 16.0 km/h Distance 13.36 km</desc>
<time>2011-09-24T10:34:27.30</time>
<name>3525</name>
</trkpt>
<trkpt lat="41.806623" lon="-1.794500">
<ele>1081.5</ele>
<speed>16.3</speed>
<course>270.0</course>
<desc>Speed 16.3 km/h Distance 13.37 km</desc>
<time>2011-09-24T10:34:28.29</time>
<name>3526</name>
</trkpt>
<trkpt lat="41.806623" lon="-1.794553">
<ele>1081.5</ele>
<speed>16.1</speed>
<course>265.2</course>
<desc>Speed 16.1 km/h Distance 13.37 km</desc>
<time>2011-09-24T10:34:29.29</time>
<name>3527</name>
</trkpt>
<trkpt lat="41.806620" lon="-1.794607">
<ele>1081.0</ele>
<speed>15.8</speed>
<course>270.0</course>
<desc>Speed 15.8 km/h Distance 13.38 km</desc>
<time>2011-09-24T10:34:30.30</time>
<name>3528</name>
</trkpt>
<trkpt lat="41.806620" lon="-1.794658">
<ele>1081.5</ele>
<speed>15.3</speed>
<course>267.5</course>
<desc>Speed 15.3 km/h Distance 13.38 km</desc>
<time>2011-09-24T10:34:31.29</time>
<name>3529</name>
</trkpt>
<trkpt lat="41.806618" lon="-1.794710">
<ele>1081.5</ele>
<speed>15.6</speed>
<course>270.0</course>
<desc>Speed 15.6 km/h Distance 13.39 km</desc>
<time>2011-09-24T10:34:32.29</time>
<name>3530</name>
</trkpt>
<trkpt lat="41.806618" lon="-1.794760">
<ele>1081.5</ele>
<speed>14.4</speed>
<course>270.0</course>
<desc>Speed 14.4 km/h Distance 13.39 km</desc>
<time>2011-09-24T10:34:33.29</time>
<name>3531</name>
</trkpt>
<trkpt lat="41.806618" lon="-1.794808">
<ele>1081.0</ele>
<speed>14.5</speed>
<course>270.0</course>
<desc>Speed 14.5 km/h Distance 13.39 km</desc>
<time>2011-09-24T10:34:34.29</time>
<name>3532</name>
</trkpt>
<trkpt lat="41.806618" lon="-1.794858">
<ele>1081.0</ele>
<speed>14.8</speed>
<course>240.4</course>
<desc>Speed 14.8 km/h Distance 13.40 km</desc>
<time>2011-09-24T10:34:35.29</time>
<name>3533</name>
</trkpt>
<trkpt lat="41.806600" lon="-1.794902">
<ele>1082.5</ele>
<speed>14.5</speed>
<course>262.4</course>
<desc>Speed 14.5 km/h Distance 13.40 km</desc>
<time>2011-09-24T10:34:36.30</time>
<name>3534</name>
</trkpt>
<trkpt lat="41.806595" lon="-1.794952">
<ele>1083.0</ele>
<speed>14.5</speed>
<course>270.0</course>
<desc>Speed 14.5 km/h Distance 13.41 km</desc>
<time>2011-09-24T10:34:37.29</time>
<name>3535</name>
</trkpt>
<trkpt lat="41.806595" lon="-1.795000">
<ele>1083.0</ele>
<speed>14.4</speed>
<course>267.4</course>
<desc>Speed 14.4 km/h Distance 13.41 km</desc>
<time>2011-09-24T10:34:38.29</time>
<name>3536</name>
</trkpt>
<trkpt lat="41.806593" lon="-1.795050">
<ele>1082.5</ele>
<speed>14.4</speed>
<course>272.6</course>
<desc>Speed 14.4 km/h Distance 13.41 km</desc>
<time>2011-09-24T10:34:39.28</time>
<name>3537</name>
</trkpt>
<trkpt lat="41.806595" lon="-1.795098">
<ele>1082.5</ele>
<speed>14.2</speed>
<course>272.6</course>
<desc>Speed 14.2 km/h Distance 13.42 km</desc>
<time>2011-09-24T10:34:40.29</time>
<name>3538</name>
</trkpt>
<trkpt lat="41.806597" lon="-1.795148">
<ele>1082.5</ele>
<speed>14.1</speed>
<course>275.5</course>
<desc>Speed 14.1 km/h Distance 13.42 km</desc>
<time>2011-09-24T10:34:41.28</time>
<name>3539</name>
</trkpt>
<trkpt lat="41.806600" lon="-1.795195">
<ele>1082.5</ele>
<speed>13.6</speed>
<course>272.8</course>
<desc>Speed 13.6 km/h Distance 13.43 km</desc>
<time>2011-09-24T10:34:42.28</time>
<name>3540</name>
</trkpt>
<trkpt lat="41.806602" lon="-1.795240">
<ele>1082.0</ele>
<speed>13.6</speed>
<course>270.0</course>
<desc>Speed 13.6 km/h Distance 13.43 km</desc>
<time>2011-09-24T10:34:43.28</time>
<name>3541</name>
</trkpt>
<trkpt lat="41.806602" lon="-1.795287">
<ele>1082.0</ele>
<speed>13.7</speed>
<course>264.7</course>
<desc>Speed 13.7 km/h Distance 13.43 km</desc>
<time>2011-09-24T10:34:44.28</time>
<name>3542</name>
</trkpt>
<trkpt lat="41.806598" lon="-1.795335">
<ele>1082.0</ele>
<speed>13.8</speed>
<course>261.8</course>
<desc>Speed 13.8 km/h Distance 13.44 km</desc>
<time>2011-09-24T10:34:45.29</time>
<name>3543</name>
</trkpt>
<trkpt lat="41.806593" lon="-1.795382">
<ele>1082.0</ele>
<speed>13.6</speed>
<course>267.2</course>
<desc>Speed 13.6 km/h Distance 13.44 km</desc>
<time>2011-09-24T10:34:46.28</time>
<name>3544</name>
</trkpt>
<trkpt lat="41.806592" lon="-1.795427">
<ele>1082.0</ele>
<speed>13.2</speed>
<course>272.8</course>
<desc>Speed 13.2 km/h Distance 13.45 km</desc>
<time>2011-09-24T10:34:47.28</time>
<name>3545</name>
</trkpt>
<trkpt lat="41.806593" lon="-1.795472">
<ele>1082.0</ele>
<speed>13.2</speed>
<course>267.3</course>
<desc>Speed 13.2 km/h Distance 13.45 km</desc>
<time>2011-09-24T10:34:48.28</time>
<name>3546</name>
</trkpt>
<trkpt lat="41.806592" lon="-1.795518">
<ele>1082.0</ele>
<speed>13.8</speed>
<course>267.3</course>
<desc>Speed 13.8 km/h Distance 13.45 km</desc>
<time>2011-09-24T10:34:49.27</time>
<name>3547</name>
</trkpt>
<trkpt lat="41.806590" lon="-1.795565">
<ele>1082.0</ele>
<speed>13.7</speed>
<course>270.0</course>
<desc>Speed 13.7 km/h Distance 13.46 km</desc>
<time>2011-09-24T10:34:50.27</time>
<name>3548</name>
</trkpt>
<trkpt lat="41.806590" lon="-1.795612">
<ele>1082.0</ele>
<speed>13.4</speed>
<course>264.1</course>
<desc>Speed 13.4 km/h Distance 13.46 km</desc>
<time>2011-09-24T10:34:51.27</time>
<name>3549</name>
</trkpt>
<trkpt lat="41.806587" lon="-1.795655">
<ele>1082.5</ele>
<speed>12.7</speed>
<course>261.2</course>
<desc>Speed 12.7 km/h Distance 13.46 km</desc>
<time>2011-09-24T10:34:52.28</time>
<name>3550</name>
</trkpt>
<trkpt lat="41.806582" lon="-1.795698">
<ele>1082.5</ele>
<speed>12.8</speed>
<course>264.3</course>
<desc>Speed 12.8 km/h Distance 13.47 km</desc>
<time>2011-09-24T10:34:53.27</time>
<name>3551</name>
</trkpt>
<trkpt lat="41.806578" lon="-1.795743">
<ele>1082.5</ele>
<speed>12.9</speed>
<course>261.5</course>
<desc>Speed 12.9 km/h Distance 13.47 km</desc>
<time>2011-09-24T10:34:54.27</time>
<name>3552</name>
</trkpt>
<trkpt lat="41.806573" lon="-1.795788">
<ele>1082.5</ele>
<speed>13.4</speed>
<course>267.2</course>
<desc>Speed 13.4 km/h Distance 13.48 km</desc>
<time>2011-09-24T10:34:55.27</time>
<name>3553</name>
</trkpt>
<trkpt lat="41.806572" lon="-1.795833">
<ele>1082.5</ele>
<speed>12.9</speed>
<course>264.1</course>
<desc>Speed 12.9 km/h Distance 13.48 km</desc>
<time>2011-09-24T10:34:56.27</time>
<name>3554</name>
</trkpt>
<trkpt lat="41.806568" lon="-1.795877">
<ele>1082.5</ele>
<speed>13.0</speed>
<course>264.3</course>
<desc>Speed 13.0 km/h Distance 13.48 km</desc>
<time>2011-09-24T10:34:57.27</time>
<name>3555</name>
</trkpt>
<trkpt lat="41.806565" lon="-1.795922">
<ele>1082.5</ele>
<speed>13.0</speed>
<course>258.3</course>
<desc>Speed 13.0 km/h Distance 13.49 km</desc>
<time>2011-09-24T10:34:58.27</time>
<name>3556</name>
</trkpt>
<trkpt lat="41.806558" lon="-1.795965">
<ele>1083.0</ele>
<speed>13.3</speed>
<course>261.8</course>
<desc>Speed 13.3 km/h Distance 13.49 km</desc>
<time>2011-09-24T10:34:59.26</time>
<name>3557</name>
</trkpt>
<trkpt lat="41.806553" lon="-1.796012">
<ele>1083.0</ele>
<speed>13.8</speed>
<course>258.8</course>
<desc>Speed 13.8 km/h Distance 13.49 km</desc>
<time>2011-09-24T10:35:00.26</time>
<name>3558</name>
</trkpt>
<trkpt lat="41.806547" lon="-1.796057">
<ele>1083.0</ele>
<speed>13.6</speed>
<course>259.1</course>
<desc>Speed 13.6 km/h Distance 13.50 km</desc>
<time>2011-09-24T10:35:01.26</time>
<name>3559</name>
</trkpt>
<trkpt lat="41.806540" lon="-1.796103">
<ele>1083.0</ele>
<speed>13.7</speed>
<course>255.5</course>
<desc>Speed 13.7 km/h Distance 13.50 km</desc>
<time>2011-09-24T10:35:02.26</time>
<name>3560</name>
</trkpt>
<trkpt lat="41.806532" lon="-1.796147">
<ele>1083.5</ele>
<speed>13.3</speed>
<course>258.8</course>
<desc>Speed 13.3 km/h Distance 13.51 km</desc>
<time>2011-09-24T10:35:03.26</time>
<name>3561</name>
</trkpt>
<trkpt lat="41.806525" lon="-1.796192">
<ele>1083.5</ele>
<speed>13.4</speed>
<course>256.0</course>
<desc>Speed 13.4 km/h Distance 13.51 km</desc>
<time>2011-09-24T10:35:04.26</time>
<name>3562</name>
</trkpt>
<trkpt lat="41.806517" lon="-1.796237">
<ele>1084.0</ele>
<speed>13.2</speed>
<course>258.3</course>
<desc>Speed 13.2 km/h Distance 13.51 km</desc>
<time>2011-09-24T10:35:05.27</time>
<name>3563</name>
</trkpt>
<trkpt lat="41.806510" lon="-1.796280">
<ele>1084.0</ele>
<speed>13.2</speed>
<course>252.8</course>
<desc>Speed 13.2 km/h Distance 13.52 km</desc>
<time>2011-09-24T10:35:06.26</time>
<name>3564</name>
</trkpt>
<trkpt lat="41.806500" lon="-1.796323">
<ele>1084.0</ele>
<speed>13.2</speed>
<course>258.8</course>
<desc>Speed 13.2 km/h Distance 13.52 km</desc>
<time>2011-09-24T10:35:07.26</time>
<name>3565</name>
</trkpt>
<trkpt lat="41.806493" lon="-1.796368">
<ele>1084.0</ele>
<speed>13.4</speed>
<course>250.1</course>
<desc>Speed 13.4 km/h Distance 13.52 km</desc>
<time>2011-09-24T10:35:08.26</time>
<name>3566</name>
</trkpt>
<trkpt lat="41.806482" lon="-1.796412">
<ele>1084.0</ele>
<speed>13.5</speed>
<course>252.1</course>
<desc>Speed 13.5 km/h Distance 13.53 km</desc>
<time>2011-09-24T10:35:09.26</time>
<name>3567</name>
</trkpt>
<trkpt lat="41.806472" lon="-1.796453">
<ele>1084.0</ele>
<speed>13.2</speed>
<course>252.1</course>
<desc>Speed 13.2 km/h Distance 13.53 km</desc>
<time>2011-09-24T10:35:10.26</time>
<name>3568</name>
</trkpt>
<trkpt lat="41.806462" lon="-1.796495">
<ele>1084.0</ele>
<speed>13.0</speed>
<course>252.1</course>
<desc>Speed 13.0 km/h Distance 13.54 km</desc>
<time>2011-09-24T10:35:11.26</time>
<name>3569</name>
</trkpt>
<trkpt lat="41.806452" lon="-1.796537">
<ele>1084.0</ele>
<speed>13.0</speed>
<course>252.8</course>
<desc>Speed 13.0 km/h Distance 13.54 km</desc>
<time>2011-09-24T10:35:12.25</time>
<name>3570</name>
</trkpt>
<trkpt lat="41.806442" lon="-1.796580">
<ele>1084.5</ele>
<speed>13.1</speed>
<course>248.6</course>
<desc>Speed 13.1 km/h Distance 13.54 km</desc>
<time>2011-09-24T10:35:13.26</time>
<name>3571</name>
</trkpt>
<trkpt lat="41.806430" lon="-1.796620">
<ele>1084.0</ele>
<speed>12.9</speed>
<course>250.1</course>
<desc>Speed 12.9 km/h Distance 13.55 km</desc>
<time>2011-09-24T10:35:14.25</time>
<name>3572</name>
</trkpt>
<trkpt lat="41.806418" lon="-1.796663">
<ele>1084.0</ele>
<speed>13.4</speed>
<course>248.6</course>
<desc>Speed 13.4 km/h Distance 13.55 km</desc>
<time>2011-09-24T10:35:15.25</time>
<name>3573</name>
</trkpt>
<trkpt lat="41.806407" lon="-1.796703">
<ele>1084.5</ele>
<speed>13.2</speed>
<course>245.9</course>
<desc>Speed 13.2 km/h Distance 13.55 km</desc>
<time>2011-09-24T10:35:16.25</time>
<name>3574</name>
</trkpt>
<trkpt lat="41.806393" lon="-1.796743">
<ele>1084.5</ele>
<speed>12.9</speed>
<course>245.9</course>
<desc>Speed 12.9 km/h Distance 13.56 km</desc>
<time>2011-09-24T10:35:17.25</time>
<name>3575</name>
</trkpt>
<trkpt lat="41.806380" lon="-1.796783">
<ele>1084.5</ele>
<speed>12.7</speed>
<course>248.6</course>
<desc>Speed 12.7 km/h Distance 13.56 km</desc>
<time>2011-09-24T10:35:18.25</time>
<name>3576</name>
</trkpt>
<trkpt lat="41.806368" lon="-1.796823">
<ele>1084.5</ele>
<speed>12.7</speed>
<course>245.9</course>
<desc>Speed 12.7 km/h Distance 13.57 km</desc>
<time>2011-09-24T10:35:19.25</time>
<name>3577</name>
</trkpt>
<trkpt lat="41.806355" lon="-1.796863">
<ele>1084.5</ele>
<speed>13.0</speed>
<course>248.6</course>
<desc>Speed 13.0 km/h Distance 13.57 km</desc>
<time>2011-09-24T10:35:20.25</time>
<name>3578</name>
</trkpt>
<trkpt lat="41.806343" lon="-1.796903">
<ele>1084.5</ele>
<speed>12.9</speed>
<course>245.9</course>
<desc>Speed 12.9 km/h Distance 13.57 km</desc>
<time>2011-09-24T10:35:21.25</time>
<name>3579</name>
</trkpt>
<trkpt lat="41.806330" lon="-1.796943">
<ele>1085.0</ele>
<speed>13.1</speed>
<course>246.8</course>
<desc>Speed 13.1 km/h Distance 13.58 km</desc>
<time>2011-09-24T10:35:22.24</time>
<name>3580</name>
</trkpt>
<trkpt lat="41.806317" lon="-1.796985">
<ele>1085.0</ele>
<speed>13.0</speed>
<course>245.9</course>
<desc>Speed 13.0 km/h Distance 13.58 km</desc>
<time>2011-09-24T10:35:23.25</time>
<name>3581</name>
</trkpt>
<trkpt lat="41.806303" lon="-1.797025">
<ele>1085.5</ele>
<speed>13.0</speed>
<course>245.9</course>
<desc>Speed 13.0 km/h Distance 13.58 km</desc>
<time>2011-09-24T10:35:24.24</time>
<name>3582</name>
</trkpt>
<trkpt lat="41.806290" lon="-1.797065">
<ele>1085.5</ele>
<speed>12.9</speed>
<course>245.9</course>
<desc>Speed 12.9 km/h Distance 13.59 km</desc>
<time>2011-09-24T10:35:25.24</time>
<name>3583</name>
</trkpt>
<trkpt lat="41.806277" lon="-1.797105">
<ele>1085.5</ele>
<speed>12.7</speed>
<course>248.6</course>
<desc>Speed 12.7 km/h Distance 13.59 km</desc>
<time>2011-09-24T10:35:26.24</time>
<name>3584</name>
</trkpt>
<trkpt lat="41.806265" lon="-1.797145">
<ele>1086.0</ele>
<speed>12.7</speed>
<course>243.3</course>
<desc>Speed 12.7 km/h Distance 13.59 km</desc>
<time>2011-09-24T10:35:27.24</time>
<name>3585</name>
</trkpt>
<trkpt lat="41.806250" lon="-1.797185">
<ele>1086.0</ele>
<speed>13.1</speed>
<course>251.5</course>
<desc>Speed 13.1 km/h Distance 13.60 km</desc>
<time>2011-09-24T10:35:28.24</time>
<name>3586</name>
</trkpt>
<trkpt lat="41.806240" lon="-1.797225">
<ele>1086.0</ele>
<speed>13.0</speed>
<course>246.8</course>
<desc>Speed 13.0 km/h Distance 13.60 km</desc>
<time>2011-09-24T10:35:29.24</time>
<name>3587</name>
</trkpt>
<trkpt lat="41.806227" lon="-1.797267">
<ele>1086.0</ele>
<speed>13.0</speed>
<course>245.0</course>
<desc>Speed 13.0 km/h Distance 13.61 km</desc>
<time>2011-09-24T10:35:30.24</time>
<name>3588</name>
</trkpt>
<trkpt lat="41.806213" lon="-1.797305">
<ele>1086.5</ele>
<speed>13.0</speed>
<course>246.8</course>
<desc>Speed 13.0 km/h Distance 13.61 km</desc>
<time>2011-09-24T10:35:31.24</time>
<name>3589</name>
</trkpt>
<trkpt lat="41.806200" lon="-1.797347">
<ele>1086.5</ele>
<speed>13.2</speed>
<course>248.6</course>
<desc>Speed 13.2 km/h Distance 13.61 km</desc>
<time>2011-09-24T10:35:32.24</time>
<name>3590</name>
</trkpt>
<trkpt lat="41.806188" lon="-1.797387">
<ele>1086.5</ele>
<speed>13.0</speed>
<course>244.2</course>
<desc>Speed 13.0 km/h Distance 13.62 km</desc>
<time>2011-09-24T10:35:33.24</time>
<name>3591</name>
</trkpt>
<trkpt lat="41.806173" lon="-1.797428">
<ele>1087.0</ele>
<speed>13.2</speed>
<course>248.6</course>
<desc>Speed 13.2 km/h Distance 13.62 km</desc>
<time>2011-09-24T10:35:34.23</time>
<name>3592</name>
</trkpt>
<trkpt lat="41.806162" lon="-1.797468">
<ele>1087.0</ele>
<speed>12.8</speed>
<course>248.6</course>
<desc>Speed 12.8 km/h Distance 13.62 km</desc>
<time>2011-09-24T10:35:35.24</time>
<name>3593</name>
</trkpt>
<trkpt lat="41.806150" lon="-1.797508">
<ele>1087.5</ele>
<speed>12.6</speed>
<course>247.8</course>
<desc>Speed 12.6 km/h Distance 13.63 km</desc>
<time>2011-09-24T10:35:36.23</time>
<name>3594</name>
</trkpt>
<trkpt lat="41.806138" lon="-1.797547">
<ele>1087.5</ele>
<speed>12.6</speed>
<course>245.0</course>
<desc>Speed 12.6 km/h Distance 13.63 km</desc>
<time>2011-09-24T10:35:37.23</time>
<name>3595</name>
</trkpt>
<trkpt lat="41.806125" lon="-1.797585">
<ele>1087.5</ele>
<speed>12.3</speed>
<course>247.8</course>
<desc>Speed 12.3 km/h Distance 13.63 km</desc>
<time>2011-09-24T10:35:38.23</time>
<name>3596</name>
</trkpt>
<trkpt lat="41.806113" lon="-1.797623">
<ele>1087.5</ele>
<speed>12.5</speed>
<course>246.9</course>
<desc>Speed 12.5 km/h Distance 13.64 km</desc>
<time>2011-09-24T10:35:39.23</time>
<name>3597</name>
</trkpt>
<trkpt lat="41.806102" lon="-1.797660">
<ele>1087.5</ele>
<speed>11.8</speed>
<course>245.9</course>
<desc>Speed 11.8 km/h Distance 13.64 km</desc>
<time>2011-09-24T10:35:40.23</time>
<name>3598</name>
</trkpt>
<trkpt lat="41.806090" lon="-1.797695">
<ele>1087.5</ele>
<speed>11.6</speed>
<course>245.0</course>
<desc>Speed 11.6 km/h Distance 13.64 km</desc>
<time>2011-09-24T10:35:41.23</time>
<name>3599</name>
</trkpt>
<trkpt lat="41.806077" lon="-1.797733">
<ele>1087.5</ele>
<speed>12.6</speed>
<course>247.8</course>
<desc>Speed 12.6 km/h Distance 13.65 km</desc>
<time>2011-09-24T10:35:42.23</time>
<name>3600</name>
</trkpt>
<trkpt lat="41.806065" lon="-1.797772">
<ele>1087.0</ele>
<speed>12.3</speed>
<course>249.9</course>
<desc>Speed 12.3 km/h Distance 13.65 km</desc>
<time>2011-09-24T10:35:43.24</time>
<name>3601</name>
</trkpt>
<trkpt lat="41.806055" lon="-1.797808">
<ele>1087.5</ele>
<speed>11.6</speed>
<course>244.0</course>
<desc>Speed 11.6 km/h Distance 13.65 km</desc>
<time>2011-09-24T10:35:44.22</time>
<name>3602</name>
</trkpt>
<trkpt lat="41.806042" lon="-1.797845">
<ele>1087.5</ele>
<speed>12.3</speed>
<course>250.7</course>
<desc>Speed 12.3 km/h Distance 13.66 km</desc>
<time>2011-09-24T10:35:45.22</time>
<name>3603</name>
</trkpt>
<trkpt lat="41.806032" lon="-1.797883">
<ele>1087.5</ele>
<speed>12.1</speed>
<course>249.9</course>
<desc>Speed 12.1 km/h Distance 13.66 km</desc>
<time>2011-09-24T10:35:46.22</time>
<name>3604</name>
</trkpt>
<trkpt lat="41.806022" lon="-1.797920">
<ele>1087.0</ele>
<speed>11.9</speed>
<course>245.9</course>
<desc>Speed 11.9 km/h Distance 13.66 km</desc>
<time>2011-09-24T10:35:47.22</time>
<name>3605</name>
</trkpt>
<trkpt lat="41.806008" lon="-1.797960">
<ele>1087.5</ele>
<speed>12.4</speed>
<course>244.0</course>
<desc>Speed 12.4 km/h Distance 13.67 km</desc>
<time>2011-09-24T10:35:48.22</time>
<name>3606</name>
</trkpt>
<trkpt lat="41.805995" lon="-1.797997">
<ele>1087.5</ele>
<speed>11.9</speed>
<course>245.9</course>
<desc>Speed 11.9 km/h Distance 13.67 km</desc>
<time>2011-09-24T10:35:49.22</time>
<name>3607</name>
</trkpt>
<trkpt lat="41.805982" lon="-1.798037">
<ele>1088.0</ele>
<speed>12.1</speed>
<course>244.2</course>
<desc>Speed 12.1 km/h Distance 13.67 km</desc>
<time>2011-09-24T10:35:50.22</time>
<name>3608</name>
</trkpt>
<trkpt lat="41.805967" lon="-1.798078">
<ele>1089.0</ele>
<speed>12.9</speed>
<course>252.2</course>
<desc>Speed 12.9 km/h Distance 13.68 km</desc>
<time>2011-09-24T10:35:51.22</time>
<name>3609</name>
</trkpt>
<trkpt lat="41.805957" lon="-1.798120">
<ele>1089.5</ele>
<speed>12.3</speed>
<course>251.5</course>
<desc>Speed 12.3 km/h Distance 13.68 km</desc>
<time>2011-09-24T10:35:52.22</time>
<name>3610</name>
</trkpt>
<trkpt lat="41.805947" lon="-1.798160">
<ele>1090.0</ele>
<speed>12.1</speed>
<course>246.9</course>
<desc>Speed 12.1 km/h Distance 13.69 km</desc>
<time>2011-09-24T10:35:53.22</time>
<name>3611</name>
</trkpt>
<trkpt lat="41.805935" lon="-1.798197">
<ele>1090.0</ele>
<speed>11.9</speed>
<course>247.8</course>
<desc>Speed 11.9 km/h Distance 13.69 km</desc>
<time>2011-09-24T10:35:54.22</time>
<name>3612</name>
</trkpt>
<trkpt lat="41.805923" lon="-1.798235">
<ele>1090.0</ele>
<speed>12.3</speed>
<course>249.9</course>
<desc>Speed 12.3 km/h Distance 13.69 km</desc>
<time>2011-09-24T10:35:55.22</time>
<name>3613</name>
</trkpt>
<trkpt lat="41.805913" lon="-1.798272">
<ele>1089.5</ele>
<speed>12.0</speed>
<course>247.8</course>
<desc>Speed 12.0 km/h Distance 13.70 km</desc>
<time>2011-09-24T10:35:56.22</time>
<name>3614</name>
</trkpt>
<trkpt lat="41.805902" lon="-1.798310">
<ele>1090.0</ele>
<speed>12.4</speed>
<course>244.0</course>
<desc>Speed 12.4 km/h Distance 13.70 km</desc>
<time>2011-09-24T10:35:57.21</time>
<name>3615</name>
</trkpt>
<trkpt lat="41.805888" lon="-1.798347">
<ele>1090.0</ele>
<speed>12.0</speed>
<course>241.2</course>
<desc>Speed 12.0 km/h Distance 13.70 km</desc>
<time>2011-09-24T10:35:58.21</time>
<name>3616</name>
</trkpt>
<trkpt lat="41.805873" lon="-1.798383">
<ele>1090.5</ele>
<speed>11.9</speed>
<course>246.9</course>
<desc>Speed 11.9 km/h Distance 13.71 km</desc>
<time>2011-09-24T10:35:59.21</time>
<name>3617</name>
</trkpt>
<trkpt lat="41.805862" lon="-1.798420">
<ele>1090.5</ele>
<speed>12.0</speed>
<course>247.8</course>
<desc>Speed 12.0 km/h Distance 13.71 km</desc>
<time>2011-09-24T10:36:00.21</time>
<name>3618</name>
</trkpt>
<trkpt lat="41.805850" lon="-1.798458">
<ele>1091.0</ele>
<speed>12.1</speed>
<course>247.8</course>
<desc>Speed 12.1 km/h Distance 13.71 km</desc>
<time>2011-09-24T10:36:01.21</time>
<name>3619</name>
</trkpt>
<trkpt lat="41.805838" lon="-1.798497">
<ele>1091.0</ele>
<speed>12.3</speed>
<course>246.9</course>
<desc>Speed 12.3 km/h Distance 13.72 km</desc>
<time>2011-09-24T10:36:02.21</time>
<name>3620</name>
</trkpt>
<trkpt lat="41.805827" lon="-1.798533">
<ele>1091.0</ele>
<speed>11.8</speed>
<course>246.9</course>
<desc>Speed 11.8 km/h Distance 13.72 km</desc>
<time>2011-09-24T10:36:03.22</time>
<name>3621</name>
</trkpt>
<trkpt lat="41.805815" lon="-1.798570">
<ele>1092.0</ele>
<speed>12.2</speed>
<course>244.0</course>
<desc>Speed 12.2 km/h Distance 13.72 km</desc>
<time>2011-09-24T10:36:04.21</time>
<name>3622</name>
</trkpt>
<trkpt lat="41.805802" lon="-1.798607">
<ele>1092.0</ele>
<speed>12.1</speed>
<course>242.3</course>
<desc>Speed 12.1 km/h Distance 13.73 km</desc>
<time>2011-09-24T10:36:05.21</time>
<name>3623</name>
</trkpt>
<trkpt lat="41.805787" lon="-1.798645">
<ele>1092.5</ele>
<speed>12.5</speed>
<course>246.9</course>
<desc>Speed 12.5 km/h Distance 13.73 km</desc>
<time>2011-09-24T10:36:06.21</time>
<name>3624</name>
</trkpt>
<trkpt lat="41.805775" lon="-1.798682">
<ele>1092.5</ele>
<speed>12.2</speed>
<course>247.8</course>
<desc>Speed 12.2 km/h Distance 13.73 km</desc>
<time>2011-09-24T10:36:07.21</time>
<name>3625</name>
</trkpt>
<trkpt lat="41.805763" lon="-1.798720">
<ele>1092.5</ele>
<speed>12.3</speed>
<course>247.8</course>
<desc>Speed 12.3 km/h Distance 13.74 km</desc>
<time>2011-09-24T10:36:08.20</time>
<name>3626</name>
</trkpt>
<trkpt lat="41.805752" lon="-1.798758">
<ele>1093.0</ele>
<speed>12.2</speed>
<course>244.0</course>
<desc>Speed 12.2 km/h Distance 13.74 km</desc>
<time>2011-09-24T10:36:09.20</time>
<name>3627</name>
</trkpt>
<trkpt lat="41.805738" lon="-1.798795">
<ele>1093.0</ele>
<speed>12.3</speed>
<course>244.0</course>
<desc>Speed 12.3 km/h Distance 13.74 km</desc>
<time>2011-09-24T10:36:10.20</time>
<name>3628</name>
</trkpt>
<trkpt lat="41.805725" lon="-1.798832">
<ele>1093.0</ele>
<speed>12.2</speed>
<course>245.0</course>
<desc>Speed 12.2 km/h Distance 13.75 km</desc>
<time>2011-09-24T10:36:11.20</time>
<name>3629</name>
</trkpt>
<trkpt lat="41.805712" lon="-1.798870">
<ele>1093.0</ele>
<speed>12.5</speed>
<course>247.8</course>
<desc>Speed 12.5 km/h Distance 13.75 km</desc>
<time>2011-09-24T10:36:12.20</time>
<name>3630</name>
</trkpt>
<trkpt lat="41.805700" lon="-1.798908">
<ele>1093.0</ele>
<speed>12.3</speed>
<course>247.8</course>
<desc>Speed 12.3 km/h Distance 13.75 km</desc>
<time>2011-09-24T10:36:13.21</time>
<name>3631</name>
</trkpt>
<trkpt lat="41.805688" lon="-1.798947">
<ele>1093.5</ele>
<speed>12.8</speed>
<course>248.6</course>
<desc>Speed 12.8 km/h Distance 13.76 km</desc>
<time>2011-09-24T10:36:14.19</time>
<name>3632</name>
</trkpt>
<trkpt lat="41.805677" lon="-1.798987">
<ele>1093.5</ele>
<speed>12.5</speed>
<course>250.7</course>
<desc>Speed 12.5 km/h Distance 13.76 km</desc>
<time>2011-09-24T10:36:15.19</time>
<name>3633</name>
</trkpt>
<trkpt lat="41.805667" lon="-1.799025">
<ele>1093.5</ele>
<speed>12.2</speed>
<course>247.8</course>
<desc>Speed 12.2 km/h Distance 13.76 km</desc>
<time>2011-09-24T10:36:16.20</time>
<name>3634</name>
</trkpt>
<trkpt lat="41.805655" lon="-1.799063">
<ele>1093.5</ele>
<speed>12.1</speed>
<course>253.0</course>
<desc>Speed 12.1 km/h Distance 13.77 km</desc>
<time>2011-09-24T10:36:17.19</time>
<name>3635</name>
</trkpt>
<trkpt lat="41.805647" lon="-1.799100">
<ele>1093.5</ele>
<speed>11.7</speed>
<course>252.3</course>
<desc>Speed 11.7 km/h Distance 13.77 km</desc>
<time>2011-09-24T10:36:18.20</time>
<name>3636</name>
</trkpt>
<trkpt lat="41.805638" lon="-1.799135">
<ele>1093.5</ele>
<speed>11.4</speed>
<course>253.1</course>
<desc>Speed 11.4 km/h Distance 13.77 km</desc>
<time>2011-09-24T10:36:19.20</time>
<name>3637</name>
</trkpt>
<trkpt lat="41.805630" lon="-1.799172">
<ele>1093.5</ele>
<speed>11.4</speed>
<course>253.0</course>
<desc>Speed 11.4 km/h Distance 13.78 km</desc>
<time>2011-09-24T10:36:20.20</time>
<name>3638</name>
</trkpt>
<trkpt lat="41.805622" lon="-1.799208">
<ele>1093.5</ele>
<speed>11.3</speed>
<course>249.9</course>
<desc>Speed 11.3 km/h Distance 13.78 km</desc>
<time>2011-09-24T10:36:21.20</time>
<name>3639</name>
</trkpt>
<trkpt lat="41.805612" lon="-1.799245">
<ele>1093.5</ele>
<speed>11.6</speed>
<course>250.6</course>
<desc>Speed 11.6 km/h Distance 13.78 km</desc>
<time>2011-09-24T10:36:22.19</time>
<name>3640</name>
</trkpt>
<trkpt lat="41.805603" lon="-1.799277">
<ele>1093.0</ele>
<speed>10.2</speed>
<course>250.7</course>
<desc>Speed 10.2 km/h Distance 13.79 km</desc>
<time>2011-09-24T10:36:23.19</time>
<name>3641</name>
</trkpt>
<trkpt lat="41.805593" lon="-1.799315">
<ele>1093.5</ele>
<speed>11.7</speed>
<course>249.0</course>
<desc>Speed 11.7 km/h Distance 13.79 km</desc>
<time>2011-09-24T10:36:24.19</time>
<name>3642</name>
</trkpt>
<trkpt lat="41.805583" lon="-1.799350">
<ele>1093.5</ele>
<speed>11.3</speed>
<course>246.9</course>
<desc>Speed 11.3 km/h Distance 13.79 km</desc>
<time>2011-09-24T10:36:25.20</time>
<name>3643</name>
</trkpt>
<trkpt lat="41.805572" lon="-1.799387">
<ele>1093.0</ele>
<speed>11.7</speed>
<course>245.0</course>
<desc>Speed 11.7 km/h Distance 13.80 km</desc>
<time>2011-09-24T10:36:26.19</time>
<name>3644</name>
</trkpt>
<trkpt lat="41.805558" lon="-1.799425">
<ele>1093.0</ele>
<speed>12.3</speed>
<course>244.0</course>
<desc>Speed 12.3 km/h Distance 13.80 km</desc>
<time>2011-09-24T10:36:27.19</time>
<name>3645</name>
</trkpt>
<trkpt lat="41.805545" lon="-1.799462">
<ele>1093.0</ele>
<speed>12.1</speed>
<course>246.9</course>
<desc>Speed 12.1 km/h Distance 13.80 km</desc>
<time>2011-09-24T10:36:28.18</time>
<name>3646</name>
</trkpt>
<trkpt lat="41.805533" lon="-1.799498">
<ele>1093.0</ele>
<speed>12.0</speed>
<course>245.0</course>
<desc>Speed 12.0 km/h Distance 13.81 km</desc>
<time>2011-09-24T10:36:29.19</time>
<name>3647</name>
</trkpt>
<trkpt lat="41.805520" lon="-1.799537">
<ele>1093.0</ele>
<speed>12.1</speed>
<course>244.0</course>
<desc>Speed 12.1 km/h Distance 13.81 km</desc>
<time>2011-09-24T10:36:30.18</time>
<name>3648</name>
</trkpt>
<trkpt lat="41.805507" lon="-1.799573">
<ele>1093.5</ele>
<speed>12.1</speed>
<course>245.0</course>
<desc>Speed 12.1 km/h Distance 13.81 km</desc>
<time>2011-09-24T10:36:31.18</time>
<name>3649</name>
</trkpt>
<trkpt lat="41.805493" lon="-1.799612">
<ele>1094.0</ele>
<speed>12.4</speed>
<course>252.3</course>
<desc>Speed 12.4 km/h Distance 13.82 km</desc>
<time>2011-09-24T10:36:32.18</time>
<name>3650</name>
</trkpt>
<trkpt lat="41.805485" lon="-1.799647">
<ele>1093.0</ele>
<speed>10.6</speed>
<course>259.6</course>
<desc>Speed 10.6 km/h Distance 13.82 km</desc>
<time>2011-09-24T10:36:33.18</time>
<name>3651</name>
</trkpt>
<trkpt lat="41.805480" lon="-1.799683">
<ele>1092.0</ele>
<speed>10.7</speed>
<course>253.1</course>
<desc>Speed 10.7 km/h Distance 13.82 km</desc>
<time>2011-09-24T10:36:34.18</time>
<name>3652</name>
</trkpt>
<trkpt lat="41.805472" lon="-1.799720">
<ele>1091.0</ele>
<speed>11.0</speed>
<course>256.3</course>
<desc>Speed 11.0 km/h Distance 13.83 km</desc>
<time>2011-09-24T10:36:35.18</time>
<name>3653</name>
</trkpt>
<trkpt lat="41.805465" lon="-1.799757">
<ele>1090.5</ele>
<speed>11.1</speed>
<course>249.9</course>
<desc>Speed 11.1 km/h Distance 13.83 km</desc>
<time>2011-09-24T10:36:36.18</time>
<name>3654</name>
</trkpt>
<trkpt lat="41.805455" lon="-1.799793">
<ele>1090.5</ele>
<speed>10.9</speed>
<course>247.8</course>
<desc>Speed 10.9 km/h Distance 13.83 km</desc>
<time>2011-09-24T10:36:37.18</time>
<name>3655</name>
</trkpt>
<trkpt lat="41.805443" lon="-1.799832">
<ele>1090.5</ele>
<speed>11.9</speed>
<course>247.8</course>
<desc>Speed 11.9 km/h Distance 13.84 km</desc>
<time>2011-09-24T10:36:38.18</time>
<name>3656</name>
</trkpt>
<trkpt lat="41.805432" lon="-1.799870">
<ele>1090.0</ele>
<speed>12.2</speed>
<course>257.9</course>
<desc>Speed 12.2 km/h Distance 13.84 km</desc>
<time>2011-09-24T10:36:39.17</time>
<name>3657</name>
</trkpt>
<trkpt lat="41.805425" lon="-1.799912">
<ele>1090.0</ele>
<speed>12.9</speed>
<course>259.2</course>
<desc>Speed 12.9 km/h Distance 13.84 km</desc>
<time>2011-09-24T10:36:40.17</time>
<name>3658</name>
</trkpt>
<trkpt lat="41.805418" lon="-1.799958">
<ele>1090.0</ele>
<speed>13.9</speed>
<course>264.7</course>
<desc>Speed 13.9 km/h Distance 13.85 km</desc>
<time>2011-09-24T10:36:41.17</time>
<name>3659</name>
</trkpt>
<trkpt lat="41.805415" lon="-1.800007">
<ele>1090.5</ele>
<speed>14.2</speed>
<course>267.4</course>
<desc>Speed 14.2 km/h Distance 13.85 km</desc>
<time>2011-09-24T10:36:42.17</time>
<name>3660</name>
</trkpt>
<trkpt lat="41.805413" lon="-1.800055">
<ele>1090.5</ele>
<speed>14.1</speed>
<course>281.7</course>
<desc>Speed 14.1 km/h Distance 13.85 km</desc>
<time>2011-09-24T10:36:43.17</time>
<name>3661</name>
</trkpt>
<trkpt lat="41.805420" lon="-1.800098">
<ele>1090.0</ele>
<speed>13.2</speed>
<course>284.1</course>
<desc>Speed 13.2 km/h Distance 13.86 km</desc>
<time>2011-09-24T10:36:44.18</time>
<name>3662</name>
</trkpt>
<trkpt lat="41.805430" lon="-1.800152">
<ele>1090.5</ele>
<speed>16.1</speed>
<course>303.9</course>
<desc>Speed 16.1 km/h Distance 13.86 km</desc>
<time>2011-09-24T10:36:45.17</time>
<name>3663</name>
</trkpt>
<trkpt lat="41.805452" lon="-1.800195">
<ele>1090.5</ele>
<speed>15.1</speed>
<course>308.0</course>
<desc>Speed 15.1 km/h Distance 13.87 km</desc>
<time>2011-09-24T10:36:46.17</time>
<name>3664</name>
</trkpt>
<trkpt lat="41.805475" lon="-1.800235">
<ele>1091.5</ele>
<speed>14.5</speed>
<course>326.2</course>
<desc>Speed 14.5 km/h Distance 13.87 km</desc>
<time>2011-09-24T10:36:47.17</time>
<name>3665</name>
</trkpt>
<trkpt lat="41.805508" lon="-1.800265">
<ele>1091.5</ele>
<speed>15.7</speed>
<course>338.8</course>
<desc>Speed 15.7 km/h Distance 13.88 km</desc>
<time>2011-09-24T10:36:48.17</time>
<name>3666</name>
</trkpt>
<trkpt lat="41.805550" lon="-1.800287">
<ele>1091.0</ele>
<speed>17.4</speed>
<course>349.1</course>
<desc>Speed 17.4 km/h Distance 13.88 km</desc>
<time>2011-09-24T10:36:49.17</time>
<name>3667</name>
</trkpt>
<trkpt lat="41.805595" lon="-1.800298">
<ele>1089.5</ele>
<speed>18.9</speed>
<course>3.1</course>
<desc>Speed 18.9 km/h Distance 13.89 km</desc>
<time>2011-09-24T10:36:50.17</time>
<name>3668</name>
</trkpt>
<trkpt lat="41.805640" lon="-1.800295">
<ele>1090.5</ele>
<speed>17.9</speed>
<course>12.0</course>
<desc>Speed 17.9 km/h Distance 13.89 km</desc>
<time>2011-09-24T10:36:51.17</time>
<name>3669</name>
</trkpt>
<trkpt lat="41.805675" lon="-1.800285">
<ele>1091.0</ele>
<speed>14.9</speed>
<course>25.0</course>
<desc>Speed 14.9 km/h Distance 13.89 km</desc>
<time>2011-09-24T10:36:52.16</time>
<name>3670</name>
</trkpt>
<trkpt lat="41.805715" lon="-1.800260">
<ele>1090.5</ele>
<speed>17.6</speed>
<course>29.5</course>
<desc>Speed 17.6 km/h Distance 13.90 km</desc>
<time>2011-09-24T10:36:53.17</time>
<name>3671</name>
</trkpt>
<trkpt lat="41.805757" lon="-1.800228">
<ele>1090.5</ele>
<speed>18.9</speed>
<course>31.9</course>
<desc>Speed 18.9 km/h Distance 13.91 km</desc>
<time>2011-09-24T10:36:54.16</time>
<name>3672</name>
</trkpt>
<trkpt lat="41.805797" lon="-1.800195">
<ele>1091.0</ele>
<speed>19.5</speed>
<course>33.0</course>
<desc>Speed 19.5 km/h Distance 13.91 km</desc>
<time>2011-09-24T10:36:55.16</time>
<name>3673</name>
</trkpt>
<trkpt lat="41.805835" lon="-1.800162">
<ele>1091.5</ele>
<speed>19.0</speed>
<course>36.7</course>
<desc>Speed 19.0 km/h Distance 13.92 km</desc>
<time>2011-09-24T10:36:56.16</time>
<name>3674</name>
</trkpt>
<trkpt lat="41.805868" lon="-1.800128">
<ele>1092.5</ele>
<speed>18.8</speed>
<course>32.6</course>
<desc>Speed 18.8 km/h Distance 13.92 km</desc>
<time>2011-09-24T10:36:57.17</time>
<name>3675</name>
</trkpt>
<trkpt lat="41.805903" lon="-1.800098">
<ele>1093.0</ele>
<speed>17.2</speed>
<course>32.8</course>
<desc>Speed 17.2 km/h Distance 13.92 km</desc>
<time>2011-09-24T10:36:58.16</time>
<name>3676</name>
</trkpt>
<trkpt lat="41.805940" lon="-1.800067">
<ele>1093.0</ele>
<speed>17.4</speed>
<course>32.4</course>
<desc>Speed 17.4 km/h Distance 13.93 km</desc>
<time>2011-09-24T10:36:59.16</time>
<name>3677</name>
</trkpt>
<trkpt lat="41.805973" lon="-1.800038">
<ele>1093.5</ele>
<speed>16.5</speed>
<course>33.8</course>
<desc>Speed 16.5 km/h Distance 13.93 km</desc>
<time>2011-09-24T10:37:00.16</time>
<name>3678</name>
</trkpt>
<trkpt lat="41.806007" lon="-1.800008">
<ele>1094.0</ele>
<speed>16.0</speed>
<course>29.6</course>
<desc>Speed 16.0 km/h Distance 13.94 km</desc>
<time>2011-09-24T10:37:01.16</time>
<name>3679</name>
</trkpt>
<trkpt lat="41.806042" lon="-1.799982">
<ele>1094.0</ele>
<speed>16.6</speed>
<course>28.5</course>
<desc>Speed 16.6 km/h Distance 13.94 km</desc>
<time>2011-09-24T10:37:02.16</time>
<name>3680</name>
</trkpt>
<trkpt lat="41.806078" lon="-1.799955">
<ele>1094.0</ele>
<speed>16.7</speed>
<course>25.4</course>
<desc>Speed 16.7 km/h Distance 13.95 km</desc>
<time>2011-09-24T10:37:03.16</time>
<name>3681</name>
</trkpt>
<trkpt lat="41.806115" lon="-1.799932">
<ele>1094.0</ele>
<speed>16.6</speed>
<course>23.8</course>
<desc>Speed 16.6 km/h Distance 13.95 km</desc>
<time>2011-09-24T10:37:04.16</time>
<name>3682</name>
</trkpt>
<trkpt lat="41.806152" lon="-1.799910">
<ele>1094.5</ele>
<speed>16.4</speed>
<course>23.1</course>
<desc>Speed 16.4 km/h Distance 13.96 km</desc>
<time>2011-09-24T10:37:05.15</time>
<name>3683</name>
</trkpt>
<trkpt lat="41.806187" lon="-1.799890">
<ele>1095.0</ele>
<speed>15.7</speed>
<course>18.8</course>
<desc>Speed 15.7 km/h Distance 13.96 km</desc>
<time>2011-09-24T10:37:06.16</time>
<name>3684</name>
</trkpt>
<trkpt lat="41.806223" lon="-1.799873">
<ele>1095.0</ele>
<speed>15.6</speed>
<course>15.2</course>
<desc>Speed 15.6 km/h Distance 13.96 km</desc>
<time>2011-09-24T10:37:07.15</time>
<name>3685</name>
</trkpt>
<trkpt lat="41.806260" lon="-1.799860">
<ele>1095.0</ele>
<speed>15.3</speed>
<course>17.9</course>
<desc>Speed 15.3 km/h Distance 13.97 km</desc>
<time>2011-09-24T10:37:08.15</time>
<name>3686</name>
</trkpt>
<trkpt lat="41.806298" lon="-1.799843">
<ele>1095.5</ele>
<speed>15.7</speed>
<course>14.6</course>
<desc>Speed 15.7 km/h Distance 13.97 km</desc>
<time>2011-09-24T10:37:09.15</time>
<name>3687</name>
</trkpt>
<trkpt lat="41.806337" lon="-1.799830">
<ele>1096.0</ele>
<speed>15.6</speed>
<course>8.5</course>
<desc>Speed 15.6 km/h Distance 13.98 km</desc>
<time>2011-09-24T10:37:10.15</time>
<name>3688</name>
</trkpt>
<trkpt lat="41.806378" lon="-1.799822">
<ele>1096.0</ele>
<speed>16.0</speed>
<course>1.7</course>
<desc>Speed 16.0 km/h Distance 13.98 km</desc>
<time>2011-09-24T10:37:11.15</time>
<name>3689</name>
</trkpt>
<trkpt lat="41.806418" lon="-1.799820">
<ele>1096.0</ele>
<speed>15.5</speed>
<course>358.4</course>
<desc>Speed 15.5 km/h Distance 13.99 km</desc>
<time>2011-09-24T10:37:12.15</time>
<name>3690</name>
</trkpt>
<trkpt lat="41.806462" lon="-1.799822">
<ele>1096.5</ele>
<speed>16.6</speed>
<course>355.1</course>
<desc>Speed 16.6 km/h Distance 13.99 km</desc>
<time>2011-09-24T10:37:13.15</time>
<name>3691</name>
</trkpt>
<trkpt lat="41.806505" lon="-1.799827">
<ele>1096.5</ele>
<speed>16.8</speed>
<course>356.8</course>
<desc>Speed 16.8 km/h Distance 14.00 km</desc>
<time>2011-09-24T10:37:14.14</time>
<name>3692</name>
</trkpt>
<trkpt lat="41.806548" lon="-1.799830">
<ele>1097.0</ele>
<speed>16.8</speed>
<course>351.8</course>
<desc>Speed 16.8 km/h Distance 14.00 km</desc>
<time>2011-09-24T10:37:15.15</time>
<name>3693</name>
</trkpt>
<trkpt lat="41.806592" lon="-1.799838">
<ele>1097.0</ele>
<speed>16.6</speed>
<course>344.4</course>
<desc>Speed 16.6 km/h Distance 14.01 km</desc>
<time>2011-09-24T10:37:16.14</time>
<name>3694</name>
</trkpt>
<trkpt lat="41.806632" lon="-1.799853">
<ele>1097.0</ele>
<speed>15.8</speed>
<course>341.3</course>
<desc>Speed 15.8 km/h Distance 14.01 km</desc>
<time>2011-09-24T10:37:17.14</time>
<name>3695</name>
</trkpt>
<trkpt lat="41.806668" lon="-1.799870">
<ele>1097.0</ele>
<speed>15.1</speed>
<course>338.6</course>
<desc>Speed 15.1 km/h Distance 14.02 km</desc>
<time>2011-09-24T10:37:18.14</time>
<name>3696</name>
</trkpt>
<trkpt lat="41.806703" lon="-1.799888">
<ele>1097.5</ele>
<speed>14.6</speed>
<course>337.7</course>
<desc>Speed 14.6 km/h Distance 14.02 km</desc>
<time>2011-09-24T10:37:19.14</time>
<name>3697</name>
</trkpt>
<trkpt lat="41.806737" lon="-1.799907">
<ele>1097.5</ele>
<speed>13.9</speed>
<course>335.9</course>
<desc>Speed 13.9 km/h Distance 14.02 km</desc>
<time>2011-09-24T10:37:20.15</time>
<name>3698</name>
</trkpt>
<trkpt lat="41.806770" lon="-1.799927">
<ele>1097.5</ele>
<speed>14.5</speed>
<course>339.6</course>
<desc>Speed 14.5 km/h Distance 14.03 km</desc>
<time>2011-09-24T10:37:21.15</time>
<name>3699</name>
</trkpt>
<trkpt lat="41.806803" lon="-1.799943">
<ele>1097.5</ele>
<speed>13.8</speed>
<course>339.6</course>
<desc>Speed 13.8 km/h Distance 14.03 km</desc>
<time>2011-09-24T10:37:22.14</time>
<name>3700</name>
</trkpt>
<trkpt lat="41.806840" lon="-1.799962">
<ele>1098.0</ele>
<speed>15.2</speed>
<course>336.2</course>
<desc>Speed 15.2 km/h Distance 14.04 km</desc>
<time>2011-09-24T10:37:23.14</time>
<name>3701</name>
</trkpt>
<trkpt lat="41.806877" lon="-1.799983">
<ele>1098.0</ele>
<speed>15.2</speed>
<course>341.3</course>
<desc>Speed 15.2 km/h Distance 14.04 km</desc>
<time>2011-09-24T10:37:24.14</time>
<name>3702</name>
</trkpt>
<trkpt lat="41.806913" lon="-1.800000">
<ele>1098.0</ele>
<speed>15.1</speed>
<course>342.0</course>
<desc>Speed 15.1 km/h Distance 14.04 km</desc>
<time>2011-09-24T10:37:25.15</time>
<name>3703</name>
</trkpt>
<trkpt lat="41.806952" lon="-1.800017">
<ele>1098.5</ele>
<speed>16.1</speed>
<course>339.6</course>
<desc>Speed 16.1 km/h Distance 14.05 km</desc>
<time>2011-09-24T10:37:26.14</time>
<name>3704</name>
</trkpt>
<trkpt lat="41.806988" lon="-1.800035">
<ele>1098.5</ele>
<speed>14.8</speed>
<course>341.3</course>
<desc>Speed 14.8 km/h Distance 14.05 km</desc>
<time>2011-09-24T10:37:27.14</time>
<name>3705</name>
</trkpt>
<trkpt lat="41.807025" lon="-1.800052">
<ele>1099.0</ele>
<speed>15.4</speed>
<course>335.9</course>
<desc>Speed 15.4 km/h Distance 14.06 km</desc>
<time>2011-09-24T10:37:28.13</time>
<name>3706</name>
</trkpt>
<trkpt lat="41.807058" lon="-1.800072">
<ele>1099.0</ele>
<speed>13.8</speed>
<course>343.7</course>
<desc>Speed 13.8 km/h Distance 14.06 km</desc>
<time>2011-09-24T10:37:29.14</time>
<name>3707</name>
</trkpt>
<trkpt lat="41.807097" lon="-1.800087">
<ele>1099.5</ele>
<speed>15.3</speed>
<course>342.7</course>
<desc>Speed 15.3 km/h Distance 14.07 km</desc>
<time>2011-09-24T10:37:30.13</time>
<name>3708</name>
</trkpt>
<trkpt lat="41.807137" lon="-1.800103">
<ele>1099.5</ele>
<speed>16.1</speed>
<course>336.2</course>
<desc>Speed 16.1 km/h Distance 14.07 km</desc>
<time>2011-09-24T10:37:31.13</time>
<name>3709</name>
</trkpt>
<trkpt lat="41.807173" lon="-1.800125">
<ele>1100.0</ele>
<speed>15.7</speed>
<course>337.1</course>
<desc>Speed 15.7 km/h Distance 14.08 km</desc>
<time>2011-09-24T10:37:32.13</time>
<name>3710</name>
</trkpt>
<trkpt lat="41.807212" lon="-1.800147">
<ele>1099.5</ele>
<speed>16.0</speed>
<course>334.6</course>
<desc>Speed 16.0 km/h Distance 14.08 km</desc>
<time>2011-09-24T10:37:33.13</time>
<name>3711</name>
</trkpt>
<trkpt lat="41.807248" lon="-1.800170">
<ele>1099.5</ele>
<speed>15.2</speed>
<course>335.9</course>
<desc>Speed 15.2 km/h Distance 14.08 km</desc>
<time>2011-09-24T10:37:34.13</time>
<name>3712</name>
</trkpt>
<trkpt lat="41.807282" lon="-1.800190">
<ele>1100.0</ele>
<speed>14.3</speed>
<course>335.2</course>
<desc>Speed 14.3 km/h Distance 14.09 km</desc>
<time>2011-09-24T10:37:35.13</time>
<name>3713</name>
</trkpt>
<trkpt lat="41.807317" lon="-1.800212">
<ele>1100.0</ele>
<speed>14.8</speed>
<course>335.9</course>
<desc>Speed 14.8 km/h Distance 14.09 km</desc>
<time>2011-09-24T10:37:36.13</time>
<name>3714</name>
</trkpt>
<trkpt lat="41.807350" lon="-1.800232">
<ele>1100.0</ele>
<speed>14.1</speed>
<course>337.7</course>
<desc>Speed 14.1 km/h Distance 14.10 km</desc>
<time>2011-09-24T10:37:37.12</time>
<name>3715</name>
</trkpt>
<trkpt lat="41.807383" lon="-1.800250">
<ele>1100.5</ele>
<speed>14.1</speed>
<course>340.5</course>
<desc>Speed 14.1 km/h Distance 14.10 km</desc>
<time>2011-09-24T10:37:38.13</time>
<name>3716</name>
</trkpt>
<trkpt lat="41.807418" lon="-1.800267">
<ele>1100.0</ele>
<speed>13.7</speed>
<course>340.5</course>
<desc>Speed 13.7 km/h Distance 14.11 km</desc>
<time>2011-09-24T10:37:39.12</time>
<name>3717</name>
</trkpt>
<trkpt lat="41.807453" lon="-1.800283">
<ele>1100.0</ele>
<speed>13.7</speed>
<course>343.3</course>
<desc>Speed 13.7 km/h Distance 14.11 km</desc>
<time>2011-09-24T10:37:40.12</time>
<name>3718</name>
</trkpt>
<trkpt lat="41.807487" lon="-1.800297">
<ele>1100.5</ele>
<speed>13.0</speed>
<course>341.4</course>
<desc>Speed 13.0 km/h Distance 14.11 km</desc>
<time>2011-09-24T10:37:41.12</time>
<name>3719</name>
</trkpt>
<trkpt lat="41.807520" lon="-1.800312">
<ele>1100.5</ele>
<speed>13.2</speed>
<course>340.5</course>
<desc>Speed 13.2 km/h Distance 14.12 km</desc>
<time>2011-09-24T10:37:42.13</time>
<name>3720</name>
</trkpt>
<trkpt lat="41.807552" lon="-1.800327">
<ele>1100.5</ele>
<speed>13.1</speed>
<course>339.6</course>
<desc>Speed 13.1 km/h Distance 14.12 km</desc>
<time>2011-09-24T10:37:43.12</time>
<name>3721</name>
</trkpt>
<trkpt lat="41.807585" lon="-1.800343">
<ele>1100.0</ele>
<speed>13.8</speed>
<course>343.0</course>
<desc>Speed 13.8 km/h Distance 14.12 km</desc>
<time>2011-09-24T10:37:44.12</time>
<name>3722</name>
</trkpt>
<trkpt lat="41.807622" lon="-1.800358">
<ele>1100.0</ele>
<speed>14.4</speed>
<course>338.6</course>
<desc>Speed 14.4 km/h Distance 14.13 km</desc>
<time>2011-09-24T10:37:45.12</time>
<name>3723</name>
</trkpt>
<trkpt lat="41.807657" lon="-1.800377">
<ele>1100.0</ele>
<speed>14.9</speed>
<course>340.5</course>
<desc>Speed 14.9 km/h Distance 14.13 km</desc>
<time>2011-09-24T10:37:46.12</time>
<name>3724</name>
</trkpt>
<trkpt lat="41.807692" lon="-1.800393">
<ele>1100.0</ele>
<speed>14.3</speed>
<course>338.6</course>
<desc>Speed 14.3 km/h Distance 14.14 km</desc>
<time>2011-09-24T10:37:47.12</time>
<name>3725</name>
</trkpt>
<trkpt lat="41.807723" lon="-1.800410">
<ele>1100.5</ele>
<speed>13.7</speed>
<course>338.6</course>
<desc>Speed 13.7 km/h Distance 14.14 km</desc>
<time>2011-09-24T10:37:48.12</time>
<name>3726</name>
</trkpt>
<trkpt lat="41.807755" lon="-1.800427">
<ele>1100.5</ele>
<speed>12.5</speed>
<course>332.9</course>
<desc>Speed 12.5 km/h Distance 14.15 km</desc>
<time>2011-09-24T10:37:49.12</time>
<name>3727</name>
</trkpt>
<trkpt lat="41.807782" lon="-1.800445">
<ele>1100.5</ele>
<speed>11.7</speed>
<course>336.7</course>
<desc>Speed 11.7 km/h Distance 14.15 km</desc>
<time>2011-09-24T10:37:50.12</time>
<name>3728</name>
</trkpt>
<trkpt lat="41.807813" lon="-1.800463">
<ele>1100.5</ele>
<speed>13.2</speed>
<course>343.0</course>
<desc>Speed 13.2 km/h Distance 14.15 km</desc>
<time>2011-09-24T10:37:51.12</time>
<name>3729</name>
</trkpt>
<trkpt lat="41.807850" lon="-1.800478">
<ele>1100.5</ele>
<speed>14.2</speed>
<course>342.0</course>
<desc>Speed 14.2 km/h Distance 14.16 km</desc>
<time>2011-09-24T10:37:52.11</time>
<name>3730</name>
</trkpt>
<trkpt lat="41.807888" lon="-1.800495">
<ele>1101.0</ele>
<speed>15.7</speed>
<course>337.9</course>
<desc>Speed 15.7 km/h Distance 14.16 km</desc>
<time>2011-09-24T10:37:53.14</time>
<name>3731</name>
</trkpt>
<trkpt lat="41.807925" lon="-1.800515">
<ele>1101.5</ele>
<speed>15.2</speed>
<course>336.2</course>
<desc>Speed 15.2 km/h Distance 14.17 km</desc>
<time>2011-09-24T10:37:54.11</time>
<name>3732</name>
</trkpt>
<trkpt lat="41.807962" lon="-1.800537">
<ele>1101.5</ele>
<speed>15.2</speed>
<course>327.6</course>
<desc>Speed 15.2 km/h Distance 14.17 km</desc>
<time>2011-09-24T10:37:55.11</time>
<name>3733</name>
</trkpt>
<trkpt lat="41.807995" lon="-1.800565">
<ele>1101.0</ele>
<speed>15.8</speed>
<course>324.6</course>
<desc>Speed 15.8 km/h Distance 14.17 km</desc>
<time>2011-09-24T10:37:56.11</time>
<name>3734</name>
</trkpt>
<trkpt lat="41.808030" lon="-1.800598">
<ele>1101.0</ele>
<speed>15.5</speed>
<course>319.2</course>
<desc>Speed 15.5 km/h Distance 14.18 km</desc>
<time>2011-09-24T10:37:57.11</time>
<name>3735</name>
</trkpt>
<trkpt lat="41.808062" lon="-1.800635">
<ele>1101.0</ele>
<speed>15.1</speed>
<course>310.0</course>
<desc>Speed 15.1 km/h Distance 14.18 km</desc>
<time>2011-09-24T10:37:58.11</time>
<name>3736</name>
</trkpt>
<trkpt lat="41.808087" lon="-1.800675">
<ele>1101.0</ele>
<speed>14.9</speed>
<course>298.7</course>
<desc>Speed 14.9 km/h Distance 14.19 km</desc>
<time>2011-09-24T10:37:59.11</time>
<name>3737</name>
</trkpt>
<trkpt lat="41.808105" lon="-1.800720">
<ele>1100.5</ele>
<speed>14.8</speed>
<course>291.0</course>
<desc>Speed 14.8 km/h Distance 14.19 km</desc>
<time>2011-09-24T10:38:00.11</time>
<name>3738</name>
</trkpt>
<trkpt lat="41.808118" lon="-1.800767">
<ele>1101.0</ele>
<speed>14.4</speed>
<course>283.5</course>
<desc>Speed 14.4 km/h Distance 14.20 km</desc>
<time>2011-09-24T10:38:01.11</time>
<name>3739</name>
</trkpt>
<trkpt lat="41.808127" lon="-1.800813">
<ele>1100.5</ele>
<speed>14.0</speed>
<course>275.5</course>
<desc>Speed 14.0 km/h Distance 14.20 km</desc>
<time>2011-09-24T10:38:02.11</time>
<name>3740</name>
</trkpt>
<trkpt lat="41.808130" lon="-1.800860">
<ele>1100.5</ele>
<speed>14.1</speed>
<course>278.2</course>
<desc>Speed 14.1 km/h Distance 14.20 km</desc>
<time>2011-09-24T10:38:03.11</time>
<name>3741</name>
</trkpt>
<trkpt lat="41.808135" lon="-1.800907">
<ele>1100.5</ele>
<speed>14.0</speed>
<course>278.2</course>
<desc>Speed 14.0 km/h Distance 14.21 km</desc>
<time>2011-09-24T10:38:04.11</time>
<name>3742</name>
</trkpt>
<trkpt lat="41.808140" lon="-1.800953">
<ele>1100.5</ele>
<speed>13.9</speed>
<course>272.7</course>
<desc>Speed 13.9 km/h Distance 14.21 km</desc>
<time>2011-09-24T10:38:05.11</time>
<name>3743</name>
</trkpt>
<trkpt lat="41.808142" lon="-1.801000">
<ele>1100.5</ele>
<speed>13.8</speed>
<course>272.8</course>
<desc>Speed 13.8 km/h Distance 14.22 km</desc>
<time>2011-09-24T10:38:06.11</time>
<name>3744</name>
</trkpt>
<trkpt lat="41.808143" lon="-1.801045">
<ele>1100.5</ele>
<speed>13.8</speed>
<course>278.2</course>
<desc>Speed 13.8 km/h Distance 14.22 km</desc>
<time>2011-09-24T10:38:07.10</time>
<name>3745</name>
</trkpt>
<trkpt lat="41.808148" lon="-1.801092">
<ele>1100.5</ele>
<speed>14.1</speed>
<course>270.0</course>
<desc>Speed 14.1 km/h Distance 14.22 km</desc>
<time>2011-09-24T10:38:08.11</time>
<name>3746</name>
</trkpt>
<trkpt lat="41.808148" lon="-1.801137">
<ele>1101.0</ele>
<speed>13.4</speed>
<course>267.2</course>
<desc>Speed 13.4 km/h Distance 14.23 km</desc>
<time>2011-09-24T10:38:09.10</time>
<name>3747</name>
</trkpt>
<trkpt lat="41.808147" lon="-1.801182">
<ele>1101.0</ele>
<speed>13.6</speed>
<course>267.3</course>
<desc>Speed 13.6 km/h Distance 14.23 km</desc>
<time>2011-09-24T10:38:10.10</time>
<name>3748</name>
</trkpt>
<trkpt lat="41.808145" lon="-1.801228">
<ele>1101.5</ele>
<speed>14.0</speed>
<course>272.6</course>
<desc>Speed 14.0 km/h Distance 14.24 km</desc>
<time>2011-09-24T10:38:11.10</time>
<name>3749</name>
</trkpt>
<trkpt lat="41.808147" lon="-1.801277">
<ele>1101.0</ele>
<speed>14.4</speed>
<course>275.1</course>
<desc>Speed 14.4 km/h Distance 14.24 km</desc>
<time>2011-09-24T10:38:12.10</time>
<name>3750</name>
</trkpt>
<trkpt lat="41.808150" lon="-1.801327">
<ele>1101.0</ele>
<speed>14.6</speed>
<course>274.9</course>
<desc>Speed 14.6 km/h Distance 14.24 km</desc>
<time>2011-09-24T10:38:13.11</time>
<name>3751</name>
</trkpt>
<trkpt lat="41.808153" lon="-1.801378">
<ele>1101.0</ele>
<speed>15.2</speed>
<course>274.9</course>
<desc>Speed 15.2 km/h Distance 14.25 km</desc>
<time>2011-09-24T10:38:14.10</time>
<name>3752</name>
</trkpt>
<trkpt lat="41.808157" lon="-1.801430">
<ele>1101.0</ele>
<speed>15.5</speed>
<course>277.6</course>
<desc>Speed 15.5 km/h Distance 14.25 km</desc>
<time>2011-09-24T10:38:15.10</time>
<name>3753</name>
</trkpt>
<trkpt lat="41.808162" lon="-1.801480">
<ele>1101.0</ele>
<speed>15.4</speed>
<course>282.2</course>
<desc>Speed 15.4 km/h Distance 14.26 km</desc>
<time>2011-09-24T10:38:16.10</time>
<name>3754</name>
</trkpt>
<trkpt lat="41.808170" lon="-1.801532">
<ele>1101.0</ele>
<speed>15.7</speed>
<course>287.4</course>
<desc>Speed 15.7 km/h Distance 14.26 km</desc>
<time>2011-09-24T10:38:17.11</time>
<name>3755</name>
</trkpt>
<trkpt lat="41.808182" lon="-1.801582">
<ele>1101.5</ele>
<speed>15.2</speed>
<course>294.8</course>
<desc>Speed 15.2 km/h Distance 14.26 km</desc>
<time>2011-09-24T10:38:18.11</time>
<name>3756</name>
</trkpt>
<trkpt lat="41.808198" lon="-1.801630">
<ele>1101.5</ele>
<speed>15.8</speed>
<course>303.8</course>
<desc>Speed 15.8 km/h Distance 14.27 km</desc>
<time>2011-09-24T10:38:19.10</time>
<name>3757</name>
</trkpt>
<trkpt lat="41.808220" lon="-1.801673">
<ele>1101.5</ele>
<speed>15.6</speed>
<course>316.4</course>
<desc>Speed 15.6 km/h Distance 14.27 km</desc>
<time>2011-09-24T10:38:20.10</time>
<name>3758</name>
</trkpt>
<trkpt lat="41.808250" lon="-1.801712">
<ele>1101.5</ele>
<speed>16.6</speed>
<course>327.2</course>
<desc>Speed 16.6 km/h Distance 14.28 km</desc>
<time>2011-09-24T10:38:21.10</time>
<name>3759</name>
</trkpt>
<trkpt lat="41.808287" lon="-1.801743">
<ele>1101.5</ele>
<speed>17.0</speed>
<course>336.5</course>
<desc>Speed 17.0 km/h Distance 14.28 km</desc>
<time>2011-09-24T10:38:22.09</time>
<name>3760</name>
</trkpt>
<trkpt lat="41.808327" lon="-1.801767">
<ele>1101.5</ele>
<speed>17.5</speed>
<course>339.6</course>
<desc>Speed 17.5 km/h Distance 14.29 km</desc>
<time>2011-09-24T10:38:23.09</time>
<name>3761</name>
</trkpt>
<trkpt lat="41.808370" lon="-1.801788">
<ele>1101.0</ele>
<speed>17.9</speed>
<course>345.5</course>
<desc>Speed 17.9 km/h Distance 14.29 km</desc>
<time>2011-09-24T10:38:24.09</time>
<name>3762</name>
</trkpt>
<trkpt lat="41.808413" lon="-1.801803">
<ele>1101.5</ele>
<speed>17.5</speed>
<course>347.5</course>
<desc>Speed 17.5 km/h Distance 14.30 km</desc>
<time>2011-09-24T10:38:25.09</time>
<name>3763</name>
</trkpt>
<trkpt lat="41.808458" lon="-1.801817">
<ele>1101.5</ele>
<speed>17.5</speed>
<course>351.2</course>
<desc>Speed 17.5 km/h Distance 14.30 km</desc>
<time>2011-09-24T10:38:26.09</time>
<name>3764</name>
</trkpt>
<trkpt lat="41.808498" lon="-1.801825">
<ele>1101.5</ele>
<speed>16.2</speed>
<course>350.9</course>
<desc>Speed 16.2 km/h Distance 14.31 km</desc>
<time>2011-09-24T10:38:27.09</time>
<name>3765</name>
</trkpt>
<trkpt lat="41.808537" lon="-1.801833">
<ele>1102.0</ele>
<speed>14.8</speed>
<course>355.8</course>
<desc>Speed 14.8 km/h Distance 14.31 km</desc>
<time>2011-09-24T10:38:28.09</time>
<name>3766</name>
</trkpt>
<trkpt lat="41.808585" lon="-1.801838">
<ele>1102.0</ele>
<speed>18.9</speed>
<course>352.1</course>
<desc>Speed 18.9 km/h Distance 14.32 km</desc>
<time>2011-09-24T10:38:29.09</time>
<name>3767</name>
</trkpt>
<trkpt lat="41.808630" lon="-1.801847">
<ele>1103.0</ele>
<speed>17.8</speed>
<course>352.2</course>
<desc>Speed 17.8 km/h Distance 14.32 km</desc>
<time>2011-09-24T10:38:30.09</time>
<name>3768</name>
</trkpt>
<trkpt lat="41.808675" lon="-1.801855">
<ele>1103.0</ele>
<speed>17.9</speed>
<course>350.3</course>
<desc>Speed 17.9 km/h Distance 14.33 km</desc>
<time>2011-09-24T10:38:31.09</time>
<name>3769</name>
</trkpt>
<trkpt lat="41.808718" lon="-1.801865">
<ele>1103.0</ele>
<speed>17.6</speed>
<course>348.6</course>
<desc>Speed 17.6 km/h Distance 14.33 km</desc>
<time>2011-09-24T10:38:32.09</time>
<name>3770</name>
</trkpt>
<trkpt lat="41.808762" lon="-1.801877">
<ele>1103.0</ele>
<speed>17.5</speed>
<course>345.5</course>
<desc>Speed 17.5 km/h Distance 14.34 km</desc>
<time>2011-09-24T10:38:33.08</time>
<name>3771</name>
</trkpt>
<trkpt lat="41.808805" lon="-1.801892">
<ele>1103.5</ele>
<speed>17.4</speed>
<course>340.3</course>
<desc>Speed 17.4 km/h Distance 14.34 km</desc>
<time>2011-09-24T10:38:34.08</time>
<name>3772</name>
</trkpt>
<trkpt lat="41.808847" lon="-1.801912">
<ele>1103.5</ele>
<speed>16.8</speed>
<course>331.5</course>
<desc>Speed 16.8 km/h Distance 14.35 km</desc>
<time>2011-09-24T10:38:35.08</time>
<name>3773</name>
</trkpt>
<trkpt lat="41.808883" lon="-1.801938">
<ele>1104.0</ele>
<speed>16.2</speed>
<course>335.4</course>
<desc>Speed 16.2 km/h Distance 14.35 km</desc>
<time>2011-09-24T10:38:36.08</time>
<name>3774</name>
</trkpt>
<trkpt lat="41.808927" lon="-1.801965">
<ele>1103.5</ele>
<speed>15.9</speed>
<course>327.6</course>
<desc>Speed 15.9 km/h Distance 14.36 km</desc>
<time>2011-09-24T10:38:37.08</time>
<name>3775</name>
</trkpt>
<trkpt lat="41.808960" lon="-1.801993">
<ele>1104.0</ele>
<speed>15.8</speed>
<course>320.5</course>
<desc>Speed 15.8 km/h Distance 14.36 km</desc>
<time>2011-09-24T10:38:38.08</time>
<name>3776</name>
</trkpt>
<trkpt lat="41.808992" lon="-1.802028">
<ele>1104.0</ele>
<speed>16.1</speed>
<course>320.8</course>
<desc>Speed 16.1 km/h Distance 14.37 km</desc>
<time>2011-09-24T10:38:39.08</time>
<name>3777</name>
</trkpt>
<trkpt lat="41.809027" lon="-1.802067">
<ele>1104.0</ele>
<speed>16.5</speed>
<course>317.0</course>
<desc>Speed 16.5 km/h Distance 14.37 km</desc>
<time>2011-09-24T10:38:40.08</time>
<name>3778</name>
</trkpt>
<trkpt lat="41.809060" lon="-1.802108">
<ele>1104.0</ele>
<speed>16.5</speed>
<course>315.6</course>
<desc>Speed 16.5 km/h Distance 14.38 km</desc>
<time>2011-09-24T10:38:41.08</time>
<name>3779</name>
</trkpt>
<trkpt lat="41.809092" lon="-1.802150">
<ele>1104.0</ele>
<speed>16.5</speed>
<course>306.7</course>
<desc>Speed 16.5 km/h Distance 14.38 km</desc>
<time>2011-09-24T10:38:42.14</time>
<name>3780</name>
</trkpt>
<trkpt lat="41.809117" lon="-1.802195">
<ele>1104.5</ele>
<speed>16.0</speed>
<course>301.9</course>
<desc>Speed 16.0 km/h Distance 14.39 km</desc>
<time>2011-09-24T10:38:43.08</time>
<name>3781</name>
</trkpt>
<trkpt lat="41.809138" lon="-1.802242">
<ele>1104.5</ele>
<speed>15.6</speed>
<course>295.6</course>
<desc>Speed 15.6 km/h Distance 14.39 km</desc>
<time>2011-09-24T10:38:44.08</time>
<name>3782</name>
</trkpt>
<trkpt lat="41.809155" lon="-1.802288">
<ele>1104.5</ele>
<speed>15.4</speed>
<course>294.1</course>
<desc>Speed 15.4 km/h Distance 14.39 km</desc>
<time>2011-09-24T10:38:45.08</time>
<name>3783</name>
</trkpt>
<trkpt lat="41.809172" lon="-1.802338">
<ele>1104.5</ele>
<speed>15.7</speed>
<course>299.0</course>
<desc>Speed 15.7 km/h Distance 14.40 km</desc>
<time>2011-09-24T10:38:46.08</time>
<name>3784</name>
</trkpt>
<trkpt lat="41.809192" lon="-1.802387">
<ele>1105.0</ele>
<speed>16.2</speed>
<course>281.8</course>
<desc>Speed 16.2 km/h Distance 14.40 km</desc>
<time>2011-09-24T10:38:47.08</time>
<name>3785</name>
</trkpt>
<trkpt lat="41.809200" lon="-1.802440">
<ele>1105.5</ele>
<speed>16.3</speed>
<course>286.9</course>
<desc>Speed 16.3 km/h Distance 14.41 km</desc>
<time>2011-09-24T10:38:48.08</time>
<name>3786</name>
</trkpt>
<trkpt lat="41.809212" lon="-1.802492">
<ele>1106.0</ele>
<speed>16.0</speed>
<course>291.9</course>
<desc>Speed 16.0 km/h Distance 14.41 km</desc>
<time>2011-09-24T10:38:49.08</time>
<name>3787</name>
</trkpt>
<trkpt lat="41.809227" lon="-1.802542">
<ele>1106.0</ele>
<speed>15.5</speed>
<course>290.3</course>
<desc>Speed 15.5 km/h Distance 14.42 km</desc>
<time>2011-09-24T10:38:50.08</time>
<name>3788</name>
</trkpt>
<trkpt lat="41.809240" lon="-1.802590">
<ele>1106.0</ele>
<speed>15.4</speed>
<course>297.3</course>
<desc>Speed 15.4 km/h Distance 14.42 km</desc>
<time>2011-09-24T10:38:51.07</time>
<name>3789</name>
</trkpt>
<trkpt lat="41.809257" lon="-1.802633">
<ele>1105.5</ele>
<speed>14.5</speed>
<course>292.4</course>
<desc>Speed 14.5 km/h Distance 14.43 km</desc>
<time>2011-09-24T10:38:52.07</time>
<name>3790</name>
</trkpt>
<trkpt lat="41.809270" lon="-1.802677">
<ele>1105.5</ele>
<speed>13.7</speed>
<course>292.4</course>
<desc>Speed 13.7 km/h Distance 14.43 km</desc>
<time>2011-09-24T10:38:53.07</time>
<name>3791</name>
</trkpt>
<trkpt lat="41.809283" lon="-1.802720">
<ele>1105.5</ele>
<speed>13.8</speed>
<course>287.2</course>
<desc>Speed 13.8 km/h Distance 14.43 km</desc>
<time>2011-09-24T10:38:54.07</time>
<name>3792</name>
</trkpt>
<trkpt lat="41.809293" lon="-1.802763">
<ele>1105.5</ele>
<speed>13.3</speed>
<course>285.0</course>
<desc>Speed 13.3 km/h Distance 14.44 km</desc>
<time>2011-09-24T10:38:55.07</time>
<name>3793</name>
</trkpt>
<trkpt lat="41.809302" lon="-1.802805">
<ele>1106.0</ele>
<speed>12.5</speed>
<course>286.3</course>
<desc>Speed 12.5 km/h Distance 14.44 km</desc>
<time>2011-09-24T10:38:56.07</time>
<name>3794</name>
</trkpt>
<trkpt lat="41.809310" lon="-1.802843">
<ele>1106.0</ele>
<speed>11.9</speed>
<course>290.1</course>
<desc>Speed 11.9 km/h Distance 14.44 km</desc>
<time>2011-09-24T10:38:57.07</time>
<name>3795</name>
</trkpt>
<trkpt lat="41.809320" lon="-1.802880">
<ele>1106.0</ele>
<speed>11.0</speed>
<course>295.1</course>
<desc>Speed 11.0 km/h Distance 14.45 km</desc>
<time>2011-09-24T10:38:58.07</time>
<name>3796</name>
</trkpt>
<trkpt lat="41.809332" lon="-1.802913">
<ele>1106.0</ele>
<speed>10.9</speed>
<course>290.1</course>
<desc>Speed 10.9 km/h Distance 14.45 km</desc>
<time>2011-09-24T10:38:59.07</time>
<name>3797</name>
</trkpt>
<trkpt lat="41.809342" lon="-1.802950">
<ele>1106.0</ele>
<speed>11.3</speed>
<course>292.2</course>
<desc>Speed 11.3 km/h Distance 14.45 km</desc>
<time>2011-09-24T10:39:00.07</time>
<name>3798</name>
</trkpt>
<trkpt lat="41.809353" lon="-1.802988">
<ele>1106.0</ele>
<speed>11.7</speed>
<course>288.5</course>
<desc>Speed 11.7 km/h Distance 14.46 km</desc>
<time>2011-09-24T10:39:01.07</time>
<name>3799</name>
</trkpt>
<trkpt lat="41.809363" lon="-1.803028">
<ele>1106.0</ele>
<speed>12.1</speed>
<course>294.1</course>
<desc>Speed 12.1 km/h Distance 14.46 km</desc>
<time>2011-09-24T10:39:02.07</time>
<name>3800</name>
</trkpt>
<trkpt lat="41.809377" lon="-1.803068">
<ele>1106.0</ele>
<speed>12.2</speed>
<course>286.3</course>
<desc>Speed 12.2 km/h Distance 14.46 km</desc>
<time>2011-09-24T10:39:03.07</time>
<name>3801</name>
</trkpt>
<trkpt lat="41.809385" lon="-1.803107">
<ele>1106.0</ele>
<speed>12.1</speed>
<course>287.9</course>
<desc>Speed 12.1 km/h Distance 14.47 km</desc>
<time>2011-09-24T10:39:04.06</time>
<name>3802</name>
</trkpt>
<trkpt lat="41.809395" lon="-1.803148">
<ele>1106.5</ele>
<speed>12.2</speed>
<course>289.3</course>
<desc>Speed 12.2 km/h Distance 14.47 km</desc>
<time>2011-09-24T10:39:05.06</time>
<name>3803</name>
</trkpt>
<trkpt lat="41.809405" lon="-1.803187">
<ele>1106.5</ele>
<speed>11.8</speed>
<course>289.3</course>
<desc>Speed 11.8 km/h Distance 14.47 km</desc>
<time>2011-09-24T10:39:06.06</time>
<name>3804</name>
</trkpt>
<trkpt lat="41.809415" lon="-1.803225">
<ele>1106.5</ele>
<speed>11.3</speed>
<course>287.0</course>
<desc>Speed 11.3 km/h Distance 14.48 km</desc>
<time>2011-09-24T10:39:07.06</time>
<name>3805</name>
</trkpt>
<trkpt lat="41.809423" lon="-1.803262">
<ele>1106.5</ele>
<speed>11.6</speed>
<course>288.5</course>
<desc>Speed 11.6 km/h Distance 14.48 km</desc>
<time>2011-09-24T10:39:08.06</time>
<name>3806</name>
</trkpt>
<trkpt lat="41.809433" lon="-1.803302">
<ele>1106.5</ele>
<speed>12.4</speed>
<course>291.7</course>
<desc>Speed 12.4 km/h Distance 14.48 km</desc>
<time>2011-09-24T10:39:09.06</time>
<name>3807</name>
</trkpt>
<trkpt lat="41.809447" lon="-1.803347">
<ele>1106.5</ele>
<speed>14.0</speed>
<course>294.9</course>
<desc>Speed 14.0 km/h Distance 14.49 km</desc>
<time>2011-09-24T10:39:10.06</time>
<name>3808</name>
</trkpt>
<trkpt lat="41.809462" lon="-1.803390">
<ele>1107.0</ele>
<speed>14.0</speed>
<course>286.0</course>
<desc>Speed 14.0 km/h Distance 14.49 km</desc>
<time>2011-09-24T10:39:11.06</time>
<name>3809</name>
</trkpt>
<trkpt lat="41.809472" lon="-1.803437">
<ele>1107.0</ele>
<speed>14.1</speed>
<course>286.0</course>
<desc>Speed 14.1 km/h Distance 14.50 km</desc>
<time>2011-09-24T10:39:12.07</time>
<name>3810</name>
</trkpt>
<trkpt lat="41.809482" lon="-1.803483">
<ele>1107.0</ele>
<speed>14.2</speed>
<course>298.7</course>
<desc>Speed 14.2 km/h Distance 14.50 km</desc>
<time>2011-09-24T10:39:13.06</time>
<name>3811</name>
</trkpt>
<trkpt lat="41.809500" lon="-1.803528">
<ele>1107.5</ele>
<speed>14.5</speed>
<course>301.8</course>
<desc>Speed 14.5 km/h Distance 14.50 km</desc>
<time>2011-09-24T10:39:14.06</time>
<name>3812</name>
</trkpt>
<trkpt lat="41.809520" lon="-1.803572">
<ele>1107.5</ele>
<speed>14.2</speed>
<course>292.4</course>
<desc>Speed 14.2 km/h Distance 14.51 km</desc>
<time>2011-09-24T10:39:15.06</time>
<name>3813</name>
</trkpt>
<trkpt lat="41.809533" lon="-1.803615">
<ele>1107.5</ele>
<speed>13.8</speed>
<course>292.4</course>
<desc>Speed 13.8 km/h Distance 14.51 km</desc>
<time>2011-09-24T10:39:16.05</time>
<name>3814</name>
</trkpt>
<trkpt lat="41.809547" lon="-1.803658">
<ele>1107.5</ele>
<speed>13.6</speed>
<course>281.7</course>
<desc>Speed 13.6 km/h Distance 14.52 km</desc>
<time>2011-09-24T10:39:17.05</time>
<name>3815</name>
</trkpt>
<trkpt lat="41.809553" lon="-1.803702">
<ele>1108.0</ele>
<speed>13.1</speed>
<course>285.6</course>
<desc>Speed 13.1 km/h Distance 14.52 km</desc>
<time>2011-09-24T10:39:18.05</time>
<name>3816</name>
</trkpt>
<trkpt lat="41.809562" lon="-1.803742">
<ele>1108.0</ele>
<speed>12.0</speed>
<course>289.3</course>
<desc>Speed 12.0 km/h Distance 14.52 km</desc>
<time>2011-09-24T10:39:19.05</time>
<name>3817</name>
</trkpt>
<trkpt lat="41.809572" lon="-1.803780">
<ele>1108.5</ele>
<speed>11.8</speed>
<course>287.0</course>
<desc>Speed 11.8 km/h Distance 14.53 km</desc>
<time>2011-09-24T10:39:20.05</time>
<name>3818</name>
</trkpt>
<trkpt lat="41.809580" lon="-1.803817">
<ele>1108.5</ele>
<speed>11.4</speed>
<course>286.3</course>
<desc>Speed 11.4 km/h Distance 14.53 km</desc>
<time>2011-09-24T10:39:21.05</time>
<name>3819</name>
</trkpt>
<trkpt lat="41.809588" lon="-1.803855">
<ele>1108.5</ele>
<speed>11.4</speed>
<course>289.3</course>
<desc>Speed 11.4 km/h Distance 14.53 km</desc>
<time>2011-09-24T10:39:22.05</time>
<name>3820</name>
</trkpt>
<trkpt lat="41.809598" lon="-1.803893">
<ele>1108.5</ele>
<speed>11.8</speed>
<course>294.1</course>
<desc>Speed 11.8 km/h Distance 14.54 km</desc>
<time>2011-09-24T10:39:23.05</time>
<name>3821</name>
</trkpt>
<trkpt lat="41.809612" lon="-1.803933">
<ele>1108.5</ele>
<speed>12.5</speed>
<course>291.4</course>
<desc>Speed 12.5 km/h Distance 14.54 km</desc>
<time>2011-09-24T10:39:24.05</time>
<name>3822</name>
</trkpt>
<trkpt lat="41.809623" lon="-1.803973">
<ele>1108.0</ele>
<speed>12.1</speed>
<course>297.7</course>
<desc>Speed 12.1 km/h Distance 14.54 km</desc>
<time>2011-09-24T10:39:27.09</time>
<name>3823</name>
</trkpt>
<trkpt lat="41.809638" lon="-1.804012">
<ele>1108.0</ele>
<speed>12.5</speed>
<course>296.7</course>
<desc>Speed 12.5 km/h Distance 14.55 km</desc>
<time>2011-09-24T10:39:28.05</time>
<name>3824</name>
</trkpt>
<trkpt lat="41.809653" lon="-1.804052">
<ele>1107.5</ele>
<speed>12.6</speed>
<course>293.2</course>
<desc>Speed 12.6 km/h Distance 14.55 km</desc>
<time>2011-09-24T10:39:29.04</time>
<name>3825</name>
</trkpt>
<trkpt lat="41.809667" lon="-1.804093">
<ele>1107.5</ele>
<speed>13.1</speed>
<course>278.2</course>
<desc>Speed 13.1 km/h Distance 14.56 km</desc>
<time>2011-09-24T10:39:30.05</time>
<name>3826</name>
</trkpt>
<trkpt lat="41.809672" lon="-1.804140">
<ele>1108.0</ele>
<speed>13.7</speed>
<course>285.5</course>
<desc>Speed 13.7 km/h Distance 14.56 km</desc>
<time>2011-09-24T10:39:31.04</time>
<name>3827</name>
</trkpt>
<trkpt lat="41.809682" lon="-1.804188">
<ele>1108.5</ele>
<speed>14.8</speed>
<course>289.2</course>
<desc>Speed 14.8 km/h Distance 14.56 km</desc>
<time>2011-09-24T10:39:32.04</time>
<name>3828</name>
</trkpt>
<trkpt lat="41.809693" lon="-1.804233">
<ele>1108.5</ele>
<speed>14.3</speed>
<course>294.1</course>
<desc>Speed 14.3 km/h Distance 14.57 km</desc>
<time>2011-09-24T10:39:33.05</time>
<name>3829</name>
</trkpt>
<trkpt lat="41.809707" lon="-1.804273">
<ele>1108.5</ele>
<speed>12.8</speed>
<course>293.2</course>
<desc>Speed 12.8 km/h Distance 14.57 km</desc>
<time>2011-09-24T10:39:34.05</time>
<name>3830</name>
</trkpt>
<trkpt lat="41.809720" lon="-1.804315">
<ele>1108.5</ele>
<speed>13.5</speed>
<course>291.4</course>
<desc>Speed 13.5 km/h Distance 14.57 km</desc>
<time>2011-09-24T10:39:35.04</time>
<name>3831</name>
</trkpt>
<trkpt lat="41.809732" lon="-1.804355">
<ele>1108.5</ele>
<speed>12.3</speed>
<course>291.4</course>
<desc>Speed 12.3 km/h Distance 14.58 km</desc>
<time>2011-09-24T10:39:36.04</time>
<name>3832</name>
</trkpt>
<trkpt lat="41.809743" lon="-1.804395">
<ele>1109.0</ele>
<speed>12.5</speed>
<course>285.6</course>
<desc>Speed 12.5 km/h Distance 14.58 km</desc>
<time>2011-09-24T10:39:37.04</time>
<name>3833</name>
</trkpt>
<trkpt lat="41.809752" lon="-1.804435">
<ele>1109.5</ele>
<speed>12.1</speed>
<course>285.6</course>
<desc>Speed 12.1 km/h Distance 14.59 km</desc>
<time>2011-09-24T10:39:38.03</time>
<name>3834</name>
</trkpt>
<trkpt lat="41.809760" lon="-1.804475">
<ele>1109.5</ele>
<speed>12.1</speed>
<course>288.5</course>
<desc>Speed 12.1 km/h Distance 14.59 km</desc>
<time>2011-09-24T10:39:39.03</time>
<name>3835</name>
</trkpt>
<trkpt lat="41.809770" lon="-1.804515">
<ele>1110.0</ele>
<speed>12.0</speed>
<course>285.6</course>
<desc>Speed 12.0 km/h Distance 14.59 km</desc>
<time>2011-09-24T10:39:40.03</time>
<name>3836</name>
</trkpt>
<trkpt lat="41.809778" lon="-1.804555">
<ele>1110.0</ele>
<speed>12.5</speed>
<course>291.4</course>
<desc>Speed 12.5 km/h Distance 14.60 km</desc>
<time>2011-09-24T10:39:41.03</time>
<name>3837</name>
</trkpt>
<trkpt lat="41.809790" lon="-1.804595">
<ele>1110.0</ele>
<speed>12.3</speed>
<course>285.6</course>
<desc>Speed 12.3 km/h Distance 14.60 km</desc>
<time>2011-09-24T10:39:42.03</time>
<name>3838</name>
</trkpt>
<trkpt lat="41.809798" lon="-1.804635">
<ele>1110.5</ele>
<speed>12.0</speed>
<course>291.4</course>
<desc>Speed 12.0 km/h Distance 14.60 km</desc>
<time>2011-09-24T10:39:43.03</time>
<name>3839</name>
</trkpt>
<trkpt lat="41.809810" lon="-1.804675">
<ele>1110.5</ele>
<speed>11.6</speed>
<course>276.4</course>
<desc>Speed 11.6 km/h Distance 14.61 km</desc>
<time>2011-09-24T10:39:44.03</time>
<name>3840</name>
</trkpt>
<trkpt lat="41.809813" lon="-1.804715">
<ele>1111.0</ele>
<speed>12.0</speed>
<course>285.0</course>
<desc>Speed 12.0 km/h Distance 14.61 km</desc>
<time>2011-09-24T10:39:45.03</time>
<name>3841</name>
</trkpt>
<trkpt lat="41.809822" lon="-1.804757">
<ele>1111.5</ele>
<speed>12.6</speed>
<course>289.9</course>
<desc>Speed 12.6 km/h Distance 14.61 km</desc>
<time>2011-09-24T10:39:46.03</time>
<name>3842</name>
</trkpt>
<trkpt lat="41.809833" lon="-1.804800">
<ele>1112.0</ele>
<speed>13.2</speed>
<course>287.9</course>
<desc>Speed 13.2 km/h Distance 14.62 km</desc>
<time>2011-09-24T10:39:47.03</time>
<name>3843</name>
</trkpt>
<trkpt lat="41.809843" lon="-1.804842">
<ele>1112.0</ele>
<speed>12.6</speed>
<course>281.2</course>
<desc>Speed 12.6 km/h Distance 14.62 km</desc>
<time>2011-09-24T10:39:48.03</time>
<name>3844</name>
</trkpt>
<trkpt lat="41.809850" lon="-1.804887">
<ele>1112.0</ele>
<speed>12.8</speed>
<course>282.1</course>
<desc>Speed 12.8 km/h Distance 14.62 km</desc>
<time>2011-09-24T10:39:49.03</time>
<name>3845</name>
</trkpt>
<trkpt lat="41.809857" lon="-1.804928">
<ele>1112.5</ele>
<speed>12.8</speed>
<course>287.2</course>
<desc>Speed 12.8 km/h Distance 14.63 km</desc>
<time>2011-09-24T10:39:50.03</time>
<name>3846</name>
</trkpt>
<trkpt lat="41.809867" lon="-1.804972">
<ele>1112.5</ele>
<speed>13.0</speed>
<course>289.2</course>
<desc>Speed 13.0 km/h Distance 14.63 km</desc>
<time>2011-09-24T10:39:51.02</time>
<name>3847</name>
</trkpt>
<trkpt lat="41.809878" lon="-1.805017">
<ele>1113.0</ele>
<speed>13.6</speed>
<course>286.6</course>
<desc>Speed 13.6 km/h Distance 14.64 km</desc>
<time>2011-09-24T10:39:52.02</time>
<name>3848</name>
</trkpt>
<trkpt lat="41.809888" lon="-1.805062">
<ele>1112.5</ele>
<speed>13.7</speed>
<course>291.0</course>
<desc>Speed 13.7 km/h Distance 14.64 km</desc>
<time>2011-09-24T10:39:53.02</time>
<name>3849</name>
</trkpt>
<trkpt lat="41.809902" lon="-1.805108">
<ele>1112.5</ele>
<speed>13.9</speed>
<course>297.3</course>
<desc>Speed 13.9 km/h Distance 14.64 km</desc>
<time>2011-09-24T10:39:54.02</time>
<name>3850</name>
</trkpt>
<trkpt lat="41.809918" lon="-1.805152">
<ele>1113.0</ele>
<speed>13.8</speed>
<course>291.7</course>
<desc>Speed 13.8 km/h Distance 14.65 km</desc>
<time>2011-09-24T10:39:55.02</time>
<name>3851</name>
</trkpt>
<trkpt lat="41.809932" lon="-1.805197">
<ele>1113.0</ele>
<speed>14.4</speed>
<course>291.0</course>
<desc>Speed 14.4 km/h Distance 14.65 km</desc>
<time>2011-09-24T10:39:56.02</time>
<name>3852</name>
</trkpt>
<trkpt lat="41.809945" lon="-1.805243">
<ele>1113.0</ele>
<speed>14.2</speed>
<course>291.7</course>
<desc>Speed 14.2 km/h Distance 14.66 km</desc>
<time>2011-09-24T10:39:57.02</time>
<name>3853</name>
</trkpt>
<trkpt lat="41.809958" lon="-1.805288">
<ele>1113.0</ele>
<speed>13.7</speed>
<course>284.5</course>
<desc>Speed 13.7 km/h Distance 14.66 km</desc>
<time>2011-09-24T10:39:58.02</time>
<name>3854</name>
</trkpt>
<trkpt lat="41.809967" lon="-1.805332">
<ele>1113.5</ele>
<speed>12.6</speed>
<course>288.5</course>
<desc>Speed 12.6 km/h Distance 14.66 km</desc>
<time>2011-09-24T10:39:59.02</time>
<name>3855</name>
</trkpt>
<trkpt lat="41.809977" lon="-1.805372">
<ele>1113.5</ele>
<speed>12.2</speed>
<course>290.6</course>
<desc>Speed 12.2 km/h Distance 14.67 km</desc>
<time>2011-09-24T10:40:00.02</time>
<name>3856</name>
</trkpt>
<trkpt lat="41.809988" lon="-1.805413">
<ele>1113.5</ele>
<speed>12.9</speed>
<course>286.6</course>
<desc>Speed 12.9 km/h Distance 14.67 km</desc>
<time>2011-09-24T10:40:01.02</time>
<name>3857</name>
</trkpt>
<trkpt lat="41.809998" lon="-1.805458">
<ele>1113.5</ele>
<speed>13.9</speed>
<course>289.2</course>
<desc>Speed 13.9 km/h Distance 14.67 km</desc>
<time>2011-09-24T10:40:02.02</time>
<name>3858</name>
</trkpt>
<trkpt lat="41.810010" lon="-1.805503">
<ele>1114.0</ele>
<speed>13.8</speed>
<course>287.2</course>
<desc>Speed 13.8 km/h Distance 14.68 km</desc>
<time>2011-09-24T10:40:03.01</time>
<name>3859</name>
</trkpt>
<trkpt lat="41.810020" lon="-1.805547">
<ele>1114.0</ele>
<speed>13.3</speed>
<course>292.4</course>
<desc>Speed 13.3 km/h Distance 14.68 km</desc>
<time>2011-09-24T10:40:04.01</time>
<name>3860</name>
</trkpt>
<trkpt lat="41.810033" lon="-1.805590">
<ele>1114.0</ele>
<speed>13.5</speed>
<course>292.4</course>
<desc>Speed 13.5 km/h Distance 14.69 km</desc>
<time>2011-09-24T10:40:05.01</time>
<name>3861</name>
</trkpt>
<trkpt lat="41.810047" lon="-1.805633">
<ele>1114.5</ele>
<speed>13.4</speed>
<course>284.5</course>
<desc>Speed 13.4 km/h Distance 14.69 km</desc>
<time>2011-09-24T10:40:06.01</time>
<name>3862</name>
</trkpt>
<trkpt lat="41.810055" lon="-1.805677">
<ele>1114.5</ele>
<speed>13.3</speed>
<course>287.2</course>
<desc>Speed 13.3 km/h Distance 14.69 km</desc>
<time>2011-09-24T10:40:07.01</time>
<name>3863</name>
</trkpt>
<trkpt lat="41.810065" lon="-1.805720">
<ele>1114.5</ele>
<speed>13.2</speed>
<course>281.7</course>
<desc>Speed 13.2 km/h Distance 14.70 km</desc>
<time>2011-09-24T10:40:08.01</time>
<name>3864</name>
</trkpt>
<trkpt lat="41.810072" lon="-1.805763">
<ele>1115.0</ele>
<speed>13.1</speed>
<course>289.9</course>
<desc>Speed 13.1 km/h Distance 14.70 km</desc>
<time>2011-09-24T10:40:09.01</time>
<name>3865</name>
</trkpt>
<trkpt lat="41.810083" lon="-1.805807">
<ele>1115.5</ele>
<speed>13.4</speed>
<course>270.0</course>
<desc>Speed 13.4 km/h Distance 14.71 km</desc>
<time>2011-09-24T10:40:10.01</time>
<name>3866</name>
</trkpt>
<trkpt lat="41.810083" lon="-1.805847">
<ele>1115.5</ele>
<speed>11.8</speed>
<course>275.7</course>
<desc>Speed 11.8 km/h Distance 14.71 km</desc>
<time>2011-09-24T10:40:11.01</time>
<name>3867</name>
</trkpt>
<trkpt lat="41.810087" lon="-1.805892">
<ele>1116.0</ele>
<speed>13.1</speed>
<course>284.5</course>
<desc>Speed 13.1 km/h Distance 14.71 km</desc>
<time>2011-09-24T10:40:12.01</time>
<name>3868</name>
</trkpt>
<trkpt lat="41.810095" lon="-1.805935">
<ele>1116.0</ele>
<speed>13.2</speed>
<course>294.9</course>
<desc>Speed 13.2 km/h Distance 14.72 km</desc>
<time>2011-09-24T10:40:13.01</time>
<name>3869</name>
</trkpt>
<trkpt lat="41.810110" lon="-1.805978">
<ele>1115.5</ele>
<speed>13.7</speed>
<course>287.2</course>
<desc>Speed 13.7 km/h Distance 14.72 km</desc>
<time>2011-09-24T10:40:14.00</time>
<name>3870</name>
</trkpt>
<trkpt lat="41.810120" lon="-1.806022">
<ele>1115.5</ele>
<speed>13.6</speed>
<course>287.9</course>
<desc>Speed 13.6 km/h Distance 14.72 km</desc>
<time>2011-09-24T10:40:15.01</time>
<name>3871</name>
</trkpt>
<trkpt lat="41.810130" lon="-1.806063">
<ele>1115.5</ele>
<speed>12.8</speed>
<course>284.5</course>
<desc>Speed 12.8 km/h Distance 14.73 km</desc>
<time>2011-09-24T10:40:16.00</time>
<name>3872</name>
</trkpt>
<trkpt lat="41.810138" lon="-1.806107">
<ele>1116.0</ele>
<speed>12.9</speed>
<course>303.9</course>
<desc>Speed 12.9 km/h Distance 14.73 km</desc>
<time>2011-09-24T10:40:17.01</time>
<name>3873</name>
</trkpt>
<trkpt lat="41.810160" lon="-1.806150">
<ele>1116.0</ele>
<speed>13.5</speed>
<course>280.9</course>
<desc>Speed 13.5 km/h Distance 14.74 km</desc>
<time>2011-09-24T10:40:18.01</time>
<name>3874</name>
</trkpt>
<trkpt lat="41.810167" lon="-1.806197">
<ele>1116.5</ele>
<speed>13.3</speed>
<course>286.6</course>
<desc>Speed 13.3 km/h Distance 14.74 km</desc>
<time>2011-09-24T10:40:19.00</time>
<name>3875</name>
</trkpt>
<trkpt lat="41.810177" lon="-1.806242">
<ele>1116.5</ele>
<speed>13.6</speed>
<course>293.3</course>
<desc>Speed 13.6 km/h Distance 14.74 km</desc>
<time>2011-09-24T10:40:20.00</time>
<name>3876</name>
</trkpt>
<trkpt lat="41.810192" lon="-1.806288">
<ele>1116.0</ele>
<speed>13.9</speed>
<course>286.6</course>
<desc>Speed 13.9 km/h Distance 14.75 km</desc>
<time>2011-09-24T10:40:21.00</time>
<name>3877</name>
</trkpt>
<trkpt lat="41.810202" lon="-1.806333">
<ele>1116.5</ele>
<speed>13.4</speed>
<course>284.5</course>
<desc>Speed 13.4 km/h Distance 14.75 km</desc>
<time>2011-09-24T10:40:21.99</time>
<name>3878</name>
</trkpt>
<trkpt lat="41.810210" lon="-1.806377">
<ele>1116.5</ele>
<speed>13.2</speed>
<course>286.6</course>
<desc>Speed 13.2 km/h Distance 14.76 km</desc>
<time>2011-09-24T10:40:22.99</time>
<name>3879</name>
</trkpt>
<trkpt lat="41.810220" lon="-1.806422">
<ele>1117.0</ele>
<speed>13.2</speed>
<course>283.0</course>
<desc>Speed 13.2 km/h Distance 14.76 km</desc>
<time>2011-09-24T10:40:23.99</time>
<name>3880</name>
</trkpt>
<trkpt lat="41.810228" lon="-1.806470">
<ele>1117.5</ele>
<speed>13.7</speed>
<course>280.8</course>
<desc>Speed 13.7 km/h Distance 14.76 km</desc>
<time>2011-09-24T10:40:24.99</time>
<name>3881</name>
</trkpt>
<trkpt lat="41.810235" lon="-1.806517">
<ele>1118.0</ele>
<speed>13.9</speed>
<course>283.0</course>
<desc>Speed 13.9 km/h Distance 14.77 km</desc>
<time>2011-09-24T10:40:25.99</time>
<name>3882</name>
</trkpt>
<trkpt lat="41.810243" lon="-1.806565">
<ele>1118.5</ele>
<speed>13.7</speed>
<course>284.0</course>
<desc>Speed 13.7 km/h Distance 14.77 km</desc>
<time>2011-09-24T10:40:26.99</time>
<name>3883</name>
</trkpt>
<trkpt lat="41.810252" lon="-1.806610">
<ele>1119.0</ele>
<speed>13.4</speed>
<course>288.5</course>
<desc>Speed 13.4 km/h Distance 14.78 km</desc>
<time>2011-09-24T10:40:27.99</time>
<name>3884</name>
</trkpt>
<trkpt lat="41.810263" lon="-1.806657">
<ele>1119.0</ele>
<speed>13.8</speed>
<course>278.2</course>
<desc>Speed 13.8 km/h Distance 14.78 km</desc>
<time>2011-09-24T10:40:28.99</time>
<name>3885</name>
</trkpt>
<trkpt lat="41.810268" lon="-1.806703">
<ele>1119.5</ele>
<speed>13.6</speed>
<course>275.5</course>
<desc>Speed 13.6 km/h Distance 14.78 km</desc>
<time>2011-09-24T10:40:29.99</time>
<name>3886</name>
</trkpt>
<trkpt lat="41.810272" lon="-1.806750">
<ele>1120.0</ele>
<speed>13.4</speed>
<course>275.7</course>
<desc>Speed 13.4 km/h Distance 14.79 km</desc>
<time>2011-09-24T10:40:30.99</time>
<name>3887</name>
</trkpt>
<trkpt lat="41.810275" lon="-1.806795">
<ele>1120.0</ele>
<speed>13.4</speed>
<course>280.8</course>
<desc>Speed 13.4 km/h Distance 14.79 km</desc>
<time>2011-09-24T10:40:31.99</time>
<name>3888</name>
</trkpt>
<trkpt lat="41.810282" lon="-1.806842">
<ele>1120.0</ele>
<speed>13.5</speed>
<course>275.9</course>
<desc>Speed 13.5 km/h Distance 14.79 km</desc>
<time>2011-09-24T10:40:32.99</time>
<name>3889</name>
</trkpt>
<trkpt lat="41.810285" lon="-1.806885">
<ele>1120.5</ele>
<speed>12.5</speed>
<course>272.6</course>
<desc>Speed 12.5 km/h Distance 14.80 km</desc>
<time>2011-09-24T10:40:33.99</time>
<name>3890</name>
</trkpt>
<trkpt lat="41.810287" lon="-1.806933">
<ele>1121.0</ele>
<speed>13.7</speed>
<course>272.6</course>
<desc>Speed 13.7 km/h Distance 14.80 km</desc>
<time>2011-09-24T10:40:34.98</time>
<name>3891</name>
</trkpt>
<trkpt lat="41.810288" lon="-1.806982">
<ele>1121.5</ele>
<speed>14.3</speed>
<course>277.6</course>
<desc>Speed 14.3 km/h Distance 14.81 km</desc>
<time>2011-09-24T10:40:35.99</time>
<name>3892</name>
</trkpt>
<trkpt lat="41.810293" lon="-1.807032">
<ele>1121.5</ele>
<speed>14.1</speed>
<course>275.3</course>
<desc>Speed 14.1 km/h Distance 14.81 km</desc>
<time>2011-09-24T10:40:36.99</time>
<name>3893</name>
</trkpt>
<trkpt lat="41.810297" lon="-1.807080">
<ele>1121.5</ele>
<speed>13.8</speed>
<course>270.0</course>
<desc>Speed 13.8 km/h Distance 14.81 km</desc>
<time>2011-09-24T10:40:37.98</time>
<name>3894</name>
</trkpt>
<trkpt lat="41.810297" lon="-1.807128">
<ele>1122.0</ele>
<speed>14.4</speed>
<course>272.6</course>
<desc>Speed 14.4 km/h Distance 14.82 km</desc>
<time>2011-09-24T10:40:38.98</time>
<name>3895</name>
</trkpt>
<trkpt lat="41.810298" lon="-1.807177">
<ele>1122.0</ele>
<speed>14.0</speed>
<course>277.9</course>
<desc>Speed 14.0 km/h Distance 14.82 km</desc>
<time>2011-09-24T10:40:39.98</time>
<name>3896</name>
</trkpt>
<trkpt lat="41.810303" lon="-1.807225">
<ele>1121.5</ele>
<speed>13.9</speed>
<course>272.7</course>
<desc>Speed 13.9 km/h Distance 14.83 km</desc>
<time>2011-09-24T10:40:40.99</time>
<name>3897</name>
</trkpt>
<trkpt lat="41.810305" lon="-1.807272">
<ele>1121.5</ele>
<speed>13.9</speed>
<course>267.4</course>
<desc>Speed 13.9 km/h Distance 14.83 km</desc>
<time>2011-09-24T10:40:41.98</time>
<name>3898</name>
</trkpt>
<trkpt lat="41.810303" lon="-1.807320">
<ele>1122.0</ele>
<speed>13.9</speed>
<course>267.2</course>
<desc>Speed 13.9 km/h Distance 14.83 km</desc>
<time>2011-09-24T10:40:42.98</time>
<name>3899</name>
</trkpt>
<trkpt lat="41.810302" lon="-1.807365">
<ele>1122.0</ele>
<speed>13.6</speed>
<course>270.0</course>
<desc>Speed 13.6 km/h Distance 14.84 km</desc>
<time>2011-09-24T10:40:43.98</time>
<name>3900</name>
</trkpt>
<trkpt lat="41.810302" lon="-1.807412">
<ele>1122.5</ele>
<speed>13.6</speed>
<course>270.0</course>
<desc>Speed 13.6 km/h Distance 14.84 km</desc>
<time>2011-09-24T10:40:44.98</time>
<name>3901</name>
</trkpt>
<trkpt lat="41.810302" lon="-1.807458">
<ele>1122.5</ele>
<speed>13.6</speed>
<course>270.0</course>
<desc>Speed 13.6 km/h Distance 14.85 km</desc>
<time>2011-09-24T10:40:45.98</time>
<name>3902</name>
</trkpt>
<trkpt lat="41.810302" lon="-1.807505">
<ele>1122.5</ele>
<speed>13.6</speed>
<course>267.3</course>
<desc>Speed 13.6 km/h Distance 14.85 km</desc>
<time>2011-09-24T10:40:46.98</time>
<name>3903</name>
</trkpt>
<trkpt lat="41.810300" lon="-1.807552">
<ele>1122.0</ele>
<speed>13.6</speed>
<course>264.7</course>
<desc>Speed 13.6 km/h Distance 14.85 km</desc>
<time>2011-09-24T10:40:47.97</time>
<name>3904</name>
</trkpt>
<trkpt lat="41.810297" lon="-1.807600">
<ele>1122.0</ele>
<speed>14.1</speed>
<course>267.3</course>
<desc>Speed 14.1 km/h Distance 14.86 km</desc>
<time>2011-09-24T10:40:48.97</time>
<name>3905</name>
</trkpt>
<trkpt lat="41.810295" lon="-1.807647">
<ele>1122.0</ele>
<speed>13.7</speed>
<course>267.2</course>
<desc>Speed 13.7 km/h Distance 14.86 km</desc>
<time>2011-09-24T10:40:49.97</time>
<name>3906</name>
</trkpt>
<trkpt lat="41.810293" lon="-1.807692">
<ele>1121.5</ele>
<speed>12.9</speed>
<course>261.5</course>
<desc>Speed 12.9 km/h Distance 14.87 km</desc>
<time>2011-09-24T10:40:50.97</time>
<name>3907</name>
</trkpt>
<trkpt lat="41.810288" lon="-1.807737">
<ele>1121.5</ele>
<speed>13.5</speed>
<course>261.8</course>
<desc>Speed 13.5 km/h Distance 14.87 km</desc>
<time>2011-09-24T10:40:51.97</time>
<name>3908</name>
</trkpt>
<trkpt lat="41.810283" lon="-1.807783">
<ele>1121.5</ele>
<speed>13.5</speed>
<course>264.1</course>
<desc>Speed 13.5 km/h Distance 14.87 km</desc>
<time>2011-09-24T10:40:52.97</time>
<name>3909</name>
</trkpt>
<trkpt lat="41.810280" lon="-1.807827">
<ele>1121.5</ele>
<speed>13.1</speed>
<course>264.1</course>
<desc>Speed 13.1 km/h Distance 14.88 km</desc>
<time>2011-09-24T10:40:53.97</time>
<name>3910</name>
</trkpt>
<trkpt lat="41.810277" lon="-1.807870">
<ele>1121.0</ele>
<speed>12.7</speed>
<course>270.0</course>
<desc>Speed 12.7 km/h Distance 14.88 km</desc>
<time>2011-09-24T10:40:54.97</time>
<name>3911</name>
</trkpt>
<trkpt lat="41.810277" lon="-1.807913">
<ele>1120.5</ele>
<speed>12.8</speed>
<course>263.9</course>
<desc>Speed 12.8 km/h Distance 14.88 km</desc>
<time>2011-09-24T10:40:55.97</time>
<name>3912</name>
</trkpt>
<trkpt lat="41.810273" lon="-1.807955">
<ele>1120.0</ele>
<speed>12.3</speed>
<course>260.8</course>
<desc>Speed 12.3 km/h Distance 14.89 km</desc>
<time>2011-09-24T10:40:56.97</time>
<name>3913</name>
</trkpt>
<trkpt lat="41.810268" lon="-1.807997">
<ele>1120.0</ele>
<speed>12.2</speed>
<course>272.8</course>
<desc>Speed 12.2 km/h Distance 14.89 km</desc>
<time>2011-09-24T10:40:57.97</time>
<name>3914</name>
</trkpt>
<trkpt lat="41.810270" lon="-1.808042">
<ele>1119.0</ele>
<speed>12.5</speed>
<course>270.0</course>
<desc>Speed 12.5 km/h Distance 14.89 km</desc>
<time>2011-09-24T10:40:58.97</time>
<name>3915</name>
</trkpt>
<trkpt lat="41.810270" lon="-1.808087">
<ele>1119.0</ele>
<speed>12.8</speed>
<course>281.7</course>
<desc>Speed 12.8 km/h Distance 14.90 km</desc>
<time>2011-09-24T10:40:59.97</time>
<name>3916</name>
</trkpt>
<trkpt lat="41.810277" lon="-1.808130">
<ele>1117.5</ele>
<speed>12.0</speed>
<course>278.5</course>
<desc>Speed 12.0 km/h Distance 14.90 km</desc>
<time>2011-09-24T10:41:00.96</time>
<name>3917</name>
</trkpt>
<trkpt lat="41.810282" lon="-1.808175">
<ele>1116.5</ele>
<speed>12.4</speed>
<course>273.0</course>
<desc>Speed 12.4 km/h Distance 14.91 km</desc>
<time>2011-09-24T10:41:01.96</time>
<name>3918</name>
</trkpt>
<trkpt lat="41.810283" lon="-1.808218">
<ele>1115.5</ele>
<speed>12.5</speed>
<course>264.1</course>
<desc>Speed 12.5 km/h Distance 14.91 km</desc>
<time>2011-09-24T10:41:02.96</time>
<name>3919</name>
</trkpt>
<trkpt lat="41.810280" lon="-1.808262">
<ele>1115.0</ele>
<speed>12.8</speed>
<course>264.3</course>
<desc>Speed 12.8 km/h Distance 14.91 km</desc>
<time>2011-09-24T10:41:03.96</time>
<name>3920</name>
</trkpt>
<trkpt lat="41.810277" lon="-1.808307">
<ele>1115.0</ele>
<speed>13.2</speed>
<course>264.1</course>
<desc>Speed 13.2 km/h Distance 14.92 km</desc>
<time>2011-09-24T10:41:04.96</time>
<name>3921</name>
</trkpt>
<trkpt lat="41.810273" lon="-1.808350">
<ele>1115.0</ele>
<speed>12.8</speed>
<course>276.7</course>
<desc>Speed 12.8 km/h Distance 14.92 km</desc>
<time>2011-09-24T10:41:05.96</time>
<name>3922</name>
</trkpt>
<trkpt lat="41.810277" lon="-1.808388">
<ele>1113.5</ele>
<speed>11.1</speed>
<course>263.6</course>
<desc>Speed 11.1 km/h Distance 14.92 km</desc>
<time>2011-09-24T10:41:06.96</time>
<name>3923</name>
</trkpt>
<trkpt lat="41.810273" lon="-1.808428">
<ele>1113.0</ele>
<speed>12.0</speed>
<course>264.1</course>
<desc>Speed 12.0 km/h Distance 14.93 km</desc>
<time>2011-09-24T10:41:07.96</time>
<name>3924</name>
</trkpt>
<trkpt lat="41.810270" lon="-1.808472">
<ele>1113.0</ele>
<speed>12.8</speed>
<course>261.2</course>
<desc>Speed 12.8 km/h Distance 14.93 km</desc>
<time>2011-09-24T10:41:08.96</time>
<name>3925</name>
</trkpt>
<trkpt lat="41.810265" lon="-1.808515">
<ele>1113.0</ele>
<speed>13.0</speed>
<course>258.3</course>
<desc>Speed 13.0 km/h Distance 14.93 km</desc>
<time>2011-09-24T10:41:09.97</time>
<name>3926</name>
</trkpt>
<trkpt lat="41.810258" lon="-1.808558">
<ele>1113.0</ele>
<speed>13.0</speed>
<course>264.3</course>
<desc>Speed 13.0 km/h Distance 14.94 km</desc>
<time>2011-09-24T10:41:10.96</time>
<name>3927</name>
</trkpt>
<trkpt lat="41.810255" lon="-1.808603">
<ele>1112.5</ele>
<speed>13.2</speed>
<course>264.3</course>
<desc>Speed 13.2 km/h Distance 14.94 km</desc>
<time>2011-09-24T10:41:11.96</time>
<name>3928</name>
</trkpt>
<trkpt lat="41.810252" lon="-1.808648">
<ele>1112.5</ele>
<speed>13.5</speed>
<course>267.2</course>
<desc>Speed 13.5 km/h Distance 14.95 km</desc>
<time>2011-09-24T10:41:12.96</time>
<name>3929</name>
</trkpt>
<trkpt lat="41.810250" lon="-1.808693">
<ele>1112.5</ele>
<speed>13.3</speed>
<course>258.8</course>
<desc>Speed 13.3 km/h Distance 14.95 km</desc>
<time>2011-09-24T10:41:13.95</time>
<name>3930</name>
</trkpt>
<trkpt lat="41.810243" lon="-1.808738">
<ele>1112.0</ele>
<speed>13.3</speed>
<course>261.5</course>
<desc>Speed 13.3 km/h Distance 14.95 km</desc>
<time>2011-09-24T10:41:14.96</time>
<name>3931</name>
</trkpt>
<trkpt lat="41.810238" lon="-1.808783">
<ele>1112.0</ele>
<speed>13.4</speed>
<course>258.8</course>
<desc>Speed 13.4 km/h Distance 14.96 km</desc>
<time>2011-09-24T10:41:15.95</time>
<name>3932</name>
</trkpt>
<trkpt lat="41.810232" lon="-1.808828">
<ele>1112.5</ele>
<speed>13.5</speed>
<course>256.0</course>
<desc>Speed 13.5 km/h Distance 14.96 km</desc>
<time>2011-09-24T10:41:16.96</time>
<name>3933</name>
</trkpt>
<trkpt lat="41.810223" lon="-1.808873">
<ele>1112.5</ele>
<speed>13.7</speed>
<course>256.5</course>
<desc>Speed 13.7 km/h Distance 14.96 km</desc>
<time>2011-09-24T10:41:17.95</time>
<name>3934</name>
</trkpt>
<trkpt lat="41.810215" lon="-1.808920">
<ele>1112.5</ele>
<speed>13.9</speed>
<course>262.4</course>
<desc>Speed 13.9 km/h Distance 14.97 km</desc>
<time>2011-09-24T10:41:18.95</time>
<name>3935</name>
</trkpt>
<trkpt lat="41.810210" lon="-1.808970">
<ele>1113.0</ele>
<speed>14.2</speed>
<course>262.1</course>
<desc>Speed 14.2 km/h Distance 14.97 km</desc>
<time>2011-09-24T10:41:19.95</time>
<name>3936</name>
</trkpt>
<trkpt lat="41.810205" lon="-1.809018">
<ele>1113.0</ele>
<speed>14.4</speed>
<course>264.9</course>
<desc>Speed 14.4 km/h Distance 14.98 km</desc>
<time>2011-09-24T10:41:20.95</time>
<name>3937</name>
</trkpt>
<trkpt lat="41.810202" lon="-1.809068">
<ele>1113.0</ele>
<speed>14.8</speed>
<course>259.5</course>
<desc>Speed 14.8 km/h Distance 14.98 km</desc>
<time>2011-09-24T10:41:21.95</time>
<name>3938</name>
</trkpt>
<trkpt lat="41.810195" lon="-1.809117">
<ele>1112.5</ele>
<speed>14.6</speed>
<course>259.5</course>
<desc>Speed 14.6 km/h Distance 14.98 km</desc>
<time>2011-09-24T10:41:22.95</time>
<name>3939</name>
</trkpt>
<trkpt lat="41.810188" lon="-1.809165">
<ele>1113.0</ele>
<speed>14.5</speed>
<course>255.0</course>
<desc>Speed 14.5 km/h Distance 14.99 km</desc>
<time>2011-09-24T10:41:23.95</time>
<name>3940</name>
</trkpt>
<trkpt lat="41.810178" lon="-1.809215">
<ele>1113.5</ele>
<speed>14.9</speed>
<course>262.4</course>
<desc>Speed 14.9 km/h Distance 14.99 km</desc>
<time>2011-09-24T10:41:24.95</time>
<name>3941</name>
</trkpt>
<trkpt lat="41.810173" lon="-1.809265">
<ele>1113.0</ele>
<speed>14.8</speed>
<course>254.5</course>
<desc>Speed 14.8 km/h Distance 15.00 km</desc>
<time>2011-09-24T10:41:25.95</time>
<name>3942</name>
</trkpt>
<trkpt lat="41.810163" lon="-1.809313">
<ele>1114.5</ele>
<speed>15.3</speed>
<course>258.8</course>
<desc>Speed 15.3 km/h Distance 15.00 km</desc>
<time>2011-09-24T10:41:26.95</time>
<name>3943</name>
</trkpt>
<trkpt lat="41.810157" lon="-1.809358">
<ele>1115.0</ele>
<speed>13.8</speed>
<course>257.9</course>
<desc>Speed 13.8 km/h Distance 15.01 km</desc>
<time>2011-09-24T10:41:27.94</time>
<name>3944</name>
</trkpt>
<trkpt lat="41.810150" lon="-1.809400">
<ele>1115.5</ele>
<speed>12.7</speed>
<course>260.8</course>
<desc>Speed 12.7 km/h Distance 15.01 km</desc>
<time>2011-09-24T10:41:28.94</time>
<name>3945</name>
</trkpt>
<trkpt lat="41.810145" lon="-1.809442">
<ele>1117.0</ele>
<speed>12.8</speed>
<course>257.4</course>
<desc>Speed 12.8 km/h Distance 15.01 km</desc>
<time>2011-09-24T10:41:29.94</time>
<name>3946</name>
</trkpt>
<trkpt lat="41.810138" lon="-1.809482">
<ele>1118.5</ele>
<speed>12.3</speed>
<course>254.0</course>
<desc>Speed 12.3 km/h Distance 15.02 km</desc>
<time>2011-09-24T10:41:30.95</time>
<name>3947</name>
</trkpt>
<trkpt lat="41.810128" lon="-1.809528">
<ele>1120.0</ele>
<speed>14.5</speed>
<course>270.0</course>
<desc>Speed 14.5 km/h Distance 15.02 km</desc>
<time>2011-09-24T10:41:31.95</time>
<name>3948</name>
</trkpt>
<trkpt lat="41.810128" lon="-1.809568">
<ele>1120.0</ele>
<speed>11.6</speed>
<course>270.0</course>
<desc>Speed 11.6 km/h Distance 15.02 km</desc>
<time>2011-09-24T10:41:32.94</time>
<name>3949</name>
</trkpt>
<trkpt lat="41.810128" lon="-1.809608">
<ele>1119.5</ele>
<speed>11.9</speed>
<course>250.6</course>
<desc>Speed 11.9 km/h Distance 15.03 km</desc>
<time>2011-09-24T10:41:33.95</time>
<name>3950</name>
</trkpt>
<trkpt lat="41.810102" lon="-1.809710">
<ele>1119.0</ele>
<speed>12.4</speed>
<course>263.9</course>
<desc>Speed 12.4 km/h Distance 15.04 km</desc>
<time>2011-09-24T10:41:35.94</time>
<name>3951</name>
</trkpt>
<trkpt lat="41.810098" lon="-1.809752">
<ele>1118.0</ele>
<speed>11.8</speed>
<course>254.4</course>
<desc>Speed 11.8 km/h Distance 15.04 km</desc>
<time>2011-09-24T10:41:36.94</time>
<name>3952</name>
</trkpt>
<trkpt lat="41.810090" lon="-1.809792">
<ele>1117.0</ele>
<speed>12.0</speed>
<course>256.0</course>
<desc>Speed 12.0 km/h Distance 15.04 km</desc>
<time>2011-09-24T10:41:37.94</time>
<name>3953</name>
</trkpt>
<trkpt lat="41.810082" lon="-1.809837">
<ele>1117.0</ele>
<speed>13.1</speed>
<course>254.5</course>
<desc>Speed 13.1 km/h Distance 15.05 km</desc>
<time>2011-09-24T10:41:38.93</time>
<name>3954</name>
</trkpt>
<trkpt lat="41.810072" lon="-1.809885">
<ele>1117.5</ele>
<speed>14.0</speed>
<course>256.5</course>
<desc>Speed 14.0 km/h Distance 15.05 km</desc>
<time>2011-09-24T10:41:39.94</time>
<name>3955</name>
</trkpt>
<trkpt lat="41.810063" lon="-1.809932">
<ele>1118.0</ele>
<speed>13.9</speed>
<course>249.0</course>
<desc>Speed 13.9 km/h Distance 15.05 km</desc>
<time>2011-09-24T10:41:40.93</time>
<name>3956</name>
</trkpt>
<trkpt lat="41.810053" lon="-1.809967">
<ele>1118.0</ele>
<speed>10.2</speed>
<course>254.1</course>
<desc>Speed 10.2 km/h Distance 15.06 km</desc>
<time>2011-09-24T10:41:41.93</time>
<name>3957</name>
</trkpt>
<trkpt lat="41.810042" lon="-1.810022">
<ele>1119.5</ele>
<speed>16.6</speed>
<course>262.8</course>
<desc>Speed 16.6 km/h Distance 15.06 km</desc>
<time>2011-09-24T10:41:42.92</time>
<name>3958</name>
</trkpt>
<trkpt lat="41.810037" lon="-1.810075">
<ele>1119.0</ele>
<speed>15.5</speed>
<course>252.8</course>
<desc>Speed 15.5 km/h Distance 15.07 km</desc>
<time>2011-09-24T10:41:43.93</time>
<name>3959</name>
</trkpt>
<trkpt lat="41.810027" lon="-1.810118">
<ele>1119.0</ele>
<speed>13.8</speed>
<course>252.6</course>
<desc>Speed 13.8 km/h Distance 15.07 km</desc>
<time>2011-09-24T10:41:44.92</time>
<name>3960</name>
</trkpt>
<trkpt lat="41.810015" lon="-1.810168">
<ele>1120.5</ele>
<speed>15.2</speed>
<course>256.0</course>
<desc>Speed 15.2 km/h Distance 15.07 km</desc>
<time>2011-09-24T10:41:45.93</time>
<name>3961</name>
</trkpt>
<trkpt lat="41.810007" lon="-1.810213">
<ele>1121.5</ele>
<speed>13.9</speed>
<course>249.0</course>
<desc>Speed 13.9 km/h Distance 15.08 km</desc>
<time>2011-09-24T10:41:46.92</time>
<name>3962</name>
</trkpt>
<trkpt lat="41.809993" lon="-1.810260">
<ele>1122.5</ele>
<speed>13.9</speed>
<course>288.5</course>
<desc>Speed 13.9 km/h Distance 15.08 km</desc>
<time>2011-09-24T10:41:47.93</time>
<name>3963</name>
</trkpt>
<trkpt lat="41.810003" lon="-1.810300">
<ele>1122.5</ele>
<speed>10.8</speed>
<course>270.0</course>
<desc>Speed 10.8 km/h Distance 15.09 km</desc>
<time>2011-09-24T10:41:48.92</time>
<name>3964</name>
</trkpt>
<trkpt lat="41.810003" lon="-1.810345">
<ele>1122.5</ele>
<speed>12.9</speed>
<course>265.1</course>
<desc>Speed 12.9 km/h Distance 15.09 km</desc>
<time>2011-09-24T10:41:49.93</time>
<name>3965</name>
</trkpt>
<trkpt lat="41.810000" lon="-1.810397">
<ele>1123.5</ele>
<speed>15.2</speed>
<course>259.9</course>
<desc>Speed 15.2 km/h Distance 15.09 km</desc>
<time>2011-09-24T10:41:50.92</time>
<name>3966</name>
</trkpt>
<trkpt lat="41.809993" lon="-1.810447">
<ele>1124.0</ele>
<speed>13.8</speed>
<course>275.5</course>
<desc>Speed 13.8 km/h Distance 15.10 km</desc>
<time>2011-09-24T10:41:51.92</time>
<name>3967</name>
</trkpt>
<trkpt lat="41.809997" lon="-1.810493">
<ele>1123.5</ele>
<speed>13.1</speed>
<course>261.2</course>
<desc>Speed 13.1 km/h Distance 15.10 km</desc>
<time>2011-09-24T10:41:52.92</time>
<name>3968</name>
</trkpt>
<trkpt lat="41.809992" lon="-1.810537">
<ele>1123.5</ele>
<speed>12.0</speed>
<course>262.8</course>
<desc>Speed 12.0 km/h Distance 15.11 km</desc>
<time>2011-09-24T10:41:53.93</time>
<name>3969</name>
</trkpt>
<trkpt lat="41.809987" lon="-1.810590">
<ele>1124.0</ele>
<speed>14.7</speed>
<course>265.1</course>
<desc>Speed 14.7 km/h Distance 15.11 km</desc>
<time>2011-09-24T10:41:54.93</time>
<name>3970</name>
</trkpt>
<trkpt lat="41.809983" lon="-1.810642">
<ele>1124.0</ele>
<speed>14.1</speed>
<course>267.6</course>
<desc>Speed 14.1 km/h Distance 15.11 km</desc>
<time>2011-09-24T10:41:55.92</time>
<name>3971</name>
</trkpt>
<trkpt lat="41.809982" lon="-1.810695">
<ele>1124.5</ele>
<speed>14.6</speed>
<course>256.7</course>
<desc>Speed 14.6 km/h Distance 15.12 km</desc>
<time>2011-09-24T10:41:56.92</time>
<name>3972</name>
</trkpt>
<trkpt lat="41.809972" lon="-1.810752">
<ele>1126.0</ele>
<speed>15.4</speed>
<course>253.6</course>
<desc>Speed 15.4 km/h Distance 15.12 km</desc>
<time>2011-09-24T10:41:57.92</time>
<name>3973</name>
</trkpt>
<trkpt lat="41.809960" lon="-1.810805">
<ele>1128.0</ele>
<speed>14.9</speed>
<course>257.4</course>
<desc>Speed 14.9 km/h Distance 15.13 km</desc>
<time>2011-09-24T10:41:58.91</time>
<name>3974</name>
</trkpt>
<trkpt lat="41.809952" lon="-1.810855">
<ele>1129.5</ele>
<speed>14.4</speed>
<course>280.1</course>
<desc>Speed 14.4 km/h Distance 15.13 km</desc>
<time>2011-09-24T10:41:59.91</time>
<name>3975</name>
</trkpt>
<trkpt lat="41.809958" lon="-1.810905">
<ele>1129.5</ele>
<speed>15.0</speed>
<course>243.0</course>
<desc>Speed 15.0 km/h Distance 15.14 km</desc>
<time>2011-09-24T10:42:00.91</time>
<name>3976</name>
</trkpt>
<trkpt lat="41.809940" lon="-1.810953">
<ele>1130.0</ele>
<speed>14.6</speed>
<course>236.1</course>
<desc>Speed 14.6 km/h Distance 15.14 km</desc>
<time>2011-09-24T10:42:01.92</time>
<name>3977</name>
</trkpt>
<trkpt lat="41.809917" lon="-1.811000">
<ele>1130.0</ele>
<speed>14.5</speed>
<course>230.8</course>
<desc>Speed 14.5 km/h Distance 15.15 km</desc>
<time>2011-09-24T10:42:02.92</time>
<name>3978</name>
</trkpt>
<trkpt lat="41.809893" lon="-1.811038">
<ele>1129.5</ele>
<speed>14.2</speed>
<course>222.7</course>
<desc>Speed 14.2 km/h Distance 15.15 km</desc>
<time>2011-09-24T10:42:03.91</time>
<name>3979</name>
</trkpt>
<trkpt lat="41.809865" lon="-1.811073">
<ele>1129.5</ele>
<speed>15.2</speed>
<course>232.8</course>
<desc>Speed 15.2 km/h Distance 15.15 km</desc>
<time>2011-09-24T10:42:04.92</time>
<name>3980</name>
</trkpt>
<trkpt lat="41.809843" lon="-1.811112">
<ele>1130.5</ele>
<speed>13.7</speed>
<course>221.5</course>
<desc>Speed 13.7 km/h Distance 15.16 km</desc>
<time>2011-09-24T10:42:05.92</time>
<name>3981</name>
</trkpt>
<trkpt lat="41.809817" lon="-1.811143">
<ele>1131.5</ele>
<speed>13.7</speed>
<course>228.8</course>
<desc>Speed 13.7 km/h Distance 15.16 km</desc>
<time>2011-09-24T10:42:06.91</time>
<name>3982</name>
</trkpt>
<trkpt lat="41.809792" lon="-1.811182">
<ele>1132.5</ele>
<speed>13.9</speed>
<course>265.7</course>
<desc>Speed 13.9 km/h Distance 15.17 km</desc>
<time>2011-09-24T10:42:07.91</time>
<name>3983</name>
</trkpt>
<trkpt lat="41.809790" lon="-1.811212">
<ele>1131.0</ele>
<speed>8.8</speed>
<course>253.0</course>
<desc>Speed 8.8 km/h Distance 15.17 km</desc>
<time>2011-09-24T10:42:08.91</time>
<name>3984</name>
</trkpt>
<trkpt lat="41.809782" lon="-1.811248">
<ele>1130.0</ele>
<speed>10.0</speed>
<course>266.7</course>
<desc>Speed 10.0 km/h Distance 15.17 km</desc>
<time>2011-09-24T10:42:09.91</time>
<name>3985</name>
</trkpt>
<trkpt lat="41.809780" lon="-1.811287">
<ele>1128.5</ele>
<speed>11.2</speed>
<course>277.0</course>
<desc>Speed 11.2 km/h Distance 15.18 km</desc>
<time>2011-09-24T10:42:10.91</time>
<name>3986</name>
</trkpt>
<trkpt lat="41.809783" lon="-1.811323">
<ele>1128.5</ele>
<speed>9.9</speed>
<course>241.3</course>
<desc>Speed 9.9 km/h Distance 15.18 km</desc>
<time>2011-09-24T10:42:11.90</time>
<name>3987</name>
</trkpt>
<trkpt lat="41.809750" lon="-1.811405">
<ele>1129.5</ele>
<speed>12.4</speed>
<course>255.5</course>
<desc>Speed 12.4 km/h Distance 15.19 km</desc>
<time>2011-09-24T10:42:13.91</time>
<name>3988</name>
</trkpt>
<trkpt lat="41.809742" lon="-1.811448">
<ele>1129.0</ele>
<speed>12.8</speed>
<course>260.5</course>
<desc>Speed 12.8 km/h Distance 15.19 km</desc>
<time>2011-09-24T10:42:14.90</time>
<name>3989</name>
</trkpt>
<trkpt lat="41.809737" lon="-1.811488">
<ele>1128.5</ele>
<speed>11.3</speed>
<course>272.8</course>
<desc>Speed 11.3 km/h Distance 15.19 km</desc>
<time>2011-09-24T10:42:15.90</time>
<name>3990</name>
</trkpt>
<trkpt lat="41.809738" lon="-1.811533">
<ele>1128.0</ele>
<speed>12.2</speed>
<course>278.2</course>
<desc>Speed 12.2 km/h Distance 15.20 km</desc>
<time>2011-09-24T10:42:16.91</time>
<name>3991</name>
</trkpt>
<trkpt lat="41.809743" lon="-1.811580">
<ele>1128.5</ele>
<speed>12.8</speed>
<course>228.9</course>
<desc>Speed 12.8 km/h Distance 15.20 km</desc>
<time>2011-09-24T10:42:17.90</time>
<name>3992</name>
</trkpt>
<trkpt lat="41.809722" lon="-1.811613">
<ele>1128.0</ele>
<speed>14.5</speed>
<course>270.0</course>
<desc>Speed 14.5 km/h Distance 15.20 km</desc>
<time>2011-09-24T10:42:18.90</time>
<name>3993</name>
</trkpt>
<trkpt lat="41.809722" lon="-1.811667">
<ele>1129.0</ele>
<speed>14.9</speed>
<course>282.6</course>
<desc>Speed 14.9 km/h Distance 15.21 km</desc>
<time>2011-09-24T10:42:19.90</time>
<name>3994</name>
</trkpt>
<trkpt lat="41.809728" lon="-1.811707">
<ele>1127.0</ele>
<speed>11.8</speed>
<course>266.8</course>
<desc>Speed 11.8 km/h Distance 15.21 km</desc>
<time>2011-09-24T10:42:20.90</time>
<name>3995</name>
</trkpt>
<trkpt lat="41.809727" lon="-1.811747">
<ele>1125.0</ele>
<speed>10.7</speed>
<course>232.5</course>
<desc>Speed 10.7 km/h Distance 15.22 km</desc>
<time>2011-09-24T10:42:21.89</time>
<name>3996</name>
</trkpt>
<trkpt lat="41.809707" lon="-1.811782">
<ele>1124.0</ele>
<speed>14.8</speed>
<course>294.1</course>
<desc>Speed 14.8 km/h Distance 15.22 km</desc>
<time>2011-09-24T10:42:22.89</time>
<name>3997</name>
</trkpt>
<trkpt lat="41.809720" lon="-1.811822">
<ele>1121.5</ele>
<speed>9.9</speed>
<course>295.0</course>
<desc>Speed 9.9 km/h Distance 15.22 km</desc>
<time>2011-09-24T10:42:23.89</time>
<name>3998</name>
</trkpt>
<trkpt lat="41.809748" lon="-1.811903">
<ele>1117.5</ele>
<speed>10.9</speed>
<course>266.2</course>
<desc>Speed 10.9 km/h Distance 15.23 km</desc>
<time>2011-09-24T10:42:25.89</time>
<name>3999</name>
</trkpt>
<trkpt lat="41.809747" lon="-1.811937">
<ele>1117.5</ele>
<speed>8.8</speed>
<course>253.7</course>
<desc>Speed 8.8 km/h Distance 15.23 km</desc>
<time>2011-09-24T10:42:26.90</time>
<name>4000</name>
</trkpt>
<trkpt lat="41.809738" lon="-1.811975">
<ele>1118.0</ele>
<speed>12.3</speed>
<course>266.2</course>
<desc>Speed 12.3 km/h Distance 15.24 km</desc>
<time>2011-09-24T10:42:27.90</time>
<name>4001</name>
</trkpt>
<trkpt lat="41.809737" lon="-1.812008">
<ele>1117.5</ele>
<speed>9.7</speed>
<course>270.0</course>
<desc>Speed 9.7 km/h Distance 15.24 km</desc>
<time>2011-09-24T10:42:28.90</time>
<name>4002</name>
</trkpt>
<trkpt lat="41.809737" lon="-1.812042">
<ele>1117.0</ele>
<speed>9.6</speed>
<course>260.5</course>
<desc>Speed 9.6 km/h Distance 15.24 km</desc>
<time>2011-09-24T10:42:29.89</time>
<name>4003</name>
</trkpt>
<trkpt lat="41.809732" lon="-1.812082">
<ele>1117.0</ele>
<speed>11.3</speed>
<course>288.5</course>
<desc>Speed 11.3 km/h Distance 15.25 km</desc>
<time>2011-09-24T10:42:30.89</time>
<name>4004</name>
</trkpt>
<trkpt lat="41.809742" lon="-1.812122">
<ele>1116.0</ele>
<speed>11.0</speed>
<course>290.3</course>
<desc>Speed 11.0 km/h Distance 15.25 km</desc>
<time>2011-09-24T10:42:31.88</time>
<name>4005</name>
</trkpt>
<trkpt lat="41.809755" lon="-1.812170">
<ele>1116.5</ele>
<speed>13.0</speed>
<course>252.1</course>
<desc>Speed 13.0 km/h Distance 15.25 km</desc>
<time>2011-09-24T10:42:32.88</time>
<name>4006</name>
</trkpt>
<trkpt lat="41.809745" lon="-1.812212">
<ele>1118.0</ele>
<speed>11.3</speed>
<course>272.8</course>
<desc>Speed 11.3 km/h Distance 15.26 km</desc>
<time>2011-09-24T10:42:33.88</time>
<name>4007</name>
</trkpt>
<trkpt lat="41.809747" lon="-1.812257">
<ele>1118.0</ele>
<speed>12.1</speed>
<course>328.4</course>
<desc>Speed 12.1 km/h Distance 15.26 km</desc>
<time>2011-09-24T10:42:34.89</time>
<name>4008</name>
</trkpt>
<trkpt lat="41.809823" lon="-1.812320">
<ele>1113.5</ele>
<speed>7.7</speed>
<course>294.1</course>
<desc>Speed 7.7 km/h Distance 15.27 km</desc>
<time>2011-09-24T10:42:36.89</time>
<name>4009</name>
</trkpt>
<trkpt lat="41.809837" lon="-1.812360">
<ele>1112.0</ele>
<speed>9.1</speed>
<course>257.4</course>
<desc>Speed 9.1 km/h Distance 15.27 km</desc>
<time>2011-09-24T10:42:37.88</time>
<name>4010</name>
</trkpt>
<trkpt lat="41.809830" lon="-1.812400">
<ele>1113.5</ele>
<speed>10.0</speed>
<course>249.9</course>
<desc>Speed 10.0 km/h Distance 15.28 km</desc>
<time>2011-09-24T10:42:38.88</time>
<name>4011</name>
</trkpt>
<trkpt lat="41.809825" lon="-1.812418">
<ele>1113.0</ele>
<speed>5.4</speed>
<course>303.9</course>
<desc>Speed 5.4 km/h Distance 15.28 km</desc>
<time>2011-09-24T10:42:39.88</time>
<name>4012</name>
</trkpt>
<trkpt lat="41.809840" lon="-1.812448">
<ele>1112.0</ele>
<speed>8.4</speed>
<course>290.4</course>
<desc>Speed 8.4 km/h Distance 15.28 km</desc>
<time>2011-09-24T10:42:40.88</time>
<name>4013</name>
</trkpt>
<trkpt lat="41.809848" lon="-1.812478">
<ele>1111.5</ele>
<speed>6.8</speed>
<course>270.0</course>
<desc>Speed 6.8 km/h Distance 15.29 km</desc>
<time>2011-09-24T10:42:41.87</time>
<name>4014</name>
</trkpt>
<trkpt lat="41.809848" lon="-1.812488">
<ele>1109.0</ele>
<speed>1.3</speed>
<course>321.8</course>
<desc>Speed 1.3 km/h Distance 15.29 km</desc>
<time>2011-09-24T10:42:42.88</time>
<name>4015</name>
</trkpt>
<trkpt lat="41.809937" lon="-1.812582">
<ele>1107.0</ele>
<speed>9.9</speed>
<course>293.1</course>
<desc>Speed 9.9 km/h Distance 15.30 km</desc>
<time>2011-09-24T10:42:45.88</time>
<name>4016</name>
</trkpt>
<trkpt lat="41.809948" lon="-1.812618">
<ele>1107.0</ele>
<speed>9.3</speed>
<course>316.6</course>
<desc>Speed 9.3 km/h Distance 15.30 km</desc>
<time>2011-09-24T10:42:46.88</time>
<name>4017</name>
</trkpt>
<trkpt lat="41.809973" lon="-1.812650">
<ele>1106.5</ele>
<speed>9.4</speed>
<course>280.8</course>
<desc>Speed 9.4 km/h Distance 15.31 km</desc>
<time>2011-09-24T10:42:47.87</time>
<name>4018</name>
</trkpt>
<trkpt lat="41.809977" lon="-1.812673">
<ele>1106.5</ele>
<speed>5.6</speed>
<course>270.0</course>
<desc>Speed 5.6 km/h Distance 15.31 km</desc>
<time>2011-09-24T10:42:48.88</time>
<name>4019</name>
</trkpt>
<trkpt lat="41.809977" lon="-1.812710">
<ele>1107.5</ele>
<speed>8.7</speed>
<course>297.7</course>
<desc>Speed 8.7 km/h Distance 15.31 km</desc>
<time>2011-09-24T10:42:49.87</time>
<name>4020</name>
</trkpt>
<trkpt lat="41.809992" lon="-1.812748">
<ele>1106.5</ele>
<speed>9.1</speed>
<course>308.0</course>
<desc>Speed 9.1 km/h Distance 15.31 km</desc>
<time>2011-09-24T10:42:50.87</time>
<name>4021</name>
</trkpt>
<trkpt lat="41.810038" lon="-1.812828">
<ele>1108.5</ele>
<speed>8.6</speed>
<course>292.3</course>
<desc>Speed 8.6 km/h Distance 15.32 km</desc>
<time>2011-09-24T10:42:52.86</time>
<name>4022</name>
</trkpt>
<trkpt lat="41.810070" lon="-1.812932">
<ele>1112.5</ele>
<speed>8.4</speed>
<course>281.5</course>
<desc>Speed 8.4 km/h Distance 15.33 km</desc>
<time>2011-09-24T10:42:54.86</time>
<name>4023</name>
</trkpt>
<trkpt lat="41.810082" lon="-1.813008">
<ele>1114.0</ele>
<speed>8.4</speed>
<course>230.0</course>
<desc>Speed 8.4 km/h Distance 15.34 km</desc>
<time>2011-09-24T10:42:56.86</time>
<name>4024</name>
</trkpt>
<trkpt lat="41.810065" lon="-1.813035">
<ele>1113.5</ele>
<speed>7.3</speed>
<course>295.0</course>
<desc>Speed 7.3 km/h Distance 15.34 km</desc>
<time>2011-09-24T10:42:57.87</time>
<name>4025</name>
</trkpt>
<trkpt lat="41.810078" lon="-1.813073">
<ele>1113.5</ele>
<speed>10.9</speed>
<course>256.3</course>
<desc>Speed 10.9 km/h Distance 15.34 km</desc>
<time>2011-09-24T10:42:58.86</time>
<name>4026</name>
</trkpt>
<trkpt lat="41.810075" lon="-1.813092">
<ele>1112.0</ele>
<speed>3.9</speed>
<course>299.5</course>
<desc>Speed 3.9 km/h Distance 15.35 km</desc>
<time>2011-09-24T10:42:59.86</time>
<name>4027</name>
</trkpt>
<trkpt lat="41.810088" lon="-1.813123">
<ele>1111.0</ele>
<speed>7.8</speed>
<course>317.9</course>
<desc>Speed 7.8 km/h Distance 15.35 km</desc>
<time>2011-09-24T10:43:00.86</time>
<name>4028</name>
</trkpt>
<trkpt lat="41.810112" lon="-1.813152">
<ele>1110.5</ele>
<speed>7.8</speed>
<course>324.9</course>
<desc>Speed 7.8 km/h Distance 15.35 km</desc>
<time>2011-09-24T10:43:01.86</time>
<name>4029</name>
</trkpt>
<trkpt lat="41.810142" lon="-1.813180">
<ele>1111.0</ele>
<speed>7.6</speed>
<course>296.3</course>
<desc>Speed 7.6 km/h Distance 15.36 km</desc>
<time>2011-09-24T10:43:02.86</time>
<name>4030</name>
</trkpt>
<trkpt lat="41.810153" lon="-1.813212">
<ele>1110.0</ele>
<speed>8.7</speed>
<course>292.8</course>
<desc>Speed 8.7 km/h Distance 15.36 km</desc>
<time>2011-09-24T10:43:03.86</time>
<name>4031</name>
</trkpt>
<trkpt lat="41.810162" lon="-1.813238">
<ele>1110.5</ele>
<speed>7.6</speed>
<course>277.6</course>
<desc>Speed 7.6 km/h Distance 15.36 km</desc>
<time>2011-09-24T10:43:04.86</time>
<name>4032</name>
</trkpt>
<trkpt lat="41.810165" lon="-1.813272">
<ele>1112.5</ele>
<speed>7.7</speed>
<course>290.1</course>
<desc>Speed 7.7 km/h Distance 15.37 km</desc>
<time>2011-09-24T10:43:05.86</time>
<name>4033</name>
</trkpt>
<trkpt lat="41.810175" lon="-1.813308">
<ele>1114.0</ele>
<speed>7.9</speed>
<course>212.9</course>
<desc>Speed 7.9 km/h Distance 15.37 km</desc>
<time>2011-09-24T10:43:06.85</time>
<name>4034</name>
</trkpt>
<trkpt lat="41.810150" lon="-1.813330">
<ele>1115.0</ele>
<speed>8.2</speed>
<course>224.1</course>
<desc>Speed 8.2 km/h Distance 15.37 km</desc>
<time>2011-09-24T10:43:07.86</time>
<name>4035</name>
</trkpt>
<trkpt lat="41.810133" lon="-1.813352">
<ele>1115.5</ele>
<speed>4.2</speed>
<course>286.6</course>
<desc>Speed 4.2 km/h Distance 15.37 km</desc>
<time>2011-09-24T10:43:08.85</time>
<name>4036</name>
</trkpt>
<trkpt lat="41.810143" lon="-1.813397">
<ele>1115.0</ele>
<speed>6.9</speed>
<course>236.9</course>
<desc>Speed 6.9 km/h Distance 15.38 km</desc>
<time>2011-09-24T10:43:10.84</time>
<name>4037</name>
</trkpt>
<trkpt lat="41.810115" lon="-1.813455">
<ele>1118.0</ele>
<speed>4.9</speed>
<course>275.9</course>
<desc>Speed 4.9 km/h Distance 15.38 km</desc>
<time>2011-09-24T10:43:12.85</time>
<name>4038</name>
</trkpt>
<trkpt lat="41.810117" lon="-1.813477">
<ele>1118.5</ele>
<speed>3.2</speed>
<course>313.8</course>
<desc>Speed 3.2 km/h Distance 15.39 km</desc>
<time>2011-09-24T10:43:13.85</time>
<name>4039</name>
</trkpt>
<trkpt lat="41.810150" lon="-1.813523">
<ele>1119.5</ele>
<speed>6.6</speed>
<course>262.0</course>
<desc>Speed 6.6 km/h Distance 15.39 km</desc>
<time>2011-09-24T10:43:15.85</time>
<name>4040</name>
</trkpt>
<trkpt lat="41.810147" lon="-1.813555">
<ele>1119.5</ele>
<speed>7.3</speed>
<course>284.3</course>
<desc>Speed 7.3 km/h Distance 15.39 km</desc>
<time>2011-09-24T10:43:16.84</time>
<name>4041</name>
</trkpt>
<trkpt lat="41.810153" lon="-1.813590">
<ele>1119.5</ele>
<speed>5.8</speed>
<course>301.1</course>
<desc>Speed 5.8 km/h Distance 15.40 km</desc>
<time>2011-09-24T10:43:17.83</time>
<name>4042</name>
</trkpt>
<trkpt lat="41.810168" lon="-1.813623">
<ele>1120.0</ele>
<speed>7.5</speed>
<course>320.2</course>
<desc>Speed 7.5 km/h Distance 15.40 km</desc>
<time>2011-09-24T10:43:18.84</time>
<name>4043</name>
</trkpt>
<trkpt lat="41.810238" lon="-1.813702">
<ele>1121.5</ele>
<speed>9.6</speed>
<course>314.6</course>
<desc>Speed 9.6 km/h Distance 15.41 km</desc>
<time>2011-09-24T10:43:20.83</time>
<name>4044</name>
</trkpt>
<trkpt lat="41.810257" lon="-1.813727">
<ele>1121.5</ele>
<speed>7.7</speed>
<course>313.5</course>
<desc>Speed 7.7 km/h Distance 15.41 km</desc>
<time>2011-09-24T10:43:21.83</time>
<name>4045</name>
</trkpt>
<trkpt lat="41.810277" lon="-1.813755">
<ele>1121.0</ele>
<speed>6.2</speed>
<course>319.3</course>
<desc>Speed 6.2 km/h Distance 15.42 km</desc>
<time>2011-09-24T10:43:22.83</time>
<name>4046</name>
</trkpt>
<trkpt lat="41.810342" lon="-1.813830">
<ele>1120.0</ele>
<speed>6.6</speed>
<course>240.5</course>
<desc>Speed 6.6 km/h Distance 15.43 km</desc>
<time>2011-09-24T10:43:24.84</time>
<name>4047</name>
</trkpt>
<trkpt lat="41.810328" lon="-1.813862">
<ele>1121.0</ele>
<speed>4.7</speed>
<course>301.7</course>
<desc>Speed 4.7 km/h Distance 15.43 km</desc>
<time>2011-09-24T10:43:25.82</time>
<name>4048</name>
</trkpt>
<trkpt lat="41.810338" lon="-1.813883">
<ele>1121.0</ele>
<speed>5.8</speed>
<course>230.6</course>
<desc>Speed 5.8 km/h Distance 15.43 km</desc>
<time>2011-09-24T10:43:26.83</time>
<name>4049</name>
</trkpt>
<trkpt lat="41.810288" lon="-1.813965">
<ele>1135.0</ele>
<speed>8.7</speed>
<course>266.0</course>
<desc>Speed 8.7 km/h Distance 15.44 km</desc>
<time>2011-09-24T10:43:28.83</time>
<name>4050</name>
</trkpt>
<trkpt lat="41.810287" lon="-1.813997">
<ele>1139.5</ele>
<speed>4.6</speed>
<course>331.3</course>
<desc>Speed 4.6 km/h Distance 15.44 km</desc>
<time>2011-09-24T10:43:29.83</time>
<name>4051</name>
</trkpt>
<trkpt lat="41.810368" lon="-1.814057">
<ele>1146.5</ele>
<speed>8.4</speed>
<course>291.0</course>
<desc>Speed 8.4 km/h Distance 15.45 km</desc>
<time>2011-09-24T10:43:31.82</time>
<name>4052</name>
</trkpt>
<trkpt lat="41.810375" lon="-1.814080">
<ele>1147.5</ele>
<speed>5.7</speed>
<course>328.6</course>
<desc>Speed 5.7 km/h Distance 15.45 km</desc>
<time>2011-09-24T10:43:32.82</time>
<name>4053</name>
</trkpt>
<trkpt lat="41.810503" lon="-1.814185">
<ele>1159.0</ele>
<speed>6.7</speed>
<course>314.1</course>
<desc>Speed 6.7 km/h Distance 15.47 km</desc>
<time>2011-09-24T10:43:35.82</time>
<name>4054</name>
</trkpt>
<trkpt lat="41.810560" lon="-1.814263">
<ele>1158.0</ele>
<speed>7.5</speed>
<course>313.9</course>
<desc>Speed 7.5 km/h Distance 15.48 km</desc>
<time>2011-09-24T10:43:37.82</time>
<name>4055</name>
</trkpt>
<trkpt lat="41.810615" lon="-1.814340">
<ele>1157.5</ele>
<speed>8.4</speed>
<course>297.1</course>
<desc>Speed 8.4 km/h Distance 15.49 km</desc>
<time>2011-09-24T10:43:39.81</time>
<name>4056</name>
</trkpt>
<trkpt lat="41.810628" lon="-1.814375">
<ele>1158.0</ele>
<speed>8.1</speed>
<course>292.2</course>
<desc>Speed 8.1 km/h Distance 15.49 km</desc>
<time>2011-09-24T10:43:40.82</time>
<name>4057</name>
</trkpt>
<trkpt lat="41.810640" lon="-1.814413">
<ele>1158.0</ele>
<speed>6.6</speed>
<course>314.3</course>
<desc>Speed 6.6 km/h Distance 15.50 km</desc>
<time>2011-09-24T10:43:41.81</time>
<name>4058</name>
</trkpt>
<trkpt lat="41.810693" lon="-1.814487">
<ele>1161.0</ele>
<speed>8.5</speed>
<course>317.3</course>
<desc>Speed 8.5 km/h Distance 15.50 km</desc>
<time>2011-09-24T10:43:43.82</time>
<name>4059</name>
</trkpt>
<trkpt lat="41.810757" lon="-1.814565">
<ele>1163.0</ele>
<speed>10.3</speed>
<course>311.5</course>
<desc>Speed 10.3 km/h Distance 15.51 km</desc>
<time>2011-09-24T10:43:45.80</time>
<name>4060</name>
</trkpt>
<trkpt lat="41.810812" lon="-1.814648">
<ele>1165.0</ele>
<speed>5.3</speed>
<course>320.6</course>
<desc>Speed 5.3 km/h Distance 15.52 km</desc>
<time>2011-09-24T10:43:47.81</time>
<name>4061</name>
</trkpt>
<trkpt lat="41.810860" lon="-1.814702">
<ele>1163.5</ele>
<speed>8.2</speed>
<course>330.5</course>
<desc>Speed 8.2 km/h Distance 15.53 km</desc>
<time>2011-09-24T10:43:49.81</time>
<name>4062</name>
</trkpt>
<trkpt lat="41.810950" lon="-1.814770">
<ele>1160.0</ele>
<speed>9.2</speed>
<course>329.5</course>
<desc>Speed 9.2 km/h Distance 15.54 km</desc>
<time>2011-09-24T10:43:51.80</time>
<name>4063</name>
</trkpt>
<trkpt lat="41.810982" lon="-1.814795">
<ele>1161.0</ele>
<speed>9.8</speed>
<course>339.6</course>
<desc>Speed 9.8 km/h Distance 15.55 km</desc>
<time>2011-09-24T10:43:52.80</time>
<name>4064</name>
</trkpt>
<trkpt lat="41.811018" lon="-1.814813">
<ele>1161.0</ele>
<speed>10.5</speed>
<course>331.5</course>
<desc>Speed 10.5 km/h Distance 15.55 km</desc>
<time>2011-09-24T10:43:53.80</time>
<name>4065</name>
</trkpt>
<trkpt lat="41.811055" lon="-1.814840">
<ele>1159.5</ele>
<speed>11.2</speed>
<course>333.1</course>
<desc>Speed 11.2 km/h Distance 15.56 km</desc>
<time>2011-09-24T10:43:54.80</time>
<name>4066</name>
</trkpt>
<trkpt lat="41.811092" lon="-1.814865">
<ele>1158.0</ele>
<speed>10.3</speed>
<course>332.6</course>
<desc>Speed 10.3 km/h Distance 15.56 km</desc>
<time>2011-09-24T10:43:55.80</time>
<name>4067</name>
</trkpt>
<trkpt lat="41.811130" lon="-1.814892">
<ele>1157.0</ele>
<speed>9.7</speed>
<course>337.8</course>
<desc>Speed 9.7 km/h Distance 15.56 km</desc>
<time>2011-09-24T10:43:56.80</time>
<name>4068</name>
</trkpt>
<trkpt lat="41.811218" lon="-1.814940">
<ele>1155.5</ele>
<speed>11.3</speed>
<course>335.6</course>
<desc>Speed 11.3 km/h Distance 15.58 km</desc>
<time>2011-09-24T10:43:58.79</time>
<name>4069</name>
</trkpt>
<trkpt lat="41.811257" lon="-1.814963">
<ele>1154.5</ele>
<speed>9.7</speed>
<course>317.0</course>
<desc>Speed 9.7 km/h Distance 15.58 km</desc>
<time>2011-09-24T10:43:59.80</time>
<name>4070</name>
</trkpt>
<trkpt lat="41.811270" lon="-1.814980">
<ele>1155.0</ele>
<speed>5.6</speed>
<course>332.9</course>
<desc>Speed 5.6 km/h Distance 15.58 km</desc>
<time>2011-09-24T10:44:00.80</time>
<name>4071</name>
</trkpt>
<trkpt lat="41.811297" lon="-1.814998">
<ele>1155.5</ele>
<speed>9.9</speed>
<course>342.9</course>
<desc>Speed 9.9 km/h Distance 15.59 km</desc>
<time>2011-09-24T10:44:01.79</time>
<name>4072</name>
</trkpt>
<trkpt lat="41.811325" lon="-1.815010">
<ele>1156.0</ele>
<speed>10.2</speed>
<course>347.9</course>
<desc>Speed 10.2 km/h Distance 15.59 km</desc>
<time>2011-09-24T10:44:02.79</time>
<name>4073</name>
</trkpt>
<trkpt lat="41.811360" lon="-1.815020">
<ele>1155.5</ele>
<speed>9.8</speed>
<course>344.7</course>
<desc>Speed 9.8 km/h Distance 15.59 km</desc>
<time>2011-09-24T10:44:03.79</time>
<name>4074</name>
</trkpt>
<trkpt lat="41.811397" lon="-1.815033">
<ele>1155.0</ele>
<speed>9.9</speed>
<course>343.0</course>
<desc>Speed 9.9 km/h Distance 15.60 km</desc>
<time>2011-09-24T10:44:04.79</time>
<name>4075</name>
</trkpt>
<trkpt lat="41.811433" lon="-1.815048">
<ele>1155.0</ele>
<speed>10.8</speed>
<course>340.7</course>
<desc>Speed 10.8 km/h Distance 15.60 km</desc>
<time>2011-09-24T10:44:05.79</time>
<name>4076</name>
</trkpt>
<trkpt lat="41.811462" lon="-1.815062">
<ele>1155.5</ele>
<speed>10.4</speed>
<course>338.6</course>
<desc>Speed 10.4 km/h Distance 15.60 km</desc>
<time>2011-09-24T10:44:06.79</time>
<name>4077</name>
</trkpt>
<trkpt lat="41.811493" lon="-1.815078">
<ele>1155.0</ele>
<speed>10.8</speed>
<course>337.5</course>
<desc>Speed 10.8 km/h Distance 15.61 km</desc>
<time>2011-09-24T10:44:07.79</time>
<name>4078</name>
</trkpt>
<trkpt lat="41.811523" lon="-1.815095">
<ele>1155.0</ele>
<speed>11.0</speed>
<course>327.1</course>
<desc>Speed 11.0 km/h Distance 15.61 km</desc>
<time>2011-09-24T10:44:08.79</time>
<name>4079</name>
</trkpt>
<trkpt lat="41.811548" lon="-1.815117">
<ele>1155.0</ele>
<speed>11.7</speed>
<course>331.5</course>
<desc>Speed 11.7 km/h Distance 15.61 km</desc>
<time>2011-09-24T10:44:09.80</time>
<name>4080</name>
</trkpt>
<trkpt lat="41.811585" lon="-1.815143">
<ele>1153.5</ele>
<speed>11.7</speed>
<course>257.4</course>
<desc>Speed 11.7 km/h Distance 15.62 km</desc>
<time>2011-09-24T10:44:10.79</time>
<name>4081</name>
</trkpt>
<trkpt lat="41.811582" lon="-1.815163">
<ele>1155.5</ele>
<speed>5.6</speed>
<course>323.3</course>
<desc>Speed 5.6 km/h Distance 15.62 km</desc>
<time>2011-09-24T10:44:11.79</time>
<name>4082</name>
</trkpt>
<trkpt lat="41.811605" lon="-1.815187">
<ele>1155.0</ele>
<speed>11.4</speed>
<course>340.2</course>
<desc>Speed 11.4 km/h Distance 15.62 km</desc>
<time>2011-09-24T10:44:12.79</time>
<name>4083</name>
</trkpt>
<trkpt lat="41.811705" lon="-1.815235">
<ele>1154.0</ele>
<speed>11.2</speed>
<course>326.2</course>
<desc>Speed 11.2 km/h Distance 15.64 km</desc>
<time>2011-09-24T10:44:14.79</time>
<name>4084</name>
</trkpt>
<trkpt lat="41.811738" lon="-1.815265">
<ele>1153.5</ele>
<speed>11.8</speed>
<course>327.6</course>
<desc>Speed 11.8 km/h Distance 15.64 km</desc>
<time>2011-09-24T10:44:15.78</time>
<name>4085</name>
</trkpt>
<trkpt lat="41.811772" lon="-1.815293">
<ele>1152.0</ele>
<speed>11.6</speed>
<course>331.5</course>
<desc>Speed 11.6 km/h Distance 15.65 km</desc>
<time>2011-09-24T10:44:16.78</time>
<name>4086</name>
</trkpt>
<trkpt lat="41.811808" lon="-1.815320">
<ele>1151.0</ele>
<speed>11.3</speed>
<course>324.8</course>
<desc>Speed 11.3 km/h Distance 15.65 km</desc>
<time>2011-09-24T10:44:17.78</time>
<name>4087</name>
</trkpt>
<trkpt lat="41.811840" lon="-1.815350">
<ele>1150.5</ele>
<speed>11.1</speed>
<course>330.4</course>
<desc>Speed 11.1 km/h Distance 15.65 km</desc>
<time>2011-09-24T10:44:18.78</time>
<name>4088</name>
</trkpt>
<trkpt lat="41.811875" lon="-1.815377">
<ele>1149.5</ele>
<speed>11.3</speed>
<course>312.9</course>
<desc>Speed 11.3 km/h Distance 15.66 km</desc>
<time>2011-09-24T10:44:19.78</time>
<name>4089</name>
</trkpt>
<trkpt lat="41.811920" lon="-1.815442">
<ele>1148.0</ele>
<speed>11.7</speed>
<course>325.7</course>
<desc>Speed 11.7 km/h Distance 15.67 km</desc>
<time>2011-09-24T10:44:21.78</time>
<name>4090</name>
</trkpt>
<trkpt lat="41.811980" lon="-1.815497">
<ele>1146.0</ele>
<speed>11.9</speed>
<course>323.3</course>
<desc>Speed 11.9 km/h Distance 15.67 km</desc>
<time>2011-09-24T10:44:23.77</time>
<name>4091</name>
</trkpt>
<trkpt lat="41.812037" lon="-1.815553">
<ele>1145.0</ele>
<speed>12.3</speed>
<course>325.5</course>
<desc>Speed 12.3 km/h Distance 15.68 km</desc>
<time>2011-09-24T10:44:25.78</time>
<name>4092</name>
</trkpt>
<trkpt lat="41.812100" lon="-1.815612">
<ele>1143.5</ele>
<speed>12.4</speed>
<course>323.3</course>
<desc>Speed 12.4 km/h Distance 15.69 km</desc>
<time>2011-09-24T10:44:27.77</time>
<name>4093</name>
</trkpt>
<trkpt lat="41.812128" lon="-1.815640">
<ele>1142.5</ele>
<speed>12.9</speed>
<course>323.3</course>
<desc>Speed 12.9 km/h Distance 15.69 km</desc>
<time>2011-09-24T10:44:28.77</time>
<name>4094</name>
</trkpt>
<trkpt lat="41.812157" lon="-1.815668">
<ele>1141.5</ele>
<speed>12.7</speed>
<course>322.5</course>
<desc>Speed 12.7 km/h Distance 15.70 km</desc>
<time>2011-09-24T10:44:29.77</time>
<name>4095</name>
</trkpt>
<trkpt lat="41.812213" lon="-1.815727">
<ele>1139.5</ele>
<speed>12.7</speed>
<course>322.4</course>
<desc>Speed 12.7 km/h Distance 15.71 km</desc>
<time>2011-09-24T10:44:31.77</time>
<name>4096</name>
</trkpt>
<trkpt lat="41.812265" lon="-1.815780">
<ele>1139.5</ele>
<speed>12.1</speed>
<course>315.2</course>
<desc>Speed 12.1 km/h Distance 15.71 km</desc>
<time>2011-09-24T10:44:33.76</time>
<name>4097</name>
</trkpt>
<trkpt lat="41.812290" lon="-1.815813">
<ele>1139.5</ele>
<speed>12.1</speed>
<course>321.5</course>
<desc>Speed 12.1 km/h Distance 15.72 km</desc>
<time>2011-09-24T10:44:34.78</time>
<name>4098</name>
</trkpt>
<trkpt lat="41.812340" lon="-1.815867">
<ele>1138.5</ele>
<speed>11.4</speed>
<course>325.2</course>
<desc>Speed 11.4 km/h Distance 15.72 km</desc>
<time>2011-09-24T10:44:36.76</time>
<name>4099</name>
</trkpt>
<trkpt lat="41.812365" lon="-1.815890">
<ele>1138.0</ele>
<speed>10.8</speed>
<course>324.2</course>
<desc>Speed 10.8 km/h Distance 15.73 km</desc>
<time>2011-09-24T10:44:37.77</time>
<name>4100</name>
</trkpt>
<trkpt lat="41.812415" lon="-1.815938">
<ele>1136.5</ele>
<speed>11.2</speed>
<course>323.3</course>
<desc>Speed 11.2 km/h Distance 15.73 km</desc>
<time>2011-09-24T10:44:39.76</time>
<name>4101</name>
</trkpt>
<trkpt lat="41.812440" lon="-1.815963">
<ele>1136.0</ele>
<speed>11.4</speed>
<course>321.5</course>
<desc>Speed 11.4 km/h Distance 15.74 km</desc>
<time>2011-09-24T10:44:40.76</time>
<name>4102</name>
</trkpt>
<trkpt lat="41.812465" lon="-1.815990">
<ele>1135.0</ele>
<speed>12.1</speed>
<course>323.3</course>
<desc>Speed 12.1 km/h Distance 15.74 km</desc>
<time>2011-09-24T10:44:41.77</time>
<name>4103</name>
</trkpt>
<trkpt lat="41.812492" lon="-1.816017">
<ele>1134.5</ele>
<speed>12.3</speed>
<course>324.9</course>
<desc>Speed 12.3 km/h Distance 15.75 km</desc>
<time>2011-09-24T10:44:42.76</time>
<name>4104</name>
</trkpt>
<trkpt lat="41.812522" lon="-1.816045">
<ele>1133.5</ele>
<speed>13.4</speed>
<course>318.5</course>
<desc>Speed 13.4 km/h Distance 15.75 km</desc>
<time>2011-09-24T10:44:43.76</time>
<name>4105</name>
</trkpt>
<trkpt lat="41.812548" lon="-1.816077">
<ele>1133.0</ele>
<speed>13.0</speed>
<course>318.5</course>
<desc>Speed 13.0 km/h Distance 15.75 km</desc>
<time>2011-09-24T10:44:44.76</time>
<name>4106</name>
</trkpt>
<trkpt lat="41.812575" lon="-1.816108">
<ele>1132.5</ele>
<speed>12.9</speed>
<course>320.1</course>
<desc>Speed 12.9 km/h Distance 15.76 km</desc>
<time>2011-09-24T10:44:45.76</time>
<name>4107</name>
</trkpt>
<trkpt lat="41.812630" lon="-1.816170">
<ele>1131.5</ele>
<speed>13.6</speed>
<course>321.8</course>
<desc>Speed 13.6 km/h Distance 15.77 km</desc>
<time>2011-09-24T10:44:47.77</time>
<name>4108</name>
</trkpt>
<trkpt lat="41.812660" lon="-1.816202">
<ele>1130.5</ele>
<speed>14.2</speed>
<course>317.3</course>
<desc>Speed 14.2 km/h Distance 15.77 km</desc>
<time>2011-09-24T10:44:48.76</time>
<name>4109</name>
</trkpt>
<trkpt lat="41.812688" lon="-1.816237">
<ele>1130.5</ele>
<speed>14.7</speed>
<course>315.6</course>
<desc>Speed 14.7 km/h Distance 15.77 km</desc>
<time>2011-09-24T10:44:49.76</time>
<name>4110</name>
</trkpt>
<trkpt lat="41.812715" lon="-1.816272">
<ele>1130.5</ele>
<speed>14.8</speed>
<course>324.8</course>
<desc>Speed 14.8 km/h Distance 15.78 km</desc>
<time>2011-09-24T10:44:50.76</time>
<name>4111</name>
</trkpt>
<trkpt lat="41.812747" lon="-1.816302">
<ele>1128.5</ele>
<speed>14.9</speed>
<course>328.5</course>
<desc>Speed 14.9 km/h Distance 15.78 km</desc>
<time>2011-09-24T10:44:51.77</time>
<name>4112</name>
</trkpt>
<trkpt lat="41.812775" lon="-1.816325">
<ele>1128.0</ele>
<speed>13.2</speed>
<course>323.3</course>
<desc>Speed 13.2 km/h Distance 15.79 km</desc>
<time>2011-09-24T10:44:52.76</time>
<name>4113</name>
</trkpt>
<trkpt lat="41.812802" lon="-1.816352">
<ele>1128.0</ele>
<speed>12.6</speed>
<course>319.8</course>
<desc>Speed 12.6 km/h Distance 15.79 km</desc>
<time>2011-09-24T10:44:53.75</time>
<name>4114</name>
</trkpt>
<trkpt lat="41.812827" lon="-1.816380">
<ele>1128.0</ele>
<speed>12.8</speed>
<course>313.8</course>
<desc>Speed 12.8 km/h Distance 15.79 km</desc>
<time>2011-09-24T10:44:54.75</time>
<name>4115</name>
</trkpt>
<trkpt lat="41.812852" lon="-1.816415">
<ele>1128.0</ele>
<speed>13.9</speed>
<course>316.6</course>
<desc>Speed 13.9 km/h Distance 15.80 km</desc>
<time>2011-09-24T10:44:55.75</time>
<name>4116</name>
</trkpt>
<trkpt lat="41.812877" lon="-1.816447">
<ele>1128.0</ele>
<speed>13.1</speed>
<course>313.2</course>
<desc>Speed 13.1 km/h Distance 15.80 km</desc>
<time>2011-09-24T10:44:56.76</time>
<name>4117</name>
</trkpt>
<trkpt lat="41.812900" lon="-1.816480">
<ele>1128.0</ele>
<speed>13.2</speed>
<course>308.4</course>
<desc>Speed 13.2 km/h Distance 15.81 km</desc>
<time>2011-09-24T10:44:57.76</time>
<name>4118</name>
</trkpt>
<trkpt lat="41.812943" lon="-1.816553">
<ele>1128.5</ele>
<speed>13.4</speed>
<course>317.0</course>
<desc>Speed 13.4 km/h Distance 15.81 km</desc>
<time>2011-09-24T10:44:59.75</time>
<name>4119</name>
</trkpt>
<trkpt lat="41.812970" lon="-1.816587">
<ele>1129.0</ele>
<speed>13.0</speed>
<course>308.4</course>
<desc>Speed 13.0 km/h Distance 15.82 km</desc>
<time>2011-09-24T10:45:00.75</time>
<name>4120</name>
</trkpt>
<trkpt lat="41.812992" lon="-1.816623">
<ele>1131.0</ele>
<speed>13.8</speed>
<course>311.1</course>
<desc>Speed 13.8 km/h Distance 15.82 km</desc>
<time>2011-09-24T10:45:01.75</time>
<name>4121</name>
</trkpt>
<trkpt lat="41.813013" lon="-1.816657">
<ele>1132.5</ele>
<speed>12.9</speed>
<course>313.2</course>
<desc>Speed 12.9 km/h Distance 15.82 km</desc>
<time>2011-09-24T10:45:02.75</time>
<name>4122</name>
</trkpt>
<trkpt lat="41.813037" lon="-1.816690">
<ele>1135.0</ele>
<speed>13.1</speed>
<course>319.8</course>
<desc>Speed 13.1 km/h Distance 15.83 km</desc>
<time>2011-09-24T10:45:03.75</time>
<name>4123</name>
</trkpt>
<trkpt lat="41.813062" lon="-1.816718">
<ele>1136.0</ele>
<speed>12.7</speed>
<course>319.3</course>
<desc>Speed 12.7 km/h Distance 15.83 km</desc>
<time>2011-09-24T10:45:04.75</time>
<name>4124</name>
</trkpt>
<trkpt lat="41.813083" lon="-1.816743">
<ele>1137.0</ele>
<speed>11.9</speed>
<course>328.2</course>
<desc>Speed 11.9 km/h Distance 15.84 km</desc>
<time>2011-09-24T10:45:05.75</time>
<name>4125</name>
</trkpt>
<trkpt lat="41.813113" lon="-1.816768">
<ele>1137.5</ele>
<speed>11.8</speed>
<course>321.6</course>
<desc>Speed 11.8 km/h Distance 15.84 km</desc>
<time>2011-09-24T10:45:06.74</time>
<name>4126</name>
</trkpt>
<trkpt lat="41.813140" lon="-1.816797">
<ele>1139.0</ele>
<speed>13.6</speed>
<course>330.4</course>
<desc>Speed 13.6 km/h Distance 15.84 km</desc>
<time>2011-09-24T10:45:07.75</time>
<name>4127</name>
</trkpt>
<trkpt lat="41.813175" lon="-1.816823">
<ele>1139.0</ele>
<speed>14.1</speed>
<course>329.2</course>
<desc>Speed 14.1 km/h Distance 15.85 km</desc>
<time>2011-09-24T10:45:08.74</time>
<name>4128</name>
</trkpt>
<trkpt lat="41.813208" lon="-1.816850">
<ele>1139.0</ele>
<speed>14.3</speed>
<course>335.2</course>
<desc>Speed 14.3 km/h Distance 15.85 km</desc>
<time>2011-09-24T10:45:09.75</time>
<name>4129</name>
</trkpt>
<trkpt lat="41.813243" lon="-1.816872">
<ele>1139.5</ele>
<speed>14.1</speed>
<course>334.6</course>
<desc>Speed 14.1 km/h Distance 15.86 km</desc>
<time>2011-09-24T10:45:10.74</time>
<name>4130</name>
</trkpt>
<trkpt lat="41.813280" lon="-1.816895">
<ele>1139.0</ele>
<speed>15.0</speed>
<course>335.6</course>
<desc>Speed 15.0 km/h Distance 15.86 km</desc>
<time>2011-09-24T10:45:11.74</time>
<name>4131</name>
</trkpt>
<trkpt lat="41.813318" lon="-1.816918">
<ele>1138.5</ele>
<speed>15.0</speed>
<course>324.8</course>
<desc>Speed 15.0 km/h Distance 15.87 km</desc>
<time>2011-09-24T10:45:12.74</time>
<name>4132</name>
</trkpt>
<trkpt lat="41.813350" lon="-1.816948">
<ele>1139.5</ele>
<speed>15.1</speed>
<course>332.0</course>
<desc>Speed 15.1 km/h Distance 15.87 km</desc>
<time>2011-09-24T10:45:13.74</time>
<name>4133</name>
</trkpt>
<trkpt lat="41.813385" lon="-1.816973">
<ele>1140.5</ele>
<speed>14.5</speed>
<course>335.6</course>
<desc>Speed 14.5 km/h Distance 15.87 km</desc>
<time>2011-09-24T10:45:14.75</time>
<name>4134</name>
</trkpt>
<trkpt lat="41.813423" lon="-1.816997">
<ele>1140.5</ele>
<speed>14.5</speed>
<course>332.5</course>
<desc>Speed 14.5 km/h Distance 15.88 km</desc>
<time>2011-09-24T10:45:15.74</time>
<name>4135</name>
</trkpt>
<trkpt lat="41.813457" lon="-1.817020">
<ele>1140.5</ele>
<speed>13.7</speed>
<course>333.6</course>
<desc>Speed 13.7 km/h Distance 15.88 km</desc>
<time>2011-09-24T10:45:16.74</time>
<name>4136</name>
</trkpt>
<trkpt lat="41.813492" lon="-1.817043">
<ele>1140.5</ele>
<speed>14.1</speed>
<course>335.6</course>
<desc>Speed 14.1 km/h Distance 15.89 km</desc>
<time>2011-09-24T10:45:17.74</time>
<name>4137</name>
</trkpt>
<trkpt lat="41.813530" lon="-1.817067">
<ele>1141.0</ele>
<speed>14.7</speed>
<course>330.1</course>
<desc>Speed 14.7 km/h Distance 15.89 km</desc>
<time>2011-09-24T10:45:18.74</time>
<name>4138</name>
</trkpt>
<trkpt lat="41.813567" lon="-1.817095">
<ele>1142.0</ele>
<speed>15.5</speed>
<course>330.1</course>
<desc>Speed 15.5 km/h Distance 15.90 km</desc>
<time>2011-09-24T10:45:19.73</time>
<name>4139</name>
</trkpt>
<trkpt lat="41.813603" lon="-1.817123">
<ele>1143.0</ele>
<speed>15.6</speed>
<course>329.7</course>
<desc>Speed 15.6 km/h Distance 15.90 km</desc>
<time>2011-09-24T10:45:20.73</time>
<name>4140</name>
</trkpt>
<trkpt lat="41.813642" lon="-1.817153">
<ele>1143.5</ele>
<speed>16.5</speed>
<course>333.1</course>
<desc>Speed 16.5 km/h Distance 15.91 km</desc>
<time>2011-09-24T10:45:21.73</time>
<name>4141</name>
</trkpt>
<trkpt lat="41.813683" lon="-1.817182">
<ele>1143.5</ele>
<speed>16.5</speed>
<course>328.4</course>
<desc>Speed 16.5 km/h Distance 15.91 km</desc>
<time>2011-09-24T10:45:22.73</time>
<name>4142</name>
</trkpt>
<trkpt lat="41.813722" lon="-1.817213">
<ele>1143.5</ele>
<speed>16.1</speed>
<course>324.6</course>
<desc>Speed 16.1 km/h Distance 15.92 km</desc>
<time>2011-09-24T10:45:23.73</time>
<name>4143</name>
</trkpt>
<trkpt lat="41.813757" lon="-1.817247">
<ele>1144.0</ele>
<speed>15.8</speed>
<course>323.3</course>
<desc>Speed 15.8 km/h Distance 15.92 km</desc>
<time>2011-09-24T10:45:24.73</time>
<name>4144</name>
</trkpt>
<trkpt lat="41.813788" lon="-1.817278">
<ele>1144.0</ele>
<speed>15.1</speed>
<course>316.4</course>
<desc>Speed 15.1 km/h Distance 15.93 km</desc>
<time>2011-09-24T10:45:25.74</time>
<name>4145</name>
</trkpt>
<trkpt lat="41.813818" lon="-1.817317">
<ele>1144.5</ele>
<speed>15.2</speed>
<course>308.5</course>
<desc>Speed 15.2 km/h Distance 15.93 km</desc>
<time>2011-09-24T10:45:26.73</time>
<name>4146</name>
</trkpt>
<trkpt lat="41.813845" lon="-1.817362">
<ele>1144.5</ele>
<speed>16.2</speed>
<course>303.0</course>
<desc>Speed 16.2 km/h Distance 15.94 km</desc>
<time>2011-09-24T10:45:27.73</time>
<name>4147</name>
</trkpt>
<trkpt lat="41.813870" lon="-1.817413">
<ele>1144.5</ele>
<speed>17.6</speed>
<course>295.3</course>
<desc>Speed 17.6 km/h Distance 15.94 km</desc>
<time>2011-09-24T10:45:28.73</time>
<name>4148</name>
</trkpt>
<trkpt lat="41.813890" lon="-1.817470">
<ele>1144.5</ele>
<speed>18.1</speed>
<course>292.9</course>
<desc>Speed 18.1 km/h Distance 15.95 km</desc>
<time>2011-09-24T10:45:29.73</time>
<name>4149</name>
</trkpt>
<trkpt lat="41.813908" lon="-1.817528">
<ele>1144.5</ele>
<speed>18.6</speed>
<course>286.2</course>
<desc>Speed 18.6 km/h Distance 15.95 km</desc>
<time>2011-09-24T10:45:30.73</time>
<name>4150</name>
</trkpt>
<trkpt lat="41.813922" lon="-1.817590">
<ele>1144.5</ele>
<speed>19.0</speed>
<course>280.0</course>
<desc>Speed 19.0 km/h Distance 15.96 km</desc>
<time>2011-09-24T10:45:31.73</time>
<name>4151</name>
</trkpt>
<trkpt lat="41.813930" lon="-1.817653">
<ele>1144.0</ele>
<speed>18.5</speed>
<course>280.3</course>
<desc>Speed 18.5 km/h Distance 15.96 km</desc>
<time>2011-09-24T10:45:32.72</time>
<name>4152</name>
</trkpt>
<trkpt lat="41.813938" lon="-1.817715">
<ele>1144.0</ele>
<speed>18.1</speed>
<course>280.3</course>
<desc>Speed 18.1 km/h Distance 15.97 km</desc>
<time>2011-09-24T10:45:33.73</time>
<name>4153</name>
</trkpt>
<trkpt lat="41.813947" lon="-1.817777">
<ele>1144.0</ele>
<speed>18.4</speed>
<course>286.2</course>
<desc>Speed 18.4 km/h Distance 15.97 km</desc>
<time>2011-09-24T10:45:34.72</time>
<name>4154</name>
</trkpt>
<trkpt lat="41.813960" lon="-1.817838">
<ele>1144.5</ele>
<speed>18.4</speed>
<course>284.2</course>
<desc>Speed 18.4 km/h Distance 15.98 km</desc>
<time>2011-09-24T10:45:35.72</time>
<name>4155</name>
</trkpt>
<trkpt lat="41.813972" lon="-1.817900">
<ele>1144.5</ele>
<speed>18.2</speed>
<course>282.6</course>
<desc>Speed 18.2 km/h Distance 15.98 km</desc>
<time>2011-09-24T10:45:36.72</time>
<name>4156</name>
</trkpt>
<trkpt lat="41.813982" lon="-1.817960">
<ele>1144.0</ele>
<speed>17.7</speed>
<course>287.0</course>
<desc>Speed 17.7 km/h Distance 15.99 km</desc>
<time>2011-09-24T10:45:37.72</time>
<name>4157</name>
</trkpt>
<trkpt lat="41.813995" lon="-1.818018">
<ele>1143.5</ele>
<speed>17.9</speed>
<course>294.1</course>
<desc>Speed 17.9 km/h Distance 15.99 km</desc>
<time>2011-09-24T10:45:38.72</time>
<name>4158</name>
</trkpt>
<trkpt lat="41.814015" lon="-1.818078">
<ele>1143.0</ele>
<speed>18.9</speed>
<course>292.9</course>
<desc>Speed 18.9 km/h Distance 16.00 km</desc>
<time>2011-09-24T10:45:39.72</time>
<name>4159</name>
</trkpt>
<trkpt lat="41.814033" lon="-1.818137">
<ele>1143.5</ele>
<speed>18.7</speed>
<course>297.2</course>
<desc>Speed 18.7 km/h Distance 16.00 km</desc>
<time>2011-09-24T10:45:40.72</time>
<name>4160</name>
</trkpt>
<trkpt lat="41.814055" lon="-1.818193">
<ele>1143.5</ele>
<speed>18.4</speed>
<course>298.9</course>
<desc>Speed 18.4 km/h Distance 16.01 km</desc>
<time>2011-09-24T10:45:41.72</time>
<name>4161</name>
</trkpt>
<trkpt lat="41.814078" lon="-1.818250">
<ele>1143.5</ele>
<speed>18.5</speed>
<course>297.2</course>
<desc>Speed 18.5 km/h Distance 16.01 km</desc>
<time>2011-09-24T10:45:42.72</time>
<name>4162</name>
</trkpt>
<trkpt lat="41.814100" lon="-1.818307">
<ele>1144.0</ele>
<speed>18.5</speed>
<course>299.4</course>
<desc>Speed 18.5 km/h Distance 16.02 km</desc>
<time>2011-09-24T10:45:43.72</time>
<name>4163</name>
</trkpt>
<trkpt lat="41.814122" lon="-1.818358">
<ele>1144.0</ele>
<speed>17.6</speed>
<course>298.2</course>
<desc>Speed 17.6 km/h Distance 16.02 km</desc>
<time>2011-09-24T10:45:44.71</time>
<name>4164</name>
</trkpt>
<trkpt lat="41.814142" lon="-1.818408">
<ele>1144.0</ele>
<speed>16.8</speed>
<course>298.2</course>
<desc>Speed 16.8 km/h Distance 16.03 km</desc>
<time>2011-09-24T10:45:45.71</time>
<name>4165</name>
</trkpt>
<trkpt lat="41.814162" lon="-1.818458">
<ele>1144.5</ele>
<speed>16.7</speed>
<course>298.6</course>
<desc>Speed 16.7 km/h Distance 16.03 km</desc>
<time>2011-09-24T10:45:46.71</time>
<name>4166</name>
</trkpt>
<trkpt lat="41.814183" lon="-1.818512">
<ele>1144.5</ele>
<speed>17.4</speed>
<course>298.6</course>
<desc>Speed 17.4 km/h Distance 16.04 km</desc>
<time>2011-09-24T10:45:47.71</time>
<name>4167</name>
</trkpt>
<trkpt lat="41.814205" lon="-1.818565">
<ele>1144.5</ele>
<speed>18.0</speed>
<course>298.6</course>
<desc>Speed 18.0 km/h Distance 16.04 km</desc>
<time>2011-09-24T10:45:48.72</time>
<name>4168</name>
</trkpt>
<trkpt lat="41.814227" lon="-1.818618">
<ele>1144.5</ele>
<speed>17.8</speed>
<course>297.9</course>
<desc>Speed 17.8 km/h Distance 16.05 km</desc>
<time>2011-09-24T10:45:49.71</time>
<name>4169</name>
</trkpt>
<trkpt lat="41.814248" lon="-1.818673">
<ele>1144.5</ele>
<speed>18.4</speed>
<course>292.1</course>
<desc>Speed 18.4 km/h Distance 16.05 km</desc>
<time>2011-09-24T10:45:50.71</time>
<name>4170</name>
</trkpt>
<trkpt lat="41.814265" lon="-1.818728">
<ele>1144.5</ele>
<speed>17.6</speed>
<course>283.0</course>
<desc>Speed 17.6 km/h Distance 16.06 km</desc>
<time>2011-09-24T10:45:51.72</time>
<name>4171</name>
</trkpt>
<trkpt lat="41.814275" lon="-1.818787">
<ele>1144.5</ele>
<speed>18.0</speed>
<course>280.0</course>
<desc>Speed 18.0 km/h Distance 16.06 km</desc>
<time>2011-09-24T10:45:52.71</time>
<name>4172</name>
</trkpt>
<trkpt lat="41.814283" lon="-1.818850">
<ele>1144.5</ele>
<speed>18.6</speed>
<course>273.9</course>
<desc>Speed 18.6 km/h Distance 16.07 km</desc>
<time>2011-09-24T10:45:53.72</time>
<name>4173</name>
</trkpt>
<trkpt lat="41.814287" lon="-1.818915">
<ele>1144.0</ele>
<speed>19.1</speed>
<course>273.9</course>
<desc>Speed 19.1 km/h Distance 16.07 km</desc>
<time>2011-09-24T10:45:54.71</time>
<name>4174</name>
</trkpt>
<trkpt lat="41.814290" lon="-1.818980">
<ele>1144.0</ele>
<speed>19.5</speed>
<course>275.3</course>
<desc>Speed 19.5 km/h Distance 16.08 km</desc>
<time>2011-09-24T10:45:55.71</time>
<name>4175</name>
</trkpt>
<trkpt lat="41.814295" lon="-1.819052">
<ele>1143.0</ele>
<speed>21.3</speed>
<course>273.3</course>
<desc>Speed 21.3 km/h Distance 16.09 km</desc>
<time>2011-09-24T10:45:56.71</time>
<name>4176</name>
</trkpt>
<trkpt lat="41.814298" lon="-1.819128">
<ele>1142.5</ele>
<speed>22.6</speed>
<course>279.1</course>
<desc>Speed 22.6 km/h Distance 16.09 km</desc>
<time>2011-09-24T10:45:57.71</time>
<name>4177</name>
</trkpt>
<trkpt lat="41.814308" lon="-1.819212">
<ele>1142.0</ele>
<speed>24.3</speed>
<course>273.0</course>
<desc>Speed 24.3 km/h Distance 16.10 km</desc>
<time>2011-09-24T10:45:58.70</time>
<name>4178</name>
</trkpt>
<trkpt lat="41.814312" lon="-1.819297">
<ele>1141.5</ele>
<speed>25.3</speed>
<course>277.1</course>
<desc>Speed 25.3 km/h Distance 16.11 km</desc>
<time>2011-09-24T10:45:59.70</time>
<name>4179</name>
</trkpt>
<trkpt lat="41.814320" lon="-1.819387">
<ele>1140.5</ele>
<speed>26.2</speed>
<course>271.4</course>
<desc>Speed 26.2 km/h Distance 16.11 km</desc>
<time>2011-09-24T10:46:00.71</time>
<name>4180</name>
</trkpt>
<trkpt lat="41.814322" lon="-1.819478">
<ele>1139.5</ele>
<speed>27.5</speed>
<course>271.3</course>
<desc>Speed 27.5 km/h Distance 16.12 km</desc>
<time>2011-09-24T10:46:01.71</time>
<name>4181</name>
</trkpt>
<trkpt lat="41.814323" lon="-1.819575">
<ele>1139.0</ele>
<speed>28.6</speed>
<course>268.7</course>
<desc>Speed 28.6 km/h Distance 16.13 km</desc>
<time>2011-09-24T10:46:02.71</time>
<name>4182</name>
</trkpt>
<trkpt lat="41.814322" lon="-1.819675">
<ele>1138.5</ele>
<speed>29.6</speed>
<course>270.0</course>
<desc>Speed 29.6 km/h Distance 16.14 km</desc>
<time>2011-09-24T10:46:03.70</time>
<name>4183</name>
</trkpt>
<trkpt lat="41.814322" lon="-1.819778">
<ele>1138.0</ele>
<speed>30.6</speed>
<course>272.5</course>
<desc>Speed 30.6 km/h Distance 16.15 km</desc>
<time>2011-09-24T10:46:04.70</time>
<name>4184</name>
</trkpt>
<trkpt lat="41.814325" lon="-1.819882">
<ele>1136.5</ele>
<speed>31.2</speed>
<course>271.2</course>
<desc>Speed 31.2 km/h Distance 16.15 km</desc>
<time>2011-09-24T10:46:05.70</time>
<name>4185</name>
</trkpt>
<trkpt lat="41.814327" lon="-1.819992">
<ele>1136.0</ele>
<speed>32.3</speed>
<course>268.8</course>
<desc>Speed 32.3 km/h Distance 16.16 km</desc>
<time>2011-09-24T10:46:06.70</time>
<name>4186</name>
</trkpt>
<trkpt lat="41.814325" lon="-1.820102">
<ele>1135.5</ele>
<speed>32.7</speed>
<course>271.2</course>
<desc>Speed 32.7 km/h Distance 16.17 km</desc>
<time>2011-09-24T10:46:07.69</time>
<name>4187</name>
</trkpt>
<trkpt lat="41.814327" lon="-1.820207">
<ele>1134.5</ele>
<speed>31.2</speed>
<course>276.9</course>
<desc>Speed 31.2 km/h Distance 16.18 km</desc>
<time>2011-09-24T10:46:08.69</time>
<name>4188</name>
</trkpt>
<trkpt lat="41.814337" lon="-1.820318">
<ele>1134.0</ele>
<speed>33.7</speed>
<course>280.5</course>
<desc>Speed 33.7 km/h Distance 16.19 km</desc>
<time>2011-09-24T10:46:09.69</time>
<name>4189</name>
</trkpt>
<trkpt lat="41.814352" lon="-1.820427">
<ele>1133.5</ele>
<speed>32.4</speed>
<course>298.0</course>
<desc>Speed 32.4 km/h Distance 16.20 km</desc>
<time>2011-09-24T10:46:10.69</time>
<name>4190</name>
</trkpt>
<trkpt lat="41.814393" lon="-1.820532">
<ele>1132.5</ele>
<speed>35.4</speed>
<course>306.1</course>
<desc>Speed 35.4 km/h Distance 16.21 km</desc>
<time>2011-09-24T10:46:11.69</time>
<name>4191</name>
</trkpt>
<trkpt lat="41.814445" lon="-1.820627">
<ele>1131.5</ele>
<speed>34.8</speed>
<course>307.7</course>
<desc>Speed 34.8 km/h Distance 16.22 km</desc>
<time>2011-09-24T10:46:12.69</time>
<name>4192</name>
</trkpt>
<trkpt lat="41.814502" lon="-1.820725">
<ele>1131.5</ele>
<speed>36.0</speed>
<course>308.5</course>
<desc>Speed 36.0 km/h Distance 16.23 km</desc>
<time>2011-09-24T10:46:13.70</time>
<name>4193</name>
</trkpt>
<trkpt lat="41.814560" lon="-1.820823">
<ele>1130.5</ele>
<speed>37.2</speed>
<course>307.7</course>
<desc>Speed 37.2 km/h Distance 16.24 km</desc>
<time>2011-09-24T10:46:14.70</time>
<name>4194</name>
</trkpt>
<trkpt lat="41.814617" lon="-1.820922">
<ele>1130.5</ele>
<speed>36.3</speed>
<course>311.1</course>
<desc>Speed 36.3 km/h Distance 16.25 km</desc>
<time>2011-09-24T10:46:15.70</time>
<name>4195</name>
</trkpt>
<trkpt lat="41.814682" lon="-1.821022">
<ele>1131.0</ele>
<speed>37.0</speed>
<course>310.8</course>
<desc>Speed 37.0 km/h Distance 16.26 km</desc>
<time>2011-09-24T10:46:16.69</time>
<name>4196</name>
</trkpt>
<trkpt lat="41.814745" lon="-1.821120">
<ele>1132.0</ele>
<speed>37.3</speed>
<course>314.0</course>
<desc>Speed 37.3 km/h Distance 16.27 km</desc>
<time>2011-09-24T10:46:17.68</time>
<name>4197</name>
</trkpt>
<trkpt lat="41.814813" lon="-1.821215">
<ele>1131.5</ele>
<speed>37.3</speed>
<course>312.6</course>
<desc>Speed 37.3 km/h Distance 16.28 km</desc>
<time>2011-09-24T10:46:18.69</time>
<name>4198</name>
</trkpt>
<trkpt lat="41.814878" lon="-1.821310">
<ele>1131.0</ele>
<speed>37.0</speed>
<course>310.0</course>
<desc>Speed 37.0 km/h Distance 16.29 km</desc>
<time>2011-09-24T10:46:19.68</time>
<name>4199</name>
</trkpt>
<trkpt lat="41.814937" lon="-1.821403">
<ele>1131.0</ele>
<speed>35.6</speed>
<course>309.7</course>
<desc>Speed 35.6 km/h Distance 16.30 km</desc>
<time>2011-09-24T10:46:20.68</time>
<name>4200</name>
</trkpt>
<trkpt lat="41.814993" lon="-1.821495">
<ele>1132.0</ele>
<speed>35.6</speed>
<course>315.2</course>
<desc>Speed 35.6 km/h Distance 16.31 km</desc>
<time>2011-09-24T10:46:21.68</time>
<name>4201</name>
</trkpt>
<trkpt lat="41.815058" lon="-1.821582">
<ele>1132.5</ele>
<speed>36.3</speed>
<course>320.9</course>
<desc>Speed 36.3 km/h Distance 16.32 km</desc>
<time>2011-09-24T10:46:22.68</time>
<name>4202</name>
</trkpt>
<trkpt lat="41.815133" lon="-1.821663">
<ele>1132.5</ele>
<speed>37.5</speed>
<course>319.9</course>
<desc>Speed 37.5 km/h Distance 16.34 km</desc>
<time>2011-09-24T10:46:23.68</time>
<name>4203</name>
</trkpt>
<trkpt lat="41.815198" lon="-1.821737">
<ele>1133.0</ele>
<speed>33.3</speed>
<course>324.6</course>
<desc>Speed 33.3 km/h Distance 16.34 km</desc>
<time>2011-09-24T10:46:24.69</time>
<name>4204</name>
</trkpt>
<trkpt lat="41.815272" lon="-1.821807">
<ele>1134.0</ele>
<speed>35.1</speed>
<course>334.4</course>
<desc>Speed 35.1 km/h Distance 16.35 km</desc>
<time>2011-09-24T10:46:25.68</time>
<name>4205</name>
</trkpt>
<trkpt lat="41.815365" lon="-1.821867">
<ele>1133.0</ele>
<speed>40.5</speed>
<course>336.9</course>
<desc>Speed 40.5 km/h Distance 16.37 km</desc>
<time>2011-09-24T10:46:26.68</time>
<name>4206</name>
</trkpt>
<trkpt lat="41.815447" lon="-1.821913">
<ele>1133.5</ele>
<speed>35.5</speed>
<course>339.6</course>
<desc>Speed 35.5 km/h Distance 16.38 km</desc>
<time>2011-09-24T10:46:27.67</time>
<name>4207</name>
</trkpt>
<trkpt lat="41.815530" lon="-1.821955">
<ele>1132.5</ele>
<speed>35.6</speed>
<course>343.7</course>
<desc>Speed 35.6 km/h Distance 16.39 km</desc>
<time>2011-09-24T10:46:28.68</time>
<name>4208</name>
</trkpt>
<trkpt lat="41.815607" lon="-1.821985">
<ele>1133.0</ele>
<speed>31.7</speed>
<course>342.2</course>
<desc>Speed 31.7 km/h Distance 16.40 km</desc>
<time>2011-09-24T10:46:29.67</time>
<name>4209</name>
</trkpt>
<trkpt lat="41.815680" lon="-1.822017">
<ele>1134.0</ele>
<speed>30.5</speed>
<course>336.2</course>
<desc>Speed 30.5 km/h Distance 16.40 km</desc>
<time>2011-09-24T10:46:30.67</time>
<name>4210</name>
</trkpt>
<trkpt lat="41.815753" lon="-1.822060">
<ele>1134.0</ele>
<speed>31.5</speed>
<course>345.0</course>
<desc>Speed 31.5 km/h Distance 16.41 km</desc>
<time>2011-09-24T10:46:31.68</time>
<name>4211</name>
</trkpt>
<trkpt lat="41.815837" lon="-1.822090">
<ele>1133.5</ele>
<speed>33.1</speed>
<course>345.2</course>
<desc>Speed 33.1 km/h Distance 16.42 km</desc>
<time>2011-09-24T10:46:32.67</time>
<name>4212</name>
</trkpt>
<trkpt lat="41.815912" lon="-1.822117">
<ele>1134.0</ele>
<speed>31.4</speed>
<course>347.6</course>
<desc>Speed 31.4 km/h Distance 16.43 km</desc>
<time>2011-09-24T10:46:33.68</time>
<name>4213</name>
</trkpt>
<trkpt lat="41.815985" lon="-1.822138">
<ele>1135.0</ele>
<speed>29.8</speed>
<course>346.0</course>
<desc>Speed 29.8 km/h Distance 16.44 km</desc>
<time>2011-09-24T10:46:34.67</time>
<name>4214</name>
</trkpt>
<trkpt lat="41.816060" lon="-1.822163">
<ele>1135.5</ele>
<speed>29.4</speed>
<course>346.9</course>
<desc>Speed 29.4 km/h Distance 16.45 km</desc>
<time>2011-09-24T10:46:35.67</time>
<name>4215</name>
</trkpt>
<trkpt lat="41.816140" lon="-1.822188">
<ele>1135.5</ele>
<speed>31.4</speed>
<course>345.7</course>
<desc>Speed 31.4 km/h Distance 16.46 km</desc>
<time>2011-09-24T10:46:36.67</time>
<name>4216</name>
</trkpt>
<trkpt lat="41.816218" lon="-1.822215">
<ele>1135.5</ele>
<speed>30.5</speed>
<course>347.9</course>
<desc>Speed 30.5 km/h Distance 16.47 km</desc>
<time>2011-09-24T10:46:37.67</time>
<name>4217</name>
</trkpt>
<trkpt lat="41.816328" lon="-1.822247">
<ele>1135.5</ele>
<speed>27.3</speed>
<course>355.3</course>
<desc>Speed 27.3 km/h Distance 16.48 km</desc>
<time>2011-09-24T10:46:39.67</time>
<name>4218</name>
</trkpt>
<trkpt lat="41.816403" lon="-1.822255">
<ele>1135.5</ele>
<speed>29.7</speed>
<course>359.1</course>
<desc>Speed 29.7 km/h Distance 16.49 km</desc>
<time>2011-09-24T10:46:40.67</time>
<name>4219</name>
</trkpt>
<trkpt lat="41.816475" lon="-1.822257">
<ele>1135.5</ele>
<speed>27.9</speed>
<course>358.1</course>
<desc>Speed 27.9 km/h Distance 16.49 km</desc>
<time>2011-09-24T10:46:41.67</time>
<name>4220</name>
</trkpt>
<trkpt lat="41.816547" lon="-1.822260">
<ele>1135.5</ele>
<speed>27.9</speed>
<course>356.8</course>
<desc>Speed 27.9 km/h Distance 16.50 km</desc>
<time>2011-09-24T10:46:42.67</time>
<name>4221</name>
</trkpt>
<trkpt lat="41.816613" lon="-1.822265">
<ele>1136.0</ele>
<speed>26.6</speed>
<course>355.9</course>
<desc>Speed 26.6 km/h Distance 16.51 km</desc>
<time>2011-09-24T10:46:43.66</time>
<name>4222</name>
</trkpt>
<trkpt lat="41.816683" lon="-1.822272">
<ele>1135.5</ele>
<speed>26.0</speed>
<course>356.3</course>
<desc>Speed 26.0 km/h Distance 16.52 km</desc>
<time>2011-09-24T10:46:44.67</time>
<name>4223</name>
</trkpt>
<trkpt lat="41.816742" lon="-1.822277">
<ele>1136.0</ele>
<speed>23.3</speed>
<course>358.9</course>
<desc>Speed 23.3 km/h Distance 16.52 km</desc>
<time>2011-09-24T10:46:45.67</time>
<name>4224</name>
</trkpt>
<trkpt lat="41.816800" lon="-1.822278">
<ele>1136.5</ele>
<speed>23.3</speed>
<course>358.5</course>
<desc>Speed 23.3 km/h Distance 16.53 km</desc>
<time>2011-09-24T10:46:46.67</time>
<name>4225</name>
</trkpt>
<trkpt lat="41.816853" lon="-1.822280">
<ele>1137.5</ele>
<speed>22.4</speed>
<course>356.3</course>
<desc>Speed 22.4 km/h Distance 16.54 km</desc>
<time>2011-09-24T10:46:47.66</time>
<name>4226</name>
</trkpt>
<trkpt lat="41.816910" lon="-1.822285">
<ele>1137.5</ele>
<speed>23.5</speed>
<course>352.1</course>
<desc>Speed 23.5 km/h Distance 16.54 km</desc>
<time>2011-09-24T10:46:48.66</time>
<name>4227</name>
</trkpt>
<trkpt lat="41.816955" lon="-1.822293">
<ele>1138.5</ele>
<speed>19.0</speed>
<course>350.9</course>
<desc>Speed 19.0 km/h Distance 16.55 km</desc>
<time>2011-09-24T10:46:49.66</time>
<name>4228</name>
</trkpt>
<trkpt lat="41.817002" lon="-1.822303">
<ele>1139.0</ele>
<speed>18.6</speed>
<course>350.3</course>
<desc>Speed 18.6 km/h Distance 16.55 km</desc>
<time>2011-09-24T10:46:50.67</time>
<name>4229</name>
</trkpt>
<trkpt lat="41.817060" lon="-1.822317">
<ele>1138.5</ele>
<speed>23.0</speed>
<course>351.8</course>
<desc>Speed 23.0 km/h Distance 16.56 km</desc>
<time>2011-09-24T10:46:51.66</time>
<name>4230</name>
</trkpt>
<trkpt lat="41.817112" lon="-1.822327">
<ele>1139.0</ele>
<speed>20.4</speed>
<course>350.0</course>
<desc>Speed 20.4 km/h Distance 16.57 km</desc>
<time>2011-09-24T10:46:52.66</time>
<name>4231</name>
</trkpt>
<trkpt lat="41.817168" lon="-1.822340">
<ele>1139.5</ele>
<speed>21.5</speed>
<course>346.1</course>
<desc>Speed 21.5 km/h Distance 16.57 km</desc>
<time>2011-09-24T10:46:53.65</time>
<name>4232</name>
</trkpt>
<trkpt lat="41.817228" lon="-1.822360">
<ele>1139.5</ele>
<speed>22.1</speed>
<course>328.8</course>
<desc>Speed 22.1 km/h Distance 16.58 km</desc>
<time>2011-09-24T10:46:54.66</time>
<name>4233</name>
</trkpt>
<trkpt lat="41.817282" lon="-1.822403">
<ele>1138.5</ele>
<speed>24.3</speed>
<course>317.0</course>
<desc>Speed 24.3 km/h Distance 16.59 km</desc>
<time>2011-09-24T10:46:55.66</time>
<name>4234</name>
</trkpt>
<trkpt lat="41.817322" lon="-1.822453">
<ele>1139.0</ele>
<speed>21.2</speed>
<course>315.2</course>
<desc>Speed 21.2 km/h Distance 16.59 km</desc>
<time>2011-09-24T10:46:56.65</time>
<name>4235</name>
</trkpt>
<trkpt lat="41.817362" lon="-1.822507">
<ele>1139.5</ele>
<speed>21.9</speed>
<course>307.5</course>
<desc>Speed 21.9 km/h Distance 16.60 km</desc>
<time>2011-09-24T10:46:57.65</time>
<name>4236</name>
</trkpt>
<trkpt lat="41.817395" lon="-1.822565">
<ele>1139.0</ele>
<speed>20.7</speed>
<course>306.0</course>
<desc>Speed 20.7 km/h Distance 16.60 km</desc>
<time>2011-09-24T10:46:58.65</time>
<name>4237</name>
</trkpt>
<trkpt lat="41.817428" lon="-1.822627">
<ele>1139.0</ele>
<speed>20.9</speed>
<course>300.4</course>
<desc>Speed 20.9 km/h Distance 16.61 km</desc>
<time>2011-09-24T10:46:59.65</time>
<name>4238</name>
</trkpt>
<trkpt lat="41.817452" lon="-1.822680">
<ele>1139.5</ele>
<speed>18.4</speed>
<course>264.3</course>
<desc>Speed 18.4 km/h Distance 16.62 km</desc>
<time>2011-09-24T10:47:00.65</time>
<name>4239</name>
</trkpt>
<trkpt lat="41.817448" lon="-1.822725">
<ele>1138.5</ele>
<speed>13.8</speed>
<course>308.2</course>
<desc>Speed 13.8 km/h Distance 16.62 km</desc>
<time>2011-09-24T10:47:01.66</time>
<name>4240</name>
</trkpt>
<trkpt lat="41.817505" lon="-1.822822">
<ele>1140.5</ele>
<speed>14.2</speed>
<course>294.1</course>
<desc>Speed 14.2 km/h Distance 16.63 km</desc>
<time>2011-09-24T10:47:03.65</time>
<name>4241</name>
</trkpt>
<trkpt lat="41.817518" lon="-1.822862">
<ele>1141.0</ele>
<speed>13.6</speed>
<course>293.2</course>
<desc>Speed 13.6 km/h Distance 16.63 km</desc>
<time>2011-09-24T10:47:04.65</time>
<name>4242</name>
</trkpt>
<trkpt lat="41.817532" lon="-1.822903">
<ele>1141.0</ele>
<speed>13.1</speed>
<course>289.3</course>
<desc>Speed 13.1 km/h Distance 16.64 km</desc>
<time>2011-09-24T10:47:05.65</time>
<name>4243</name>
</trkpt>
<trkpt lat="41.817542" lon="-1.822942">
<ele>1141.5</ele>
<speed>12.1</speed>
<course>286.3</course>
<desc>Speed 12.1 km/h Distance 16.64 km</desc>
<time>2011-09-24T10:47:06.65</time>
<name>4244</name>
</trkpt>
<trkpt lat="41.817550" lon="-1.822980">
<ele>1141.5</ele>
<speed>11.8</speed>
<course>199.4</course>
<desc>Speed 11.8 km/h Distance 16.64 km</desc>
<time>2011-09-24T10:47:07.65</time>
<name>4245</name>
</trkpt>
<trkpt lat="41.817522" lon="-1.822993">
<ele>1142.5</ele>
<speed>11.6</speed>
<course>230.8</course>
<desc>Speed 11.6 km/h Distance 16.65 km</desc>
<time>2011-09-24T10:47:08.65</time>
<name>4246</name>
</trkpt>
<trkpt lat="41.817498" lon="-1.823032">
<ele>1141.0</ele>
<speed>14.6</speed>
<course>229.7</course>
<desc>Speed 14.6 km/h Distance 16.65 km</desc>
<time>2011-09-24T10:47:09.65</time>
<name>4247</name>
</trkpt>
<trkpt lat="41.817478" lon="-1.823063">
<ele>1141.0</ele>
<speed>12.4</speed>
<course>215.1</course>
<desc>Speed 12.4 km/h Distance 16.66 km</desc>
<time>2011-09-24T10:47:10.64</time>
<name>4248</name>
</trkpt>
<trkpt lat="41.817448" lon="-1.823092">
<ele>1140.5</ele>
<speed>15.2</speed>
<course>299.9</course>
<desc>Speed 15.2 km/h Distance 16.66 km</desc>
<time>2011-09-24T10:47:11.65</time>
<name>4249</name>
</trkpt>
<trkpt lat="41.817468" lon="-1.823138">
<ele>1141.0</ele>
<speed>13.6</speed>
<course>311.3</course>
<desc>Speed 13.6 km/h Distance 16.66 km</desc>
<time>2011-09-24T10:47:12.64</time>
<name>4250</name>
</trkpt>
<trkpt lat="41.817500" lon="-1.823187">
<ele>1141.5</ele>
<speed>14.4</speed>
<course>297.3</course>
<desc>Speed 14.4 km/h Distance 16.67 km</desc>
<time>2011-09-24T10:47:13.64</time>
<name>4251</name>
</trkpt>
<trkpt lat="41.817517" lon="-1.823230">
<ele>1140.5</ele>
<speed>13.2</speed>
<course>295.6</course>
<desc>Speed 13.2 km/h Distance 16.67 km</desc>
<time>2011-09-24T10:47:14.65</time>
<name>4252</name>
</trkpt>
<trkpt lat="41.817533" lon="-1.823277">
<ele>1140.0</ele>
<speed>13.6</speed>
<course>296.4</course>
<desc>Speed 13.6 km/h Distance 16.68 km</desc>
<time>2011-09-24T10:47:15.64</time>
<name>4253</name>
</trkpt>
<trkpt lat="41.817550" lon="-1.823322">
<ele>1139.5</ele>
<speed>12.8</speed>
<course>295.6</course>
<desc>Speed 12.8 km/h Distance 16.68 km</desc>
<time>2011-09-24T10:47:16.64</time>
<name>4254</name>
</trkpt>
<trkpt lat="41.817567" lon="-1.823368">
<ele>1138.5</ele>
<speed>12.0</speed>
<course>294.1</course>
<desc>Speed 12.0 km/h Distance 16.69 km</desc>
<time>2011-09-24T10:47:17.64</time>
<name>4255</name>
</trkpt>
<trkpt lat="41.817583" lon="-1.823418">
<ele>1138.5</ele>
<speed>12.6</speed>
<course>278.8</course>
<desc>Speed 12.6 km/h Distance 16.69 km</desc>
<time>2011-09-24T10:47:18.64</time>
<name>4256</name>
</trkpt>
<trkpt lat="41.817588" lon="-1.823462">
<ele>1139.0</ele>
<speed>12.8</speed>
<course>289.9</course>
<desc>Speed 12.8 km/h Distance 16.69 km</desc>
<time>2011-09-24T10:47:19.64</time>
<name>4257</name>
</trkpt>
<trkpt lat="41.817600" lon="-1.823505">
<ele>1139.0</ele>
<speed>12.2</speed>
<course>291.7</course>
<desc>Speed 12.2 km/h Distance 16.70 km</desc>
<time>2011-09-24T10:47:20.64</time>
<name>4258</name>
</trkpt>
<trkpt lat="41.817613" lon="-1.823550">
<ele>1139.0</ele>
<speed>11.9</speed>
<course>255.9</course>
<desc>Speed 11.9 km/h Distance 16.70 km</desc>
<time>2011-09-24T10:47:21.63</time>
<name>4259</name>
</trkpt>
<trkpt lat="41.817608" lon="-1.823577">
<ele>1139.0</ele>
<speed>7.8</speed>
<course>281.4</course>
<desc>Speed 7.8 km/h Distance 16.70 km</desc>
<time>2011-09-24T10:47:22.63</time>
<name>4260</name>
</trkpt>
<trkpt lat="41.817613" lon="-1.823610">
<ele>1137.5</ele>
<speed>9.1</speed>
<course>279.9</course>
<desc>Speed 9.1 km/h Distance 16.71 km</desc>
<time>2011-09-24T10:47:23.65</time>
<name>4261</name>
</trkpt>
<trkpt lat="41.817618" lon="-1.823648">
<ele>1137.5</ele>
<speed>11.1</speed>
<course>278.5</course>
<desc>Speed 11.1 km/h Distance 16.71 km</desc>
<time>2011-09-24T10:47:24.64</time>
<name>4262</name>
</trkpt>
<trkpt lat="41.817623" lon="-1.823693">
<ele>1138.5</ele>
<speed>11.6</speed>
<course>280.9</course>
<desc>Speed 11.6 km/h Distance 16.71 km</desc>
<time>2011-09-24T10:47:25.63</time>
<name>4263</name>
</trkpt>
<trkpt lat="41.817630" lon="-1.823740">
<ele>1140.0</ele>
<speed>11.6</speed>
<course>245.1</course>
<desc>Speed 11.6 km/h Distance 16.72 km</desc>
<time>2011-09-24T10:47:26.63</time>
<name>4264</name>
</trkpt>
<trkpt lat="41.817615" lon="-1.823783">
<ele>1142.0</ele>
<speed>13.0</speed>
<course>277.6</course>
<desc>Speed 13.0 km/h Distance 16.72 km</desc>
<time>2011-09-24T10:47:27.63</time>
<name>4265</name>
</trkpt>
<trkpt lat="41.817618" lon="-1.823817">
<ele>1141.0</ele>
<speed>9.5</speed>
<course>289.9</course>
<desc>Speed 9.5 km/h Distance 16.72 km</desc>
<time>2011-09-24T10:47:28.63</time>
<name>4266</name>
</trkpt>
<trkpt lat="41.817630" lon="-1.823860">
<ele>1141.5</ele>
<speed>10.1</speed>
<course>278.8</course>
<desc>Speed 10.1 km/h Distance 16.73 km</desc>
<time>2011-09-24T10:47:29.63</time>
<name>4267</name>
</trkpt>
<trkpt lat="41.817635" lon="-1.823903">
<ele>1141.5</ele>
<speed>11.4</speed>
<course>307.7</course>
<desc>Speed 11.4 km/h Distance 16.73 km</desc>
<time>2011-09-24T10:47:30.63</time>
<name>4268</name>
</trkpt>
<trkpt lat="41.817660" lon="-1.823947">
<ele>1142.0</ele>
<speed>11.4</speed>
<course>284.5</course>
<desc>Speed 11.4 km/h Distance 16.74 km</desc>
<time>2011-09-24T10:47:31.63</time>
<name>4269</name>
</trkpt>
<trkpt lat="41.817668" lon="-1.823990">
<ele>1142.5</ele>
<speed>11.0</speed>
<course>307.8</course>
<desc>Speed 11.0 km/h Distance 16.74 km</desc>
<time>2011-09-24T10:47:32.63</time>
<name>4270</name>
</trkpt>
<trkpt lat="41.817693" lon="-1.824033">
<ele>1143.0</ele>
<speed>11.1</speed>
<course>291.4</course>
<desc>Speed 11.1 km/h Distance 16.74 km</desc>
<time>2011-09-24T10:47:33.63</time>
<name>4271</name>
</trkpt>
<trkpt lat="41.817705" lon="-1.824073">
<ele>1142.5</ele>
<speed>11.7</speed>
<course>293.2</course>
<desc>Speed 11.7 km/h Distance 16.75 km</desc>
<time>2011-09-24T10:47:34.62</time>
<name>4272</name>
</trkpt>
<trkpt lat="41.817718" lon="-1.824115">
<ele>1141.5</ele>
<speed>11.6</speed>
<course>300.3</course>
<desc>Speed 11.6 km/h Distance 16.75 km</desc>
<time>2011-09-24T10:47:35.63</time>
<name>4273</name>
</trkpt>
<trkpt lat="41.817735" lon="-1.824153">
<ele>1141.0</ele>
<speed>10.9</speed>
<course>287.7</course>
<desc>Speed 10.9 km/h Distance 16.76 km</desc>
<time>2011-09-24T10:47:36.62</time>
<name>4274</name>
</trkpt>
<trkpt lat="41.817743" lon="-1.824188">
<ele>1140.5</ele>
<speed>9.3</speed>
<course>302.5</course>
<desc>Speed 9.3 km/h Distance 16.76 km</desc>
<time>2011-09-24T10:47:37.62</time>
<name>4275</name>
</trkpt>
<trkpt lat="41.817758" lon="-1.824220">
<ele>1139.5</ele>
<speed>8.1</speed>
<course>298.9</course>
<desc>Speed 8.1 km/h Distance 16.76 km</desc>
<time>2011-09-24T10:47:38.63</time>
<name>4276</name>
</trkpt>
<trkpt lat="41.817770" lon="-1.824248">
<ele>1139.0</ele>
<speed>7.4</speed>
<course>287.5</course>
<desc>Speed 7.4 km/h Distance 16.76 km</desc>
<time>2011-09-24T10:47:39.63</time>
<name>4277</name>
</trkpt>
<trkpt lat="41.817777" lon="-1.824277">
<ele>1138.0</ele>
<speed>7.9</speed>
<course>285.0</course>
<desc>Speed 7.9 km/h Distance 16.77 km</desc>
<time>2011-09-24T10:47:40.62</time>
<name>4278</name>
</trkpt>
<trkpt lat="41.817783" lon="-1.824310">
<ele>1137.5</ele>
<speed>9.0</speed>
<course>291.0</course>
<desc>Speed 9.0 km/h Distance 16.77 km</desc>
<time>2011-09-24T10:47:41.62</time>
<name>4279</name>
</trkpt>
<trkpt lat="41.817793" lon="-1.824345">
<ele>1137.0</ele>
<speed>9.5</speed>
<course>273.7</course>
<desc>Speed 9.5 km/h Distance 16.77 km</desc>
<time>2011-09-24T10:47:42.62</time>
<name>4280</name>
</trkpt>
<trkpt lat="41.817795" lon="-1.824380">
<ele>1137.0</ele>
<speed>10.2</speed>
<course>270.0</course>
<desc>Speed 10.2 km/h Distance 16.78 km</desc>
<time>2011-09-24T10:47:43.62</time>
<name>4281</name>
</trkpt>
<trkpt lat="41.817795" lon="-1.824418">
<ele>1138.5</ele>
<speed>10.5</speed>
<course>266.5</course>
<desc>Speed 10.5 km/h Distance 16.78 km</desc>
<time>2011-09-24T10:47:44.62</time>
<name>4282</name>
</trkpt>
<trkpt lat="41.817793" lon="-1.824455">
<ele>1139.5</ele>
<speed>10.4</speed>
<course>279.9</course>
<desc>Speed 10.4 km/h Distance 16.78 km</desc>
<time>2011-09-24T10:47:45.62</time>
<name>4283</name>
</trkpt>
<trkpt lat="41.817798" lon="-1.824493">
<ele>1139.5</ele>
<speed>10.8</speed>
<course>266.7</course>
<desc>Speed 10.8 km/h Distance 16.79 km</desc>
<time>2011-09-24T10:47:46.62</time>
<name>4284</name>
</trkpt>
<trkpt lat="41.817797" lon="-1.824532">
<ele>1141.5</ele>
<speed>10.2</speed>
<course>273.7</course>
<desc>Speed 10.2 km/h Distance 16.79 km</desc>
<time>2011-09-24T10:47:47.62</time>
<name>4285</name>
</trkpt>
<trkpt lat="41.817798" lon="-1.824567">
<ele>1142.0</ele>
<speed>10.5</speed>
<course>266.3</course>
<desc>Speed 10.5 km/h Distance 16.79 km</desc>
<time>2011-09-24T10:47:48.62</time>
<name>4286</name>
</trkpt>
<trkpt lat="41.817797" lon="-1.824602">
<ele>1142.5</ele>
<speed>10.8</speed>
<course>255.5</course>
<desc>Speed 10.8 km/h Distance 16.79 km</desc>
<time>2011-09-24T10:47:49.62</time>
<name>4287</name>
</trkpt>
<trkpt lat="41.817788" lon="-1.824645">
<ele>1144.0</ele>
<speed>11.4</speed>
<course>270.0</course>
<desc>Speed 11.4 km/h Distance 16.80 km</desc>
<time>2011-09-24T10:47:50.61</time>
<name>4288</name>
</trkpt>
<trkpt lat="41.817788" lon="-1.824680">
<ele>1143.5</ele>
<speed>11.2</speed>
<course>258.0</course>
<desc>Speed 11.2 km/h Distance 16.80 km</desc>
<time>2011-09-24T10:47:51.61</time>
<name>4289</name>
</trkpt>
<trkpt lat="41.817783" lon="-1.824712">
<ele>1143.5</ele>
<speed>11.4</speed>
<course>228.2</course>
<desc>Speed 11.4 km/h Distance 16.80 km</desc>
<time>2011-09-24T10:47:52.62</time>
<name>4290</name>
</trkpt>
<trkpt lat="41.817767" lon="-1.824737">
<ele>1143.5</ele>
<speed>10.4</speed>
<course>219.7</course>
<desc>Speed 10.4 km/h Distance 16.81 km</desc>
<time>2011-09-24T10:47:53.61</time>
<name>4291</name>
</trkpt>
<trkpt lat="41.817752" lon="-1.824753">
<ele>1142.0</ele>
<speed>8.0</speed>
<course>188.2</course>
<desc>Speed 8.0 km/h Distance 16.81 km</desc>
<time>2011-09-24T10:47:54.61</time>
<name>4292</name>
</trkpt>
<trkpt lat="41.817735" lon="-1.824757">
<ele>1141.5</ele>
<speed>8.4</speed>
<course>187.0</course>
<desc>Speed 8.4 km/h Distance 16.81 km</desc>
<time>2011-09-24T10:47:55.61</time>
<name>4293</name>
</trkpt>
<trkpt lat="41.817717" lon="-1.824760">
<ele>1141.5</ele>
<speed>9.6</speed>
<course>174.7</course>
<desc>Speed 9.6 km/h Distance 16.81 km</desc>
<time>2011-09-24T10:47:56.62</time>
<name>4294</name>
</trkpt>
<trkpt lat="41.817703" lon="-1.824758">
<ele>1140.0</ele>
<speed>7.3</speed>
<course>172.1</course>
<desc>Speed 7.3 km/h Distance 16.81 km</desc>
<time>2011-09-24T10:47:57.62</time>
<name>4295</name>
</trkpt>
<trkpt lat="41.817685" lon="-1.824755">
<ele>1140.5</ele>
<speed>7.1</speed>
<course>163.4</course>
<desc>Speed 7.1 km/h Distance 16.82 km</desc>
<time>2011-09-24T10:47:58.61</time>
<name>4296</name>
</trkpt>
<trkpt lat="41.817660" lon="-1.824745">
<ele>1141.5</ele>
<speed>10.7</speed>
<course>149.7</course>
<desc>Speed 10.7 km/h Distance 16.82 km</desc>
<time>2011-09-24T10:47:59.61</time>
<name>4297</name>
</trkpt>
<trkpt lat="41.817645" lon="-1.824733">
<ele>1142.5</ele>
<speed>7.4</speed>
<course>158.1</course>
<desc>Speed 7.4 km/h Distance 16.82 km</desc>
<time>2011-09-24T10:48:00.61</time>
<name>4298</name>
</trkpt>
<trkpt lat="41.817623" lon="-1.824722">
<ele>1142.0</ele>
<speed>9.5</speed>
<course>155.3</course>
<desc>Speed 9.5 km/h Distance 16.82 km</desc>
<time>2011-09-24T10:48:01.60</time>
<name>4299</name>
</trkpt>
<trkpt lat="41.817602" lon="-1.824708">
<ele>1142.0</ele>
<speed>10.8</speed>
<course>129.5</course>
<desc>Speed 10.8 km/h Distance 16.83 km</desc>
<time>2011-09-24T10:48:02.60</time>
<name>4300</name>
</trkpt>
<trkpt lat="41.817588" lon="-1.824687">
<ele>1142.0</ele>
<speed>10.3</speed>
<course>150.2</course>
<desc>Speed 10.3 km/h Distance 16.83 km</desc>
<time>2011-09-24T10:48:03.60</time>
<name>4301</name>
</trkpt>
<trkpt lat="41.817567" lon="-1.824670">
<ele>1142.0</ele>
<speed>10.0</speed>
<course>140.9</course>
<desc>Speed 10.0 km/h Distance 16.83 km</desc>
<time>2011-09-24T10:48:04.60</time>
<name>4302</name>
</trkpt>
<trkpt lat="41.817548" lon="-1.824650">
<ele>1143.5</ele>
<speed>10.3</speed>
<course>140.3</course>
<desc>Speed 10.3 km/h Distance 16.83 km</desc>
<time>2011-09-24T10:48:05.60</time>
<name>4303</name>
</trkpt>
<trkpt lat="41.817533" lon="-1.824633">
<ele>1143.5</ele>
<speed>8.4</speed>
<course>143.3</course>
<desc>Speed 8.4 km/h Distance 16.84 km</desc>
<time>2011-09-24T10:48:06.60</time>
<name>4304</name>
</trkpt>
<trkpt lat="41.817518" lon="-1.824618">
<ele>1144.5</ele>
<speed>8.3</speed>
<course>130.5</course>
<desc>Speed 8.3 km/h Distance 16.84 km</desc>
<time>2011-09-24T10:48:07.60</time>
<name>4305</name>
</trkpt>
<trkpt lat="41.817507" lon="-1.824600">
<ele>1145.0</ele>
<speed>8.6</speed>
<course>148.1</course>
<desc>Speed 8.6 km/h Distance 16.84 km</desc>
<time>2011-09-24T10:48:08.60</time>
<name>4306</name>
</trkpt>
<trkpt lat="41.817487" lon="-1.824583">
<ele>1145.0</ele>
<speed>9.3</speed>
<course>130.8</course>
<desc>Speed 9.3 km/h Distance 16.84 km</desc>
<time>2011-09-24T10:48:09.60</time>
<name>4307</name>
</trkpt>
<trkpt lat="41.817472" lon="-1.824560">
<ele>1144.0</ele>
<speed>8.9</speed>
<course>139.0</course>
<desc>Speed 8.9 km/h Distance 16.85 km</desc>
<time>2011-09-24T10:48:10.60</time>
<name>4308</name>
</trkpt>
<trkpt lat="41.817452" lon="-1.824537">
<ele>1145.0</ele>
<speed>10.5</speed>
<course>127.4</course>
<desc>Speed 10.5 km/h Distance 16.85 km</desc>
<time>2011-09-24T10:48:11.60</time>
<name>4309</name>
</trkpt>
<trkpt lat="41.817438" lon="-1.824513">
<ele>1145.0</ele>
<speed>9.3</speed>
<course>145.8</course>
<desc>Speed 9.3 km/h Distance 16.85 km</desc>
<time>2011-09-24T10:48:12.60</time>
<name>4310</name>
</trkpt>
<trkpt lat="41.817420" lon="-1.824497">
<ele>1145.0</ele>
<speed>8.5</speed>
<course>155.3</course>
<desc>Speed 8.5 km/h Distance 16.85 km</desc>
<time>2011-09-24T10:48:13.60</time>
<name>4311</name>
</trkpt>
<trkpt lat="41.817398" lon="-1.824483">
<ele>1145.0</ele>
<speed>10.1</speed>
<course>148.5</course>
<desc>Speed 10.1 km/h Distance 16.86 km</desc>
<time>2011-09-24T10:48:14.61</time>
<name>4312</name>
</trkpt>
<trkpt lat="41.817380" lon="-1.824468">
<ele>1145.0</ele>
<speed>8.7</speed>
<course>127.4</course>
<desc>Speed 8.7 km/h Distance 16.86 km</desc>
<time>2011-09-24T10:48:15.60</time>
<name>4313</name>
</trkpt>
<trkpt lat="41.817367" lon="-1.824445">
<ele>1145.0</ele>
<speed>8.8</speed>
<course>123.9</course>
<desc>Speed 8.8 km/h Distance 16.86 km</desc>
<time>2011-09-24T10:48:16.60</time>
<name>4314</name>
</trkpt>
<trkpt lat="41.817357" lon="-1.824425">
<ele>1143.5</ele>
<speed>6.8</speed>
<course>127.5</course>
<desc>Speed 6.8 km/h Distance 16.86 km</desc>
<time>2011-09-24T10:48:17.59</time>
<name>4315</name>
</trkpt>
<trkpt lat="41.817343" lon="-1.824402">
<ele>1144.0</ele>
<speed>8.6</speed>
<course>155.9</course>
<desc>Speed 8.6 km/h Distance 16.87 km</desc>
<time>2011-09-24T10:48:18.60</time>
<name>4316</name>
</trkpt>
<trkpt lat="41.817310" lon="-1.824382">
<ele>1146.0</ele>
<speed>8.9</speed>
<course>149.2</course>
<desc>Speed 8.9 km/h Distance 16.87 km</desc>
<time>2011-09-24T10:48:19.60</time>
<name>4317</name>
</trkpt>
<trkpt lat="41.817285" lon="-1.824362">
<ele>1146.0</ele>
<speed>12.1</speed>
<course>145.6</course>
<desc>Speed 12.1 km/h Distance 16.87 km</desc>
<time>2011-09-24T10:48:20.60</time>
<name>4318</name>
</trkpt>
<trkpt lat="41.817265" lon="-1.824343">
<ele>1145.0</ele>
<speed>9.5</speed>
<course>156.6</course>
<desc>Speed 9.5 km/h Distance 16.88 km</desc>
<time>2011-09-24T10:48:21.59</time>
<name>4319</name>
</trkpt>
<trkpt lat="41.817245" lon="-1.824332">
<ele>1143.0</ele>
<speed>8.2</speed>
<course>143.3</course>
<desc>Speed 8.2 km/h Distance 16.88 km</desc>
<time>2011-09-24T10:48:22.59</time>
<name>4320</name>
</trkpt>
<trkpt lat="41.817225" lon="-1.824312">
<ele>1143.0</ele>
<speed>9.9</speed>
<course>143.3</course>
<desc>Speed 9.9 km/h Distance 16.88 km</desc>
<time>2011-09-24T10:48:23.59</time>
<name>4321</name>
</trkpt>
<trkpt lat="41.817205" lon="-1.824292">
<ele>1143.0</ele>
<speed>10.6</speed>
<course>147.5</course>
<desc>Speed 10.6 km/h Distance 16.88 km</desc>
<time>2011-09-24T10:48:24.60</time>
<name>4322</name>
</trkpt>
<trkpt lat="41.817182" lon="-1.824272">
<ele>1143.0</ele>
<speed>10.7</speed>
<course>152.0</course>
<desc>Speed 10.7 km/h Distance 16.89 km</desc>
<time>2011-09-24T10:48:25.59</time>
<name>4323</name>
</trkpt>
<trkpt lat="41.817158" lon="-1.824255">
<ele>1143.0</ele>
<speed>9.9</speed>
<course>158.5</course>
<desc>Speed 9.9 km/h Distance 16.89 km</desc>
<time>2011-09-24T10:48:26.60</time>
<name>4324</name>
</trkpt>
<trkpt lat="41.817130" lon="-1.824240">
<ele>1143.5</ele>
<speed>9.8</speed>
<course>151.9</course>
<desc>Speed 9.8 km/h Distance 16.89 km</desc>
<time>2011-09-24T10:48:27.59</time>
<name>4325</name>
</trkpt>
<trkpt lat="41.817107" lon="-1.824223">
<ele>1142.5</ele>
<speed>10.3</speed>
<course>156.3</course>
<desc>Speed 10.3 km/h Distance 16.90 km</desc>
<time>2011-09-24T10:48:28.59</time>
<name>4326</name>
</trkpt>
<trkpt lat="41.817078" lon="-1.824207">
<ele>1144.0</ele>
<speed>10.1</speed>
<course>158.5</course>
<desc>Speed 10.1 km/h Distance 16.90 km</desc>
<time>2011-09-24T10:48:29.59</time>
<name>4327</name>
</trkpt>
<trkpt lat="41.817050" lon="-1.824192">
<ele>1144.5</ele>
<speed>10.0</speed>
<course>157.0</course>
<desc>Speed 10.0 km/h Distance 16.90 km</desc>
<time>2011-09-24T10:48:30.58</time>
<name>4328</name>
</trkpt>
<trkpt lat="41.817027" lon="-1.824178">
<ele>1144.0</ele>
<speed>9.6</speed>
<course>159.5</course>
<desc>Speed 9.6 km/h Distance 16.91 km</desc>
<time>2011-09-24T10:48:31.58</time>
<name>4329</name>
</trkpt>
<trkpt lat="41.817003" lon="-1.824167">
<ele>1144.0</ele>
<speed>9.4</speed>
<course>161.0</course>
<desc>Speed 9.4 km/h Distance 16.91 km</desc>
<time>2011-09-24T10:48:32.58</time>
<name>4330</name>
</trkpt>
<trkpt lat="41.816982" lon="-1.824157">
<ele>1143.5</ele>
<speed>9.3</speed>
<course>161.9</course>
<desc>Speed 9.3 km/h Distance 16.91 km</desc>
<time>2011-09-24T10:48:33.59</time>
<name>4331</name>
</trkpt>
<trkpt lat="41.816955" lon="-1.824145">
<ele>1144.0</ele>
<speed>10.5</speed>
<course>164.4</course>
<desc>Speed 10.5 km/h Distance 16.91 km</desc>
<time>2011-09-24T10:48:34.58</time>
<name>4332</name>
</trkpt>
<trkpt lat="41.816928" lon="-1.824135">
<ele>1144.5</ele>
<speed>10.3</speed>
<course>169.9</course>
<desc>Speed 10.3 km/h Distance 16.92 km</desc>
<time>2011-09-24T10:48:35.58</time>
<name>4333</name>
</trkpt>
<trkpt lat="41.816900" lon="-1.824128">
<ele>1145.5</ele>
<speed>11.1</speed>
<course>169.4</course>
<desc>Speed 11.1 km/h Distance 16.92 km</desc>
<time>2011-09-24T10:48:36.58</time>
<name>4334</name>
</trkpt>
<trkpt lat="41.816873" lon="-1.824122">
<ele>1146.0</ele>
<speed>11.5</speed>
<course>175.2</course>
<desc>Speed 11.5 km/h Distance 16.92 km</desc>
<time>2011-09-24T10:48:37.57</time>
<name>4335</name>
</trkpt>
<trkpt lat="41.816845" lon="-1.824118">
<ele>1146.0</ele>
<speed>11.1</speed>
<course>178.6</course>
<desc>Speed 11.1 km/h Distance 16.93 km</desc>
<time>2011-09-24T10:48:38.57</time>
<name>4336</name>
</trkpt>
<trkpt lat="41.816817" lon="-1.824117">
<ele>1146.5</ele>
<speed>11.3</speed>
<course>174.7</course>
<desc>Speed 11.3 km/h Distance 16.93 km</desc>
<time>2011-09-24T10:48:39.58</time>
<name>4337</name>
</trkpt>
<trkpt lat="41.816790" lon="-1.824113">
<ele>1146.0</ele>
<speed>10.7</speed>
<course>186.3</course>
<desc>Speed 10.7 km/h Distance 16.93 km</desc>
<time>2011-09-24T10:48:40.58</time>
<name>4338</name>
</trkpt>
<trkpt lat="41.816767" lon="-1.824117">
<ele>1145.5</ele>
<speed>9.6</speed>
<course>196.6</course>
<desc>Speed 9.6 km/h Distance 16.93 km</desc>
<time>2011-09-24T10:48:41.58</time>
<name>4339</name>
</trkpt>
<trkpt lat="41.816742" lon="-1.824127">
<ele>1146.0</ele>
<speed>10.0</speed>
<course>214.0</course>
<desc>Speed 10.0 km/h Distance 16.94 km</desc>
<time>2011-09-24T10:48:42.57</time>
<name>4340</name>
</trkpt>
<trkpt lat="41.816725" lon="-1.824142">
<ele>1145.5</ele>
<speed>8.5</speed>
<course>221.4</course>
<desc>Speed 8.5 km/h Distance 16.94 km</desc>
<time>2011-09-24T10:48:43.57</time>
<name>4341</name>
</trkpt>
<trkpt lat="41.816707" lon="-1.824163">
<ele>1146.0</ele>
<speed>9.3</speed>
<course>236.2</course>
<desc>Speed 9.3 km/h Distance 16.94 km</desc>
<time>2011-09-24T10:48:44.58</time>
<name>4342</name>
</trkpt>
<trkpt lat="41.816695" lon="-1.824187">
<ele>1145.5</ele>
<speed>8.7</speed>
<course>239.6</course>
<desc>Speed 8.7 km/h Distance 16.95 km</desc>
<time>2011-09-24T10:48:45.58</time>
<name>4343</name>
</trkpt>
<trkpt lat="41.816683" lon="-1.824213">
<ele>1145.5</ele>
<speed>9.1</speed>
<course>255.0</course>
<desc>Speed 9.1 km/h Distance 16.95 km</desc>
<time>2011-09-24T10:48:46.58</time>
<name>4344</name>
</trkpt>
<trkpt lat="41.816678" lon="-1.824238">
<ele>1144.5</ele>
<speed>7.7</speed>
<course>264.5</course>
<desc>Speed 7.7 km/h Distance 16.95 km</desc>
<time>2011-09-24T10:48:47.57</time>
<name>4345</name>
</trkpt>
<trkpt lat="41.816677" lon="-1.824262">
<ele>1145.0</ele>
<speed>8.1</speed>
<course>282.6</course>
<desc>Speed 8.1 km/h Distance 16.95 km</desc>
<time>2011-09-24T10:48:48.57</time>
<name>4346</name>
</trkpt>
<trkpt lat="41.816682" lon="-1.824292">
<ele>1145.0</ele>
<speed>9.9</speed>
<course>285.0</course>
<desc>Speed 9.9 km/h Distance 16.95 km</desc>
<time>2011-09-24T10:48:49.57</time>
<name>4347</name>
</trkpt>
<trkpt lat="41.816688" lon="-1.824325">
<ele>1146.0</ele>
<speed>10.5</speed>
<course>296.3</course>
<desc>Speed 10.5 km/h Distance 16.96 km</desc>
<time>2011-09-24T10:48:50.57</time>
<name>4348</name>
</trkpt>
<trkpt lat="41.816700" lon="-1.824357">
<ele>1147.5</ele>
<speed>11.0</speed>
<course>310.5</course>
<desc>Speed 11.0 km/h Distance 16.96 km</desc>
<time>2011-09-24T10:48:51.56</time>
<name>4349</name>
</trkpt>
<trkpt lat="41.816712" lon="-1.824375">
<ele>1146.5</ele>
<speed>7.6</speed>
<course>323.3</course>
<desc>Speed 7.6 km/h Distance 16.96 km</desc>
<time>2011-09-24T10:48:52.57</time>
<name>4350</name>
</trkpt>
<trkpt lat="41.816730" lon="-1.824393">
<ele>1146.0</ele>
<speed>9.5</speed>
<course>312.9</course>
<desc>Speed 9.5 km/h Distance 16.96 km</desc>
<time>2011-09-24T10:48:53.57</time>
<name>4351</name>
</trkpt>
<trkpt lat="41.816745" lon="-1.824415">
<ele>1145.0</ele>
<speed>9.6</speed>
<course>301.8</course>
<desc>Speed 9.6 km/h Distance 16.97 km</desc>
<time>2011-09-24T10:48:54.57</time>
<name>4352</name>
</trkpt>
<trkpt lat="41.816755" lon="-1.824437">
<ele>1145.0</ele>
<speed>7.8</speed>
<course>312.8</course>
<desc>Speed 7.8 km/h Distance 16.97 km</desc>
<time>2011-09-24T10:48:55.57</time>
<name>4353</name>
</trkpt>
<trkpt lat="41.816770" lon="-1.824458">
<ele>1144.5</ele>
<speed>8.6</speed>
<course>299.9</course>
<desc>Speed 8.6 km/h Distance 16.97 km</desc>
<time>2011-09-24T10:48:56.56</time>
<name>4354</name>
</trkpt>
<trkpt lat="41.816780" lon="-1.824482">
<ele>1145.5</ele>
<speed>8.9</speed>
<course>291.5</course>
<desc>Speed 8.9 km/h Distance 16.97 km</desc>
<time>2011-09-24T10:48:57.56</time>
<name>4355</name>
</trkpt>
<trkpt lat="41.816788" lon="-1.824510">
<ele>1147.0</ele>
<speed>9.0</speed>
<course>281.4</course>
<desc>Speed 9.0 km/h Distance 16.98 km</desc>
<time>2011-09-24T10:48:58.56</time>
<name>4356</name>
</trkpt>
<trkpt lat="41.816793" lon="-1.824543">
<ele>1148.0</ele>
<speed>9.9</speed>
<course>278.5</course>
<desc>Speed 9.9 km/h Distance 16.98 km</desc>
<time>2011-09-24T10:48:59.56</time>
<name>4357</name>
</trkpt>
<trkpt lat="41.816797" lon="-1.824573">
<ele>1149.5</ele>
<speed>9.2</speed>
<course>296.3</course>
<desc>Speed 9.2 km/h Distance 16.98 km</desc>
<time>2011-09-24T10:49:00.55</time>
<name>4358</name>
</trkpt>
<trkpt lat="41.816808" lon="-1.824605">
<ele>1150.5</ele>
<speed>10.5</speed>
<course>308.8</course>
<desc>Speed 10.5 km/h Distance 16.98 km</desc>
<time>2011-09-24T10:49:01.56</time>
<name>4359</name>
</trkpt>
<trkpt lat="41.816828" lon="-1.824638">
<ele>1151.0</ele>
<speed>13.1</speed>
<course>301.4</course>
<desc>Speed 13.1 km/h Distance 16.99 km</desc>
<time>2011-09-24T10:49:02.56</time>
<name>4360</name>
</trkpt>
<trkpt lat="41.816845" lon="-1.824675">
<ele>1152.0</ele>
<speed>12.9</speed>
<course>306.2</course>
<desc>Speed 12.9 km/h Distance 16.99 km</desc>
<time>2011-09-24T10:49:03.56</time>
<name>4361</name>
</trkpt>
<trkpt lat="41.816865" lon="-1.824712">
<ele>1151.5</ele>
<speed>13.5</speed>
<course>302.1</course>
<desc>Speed 13.5 km/h Distance 17.00 km</desc>
<time>2011-09-24T10:49:04.56</time>
<name>4362</name>
</trkpt>
<trkpt lat="41.816877" lon="-1.824737">
<ele>1150.0</ele>
<speed>9.1</speed>
<course>305.6</course>
<desc>Speed 9.1 km/h Distance 17.00 km</desc>
<time>2011-09-24T10:49:05.56</time>
<name>4363</name>
</trkpt>
<trkpt lat="41.816890" lon="-1.824762">
<ele>1148.5</ele>
<speed>8.4</speed>
<course>298.8</course>
<desc>Speed 8.4 km/h Distance 17.00 km</desc>
<time>2011-09-24T10:49:06.55</time>
<name>4364</name>
</trkpt>
<trkpt lat="41.816905" lon="-1.824798">
<ele>1148.0</ele>
<speed>12.5</speed>
<course>281.7</course>
<desc>Speed 12.5 km/h Distance 17.00 km</desc>
<time>2011-09-24T10:49:07.55</time>
<name>4365</name>
</trkpt>
<trkpt lat="41.816908" lon="-1.824820">
<ele>1148.0</ele>
<speed>6.2</speed>
<course>297.3</course>
<desc>Speed 6.2 km/h Distance 17.01 km</desc>
<time>2011-09-24T10:49:08.55</time>
<name>4366</name>
</trkpt>
<trkpt lat="41.816917" lon="-1.824842">
<ele>1147.0</ele>
<speed>6.8</speed>
<course>302.1</course>
<desc>Speed 6.8 km/h Distance 17.01 km</desc>
<time>2011-09-24T10:49:09.55</time>
<name>4367</name>
</trkpt>
<trkpt lat="41.816928" lon="-1.824867">
<ele>1145.0</ele>
<speed>8.9</speed>
<course>295.3</course>
<desc>Speed 8.9 km/h Distance 17.01 km</desc>
<time>2011-09-24T10:49:10.54</time>
<name>4368</name>
</trkpt>
<trkpt lat="41.816938" lon="-1.824895">
<ele>1143.5</ele>
<speed>8.6</speed>
<course>297.5</course>
<desc>Speed 8.6 km/h Distance 17.01 km</desc>
<time>2011-09-24T10:49:11.54</time>
<name>4369</name>
</trkpt>
<trkpt lat="41.816950" lon="-1.824925">
<ele>1142.0</ele>
<speed>9.4</speed>
<course>291.0</course>
<desc>Speed 9.4 km/h Distance 17.02 km</desc>
<time>2011-09-24T10:49:12.55</time>
<name>4370</name>
</trkpt>
<trkpt lat="41.816960" lon="-1.824960">
<ele>1141.5</ele>
<speed>9.9</speed>
<course>285.6</course>
<desc>Speed 9.9 km/h Distance 17.02 km</desc>
<time>2011-09-24T10:49:13.54</time>
<name>4371</name>
</trkpt>
<trkpt lat="41.816968" lon="-1.825000">
<ele>1141.5</ele>
<speed>10.5</speed>
<course>305.8</course>
<desc>Speed 10.5 km/h Distance 17.02 km</desc>
<time>2011-09-24T10:49:14.55</time>
<name>4372</name>
</trkpt>
<trkpt lat="41.816992" lon="-1.825043">
<ele>1141.5</ele>
<speed>12.7</speed>
<course>286.3</course>
<desc>Speed 12.7 km/h Distance 17.03 km</desc>
<time>2011-09-24T10:49:15.54</time>
<name>4373</name>
</trkpt>
<trkpt lat="41.817000" lon="-1.825082">
<ele>1142.5</ele>
<speed>11.2</speed>
<course>323.3</course>
<desc>Speed 11.2 km/h Distance 17.03 km</desc>
<time>2011-09-24T10:49:16.54</time>
<name>4374</name>
</trkpt>
<trkpt lat="41.817025" lon="-1.825107">
<ele>1139.5</ele>
<speed>8.7</speed>
<course>286.6</course>
<desc>Speed 8.7 km/h Distance 17.03 km</desc>
<time>2011-09-24T10:49:17.54</time>
<name>4375</name>
</trkpt>
<trkpt lat="41.817032" lon="-1.825137">
<ele>1138.5</ele>
<speed>8.6</speed>
<course>283.5</course>
<desc>Speed 8.6 km/h Distance 17.04 km</desc>
<time>2011-09-24T10:49:18.55</time>
<name>4376</name>
</trkpt>
<trkpt lat="41.817040" lon="-1.825183">
<ele>1139.0</ele>
<speed>13.2</speed>
<course>278.8</course>
<desc>Speed 13.2 km/h Distance 17.04 km</desc>
<time>2011-09-24T10:49:19.54</time>
<name>4377</name>
</trkpt>
<trkpt lat="41.817045" lon="-1.825227">
<ele>1140.0</ele>
<speed>12.3</speed>
<course>278.2</course>
<desc>Speed 12.3 km/h Distance 17.04 km</desc>
<time>2011-09-24T10:49:20.53</time>
<name>4378</name>
</trkpt>
<trkpt lat="41.817050" lon="-1.825273">
<ele>1141.0</ele>
<speed>12.7</speed>
<course>280.8</course>
<desc>Speed 12.7 km/h Distance 17.05 km</desc>
<time>2011-09-24T10:49:21.54</time>
<name>4379</name>
</trkpt>
<trkpt lat="41.817057" lon="-1.825320">
<ele>1142.5</ele>
<speed>12.1</speed>
<course>280.5</course>
<desc>Speed 12.1 km/h Distance 17.05 km</desc>
<time>2011-09-24T10:49:22.53</time>
<name>4380</name>
</trkpt>
<trkpt lat="41.817063" lon="-1.825368">
<ele>1144.0</ele>
<speed>11.7</speed>
<course>282.6</course>
<desc>Speed 11.7 km/h Distance 17.06 km</desc>
<time>2011-09-24T10:49:23.53</time>
<name>4381</name>
</trkpt>
<trkpt lat="41.817072" lon="-1.825418">
<ele>1144.5</ele>
<speed>11.6</speed>
<course>296.7</course>
<desc>Speed 11.6 km/h Distance 17.06 km</desc>
<time>2011-09-24T10:49:24.53</time>
<name>4382</name>
</trkpt>
<trkpt lat="41.817087" lon="-1.825458">
<ele>1144.5</ele>
<speed>11.9</speed>
<course>303.9</course>
<desc>Speed 11.9 km/h Distance 17.06 km</desc>
<time>2011-09-24T10:49:25.53</time>
<name>4383</name>
</trkpt>
<trkpt lat="41.817107" lon="-1.825498">
<ele>1144.0</ele>
<speed>11.6</speed>
<course>280.8</course>
<desc>Speed 11.6 km/h Distance 17.07 km</desc>
<time>2011-09-24T10:49:26.53</time>
<name>4384</name>
</trkpt>
<trkpt lat="41.817113" lon="-1.825545">
<ele>1144.5</ele>
<speed>12.2</speed>
<course>315.6</course>
<desc>Speed 12.2 km/h Distance 17.07 km</desc>
<time>2011-09-24T10:49:27.53</time>
<name>4385</name>
</trkpt>
<trkpt lat="41.817140" lon="-1.825580">
<ele>1143.0</ele>
<speed>11.1</speed>
<course>296.0</course>
<desc>Speed 11.1 km/h Distance 17.08 km</desc>
<time>2011-09-24T10:49:28.54</time>
<name>4386</name>
</trkpt>
<trkpt lat="41.817153" lon="-1.825617">
<ele>1143.0</ele>
<speed>11.3</speed>
<course>287.9</course>
<desc>Speed 11.3 km/h Distance 17.08 km</desc>
<time>2011-09-24T10:49:29.54</time>
<name>4387</name>
</trkpt>
<trkpt lat="41.817165" lon="-1.825665">
<ele>1145.0</ele>
<speed>11.4</speed>
<course>279.1</course>
<desc>Speed 11.4 km/h Distance 17.08 km</desc>
<time>2011-09-24T10:49:30.53</time>
<name>4388</name>
</trkpt>
<trkpt lat="41.817170" lon="-1.825707">
<ele>1146.0</ele>
<speed>11.2</speed>
<course>278.2</course>
<desc>Speed 11.2 km/h Distance 17.09 km</desc>
<time>2011-09-24T10:49:31.53</time>
<name>4389</name>
</trkpt>
<trkpt lat="41.817175" lon="-1.825753">
<ele>1147.5</ele>
<speed>11.8</speed>
<course>279.0</course>
<desc>Speed 11.8 km/h Distance 17.09 km</desc>
<time>2011-09-24T10:49:32.52</time>
<name>4390</name>
</trkpt>
<trkpt lat="41.817182" lon="-1.825810">
<ele>1148.5</ele>
<speed>14.5</speed>
<course>262.7</course>
<desc>Speed 14.5 km/h Distance 17.10 km</desc>
<time>2011-09-24T10:49:33.52</time>
<name>4391</name>
</trkpt>
<trkpt lat="41.817178" lon="-1.825845">
<ele>1149.0</ele>
<speed>8.5</speed>
<course>280.5</course>
<desc>Speed 8.5 km/h Distance 17.10 km</desc>
<time>2011-09-24T10:49:34.53</time>
<name>4392</name>
</trkpt>
<trkpt lat="41.817192" lon="-1.825942">
<ele>1149.5</ele>
<speed>12.6</speed>
<course>285.0</course>
<desc>Speed 12.6 km/h Distance 17.11 km</desc>
<time>2011-09-24T10:49:36.52</time>
<name>4393</name>
</trkpt>
<trkpt lat="41.817200" lon="-1.825983">
<ele>1148.5</ele>
<speed>11.9</speed>
<course>272.6</course>
<desc>Speed 11.9 km/h Distance 17.11 km</desc>
<time>2011-09-24T10:49:37.52</time>
<name>4394</name>
</trkpt>
<trkpt lat="41.817202" lon="-1.826033">
<ele>1148.5</ele>
<speed>12.5</speed>
<course>257.8</course>
<desc>Speed 12.5 km/h Distance 17.11 km</desc>
<time>2011-09-24T10:49:38.52</time>
<name>4395</name>
</trkpt>
<trkpt lat="41.817193" lon="-1.826085">
<ele>1150.0</ele>
<speed>12.9</speed>
<course>244.2</course>
<desc>Speed 12.9 km/h Distance 17.12 km</desc>
<time>2011-09-24T10:49:39.52</time>
<name>4396</name>
</trkpt>
<trkpt lat="41.817178" lon="-1.826127">
<ele>1150.0</ele>
<speed>12.9</speed>
<course>225.2</course>
<desc>Speed 12.9 km/h Distance 17.12 km</desc>
<time>2011-09-24T10:49:40.51</time>
<name>4397</name>
</trkpt>
<trkpt lat="41.817150" lon="-1.826165">
<ele>1153.5</ele>
<speed>12.9</speed>
<course>218.7</course>
<desc>Speed 12.9 km/h Distance 17.13 km</desc>
<time>2011-09-24T10:49:41.52</time>
<name>4398</name>
</trkpt>
<trkpt lat="41.817128" lon="-1.826188">
<ele>1154.0</ele>
<speed>11.9</speed>
<course>206.4</course>
<desc>Speed 11.9 km/h Distance 17.13 km</desc>
<time>2011-09-24T10:49:42.52</time>
<name>4399</name>
</trkpt>
<trkpt lat="41.817108" lon="-1.826202">
<ele>1153.5</ele>
<speed>10.7</speed>
<course>191.1</course>
<desc>Speed 10.7 km/h Distance 17.13 km</desc>
<time>2011-09-24T10:49:43.52</time>
<name>4400</name>
</trkpt>
<trkpt lat="41.817077" lon="-1.826210">
<ele>1155.0</ele>
<speed>12.1</speed>
<course>181.9</course>
<desc>Speed 12.1 km/h Distance 17.14 km</desc>
<time>2011-09-24T10:49:44.51</time>
<name>4401</name>
</trkpt>
<trkpt lat="41.817043" lon="-1.826212">
<ele>1156.5</ele>
<speed>11.2</speed>
<course>180.0</course>
<desc>Speed 11.2 km/h Distance 17.14 km</desc>
<time>2011-09-24T10:49:45.52</time>
<name>4402</name>
</trkpt>
<trkpt lat="41.817013" lon="-1.826212">
<ele>1157.5</ele>
<speed>12.5</speed>
<course>161.9</course>
<desc>Speed 12.5 km/h Distance 17.14 km</desc>
<time>2011-09-24T10:49:46.51</time>
<name>4403</name>
</trkpt>
<trkpt lat="41.816987" lon="-1.826200">
<ele>1158.0</ele>
<speed>11.4</speed>
<course>152.9</course>
<desc>Speed 11.4 km/h Distance 17.15 km</desc>
<time>2011-09-24T10:49:47.52</time>
<name>4404</name>
</trkpt>
<trkpt lat="41.816960" lon="-1.826182">
<ele>1159.5</ele>
<speed>13.0</speed>
<course>147.4</course>
<desc>Speed 13.0 km/h Distance 17.15 km</desc>
<time>2011-09-24T10:49:48.52</time>
<name>4405</name>
</trkpt>
<trkpt lat="41.816937" lon="-1.826162">
<ele>1160.5</ele>
<speed>12.4</speed>
<course>138.2</course>
<desc>Speed 12.4 km/h Distance 17.15 km</desc>
<time>2011-09-24T10:49:49.51</time>
<name>4406</name>
</trkpt>
<trkpt lat="41.816920" lon="-1.826142">
<ele>1160.5</ele>
<speed>11.0</speed>
<course>134.6</course>
<desc>Speed 11.0 km/h Distance 17.16 km</desc>
<time>2011-09-24T10:49:50.51</time>
<name>4407</name>
</trkpt>
<trkpt lat="41.816902" lon="-1.826117">
<ele>1160.5</ele>
<speed>12.1</speed>
<course>153.6</course>
<desc>Speed 12.1 km/h Distance 17.16 km</desc>
<time>2011-09-24T10:49:51.50</time>
<name>4408</name>
</trkpt>
<trkpt lat="41.816882" lon="-1.826103">
<ele>1161.0</ele>
<speed>11.3</speed>
<course>130.0</course>
<desc>Speed 11.3 km/h Distance 17.16 km</desc>
<time>2011-09-24T10:49:52.51</time>
<name>4409</name>
</trkpt>
<trkpt lat="41.816865" lon="-1.826077">
<ele>1161.0</ele>
<speed>13.0</speed>
<course>128.3</course>
<desc>Speed 13.0 km/h Distance 17.16 km</desc>
<time>2011-09-24T10:49:53.50</time>
<name>4410</name>
</trkpt>
<trkpt lat="41.816848" lon="-1.826048">
<ele>1162.5</ele>
<speed>13.3</speed>
<course>135.9</course>
<desc>Speed 13.3 km/h Distance 17.17 km</desc>
<time>2011-09-24T10:49:54.50</time>
<name>4411</name>
</trkpt>
<trkpt lat="41.816832" lon="-1.826027">
<ele>1162.5</ele>
<speed>11.0</speed>
<course>120.8</course>
<desc>Speed 11.0 km/h Distance 17.17 km</desc>
<time>2011-09-24T10:49:55.50</time>
<name>4412</name>
</trkpt>
<trkpt lat="41.816818" lon="-1.825997">
<ele>1163.0</ele>
<speed>12.4</speed>
<course>122.5</course>
<desc>Speed 12.4 km/h Distance 17.17 km</desc>
<time>2011-09-24T10:49:56.50</time>
<name>4413</name>
</trkpt>
<trkpt lat="41.816803" lon="-1.825965">
<ele>1163.0</ele>
<speed>12.8</speed>
<course>119.5</course>
<desc>Speed 12.8 km/h Distance 17.18 km</desc>
<time>2011-09-24T10:49:57.50</time>
<name>4414</name>
</trkpt>
<trkpt lat="41.816790" lon="-1.825933">
<ele>1162.0</ele>
<speed>12.7</speed>
<course>131.1</course>
<desc>Speed 12.7 km/h Distance 17.18 km</desc>
<time>2011-09-24T10:49:58.51</time>
<name>4415</name>
</trkpt>
<trkpt lat="41.816768" lon="-1.825900">
<ele>1163.0</ele>
<speed>14.5</speed>
<course>126.2</course>
<desc>Speed 14.5 km/h Distance 17.18 km</desc>
<time>2011-09-24T10:49:59.50</time>
<name>4416</name>
</trkpt>
<trkpt lat="41.816748" lon="-1.825863">
<ele>1163.5</ele>
<speed>14.8</speed>
<course>133.8</course>
<desc>Speed 14.8 km/h Distance 17.19 km</desc>
<time>2011-09-24T10:50:00.50</time>
<name>4417</name>
</trkpt>
<trkpt lat="41.816723" lon="-1.825828">
<ele>1164.0</ele>
<speed>15.9</speed>
<course>125.0</course>
<desc>Speed 15.9 km/h Distance 17.19 km</desc>
<time>2011-09-24T10:50:01.50</time>
<name>4418</name>
</trkpt>
<trkpt lat="41.816703" lon="-1.825790">
<ele>1163.5</ele>
<speed>15.7</speed>
<course>127.2</course>
<desc>Speed 15.7 km/h Distance 17.19 km</desc>
<time>2011-09-24T10:50:02.50</time>
<name>4419</name>
</trkpt>
<trkpt lat="41.816682" lon="-1.825752">
<ele>1163.5</ele>
<speed>15.7</speed>
<course>127.2</course>
<desc>Speed 15.7 km/h Distance 17.20 km</desc>
<time>2011-09-24T10:50:03.50</time>
<name>4420</name>
</trkpt>
<trkpt lat="41.816660" lon="-1.825713">
<ele>1163.5</ele>
<speed>15.8</speed>
<course>126.0</course>
<desc>Speed 15.8 km/h Distance 17.20 km</desc>
<time>2011-09-24T10:50:04.50</time>
<name>4421</name>
</trkpt>
<trkpt lat="41.816638" lon="-1.825673">
<ele>1163.5</ele>
<speed>15.6</speed>
<course>123.9</course>
<desc>Speed 15.6 km/h Distance 17.21 km</desc>
<time>2011-09-24T10:50:05.49</time>
<name>4422</name>
</trkpt>
<trkpt lat="41.816618" lon="-1.825633">
<ele>1164.0</ele>
<speed>15.6</speed>
<course>131.2</course>
<desc>Speed 15.6 km/h Distance 17.21 km</desc>
<time>2011-09-24T10:50:06.50</time>
<name>4423</name>
</trkpt>
<trkpt lat="41.816593" lon="-1.825595">
<ele>1164.0</ele>
<speed>15.7</speed>
<course>127.2</course>
<desc>Speed 15.7 km/h Distance 17.21 km</desc>
<time>2011-09-24T10:50:07.49</time>
<name>4424</name>
</trkpt>
<trkpt lat="41.816572" lon="-1.825557">
<ele>1164.0</ele>
<speed>15.6</speed>
<course>132.5</course>
<desc>Speed 15.6 km/h Distance 17.22 km</desc>
<time>2011-09-24T10:50:08.50</time>
<name>4425</name>
</trkpt>
<trkpt lat="41.816547" lon="-1.825520">
<ele>1165.0</ele>
<speed>15.7</speed>
<course>128.4</course>
<desc>Speed 15.7 km/h Distance 17.22 km</desc>
<time>2011-09-24T10:50:09.49</time>
<name>4426</name>
</trkpt>
<trkpt lat="41.816525" lon="-1.825483">
<ele>1165.0</ele>
<speed>14.9</speed>
<course>129.7</course>
<desc>Speed 14.9 km/h Distance 17.23 km</desc>
<time>2011-09-24T10:50:10.50</time>
<name>4427</name>
</trkpt>
<trkpt lat="41.816503" lon="-1.825448">
<ele>1165.0</ele>
<speed>14.5</speed>
<course>127.5</course>
<desc>Speed 14.5 km/h Distance 17.23 km</desc>
<time>2011-09-24T10:50:11.50</time>
<name>4428</name>
</trkpt>
<trkpt lat="41.816483" lon="-1.825413">
<ele>1164.5</ele>
<speed>14.3</speed>
<course>126.4</course>
<desc>Speed 14.3 km/h Distance 17.23 km</desc>
<time>2011-09-24T10:50:12.49</time>
<name>4429</name>
</trkpt>
<trkpt lat="41.816465" lon="-1.825380">
<ele>1164.0</ele>
<speed>14.5</speed>
<course>136.7</course>
<desc>Speed 14.5 km/h Distance 17.24 km</desc>
<time>2011-09-24T10:50:13.49</time>
<name>4430</name>
</trkpt>
<trkpt lat="41.816440" lon="-1.825348">
<ele>1163.5</ele>
<speed>14.1</speed>
<course>145.0</course>
<desc>Speed 14.1 km/h Distance 17.24 km</desc>
<time>2011-09-24T10:50:14.49</time>
<name>4431</name>
</trkpt>
<trkpt lat="41.816412" lon="-1.825322">
<ele>1163.5</ele>
<speed>14.4</speed>
<course>131.8</course>
<desc>Speed 14.4 km/h Distance 17.24 km</desc>
<time>2011-09-24T10:50:15.49</time>
<name>4432</name>
</trkpt>
<trkpt lat="41.816392" lon="-1.825292">
<ele>1163.0</ele>
<speed>14.3</speed>
<course>145.3</course>
<desc>Speed 14.3 km/h Distance 17.25 km</desc>
<time>2011-09-24T10:50:16.49</time>
<name>4433</name>
</trkpt>
<trkpt lat="41.816368" lon="-1.825270">
<ele>1162.0</ele>
<speed>13.8</speed>
<course>139.6</course>
<desc>Speed 13.8 km/h Distance 17.25 km</desc>
<time>2011-09-24T10:50:17.49</time>
<name>4434</name>
</trkpt>
<trkpt lat="41.816345" lon="-1.825243">
<ele>1162.0</ele>
<speed>13.5</speed>
<course>150.8</course>
<desc>Speed 13.5 km/h Distance 17.25 km</desc>
<time>2011-09-24T10:50:18.48</time>
<name>4435</name>
</trkpt>
<trkpt lat="41.816318" lon="-1.825223">
<ele>1161.5</ele>
<speed>13.9</speed>
<course>157.5</course>
<desc>Speed 13.9 km/h Distance 17.26 km</desc>
<time>2011-09-24T10:50:19.49</time>
<name>4436</name>
</trkpt>
<trkpt lat="41.816288" lon="-1.825207">
<ele>1161.5</ele>
<speed>13.8</speed>
<course>162.5</course>
<desc>Speed 13.8 km/h Distance 17.26 km</desc>
<time>2011-09-24T10:50:20.49</time>
<name>4437</name>
</trkpt>
<trkpt lat="41.816257" lon="-1.825193">
<ele>1161.5</ele>
<speed>13.8</speed>
<course>171.2</course>
<desc>Speed 13.8 km/h Distance 17.26 km</desc>
<time>2011-09-24T10:50:21.48</time>
<name>4438</name>
</trkpt>
<trkpt lat="41.816225" lon="-1.825187">
<ele>1161.5</ele>
<speed>13.2</speed>
<course>166.8</course>
<desc>Speed 13.2 km/h Distance 17.27 km</desc>
<time>2011-09-24T10:50:22.47</time>
<name>4439</name>
</trkpt>
<trkpt lat="41.816193" lon="-1.825177">
<ele>1161.5</ele>
<speed>13.4</speed>
<course>166.1</course>
<desc>Speed 13.4 km/h Distance 17.27 km</desc>
<time>2011-09-24T10:50:23.48</time>
<name>4440</name>
</trkpt>
<trkpt lat="41.816163" lon="-1.825167">
<ele>1161.5</ele>
<speed>13.2</speed>
<course>173.7</course>
<desc>Speed 13.2 km/h Distance 17.28 km</desc>
<time>2011-09-24T10:50:24.47</time>
<name>4441</name>
</trkpt>
<trkpt lat="41.816130" lon="-1.825162">
<ele>1161.5</ele>
<speed>13.2</speed>
<course>180.0</course>
<desc>Speed 13.2 km/h Distance 17.28 km</desc>
<time>2011-09-24T10:50:25.47</time>
<name>4442</name>
</trkpt>
<trkpt lat="41.816097" lon="-1.825162">
<ele>1162.0</ele>
<speed>13.4</speed>
<course>184.1</course>
<desc>Speed 13.4 km/h Distance 17.28 km</desc>
<time>2011-09-24T10:50:26.48</time>
<name>4443</name>
</trkpt>
<trkpt lat="41.816063" lon="-1.825165">
<ele>1162.5</ele>
<speed>13.6</speed>
<course>181.7</course>
<desc>Speed 13.6 km/h Distance 17.29 km</desc>
<time>2011-09-24T10:50:27.48</time>
<name>4444</name>
</trkpt>
<trkpt lat="41.816028" lon="-1.825167">
<ele>1162.5</ele>
<speed>13.4</speed>
<course>181.8</course>
<desc>Speed 13.4 km/h Distance 17.29 km</desc>
<time>2011-09-24T10:50:28.48</time>
<name>4445</name>
</trkpt>
<trkpt lat="41.815997" lon="-1.825168">
<ele>1162.5</ele>
<speed>12.9</speed>
<course>185.7</course>
<desc>Speed 12.9 km/h Distance 17.29 km</desc>
<time>2011-09-24T10:50:29.47</time>
<name>4446</name>
</trkpt>
<trkpt lat="41.815960" lon="-1.825173">
<ele>1163.5</ele>
<speed>14.2</speed>
<course>183.8</course>
<desc>Speed 14.2 km/h Distance 17.30 km</desc>
<time>2011-09-24T10:50:30.48</time>
<name>4447</name>
</trkpt>
<trkpt lat="41.815925" lon="-1.825177">
<ele>1163.5</ele>
<speed>13.8</speed>
<course>181.7</course>
<desc>Speed 13.8 km/h Distance 17.30 km</desc>
<time>2011-09-24T10:50:31.47</time>
<name>4448</name>
</trkpt>
<trkpt lat="41.815890" lon="-1.825178">
<ele>1164.0</ele>
<speed>13.8</speed>
<course>182.1</course>
<desc>Speed 13.8 km/h Distance 17.31 km</desc>
<time>2011-09-24T10:50:32.48</time>
<name>4449</name>
</trkpt>
<trkpt lat="41.815853" lon="-1.825180">
<ele>1164.0</ele>
<speed>14.0</speed>
<course>188.1</course>
<desc>Speed 14.0 km/h Distance 17.31 km</desc>
<time>2011-09-24T10:50:33.47</time>
<name>4450</name>
</trkpt>
<trkpt lat="41.815818" lon="-1.825187">
<ele>1164.5</ele>
<speed>14.3</speed>
<course>181.9</course>
<desc>Speed 14.3 km/h Distance 17.31 km</desc>
<time>2011-09-24T10:50:34.47</time>
<name>4451</name>
</trkpt>
<trkpt lat="41.815785" lon="-1.825188">
<ele>1163.5</ele>
<speed>12.7</speed>
<course>179.6</course>
<desc>Speed 12.7 km/h Distance 17.32 km</desc>
<time>2011-09-24T10:50:35.48</time>
<name>4452</name>
</trkpt>
<trkpt lat="41.815747" lon="-1.825188">
<ele>1164.5</ele>
<speed>14.3</speed>
<course>178.3</course>
<desc>Speed 14.3 km/h Distance 17.32 km</desc>
<time>2011-09-24T10:50:36.47</time>
<name>4453</name>
</trkpt>
<trkpt lat="41.815712" lon="-1.825187">
<ele>1165.0</ele>
<speed>13.9</speed>
<course>176.2</course>
<desc>Speed 13.9 km/h Distance 17.33 km</desc>
<time>2011-09-24T10:50:37.47</time>
<name>4454</name>
</trkpt>
<trkpt lat="41.815677" lon="-1.825183">
<ele>1165.0</ele>
<speed>13.8</speed>
<course>176.3</course>
<desc>Speed 13.8 km/h Distance 17.33 km</desc>
<time>2011-09-24T10:50:38.47</time>
<name>4455</name>
</trkpt>
<trkpt lat="41.815640" lon="-1.825180">
<ele>1165.5</ele>
<speed>13.8</speed>
<course>178.1</course>
<desc>Speed 13.8 km/h Distance 17.33 km</desc>
<time>2011-09-24T10:50:39.47</time>
<name>4456</name>
</trkpt>
<trkpt lat="41.815607" lon="-1.825178">
<ele>1166.0</ele>
<speed>13.3</speed>
<course>173.5</course>
<desc>Speed 13.3 km/h Distance 17.34 km</desc>
<time>2011-09-24T10:50:40.46</time>
<name>4457</name>
</trkpt>
<trkpt lat="41.815573" lon="-1.825173">
<ele>1166.5</ele>
<speed>13.2</speed>
<course>167.9</course>
<desc>Speed 13.2 km/h Distance 17.34 km</desc>
<time>2011-09-24T10:50:41.46</time>
<name>4458</name>
</trkpt>
<trkpt lat="41.815538" lon="-1.825163">
<ele>1167.0</ele>
<speed>13.6</speed>
<course>173.9</course>
<desc>Speed 13.6 km/h Distance 17.35 km</desc>
<time>2011-09-24T10:50:42.46</time>
<name>4459</name>
</trkpt>
<trkpt lat="41.815503" lon="-1.825158">
<ele>1167.5</ele>
<speed>14.0</speed>
<course>173.5</course>
<desc>Speed 14.0 km/h Distance 17.35 km</desc>
<time>2011-09-24T10:50:43.46</time>
<name>4460</name>
</trkpt>
<trkpt lat="41.815470" lon="-1.825153">
<ele>1167.5</ele>
<speed>13.0</speed>
<course>173.4</course>
<desc>Speed 13.0 km/h Distance 17.35 km</desc>
<time>2011-09-24T10:50:44.46</time>
<name>4461</name>
</trkpt>
<trkpt lat="41.815438" lon="-1.825148">
<ele>1168.0</ele>
<speed>13.0</speed>
<course>172.9</course>
<desc>Speed 13.0 km/h Distance 17.36 km</desc>
<time>2011-09-24T10:50:45.46</time>
<name>4462</name>
</trkpt>
<trkpt lat="41.815408" lon="-1.825143">
<ele>1168.0</ele>
<speed>12.1</speed>
<course>170.7</course>
<desc>Speed 12.1 km/h Distance 17.36 km</desc>
<time>2011-09-24T10:50:46.46</time>
<name>4463</name>
</trkpt>
<trkpt lat="41.815378" lon="-1.825137">
<ele>1167.5</ele>
<speed>12.2</speed>
<course>168.4</course>
<desc>Speed 12.2 km/h Distance 17.36 km</desc>
<time>2011-09-24T10:50:47.47</time>
<name>4464</name>
</trkpt>
<trkpt lat="41.815348" lon="-1.825128">
<ele>1167.5</ele>
<speed>12.6</speed>
<course>166.1</course>
<desc>Speed 12.6 km/h Distance 17.37 km</desc>
<time>2011-09-24T10:50:48.46</time>
<name>4465</name>
</trkpt>
<trkpt lat="41.815323" lon="-1.825120">
<ele>1166.5</ele>
<speed>10.6</speed>
<course>174.7</course>
<desc>Speed 10.6 km/h Distance 17.37 km</desc>
<time>2011-09-24T10:50:49.46</time>
<name>4466</name>
</trkpt>
<trkpt lat="41.815297" lon="-1.825117">
<ele>1166.0</ele>
<speed>10.5</speed>
<course>171.4</course>
<desc>Speed 10.5 km/h Distance 17.37 km</desc>
<time>2011-09-24T10:50:50.45</time>
<name>4467</name>
</trkpt>
<trkpt lat="41.815272" lon="-1.825112">
<ele>1166.0</ele>
<speed>10.2</speed>
<course>168.3</course>
<desc>Speed 10.2 km/h Distance 17.38 km</desc>
<time>2011-09-24T10:50:51.46</time>
<name>4468</name>
</trkpt>
<trkpt lat="41.815242" lon="-1.825103">
<ele>1167.0</ele>
<speed>12.0</speed>
<course>168.3</course>
<desc>Speed 12.0 km/h Distance 17.38 km</desc>
<time>2011-09-24T10:50:52.45</time>
<name>4469</name>
</trkpt>
<trkpt lat="41.815212" lon="-1.825095">
<ele>1168.0</ele>
<speed>12.1</speed>
<course>171.4</course>
<desc>Speed 12.1 km/h Distance 17.38 km</desc>
<time>2011-09-24T10:50:53.46</time>
<name>4470</name>
</trkpt>
<trkpt lat="41.815178" lon="-1.825088">
<ele>1168.5</ele>
<speed>12.6</speed>
<course>169.9</course>
<desc>Speed 12.6 km/h Distance 17.39 km</desc>
<time>2011-09-24T10:50:54.45</time>
<name>4471</name>
</trkpt>
<trkpt lat="41.815150" lon="-1.825082">
<ele>1168.5</ele>
<speed>11.5</speed>
<course>172.9</course>
<desc>Speed 11.5 km/h Distance 17.39 km</desc>
<time>2011-09-24T10:50:55.45</time>
<name>4472</name>
</trkpt>
<trkpt lat="41.815120" lon="-1.825077">
<ele>1168.5</ele>
<speed>12.0</speed>
<course>173.7</course>
<desc>Speed 12.0 km/h Distance 17.39 km</desc>
<time>2011-09-24T10:50:56.45</time>
<name>4473</name>
</trkpt>
<trkpt lat="41.815087" lon="-1.825072">
<ele>1169.0</ele>
<speed>13.0</speed>
<course>143.2</course>
<desc>Speed 13.0 km/h Distance 17.40 km</desc>
<time>2011-09-24T10:50:57.45</time>
<name>4474</name>
</trkpt>
<trkpt lat="41.815073" lon="-1.825058">
<ele>1168.0</ele>
<speed>6.2</speed>
<course>175.5</course>
<desc>Speed 6.2 km/h Distance 17.40 km</desc>
<time>2011-09-24T10:50:58.45</time>
<name>4475</name>
</trkpt>
<trkpt lat="41.815010" lon="-1.825052">
<ele>1168.0</ele>
<speed>9.9</speed>
<course>180.0</course>
<desc>Speed 9.9 km/h Distance 17.41 km</desc>
<time>2011-09-24T10:51:00.45</time>
<name>4476</name>
</trkpt>
<trkpt lat="41.814982" lon="-1.825052">
<ele>1168.5</ele>
<speed>11.4</speed>
<course>181.4</course>
<desc>Speed 11.4 km/h Distance 17.41 km</desc>
<time>2011-09-24T10:51:01.45</time>
<name>4477</name>
</trkpt>
<trkpt lat="41.814953" lon="-1.825053">
<ele>1169.5</ele>
<speed>11.0</speed>
<course>159.5</course>
<desc>Speed 11.0 km/h Distance 17.41 km</desc>
<time>2011-09-24T10:51:02.45</time>
<name>4478</name>
</trkpt>
<trkpt lat="41.814930" lon="-1.825042">
<ele>1169.5</ele>
<speed>9.9</speed>
<course>171.6</course>
<desc>Speed 9.9 km/h Distance 17.41 km</desc>
<time>2011-09-24T10:51:03.44</time>
<name>4479</name>
</trkpt>
<trkpt lat="41.814905" lon="-1.825037">
<ele>1169.0</ele>
<speed>9.6</speed>
<course>162.0</course>
<desc>Speed 9.6 km/h Distance 17.42 km</desc>
<time>2011-09-24T10:51:04.44</time>
<name>4480</name>
</trkpt>
<trkpt lat="41.814878" lon="-1.825025">
<ele>1168.5</ele>
<speed>11.0</speed>
<course>157.2</course>
<desc>Speed 11.0 km/h Distance 17.42 km</desc>
<time>2011-09-24T10:51:05.45</time>
<name>4481</name>
</trkpt>
<trkpt lat="41.814852" lon="-1.825010">
<ele>1168.0</ele>
<speed>10.8</speed>
<course>148.1</course>
<desc>Speed 10.8 km/h Distance 17.42 km</desc>
<time>2011-09-24T10:51:06.44</time>
<name>4482</name>
</trkpt>
<trkpt lat="41.814832" lon="-1.824993">
<ele>1169.5</ele>
<speed>9.6</speed>
<course>145.6</course>
<desc>Speed 9.6 km/h Distance 17.43 km</desc>
<time>2011-09-24T10:51:07.45</time>
<name>4483</name>
</trkpt>
<trkpt lat="41.814812" lon="-1.824975">
<ele>1169.0</ele>
<speed>9.5</speed>
<course>156.3</course>
<desc>Speed 9.5 km/h Distance 17.43 km</desc>
<time>2011-09-24T10:51:08.44</time>
<name>4484</name>
</trkpt>
<trkpt lat="41.814783" lon="-1.824958">
<ele>1170.0</ele>
<speed>11.7</speed>
<course>152.3</course>
<desc>Speed 11.7 km/h Distance 17.43 km</desc>
<time>2011-09-24T10:51:09.44</time>
<name>4485</name>
</trkpt>
<trkpt lat="41.814755" lon="-1.824938">
<ele>1171.5</ele>
<speed>12.3</speed>
<course>151.7</course>
<desc>Speed 12.3 km/h Distance 17.44 km</desc>
<time>2011-09-24T10:51:10.45</time>
<name>4486</name>
</trkpt>
<trkpt lat="41.814725" lon="-1.824917">
<ele>1173.0</ele>
<speed>12.6</speed>
<course>150.3</course>
<desc>Speed 12.6 km/h Distance 17.44 km</desc>
<time>2011-09-24T10:51:11.44</time>
<name>4487</name>
</trkpt>
<trkpt lat="41.814697" lon="-1.824895">
<ele>1174.0</ele>
<speed>12.7</speed>
<course>155.9</course>
<desc>Speed 12.7 km/h Distance 17.44 km</desc>
<time>2011-09-24T10:51:12.44</time>
<name>4488</name>
</trkpt>
<trkpt lat="41.814663" lon="-1.824875">
<ele>1176.0</ele>
<speed>11.6</speed>
<course>155.5</course>
<desc>Speed 11.6 km/h Distance 17.45 km</desc>
<time>2011-09-24T10:51:13.44</time>
<name>4489</name>
</trkpt>
<trkpt lat="41.814633" lon="-1.824857">
<ele>1176.5</ele>
<speed>11.9</speed>
<course>153.0</course>
<desc>Speed 11.9 km/h Distance 17.45 km</desc>
<time>2011-09-24T10:51:14.44</time>
<name>4490</name>
</trkpt>
<trkpt lat="41.814602" lon="-1.824835">
<ele>1177.0</ele>
<speed>13.5</speed>
<course>151.7</course>
<desc>Speed 13.5 km/h Distance 17.45 km</desc>
<time>2011-09-24T10:51:15.43</time>
<name>4491</name>
</trkpt>
<trkpt lat="41.814572" lon="-1.824813">
<ele>1177.0</ele>
<speed>13.8</speed>
<course>144.9</course>
<desc>Speed 13.8 km/h Distance 17.46 km</desc>
<time>2011-09-24T10:51:16.43</time>
<name>4492</name>
</trkpt>
<trkpt lat="41.814542" lon="-1.824785">
<ele>1176.5</ele>
<speed>12.4</speed>
<course>141.7</course>
<desc>Speed 12.4 km/h Distance 17.46 km</desc>
<time>2011-09-24T10:51:17.43</time>
<name>4493</name>
</trkpt>
<trkpt lat="41.814513" lon="-1.824755">
<ele>1176.5</ele>
<speed>13.9</speed>
<course>144.8</course>
<desc>Speed 13.9 km/h Distance 17.47 km</desc>
<time>2011-09-24T10:51:18.43</time>
<name>4494</name>
</trkpt>
<trkpt lat="41.814483" lon="-1.824727">
<ele>1178.0</ele>
<speed>14.8</speed>
<course>146.3</course>
<desc>Speed 14.8 km/h Distance 17.47 km</desc>
<time>2011-09-24T10:51:19.43</time>
<name>4495</name>
</trkpt>
<trkpt lat="41.814452" lon="-1.824698">
<ele>1179.0</ele>
<speed>14.5</speed>
<course>143.3</course>
<desc>Speed 14.5 km/h Distance 17.48 km</desc>
<time>2011-09-24T10:51:20.43</time>
<name>4496</name>
</trkpt>
<trkpt lat="41.814423" lon="-1.824670">
<ele>1179.0</ele>
<speed>13.6</speed>
<course>143.3</course>
<desc>Speed 13.6 km/h Distance 17.48 km</desc>
<time>2011-09-24T10:51:21.43</time>
<name>4497</name>
</trkpt>
<trkpt lat="41.814393" lon="-1.824640">
<ele>1179.0</ele>
<speed>14.5</speed>
<course>145.1</course>
<desc>Speed 14.5 km/h Distance 17.48 km</desc>
<time>2011-09-24T10:51:22.43</time>
<name>4498</name>
</trkpt>
<trkpt lat="41.814367" lon="-1.824615">
<ele>1180.0</ele>
<speed>13.2</speed>
<course>152.9</course>
<desc>Speed 13.2 km/h Distance 17.49 km</desc>
<time>2011-09-24T10:51:23.44</time>
<name>4499</name>
</trkpt>
<trkpt lat="41.814340" lon="-1.824597">
<ele>1180.0</ele>
<speed>12.1</speed>
<course>149.6</course>
<desc>Speed 12.1 km/h Distance 17.49 km</desc>
<time>2011-09-24T10:51:24.43</time>
<name>4500</name>
</trkpt>
<trkpt lat="41.814317" lon="-1.824578">
<ele>1180.0</ele>
<speed>11.2</speed>
<course>152.7</course>
<desc>Speed 11.2 km/h Distance 17.49 km</desc>
<time>2011-09-24T10:51:25.44</time>
<name>4501</name>
</trkpt>
<trkpt lat="41.814295" lon="-1.824563">
<ele>1179.5</ele>
<speed>9.6</speed>
<course>147.8</course>
<desc>Speed 9.6 km/h Distance 17.50 km</desc>
<time>2011-09-24T10:51:26.43</time>
<name>4502</name>
</trkpt>
<trkpt lat="41.814273" lon="-1.824545">
<ele>1179.5</ele>
<speed>9.8</speed>
<course>141.1</course>
<desc>Speed 9.8 km/h Distance 17.50 km</desc>
<time>2011-09-24T10:51:27.43</time>
<name>4503</name>
</trkpt>
<trkpt lat="41.814253" lon="-1.824523">
<ele>1179.0</ele>
<speed>10.5</speed>
<course>138.7</course>
<desc>Speed 10.5 km/h Distance 17.50 km</desc>
<time>2011-09-24T10:51:28.43</time>
<name>4504</name>
</trkpt>
<trkpt lat="41.814235" lon="-1.824502">
<ele>1178.5</ele>
<speed>10.0</speed>
<course>147.1</course>
<desc>Speed 10.0 km/h Distance 17.50 km</desc>
<time>2011-09-24T10:51:29.42</time>
<name>4505</name>
</trkpt>
<trkpt lat="41.814210" lon="-1.824480">
<ele>1180.5</ele>
<speed>9.2</speed>
<course>147.4</course>
<desc>Speed 9.2 km/h Distance 17.51 km</desc>
<time>2011-09-24T10:51:30.42</time>
<name>4506</name>
</trkpt>
<trkpt lat="41.814187" lon="-1.824460">
<ele>1182.0</ele>
<speed>9.4</speed>
<course>140.6</course>
<desc>Speed 9.4 km/h Distance 17.51 km</desc>
<time>2011-09-24T10:51:31.42</time>
<name>4507</name>
</trkpt>
<trkpt lat="41.814170" lon="-1.824442">
<ele>1183.0</ele>
<speed>7.1</speed>
<course>145.6</course>
<desc>Speed 7.1 km/h Distance 17.51 km</desc>
<time>2011-09-24T10:51:32.42</time>
<name>4508</name>
</trkpt>
<trkpt lat="41.814150" lon="-1.824423">
<ele>1184.0</ele>
<speed>9.4</speed>
<course>149.6</course>
<desc>Speed 9.4 km/h Distance 17.52 km</desc>
<time>2011-09-24T10:51:33.42</time>
<name>4509</name>
</trkpt>
<trkpt lat="41.814127" lon="-1.824405">
<ele>1185.0</ele>
<speed>10.8</speed>
<course>143.3</course>
<desc>Speed 10.8 km/h Distance 17.52 km</desc>
<time>2011-09-24T10:51:34.43</time>
<name>4510</name>
</trkpt>
<trkpt lat="41.814107" lon="-1.824385">
<ele>1185.5</ele>
<speed>9.5</speed>
<course>143.3</course>
<desc>Speed 9.5 km/h Distance 17.52 km</desc>
<time>2011-09-24T10:51:35.42</time>
<name>4511</name>
</trkpt>
<trkpt lat="41.814078" lon="-1.824357">
<ele>1185.5</ele>
<speed>10.4</speed>
<course>151.3</course>
<desc>Speed 10.4 km/h Distance 17.53 km</desc>
<time>2011-09-24T10:51:36.71</time>
<name>4512</name>
</trkpt>
<trkpt lat="41.814028" lon="-1.824320">
<ele>1186.5</ele>
<speed>11.0</speed>
<course>137.1</course>
<desc>Speed 11.0 km/h Distance 17.53 km</desc>
<time>2011-09-24T10:51:38.42</time>
<name>4513</name>
</trkpt>
<trkpt lat="41.814008" lon="-1.824295">
<ele>1185.5</ele>
<speed>8.8</speed>
<course>141.7</course>
<desc>Speed 8.8 km/h Distance 17.53 km</desc>
<time>2011-09-24T10:51:39.42</time>
<name>4514</name>
</trkpt>
<trkpt lat="41.813980" lon="-1.824265">
<ele>1187.0</ele>
<speed>9.9</speed>
<course>138.2</course>
<desc>Speed 9.9 km/h Distance 17.54 km</desc>
<time>2011-09-24T10:51:40.41</time>
<name>4515</name>
</trkpt>
<trkpt lat="41.813963" lon="-1.824245">
<ele>1187.0</ele>
<speed>8.8</speed>
<course>135.2</course>
<desc>Speed 8.8 km/h Distance 17.54 km</desc>
<time>2011-09-24T10:51:41.42</time>
<name>4516</name>
</trkpt>
<trkpt lat="41.813948" lon="-1.824225">
<ele>1186.5</ele>
<speed>8.6</speed>
<course>138.7</course>
<desc>Speed 8.6 km/h Distance 17.54 km</desc>
<time>2011-09-24T10:51:42.41</time>
<name>4517</name>
</trkpt>
<trkpt lat="41.813930" lon="-1.824203">
<ele>1187.0</ele>
<speed>9.3</speed>
<course>140.9</course>
<desc>Speed 9.3 km/h Distance 17.55 km</desc>
<time>2011-09-24T10:51:43.42</time>
<name>4518</name>
</trkpt>
<trkpt lat="41.813912" lon="-1.824183">
<ele>1187.5</ele>
<speed>9.2</speed>
<course>129.7</course>
<desc>Speed 9.2 km/h Distance 17.55 km</desc>
<time>2011-09-24T10:51:44.42</time>
<name>4519</name>
</trkpt>
<trkpt lat="41.813890" lon="-1.824148">
<ele>1190.0</ele>
<speed>9.3</speed>
<course>134.5</course>
<desc>Speed 9.3 km/h Distance 17.55 km</desc>
<time>2011-09-24T10:51:45.41</time>
<name>4520</name>
</trkpt>
<trkpt lat="41.813872" lon="-1.824123">
<ele>1190.0</ele>
<speed>9.1</speed>
<course>135.7</course>
<desc>Speed 9.1 km/h Distance 17.56 km</desc>
<time>2011-09-24T10:51:46.41</time>
<name>4521</name>
</trkpt>
<trkpt lat="41.813850" lon="-1.824095">
<ele>1189.0</ele>
<speed>9.7</speed>
<course>116.7</course>
<desc>Speed 9.7 km/h Distance 17.56 km</desc>
<time>2011-09-24T10:51:47.41</time>
<name>4522</name>
</trkpt>
<trkpt lat="41.813840" lon="-1.824068">
<ele>1189.5</ele>
<speed>9.4</speed>
<course>141.1</course>
<desc>Speed 9.4 km/h Distance 17.56 km</desc>
<time>2011-09-24T10:51:48.42</time>
<name>4523</name>
</trkpt>
<trkpt lat="41.813820" lon="-1.824047">
<ele>1189.0</ele>
<speed>10.3</speed>
<course>141.0</course>
<desc>Speed 10.3 km/h Distance 17.56 km</desc>
<time>2011-09-24T10:51:49.41</time>
<name>4524</name>
</trkpt>
<trkpt lat="41.813800" lon="-1.824025">
<ele>1190.0</ele>
<speed>10.0</speed>
<course>143.3</course>
<desc>Speed 10.0 km/h Distance 17.57 km</desc>
<time>2011-09-24T10:51:50.40</time>
<name>4525</name>
</trkpt>
<trkpt lat="41.813770" lon="-1.823995">
<ele>1190.5</ele>
<speed>10.1</speed>
<course>135.9</course>
<desc>Speed 10.1 km/h Distance 17.57 km</desc>
<time>2011-09-24T10:51:51.40</time>
<name>4526</name>
</trkpt>
<trkpt lat="41.813753" lon="-1.823973">
<ele>1190.5</ele>
<speed>9.1</speed>
<course>145.7</course>
<desc>Speed 9.1 km/h Distance 17.57 km</desc>
<time>2011-09-24T10:51:52.40</time>
<name>4527</name>
</trkpt>
<trkpt lat="41.813733" lon="-1.823955">
<ele>1190.0</ele>
<speed>9.7</speed>
<course>135.9</course>
<desc>Speed 9.7 km/h Distance 17.58 km</desc>
<time>2011-09-24T10:51:53.41</time>
<name>4528</name>
</trkpt>
<trkpt lat="41.813717" lon="-1.823933">
<ele>1190.0</ele>
<speed>9.0</speed>
<course>134.1</course>
<desc>Speed 9.0 km/h Distance 17.58 km</desc>
<time>2011-09-24T10:51:54.41</time>
<name>4529</name>
</trkpt>
<trkpt lat="41.813695" lon="-1.823903">
<ele>1188.5</ele>
<speed>7.8</speed>
<course>135.2</course>
<desc>Speed 7.8 km/h Distance 17.58 km</desc>
<time>2011-09-24T10:51:55.41</time>
<name>4530</name>
</trkpt>
<trkpt lat="41.813680" lon="-1.823883">
<ele>1187.5</ele>
<speed>8.1</speed>
<course>134.5</course>
<desc>Speed 8.1 km/h Distance 17.59 km</desc>
<time>2011-09-24T10:51:56.40</time>
<name>4531</name>
</trkpt>
<trkpt lat="41.813662" lon="-1.823858">
<ele>1187.0</ele>
<speed>8.2</speed>
<course>135.7</course>
<desc>Speed 8.2 km/h Distance 17.59 km</desc>
<time>2011-09-24T10:51:57.40</time>
<name>4532</name>
</trkpt>
<trkpt lat="41.813640" lon="-1.823830">
<ele>1186.5</ele>
<speed>8.6</speed>
<course>141.7</course>
<desc>Speed 8.6 km/h Distance 17.59 km</desc>
<time>2011-09-24T10:51:58.41</time>
<name>4533</name>
</trkpt>
<trkpt lat="41.813612" lon="-1.823800">
<ele>1186.5</ele>
<speed>10.2</speed>
<course>138.8</course>
<desc>Speed 10.2 km/h Distance 17.60 km</desc>
<time>2011-09-24T10:51:59.40</time>
<name>4534</name>
</trkpt>
<trkpt lat="41.813583" lon="-1.823767">
<ele>1187.0</ele>
<speed>10.5</speed>
<course>140.2</course>
<desc>Speed 10.5 km/h Distance 17.60 km</desc>
<time>2011-09-24T10:52:00.39</time>
<name>4535</name>
</trkpt>
<trkpt lat="41.813555" lon="-1.823735">
<ele>1187.0</ele>
<speed>11.2</speed>
<course>135.6</course>
<desc>Speed 11.2 km/h Distance 17.60 km</desc>
<time>2011-09-24T10:52:01.40</time>
<name>4536</name>
</trkpt>
<trkpt lat="41.813492" lon="-1.823652">
<ele>1190.0</ele>
<speed>11.4</speed>
<course>143.3</course>
<desc>Speed 11.4 km/h Distance 17.61 km</desc>
<time>2011-09-24T10:52:03.39</time>
<name>4537</name>
</trkpt>
<trkpt lat="41.813463" lon="-1.823623">
<ele>1190.0</ele>
<speed>12.5</speed>
<course>145.3</course>
<desc>Speed 12.5 km/h Distance 17.62 km</desc>
<time>2011-09-24T10:52:04.39</time>
<name>4538</name>
</trkpt>
<trkpt lat="41.813440" lon="-1.823602">
<ele>1189.0</ele>
<speed>8.9</speed>
<course>140.2</course>
<desc>Speed 8.9 km/h Distance 17.62 km</desc>
<time>2011-09-24T10:52:05.39</time>
<name>4539</name>
</trkpt>
<trkpt lat="41.813412" lon="-1.823570">
<ele>1190.0</ele>
<speed>11.8</speed>
<course>147.4</course>
<desc>Speed 11.8 km/h Distance 17.62 km</desc>
<time>2011-09-24T10:52:06.39</time>
<name>4540</name>
</trkpt>
<trkpt lat="41.813377" lon="-1.823540">
<ele>1191.0</ele>
<speed>12.9</speed>
<course>138.8</course>
<desc>Speed 12.9 km/h Distance 17.63 km</desc>
<time>2011-09-24T10:52:07.39</time>
<name>4541</name>
</trkpt>
<trkpt lat="41.813348" lon="-1.823507">
<ele>1190.5</ele>
<speed>11.8</speed>
<course>132.6</course>
<desc>Speed 11.8 km/h Distance 17.63 km</desc>
<time>2011-09-24T10:52:08.39</time>
<name>4542</name>
</trkpt>
<trkpt lat="41.813327" lon="-1.823475">
<ele>1189.5</ele>
<speed>10.5</speed>
<course>129.5</course>
<desc>Speed 10.5 km/h Distance 17.64 km</desc>
<time>2011-09-24T10:52:09.39</time>
<name>4543</name>
</trkpt>
<trkpt lat="41.813300" lon="-1.823432">
<ele>1191.5</ele>
<speed>11.1</speed>
<course>129.7</course>
<desc>Speed 11.1 km/h Distance 17.64 km</desc>
<time>2011-09-24T10:52:10.39</time>
<name>4544</name>
</trkpt>
<trkpt lat="41.813278" lon="-1.823397">
<ele>1191.0</ele>
<speed>10.4</speed>
<course>133.8</course>
<desc>Speed 10.4 km/h Distance 17.65 km</desc>
<time>2011-09-24T10:52:11.39</time>
<name>4545</name>
</trkpt>
<trkpt lat="41.813253" lon="-1.823362">
<ele>1191.0</ele>
<speed>11.0</speed>
<course>137.9</course>
<desc>Speed 11.0 km/h Distance 17.65 km</desc>
<time>2011-09-24T10:52:12.39</time>
<name>4546</name>
</trkpt>
<trkpt lat="41.813222" lon="-1.823323">
<ele>1195.0</ele>
<speed>12.0</speed>
<course>130.5</course>
<desc>Speed 12.0 km/h Distance 17.65 km</desc>
<time>2011-09-24T10:52:13.38</time>
<name>4547</name>
</trkpt>
<trkpt lat="41.813198" lon="-1.823287">
<ele>1196.0</ele>
<speed>12.0</speed>
<course>127.5</course>
<desc>Speed 12.0 km/h Distance 17.66 km</desc>
<time>2011-09-24T10:52:14.39</time>
<name>4548</name>
</trkpt>
<trkpt lat="41.813172" lon="-1.823240">
<ele>1198.5</ele>
<speed>12.7</speed>
<course>119.9</course>
<desc>Speed 12.7 km/h Distance 17.66 km</desc>
<time>2011-09-24T10:52:15.38</time>
<name>4549</name>
</trkpt>
<trkpt lat="41.813152" lon="-1.823193">
<ele>1200.0</ele>
<speed>10.7</speed>
<course>90.0</course>
<desc>Speed 10.7 km/h Distance 17.67 km</desc>
<time>2011-09-24T10:52:16.38</time>
<name>4550</name>
</trkpt>
<trkpt lat="41.813152" lon="-1.823150">
<ele>1199.5</ele>
<speed>10.1</speed>
<course>109.9</course>
<desc>Speed 10.1 km/h Distance 17.67 km</desc>
<time>2011-09-24T10:52:17.38</time>
<name>4551</name>
</trkpt>
<trkpt lat="41.813140" lon="-1.823107">
<ele>1199.0</ele>
<speed>10.8</speed>
<course>119.2</course>
<desc>Speed 10.8 km/h Distance 17.68 km</desc>
<time>2011-09-24T10:52:18.39</time>
<name>4552</name>
</trkpt>
<trkpt lat="41.813123" lon="-1.823067">
<ele>1199.0</ele>
<speed>11.6</speed>
<course>118.8</course>
<desc>Speed 11.6 km/h Distance 17.68 km</desc>
<time>2011-09-24T10:52:19.38</time>
<name>4553</name>
</trkpt>
<trkpt lat="41.813108" lon="-1.823030">
<ele>1197.0</ele>
<speed>11.0</speed>
<course>118.2</course>
<desc>Speed 11.0 km/h Distance 17.68 km</desc>
<time>2011-09-24T10:52:20.38</time>
<name>4554</name>
</trkpt>
<trkpt lat="41.813095" lon="-1.822997">
<ele>1195.0</ele>
<speed>10.1</speed>
<course>105.6</course>
<desc>Speed 10.1 km/h Distance 17.69 km</desc>
<time>2011-09-24T10:52:21.37</time>
<name>4555</name>
</trkpt>
<trkpt lat="41.813087" lon="-1.822957">
<ele>1195.0</ele>
<speed>10.6</speed>
<course>119.9</course>
<desc>Speed 10.6 km/h Distance 17.69 km</desc>
<time>2011-09-24T10:52:22.38</time>
<name>4556</name>
</trkpt>
<trkpt lat="41.813072" lon="-1.822922">
<ele>1194.5</ele>
<speed>10.3</speed>
<course>113.1</course>
<desc>Speed 10.3 km/h Distance 17.69 km</desc>
<time>2011-09-24T10:52:23.38</time>
<name>4557</name>
</trkpt>
<trkpt lat="41.813060" lon="-1.822885">
<ele>1193.5</ele>
<speed>10.2</speed>
<course>109.3</course>
<desc>Speed 10.2 km/h Distance 17.70 km</desc>
<time>2011-09-24T10:52:24.37</time>
<name>4558</name>
</trkpt>
<trkpt lat="41.813050" lon="-1.822847">
<ele>1193.0</ele>
<speed>10.6</speed>
<course>90.0</course>
<desc>Speed 10.6 km/h Distance 17.70 km</desc>
<time>2011-09-24T10:52:25.38</time>
<name>4559</name>
</trkpt>
<trkpt lat="41.813050" lon="-1.822807">
<ele>1189.0</ele>
<speed>10.7</speed>
<course>102.6</course>
<desc>Speed 10.7 km/h Distance 17.70 km</desc>
<time>2011-09-24T10:52:26.38</time>
<name>4560</name>
</trkpt>
<trkpt lat="41.813043" lon="-1.822767">
<ele>1186.0</ele>
<speed>11.4</speed>
<course>121.6</course>
<desc>Speed 11.4 km/h Distance 17.71 km</desc>
<time>2011-09-24T10:52:27.37</time>
<name>4561</name>
</trkpt>
<trkpt lat="41.813025" lon="-1.822727">
<ele>1186.5</ele>
<speed>11.9</speed>
<course>114.9</course>
<desc>Speed 11.9 km/h Distance 17.71 km</desc>
<time>2011-09-24T10:52:28.37</time>
<name>4562</name>
</trkpt>
<trkpt lat="41.813010" lon="-1.822683">
<ele>1187.0</ele>
<speed>12.0</speed>
<course>114.1</course>
<desc>Speed 12.0 km/h Distance 17.71 km</desc>
<time>2011-09-24T10:52:29.37</time>
<name>4563</name>
</trkpt>
<trkpt lat="41.812997" lon="-1.822643">
<ele>1187.0</ele>
<speed>11.6</speed>
<course>109.3</course>
<desc>Speed 11.6 km/h Distance 17.72 km</desc>
<time>2011-09-24T10:52:30.37</time>
<name>4564</name>
</trkpt>
<trkpt lat="41.812987" lon="-1.822605">
<ele>1186.5</ele>
<speed>11.4</speed>
<course>122.7</course>
<desc>Speed 11.4 km/h Distance 17.72 km</desc>
<time>2011-09-24T10:52:31.37</time>
<name>4565</name>
</trkpt>
<trkpt lat="41.812968" lon="-1.822567">
<ele>1187.0</ele>
<speed>12.1</speed>
<course>117.7</course>
<desc>Speed 12.1 km/h Distance 17.72 km</desc>
<time>2011-09-24T10:52:32.36</time>
<name>4566</name>
</trkpt>
<trkpt lat="41.812953" lon="-1.822528">
<ele>1186.5</ele>
<speed>11.4</speed>
<course>123.9</course>
<desc>Speed 11.4 km/h Distance 17.73 km</desc>
<time>2011-09-24T10:52:33.37</time>
<name>4567</name>
</trkpt>
<trkpt lat="41.812937" lon="-1.822495">
<ele>1186.5</ele>
<speed>11.5</speed>
<course>122.6</course>
<desc>Speed 11.5 km/h Distance 17.73 km</desc>
<time>2011-09-24T10:52:34.36</time>
<name>4568</name>
</trkpt>
<trkpt lat="41.812920" lon="-1.822460">
<ele>1186.0</ele>
<speed>11.2</speed>
<course>129.7</course>
<desc>Speed 11.2 km/h Distance 17.73 km</desc>
<time>2011-09-24T10:52:35.36</time>
<name>4569</name>
</trkpt>
<trkpt lat="41.812898" lon="-1.822425">
<ele>1187.0</ele>
<speed>11.7</speed>
<course>129.7</course>
<desc>Speed 11.7 km/h Distance 17.74 km</desc>
<time>2011-09-24T10:52:36.36</time>
<name>4570</name>
</trkpt>
<trkpt lat="41.812877" lon="-1.822390">
<ele>1187.0</ele>
<speed>11.4</speed>
<course>126.2</course>
<desc>Speed 11.4 km/h Distance 17.74 km</desc>
<time>2011-09-24T10:52:37.37</time>
<name>4571</name>
</trkpt>
<trkpt lat="41.812857" lon="-1.822353">
<ele>1187.5</ele>
<speed>10.9</speed>
<course>143.3</course>
<desc>Speed 10.9 km/h Distance 17.75 km</desc>
<time>2011-09-24T10:52:38.37</time>
<name>4572</name>
</trkpt>
<trkpt lat="41.812822" lon="-1.822318">
<ele>1189.0</ele>
<speed>14.4</speed>
<course>130.3</course>
<desc>Speed 14.4 km/h Distance 17.75 km</desc>
<time>2011-09-24T10:52:39.37</time>
<name>4573</name>
</trkpt>
<trkpt lat="41.812802" lon="-1.822287">
<ele>1188.5</ele>
<speed>11.6</speed>
<course>126.4</course>
<desc>Speed 11.6 km/h Distance 17.75 km</desc>
<time>2011-09-24T10:52:40.36</time>
<name>4574</name>
</trkpt>
<trkpt lat="41.812783" lon="-1.822253">
<ele>1188.0</ele>
<speed>11.7</speed>
<course>128.4</course>
<desc>Speed 11.7 km/h Distance 17.76 km</desc>
<time>2011-09-24T10:52:41.37</time>
<name>4575</name>
</trkpt>
<trkpt lat="41.812762" lon="-1.822217">
<ele>1188.5</ele>
<speed>12.3</speed>
<course>128.8</course>
<desc>Speed 12.3 km/h Distance 17.76 km</desc>
<time>2011-09-24T10:52:42.37</time>
<name>4576</name>
</trkpt>
<trkpt lat="41.812742" lon="-1.822183">
<ele>1189.0</ele>
<speed>12.2</speed>
<course>129.7</course>
<desc>Speed 12.2 km/h Distance 17.77 km</desc>
<time>2011-09-24T10:52:43.37</time>
<name>4577</name>
</trkpt>
<trkpt lat="41.812720" lon="-1.822148">
<ele>1190.0</ele>
<speed>12.2</speed>
<course>133.2</course>
<desc>Speed 12.2 km/h Distance 17.77 km</desc>
<time>2011-09-24T10:52:44.36</time>
<name>4578</name>
</trkpt>
<trkpt lat="41.812697" lon="-1.822115">
<ele>1190.5</ele>
<speed>12.1</speed>
<course>133.2</course>
<desc>Speed 12.1 km/h Distance 17.77 km</desc>
<time>2011-09-24T10:52:45.36</time>
<name>4579</name>
</trkpt>
<trkpt lat="41.812673" lon="-1.822082">
<ele>1190.5</ele>
<speed>11.5</speed>
<course>134.7</course>
<desc>Speed 11.5 km/h Distance 17.78 km</desc>
<time>2011-09-24T10:52:46.36</time>
<name>4580</name>
</trkpt>
<trkpt lat="41.812650" lon="-1.822050">
<ele>1191.0</ele>
<speed>11.9</speed>
<course>121.1</course>
<desc>Speed 11.9 km/h Distance 17.78 km</desc>
<time>2011-09-24T10:52:47.36</time>
<name>4581</name>
</trkpt>
<trkpt lat="41.812635" lon="-1.822017">
<ele>1190.0</ele>
<speed>10.2</speed>
<course>129.3</course>
<desc>Speed 10.2 km/h Distance 17.78 km</desc>
<time>2011-09-24T10:52:48.35</time>
<name>4582</name>
</trkpt>
<trkpt lat="41.812617" lon="-1.821987">
<ele>1190.5</ele>
<speed>10.3</speed>
<course>131.0</course>
<desc>Speed 10.3 km/h Distance 17.79 km</desc>
<time>2011-09-24T10:52:49.35</time>
<name>4583</name>
</trkpt>
<trkpt lat="41.812598" lon="-1.821958">
<ele>1189.5</ele>
<speed>9.9</speed>
<course>141.4</course>
<desc>Speed 9.9 km/h Distance 17.79 km</desc>
<time>2011-09-24T10:52:50.35</time>
<name>4584</name>
</trkpt>
<trkpt lat="41.812575" lon="-1.821933">
<ele>1189.0</ele>
<speed>11.2</speed>
<course>132.7</course>
<desc>Speed 11.2 km/h Distance 17.79 km</desc>
<time>2011-09-24T10:52:51.36</time>
<name>4585</name>
</trkpt>
<trkpt lat="41.812557" lon="-1.821907">
<ele>1189.0</ele>
<speed>10.3</speed>
<course>135.2</course>
<desc>Speed 10.3 km/h Distance 17.80 km</desc>
<time>2011-09-24T10:52:52.35</time>
<name>4586</name>
</trkpt>
<trkpt lat="41.812537" lon="-1.821880">
<ele>1189.5</ele>
<speed>10.7</speed>
<course>141.4</course>
<desc>Speed 10.7 km/h Distance 17.80 km</desc>
<time>2011-09-24T10:52:53.35</time>
<name>4587</name>
</trkpt>
<trkpt lat="41.812513" lon="-1.821855">
<ele>1189.5</ele>
<speed>11.1</speed>
<course>137.9</course>
<desc>Speed 11.1 km/h Distance 17.80 km</desc>
<time>2011-09-24T10:52:54.35</time>
<name>4588</name>
</trkpt>
<trkpt lat="41.812490" lon="-1.821827">
<ele>1189.5</ele>
<speed>12.0</speed>
<course>137.5</course>
<desc>Speed 12.0 km/h Distance 17.81 km</desc>
<time>2011-09-24T10:52:55.35</time>
<name>4589</name>
</trkpt>
<trkpt lat="41.812468" lon="-1.821800">
<ele>1189.0</ele>
<speed>10.7</speed>
<course>137.5</course>
<desc>Speed 10.7 km/h Distance 17.81 km</desc>
<time>2011-09-24T10:52:56.34</time>
<name>4590</name>
</trkpt>
<trkpt lat="41.812447" lon="-1.821773">
<ele>1188.5</ele>
<speed>10.8</speed>
<course>137.8</course>
<desc>Speed 10.8 km/h Distance 17.81 km</desc>
<time>2011-09-24T10:52:57.35</time>
<name>4591</name>
</trkpt>
<trkpt lat="41.812423" lon="-1.821745">
<ele>1188.5</ele>
<speed>11.1</speed>
<course>137.8</course>
<desc>Speed 11.1 km/h Distance 17.82 km</desc>
<time>2011-09-24T10:52:58.35</time>
<name>4592</name>
</trkpt>
<trkpt lat="41.812400" lon="-1.821717">
<ele>1189.0</ele>
<speed>11.2</speed>
<course>135.2</course>
<desc>Speed 11.2 km/h Distance 17.82 km</desc>
<time>2011-09-24T10:52:59.35</time>
<name>4593</name>
</trkpt>
<trkpt lat="41.812380" lon="-1.821690">
<ele>1189.0</ele>
<speed>11.1</speed>
<course>139.6</course>
<desc>Speed 11.1 km/h Distance 17.82 km</desc>
<time>2011-09-24T10:53:00.34</time>
<name>4594</name>
</trkpt>
<trkpt lat="41.812357" lon="-1.821663">
<ele>1189.5</ele>
<speed>11.6</speed>
<course>139.8</course>
<desc>Speed 11.6 km/h Distance 17.83 km</desc>
<time>2011-09-24T10:53:01.34</time>
<name>4595</name>
</trkpt>
<trkpt lat="41.812332" lon="-1.821635">
<ele>1189.5</ele>
<speed>11.7</speed>
<course>135.7</course>
<desc>Speed 11.7 km/h Distance 17.83 km</desc>
<time>2011-09-24T10:53:02.34</time>
<name>4596</name>
</trkpt>
<trkpt lat="41.812310" lon="-1.821607">
<ele>1190.0</ele>
<speed>11.2</speed>
<course>139.5</course>
<desc>Speed 11.2 km/h Distance 17.83 km</desc>
<time>2011-09-24T10:53:03.34</time>
<name>4597</name>
</trkpt>
<trkpt lat="41.812287" lon="-1.821580">
<ele>1190.0</ele>
<speed>11.0</speed>
<course>135.7</course>
<desc>Speed 11.0 km/h Distance 17.84 km</desc>
<time>2011-09-24T10:53:04.35</time>
<name>4598</name>
</trkpt>
<trkpt lat="41.812265" lon="-1.821552">
<ele>1190.5</ele>
<speed>11.4</speed>
<course>135.7</course>
<desc>Speed 11.4 km/h Distance 17.84 km</desc>
<time>2011-09-24T10:53:05.34</time>
<name>4599</name>
</trkpt>
<trkpt lat="41.812243" lon="-1.821523">
<ele>1190.0</ele>
<speed>11.1</speed>
<course>139.5</course>
<desc>Speed 11.1 km/h Distance 17.84 km</desc>
<time>2011-09-24T10:53:06.34</time>
<name>4600</name>
</trkpt>
<trkpt lat="41.812220" lon="-1.821497">
<ele>1190.5</ele>
<speed>11.4</speed>
<course>118.2</course>
<desc>Speed 11.4 km/h Distance 17.85 km</desc>
<time>2011-09-24T10:53:07.34</time>
<name>4601</name>
</trkpt>
<trkpt lat="41.812210" lon="-1.821472">
<ele>1189.5</ele>
<speed>8.2</speed>
<course>131.9</course>
<desc>Speed 8.2 km/h Distance 17.85 km</desc>
<time>2011-09-24T10:53:08.33</time>
<name>4602</name>
</trkpt>
<trkpt lat="41.812193" lon="-1.821447">
<ele>1190.0</ele>
<speed>9.6</speed>
<course>129.3</course>
<desc>Speed 9.6 km/h Distance 17.85 km</desc>
<time>2011-09-24T10:53:09.34</time>
<name>4603</name>
</trkpt>
<trkpt lat="41.812175" lon="-1.821417">
<ele>1190.0</ele>
<speed>10.9</speed>
<course>128.3</course>
<desc>Speed 10.9 km/h Distance 17.86 km</desc>
<time>2011-09-24T10:53:10.33</time>
<name>4604</name>
</trkpt>
<trkpt lat="41.812158" lon="-1.821388">
<ele>1189.5</ele>
<speed>10.0</speed>
<course>136.2</course>
<desc>Speed 10.0 km/h Distance 17.86 km</desc>
<time>2011-09-24T10:53:11.33</time>
<name>4605</name>
</trkpt>
<trkpt lat="41.812135" lon="-1.821358">
<ele>1190.0</ele>
<speed>12.1</speed>
<course>129.3</course>
<desc>Speed 12.1 km/h Distance 17.86 km</desc>
<time>2011-09-24T10:53:12.34</time>
<name>4606</name>
</trkpt>
<trkpt lat="41.812117" lon="-1.821328">
<ele>1190.0</ele>
<speed>10.9</speed>
<course>119.5</course>
<desc>Speed 10.9 km/h Distance 17.87 km</desc>
<time>2011-09-24T10:53:13.34</time>
<name>4607</name>
</trkpt>
<trkpt lat="41.812103" lon="-1.821297">
<ele>1190.5</ele>
<speed>10.2</speed>
<course>116.7</course>
<desc>Speed 10.2 km/h Distance 17.87 km</desc>
<time>2011-09-24T10:53:14.34</time>
<name>4608</name>
</trkpt>
<trkpt lat="41.812093" lon="-1.821270">
<ele>1188.5</ele>
<speed>8.0</speed>
<course>123.9</course>
<desc>Speed 8.0 km/h Distance 17.87 km</desc>
<time>2011-09-24T10:53:15.33</time>
<name>4609</name>
</trkpt>
<trkpt lat="41.812080" lon="-1.821243">
<ele>1187.0</ele>
<speed>8.8</speed>
<course>131.0</course>
<desc>Speed 8.8 km/h Distance 17.87 km</desc>
<time>2011-09-24T10:53:16.34</time>
<name>4610</name>
</trkpt>
<trkpt lat="41.812062" lon="-1.821215">
<ele>1186.5</ele>
<speed>10.0</speed>
<course>127.8</course>
<desc>Speed 10.0 km/h Distance 17.88 km</desc>
<time>2011-09-24T10:53:17.33</time>
<name>4611</name>
</trkpt>
<trkpt lat="41.812043" lon="-1.821183">
<ele>1186.5</ele>
<speed>10.4</speed>
<course>126.4</course>
<desc>Speed 10.4 km/h Distance 17.88 km</desc>
<time>2011-09-24T10:53:18.32</time>
<name>4612</name>
</trkpt>
<trkpt lat="41.812025" lon="-1.821150">
<ele>1186.5</ele>
<speed>10.7</speed>
<course>122.5</course>
<desc>Speed 10.7 km/h Distance 17.88 km</desc>
<time>2011-09-24T10:53:19.32</time>
<name>4613</name>
</trkpt>
<trkpt lat="41.812010" lon="-1.821118">
<ele>1186.0</ele>
<speed>9.7</speed>
<course>128.8</course>
<desc>Speed 9.7 km/h Distance 17.89 km</desc>
<time>2011-09-24T10:53:20.32</time>
<name>4614</name>
</trkpt>
<trkpt lat="41.811990" lon="-1.821085">
<ele>1187.0</ele>
<speed>11.7</speed>
<course>116.0</course>
<desc>Speed 11.7 km/h Distance 17.89 km</desc>
<time>2011-09-24T10:53:21.33</time>
<name>4615</name>
</trkpt>
<trkpt lat="41.811977" lon="-1.821048">
<ele>1186.5</ele>
<speed>10.7</speed>
<course>120.2</course>
<desc>Speed 10.7 km/h Distance 17.89 km</desc>
<time>2011-09-24T10:53:22.33</time>
<name>4616</name>
</trkpt>
<trkpt lat="41.811960" lon="-1.821010">
<ele>1187.0</ele>
<speed>11.5</speed>
<course>123.9</course>
<desc>Speed 11.5 km/h Distance 17.90 km</desc>
<time>2011-09-24T10:53:23.33</time>
<name>4617</name>
</trkpt>
<trkpt lat="41.811943" lon="-1.820977">
<ele>1187.0</ele>
<speed>11.1</speed>
<course>134.3</course>
<desc>Speed 11.1 km/h Distance 17.90 km</desc>
<time>2011-09-24T10:53:24.33</time>
<name>4618</name>
</trkpt>
<trkpt lat="41.811930" lon="-1.820958">
<ele>1186.0</ele>
<speed>7.0</speed>
<course>123.9</course>
<desc>Speed 7.0 km/h Distance 17.90 km</desc>
<time>2011-09-24T10:53:25.33</time>
<name>4619</name>
</trkpt>
<trkpt lat="41.811913" lon="-1.820925">
<ele>1187.5</ele>
<speed>10.7</speed>
<course>114.1</course>
<desc>Speed 10.7 km/h Distance 17.91 km</desc>
<time>2011-09-24T10:53:26.32</time>
<name>4620</name>
</trkpt>
<trkpt lat="41.811902" lon="-1.820890">
<ele>1188.5</ele>
<speed>9.1</speed>
<course>128.8</course>
<desc>Speed 9.1 km/h Distance 17.91 km</desc>
<time>2011-09-24T10:53:27.32</time>
<name>4621</name>
</trkpt>
<trkpt lat="41.811882" lon="-1.820857">
<ele>1190.5</ele>
<speed>10.5</speed>
<course>120.2</course>
<desc>Speed 10.5 km/h Distance 17.91 km</desc>
<time>2011-09-24T10:53:28.32</time>
<name>4622</name>
</trkpt>
<trkpt lat="41.811865" lon="-1.820818">
<ele>1193.0</ele>
<speed>10.7</speed>
<course>135.2</course>
<desc>Speed 10.7 km/h Distance 17.92 km</desc>
<time>2011-09-24T10:53:29.32</time>
<name>4623</name>
</trkpt>
<trkpt lat="41.811845" lon="-1.820792">
<ele>1194.5</ele>
<speed>10.0</speed>
<course>129.5</course>
<desc>Speed 10.0 km/h Distance 17.92 km</desc>
<time>2011-09-24T10:53:30.31</time>
<name>4624</name>
</trkpt>
<trkpt lat="41.811832" lon="-1.820770">
<ele>1193.5</ele>
<speed>7.5</speed>
<course>130.0</course>
<desc>Speed 7.5 km/h Distance 17.92 km</desc>
<time>2011-09-24T10:53:31.32</time>
<name>4625</name>
</trkpt>
<trkpt lat="41.811815" lon="-1.820743">
<ele>1193.5</ele>
<speed>7.5</speed>
<course>119.5</course>
<desc>Speed 7.5 km/h Distance 17.92 km</desc>
<time>2011-09-24T10:53:32.32</time>
<name>4626</name>
</trkpt>
<trkpt lat="41.811802" lon="-1.820712">
<ele>1195.5</ele>
<speed>8.9</speed>
<course>152.7</course>
<desc>Speed 8.9 km/h Distance 17.93 km</desc>
<time>2011-09-24T10:53:33.32</time>
<name>4627</name>
</trkpt>
<trkpt lat="41.811780" lon="-1.820697">
<ele>1196.0</ele>
<speed>8.9</speed>
<course>151.5</course>
<desc>Speed 8.9 km/h Distance 17.93 km</desc>
<time>2011-09-24T10:53:34.31</time>
<name>4628</name>
</trkpt>
<trkpt lat="41.811762" lon="-1.820683">
<ele>1195.0</ele>
<speed>8.0</speed>
<course>149.2</course>
<desc>Speed 8.0 km/h Distance 17.93 km</desc>
<time>2011-09-24T10:53:35.31</time>
<name>4629</name>
</trkpt>
<trkpt lat="41.811745" lon="-1.820670">
<ele>1194.0</ele>
<speed>8.3</speed>
<course>153.6</course>
<desc>Speed 8.3 km/h Distance 17.93 km</desc>
<time>2011-09-24T10:53:36.31</time>
<name>4630</name>
</trkpt>
<trkpt lat="41.811725" lon="-1.820657">
<ele>1194.5</ele>
<speed>8.4</speed>
<course>156.6</course>
<desc>Speed 8.4 km/h Distance 17.94 km</desc>
<time>2011-09-24T10:53:37.31</time>
<name>4631</name>
</trkpt>
<trkpt lat="41.811705" lon="-1.820645">
<ele>1194.0</ele>
<speed>9.9</speed>
<course>146.1</course>
<desc>Speed 9.9 km/h Distance 17.94 km</desc>
<time>2011-09-24T10:53:38.31</time>
<name>4632</name>
</trkpt>
<trkpt lat="41.811688" lon="-1.820630">
<ele>1193.5</ele>
<speed>9.7</speed>
<course>163.9</course>
<desc>Speed 9.7 km/h Distance 17.94 km</desc>
<time>2011-09-24T10:53:39.48</time>
<name>4633</name>
</trkpt>
<trkpt lat="41.811637" lon="-1.820610">
<ele>1195.5</ele>
<speed>12.8</speed>
<course>166.7</course>
<desc>Speed 12.8 km/h Distance 17.95 km</desc>
<time>2011-09-24T10:53:41.31</time>
<name>4634</name>
</trkpt>
<trkpt lat="41.811605" lon="-1.820600">
<ele>1195.0</ele>
<speed>13.4</speed>
<course>163.9</course>
<desc>Speed 13.4 km/h Distance 17.95 km</desc>
<time>2011-09-24T10:53:42.31</time>
<name>4635</name>
</trkpt>
<trkpt lat="41.811575" lon="-1.820588">
<ele>1196.0</ele>
<speed>11.8</speed>
<course>162.5</course>
<desc>Speed 11.8 km/h Distance 17.95 km</desc>
<time>2011-09-24T10:53:43.31</time>
<name>4636</name>
</trkpt>
<trkpt lat="41.811543" lon="-1.820575">
<ele>1196.5</ele>
<speed>11.9</speed>
<course>156.7</course>
<desc>Speed 11.9 km/h Distance 17.96 km</desc>
<time>2011-09-24T10:53:44.31</time>
<name>4637</name>
</trkpt>
<trkpt lat="41.811512" lon="-1.820557">
<ele>1197.5</ele>
<speed>13.5</speed>
<course>150.8</course>
<desc>Speed 13.5 km/h Distance 17.96 km</desc>
<time>2011-09-24T10:53:45.31</time>
<name>4638</name>
</trkpt>
<trkpt lat="41.811485" lon="-1.820537">
<ele>1197.0</ele>
<speed>11.4</speed>
<course>149.2</course>
<desc>Speed 11.4 km/h Distance 17.97 km</desc>
<time>2011-09-24T10:53:46.31</time>
<name>4639</name>
</trkpt>
<trkpt lat="41.811460" lon="-1.820517">
<ele>1197.0</ele>
<speed>10.4</speed>
<course>145.2</course>
<desc>Speed 10.4 km/h Distance 17.97 km</desc>
<time>2011-09-24T10:53:47.31</time>
<name>4640</name>
</trkpt>
<trkpt lat="41.811435" lon="-1.820493">
<ele>1196.5</ele>
<speed>11.4</speed>
<course>138.2</course>
<desc>Speed 11.4 km/h Distance 17.97 km</desc>
<time>2011-09-24T10:53:48.31</time>
<name>4641</name>
</trkpt>
<trkpt lat="41.811410" lon="-1.820463">
<ele>1196.5</ele>
<speed>11.5</speed>
<course>135.2</course>
<desc>Speed 11.5 km/h Distance 17.98 km</desc>
<time>2011-09-24T10:53:49.30</time>
<name>4642</name>
</trkpt>
<trkpt lat="41.811390" lon="-1.820437">
<ele>1195.0</ele>
<speed>9.8</speed>
<course>109.0</course>
<desc>Speed 9.8 km/h Distance 17.98 km</desc>
<time>2011-09-24T10:53:51.11</time>
<name>4643</name>
</trkpt>
<trkpt lat="41.811373" lon="-1.820372">
<ele>1188.0</ele>
<speed>9.1</speed>
<course>105.0</course>
<desc>Speed 9.1 km/h Distance 17.99 km</desc>
<time>2011-09-24T10:53:52.31</time>
<name>4644</name>
</trkpt>
<trkpt lat="41.811365" lon="-1.820330">
<ele>1186.0</ele>
<speed>11.9</speed>
<course>102.6</course>
<desc>Speed 11.9 km/h Distance 17.99 km</desc>
<time>2011-09-24T10:53:53.56</time>
<name>4645</name>
</trkpt>
<trkpt lat="41.811358" lon="-1.820290">
<ele>1186.0</ele>
<speed>11.3</speed>
<course>103.1</course>
<desc>Speed 11.3 km/h Distance 17.99 km</desc>
<time>2011-09-24T10:53:54.30</time>
<name>4646</name>
</trkpt>
<trkpt lat="41.811352" lon="-1.820252">
<ele>1185.0</ele>
<speed>10.8</speed>
<course>97.0</course>
<desc>Speed 10.8 km/h Distance 18.00 km</desc>
<time>2011-09-24T10:53:55.30</time>
<name>4647</name>
</trkpt>
<trkpt lat="41.811348" lon="-1.820215">
<ele>1183.5</ele>
<speed>10.0</speed>
<course>93.5</course>
<desc>Speed 10.0 km/h Distance 18.00 km</desc>
<time>2011-09-24T10:53:56.31</time>
<name>4648</name>
</trkpt>
<trkpt lat="41.811347" lon="-1.820178">
<ele>1182.5</ele>
<speed>10.1</speed>
<course>93.3</course>
<desc>Speed 10.1 km/h Distance 18.00 km</desc>
<time>2011-09-24T10:53:57.31</time>
<name>4649</name>
</trkpt>
<trkpt lat="41.811345" lon="-1.820140">
<ele>1181.0</ele>
<speed>10.3</speed>
<course>105.0</course>
<desc>Speed 10.3 km/h Distance 18.00 km</desc>
<time>2011-09-24T10:53:58.31</time>
<name>4650</name>
</trkpt>
<trkpt lat="41.811338" lon="-1.820107">
<ele>1180.0</ele>
<speed>9.5</speed>
<course>115.2</course>
<desc>Speed 9.5 km/h Distance 18.01 km</desc>
<time>2011-09-24T10:53:59.30</time>
<name>4651</name>
</trkpt>
<trkpt lat="41.811327" lon="-1.820073">
<ele>1179.5</ele>
<speed>9.9</speed>
<course>119.5</course>
<desc>Speed 9.9 km/h Distance 18.01 km</desc>
<time>2011-09-24T10:54:00.30</time>
<name>4652</name>
</trkpt>
<trkpt lat="41.811313" lon="-1.820042">
<ele>1179.0</ele>
<speed>10.6</speed>
<course>128.3</course>
<desc>Speed 10.6 km/h Distance 18.01 km</desc>
<time>2011-09-24T10:54:01.30</time>
<name>4653</name>
</trkpt>
<trkpt lat="41.811297" lon="-1.820013">
<ele>1178.0</ele>
<speed>10.0</speed>
<course>136.7</course>
<desc>Speed 10.0 km/h Distance 18.02 km</desc>
<time>2011-09-24T10:54:02.29</time>
<name>4654</name>
</trkpt>
<trkpt lat="41.811272" lon="-1.819982">
<ele>1178.5</ele>
<speed>12.5</speed>
<course>145.2</course>
<desc>Speed 12.5 km/h Distance 18.02 km</desc>
<time>2011-09-24T10:54:03.29</time>
<name>4655</name>
</trkpt>
<trkpt lat="41.811247" lon="-1.819958">
<ele>1179.0</ele>
<speed>11.1</speed>
<course>145.1</course>
<desc>Speed 11.1 km/h Distance 18.02 km</desc>
<time>2011-09-24T10:54:04.30</time>
<name>4656</name>
</trkpt>
<trkpt lat="41.811220" lon="-1.819933">
<ele>1179.5</ele>
<speed>11.4</speed>
<course>109.4</course>
<desc>Speed 11.4 km/h Distance 18.03 km</desc>
<time>2011-09-24T10:54:05.30</time>
<name>4657</name>
</trkpt>
<trkpt lat="41.811212" lon="-1.819902">
<ele>1180.5</ele>
<speed>7.7</speed>
<course>145.1</course>
<desc>Speed 7.7 km/h Distance 18.03 km</desc>
<time>2011-09-24T10:54:06.30</time>
<name>4658</name>
</trkpt>
<trkpt lat="41.811158" lon="-1.819852">
<ele>1182.5</ele>
<speed>10.5</speed>
<course>155.9</course>
<desc>Speed 10.5 km/h Distance 18.04 km</desc>
<time>2011-09-24T10:54:08.30</time>
<name>4659</name>
</trkpt>
<trkpt lat="41.811133" lon="-1.819837">
<ele>1182.5</ele>
<speed>9.4</speed>
<course>159.6</course>
<desc>Speed 9.4 km/h Distance 18.04 km</desc>
<time>2011-09-24T10:54:09.29</time>
<name>4660</name>
</trkpt>
<trkpt lat="41.811110" lon="-1.819825">
<ele>1182.0</ele>
<speed>10.2</speed>
<course>162.4</course>
<desc>Speed 10.2 km/h Distance 18.04 km</desc>
<time>2011-09-24T10:54:10.30</time>
<name>4661</name>
</trkpt>
<trkpt lat="41.811087" lon="-1.819815">
<ele>1182.0</ele>
<speed>10.0</speed>
<course>159.5</course>
<desc>Speed 10.0 km/h Distance 18.05 km</desc>
<time>2011-09-24T10:54:11.29</time>
<name>4662</name>
</trkpt>
<trkpt lat="41.811063" lon="-1.819803">
<ele>1182.5</ele>
<speed>10.2</speed>
<course>159.6</course>
<desc>Speed 10.2 km/h Distance 18.05 km</desc>
<time>2011-09-24T10:54:12.29</time>
<name>4663</name>
</trkpt>
<trkpt lat="41.811037" lon="-1.819790">
<ele>1182.5</ele>
<speed>10.4</speed>
<course>164.7</course>
<desc>Speed 10.4 km/h Distance 18.05 km</desc>
<time>2011-09-24T10:54:13.29</time>
<name>4664</name>
</trkpt>
<trkpt lat="41.811005" lon="-1.819778">
<ele>1182.5</ele>
<speed>11.7</speed>
<course>156.6</course>
<desc>Speed 11.7 km/h Distance 18.06 km</desc>
<time>2011-09-24T10:54:14.29</time>
<name>4665</name>
</trkpt>
<trkpt lat="41.810985" lon="-1.819767">
<ele>1182.5</ele>
<speed>7.5</speed>
<course>165.8</course>
<desc>Speed 7.5 km/h Distance 18.06 km</desc>
<time>2011-09-24T10:54:15.28</time>
<name>4666</name>
</trkpt>
<trkpt lat="41.810965" lon="-1.819760">
<ele>1182.0</ele>
<speed>9.5</speed>
<course>173.7</course>
<desc>Speed 9.5 km/h Distance 18.06 km</desc>
<time>2011-09-24T10:54:16.29</time>
<name>4667</name>
</trkpt>
<trkpt lat="41.810942" lon="-1.819757">
<ele>1181.5</ele>
<speed>9.6</speed>
<course>159.6</course>
<desc>Speed 9.6 km/h Distance 18.06 km</desc>
<time>2011-09-24T10:54:17.28</time>
<name>4668</name>
</trkpt>
<trkpt lat="41.810922" lon="-1.819747">
<ele>1181.0</ele>
<speed>10.7</speed>
<course>172.6</course>
<desc>Speed 10.7 km/h Distance 18.07 km</desc>
<time>2011-09-24T10:54:18.28</time>
<name>4669</name>
</trkpt>
<trkpt lat="41.810893" lon="-1.819742">
<ele>1181.0</ele>
<speed>10.3</speed>
<course>166.9</course>
<desc>Speed 10.3 km/h Distance 18.07 km</desc>
<time>2011-09-24T10:54:19.29</time>
<name>4670</name>
</trkpt>
<trkpt lat="41.810867" lon="-1.819733">
<ele>1181.0</ele>
<speed>9.2</speed>
<course>167.9</course>
<desc>Speed 9.2 km/h Distance 18.07 km</desc>
<time>2011-09-24T10:54:20.28</time>
<name>4671</name>
</trkpt>
<trkpt lat="41.810843" lon="-1.819727">
<ele>1181.5</ele>
<speed>10.0</speed>
<course>165.1</course>
<desc>Speed 10.0 km/h Distance 18.07 km</desc>
<time>2011-09-24T10:54:21.29</time>
<name>4672</name>
</trkpt>
<trkpt lat="41.810820" lon="-1.819718">
<ele>1182.0</ele>
<speed>10.4</speed>
<course>161.0</course>
<desc>Speed 10.4 km/h Distance 18.08 km</desc>
<time>2011-09-24T10:54:22.28</time>
<name>4673</name>
</trkpt>
<trkpt lat="41.810798" lon="-1.819708">
<ele>1183.0</ele>
<speed>8.9</speed>
<course>159.6</course>
<desc>Speed 8.9 km/h Distance 18.08 km</desc>
<time>2011-09-24T10:54:23.28</time>
<name>4674</name>
</trkpt>
<trkpt lat="41.810775" lon="-1.819697">
<ele>1185.0</ele>
<speed>8.2</speed>
<course>156.1</course>
<desc>Speed 8.2 km/h Distance 18.08 km</desc>
<time>2011-09-24T10:54:24.28</time>
<name>4675</name>
</trkpt>
<trkpt lat="41.810705" lon="-1.819655">
<ele>1189.0</ele>
<speed>12.1</speed>
<course>143.3</course>
<desc>Speed 12.1 km/h Distance 18.09 km</desc>
<time>2011-09-24T10:54:26.28</time>
<name>4676</name>
</trkpt>
<trkpt lat="41.810673" lon="-1.819623">
<ele>1192.0</ele>
<speed>11.1</speed>
<course>139.0</course>
<desc>Speed 11.1 km/h Distance 18.10 km</desc>
<time>2011-09-24T10:54:27.28</time>
<name>4677</name>
</trkpt>
<trkpt lat="41.810603" lon="-1.819542">
<ele>1199.0</ele>
<speed>12.1</speed>
<course>133.5</course>
<desc>Speed 12.1 km/h Distance 18.11 km</desc>
<time>2011-09-24T10:54:29.28</time>
<name>4678</name>
</trkpt>
<trkpt lat="41.810575" lon="-1.819502">
<ele>1201.0</ele>
<speed>11.4</speed>
<course>141.5</course>
<desc>Speed 11.4 km/h Distance 18.11 km</desc>
<time>2011-09-24T10:54:30.27</time>
<name>4679</name>
</trkpt>
<trkpt lat="41.810550" lon="-1.819475">
<ele>1200.0</ele>
<speed>11.2</speed>
<course>141.7</course>
<desc>Speed 11.2 km/h Distance 18.11 km</desc>
<time>2011-09-24T10:54:31.27</time>
<name>4680</name>
</trkpt>
<trkpt lat="41.810522" lon="-1.819445">
<ele>1200.5</ele>
<speed>12.6</speed>
<course>137.7</course>
<desc>Speed 12.6 km/h Distance 18.12 km</desc>
<time>2011-09-24T10:54:32.27</time>
<name>4681</name>
</trkpt>
<trkpt lat="41.810492" lon="-1.819408">
<ele>1202.5</ele>
<speed>13.0</speed>
<course>136.2</course>
<desc>Speed 13.0 km/h Distance 18.12 km</desc>
<time>2011-09-24T10:54:33.27</time>
<name>4682</name>
</trkpt>
<trkpt lat="41.810468" lon="-1.819378">
<ele>1202.0</ele>
<speed>12.2</speed>
<course>131.1</course>
<desc>Speed 12.2 km/h Distance 18.13 km</desc>
<time>2011-09-24T10:54:34.27</time>
<name>4683</name>
</trkpt>
<trkpt lat="41.810447" lon="-1.819345">
<ele>1201.5</ele>
<speed>12.4</speed>
<course>139.8</course>
<desc>Speed 12.4 km/h Distance 18.13 km</desc>
<time>2011-09-24T10:54:35.27</time>
<name>4684</name>
</trkpt>
<trkpt lat="41.810422" lon="-1.819317">
<ele>1201.0</ele>
<speed>12.2</speed>
<course>126.4</course>
<desc>Speed 12.2 km/h Distance 18.13 km</desc>
<time>2011-09-24T10:54:36.27</time>
<name>4685</name>
</trkpt>
<trkpt lat="41.810403" lon="-1.819283">
<ele>1201.0</ele>
<speed>11.0</speed>
<course>131.8</course>
<desc>Speed 11.0 km/h Distance 18.14 km</desc>
<time>2011-09-24T10:54:37.26</time>
<name>4686</name>
</trkpt>
<trkpt lat="41.810383" lon="-1.819253">
<ele>1200.0</ele>
<speed>11.8</speed>
<course>130.0</course>
<desc>Speed 11.8 km/h Distance 18.14 km</desc>
<time>2011-09-24T10:54:38.27</time>
<name>4687</name>
</trkpt>
<trkpt lat="41.810367" lon="-1.819227">
<ele>1198.0</ele>
<speed>11.7</speed>
<course>141.5</course>
<desc>Speed 11.7 km/h Distance 18.14 km</desc>
<time>2011-09-24T10:54:39.26</time>
<name>4688</name>
</trkpt>
<trkpt lat="41.810342" lon="-1.819200">
<ele>1197.0</ele>
<speed>11.7</speed>
<course>146.7</course>
<desc>Speed 11.7 km/h Distance 18.15 km</desc>
<time>2011-09-24T10:54:40.27</time>
<name>4689</name>
</trkpt>
<trkpt lat="41.810313" lon="-1.819175">
<ele>1197.0</ele>
<speed>12.6</speed>
<course>139.8</course>
<desc>Speed 12.6 km/h Distance 18.15 km</desc>
<time>2011-09-24T10:54:41.26</time>
<name>4690</name>
</trkpt>
<trkpt lat="41.810288" lon="-1.819147">
<ele>1196.5</ele>
<speed>12.7</speed>
<course>137.4</course>
<desc>Speed 12.7 km/h Distance 18.15 km</desc>
<time>2011-09-24T10:54:42.27</time>
<name>4691</name>
</trkpt>
<trkpt lat="41.810267" lon="-1.819120">
<ele>1196.0</ele>
<speed>10.8</speed>
<course>131.1</course>
<desc>Speed 10.8 km/h Distance 18.16 km</desc>
<time>2011-09-24T10:54:43.27</time>
<name>4692</name>
</trkpt>
<trkpt lat="41.810245" lon="-1.819087">
<ele>1196.0</ele>
<speed>9.4</speed>
<course>144.0</course>
<desc>Speed 9.4 km/h Distance 18.16 km</desc>
<time>2011-09-24T10:54:44.26</time>
<name>4693</name>
</trkpt>
<trkpt lat="41.810183" lon="-1.819027">
<ele>1198.5</ele>
<speed>12.4</speed>
<course>146.9</course>
<desc>Speed 12.4 km/h Distance 18.17 km</desc>
<time>2011-09-24T10:54:46.26</time>
<name>4694</name>
</trkpt>
<trkpt lat="41.810157" lon="-1.819003">
<ele>1198.5</ele>
<speed>12.2</speed>
<course>149.9</course>
<desc>Speed 12.2 km/h Distance 18.17 km</desc>
<time>2011-09-24T10:54:47.27</time>
<name>4695</name>
</trkpt>
<trkpt lat="41.810127" lon="-1.818980">
<ele>1198.5</ele>
<speed>12.7</speed>
<course>149.7</course>
<desc>Speed 12.7 km/h Distance 18.18 km</desc>
<time>2011-09-24T10:54:48.26</time>
<name>4696</name>
</trkpt>
<trkpt lat="41.810103" lon="-1.818962">
<ele>1197.5</ele>
<speed>11.4</speed>
<course>149.2</course>
<desc>Speed 11.4 km/h Distance 18.18 km</desc>
<time>2011-09-24T10:54:49.26</time>
<name>4697</name>
</trkpt>
<trkpt lat="41.810078" lon="-1.818942">
<ele>1197.5</ele>
<speed>12.2</speed>
<course>147.1</course>
<desc>Speed 12.2 km/h Distance 18.18 km</desc>
<time>2011-09-24T10:54:50.26</time>
<name>4698</name>
</trkpt>
<trkpt lat="41.810053" lon="-1.818920">
<ele>1198.0</ele>
<speed>12.2</speed>
<course>148.1</course>
<desc>Speed 12.2 km/h Distance 18.19 km</desc>
<time>2011-09-24T10:54:51.26</time>
<name>4699</name>
</trkpt>
<trkpt lat="41.810023" lon="-1.818895">
<ele>1198.0</ele>
<speed>12.9</speed>
<course>151.3</course>
<desc>Speed 12.9 km/h Distance 18.19 km</desc>
<time>2011-09-24T10:54:52.25</time>
<name>4700</name>
</trkpt>
<trkpt lat="41.809998" lon="-1.818877">
<ele>1198.0</ele>
<speed>12.2</speed>
<course>150.8</course>
<desc>Speed 12.2 km/h Distance 18.19 km</desc>
<time>2011-09-24T10:54:53.25</time>
<name>4701</name>
</trkpt>
<trkpt lat="41.809972" lon="-1.818857">
<ele>1198.0</ele>
<speed>12.2</speed>
<course>148.5</course>
<desc>Speed 12.2 km/h Distance 18.20 km</desc>
<time>2011-09-24T10:54:54.31</time>
<name>4702</name>
</trkpt>
<trkpt lat="41.809915" lon="-1.818810">
<ele>1199.5</ele>
<speed>12.0</speed>
<course>150.8</course>
<desc>Speed 12.0 km/h Distance 18.20 km</desc>
<time>2011-09-24T10:54:56.25</time>
<name>4703</name>
</trkpt>
<trkpt lat="41.809888" lon="-1.818790">
<ele>1200.0</ele>
<speed>12.1</speed>
<course>148.8</course>
<desc>Speed 12.1 km/h Distance 18.21 km</desc>
<time>2011-09-24T10:54:57.24</time>
<name>4704</name>
</trkpt>
<trkpt lat="41.809862" lon="-1.818768">
<ele>1200.5</ele>
<speed>12.3</speed>
<course>146.7</course>
<desc>Speed 12.3 km/h Distance 18.21 km</desc>
<time>2011-09-24T10:54:58.25</time>
<name>4705</name>
</trkpt>
<trkpt lat="41.809833" lon="-1.818743">
<ele>1201.0</ele>
<speed>11.8</speed>
<course>149.2</course>
<desc>Speed 11.8 km/h Distance 18.21 km</desc>
<time>2011-09-24T10:54:59.24</time>
<name>4706</name>
</trkpt>
<trkpt lat="41.809808" lon="-1.818723">
<ele>1201.5</ele>
<speed>11.1</speed>
<course>138.2</course>
<desc>Speed 11.1 km/h Distance 18.22 km</desc>
<time>2011-09-24T10:55:00.24</time>
<name>4707</name>
</trkpt>
<trkpt lat="41.809783" lon="-1.818693">
<ele>1203.5</ele>
<speed>11.1</speed>
<course>135.7</course>
<desc>Speed 11.1 km/h Distance 18.22 km</desc>
<time>2011-09-24T10:55:01.24</time>
<name>4708</name>
</trkpt>
<trkpt lat="41.809762" lon="-1.818665">
<ele>1205.0</ele>
<speed>10.8</speed>
<course>135.2</course>
<desc>Speed 10.8 km/h Distance 18.22 km</desc>
<time>2011-09-24T10:55:02.23</time>
<name>4709</name>
</trkpt>
<trkpt lat="41.809742" lon="-1.818638">
<ele>1206.0</ele>
<speed>10.6</speed>
<course>149.2</course>
<desc>Speed 10.6 km/h Distance 18.23 km</desc>
<time>2011-09-24T10:55:03.23</time>
<name>4710</name>
</trkpt>
<trkpt lat="41.809708" lon="-1.818612">
<ele>1208.5</ele>
<speed>10.7</speed>
<course>146.9</course>
<desc>Speed 10.7 km/h Distance 18.23 km</desc>
<time>2011-09-24T10:55:04.23</time>
<name>4711</name>
</trkpt>
<trkpt lat="41.809682" lon="-1.818588">
<ele>1209.0</ele>
<speed>10.5</speed>
<course>152.4</course>
<desc>Speed 10.5 km/h Distance 18.24 km</desc>
<time>2011-09-24T10:55:05.24</time>
<name>4712</name>
</trkpt>
<trkpt lat="41.809648" lon="-1.818565">
<ele>1210.0</ele>
<speed>12.1</speed>
<course>147.1</course>
<desc>Speed 12.1 km/h Distance 18.24 km</desc>
<time>2011-09-24T10:55:06.23</time>
<name>4713</name>
</trkpt>
<trkpt lat="41.809623" lon="-1.818543">
<ele>1210.5</ele>
<speed>10.8</speed>
<course>148.8</course>
<desc>Speed 10.8 km/h Distance 18.24 km</desc>
<time>2011-09-24T10:55:07.23</time>
<name>4714</name>
</trkpt>
<trkpt lat="41.809597" lon="-1.818522">
<ele>1211.0</ele>
<speed>11.1</speed>
<course>150.8</course>
<desc>Speed 11.1 km/h Distance 18.25 km</desc>
<time>2011-09-24T10:55:08.24</time>
<name>4715</name>
</trkpt>
<trkpt lat="41.809570" lon="-1.818502">
<ele>1211.0</ele>
<speed>10.7</speed>
<course>152.9</course>
<desc>Speed 10.7 km/h Distance 18.25 km</desc>
<time>2011-09-24T10:55:09.23</time>
<name>4716</name>
</trkpt>
<trkpt lat="41.809543" lon="-1.818483">
<ele>1210.5</ele>
<speed>10.3</speed>
<course>149.6</course>
<desc>Speed 10.3 km/h Distance 18.25 km</desc>
<time>2011-09-24T10:55:10.24</time>
<name>4717</name>
</trkpt>
<trkpt lat="41.809520" lon="-1.818465">
<ele>1210.5</ele>
<speed>9.1</speed>
<course>152.2</course>
<desc>Speed 9.1 km/h Distance 18.26 km</desc>
<time>2011-09-24T10:55:11.23</time>
<name>4718</name>
</trkpt>
<trkpt lat="41.809492" lon="-1.818445">
<ele>1210.0</ele>
<speed>11.2</speed>
<course>152.9</course>
<desc>Speed 11.2 km/h Distance 18.26 km</desc>
<time>2011-09-24T10:55:12.23</time>
<name>4719</name>
</trkpt>
<trkpt lat="41.809465" lon="-1.818427">
<ele>1210.5</ele>
<speed>10.1</speed>
<course>145.9</course>
<desc>Speed 10.1 km/h Distance 18.26 km</desc>
<time>2011-09-24T10:55:13.24</time>
<name>4720</name>
</trkpt>
<trkpt lat="41.809447" lon="-1.818410">
<ele>1210.0</ele>
<speed>9.0</speed>
<course>161.0</course>
<desc>Speed 9.0 km/h Distance 18.27 km</desc>
<time>2011-09-24T10:55:14.24</time>
<name>4721</name>
</trkpt>
<trkpt lat="41.809425" lon="-1.818400">
<ele>1209.5</ele>
<speed>8.4</speed>
<course>153.7</course>
<desc>Speed 8.4 km/h Distance 18.27 km</desc>
<time>2011-09-24T10:55:15.23</time>
<name>4722</name>
</trkpt>
<trkpt lat="41.809410" lon="-1.818390">
<ele>1209.0</ele>
<speed>6.6</speed>
<course>156.6</course>
<desc>Speed 6.6 km/h Distance 18.27 km</desc>
<time>2011-09-24T10:55:16.23</time>
<name>4723</name>
</trkpt>
<trkpt lat="41.809390" lon="-1.818378">
<ele>1208.5</ele>
<speed>8.3</speed>
<course>164.8</course>
<desc>Speed 8.3 km/h Distance 18.27 km</desc>
<time>2011-09-24T10:55:17.23</time>
<name>4724</name>
</trkpt>
<trkpt lat="41.809372" lon="-1.818372">
<ele>1207.5</ele>
<speed>7.2</speed>
<course>171.4</course>
<desc>Speed 7.2 km/h Distance 18.27 km</desc>
<time>2011-09-24T10:55:18.23</time>
<name>4725</name>
</trkpt>
<trkpt lat="41.809338" lon="-1.818365">
<ele>1208.0</ele>
<speed>13.8</speed>
<course>155.3</course>
<desc>Speed 13.8 km/h Distance 18.28 km</desc>
<time>2011-09-24T10:55:19.22</time>
<name>4726</name>
</trkpt>
<trkpt lat="41.809317" lon="-1.818352">
<ele>1208.5</ele>
<speed>8.9</speed>
<course>149.2</course>
<desc>Speed 8.9 km/h Distance 18.28 km</desc>
<time>2011-09-24T10:55:20.22</time>
<name>4727</name>
</trkpt>
<trkpt lat="41.809300" lon="-1.818338">
<ele>1209.0</ele>
<speed>7.8</speed>
<course>164.6</course>
<desc>Speed 7.8 km/h Distance 18.28 km</desc>
<time>2011-09-24T10:55:21.22</time>
<name>4728</name>
</trkpt>
<trkpt lat="41.809282" lon="-1.818332">
<ele>1208.5</ele>
<speed>8.5</speed>
<course>143.2</course>
<desc>Speed 8.5 km/h Distance 18.29 km</desc>
<time>2011-09-24T10:55:22.23</time>
<name>4729</name>
</trkpt>
<trkpt lat="41.809270" lon="-1.818320">
<ele>1208.5</ele>
<speed>5.4</speed>
<course>169.7</course>
<desc>Speed 5.4 km/h Distance 18.29 km</desc>
<time>2011-09-24T10:55:23.22</time>
<name>4730</name>
</trkpt>
<trkpt lat="41.809257" lon="-1.818317">
<ele>1209.5</ele>
<speed>3.7</speed>
<course>175.0</course>
<desc>Speed 3.7 km/h Distance 18.29 km</desc>
<time>2011-09-24T10:55:24.23</time>
<name>4731</name>
</trkpt>
<trkpt lat="41.809242" lon="-1.818315">
<ele>1208.5</ele>
<speed>5.0</speed>
<course>322.8</course>
<desc>Speed 5.0 km/h Distance 18.29 km</desc>
<time>2011-09-24T10:55:25.22</time>
<name>4732</name>
</trkpt>
<trkpt lat="41.809245" lon="-1.818318">
<ele>1209.5</ele>
<speed>1.9</speed>
<course>123.5</course>
<desc>Speed 1.9 km/h Distance 18.29 km</desc>
<time>2011-09-24T10:55:26.23</time>
<name>4733</name>
</trkpt>
<trkpt lat="41.809242" lon="-1.818312">
<ele>1209.0</ele>
<speed>2.0</speed>
<course>5.0</course>
<desc>Speed 2.0 km/h Distance 18.29 km</desc>
<time>2011-09-24T10:55:27.23</time>
<name>4734</name>
</trkpt>
<trkpt lat="41.809250" lon="-1.818312">
<ele>1209.0</ele>
<speed>2.8</speed>
<course>336.1</course>
<desc>Speed 2.8 km/h Distance 18.29 km</desc>
<time>2011-09-24T10:55:28.22</time>
<name>4735</name>
</trkpt>
<trkpt lat="41.809258" lon="-1.818317">
<ele>1209.0</ele>
<speed>3.7</speed>
<course>339.7</course>
<desc>Speed 3.7 km/h Distance 18.29 km</desc>
<time>2011-09-24T10:55:29.22</time>
<name>4736</name>
</trkpt>
<trkpt lat="41.809268" lon="-1.818322">
<ele>1209.0</ele>
<speed>4.1</speed>
<course>323.6</course>
<desc>Speed 4.1 km/h Distance 18.29 km</desc>
<time>2011-09-24T10:55:30.22</time>
<name>4737</name>
</trkpt>
<trkpt lat="41.809275" lon="-1.818328">
<ele>1210.5</ele>
<speed>3.5</speed>
<course>337.0</course>
<desc>Speed 3.5 km/h Distance 18.30 km</desc>
<time>2011-09-24T10:55:31.22</time>
<name>4738</name>
</trkpt>
<trkpt lat="41.809278" lon="-1.818330">
<ele>1213.0</ele>
<speed>1.8</speed>
<course>270.0</course>
<desc>Speed 1.8 km/h Distance 18.30 km</desc>
<time>2011-09-24T10:55:32.21</time>
<name>4739</name>
</trkpt>
<trkpt lat="41.809278" lon="-1.818337">
<ele>1213.5</ele>
<speed>2.5</speed>
<course>270.0</course>
<desc>Speed 2.5 km/h Distance 18.30 km</desc>
<time>2011-09-24T10:55:33.21</time>
<name>4740</name>
</trkpt>
<trkpt lat="41.809278" lon="-1.818342">
<ele>1215.0</ele>
<speed>2.1</speed>
<course>315.3</course>
<desc>Speed 2.1 km/h Distance 18.30 km</desc>
<time>2011-09-24T10:55:34.21</time>
<name>4741</name>
</trkpt>
<trkpt lat="41.809283" lon="-1.818348">
<ele>1216.5</ele>
<speed>2.8</speed>
<course>3.7</course>
<desc>Speed 2.8 km/h Distance 18.30 km</desc>
<time>2011-09-24T10:55:35.22</time>
<name>4742</name>
</trkpt>
<trkpt lat="41.809302" lon="-1.818347">
<ele>1217.0</ele>
<speed>6.4</speed>
<course>4.8</course>
<desc>Speed 6.4 km/h Distance 18.30 km</desc>
<time>2011-09-24T10:55:36.21</time>
<name>4743</name>
</trkpt>
<trkpt lat="41.809330" lon="-1.818343">
<ele>1217.0</ele>
<speed>10.9</speed>
<course>3.8</course>
<desc>Speed 10.9 km/h Distance 18.30 km</desc>
<time>2011-09-24T10:55:37.21</time>
<name>4744</name>
</trkpt>
<trkpt lat="41.809365" lon="-1.818340">
<ele>1217.5</ele>
<speed>14.1</speed>
<course>355.1</course>
<desc>Speed 14.1 km/h Distance 18.31 km</desc>
<time>2011-09-24T10:55:38.21</time>
<name>4745</name>
</trkpt>
<trkpt lat="41.809423" lon="-1.818347">
<ele>1220.0</ele>
<speed>16.0</speed>
<course>351.8</course>
<desc>Speed 16.0 km/h Distance 18.31 km</desc>
<time>2011-09-24T10:55:40.22</time>
<name>4746</name>
</trkpt>
<trkpt lat="41.809467" lon="-1.818355">
<ele>1220.5</ele>
<speed>17.3</speed>
<course>329.2</course>
<desc>Speed 17.3 km/h Distance 18.32 km</desc>
<time>2011-09-24T10:55:41.21</time>
<name>4747</name>
</trkpt>
<trkpt lat="41.809492" lon="-1.818375">
<ele>1221.5</ele>
<speed>13.0</speed>
<course>300.7</course>
<desc>Speed 13.0 km/h Distance 18.32 km</desc>
<time>2011-09-24T10:55:42.21</time>
<name>4748</name>
</trkpt>
<trkpt lat="41.809498" lon="-1.818390">
<ele>1222.0</ele>
<speed>1.4</speed>
<course>304.3</course>
<desc>Speed 1.4 km/h Distance 18.32 km</desc>
<time>2011-09-24T10:55:44.20</time>
<name>4749</name>
</trkpt>
<trkpt lat="41.809500" lon="-1.818393">
<ele>1222.5</ele>
<speed>1.1</speed>
<course>65.9</course>
<desc>Speed 1.1 km/h Distance 18.32 km</desc>
<time>2011-09-24T10:55:45.20</time>
<name>4750</name>
</trkpt>
<trkpt lat="41.809505" lon="-1.818378">
<ele>1223.5</ele>
<speed>2.3</speed>
<course>270.0</course>
<desc>Speed 2.3 km/h Distance 18.32 km</desc>
<time>2011-09-24T10:55:46.20</time>
<name>4751</name>
</trkpt>
<trkpt lat="41.809505" lon="-1.818380">
<ele>1224.5</ele>
<speed>1.3</speed>
<course>119.9</course>
<desc>Speed 1.3 km/h Distance 18.32 km</desc>
<time>2011-09-24T10:55:47.20</time>
<name>4752</name>
</trkpt>
<trkpt lat="41.809500" lon="-1.818368">
<ele>1224.0</ele>
<speed>4.1</speed>
<course>303.8</course>
<desc>Speed 4.1 km/h Distance 18.33 km</desc>
<time>2011-09-24T10:55:48.19</time>
<name>4753</name>
</trkpt>
<trkpt lat="41.809508" lon="-1.818385">
<ele>1224.0</ele>
<speed>6.3</speed>
<course>280.8</course>
<desc>Speed 6.3 km/h Distance 18.33 km</desc>
<time>2011-09-24T10:55:49.19</time>
<name>4754</name>
</trkpt>
<trkpt lat="41.809512" lon="-1.818408">
<ele>1224.0</ele>
<speed>6.8</speed>
<course>263.0</course>
<desc>Speed 6.8 km/h Distance 18.33 km</desc>
<time>2011-09-24T10:55:50.19</time>
<name>4755</name>
</trkpt>
<trkpt lat="41.809510" lon="-1.818427">
<ele>1224.0</ele>
<speed>5.4</speed>
<course>233.4</course>
<desc>Speed 5.4 km/h Distance 18.33 km</desc>
<time>2011-09-24T10:55:51.18</time>
<name>4756</name>
</trkpt>
<trkpt lat="41.809502" lon="-1.818442">
<ele>1224.0</ele>
<speed>5.2</speed>
<course>195.2</course>
<desc>Speed 5.2 km/h Distance 18.33 km</desc>
<time>2011-09-24T10:55:52.18</time>
<name>4757</name>
</trkpt>
<trkpt lat="41.809483" lon="-1.818448">
<ele>1223.5</ele>
<speed>7.2</speed>
<course>156.6</course>
<desc>Speed 7.2 km/h Distance 18.33 km</desc>
<time>2011-09-24T10:55:53.19</time>
<name>4758</name>
</trkpt>
<trkpt lat="41.809463" lon="-1.818437">
<ele>1222.0</ele>
<speed>8.6</speed>
<course>154.3</course>
<desc>Speed 8.6 km/h Distance 18.34 km</desc>
<time>2011-09-24T10:55:54.19</time>
<name>4759</name>
</trkpt>
<trkpt lat="41.809435" lon="-1.818418">
<ele>1222.5</ele>
<speed>12.9</speed>
<course>143.3</course>
<desc>Speed 12.9 km/h Distance 18.34 km</desc>
<time>2011-09-24T10:55:55.18</time>
<name>4760</name>
</trkpt>
<trkpt lat="41.809403" lon="-1.818387">
<ele>1224.5</ele>
<speed>16.1</speed>
<course>153.6</course>
<desc>Speed 16.1 km/h Distance 18.35 km</desc>
<time>2011-09-24T10:55:56.19</time>
<name>4761</name>
</trkpt>
<trkpt lat="41.809373" lon="-1.818367">
<ele>1224.5</ele>
<speed>13.2</speed>
<course>154.3</course>
<desc>Speed 13.2 km/h Distance 18.35 km</desc>
<time>2011-09-24T10:55:57.18</time>
<name>4762</name>
</trkpt>
<trkpt lat="41.809345" lon="-1.818348">
<ele>1224.5</ele>
<speed>13.7</speed>
<course>163.4</course>
<desc>Speed 13.7 km/h Distance 18.35 km</desc>
<time>2011-09-24T10:55:58.18</time>
<name>4763</name>
</trkpt>
<trkpt lat="41.809312" lon="-1.818335">
<ele>1224.0</ele>
<speed>13.9</speed>
<course>159.5</course>
<desc>Speed 13.9 km/h Distance 18.36 km</desc>
<time>2011-09-24T10:55:59.17</time>
<name>4764</name>
</trkpt>
<trkpt lat="41.809285" lon="-1.818322">
<ele>1222.5</ele>
<speed>12.3</speed>
<course>159.6</course>
<desc>Speed 12.3 km/h Distance 18.36 km</desc>
<time>2011-09-24T10:56:00.18</time>
<name>4765</name>
</trkpt>
<trkpt lat="41.809252" lon="-1.818305">
<ele>1224.0</ele>
<speed>14.7</speed>
<course>157.3</course>
<desc>Speed 14.7 km/h Distance 18.36 km</desc>
<time>2011-09-24T10:56:01.18</time>
<name>4766</name>
</trkpt>
<trkpt lat="41.809225" lon="-1.818290">
<ele>1224.0</ele>
<speed>11.2</speed>
<course>168.4</course>
<desc>Speed 11.2 km/h Distance 18.37 km</desc>
<time>2011-09-24T10:56:02.18</time>
<name>4767</name>
</trkpt>
<trkpt lat="41.809195" lon="-1.818282">
<ele>1224.0</ele>
<speed>12.9</speed>
<course>161.9</course>
<desc>Speed 12.9 km/h Distance 18.37 km</desc>
<time>2011-09-24T10:56:03.17</time>
<name>4768</name>
</trkpt>
<trkpt lat="41.809168" lon="-1.818270">
<ele>1223.0</ele>
<speed>10.7</speed>
<course>155.3</course>
<desc>Speed 10.7 km/h Distance 18.37 km</desc>
<time>2011-09-24T10:56:04.17</time>
<name>4769</name>
</trkpt>
<trkpt lat="41.809147" lon="-1.818257">
<ele>1222.5</ele>
<speed>10.0</speed>
<course>163.2</course>
<desc>Speed 10.0 km/h Distance 18.38 km</desc>
<time>2011-09-24T10:56:05.17</time>
<name>4770</name>
</trkpt>
<trkpt lat="41.809130" lon="-1.818250">
<ele>1222.5</ele>
<speed>7.3</speed>
<course>145.6</course>
<desc>Speed 7.3 km/h Distance 18.38 km</desc>
<time>2011-09-24T10:56:06.17</time>
<name>4771</name>
</trkpt>
<trkpt lat="41.809110" lon="-1.818232">
<ele>1223.0</ele>
<speed>10.0</speed>
<course>158.3</course>
<desc>Speed 10.0 km/h Distance 18.38 km</desc>
<time>2011-09-24T10:56:07.18</time>
<name>4772</name>
</trkpt>
<trkpt lat="41.809085" lon="-1.818218">
<ele>1222.0</ele>
<speed>10.5</speed>
<course>149.6</course>
<desc>Speed 10.5 km/h Distance 18.38 km</desc>
<time>2011-09-24T10:56:08.18</time>
<name>4773</name>
</trkpt>
<trkpt lat="41.809062" lon="-1.818200">
<ele>1222.0</ele>
<speed>11.2</speed>
<course>154.4</course>
<desc>Speed 11.2 km/h Distance 18.39 km</desc>
<time>2011-09-24T10:56:09.18</time>
<name>4774</name>
</trkpt>
<trkpt lat="41.809038" lon="-1.818185">
<ele>1221.5</ele>
<speed>10.5</speed>
<course>150.8</course>
<desc>Speed 10.5 km/h Distance 18.39 km</desc>
<time>2011-09-24T10:56:10.17</time>
<name>4775</name>
</trkpt>
<trkpt lat="41.809018" lon="-1.818170">
<ele>1221.5</ele>
<speed>8.9</speed>
<course>153.6</course>
<desc>Speed 8.9 km/h Distance 18.39 km</desc>
<time>2011-09-24T10:56:11.17</time>
<name>4776</name>
</trkpt>
<trkpt lat="41.808998" lon="-1.818157">
<ele>1220.5</ele>
<speed>8.7</speed>
<course>138.5</course>
<desc>Speed 8.7 km/h Distance 18.39 km</desc>
<time>2011-09-24T10:56:12.17</time>
<name>4777</name>
</trkpt>
<trkpt lat="41.808972" lon="-1.818125">
<ele>1221.5</ele>
<speed>14.1</speed>
<course>137.0</course>
<desc>Speed 14.1 km/h Distance 18.40 km</desc>
<time>2011-09-24T10:56:13.16</time>
<name>4778</name>
</trkpt>
<trkpt lat="41.808952" lon="-1.818100">
<ele>1221.5</ele>
<speed>10.7</speed>
<course>143.3</course>
<desc>Speed 10.7 km/h Distance 18.40 km</desc>
<time>2011-09-24T10:56:14.17</time>
<name>4779</name>
</trkpt>
<trkpt lat="41.808932" lon="-1.818080">
<ele>1220.5</ele>
<speed>10.5</speed>
<course>151.5</course>
<desc>Speed 10.5 km/h Distance 18.40 km</desc>
<time>2011-09-24T10:56:15.17</time>
<name>4780</name>
</trkpt>
<trkpt lat="41.808913" lon="-1.818067">
<ele>1220.5</ele>
<speed>8.7</speed>
<course>130.8</course>
<desc>Speed 8.7 km/h Distance 18.41 km</desc>
<time>2011-09-24T10:56:16.16</time>
<name>4781</name>
</trkpt>
<trkpt lat="41.808898" lon="-1.818043">
<ele>1220.5</ele>
<speed>8.7</speed>
<course>141.2</course>
<desc>Speed 8.7 km/h Distance 18.41 km</desc>
<time>2011-09-24T10:56:17.16</time>
<name>4782</name>
</trkpt>
<trkpt lat="41.808877" lon="-1.818020">
<ele>1222.0</ele>
<speed>10.6</speed>
<course>155.8</course>
<desc>Speed 10.6 km/h Distance 18.41 km</desc>
<time>2011-09-24T10:56:18.17</time>
<name>4783</name>
</trkpt>
<trkpt lat="41.808852" lon="-1.818005">
<ele>1222.5</ele>
<speed>10.6</speed>
<course>157.0</course>
<desc>Speed 10.6 km/h Distance 18.42 km</desc>
<time>2011-09-24T10:56:19.17</time>
<name>4784</name>
</trkpt>
<trkpt lat="41.808828" lon="-1.817992">
<ele>1222.0</ele>
<speed>10.1</speed>
<course>135.7</course>
<desc>Speed 10.1 km/h Distance 18.42 km</desc>
<time>2011-09-24T10:56:20.17</time>
<name>4785</name>
</trkpt>
<trkpt lat="41.808807" lon="-1.817963">
<ele>1222.5</ele>
<speed>11.4</speed>
<course>135.2</course>
<desc>Speed 11.4 km/h Distance 18.42 km</desc>
<time>2011-09-24T10:56:21.16</time>
<name>4786</name>
</trkpt>
<trkpt lat="41.808787" lon="-1.817937">
<ele>1223.5</ele>
<speed>10.1</speed>
<course>141.4</course>
<desc>Speed 10.1 km/h Distance 18.42 km</desc>
<time>2011-09-24T10:56:22.16</time>
<name>4787</name>
</trkpt>
<trkpt lat="41.808763" lon="-1.817912">
<ele>1224.5</ele>
<speed>10.3</speed>
<course>143.3</course>
<desc>Speed 10.3 km/h Distance 18.43 km</desc>
<time>2011-09-24T10:56:23.16</time>
<name>4788</name>
</trkpt>
<trkpt lat="41.808740" lon="-1.817888">
<ele>1225.5</ele>
<speed>9.5</speed>
<course>134.5</course>
<desc>Speed 9.5 km/h Distance 18.43 km</desc>
<time>2011-09-24T10:56:24.16</time>
<name>4789</name>
</trkpt>
<trkpt lat="41.808722" lon="-1.817863">
<ele>1226.5</ele>
<speed>9.4</speed>
<course>141.1</course>
<desc>Speed 9.4 km/h Distance 18.43 km</desc>
<time>2011-09-24T10:56:25.15</time>
<name>4790</name>
</trkpt>
<trkpt lat="41.808702" lon="-1.817842">
<ele>1226.5</ele>
<speed>10.2</speed>
<course>145.3</course>
<desc>Speed 10.2 km/h Distance 18.44 km</desc>
<time>2011-09-24T10:56:26.15</time>
<name>4791</name>
</trkpt>
<trkpt lat="41.808678" lon="-1.817820">
<ele>1226.5</ele>
<speed>10.0</speed>
<course>141.4</course>
<desc>Speed 10.0 km/h Distance 18.44 km</desc>
<time>2011-09-24T10:56:27.16</time>
<name>4792</name>
</trkpt>
<trkpt lat="41.808655" lon="-1.817795">
<ele>1226.5</ele>
<speed>10.9</speed>
<course>139.3</course>
<desc>Speed 10.9 km/h Distance 18.44 km</desc>
<time>2011-09-24T10:56:28.15</time>
<name>4793</name>
</trkpt>
<trkpt lat="41.808633" lon="-1.817770">
<ele>1226.5</ele>
<speed>11.7</speed>
<course>135.2</course>
<desc>Speed 11.7 km/h Distance 18.45 km</desc>
<time>2011-09-24T10:56:29.16</time>
<name>4794</name>
</trkpt>
<trkpt lat="41.808613" lon="-1.817743">
<ele>1227.0</ele>
<speed>10.4</speed>
<course>121.1</course>
<desc>Speed 10.4 km/h Distance 18.45 km</desc>
<time>2011-09-24T10:56:30.15</time>
<name>4795</name>
</trkpt>
<trkpt lat="41.808598" lon="-1.817710">
<ele>1228.5</ele>
<speed>11.9</speed>
<course>141.7</course>
<desc>Speed 11.9 km/h Distance 18.45 km</desc>
<time>2011-09-24T10:56:31.15</time>
<name>4796</name>
</trkpt>
<trkpt lat="41.808570" lon="-1.817680">
<ele>1229.0</ele>
<speed>11.8</speed>
<course>143.3</course>
<desc>Speed 11.8 km/h Distance 18.46 km</desc>
<time>2011-09-24T10:56:32.16</time>
<name>4797</name>
</trkpt>
<trkpt lat="41.808547" lon="-1.817657">
<ele>1228.5</ele>
<speed>11.6</speed>
<course>153.6</course>
<desc>Speed 11.6 km/h Distance 18.46 km</desc>
<time>2011-09-24T10:56:33.15</time>
<name>4798</name>
</trkpt>
<trkpt lat="41.808512" lon="-1.817633">
<ele>1229.0</ele>
<speed>11.7</speed>
<course>131.1</course>
<desc>Speed 11.7 km/h Distance 18.46 km</desc>
<time>2011-09-24T10:56:34.15</time>
<name>4799</name>
</trkpt>
<trkpt lat="41.808490" lon="-1.817600">
<ele>1230.0</ele>
<speed>12.2</speed>
<course>148.8</course>
<desc>Speed 12.2 km/h Distance 18.47 km</desc>
<time>2011-09-24T10:56:35.14</time>
<name>4800</name>
</trkpt>
<trkpt lat="41.808463" lon="-1.817578">
<ele>1229.5</ele>
<speed>11.4</speed>
<course>145.3</course>
<desc>Speed 11.4 km/h Distance 18.47 km</desc>
<time>2011-09-24T10:56:36.14</time>
<name>4801</name>
</trkpt>
<trkpt lat="41.808440" lon="-1.817557">
<ele>1229.0</ele>
<speed>11.3</speed>
<course>151.7</course>
<desc>Speed 11.3 km/h Distance 18.47 km</desc>
<time>2011-09-24T10:56:37.14</time>
<name>4802</name>
</trkpt>
<trkpt lat="41.808410" lon="-1.817535">
<ele>1228.0</ele>
<speed>12.0</speed>
<course>141.5</course>
<desc>Speed 12.0 km/h Distance 18.48 km</desc>
<time>2011-09-24T10:56:38.14</time>
<name>4803</name>
</trkpt>
<trkpt lat="41.808385" lon="-1.817508">
<ele>1227.5</ele>
<speed>11.8</speed>
<course>149.2</course>
<desc>Speed 11.8 km/h Distance 18.48 km</desc>
<time>2011-09-24T10:56:39.14</time>
<name>4804</name>
</trkpt>
<trkpt lat="41.808360" lon="-1.817488">
<ele>1227.5</ele>
<speed>11.7</speed>
<course>141.2</course>
<desc>Speed 11.7 km/h Distance 18.49 km</desc>
<time>2011-09-24T10:56:40.14</time>
<name>4805</name>
</trkpt>
<trkpt lat="41.808338" lon="-1.817465">
<ele>1227.5</ele>
<speed>11.4</speed>
<course>137.1</course>
<desc>Speed 11.4 km/h Distance 18.49 km</desc>
<time>2011-09-24T10:56:41.13</time>
<name>4806</name>
</trkpt>
<trkpt lat="41.808318" lon="-1.817440">
<ele>1227.5</ele>
<speed>11.1</speed>
<course>145.1</course>
<desc>Speed 11.1 km/h Distance 18.49 km</desc>
<time>2011-09-24T10:56:42.13</time>
<name>4807</name>
</trkpt>
<trkpt lat="41.808292" lon="-1.817415">
<ele>1227.5</ele>
<speed>10.5</speed>
<course>145.3</course>
<desc>Speed 10.5 km/h Distance 18.50 km</desc>
<time>2011-09-24T10:56:43.14</time>
<name>4808</name>
</trkpt>
<trkpt lat="41.808268" lon="-1.817393">
<ele>1227.5</ele>
<speed>9.9</speed>
<course>138.6</course>
<desc>Speed 9.9 km/h Distance 18.50 km</desc>
<time>2011-09-24T10:56:44.13</time>
<name>4809</name>
</trkpt>
<trkpt lat="41.808250" lon="-1.817372">
<ele>1226.5</ele>
<speed>10.6</speed>
<course>149.2</course>
<desc>Speed 10.6 km/h Distance 18.50 km</desc>
<time>2011-09-24T10:56:45.13</time>
<name>4810</name>
</trkpt>
<trkpt lat="41.808225" lon="-1.817352">
<ele>1226.5</ele>
<speed>12.0</speed>
<course>147.2</course>
<desc>Speed 12.0 km/h Distance 18.50 km</desc>
<time>2011-09-24T10:56:46.14</time>
<name>4811</name>
</trkpt>
<trkpt lat="41.808200" lon="-1.817330">
<ele>1226.0</ele>
<speed>10.9</speed>
<course>145.1</course>
<desc>Speed 10.9 km/h Distance 18.51 km</desc>
<time>2011-09-24T10:56:47.13</time>
<name>4812</name>
</trkpt>
<trkpt lat="41.808173" lon="-1.817305">
<ele>1226.0</ele>
<speed>11.7</speed>
<course>143.3</course>
<desc>Speed 11.7 km/h Distance 18.51 km</desc>
<time>2011-09-24T10:56:48.13</time>
<name>4813</name>
</trkpt>
<trkpt lat="41.808145" lon="-1.817277">
<ele>1226.5</ele>
<speed>11.4</speed>
<course>134.3</course>
<desc>Speed 11.4 km/h Distance 18.52 km</desc>
<time>2011-09-24T10:56:49.13</time>
<name>4814</name>
</trkpt>
<trkpt lat="41.808118" lon="-1.817240">
<ele>1227.5</ele>
<speed>11.6</speed>
<course>137.3</course>
<desc>Speed 11.6 km/h Distance 18.52 km</desc>
<time>2011-09-24T10:56:50.13</time>
<name>4815</name>
</trkpt>
<trkpt lat="41.808090" lon="-1.817205">
<ele>1228.5</ele>
<speed>11.1</speed>
<course>128.3</course>
<desc>Speed 11.1 km/h Distance 18.52 km</desc>
<time>2011-09-24T10:56:51.13</time>
<name>4816</name>
</trkpt>
<trkpt lat="41.808073" lon="-1.817177">
<ele>1228.0</ele>
<speed>6.9</speed>
<course>128.8</course>
<desc>Speed 6.9 km/h Distance 18.53 km</desc>
<time>2011-09-24T10:56:52.13</time>
<name>4817</name>
</trkpt>
<trkpt lat="41.808058" lon="-1.817152">
<ele>1227.5</ele>
<speed>9.2</speed>
<course>129.3</course>
<desc>Speed 9.2 km/h Distance 18.53 km</desc>
<time>2011-09-24T10:56:53.14</time>
<name>4818</name>
</trkpt>
<trkpt lat="41.808040" lon="-1.817122">
<ele>1227.0</ele>
<speed>8.4</speed>
<course>134.3</course>
<desc>Speed 8.4 km/h Distance 18.53 km</desc>
<time>2011-09-24T10:56:54.13</time>
<name>4819</name>
</trkpt>
<trkpt lat="41.808013" lon="-1.817085">
<ele>1229.0</ele>
<speed>10.9</speed>
<course>130.3</course>
<desc>Speed 10.9 km/h Distance 18.54 km</desc>
<time>2011-09-24T10:56:55.13</time>
<name>4820</name>
</trkpt>
<trkpt lat="41.807993" lon="-1.817053">
<ele>1230.0</ele>
<speed>11.0</speed>
<course>133.5</course>
<desc>Speed 11.0 km/h Distance 18.54 km</desc>
<time>2011-09-24T10:56:56.13</time>
<name>4821</name>
</trkpt>
<trkpt lat="41.807973" lon="-1.817025">
<ele>1230.5</ele>
<speed>11.2</speed>
<course>141.4</course>
<desc>Speed 11.2 km/h Distance 18.54 km</desc>
<time>2011-09-24T10:56:57.13</time>
<name>4822</name>
</trkpt>
<trkpt lat="41.807950" lon="-1.817000">
<ele>1230.5</ele>
<speed>11.2</speed>
<course>159.5</course>
<desc>Speed 11.2 km/h Distance 18.55 km</desc>
<time>2011-09-24T10:56:58.13</time>
<name>4823</name>
</trkpt>
<trkpt lat="41.807923" lon="-1.816987">
<ele>1229.5</ele>
<speed>10.7</speed>
<course>154.3</course>
<desc>Speed 10.7 km/h Distance 18.55 km</desc>
<time>2011-09-24T10:56:59.13</time>
<name>4824</name>
</trkpt>
<trkpt lat="41.807895" lon="-1.816968">
<ele>1229.0</ele>
<speed>11.4</speed>
<course>149.9</course>
<desc>Speed 11.4 km/h Distance 18.55 km</desc>
<time>2011-09-24T10:57:00.13</time>
<name>4825</name>
</trkpt>
<trkpt lat="41.807865" lon="-1.816945">
<ele>1229.0</ele>
<speed>12.1</speed>
<course>151.7</course>
<desc>Speed 12.1 km/h Distance 18.56 km</desc>
<time>2011-09-24T10:57:01.12</time>
<name>4826</name>
</trkpt>
<trkpt lat="41.807835" lon="-1.816923">
<ele>1229.0</ele>
<speed>12.0</speed>
<course>144.8</course>
<desc>Speed 12.0 km/h Distance 18.56 km</desc>
<time>2011-09-24T10:57:02.12</time>
<name>4827</name>
</trkpt>
<trkpt lat="41.807805" lon="-1.816895">
<ele>1228.5</ele>
<speed>11.7</speed>
<course>160.5</course>
<desc>Speed 11.7 km/h Distance 18.57 km</desc>
<time>2011-09-24T10:57:03.12</time>
<name>4828</name>
</trkpt>
<trkpt lat="41.807773" lon="-1.816880">
<ele>1226.5</ele>
<speed>10.8</speed>
<course>143.3</course>
<desc>Speed 10.8 km/h Distance 18.57 km</desc>
<time>2011-09-24T10:57:04.12</time>
<name>4829</name>
</trkpt>
<trkpt lat="41.807743" lon="-1.816850">
<ele>1226.5</ele>
<speed>11.9</speed>
<course>143.3</course>
<desc>Speed 11.9 km/h Distance 18.57 km</desc>
<time>2011-09-24T10:57:05.11</time>
<name>4830</name>
</trkpt>
<trkpt lat="41.807713" lon="-1.816820">
<ele>1226.0</ele>
<speed>11.8</speed>
<course>144.9</course>
<desc>Speed 11.8 km/h Distance 18.58 km</desc>
<time>2011-09-24T10:57:06.11</time>
<name>4831</name>
</trkpt>
<trkpt lat="41.807683" lon="-1.816792">
<ele>1225.5</ele>
<speed>11.7</speed>
<course>143.3</course>
<desc>Speed 11.7 km/h Distance 18.58 km</desc>
<time>2011-09-24T10:57:07.12</time>
<name>4832</name>
</trkpt>
<trkpt lat="41.807657" lon="-1.816765">
<ele>1225.0</ele>
<speed>10.4</speed>
<course>139.8</course>
<desc>Speed 10.4 km/h Distance 18.58 km</desc>
<time>2011-09-24T10:57:08.12</time>
<name>4833</name>
</trkpt>
<trkpt lat="41.807632" lon="-1.816737">
<ele>1224.5</ele>
<speed>10.1</speed>
<course>143.3</course>
<desc>Speed 10.1 km/h Distance 18.59 km</desc>
<time>2011-09-24T10:57:09.12</time>
<name>4834</name>
</trkpt>
<trkpt lat="41.807603" lon="-1.816708">
<ele>1225.0</ele>
<speed>11.3</speed>
<course>139.6</course>
<desc>Speed 11.3 km/h Distance 18.59 km</desc>
<time>2011-09-24T10:57:10.12</time>
<name>4835</name>
</trkpt>
<trkpt lat="41.807580" lon="-1.816682">
<ele>1225.0</ele>
<speed>10.9</speed>
<course>145.2</course>
<desc>Speed 10.9 km/h Distance 18.60 km</desc>
<time>2011-09-24T10:57:11.11</time>
<name>4836</name>
</trkpt>
<trkpt lat="41.807555" lon="-1.816658">
<ele>1224.5</ele>
<speed>9.5</speed>
<course>143.3</course>
<desc>Speed 9.5 km/h Distance 18.60 km</desc>
<time>2011-09-24T10:57:12.12</time>
<name>4837</name>
</trkpt>
<trkpt lat="41.807533" lon="-1.816637">
<ele>1223.5</ele>
<speed>10.2</speed>
<course>143.4</course>
<desc>Speed 10.2 km/h Distance 18.60 km</desc>
<time>2011-09-24T10:57:13.11</time>
<name>4838</name>
</trkpt>
<trkpt lat="41.807508" lon="-1.816612">
<ele>1223.5</ele>
<speed>10.9</speed>
<course>136.2</course>
<desc>Speed 10.9 km/h Distance 18.61 km</desc>
<time>2011-09-24T10:57:14.11</time>
<name>4839</name>
</trkpt>
<trkpt lat="41.807485" lon="-1.816582">
<ele>1223.5</ele>
<speed>11.4</speed>
<course>138.2</course>
<desc>Speed 11.4 km/h Distance 18.61 km</desc>
<time>2011-09-24T10:57:15.11</time>
<name>4840</name>
</trkpt>
<trkpt lat="41.807460" lon="-1.816552">
<ele>1223.5</ele>
<speed>11.3</speed>
<course>134.7</course>
<desc>Speed 11.3 km/h Distance 18.61 km</desc>
<time>2011-09-24T10:57:16.11</time>
<name>4841</name>
</trkpt>
<trkpt lat="41.807437" lon="-1.816520">
<ele>1224.0</ele>
<speed>11.6</speed>
<course>132.4</course>
<desc>Speed 11.6 km/h Distance 18.62 km</desc>
<time>2011-09-24T10:57:17.10</time>
<name>4842</name>
</trkpt>
<trkpt lat="41.807412" lon="-1.816483">
<ele>1223.5</ele>
<speed>12.5</speed>
<course>143.3</course>
<desc>Speed 12.5 km/h Distance 18.62 km</desc>
<time>2011-09-24T10:57:18.10</time>
<name>4843</name>
</trkpt>
<trkpt lat="41.807383" lon="-1.816455">
<ele>1224.0</ele>
<speed>12.6</speed>
<course>140.2</course>
<desc>Speed 12.6 km/h Distance 18.62 km</desc>
<time>2011-09-24T10:57:19.10</time>
<name>4844</name>
</trkpt>
<trkpt lat="41.807355" lon="-1.816423">
<ele>1224.5</ele>
<speed>12.5</speed>
<course>136.6</course>
<desc>Speed 12.5 km/h Distance 18.63 km</desc>
<time>2011-09-24T10:57:20.10</time>
<name>4845</name>
</trkpt>
<trkpt lat="41.807330" lon="-1.816392">
<ele>1224.5</ele>
<speed>11.8</speed>
<course>138.2</course>
<desc>Speed 11.8 km/h Distance 18.63 km</desc>
<time>2011-09-24T10:57:21.10</time>
<name>4846</name>
</trkpt>
<trkpt lat="41.807305" lon="-1.816362">
<ele>1225.0</ele>
<speed>11.4</speed>
<course>141.4</course>
<desc>Speed 11.4 km/h Distance 18.64 km</desc>
<time>2011-09-24T10:57:22.10</time>
<name>4847</name>
</trkpt>
<trkpt lat="41.807282" lon="-1.816337">
<ele>1225.0</ele>
<speed>11.7</speed>
<course>143.3</course>
<desc>Speed 11.7 km/h Distance 18.64 km</desc>
<time>2011-09-24T10:57:23.11</time>
<name>4848</name>
</trkpt>
<trkpt lat="41.807257" lon="-1.816312">
<ele>1225.0</ele>
<speed>11.3</speed>
<course>133.4</course>
<desc>Speed 11.3 km/h Distance 18.64 km</desc>
<time>2011-09-24T10:57:24.10</time>
<name>4849</name>
</trkpt>
<trkpt lat="41.807237" lon="-1.816283">
<ele>1225.5</ele>
<speed>11.7</speed>
<course>139.8</course>
<desc>Speed 11.7 km/h Distance 18.65 km</desc>
<time>2011-09-24T10:57:25.10</time>
<name>4850</name>
</trkpt>
<trkpt lat="41.807212" lon="-1.816255">
<ele>1225.5</ele>
<speed>12.0</speed>
<course>136.5</course>
<desc>Speed 12.0 km/h Distance 18.65 km</desc>
<time>2011-09-24T10:57:26.10</time>
<name>4851</name>
</trkpt>
<trkpt lat="41.807193" lon="-1.816232">
<ele>1226.0</ele>
<speed>10.6</speed>
<course>155.0</course>
<desc>Speed 10.6 km/h Distance 18.65 km</desc>
<time>2011-09-24T10:57:27.10</time>
<name>4852</name>
</trkpt>
<trkpt lat="41.807167" lon="-1.816215">
<ele>1225.5</ele>
<speed>11.2</speed>
<course>137.5</course>
<desc>Speed 11.2 km/h Distance 18.66 km</desc>
<time>2011-09-24T10:57:28.10</time>
<name>4853</name>
</trkpt>
<trkpt lat="41.807145" lon="-1.816188">
<ele>1226.0</ele>
<speed>11.7</speed>
<course>141.4</course>
<desc>Speed 11.7 km/h Distance 18.66 km</desc>
<time>2011-09-24T10:57:29.10</time>
<name>4854</name>
</trkpt>
<trkpt lat="41.807122" lon="-1.816163">
<ele>1226.5</ele>
<speed>11.7</speed>
<course>144.9</course>
<desc>Speed 11.7 km/h Distance 18.66 km</desc>
<time>2011-09-24T10:57:30.09</time>
<name>4855</name>
</trkpt>
<trkpt lat="41.807093" lon="-1.816137">
<ele>1226.5</ele>
<speed>12.2</speed>
<course>143.3</course>
<desc>Speed 12.2 km/h Distance 18.67 km</desc>
<time>2011-09-24T10:57:31.09</time>
<name>4856</name>
</trkpt>
<trkpt lat="41.807065" lon="-1.816108">
<ele>1227.0</ele>
<speed>12.3</speed>
<course>143.3</course>
<desc>Speed 12.3 km/h Distance 18.67 km</desc>
<time>2011-09-24T10:57:32.09</time>
<name>4857</name>
</trkpt>
<trkpt lat="41.807038" lon="-1.816082">
<ele>1227.0</ele>
<speed>11.7</speed>
<course>146.9</course>
<desc>Speed 11.7 km/h Distance 18.67 km</desc>
<time>2011-09-24T10:57:33.09</time>
<name>4858</name>
</trkpt>
<trkpt lat="41.807012" lon="-1.816058">
<ele>1227.0</ele>
<speed>12.1</speed>
<course>143.3</course>
<desc>Speed 12.1 km/h Distance 18.68 km</desc>
<time>2011-09-24T10:57:34.09</time>
<name>4859</name>
</trkpt>
<trkpt lat="41.806987" lon="-1.816033">
<ele>1227.0</ele>
<speed>11.4</speed>
<course>143.3</course>
<desc>Speed 11.4 km/h Distance 18.68 km</desc>
<time>2011-09-24T10:57:35.09</time>
<name>4860</name>
</trkpt>
<trkpt lat="41.806963" lon="-1.816010">
<ele>1228.0</ele>
<speed>11.6</speed>
<course>138.2</course>
<desc>Speed 11.6 km/h Distance 18.68 km</desc>
<time>2011-09-24T10:57:36.09</time>
<name>4861</name>
</trkpt>
<trkpt lat="41.806938" lon="-1.815980">
<ele>1228.0</ele>
<speed>12.0</speed>
<course>138.2</course>
<desc>Speed 12.0 km/h Distance 18.69 km</desc>
<time>2011-09-24T10:57:37.09</time>
<name>4862</name>
</trkpt>
<trkpt lat="41.806913" lon="-1.815950">
<ele>1228.5</ele>
<speed>12.2</speed>
<course>135.2</course>
<desc>Speed 12.2 km/h Distance 18.69 km</desc>
<time>2011-09-24T10:57:38.09</time>
<name>4863</name>
</trkpt>
<trkpt lat="41.806888" lon="-1.815917">
<ele>1230.5</ele>
<speed>11.9</speed>
<course>130.2</course>
<desc>Speed 11.9 km/h Distance 18.70 km</desc>
<time>2011-09-24T10:57:39.09</time>
<name>4864</name>
</trkpt>
<trkpt lat="41.806860" lon="-1.815872">
<ele>1233.5</ele>
<speed>12.1</speed>
<course>141.4</course>
<desc>Speed 12.1 km/h Distance 18.70 km</desc>
<time>2011-09-24T10:57:40.09</time>
<name>4865</name>
</trkpt>
<trkpt lat="41.806837" lon="-1.815847">
<ele>1234.5</ele>
<speed>11.3</speed>
<course>141.4</course>
<desc>Speed 11.3 km/h Distance 18.70 km</desc>
<time>2011-09-24T10:57:41.09</time>
<name>4866</name>
</trkpt>
<trkpt lat="41.806813" lon="-1.815822">
<ele>1235.5</ele>
<speed>10.9</speed>
<course>139.6</course>
<desc>Speed 10.9 km/h Distance 18.71 km</desc>
<time>2011-09-24T10:57:42.09</time>
<name>4867</name>
</trkpt>
<trkpt lat="41.806790" lon="-1.815795">
<ele>1235.5</ele>
<speed>11.7</speed>
<course>137.8</course>
<desc>Speed 11.7 km/h Distance 18.71 km</desc>
<time>2011-09-24T10:57:43.08</time>
<name>4868</name>
</trkpt>
<trkpt lat="41.806767" lon="-1.815767">
<ele>1236.5</ele>
<speed>11.6</speed>
<course>147.4</course>
<desc>Speed 11.6 km/h Distance 18.71 km</desc>
<time>2011-09-24T10:57:44.08</time>
<name>4869</name>
</trkpt>
<trkpt lat="41.806743" lon="-1.815747">
<ele>1237.5</ele>
<speed>10.6</speed>
<course>143.3</course>
<desc>Speed 10.6 km/h Distance 18.72 km</desc>
<time>2011-09-24T10:57:45.08</time>
<name>4870</name>
</trkpt>
<trkpt lat="41.806722" lon="-1.815725">
<ele>1238.5</ele>
<speed>10.0</speed>
<course>139.3</course>
<desc>Speed 10.0 km/h Distance 18.72 km</desc>
<time>2011-09-24T10:57:46.08</time>
<name>4871</name>
</trkpt>
<trkpt lat="41.806700" lon="-1.815700">
<ele>1239.5</ele>
<speed>10.1</speed>
<course>143.3</course>
<desc>Speed 10.1 km/h Distance 18.72 km</desc>
<time>2011-09-24T10:57:47.08</time>
<name>4872</name>
</trkpt>
<trkpt lat="41.806677" lon="-1.815677">
<ele>1240.5</ele>
<speed>10.8</speed>
<course>143.3</course>
<desc>Speed 10.8 km/h Distance 18.73 km</desc>
<time>2011-09-24T10:57:48.08</time>
<name>4873</name>
</trkpt>
<trkpt lat="41.806655" lon="-1.815655">
<ele>1241.5</ele>
<speed>10.5</speed>
<course>143.3</course>
<desc>Speed 10.5 km/h Distance 18.73 km</desc>
<time>2011-09-24T10:57:49.08</time>
<name>4874</name>
</trkpt>
<trkpt lat="41.806630" lon="-1.815630">
<ele>1242.0</ele>
<speed>10.6</speed>
<course>149.2</course>
<desc>Speed 10.6 km/h Distance 18.73 km</desc>
<time>2011-09-24T10:57:50.08</time>
<name>4875</name>
</trkpt>
<trkpt lat="41.806605" lon="-1.815610">
<ele>1242.5</ele>
<speed>10.5</speed>
<course>141.1</course>
<desc>Speed 10.5 km/h Distance 18.74 km</desc>
<time>2011-09-24T10:57:51.08</time>
<name>4876</name>
</trkpt>
<trkpt lat="41.806585" lon="-1.815588">
<ele>1243.0</ele>
<speed>10.0</speed>
<course>149.6</course>
<desc>Speed 10.0 km/h Distance 18.74 km</desc>
<time>2011-09-24T10:57:52.08</time>
<name>4877</name>
</trkpt>
<trkpt lat="41.806562" lon="-1.815570">
<ele>1242.5</ele>
<speed>10.6</speed>
<course>151.4</course>
<desc>Speed 10.6 km/h Distance 18.74 km</desc>
<time>2011-09-24T10:57:53.08</time>
<name>4878</name>
</trkpt>
<trkpt lat="41.806537" lon="-1.815552">
<ele>1242.5</ele>
<speed>10.8</speed>
<course>149.2</course>
<desc>Speed 10.8 km/h Distance 18.75 km</desc>
<time>2011-09-24T10:57:54.07</time>
<name>4879</name>
</trkpt>
<trkpt lat="41.806512" lon="-1.815532">
<ele>1243.0</ele>
<speed>10.7</speed>
<course>149.7</course>
<desc>Speed 10.7 km/h Distance 18.75 km</desc>
<time>2011-09-24T10:57:55.07</time>
<name>4880</name>
</trkpt>
<trkpt lat="41.806488" lon="-1.815513">
<ele>1243.0</ele>
<speed>10.4</speed>
<course>147.4</course>
<desc>Speed 10.4 km/h Distance 18.75 km</desc>
<time>2011-09-24T10:57:56.07</time>
<name>4881</name>
</trkpt>
<trkpt lat="41.806465" lon="-1.815493">
<ele>1243.0</ele>
<speed>10.4</speed>
<course>149.6</course>
<desc>Speed 10.4 km/h Distance 18.76 km</desc>
<time>2011-09-24T10:57:57.07</time>
<name>4882</name>
</trkpt>
<trkpt lat="41.806442" lon="-1.815475">
<ele>1243.5</ele>
<speed>10.3</speed>
<course>151.9</course>
<desc>Speed 10.3 km/h Distance 18.76 km</desc>
<time>2011-09-24T10:57:58.07</time>
<name>4883</name>
</trkpt>
<trkpt lat="41.806418" lon="-1.815458">
<ele>1243.0</ele>
<speed>10.1</speed>
<course>150.8</course>
<desc>Speed 10.1 km/h Distance 18.76 km</desc>
<time>2011-09-24T10:57:59.07</time>
<name>4884</name>
</trkpt>
<trkpt lat="41.806392" lon="-1.815438">
<ele>1243.5</ele>
<speed>10.4</speed>
<course>147.8</course>
<desc>Speed 10.4 km/h Distance 18.76 km</desc>
<time>2011-09-24T10:58:00.08</time>
<name>4885</name>
</trkpt>
<trkpt lat="41.806370" lon="-1.815420">
<ele>1243.5</ele>
<speed>9.9</speed>
<course>152.7</course>
<desc>Speed 9.9 km/h Distance 18.77 km</desc>
<time>2011-09-24T10:58:01.07</time>
<name>4886</name>
</trkpt>
<trkpt lat="41.806348" lon="-1.815405">
<ele>1243.5</ele>
<speed>9.1</speed>
<course>166.2</course>
<desc>Speed 9.1 km/h Distance 18.77 km</desc>
<time>2011-09-24T10:58:02.08</time>
<name>4887</name>
</trkpt>
<trkpt lat="41.806328" lon="-1.815398">
<ele>1243.0</ele>
<speed>7.8</speed>
<course>169.0</course>
<desc>Speed 7.8 km/h Distance 18.77 km</desc>
<time>2011-09-24T10:58:03.07</time>
<name>4888</name>
</trkpt>
<trkpt lat="41.806303" lon="-1.815392">
<ele>1244.0</ele>
<speed>9.5</speed>
<course>153.6</course>
<desc>Speed 9.5 km/h Distance 18.78 km</desc>
<time>2011-09-24T10:58:04.07</time>
<name>4889</name>
</trkpt>
<trkpt lat="41.806278" lon="-1.815375">
<ele>1243.5</ele>
<speed>10.5</speed>
<course>147.8</course>
<desc>Speed 10.5 km/h Distance 18.78 km</desc>
<time>2011-09-24T10:58:05.06</time>
<name>4890</name>
</trkpt>
<trkpt lat="41.806257" lon="-1.815357">
<ele>1243.5</ele>
<speed>8.9</speed>
<course>151.5</course>
<desc>Speed 8.9 km/h Distance 18.78 km</desc>
<time>2011-09-24T10:58:06.06</time>
<name>4891</name>
</trkpt>
<trkpt lat="41.806238" lon="-1.815343">
<ele>1243.5</ele>
<speed>8.2</speed>
<course>158.1</course>
<desc>Speed 8.2 km/h Distance 18.78 km</desc>
<time>2011-09-24T10:58:07.06</time>
<name>4892</name>
</trkpt>
<trkpt lat="41.806217" lon="-1.815332">
<ele>1243.5</ele>
<speed>9.0</speed>
<course>149.2</course>
<desc>Speed 9.0 km/h Distance 18.79 km</desc>
<time>2011-09-24T10:58:08.06</time>
<name>4893</name>
</trkpt>
<trkpt lat="41.806192" lon="-1.815312">
<ele>1243.5</ele>
<speed>10.3</speed>
<course>146.9</course>
<desc>Speed 10.3 km/h Distance 18.79 km</desc>
<time>2011-09-24T10:58:09.06</time>
<name>4894</name>
</trkpt>
<trkpt lat="41.806165" lon="-1.815288">
<ele>1244.0</ele>
<speed>10.0</speed>
<course>155.0</course>
<desc>Speed 10.0 km/h Distance 18.79 km</desc>
<time>2011-09-24T10:58:10.07</time>
<name>4895</name>
</trkpt>
<trkpt lat="41.806138" lon="-1.815272">
<ele>1244.0</ele>
<speed>11.1</speed>
<course>147.4</course>
<desc>Speed 11.1 km/h Distance 18.80 km</desc>
<time>2011-09-24T10:58:11.07</time>
<name>4896</name>
</trkpt>
<trkpt lat="41.806115" lon="-1.815252">
<ele>1244.5</ele>
<speed>10.3</speed>
<course>149.2</course>
<desc>Speed 10.3 km/h Distance 18.80 km</desc>
<time>2011-09-24T10:58:12.06</time>
<name>4897</name>
</trkpt>
<trkpt lat="41.806090" lon="-1.815232">
<ele>1245.0</ele>
<speed>9.8</speed>
<course>149.7</course>
<desc>Speed 9.8 km/h Distance 18.80 km</desc>
<time>2011-09-24T10:58:13.06</time>
<name>4898</name>
</trkpt>
<trkpt lat="41.806067" lon="-1.815213">
<ele>1245.0</ele>
<speed>9.6</speed>
<course>162.3</course>
<desc>Speed 9.6 km/h Distance 18.81 km</desc>
<time>2011-09-24T10:58:14.06</time>
<name>4899</name>
</trkpt>
<trkpt lat="41.806043" lon="-1.815203">
<ele>1245.0</ele>
<speed>9.5</speed>
<course>151.4</course>
<desc>Speed 9.5 km/h Distance 18.81 km</desc>
<time>2011-09-24T10:58:15.06</time>
<name>4900</name>
</trkpt>
<trkpt lat="41.806018" lon="-1.815185">
<ele>1245.0</ele>
<speed>10.2</speed>
<course>150.9</course>
<desc>Speed 10.2 km/h Distance 18.81 km</desc>
<time>2011-09-24T10:58:16.06</time>
<name>4901</name>
</trkpt>
<trkpt lat="41.805992" lon="-1.815165">
<ele>1245.0</ele>
<speed>11.2</speed>
<course>145.2</course>
<desc>Speed 11.2 km/h Distance 18.81 km</desc>
<time>2011-09-24T10:58:17.06</time>
<name>4902</name>
</trkpt>
<trkpt lat="41.805967" lon="-1.815142">
<ele>1245.0</ele>
<speed>11.0</speed>
<course>152.2</course>
<desc>Speed 11.0 km/h Distance 18.82 km</desc>
<time>2011-09-24T10:58:18.06</time>
<name>4903</name>
</trkpt>
<trkpt lat="41.805938" lon="-1.815122">
<ele>1245.5</ele>
<speed>10.9</speed>
<course>147.4</course>
<desc>Speed 10.9 km/h Distance 18.82 km</desc>
<time>2011-09-24T10:58:19.05</time>
<name>4904</name>
</trkpt>
<trkpt lat="41.805915" lon="-1.815102">
<ele>1245.5</ele>
<speed>10.4</speed>
<course>145.3</course>
<desc>Speed 10.4 km/h Distance 18.82 km</desc>
<time>2011-09-24T10:58:20.05</time>
<name>4905</name>
</trkpt>
<trkpt lat="41.805892" lon="-1.815080">
<ele>1245.5</ele>
<speed>10.2</speed>
<course>145.2</course>
<desc>Speed 10.2 km/h Distance 18.83 km</desc>
<time>2011-09-24T10:58:21.05</time>
<name>4906</name>
</trkpt>
<trkpt lat="41.805867" lon="-1.815057">
<ele>1246.0</ele>
<speed>10.5</speed>
<course>145.5</course>
<desc>Speed 10.5 km/h Distance 18.83 km</desc>
<time>2011-09-24T10:58:22.05</time>
<name>4907</name>
</trkpt>
<trkpt lat="41.805845" lon="-1.815037">
<ele>1246.0</ele>
<speed>9.5</speed>
<course>143.4</course>
<desc>Speed 9.5 km/h Distance 18.83 km</desc>
<time>2011-09-24T10:58:23.06</time>
<name>4908</name>
</trkpt>
<trkpt lat="41.805825" lon="-1.815017">
<ele>1246.0</ele>
<speed>9.6</speed>
<course>141.1</course>
<desc>Speed 9.6 km/h Distance 18.84 km</desc>
<time>2011-09-24T10:58:24.07</time>
<name>4909</name>
</trkpt>
<trkpt lat="41.805805" lon="-1.814995">
<ele>1246.0</ele>
<speed>9.7</speed>
<course>141.1</course>
<desc>Speed 9.7 km/h Distance 18.84 km</desc>
<time>2011-09-24T10:58:25.06</time>
<name>4910</name>
</trkpt>
<trkpt lat="41.805785" lon="-1.814973">
<ele>1246.0</ele>
<speed>9.5</speed>
<course>145.5</course>
<desc>Speed 9.5 km/h Distance 18.84 km</desc>
<time>2011-09-24T10:58:26.05</time>
<name>4911</name>
</trkpt>
<trkpt lat="41.805763" lon="-1.814953">
<ele>1246.5</ele>
<speed>9.3</speed>
<course>145.5</course>
<desc>Speed 9.3 km/h Distance 18.85 km</desc>
<time>2011-09-24T10:58:27.06</time>
<name>4912</name>
</trkpt>
<trkpt lat="41.805742" lon="-1.814933">
<ele>1247.0</ele>
<speed>9.9</speed>
<course>143.3</course>
<desc>Speed 9.9 km/h Distance 18.85 km</desc>
<time>2011-09-24T10:58:28.06</time>
<name>4913</name>
</trkpt>
<trkpt lat="41.805720" lon="-1.814912">
<ele>1247.5</ele>
<speed>9.8</speed>
<course>141.0</course>
<desc>Speed 9.8 km/h Distance 18.85 km</desc>
<time>2011-09-24T10:58:29.05</time>
<name>4914</name>
</trkpt>
<trkpt lat="41.805700" lon="-1.814890">
<ele>1247.5</ele>
<speed>10.0</speed>
<course>141.2</course>
<desc>Speed 10.0 km/h Distance 18.85 km</desc>
<time>2011-09-24T10:58:30.05</time>
<name>4915</name>
</trkpt>
<trkpt lat="41.805678" lon="-1.814867">
<ele>1247.5</ele>
<speed>10.2</speed>
<course>141.3</course>
<desc>Speed 10.2 km/h Distance 18.86 km</desc>
<time>2011-09-24T10:58:31.05</time>
<name>4916</name>
</trkpt>
<trkpt lat="41.805657" lon="-1.814843">
<ele>1247.5</ele>
<speed>10.0</speed>
<course>137.0</course>
<desc>Speed 10.0 km/h Distance 18.86 km</desc>
<time>2011-09-24T10:58:32.05</time>
<name>4917</name>
</trkpt>
<trkpt lat="41.805637" lon="-1.814818">
<ele>1247.5</ele>
<speed>9.3</speed>
<course>136.5</course>
<desc>Speed 9.3 km/h Distance 18.86 km</desc>
<time>2011-09-24T10:58:33.05</time>
<name>4918</name>
</trkpt>
<trkpt lat="41.805618" lon="-1.814795">
<ele>1248.0</ele>
<speed>10.0</speed>
<course>138.6</course>
<desc>Speed 10.0 km/h Distance 18.87 km</desc>
<time>2011-09-24T10:58:34.04</time>
<name>4919</name>
</trkpt>
<trkpt lat="41.805600" lon="-1.814773">
<ele>1248.0</ele>
<speed>9.0</speed>
<course>138.6</course>
<desc>Speed 9.0 km/h Distance 18.87 km</desc>
<time>2011-09-24T10:58:35.04</time>
<name>4920</name>
</trkpt>
<trkpt lat="41.805582" lon="-1.814752">
<ele>1248.0</ele>
<speed>8.6</speed>
<course>135.9</course>
<desc>Speed 8.6 km/h Distance 18.87 km</desc>
<time>2011-09-24T10:58:36.04</time>
<name>4921</name>
</trkpt>
<trkpt lat="41.805565" lon="-1.814730">
<ele>1248.0</ele>
<speed>9.0</speed>
<course>149.6</course>
<desc>Speed 9.0 km/h Distance 18.87 km</desc>
<time>2011-09-24T10:58:37.04</time>
<name>4922</name>
</trkpt>
<trkpt lat="41.805542" lon="-1.814712">
<ele>1248.5</ele>
<speed>9.4</speed>
<course>137.1</course>
<desc>Speed 9.4 km/h Distance 18.88 km</desc>
<time>2011-09-24T10:58:38.04</time>
<name>4923</name>
</trkpt>
<trkpt lat="41.805522" lon="-1.814687">
<ele>1248.5</ele>
<speed>9.3</speed>
<course>133.8</course>
<desc>Speed 9.3 km/h Distance 18.88 km</desc>
<time>2011-09-24T10:58:39.04</time>
<name>4924</name>
</trkpt>
<trkpt lat="41.805505" lon="-1.814663">
<ele>1248.0</ele>
<speed>8.3</speed>
<course>134.6</course>
<desc>Speed 8.3 km/h Distance 18.88 km</desc>
<time>2011-09-24T10:58:40.04</time>
<name>4925</name>
</trkpt>
<trkpt lat="41.805487" lon="-1.814638">
<ele>1248.5</ele>
<speed>9.3</speed>
<course>130.3</course>
<desc>Speed 9.3 km/h Distance 18.89 km</desc>
<time>2011-09-24T10:58:41.04</time>
<name>4926</name>
</trkpt>
<trkpt lat="41.805467" lon="-1.814607">
<ele>1249.0</ele>
<speed>10.4</speed>
<course>141.3</course>
<desc>Speed 10.4 km/h Distance 18.89 km</desc>
<time>2011-09-24T10:58:42.05</time>
<name>4927</name>
</trkpt>
<trkpt lat="41.805445" lon="-1.814583">
<ele>1248.5</ele>
<speed>10.2</speed>
<course>139.3</course>
<desc>Speed 10.2 km/h Distance 18.89 km</desc>
<time>2011-09-24T10:58:43.04</time>
<name>4928</name>
</trkpt>
<trkpt lat="41.805423" lon="-1.814558">
<ele>1249.0</ele>
<speed>10.8</speed>
<course>143.3</course>
<desc>Speed 10.8 km/h Distance 18.90 km</desc>
<time>2011-09-24T10:58:44.03</time>
<name>4929</name>
</trkpt>
<trkpt lat="41.805402" lon="-1.814537">
<ele>1248.5</ele>
<speed>10.5</speed>
<course>139.0</course>
<desc>Speed 10.5 km/h Distance 18.90 km</desc>
<time>2011-09-24T10:58:45.03</time>
<name>4930</name>
</trkpt>
<trkpt lat="41.805382" lon="-1.814513">
<ele>1248.0</ele>
<speed>10.4</speed>
<course>137.0</course>
<desc>Speed 10.4 km/h Distance 18.90 km</desc>
<time>2011-09-24T10:58:46.03</time>
<name>4931</name>
</trkpt>
<trkpt lat="41.805362" lon="-1.814488">
<ele>1247.5</ele>
<speed>10.3</speed>
<course>139.6</course>
<desc>Speed 10.3 km/h Distance 18.90 km</desc>
<time>2011-09-24T10:58:47.03</time>
<name>4932</name>
</trkpt>
<trkpt lat="41.805338" lon="-1.814462">
<ele>1248.0</ele>
<speed>10.7</speed>
<course>135.2</course>
<desc>Speed 10.7 km/h Distance 18.91 km</desc>
<time>2011-09-24T10:58:48.03</time>
<name>4933</name>
</trkpt>
<trkpt lat="41.805318" lon="-1.814435">
<ele>1248.0</ele>
<speed>11.0</speed>
<course>137.1</course>
<desc>Speed 11.0 km/h Distance 18.91 km</desc>
<time>2011-09-24T10:58:49.03</time>
<name>4934</name>
</trkpt>
<trkpt lat="41.805298" lon="-1.814410">
<ele>1247.0</ele>
<speed>9.9</speed>
<course>137.0</course>
<desc>Speed 9.9 km/h Distance 18.91 km</desc>
<time>2011-09-24T10:58:50.03</time>
<name>4935</name>
</trkpt>
<trkpt lat="41.805278" lon="-1.814385">
<ele>1246.5</ele>
<speed>10.3</speed>
<course>129.3</course>
<desc>Speed 10.3 km/h Distance 18.92 km</desc>
<time>2011-09-24T10:58:51.03</time>
<name>4936</name>
</trkpt>
<trkpt lat="41.805260" lon="-1.814355">
<ele>1247.0</ele>
<speed>10.7</speed>
<course>135.7</course>
<desc>Speed 10.7 km/h Distance 18.92 km</desc>
<time>2011-09-24T10:58:52.03</time>
<name>4937</name>
</trkpt>
<trkpt lat="41.805238" lon="-1.814327">
<ele>1247.0</ele>
<speed>11.2</speed>
<course>131.8</course>
<desc>Speed 11.2 km/h Distance 18.92 km</desc>
<time>2011-09-24T10:58:53.03</time>
<name>4938</name>
</trkpt>
<trkpt lat="41.805218" lon="-1.814297">
<ele>1247.0</ele>
<speed>11.1</speed>
<course>137.8</course>
<desc>Speed 11.1 km/h Distance 18.93 km</desc>
<time>2011-09-24T10:58:54.03</time>
<name>4939</name>
</trkpt>
<trkpt lat="41.805195" lon="-1.814268">
<ele>1247.5</ele>
<speed>11.7</speed>
<course>136.2</course>
<desc>Speed 11.7 km/h Distance 18.93 km</desc>
<time>2011-09-24T10:58:55.03</time>
<name>4940</name>
</trkpt>
<trkpt lat="41.805172" lon="-1.814238">
<ele>1247.5</ele>
<speed>11.9</speed>
<course>133.2</course>
<desc>Speed 11.9 km/h Distance 18.93 km</desc>
<time>2011-09-24T10:58:56.02</time>
<name>4941</name>
</trkpt>
<trkpt lat="41.805148" lon="-1.814205">
<ele>1248.0</ele>
<speed>12.3</speed>
<course>133.2</course>
<desc>Speed 12.3 km/h Distance 18.94 km</desc>
<time>2011-09-24T10:58:57.02</time>
<name>4942</name>
</trkpt>
<trkpt lat="41.805125" lon="-1.814172">
<ele>1248.0</ele>
<speed>12.2</speed>
<course>134.7</course>
<desc>Speed 12.2 km/h Distance 18.94 km</desc>
<time>2011-09-24T10:58:58.02</time>
<name>4943</name>
</trkpt>
<trkpt lat="41.805102" lon="-1.814140">
<ele>1248.0</ele>
<speed>11.9</speed>
<course>132.5</course>
<desc>Speed 11.9 km/h Distance 18.95 km</desc>
<time>2011-09-24T10:58:59.02</time>
<name>4944</name>
</trkpt>
<trkpt lat="41.805080" lon="-1.814108">
<ele>1248.0</ele>
<speed>11.9</speed>
<course>131.8</course>
<desc>Speed 11.9 km/h Distance 18.95 km</desc>
<time>2011-09-24T10:59:00.02</time>
<name>4945</name>
</trkpt>
<trkpt lat="41.805060" lon="-1.814078">
<ele>1248.5</ele>
<speed>11.6</speed>
<course>137.9</course>
<desc>Speed 11.6 km/h Distance 18.95 km</desc>
<time>2011-09-24T10:59:01.02</time>
<name>4946</name>
</trkpt>
<trkpt lat="41.805037" lon="-1.814050">
<ele>1248.5</ele>
<speed>11.7</speed>
<course>134.1</course>
<desc>Speed 11.7 km/h Distance 18.96 km</desc>
<time>2011-09-24T10:59:02.02</time>
<name>4947</name>
</trkpt>
<trkpt lat="41.805015" lon="-1.814020">
<ele>1248.5</ele>
<speed>11.5</speed>
<course>137.8</course>
<desc>Speed 11.5 km/h Distance 18.96 km</desc>
<time>2011-09-24T10:59:03.02</time>
<name>4948</name>
</trkpt>
<trkpt lat="41.804992" lon="-1.813992">
<ele>1248.5</ele>
<speed>11.8</speed>
<course>141.4</course>
<desc>Speed 11.8 km/h Distance 18.96 km</desc>
<time>2011-09-24T10:59:04.02</time>
<name>4949</name>
</trkpt>
<trkpt lat="41.804968" lon="-1.813967">
<ele>1249.0</ele>
<speed>11.6</speed>
<course>141.4</course>
<desc>Speed 11.6 km/h Distance 18.97 km</desc>
<time>2011-09-24T10:59:05.02</time>
<name>4950</name>
</trkpt>
<trkpt lat="41.804945" lon="-1.813942">
<ele>1249.0</ele>
<speed>11.3</speed>
<course>137.0</course>
<desc>Speed 11.3 km/h Distance 18.97 km</desc>
<time>2011-09-24T10:59:06.02</time>
<name>4951</name>
</trkpt>
<trkpt lat="41.804925" lon="-1.813917">
<ele>1249.0</ele>
<speed>11.4</speed>
<course>143.3</course>
<desc>Speed 11.4 km/h Distance 18.97 km</desc>
<time>2011-09-24T10:59:07.01</time>
<name>4952</name>
</trkpt>
<trkpt lat="41.804905" lon="-1.813897">
<ele>1248.0</ele>
<speed>9.8</speed>
<course>145.4</course>
<desc>Speed 9.8 km/h Distance 18.98 km</desc>
<time>2011-09-24T10:59:08.01</time>
<name>4953</name>
</trkpt>
<trkpt lat="41.804883" lon="-1.813877">
<ele>1247.5</ele>
<speed>9.6</speed>
<course>143.3</course>
<desc>Speed 9.6 km/h Distance 18.98 km</desc>
<time>2011-09-24T10:59:09.01</time>
<name>4954</name>
</trkpt>
<trkpt lat="41.804862" lon="-1.813855">
<ele>1247.5</ele>
<speed>10.3</speed>
<course>141.4</course>
<desc>Speed 10.3 km/h Distance 18.98 km</desc>
<time>2011-09-24T10:59:10.01</time>
<name>4955</name>
</trkpt>
<trkpt lat="41.804838" lon="-1.813830">
<ele>1248.0</ele>
<speed>11.3</speed>
<course>143.3</course>
<desc>Speed 11.3 km/h Distance 18.98 km</desc>
<time>2011-09-24T10:59:11.01</time>
<name>4956</name>
</trkpt>
<trkpt lat="41.804813" lon="-1.813805">
<ele>1248.5</ele>
<speed>10.9</speed>
<course>141.4</course>
<desc>Speed 10.9 km/h Distance 18.99 km</desc>
<time>2011-09-24T10:59:12.01</time>
<name>4957</name>
</trkpt>
<trkpt lat="41.804790" lon="-1.813780">
<ele>1248.0</ele>
<speed>11.1</speed>
<course>147.1</course>
<desc>Speed 11.1 km/h Distance 18.99 km</desc>
<time>2011-09-24T10:59:13.01</time>
<name>4958</name>
</trkpt>
<trkpt lat="41.804765" lon="-1.813758">
<ele>1248.5</ele>
<speed>11.2</speed>
<course>143.3</course>
<desc>Speed 11.2 km/h Distance 19.00 km</desc>
<time>2011-09-24T10:59:14.01</time>
<name>4959</name>
</trkpt>
<trkpt lat="41.804740" lon="-1.813733">
<ele>1248.5</ele>
<speed>11.4</speed>
<course>143.3</course>
<desc>Speed 11.4 km/h Distance 19.00 km</desc>
<time>2011-09-24T10:59:15.01</time>
<name>4960</name>
</trkpt>
<trkpt lat="41.804713" lon="-1.813707">
<ele>1248.5</ele>
<speed>11.6</speed>
<course>145.2</course>
<desc>Speed 11.6 km/h Distance 19.00 km</desc>
<time>2011-09-24T10:59:16.01</time>
<name>4961</name>
</trkpt>
<trkpt lat="41.804688" lon="-1.813683">
<ele>1248.5</ele>
<speed>11.3</speed>
<course>146.7</course>
<desc>Speed 11.3 km/h Distance 19.01 km</desc>
<time>2011-09-24T10:59:17.02</time>
<name>4962</name>
</trkpt>
<trkpt lat="41.804660" lon="-1.813658">
<ele>1249.5</ele>
<speed>12.7</speed>
<course>147.1</course>
<desc>Speed 12.7 km/h Distance 19.01 km</desc>
<time>2011-09-24T10:59:18.01</time>
<name>4963</name>
</trkpt>
<trkpt lat="41.804635" lon="-1.813637">
<ele>1249.0</ele>
<speed>11.6</speed>
<course>145.2</course>
<desc>Speed 11.6 km/h Distance 19.01 km</desc>
<time>2011-09-24T10:59:19.01</time>
<name>4964</name>
</trkpt>
<trkpt lat="41.804610" lon="-1.813613">
<ele>1249.0</ele>
<speed>11.3</speed>
<course>141.4</course>
<desc>Speed 11.3 km/h Distance 19.02 km</desc>
<time>2011-09-24T10:59:20.00</time>
<name>4965</name>
</trkpt>
<trkpt lat="41.804587" lon="-1.813588">
<ele>1249.0</ele>
<speed>11.4</speed>
<course>141.2</course>
<desc>Speed 11.4 km/h Distance 19.02 km</desc>
<time>2011-09-24T10:59:21.00</time>
<name>4966</name>
</trkpt>
<trkpt lat="41.804565" lon="-1.813565">
<ele>1249.0</ele>
<speed>10.5</speed>
<course>143.3</course>
<desc>Speed 10.5 km/h Distance 19.02 km</desc>
<time>2011-09-24T10:59:22.00</time>
<name>4967</name>
</trkpt>
<trkpt lat="41.804540" lon="-1.813540">
<ele>1249.0</ele>
<speed>11.4</speed>
<course>139.3</course>
<desc>Speed 11.4 km/h Distance 19.03 km</desc>
<time>2011-09-24T10:59:23.00</time>
<name>4968</name>
</trkpt>
<trkpt lat="41.804518" lon="-1.813515">
<ele>1249.5</ele>
<speed>11.0</speed>
<course>139.0</course>
<desc>Speed 11.0 km/h Distance 19.03 km</desc>
<time>2011-09-24T10:59:24.00</time>
<name>4969</name>
</trkpt>
<trkpt lat="41.804498" lon="-1.813492">
<ele>1249.5</ele>
<speed>9.9</speed>
<course>141.3</course>
<desc>Speed 9.9 km/h Distance 19.03 km</desc>
<time>2011-09-24T10:59:25.01</time>
<name>4970</name>
</trkpt>
<trkpt lat="41.804477" lon="-1.813468">
<ele>1249.5</ele>
<speed>11.0</speed>
<course>147.2</course>
<desc>Speed 11.0 km/h Distance 19.04 km</desc>
<time>2011-09-24T10:59:26.00</time>
<name>4971</name>
</trkpt>
<trkpt lat="41.804452" lon="-1.813447">
<ele>1249.0</ele>
<speed>10.8</speed>
<course>139.0</course>
<desc>Speed 10.8 km/h Distance 19.04 km</desc>
<time>2011-09-24T10:59:27.00</time>
<name>4972</name>
</trkpt>
<trkpt lat="41.804432" lon="-1.813423">
<ele>1248.5</ele>
<speed>10.6</speed>
<course>143.3</course>
<desc>Speed 10.6 km/h Distance 19.04 km</desc>
<time>2011-09-24T10:59:28.00</time>
<name>4973</name>
</trkpt>
<trkpt lat="41.804390" lon="-1.813382">
<ele>1248.5</ele>
<speed>9.6</speed>
<course>135.2</course>
<desc>Speed 9.6 km/h Distance 19.05 km</desc>
<time>2011-09-24T10:59:30.01</time>
<name>4974</name>
</trkpt>
<trkpt lat="41.804355" lon="-1.813335">
<ele>1248.5</ele>
<speed>9.8</speed>
<course>139.1</course>
<desc>Speed 9.8 km/h Distance 19.05 km</desc>
<time>2011-09-24T10:59:32.00</time>
<name>4975</name>
</trkpt>
<trkpt lat="41.804313" lon="-1.813287">
<ele>1249.0</ele>
<speed>11.3</speed>
<course>136.3</course>
<desc>Speed 11.3 km/h Distance 19.06 km</desc>
<time>2011-09-24T10:59:34.01</time>
<name>4976</name>
</trkpt>
<trkpt lat="41.804272" lon="-1.813233">
<ele>1249.5</ele>
<speed>11.4</speed>
<course>142.3</course>
<desc>Speed 11.4 km/h Distance 19.07 km</desc>
<time>2011-09-24T10:59:36.00</time>
<name>4977</name>
</trkpt>
<trkpt lat="41.804227" lon="-1.813187">
<ele>1249.0</ele>
<speed>10.6</speed>
<course>142.4</course>
<desc>Speed 10.6 km/h Distance 19.07 km</desc>
<time>2011-09-24T10:59:37.99</time>
<name>4978</name>
</trkpt>
<trkpt lat="41.804177" lon="-1.813135">
<ele>1250.0</ele>
<speed>11.2</speed>
<course>139.2</course>
<desc>Speed 11.2 km/h Distance 19.08 km</desc>
<time>2011-09-24T10:59:40.00</time>
<name>4979</name>
</trkpt>
<trkpt lat="41.804135" lon="-1.813087">
<ele>1251.0</ele>
<speed>11.3</speed>
<course>139.0</course>
<desc>Speed 11.3 km/h Distance 19.08 km</desc>
<time>2011-09-24T10:59:41.99</time>
<name>4980</name>
</trkpt>
<trkpt lat="41.804095" lon="-1.813040">
<ele>1249.5</ele>
<speed>10.7</speed>
<course>145.3</course>
<desc>Speed 10.7 km/h Distance 19.09 km</desc>
<time>2011-09-24T10:59:43.99</time>
<name>4981</name>
</trkpt>
<trkpt lat="41.804072" lon="-1.813018">
<ele>1250.5</ele>
<speed>10.8</speed>
<course>141.3</course>
<desc>Speed 10.8 km/h Distance 19.09 km</desc>
<time>2011-09-24T10:59:44.98</time>
<name>4982</name>
</trkpt>
<trkpt lat="41.804050" lon="-1.812995">
<ele>1250.0</ele>
<speed>10.8</speed>
<course>138.2</course>
<desc>Speed 10.8 km/h Distance 19.10 km</desc>
<time>2011-09-24T10:59:45.99</time>
<name>4983</name>
</trkpt>
<trkpt lat="41.804008" lon="-1.812945">
<ele>1250.0</ele>
<speed>10.8</speed>
<course>143.3</course>
<desc>Speed 10.8 km/h Distance 19.10 km</desc>
<time>2011-09-24T10:59:47.98</time>
<name>4984</name>
</trkpt>
<trkpt lat="41.803988" lon="-1.812925">
<ele>1249.5</ele>
<speed>10.2</speed>
<course>144.2</course>
<desc>Speed 10.2 km/h Distance 19.11 km</desc>
<time>2011-09-24T10:59:48.98</time>
<name>4985</name>
</trkpt>
<trkpt lat="41.803938" lon="-1.812877">
<ele>1249.0</ele>
<speed>10.3</speed>
<course>141.3</course>
<desc>Speed 10.3 km/h Distance 19.11 km</desc>
<time>2011-09-24T10:59:50.99</time>
<name>4986</name>
</trkpt>
<trkpt lat="41.803893" lon="-1.812828">
<ele>1250.0</ele>
<speed>10.8</speed>
<course>143.3</course>
<desc>Speed 10.8 km/h Distance 19.12 km</desc>
<time>2011-09-24T10:59:53.00</time>
<name>4987</name>
</trkpt>
<trkpt lat="41.803848" lon="-1.812783">
<ele>1250.5</ele>
<speed>10.7</speed>
<course>136.5</course>
<desc>Speed 10.7 km/h Distance 19.13 km</desc>
<time>2011-09-24T10:59:54.98</time>
<name>4988</name>
</trkpt>
<trkpt lat="41.803830" lon="-1.812760">
<ele>1251.0</ele>
<speed>10.1</speed>
<course>139.0</course>
<desc>Speed 10.1 km/h Distance 19.13 km</desc>
<time>2011-09-24T10:59:55.98</time>
<name>4989</name>
</trkpt>
<trkpt lat="41.803810" lon="-1.812737">
<ele>1251.0</ele>
<speed>10.6</speed>
<course>139.3</course>
<desc>Speed 10.6 km/h Distance 19.13 km</desc>
<time>2011-09-24T10:59:56.98</time>
<name>4990</name>
</trkpt>
<trkpt lat="41.803788" lon="-1.812712">
<ele>1251.0</ele>
<speed>10.9</speed>
<course>141.3</course>
<desc>Speed 10.9 km/h Distance 19.13 km</desc>
<time>2011-09-24T10:59:57.98</time>
<name>4991</name>
</trkpt>
<trkpt lat="41.803767" lon="-1.812688">
<ele>1250.5</ele>
<speed>10.9</speed>
<course>139.9</course>
<desc>Speed 10.9 km/h Distance 19.14 km</desc>
<time>2011-09-24T10:59:58.98</time>
<name>4992</name>
</trkpt>
<trkpt lat="41.803728" lon="-1.812645">
<ele>1249.5</ele>
<speed>9.3</speed>
<course>139.0</course>
<desc>Speed 9.3 km/h Distance 19.14 km</desc>
<time>2011-09-24T11:00:00.97</time>
<name>4993</name>
</trkpt>
<trkpt lat="41.803708" lon="-1.812622">
<ele>1249.5</ele>
<speed>10.1</speed>
<course>137.1</course>
<desc>Speed 10.1 km/h Distance 19.15 km</desc>
<time>2011-09-24T11:00:01.98</time>
<name>4994</name>
</trkpt>
<trkpt lat="41.803688" lon="-1.812597">
<ele>1249.5</ele>
<speed>11.4</speed>
<course>132.7</course>
<desc>Speed 11.4 km/h Distance 19.15 km</desc>
<time>2011-09-24T11:00:02.97</time>
<name>4995</name>
</trkpt>
<trkpt lat="41.803670" lon="-1.812570">
<ele>1249.5</ele>
<speed>10.5</speed>
<course>133.4</course>
<desc>Speed 10.5 km/h Distance 19.15 km</desc>
<time>2011-09-24T11:00:03.98</time>
<name>4996</name>
</trkpt>
<trkpt lat="41.803650" lon="-1.812542">
<ele>1250.0</ele>
<speed>10.8</speed>
<course>137.1</course>
<desc>Speed 10.8 km/h Distance 19.16 km</desc>
<time>2011-09-24T11:00:04.97</time>
<name>4997</name>
</trkpt>
<trkpt lat="41.803630" lon="-1.812517">
<ele>1250.0</ele>
<speed>11.3</speed>
<course>141.1</course>
<desc>Speed 11.3 km/h Distance 19.16 km</desc>
<time>2011-09-24T11:00:05.98</time>
<name>4998</name>
</trkpt>
<trkpt lat="41.803610" lon="-1.812495">
<ele>1250.5</ele>
<speed>10.0</speed>
<course>134.5</course>
<desc>Speed 10.0 km/h Distance 19.16 km</desc>
<time>2011-09-24T11:00:06.97</time>
<name>4999</name>
</trkpt>
<trkpt lat="41.803592" lon="-1.812470">
<ele>1251.5</ele>
<speed>10.3</speed>
<course>134.5</course>
<desc>Speed 10.3 km/h Distance 19.16 km</desc>
<time>2011-09-24T11:00:07.97</time>
<name>5000</name>
</trkpt>
<trkpt lat="41.803555" lon="-1.812420">
<ele>1253.5</ele>
<speed>11.1</speed>
<course>145.3</course>
<desc>Speed 11.1 km/h Distance 19.17 km</desc>
<time>2011-09-24T11:00:09.97</time>
<name>5001</name>
</trkpt>
<trkpt lat="41.803532" lon="-1.812398">
<ele>1253.5</ele>
<speed>10.8</speed>
<course>131.8</course>
<desc>Speed 10.8 km/h Distance 19.17 km</desc>
<time>2011-09-24T11:00:10.97</time>
<name>5002</name>
</trkpt>
<trkpt lat="41.803515" lon="-1.812373">
<ele>1254.0</ele>
<speed>9.2</speed>
<course>135.2</course>
<desc>Speed 9.2 km/h Distance 19.18 km</desc>
<time>2011-09-24T11:00:11.97</time>
<name>5003</name>
</trkpt>
<trkpt lat="41.803500" lon="-1.812353">
<ele>1254.0</ele>
<speed>8.4</speed>
<course>138.2</course>
<desc>Speed 8.4 km/h Distance 19.18 km</desc>
<time>2011-09-24T11:00:12.98</time>
<name>5004</name>
</trkpt>
<trkpt lat="41.803483" lon="-1.812333">
<ele>1254.0</ele>
<speed>8.4</speed>
<course>143.3</course>
<desc>Speed 8.4 km/h Distance 19.18 km</desc>
<time>2011-09-24T11:00:13.97</time>
<name>5005</name>
</trkpt>
<trkpt lat="41.803465" lon="-1.812315">
<ele>1254.0</ele>
<speed>8.7</speed>
<course>138.2</course>
<desc>Speed 8.7 km/h Distance 19.18 km</desc>
<time>2011-09-24T11:00:14.97</time>
<name>5006</name>
</trkpt>
<trkpt lat="41.803448" lon="-1.812295">
<ele>1254.0</ele>
<speed>8.5</speed>
<course>143.3</course>
<desc>Speed 8.5 km/h Distance 19.19 km</desc>
<time>2011-09-24T11:00:15.97</time>
<name>5007</name>
</trkpt>
<trkpt lat="41.803430" lon="-1.812277">
<ele>1253.5</ele>
<speed>9.3</speed>
<course>144.4</course>
<desc>Speed 9.3 km/h Distance 19.19 km</desc>
<time>2011-09-24T11:00:16.97</time>
<name>5008</name>
</trkpt>
<trkpt lat="41.803387" lon="-1.812235">
<ele>1251.5</ele>
<speed>9.7</speed>
<course>145.1</course>
<desc>Speed 9.7 km/h Distance 19.19 km</desc>
<time>2011-09-24T11:00:18.97</time>
<name>5009</name>
</trkpt>
<trkpt lat="41.803360" lon="-1.812210">
<ele>1251.5</ele>
<speed>10.5</speed>
<course>143.3</course>
<desc>Speed 10.5 km/h Distance 19.20 km</desc>
<time>2011-09-24T11:00:19.96</time>
<name>5010</name>
</trkpt>
<trkpt lat="41.803338" lon="-1.812188">
<ele>1252.0</ele>
<speed>10.1</speed>
<course>143.4</course>
<desc>Speed 10.1 km/h Distance 19.20 km</desc>
<time>2011-09-24T11:00:20.96</time>
<name>5011</name>
</trkpt>
<trkpt lat="41.803322" lon="-1.812172">
<ele>1251.0</ele>
<speed>7.4</speed>
<course>134.1</course>
<desc>Speed 7.4 km/h Distance 19.20 km</desc>
<time>2011-09-24T11:00:21.96</time>
<name>5012</name>
</trkpt>
<trkpt lat="41.803300" lon="-1.812142">
<ele>1252.0</ele>
<speed>9.1</speed>
<course>141.1</course>
<desc>Speed 9.1 km/h Distance 19.21 km</desc>
<time>2011-09-24T11:00:22.96</time>
<name>5013</name>
</trkpt>
<trkpt lat="41.803280" lon="-1.812120">
<ele>1252.0</ele>
<speed>10.5</speed>
<course>146.7</course>
<desc>Speed 10.5 km/h Distance 19.21 km</desc>
<time>2011-09-24T11:00:23.96</time>
<name>5014</name>
</trkpt>
<trkpt lat="41.803252" lon="-1.812095">
<ele>1252.0</ele>
<speed>11.4</speed>
<course>145.1</course>
<desc>Speed 11.4 km/h Distance 19.21 km</desc>
<time>2011-09-24T11:00:24.96</time>
<name>5015</name>
</trkpt>
<trkpt lat="41.803225" lon="-1.812070">
<ele>1252.5</ele>
<speed>11.9</speed>
<course>145.3</course>
<desc>Speed 11.9 km/h Distance 19.22 km</desc>
<time>2011-09-24T11:00:25.96</time>
<name>5016</name>
</trkpt>
<trkpt lat="41.803202" lon="-1.812048">
<ele>1252.5</ele>
<speed>11.6</speed>
<course>143.3</course>
<desc>Speed 11.6 km/h Distance 19.22 km</desc>
<time>2011-09-24T11:00:26.97</time>
<name>5017</name>
</trkpt>
<trkpt lat="41.803178" lon="-1.812025">
<ele>1253.0</ele>
<speed>11.1</speed>
<course>148.8</course>
<desc>Speed 11.1 km/h Distance 19.22 km</desc>
<time>2011-09-24T11:00:27.96</time>
<name>5018</name>
</trkpt>
<trkpt lat="41.803152" lon="-1.812003">
<ele>1253.5</ele>
<speed>10.5</speed>
<course>150.3</course>
<desc>Speed 10.5 km/h Distance 19.23 km</desc>
<time>2011-09-24T11:00:28.97</time>
<name>5019</name>
</trkpt>
<trkpt lat="41.803123" lon="-1.811982">
<ele>1253.0</ele>
<speed>10.1</speed>
<course>154.3</course>
<desc>Speed 10.1 km/h Distance 19.23 km</desc>
<time>2011-09-24T11:00:29.97</time>
<name>5020</name>
</trkpt>
<trkpt lat="41.803095" lon="-1.811963">
<ele>1252.0</ele>
<speed>9.1</speed>
<course>145.1</course>
<desc>Speed 9.1 km/h Distance 19.23 km</desc>
<time>2011-09-24T11:00:30.96</time>
<name>5021</name>
</trkpt>
<trkpt lat="41.803068" lon="-1.811938">
<ele>1252.5</ele>
<speed>10.2</speed>
<course>148.8</course>
<desc>Speed 10.2 km/h Distance 19.24 km</desc>
<time>2011-09-24T11:00:31.96</time>
<name>5022</name>
</trkpt>
<trkpt lat="41.803042" lon="-1.811917">
<ele>1251.5</ele>
<speed>11.1</speed>
<course>145.7</course>
<desc>Speed 11.1 km/h Distance 19.24 km</desc>
<time>2011-09-24T11:00:32.97</time>
<name>5023</name>
</trkpt>
<trkpt lat="41.802982" lon="-1.811862">
<ele>1250.5</ele>
<speed>11.8</speed>
<course>143.3</course>
<desc>Speed 11.8 km/h Distance 19.25 km</desc>
<time>2011-09-24T11:00:34.96</time>
<name>5024</name>
</trkpt>
<trkpt lat="41.802950" lon="-1.811830">
<ele>1250.5</ele>
<speed>11.9</speed>
<course>137.4</course>
<desc>Speed 11.9 km/h Distance 19.25 km</desc>
<time>2011-09-24T11:00:35.95</time>
<name>5025</name>
</trkpt>
<trkpt lat="41.802922" lon="-1.811795">
<ele>1250.5</ele>
<speed>11.5</speed>
<course>138.4</course>
<desc>Speed 11.5 km/h Distance 19.26 km</desc>
<time>2011-09-24T11:00:36.96</time>
<name>5026</name>
</trkpt>
<trkpt lat="41.802895" lon="-1.811763">
<ele>1250.5</ele>
<speed>11.8</speed>
<course>139.2</course>
<desc>Speed 11.8 km/h Distance 19.26 km</desc>
<time>2011-09-24T11:00:37.95</time>
<name>5027</name>
</trkpt>
<trkpt lat="41.802863" lon="-1.811727">
<ele>1251.5</ele>
<speed>14.1</speed>
<course>141.6</course>
<desc>Speed 14.1 km/h Distance 19.27 km</desc>
<time>2011-09-24T11:00:38.96</time>
<name>5028</name>
</trkpt>
<trkpt lat="41.802837" lon="-1.811698">
<ele>1251.0</ele>
<speed>12.3</speed>
<course>143.4</course>
<desc>Speed 12.3 km/h Distance 19.27 km</desc>
<time>2011-09-24T11:00:39.95</time>
<name>5029</name>
</trkpt>
<trkpt lat="41.802812" lon="-1.811673">
<ele>1250.0</ele>
<speed>10.1</speed>
<course>137.7</course>
<desc>Speed 10.1 km/h Distance 19.27 km</desc>
<time>2011-09-24T11:00:40.95</time>
<name>5030</name>
</trkpt>
<trkpt lat="41.802782" lon="-1.811637">
<ele>1251.5</ele>
<speed>11.1</speed>
<course>136.6</course>
<desc>Speed 11.1 km/h Distance 19.28 km</desc>
<time>2011-09-24T11:00:41.95</time>
<name>5031</name>
</trkpt>
<trkpt lat="41.802757" lon="-1.811605">
<ele>1251.5</ele>
<speed>10.8</speed>
<course>136.6</course>
<desc>Speed 10.8 km/h Distance 19.28 km</desc>
<time>2011-09-24T11:00:42.95</time>
<name>5032</name>
</trkpt>
<trkpt lat="41.802732" lon="-1.811573">
<ele>1251.0</ele>
<speed>10.8</speed>
<course>136.6</course>
<desc>Speed 10.8 km/h Distance 19.29 km</desc>
<time>2011-09-24T11:00:43.95</time>
<name>5033</name>
</trkpt>
<trkpt lat="41.802707" lon="-1.811542">
<ele>1250.0</ele>
<speed>11.3</speed>
<course>134.1</course>
<desc>Speed 11.3 km/h Distance 19.29 km</desc>
<time>2011-09-24T11:00:44.95</time>
<name>5034</name>
</trkpt>
<trkpt lat="41.802685" lon="-1.811512">
<ele>1249.5</ele>
<speed>10.7</speed>
<course>122.7</course>
<desc>Speed 10.7 km/h Distance 19.29 km</desc>
<time>2011-09-24T11:00:45.94</time>
<name>5035</name>
</trkpt>
<trkpt lat="41.802667" lon="-1.811473">
<ele>1249.0</ele>
<speed>11.5</speed>
<course>125.1</course>
<desc>Speed 11.5 km/h Distance 19.30 km</desc>
<time>2011-09-24T11:00:46.95</time>
<name>5036</name>
</trkpt>
<trkpt lat="41.802648" lon="-1.811438">
<ele>1248.5</ele>
<speed>11.4</speed>
<course>126.4</course>
<desc>Speed 11.4 km/h Distance 19.30 km</desc>
<time>2011-09-24T11:00:47.94</time>
<name>5037</name>
</trkpt>
<trkpt lat="41.802630" lon="-1.811405">
<ele>1247.0</ele>
<speed>10.0</speed>
<course>107.7</course>
<desc>Speed 10.0 km/h Distance 19.30 km</desc>
<time>2011-09-24T11:00:48.95</time>
<name>5038</name>
</trkpt>
<trkpt lat="41.802622" lon="-1.811370">
<ele>1245.5</ele>
<speed>10.5</speed>
<course>117.1</course>
<desc>Speed 10.5 km/h Distance 19.31 km</desc>
<time>2011-09-24T11:00:49.95</time>
<name>5039</name>
</trkpt>
<trkpt lat="41.802608" lon="-1.811335">
<ele>1245.0</ele>
<speed>11.0</speed>
<course>110.1</course>
<desc>Speed 11.0 km/h Distance 19.31 km</desc>
<time>2011-09-24T11:00:50.95</time>
<name>5040</name>
</trkpt>
<trkpt lat="41.802598" lon="-1.811298">
<ele>1245.0</ele>
<speed>10.7</speed>
<course>111.0</course>
<desc>Speed 10.7 km/h Distance 19.31 km</desc>
<time>2011-09-24T11:00:51.95</time>
<name>5041</name>
</trkpt>
<trkpt lat="41.802588" lon="-1.811263">
<ele>1244.5</ele>
<speed>10.4</speed>
<course>107.7</course>
<desc>Speed 10.4 km/h Distance 19.32 km</desc>
<time>2011-09-24T11:00:52.95</time>
<name>5042</name>
</trkpt>
<trkpt lat="41.802580" lon="-1.811228">
<ele>1244.0</ele>
<speed>10.5</speed>
<course>130.8</course>
<desc>Speed 10.5 km/h Distance 19.32 km</desc>
<time>2011-09-24T11:00:53.95</time>
<name>5043</name>
</trkpt>
<trkpt lat="41.802565" lon="-1.811205">
<ele>1244.0</ele>
<speed>8.4</speed>
<course>102.6</course>
<desc>Speed 8.4 km/h Distance 19.32 km</desc>
<time>2011-09-24T11:00:54.95</time>
<name>5044</name>
</trkpt>
<trkpt lat="41.802560" lon="-1.811175">
<ele>1242.5</ele>
<speed>7.9</speed>
<course>106.6</course>
<desc>Speed 7.9 km/h Distance 19.32 km</desc>
<time>2011-09-24T11:00:55.95</time>
<name>5045</name>
</trkpt>
<trkpt lat="41.802553" lon="-1.811145">
<ele>1241.0</ele>
<speed>8.1</speed>
<course>145.0</course>
<desc>Speed 8.1 km/h Distance 19.33 km</desc>
<time>2011-09-24T11:00:56.94</time>
<name>5046</name>
</trkpt>
<trkpt lat="41.802525" lon="-1.811118">
<ele>1243.5</ele>
<speed>11.9</speed>
<course>130.3</course>
<desc>Speed 11.9 km/h Distance 19.33 km</desc>
<time>2011-09-24T11:00:57.94</time>
<name>5047</name>
</trkpt>
<trkpt lat="41.802505" lon="-1.811087">
<ele>1244.0</ele>
<speed>11.4</speed>
<course>125.1</course>
<desc>Speed 11.4 km/h Distance 19.33 km</desc>
<time>2011-09-24T11:00:58.94</time>
<name>5048</name>
</trkpt>
<trkpt lat="41.802487" lon="-1.811052">
<ele>1244.0</ele>
<speed>11.3</speed>
<course>120.4</course>
<desc>Speed 11.3 km/h Distance 19.34 km</desc>
<time>2011-09-24T11:00:59.94</time>
<name>5049</name>
</trkpt>
<trkpt lat="41.802475" lon="-1.811025">
<ele>1244.5</ele>
<speed>7.6</speed>
<course>107.5</course>
<desc>Speed 7.6 km/h Distance 19.34 km</desc>
<time>2011-09-24T11:01:00.94</time>
<name>5050</name>
</trkpt>
<trkpt lat="41.802468" lon="-1.810997">
<ele>1243.0</ele>
<speed>8.4</speed>
<course>105.0</course>
<desc>Speed 8.4 km/h Distance 19.34 km</desc>
<time>2011-09-24T11:01:01.94</time>
<name>5051</name>
</trkpt>
<trkpt lat="41.802458" lon="-1.810947">
<ele>1246.0</ele>
<speed>9.2</speed>
<course>126.7</course>
<desc>Speed 9.2 km/h Distance 19.35 km</desc>
<time>2011-09-24T11:01:02.94</time>
<name>5052</name>
</trkpt>
<trkpt lat="41.802442" lon="-1.810917">
<ele>1246.0</ele>
<speed>9.6</speed>
<course>125.4</course>
<desc>Speed 9.6 km/h Distance 19.35 km</desc>
<time>2011-09-24T11:01:03.94</time>
<name>5053</name>
</trkpt>
<trkpt lat="41.802427" lon="-1.810888">
<ele>1246.5</ele>
<speed>8.7</speed>
<course>126.2</course>
<desc>Speed 8.7 km/h Distance 19.35 km</desc>
<time>2011-09-24T11:01:04.94</time>
<name>5054</name>
</trkpt>
<trkpt lat="41.802407" lon="-1.810852">
<ele>1247.5</ele>
<speed>10.2</speed>
<course>121.8</course>
<desc>Speed 10.2 km/h Distance 19.36 km</desc>
<time>2011-09-24T11:01:05.93</time>
<name>5055</name>
</trkpt>
<trkpt lat="41.802387" lon="-1.810808">
<ele>1249.0</ele>
<speed>12.0</speed>
<course>117.1</course>
<desc>Speed 12.0 km/h Distance 19.36 km</desc>
<time>2011-09-24T11:01:06.93</time>
<name>5056</name>
</trkpt>
<trkpt lat="41.802373" lon="-1.810773">
<ele>1250.0</ele>
<speed>9.7</speed>
<course>115.1</course>
<desc>Speed 9.7 km/h Distance 19.36 km</desc>
<time>2011-09-24T11:01:07.94</time>
<name>5057</name>
</trkpt>
<trkpt lat="41.802362" lon="-1.810740">
<ele>1249.5</ele>
<speed>9.3</speed>
<course>125.2</course>
<desc>Speed 9.3 km/h Distance 19.37 km</desc>
<time>2011-09-24T11:01:08.94</time>
<name>5058</name>
</trkpt>
<trkpt lat="41.802345" lon="-1.810708">
<ele>1249.0</ele>
<speed>9.4</speed>
<course>125.1</course>
<desc>Speed 9.4 km/h Distance 19.37 km</desc>
<time>2011-09-24T11:01:09.94</time>
<name>5059</name>
</trkpt>
<trkpt lat="41.802327" lon="-1.810673">
<ele>1248.5</ele>
<speed>9.6</speed>
<course>119.6</course>
<desc>Speed 9.6 km/h Distance 19.37 km</desc>
<time>2011-09-24T11:01:10.93</time>
<name>5060</name>
</trkpt>
<trkpt lat="41.802308" lon="-1.810630">
<ele>1249.0</ele>
<speed>11.6</speed>
<course>114.8</course>
<desc>Speed 11.6 km/h Distance 19.38 km</desc>
<time>2011-09-24T11:01:11.94</time>
<name>5061</name>
</trkpt>
<trkpt lat="41.802292" lon="-1.810582">
<ele>1250.0</ele>
<speed>12.2</speed>
<course>110.3</course>
<desc>Speed 12.2 km/h Distance 19.38 km</desc>
<time>2011-09-24T11:01:12.93</time>
<name>5062</name>
</trkpt>
<trkpt lat="41.802278" lon="-1.810533">
<ele>1250.0</ele>
<speed>11.0</speed>
<course>123.9</course>
<desc>Speed 11.0 km/h Distance 19.39 km</desc>
<time>2011-09-24T11:01:13.93</time>
<name>5063</name>
</trkpt>
<trkpt lat="41.802262" lon="-1.810500">
<ele>1250.0</ele>
<speed>9.1</speed>
<course>120.6</course>
<desc>Speed 9.1 km/h Distance 19.39 km</desc>
<time>2011-09-24T11:01:14.93</time>
<name>5064</name>
</trkpt>
<trkpt lat="41.802243" lon="-1.810458">
<ele>1251.0</ele>
<speed>12.1</speed>
<course>121.6</course>
<desc>Speed 12.1 km/h Distance 19.39 km</desc>
<time>2011-09-24T11:01:15.93</time>
<name>5065</name>
</trkpt>
<trkpt lat="41.802225" lon="-1.810418">
<ele>1251.5</ele>
<speed>10.9</speed>
<course>108.5</course>
<desc>Speed 10.9 km/h Distance 19.40 km</desc>
<time>2011-09-24T11:01:16.92</time>
<name>5066</name>
</trkpt>
<trkpt lat="41.802195" lon="-1.810298">
<ele>1258.0</ele>
<speed>10.2</speed>
<course>117.3</course>
<desc>Speed 10.2 km/h Distance 19.41 km</desc>
<time>2011-09-24T11:01:18.93</time>
<name>5067</name>
</trkpt>
<trkpt lat="41.802178" lon="-1.810255">
<ele>1259.0</ele>
<speed>10.6</speed>
<course>118.7</course>
<desc>Speed 10.6 km/h Distance 19.41 km</desc>
<time>2011-09-24T11:01:19.93</time>
<name>5068</name>
</trkpt>
<trkpt lat="41.802160" lon="-1.810210">
<ele>1261.0</ele>
<speed>11.1</speed>
<course>119.9</course>
<desc>Speed 11.1 km/h Distance 19.42 km</desc>
<time>2011-09-24T11:01:20.93</time>
<name>5069</name>
</trkpt>
<trkpt lat="41.802120" lon="-1.810117">
<ele>1264.5</ele>
<speed>10.3</speed>
<course>114.1</course>
<desc>Speed 10.3 km/h Distance 19.43 km</desc>
<time>2011-09-24T11:01:22.92</time>
<name>5070</name>
</trkpt>
<trkpt lat="41.802082" lon="-1.810002">
<ele>1272.5</ele>
<speed>11.1</speed>
<course>122.6</course>
<desc>Speed 11.1 km/h Distance 19.44 km</desc>
<time>2011-09-24T11:01:24.92</time>
<name>5071</name>
</trkpt>
<trkpt lat="41.802065" lon="-1.809967">
<ele>1273.0</ele>
<speed>11.8</speed>
<course>121.4</course>
<desc>Speed 11.8 km/h Distance 19.44 km</desc>
<time>2011-09-24T11:01:25.93</time>
<name>5072</name>
</trkpt>
<trkpt lat="41.802048" lon="-1.809930">
<ele>1273.5</ele>
<speed>12.2</speed>
<course>118.7</course>
<desc>Speed 12.2 km/h Distance 19.44 km</desc>
<time>2011-09-24T11:01:26.92</time>
<name>5073</name>
</trkpt>
<trkpt lat="41.802030" lon="-1.809885">
<ele>1276.0</ele>
<speed>12.2</speed>
<course>117.3</course>
<desc>Speed 12.2 km/h Distance 19.45 km</desc>
<time>2011-09-24T11:01:27.92</time>
<name>5074</name>
</trkpt>
<trkpt lat="41.802013" lon="-1.809842">
<ele>1277.5</ele>
<speed>12.5</speed>
<course>128.8</course>
<desc>Speed 12.5 km/h Distance 19.45 km</desc>
<time>2011-09-24T11:01:28.91</time>
<name>5075</name>
</trkpt>
<trkpt lat="41.801993" lon="-1.809808">
<ele>1277.5</ele>
<speed>12.2</speed>
<course>121.0</course>
<desc>Speed 12.2 km/h Distance 19.46 km</desc>
<time>2011-09-24T11:01:29.92</time>
<name>5076</name>
</trkpt>
<trkpt lat="41.801972" lon="-1.809760">
<ele>1279.5</ele>
<speed>12.7</speed>
<course>127.2</course>
<desc>Speed 12.7 km/h Distance 19.46 km</desc>
<time>2011-09-24T11:01:30.91</time>
<name>5077</name>
</trkpt>
<trkpt lat="41.801950" lon="-1.809722">
<ele>1280.0</ele>
<speed>13.0</speed>
<course>131.1</course>
<desc>Speed 13.0 km/h Distance 19.46 km</desc>
<time>2011-09-24T11:01:31.91</time>
<name>5078</name>
</trkpt>
<trkpt lat="41.801928" lon="-1.809688">
<ele>1280.0</ele>
<speed>13.2</speed>
<course>132.4</course>
<desc>Speed 13.2 km/h Distance 19.47 km</desc>
<time>2011-09-24T11:01:32.91</time>
<name>5079</name>
</trkpt>
<trkpt lat="41.801903" lon="-1.809652">
<ele>1280.0</ele>
<speed>14.0</speed>
<course>130.0</course>
<desc>Speed 14.0 km/h Distance 19.47 km</desc>
<time>2011-09-24T11:01:33.91</time>
<name>5080</name>
</trkpt>
<trkpt lat="41.801878" lon="-1.809612">
<ele>1280.5</ele>
<speed>14.4</speed>
<course>133.0</course>
<desc>Speed 14.4 km/h Distance 19.48 km</desc>
<time>2011-09-24T11:01:34.91</time>
<name>5081</name>
</trkpt>
<trkpt lat="41.801852" lon="-1.809573">
<ele>1280.5</ele>
<speed>14.8</speed>
<course>135.6</course>
<desc>Speed 14.8 km/h Distance 19.48 km</desc>
<time>2011-09-24T11:01:35.91</time>
<name>5082</name>
</trkpt>
<trkpt lat="41.801825" lon="-1.809538">
<ele>1280.5</ele>
<speed>14.6</speed>
<course>133.8</course>
<desc>Speed 14.6 km/h Distance 19.49 km</desc>
<time>2011-09-24T11:01:36.91</time>
<name>5083</name>
</trkpt>
<trkpt lat="41.801800" lon="-1.809503">
<ele>1281.0</ele>
<speed>13.9</speed>
<course>135.2</course>
<desc>Speed 13.9 km/h Distance 19.49 km</desc>
<time>2011-09-24T11:01:37.91</time>
<name>5084</name>
</trkpt>
<trkpt lat="41.801775" lon="-1.809470">
<ele>1281.0</ele>
<speed>13.0</speed>
<course>127.5</course>
<desc>Speed 13.0 km/h Distance 19.49 km</desc>
<time>2011-09-24T11:01:38.91</time>
<name>5085</name>
</trkpt>
<trkpt lat="41.801755" lon="-1.809435">
<ele>1281.5</ele>
<speed>12.2</speed>
<course>131.1</course>
<desc>Speed 12.2 km/h Distance 19.50 km</desc>
<time>2011-09-24T11:01:39.91</time>
<name>5086</name>
</trkpt>
<trkpt lat="41.801733" lon="-1.809402">
<ele>1281.5</ele>
<speed>12.5</speed>
<course>133.2</course>
<desc>Speed 12.5 km/h Distance 19.50 km</desc>
<time>2011-09-24T11:01:40.91</time>
<name>5087</name>
</trkpt>
<trkpt lat="41.801710" lon="-1.809368">
<ele>1282.0</ele>
<speed>12.7</speed>
<course>133.2</course>
<desc>Speed 12.7 km/h Distance 19.50 km</desc>
<time>2011-09-24T11:01:41.91</time>
<name>5088</name>
</trkpt>
<trkpt lat="41.801687" lon="-1.809335">
<ele>1282.0</ele>
<speed>12.8</speed>
<course>135.2</course>
<desc>Speed 12.8 km/h Distance 19.51 km</desc>
<time>2011-09-24T11:01:42.91</time>
<name>5089</name>
</trkpt>
<trkpt lat="41.801662" lon="-1.809302">
<ele>1282.0</ele>
<speed>13.0</speed>
<course>136.6</course>
<desc>Speed 13.0 km/h Distance 19.51 km</desc>
<time>2011-09-24T11:01:43.91</time>
<name>5090</name>
</trkpt>
<trkpt lat="41.801637" lon="-1.809270">
<ele>1282.5</ele>
<speed>13.3</speed>
<course>140.1</course>
<desc>Speed 13.3 km/h Distance 19.52 km</desc>
<time>2011-09-24T11:01:44.91</time>
<name>5091</name>
</trkpt>
<trkpt lat="41.801610" lon="-1.809240">
<ele>1283.5</ele>
<speed>13.0</speed>
<course>136.6</course>
<desc>Speed 13.0 km/h Distance 19.52 km</desc>
<time>2011-09-24T11:01:45.91</time>
<name>5092</name>
</trkpt>
<trkpt lat="41.801585" lon="-1.809208">
<ele>1284.0</ele>
<speed>13.1</speed>
<course>141.5</course>
<desc>Speed 13.1 km/h Distance 19.52 km</desc>
<time>2011-09-24T11:01:46.91</time>
<name>5093</name>
</trkpt>
<trkpt lat="41.801560" lon="-1.809182">
<ele>1284.0</ele>
<speed>12.9</speed>
<course>131.0</course>
<desc>Speed 12.9 km/h Distance 19.53 km</desc>
<time>2011-09-24T11:01:47.91</time>
<name>5094</name>
</trkpt>
<trkpt lat="41.801542" lon="-1.809153">
<ele>1283.0</ele>
<speed>10.7</speed>
<course>130.8</course>
<desc>Speed 10.7 km/h Distance 19.53 km</desc>
<time>2011-09-24T11:01:48.91</time>
<name>5095</name>
</trkpt>
<trkpt lat="41.801527" lon="-1.809130">
<ele>1281.5</ele>
<speed>8.9</speed>
<course>137.5</course>
<desc>Speed 8.9 km/h Distance 19.53 km</desc>
<time>2011-09-24T11:01:49.91</time>
<name>5096</name>
</trkpt>
<trkpt lat="41.801505" lon="-1.809103">
<ele>1281.5</ele>
<speed>11.3</speed>
<course>133.5</course>
<desc>Speed 11.3 km/h Distance 19.54 km</desc>
<time>2011-09-24T11:01:50.91</time>
<name>5097</name>
</trkpt>
<trkpt lat="41.801485" lon="-1.809075">
<ele>1281.0</ele>
<speed>11.2</speed>
<course>108.5</course>
<desc>Speed 11.2 km/h Distance 19.54 km</desc>
<time>2011-09-24T11:01:51.90</time>
<name>5098</name>
</trkpt>
<trkpt lat="41.801475" lon="-1.809035">
<ele>1281.0</ele>
<speed>11.4</speed>
<course>135.2</course>
<desc>Speed 11.4 km/h Distance 19.54 km</desc>
<time>2011-09-24T11:01:52.91</time>
<name>5099</name>
</trkpt>
<trkpt lat="41.801455" lon="-1.809008">
<ele>1281.0</ele>
<speed>11.0</speed>
<course>125.2</course>
<desc>Speed 11.0 km/h Distance 19.55 km</desc>
<time>2011-09-24T11:01:53.91</time>
<name>5100</name>
</trkpt>
<trkpt lat="41.801438" lon="-1.808977">
<ele>1280.0</ele>
<speed>10.7</speed>
<course>133.5</course>
<desc>Speed 10.7 km/h Distance 19.55 km</desc>
<time>2011-09-24T11:01:54.90</time>
<name>5101</name>
</trkpt>
<trkpt lat="41.801418" lon="-1.808948">
<ele>1280.0</ele>
<speed>10.9</speed>
<course>128.3</course>
<desc>Speed 10.9 km/h Distance 19.55 km</desc>
<time>2011-09-24T11:01:55.90</time>
<name>5102</name>
</trkpt>
<trkpt lat="41.801402" lon="-1.808920">
<ele>1280.5</ele>
<speed>10.5</speed>
<course>134.1</course>
<desc>Speed 10.5 km/h Distance 19.56 km</desc>
<time>2011-09-24T11:01:56.91</time>
<name>5103</name>
</trkpt>
<trkpt lat="41.801380" lon="-1.808890">
<ele>1280.5</ele>
<speed>10.4</speed>
<course>136.5</course>
<desc>Speed 10.4 km/h Distance 19.56 km</desc>
<time>2011-09-24T11:01:57.90</time>
<name>5104</name>
</trkpt>
<trkpt lat="41.801362" lon="-1.808867">
<ele>1280.5</ele>
<speed>10.6</speed>
<course>135.2</course>
<desc>Speed 10.6 km/h Distance 19.56 km</desc>
<time>2011-09-24T11:01:58.90</time>
<name>5105</name>
</trkpt>
<trkpt lat="41.801342" lon="-1.808840">
<ele>1280.5</ele>
<speed>11.1</speed>
<course>132.7</course>
<desc>Speed 11.1 km/h Distance 19.56 km</desc>
<time>2011-09-24T11:01:59.89</time>
<name>5106</name>
</trkpt>
<trkpt lat="41.801323" lon="-1.808813">
<ele>1279.5</ele>
<speed>10.0</speed>
<course>135.2</course>
<desc>Speed 10.0 km/h Distance 19.57 km</desc>
<time>2011-09-24T11:02:00.89</time>
<name>5107</name>
</trkpt>
<trkpt lat="41.801303" lon="-1.808787">
<ele>1279.0</ele>
<speed>11.5</speed>
<course>141.1</course>
<desc>Speed 11.5 km/h Distance 19.57 km</desc>
<time>2011-09-24T11:02:01.90</time>
<name>5108</name>
</trkpt>
<trkpt lat="41.801283" lon="-1.808765">
<ele>1278.5</ele>
<speed>10.3</speed>
<course>132.7</course>
<desc>Speed 10.3 km/h Distance 19.57 km</desc>
<time>2011-09-24T11:02:02.89</time>
<name>5109</name>
</trkpt>
<trkpt lat="41.801265" lon="-1.808738">
<ele>1278.5</ele>
<speed>10.6</speed>
<course>141.1</course>
<desc>Speed 10.6 km/h Distance 19.58 km</desc>
<time>2011-09-24T11:02:03.89</time>
<name>5110</name>
</trkpt>
<trkpt lat="41.801245" lon="-1.808717">
<ele>1277.0</ele>
<speed>10.3</speed>
<course>139.0</course>
<desc>Speed 10.3 km/h Distance 19.58 km</desc>
<time>2011-09-24T11:02:04.89</time>
<name>5111</name>
</trkpt>
<trkpt lat="41.801225" lon="-1.808693">
<ele>1276.0</ele>
<speed>10.7</speed>
<course>145.3</course>
<desc>Speed 10.7 km/h Distance 19.58 km</desc>
<time>2011-09-24T11:02:05.89</time>
<name>5112</name>
</trkpt>
<trkpt lat="41.801202" lon="-1.808672">
<ele>1276.0</ele>
<speed>11.0</speed>
<course>134.5</course>
<desc>Speed 11.0 km/h Distance 19.59 km</desc>
<time>2011-09-24T11:02:06.89</time>
<name>5113</name>
</trkpt>
<trkpt lat="41.801183" lon="-1.808647">
<ele>1276.0</ele>
<speed>10.7</speed>
<course>133.5</course>
<desc>Speed 10.7 km/h Distance 19.59 km</desc>
<time>2011-09-24T11:02:07.89</time>
<name>5114</name>
</trkpt>
<trkpt lat="41.801163" lon="-1.808618">
<ele>1275.0</ele>
<speed>11.3</speed>
<course>135.2</course>
<desc>Speed 11.3 km/h Distance 19.59 km</desc>
<time>2011-09-24T11:02:08.89</time>
<name>5115</name>
</trkpt>
<trkpt lat="41.801143" lon="-1.808592">
<ele>1274.5</ele>
<speed>11.5</speed>
<course>141.3</course>
<desc>Speed 11.5 km/h Distance 19.59 km</desc>
<time>2011-09-24T11:02:09.89</time>
<name>5116</name>
</trkpt>
<trkpt lat="41.801122" lon="-1.808568">
<ele>1274.0</ele>
<speed>11.1</speed>
<course>143.3</course>
<desc>Speed 11.1 km/h Distance 19.60 km</desc>
<time>2011-09-24T11:02:10.89</time>
<name>5117</name>
</trkpt>
<trkpt lat="41.801100" lon="-1.808547">
<ele>1274.0</ele>
<speed>11.2</speed>
<course>133.8</course>
<desc>Speed 11.2 km/h Distance 19.60 km</desc>
<time>2011-09-24T11:02:11.89</time>
<name>5118</name>
</trkpt>
<trkpt lat="41.801083" lon="-1.808523">
<ele>1274.0</ele>
<speed>9.5</speed>
<course>139.0</course>
<desc>Speed 9.5 km/h Distance 19.60 km</desc>
<time>2011-09-24T11:02:12.89</time>
<name>5119</name>
</trkpt>
<trkpt lat="41.801063" lon="-1.808500">
<ele>1274.0</ele>
<speed>10.2</speed>
<course>141.2</course>
<desc>Speed 10.2 km/h Distance 19.61 km</desc>
<time>2011-09-24T11:02:13.88</time>
<name>5120</name>
</trkpt>
<trkpt lat="41.801042" lon="-1.808477">
<ele>1274.0</ele>
<speed>11.1</speed>
<course>134.1</course>
<desc>Speed 11.1 km/h Distance 19.61 km</desc>
<time>2011-09-24T11:02:14.89</time>
<name>5121</name>
</trkpt>
<trkpt lat="41.801020" lon="-1.808447">
<ele>1274.0</ele>
<speed>11.4</speed>
<course>135.2</course>
<desc>Speed 11.4 km/h Distance 19.61 km</desc>
<time>2011-09-24T11:02:15.90</time>
<name>5122</name>
</trkpt>
<trkpt lat="41.801000" lon="-1.808420">
<ele>1274.0</ele>
<speed>10.7</speed>
<course>130.8</course>
<desc>Speed 10.7 km/h Distance 19.62 km</desc>
<time>2011-09-24T11:02:16.88</time>
<name>5123</name>
</trkpt>
<trkpt lat="41.800985" lon="-1.808397">
<ele>1274.0</ele>
<speed>8.7</speed>
<course>132.7</course>
<desc>Speed 8.7 km/h Distance 19.62 km</desc>
<time>2011-09-24T11:02:17.88</time>
<name>5124</name>
</trkpt>
<trkpt lat="41.800967" lon="-1.808370">
<ele>1273.5</ele>
<speed>10.4</speed>
<course>139.5</course>
<desc>Speed 10.4 km/h Distance 19.62 km</desc>
<time>2011-09-24T11:02:18.89</time>
<name>5125</name>
</trkpt>
<trkpt lat="41.800943" lon="-1.808343">
<ele>1273.5</ele>
<speed>11.7</speed>
<course>141.5</course>
<desc>Speed 11.7 km/h Distance 19.63 km</desc>
<time>2011-09-24T11:02:19.88</time>
<name>5126</name>
</trkpt>
<trkpt lat="41.800918" lon="-1.808317">
<ele>1274.0</ele>
<speed>12.1</speed>
<course>135.7</course>
<desc>Speed 12.1 km/h Distance 19.63 km</desc>
<time>2011-09-24T11:02:20.89</time>
<name>5127</name>
</trkpt>
<trkpt lat="41.800897" lon="-1.808288">
<ele>1273.5</ele>
<speed>11.7</speed>
<course>130.3</course>
<desc>Speed 11.7 km/h Distance 19.63 km</desc>
<time>2011-09-24T11:02:21.88</time>
<name>5128</name>
</trkpt>
<trkpt lat="41.800877" lon="-1.808257">
<ele>1273.5</ele>
<speed>11.6</speed>
<course>136.2</course>
<desc>Speed 11.6 km/h Distance 19.64 km</desc>
<time>2011-09-24T11:02:22.88</time>
<name>5129</name>
</trkpt>
<trkpt lat="41.800853" lon="-1.808227">
<ele>1273.5</ele>
<speed>11.0</speed>
<course>143.3</course>
<desc>Speed 11.0 km/h Distance 19.64 km</desc>
<time>2011-09-24T11:02:23.88</time>
<name>5130</name>
</trkpt>
<trkpt lat="41.800828" lon="-1.808202">
<ele>1273.0</ele>
<speed>10.8</speed>
<course>134.1</course>
<desc>Speed 10.8 km/h Distance 19.64 km</desc>
<time>2011-09-24T11:02:24.88</time>
<name>5131</name>
</trkpt>
<trkpt lat="41.800807" lon="-1.808172">
<ele>1272.5</ele>
<speed>11.4</speed>
<course>134.7</course>
<desc>Speed 11.4 km/h Distance 19.65 km</desc>
<time>2011-09-24T11:02:25.88</time>
<name>5132</name>
</trkpt>
<trkpt lat="41.800783" lon="-1.808140">
<ele>1272.5</ele>
<speed>12.3</speed>
<course>134.1</course>
<desc>Speed 12.3 km/h Distance 19.65 km</desc>
<time>2011-09-24T11:02:26.89</time>
<name>5133</name>
</trkpt>
<trkpt lat="41.800762" lon="-1.808110">
<ele>1272.5</ele>
<speed>12.1</speed>
<course>136.2</course>
<desc>Speed 12.1 km/h Distance 19.65 km</desc>
<time>2011-09-24T11:02:27.88</time>
<name>5134</name>
</trkpt>
<trkpt lat="41.800738" lon="-1.808080">
<ele>1273.0</ele>
<speed>12.2</speed>
<course>133.8</course>
<desc>Speed 12.2 km/h Distance 19.66 km</desc>
<time>2011-09-24T11:02:28.88</time>
<name>5135</name>
</trkpt>
<trkpt lat="41.800713" lon="-1.808045">
<ele>1273.5</ele>
<speed>11.4</speed>
<course>136.2</course>
<desc>Speed 11.4 km/h Distance 19.66 km</desc>
<time>2011-09-24T11:02:29.87</time>
<name>5136</name>
</trkpt>
<trkpt lat="41.800690" lon="-1.808015">
<ele>1273.5</ele>
<speed>12.2</speed>
<course>145.1</course>
<desc>Speed 12.2 km/h Distance 19.66 km</desc>
<time>2011-09-24T11:02:30.88</time>
<name>5137</name>
</trkpt>
<trkpt lat="41.800663" lon="-1.807990">
<ele>1273.5</ele>
<speed>12.3</speed>
<course>145.2</course>
<desc>Speed 12.3 km/h Distance 19.67 km</desc>
<time>2011-09-24T11:02:31.88</time>
<name>5138</name>
</trkpt>
<trkpt lat="41.800638" lon="-1.807967">
<ele>1273.0</ele>
<speed>11.3</speed>
<course>141.4</course>
<desc>Speed 11.3 km/h Distance 19.67 km</desc>
<time>2011-09-24T11:02:32.88</time>
<name>5139</name>
</trkpt>
<trkpt lat="41.800615" lon="-1.807942">
<ele>1272.5</ele>
<speed>11.8</speed>
<course>143.3</course>
<desc>Speed 11.8 km/h Distance 19.67 km</desc>
<time>2011-09-24T11:02:33.87</time>
<name>5140</name>
</trkpt>
<trkpt lat="41.800588" lon="-1.807915">
<ele>1272.5</ele>
<speed>12.7</speed>
<course>141.4</course>
<desc>Speed 12.7 km/h Distance 19.68 km</desc>
<time>2011-09-24T11:02:34.87</time>
<name>5141</name>
</trkpt>
<trkpt lat="41.800565" lon="-1.807890">
<ele>1272.5</ele>
<speed>12.1</speed>
<course>136.2</course>
<desc>Speed 12.1 km/h Distance 19.68 km</desc>
<time>2011-09-24T11:02:35.87</time>
<name>5142</name>
</trkpt>
<trkpt lat="41.800542" lon="-1.807860">
<ele>1272.5</ele>
<speed>12.6</speed>
<course>137.5</course>
<desc>Speed 12.6 km/h Distance 19.69 km</desc>
<time>2011-09-24T11:02:36.88</time>
<name>5143</name>
</trkpt>
<trkpt lat="41.800520" lon="-1.807833">
<ele>1272.5</ele>
<speed>11.1</speed>
<course>134.1</course>
<desc>Speed 11.1 km/h Distance 19.69 km</desc>
<time>2011-09-24T11:02:37.88</time>
<name>5144</name>
</trkpt>
<trkpt lat="41.800498" lon="-1.807803">
<ele>1272.5</ele>
<speed>12.1</speed>
<course>132.5</course>
<desc>Speed 12.1 km/h Distance 19.69 km</desc>
<time>2011-09-24T11:02:38.87</time>
<name>5145</name>
</trkpt>
<trkpt lat="41.800477" lon="-1.807772">
<ele>1272.5</ele>
<speed>11.9</speed>
<course>137.5</course>
<desc>Speed 11.9 km/h Distance 19.70 km</desc>
<time>2011-09-24T11:02:39.88</time>
<name>5146</name>
</trkpt>
<trkpt lat="41.800455" lon="-1.807745">
<ele>1273.0</ele>
<speed>10.5</speed>
<course>125.4</course>
<desc>Speed 10.5 km/h Distance 19.70 km</desc>
<time>2011-09-24T11:02:40.87</time>
<name>5147</name>
</trkpt>
<trkpt lat="41.800440" lon="-1.807717">
<ele>1273.5</ele>
<speed>9.5</speed>
<course>136.5</course>
<desc>Speed 9.5 km/h Distance 19.70 km</desc>
<time>2011-09-24T11:02:41.87</time>
<name>5148</name>
</trkpt>
<trkpt lat="41.800422" lon="-1.807693">
<ele>1273.0</ele>
<speed>10.1</speed>
<course>137.5</course>
<desc>Speed 10.1 km/h Distance 19.70 km</desc>
<time>2011-09-24T11:02:42.86</time>
<name>5149</name>
</trkpt>
<trkpt lat="41.800400" lon="-1.807667">
<ele>1272.5</ele>
<speed>11.4</speed>
<course>139.6</course>
<desc>Speed 11.4 km/h Distance 19.71 km</desc>
<time>2011-09-24T11:02:43.87</time>
<name>5150</name>
</trkpt>
<trkpt lat="41.800377" lon="-1.807640">
<ele>1272.5</ele>
<speed>11.2</speed>
<course>135.1</course>
<desc>Speed 11.2 km/h Distance 19.71 km</desc>
<time>2011-09-24T11:02:44.86</time>
<name>5151</name>
</trkpt>
<trkpt lat="41.800357" lon="-1.807613">
<ele>1272.0</ele>
<speed>11.1</speed>
<course>141.1</course>
<desc>Speed 11.1 km/h Distance 19.71 km</desc>
<time>2011-09-24T11:02:45.87</time>
<name>5152</name>
</trkpt>
<trkpt lat="41.800337" lon="-1.807592">
<ele>1271.0</ele>
<speed>10.0</speed>
<course>133.2</course>
<desc>Speed 10.0 km/h Distance 19.72 km</desc>
<time>2011-09-24T11:02:46.86</time>
<name>5153</name>
</trkpt>
<trkpt lat="41.800313" lon="-1.807558">
<ele>1272.5</ele>
<speed>13.5</speed>
<course>131.1</course>
<desc>Speed 13.5 km/h Distance 19.72 km</desc>
<time>2011-09-24T11:02:47.86</time>
<name>5154</name>
</trkpt>
<trkpt lat="41.800292" lon="-1.807525">
<ele>1273.0</ele>
<speed>12.3</speed>
<course>131.8</course>
<desc>Speed 12.3 km/h Distance 19.72 km</desc>
<time>2011-09-24T11:02:48.86</time>
<name>5155</name>
</trkpt>
<trkpt lat="41.800272" lon="-1.807495">
<ele>1273.0</ele>
<speed>11.0</speed>
<course>133.5</course>
<desc>Speed 11.0 km/h Distance 19.73 km</desc>
<time>2011-09-24T11:02:49.87</time>
<name>5156</name>
</trkpt>
<trkpt lat="41.800252" lon="-1.807467">
<ele>1272.5</ele>
<speed>10.7</speed>
<course>137.5</course>
<desc>Speed 10.7 km/h Distance 19.73 km</desc>
<time>2011-09-24T11:02:50.87</time>
<name>5157</name>
</trkpt>
<trkpt lat="41.800230" lon="-1.807440">
<ele>1272.0</ele>
<speed>10.4</speed>
<course>135.8</course>
<desc>Speed 10.4 km/h Distance 19.73 km</desc>
<time>2011-09-24T11:02:51.86</time>
<name>5158</name>
</trkpt>
<trkpt lat="41.800208" lon="-1.807412">
<ele>1271.5</ele>
<speed>10.8</speed>
<course>131.1</course>
<desc>Speed 10.8 km/h Distance 19.74 km</desc>
<time>2011-09-24T11:02:52.87</time>
<name>5159</name>
</trkpt>
<trkpt lat="41.800187" lon="-1.807378">
<ele>1272.0</ele>
<speed>12.2</speed>
<course>132.5</course>
<desc>Speed 12.2 km/h Distance 19.74 km</desc>
<time>2011-09-24T11:02:53.85</time>
<name>5160</name>
</trkpt>
<trkpt lat="41.800165" lon="-1.807347">
<ele>1272.0</ele>
<speed>11.6</speed>
<course>127.5</course>
<desc>Speed 11.6 km/h Distance 19.75 km</desc>
<time>2011-09-24T11:02:54.86</time>
<name>5161</name>
</trkpt>
<trkpt lat="41.800145" lon="-1.807312">
<ele>1272.0</ele>
<speed>12.1</speed>
<course>119.4</course>
<desc>Speed 12.1 km/h Distance 19.75 km</desc>
<time>2011-09-24T11:02:55.85</time>
<name>5162</name>
</trkpt>
<trkpt lat="41.800123" lon="-1.807260">
<ele>1275.0</ele>
<speed>11.9</speed>
<course>130.0</course>
<desc>Speed 11.9 km/h Distance 19.75 km</desc>
<time>2011-09-24T11:02:56.85</time>
<name>5163</name>
</trkpt>
<trkpt lat="41.800107" lon="-1.807233">
<ele>1274.0</ele>
<speed>9.6</speed>
<course>137.5</course>
<desc>Speed 9.6 km/h Distance 19.76 km</desc>
<time>2011-09-24T11:02:57.85</time>
<name>5164</name>
</trkpt>
<trkpt lat="41.800085" lon="-1.807207">
<ele>1273.0</ele>
<speed>10.4</speed>
<course>127.8</course>
<desc>Speed 10.4 km/h Distance 19.76 km</desc>
<time>2011-09-24T11:02:58.85</time>
<name>5165</name>
</trkpt>
<trkpt lat="41.800067" lon="-1.807175">
<ele>1273.5</ele>
<speed>11.3</speed>
<course>122.6</course>
<desc>Speed 11.3 km/h Distance 19.76 km</desc>
<time>2011-09-24T11:02:59.85</time>
<name>5166</name>
</trkpt>
<trkpt lat="41.800050" lon="-1.807140">
<ele>1273.0</ele>
<speed>11.3</speed>
<course>126.2</course>
<desc>Speed 11.3 km/h Distance 19.77 km</desc>
<time>2011-09-24T11:03:00.85</time>
<name>5167</name>
</trkpt>
<trkpt lat="41.800030" lon="-1.807103">
<ele>1273.0</ele>
<speed>12.3</speed>
<course>129.7</course>
<desc>Speed 12.3 km/h Distance 19.77 km</desc>
<time>2011-09-24T11:03:01.85</time>
<name>5168</name>
</trkpt>
<trkpt lat="41.800008" lon="-1.807068">
<ele>1273.0</ele>
<speed>12.2</speed>
<course>129.7</course>
<desc>Speed 12.2 km/h Distance 19.77 km</desc>
<time>2011-09-24T11:03:02.85</time>
<name>5169</name>
</trkpt>
<trkpt lat="41.799987" lon="-1.807033">
<ele>1273.0</ele>
<speed>12.6</speed>
<course>136.6</course>
<desc>Speed 12.6 km/h Distance 19.78 km</desc>
<time>2011-09-24T11:03:03.85</time>
<name>5170</name>
</trkpt>
<trkpt lat="41.799962" lon="-1.807002">
<ele>1273.0</ele>
<speed>12.8</speed>
<course>146.9</course>
<desc>Speed 12.8 km/h Distance 19.78 km</desc>
<time>2011-09-24T11:03:04.84</time>
<name>5171</name>
</trkpt>
<trkpt lat="41.799935" lon="-1.806978">
<ele>1272.5</ele>
<speed>12.4</speed>
<course>169.4</course>
<desc>Speed 12.4 km/h Distance 19.79 km</desc>
<time>2011-09-24T11:03:05.84</time>
<name>5172</name>
</trkpt>
<trkpt lat="41.799908" lon="-1.806972">
<ele>1272.5</ele>
<speed>11.9</speed>
<course>177.5</course>
<desc>Speed 11.9 km/h Distance 19.79 km</desc>
<time>2011-09-24T11:03:06.84</time>
<name>5173</name>
</trkpt>
<trkpt lat="41.799890" lon="-1.806972">
<ele>1273.5</ele>
<speed>11.1</speed>
<course>229.5</course>
<desc>Speed 11.1 km/h Distance 19.79 km</desc>
<time>2011-09-24T11:03:07.84</time>
<name>5174</name>
</trkpt>
<trkpt lat="41.799878" lon="-1.806990">
<ele>1274.0</ele>
<speed>10.7</speed>
<course>292.8</course>
<desc>Speed 10.7 km/h Distance 19.79 km</desc>
<time>2011-09-24T11:03:08.84</time>
<name>5175</name>
</trkpt>
<trkpt lat="41.799887" lon="-1.807017">
<ele>1273.0</ele>
<speed>10.8</speed>
<course>303.9</course>
<desc>Speed 10.8 km/h Distance 19.80 km</desc>
<time>2011-09-24T11:03:09.84</time>
<name>5176</name>
</trkpt>
<trkpt lat="41.799900" lon="-1.807043">
<ele>1274.5</ele>
<speed>11.7</speed>
<course>312.7</course>
<desc>Speed 11.7 km/h Distance 19.80 km</desc>
<time>2011-09-24T11:03:10.84</time>
<name>5177</name>
</trkpt>
<trkpt lat="41.799918" lon="-1.807070">
<ele>1275.5</ele>
<speed>12.5</speed>
<course>311.9</course>
<desc>Speed 12.5 km/h Distance 19.80 km</desc>
<time>2011-09-24T11:03:11.84</time>
<name>5178</name>
</trkpt>
<trkpt lat="41.799935" lon="-1.807095">
<ele>1277.0</ele>
<speed>11.6</speed>
<course>320.9</course>
<desc>Speed 11.6 km/h Distance 19.80 km</desc>
<time>2011-09-24T11:03:12.84</time>
<name>5179</name>
</trkpt>
<trkpt lat="41.799953" lon="-1.807115">
<ele>1279.0</ele>
<speed>12.4</speed>
<course>325.4</course>
<desc>Speed 12.4 km/h Distance 19.81 km</desc>
<time>2011-09-24T11:03:13.84</time>
<name>5180</name>
</trkpt>
<trkpt lat="41.799975" lon="-1.807135">
<ele>1281.0</ele>
<speed>12.6</speed>
<course>317.5</course>
<desc>Speed 12.6 km/h Distance 19.81 km</desc>
<time>2011-09-24T11:03:14.84</time>
<name>5181</name>
</trkpt>
<trkpt lat="41.799997" lon="-1.807162">
<ele>1281.5</ele>
<speed>12.7</speed>
<course>311.0</course>
<desc>Speed 12.7 km/h Distance 19.81 km</desc>
<time>2011-09-24T11:03:15.83</time>
<name>5182</name>
</trkpt>
<trkpt lat="41.800015" lon="-1.807190">
<ele>1282.5</ele>
<speed>12.5</speed>
<course>319.3</course>
<desc>Speed 12.5 km/h Distance 19.82 km</desc>
<time>2011-09-24T11:03:16.83</time>
<name>5183</name>
</trkpt>
<trkpt lat="41.800037" lon="-1.807215">
<ele>1283.0</ele>
<speed>13.1</speed>
<course>314.1</course>
<desc>Speed 13.1 km/h Distance 19.82 km</desc>
<time>2011-09-24T11:03:17.83</time>
<name>5184</name>
</trkpt>
<trkpt lat="41.800058" lon="-1.807245">
<ele>1283.0</ele>
<speed>13.0</speed>
<course>316.2</course>
<desc>Speed 13.0 km/h Distance 19.82 km</desc>
<time>2011-09-24T11:03:18.83</time>
<name>5185</name>
</trkpt>
<trkpt lat="41.800082" lon="-1.807275">
<ele>1283.5</ele>
<speed>13.2</speed>
<course>314.1</course>
<desc>Speed 13.2 km/h Distance 19.83 km</desc>
<time>2011-09-24T11:03:19.84</time>
<name>5186</name>
</trkpt>
<trkpt lat="41.800103" lon="-1.807305">
<ele>1284.0</ele>
<speed>12.9</speed>
<course>311.8</course>
<desc>Speed 12.9 km/h Distance 19.83 km</desc>
<time>2011-09-24T11:03:20.83</time>
<name>5187</name>
</trkpt>
<trkpt lat="41.800123" lon="-1.807335">
<ele>1284.5</ele>
<speed>12.7</speed>
<course>305.2</course>
<desc>Speed 12.7 km/h Distance 19.83 km</desc>
<time>2011-09-24T11:03:21.83</time>
<name>5188</name>
</trkpt>
<trkpt lat="41.800140" lon="-1.807367">
<ele>1284.5</ele>
<speed>11.9</speed>
<course>301.1</course>
<desc>Speed 11.9 km/h Distance 19.84 km</desc>
<time>2011-09-24T11:03:22.83</time>
<name>5189</name>
</trkpt>
<trkpt lat="41.800155" lon="-1.807400">
<ele>1285.0</ele>
<speed>12.1</speed>
<course>309.3</course>
<desc>Speed 12.1 km/h Distance 19.84 km</desc>
<time>2011-09-24T11:03:23.83</time>
<name>5190</name>
</trkpt>
<trkpt lat="41.800173" lon="-1.807430">
<ele>1285.0</ele>
<speed>11.8</speed>
<course>310.0</course>
<desc>Speed 11.8 km/h Distance 19.84 km</desc>
<time>2011-09-24T11:03:24.83</time>
<name>5191</name>
</trkpt>
<trkpt lat="41.800190" lon="-1.807457">
<ele>1284.5</ele>
<speed>10.7</speed>
<course>295.4</course>
<desc>Speed 10.7 km/h Distance 19.85 km</desc>
<time>2011-09-24T11:03:25.82</time>
<name>5192</name>
</trkpt>
<trkpt lat="41.800200" lon="-1.807485">
<ele>1284.5</ele>
<speed>10.4</speed>
<course>300.8</course>
<desc>Speed 10.4 km/h Distance 19.85 km</desc>
<time>2011-09-24T11:03:26.82</time>
<name>5193</name>
</trkpt>
<trkpt lat="41.800213" lon="-1.807515">
<ele>1284.0</ele>
<speed>11.3</speed>
<course>299.5</course>
<desc>Speed 11.3 km/h Distance 19.85 km</desc>
<time>2011-09-24T11:03:27.83</time>
<name>5194</name>
</trkpt>
<trkpt lat="41.800227" lon="-1.807547">
<ele>1284.0</ele>
<speed>11.5</speed>
<course>302.4</course>
<desc>Speed 11.5 km/h Distance 19.85 km</desc>
<time>2011-09-24T11:03:28.82</time>
<name>5195</name>
</trkpt>
<trkpt lat="41.800242" lon="-1.807578">
<ele>1284.0</ele>
<speed>11.9</speed>
<course>308.8</course>
<desc>Speed 11.9 km/h Distance 19.86 km</desc>
<time>2011-09-24T11:03:29.82</time>
<name>5196</name>
</trkpt>
<trkpt lat="41.800262" lon="-1.807612">
<ele>1284.5</ele>
<speed>12.9</speed>
<course>305.1</course>
<desc>Speed 12.9 km/h Distance 19.86 km</desc>
<time>2011-09-24T11:03:30.82</time>
<name>5197</name>
</trkpt>
<trkpt lat="41.800280" lon="-1.807647">
<ele>1284.0</ele>
<speed>13.0</speed>
<course>302.7</course>
<desc>Speed 13.0 km/h Distance 19.86 km</desc>
<time>2011-09-24T11:03:31.82</time>
<name>5198</name>
</trkpt>
<trkpt lat="41.800298" lon="-1.807685">
<ele>1284.5</ele>
<speed>13.1</speed>
<course>300.3</course>
<desc>Speed 13.1 km/h Distance 19.87 km</desc>
<time>2011-09-24T11:03:32.82</time>
<name>5199</name>
</trkpt>
<trkpt lat="41.800315" lon="-1.807723">
<ele>1284.5</ele>
<speed>13.3</speed>
<course>281.7</course>
<desc>Speed 13.3 km/h Distance 19.87 km</desc>
<time>2011-09-24T11:03:33.82</time>
<name>5200</name>
</trkpt>
<trkpt lat="41.800318" lon="-1.807745">
<ele>1286.0</ele>
<speed>7.4</speed>
<course>307.0</course>
<desc>Speed 7.4 km/h Distance 19.87 km</desc>
<time>2011-09-24T11:03:34.82</time>
<name>5201</name>
</trkpt>
<trkpt lat="41.800333" lon="-1.807772">
<ele>1285.0</ele>
<speed>10.4</speed>
<course>301.4</course>
<desc>Speed 10.4 km/h Distance 19.88 km</desc>
<time>2011-09-24T11:03:35.81</time>
<name>5202</name>
</trkpt>
<trkpt lat="41.800350" lon="-1.807808">
<ele>1285.0</ele>
<speed>12.6</speed>
<course>299.2</course>
<desc>Speed 12.6 km/h Distance 19.88 km</desc>
<time>2011-09-24T11:03:36.82</time>
<name>5203</name>
</trkpt>
<trkpt lat="41.800367" lon="-1.807848">
<ele>1285.5</ele>
<speed>14.0</speed>
<course>303.9</course>
<desc>Speed 14.0 km/h Distance 19.88 km</desc>
<time>2011-09-24T11:03:37.82</time>
<name>5204</name>
</trkpt>
<trkpt lat="41.800387" lon="-1.807888">
<ele>1285.5</ele>
<speed>14.2</speed>
<course>321.4</course>
<desc>Speed 14.2 km/h Distance 19.89 km</desc>
<time>2011-09-24T11:03:38.81</time>
<name>5205</name>
</trkpt>
<trkpt lat="41.800410" lon="-1.807913">
<ele>1285.0</ele>
<speed>10.9</speed>
<course>298.9</course>
<desc>Speed 10.9 km/h Distance 19.89 km</desc>
<time>2011-09-24T11:03:39.81</time>
<name>5206</name>
</trkpt>
<trkpt lat="41.800422" lon="-1.807942">
<ele>1283.5</ele>
<speed>9.3</speed>
<course>301.4</course>
<desc>Speed 9.3 km/h Distance 19.89 km</desc>
<time>2011-09-24T11:03:40.81</time>
<name>5207</name>
</trkpt>
<trkpt lat="41.800438" lon="-1.807978">
<ele>1283.5</ele>
<speed>12.9</speed>
<course>302.6</course>
<desc>Speed 12.9 km/h Distance 19.90 km</desc>
<time>2011-09-24T11:03:41.81</time>
<name>5208</name>
</trkpt>
<trkpt lat="41.800455" lon="-1.808013">
<ele>1283.0</ele>
<speed>12.3</speed>
<course>306.4</course>
<desc>Speed 12.3 km/h Distance 19.90 km</desc>
<time>2011-09-24T11:03:42.81</time>
<name>5209</name>
</trkpt>
<trkpt lat="41.800473" lon="-1.808047">
<ele>1282.5</ele>
<speed>12.5</speed>
<course>302.6</course>
<desc>Speed 12.5 km/h Distance 19.90 km</desc>
<time>2011-09-24T11:03:43.81</time>
<name>5210</name>
</trkpt>
<trkpt lat="41.800490" lon="-1.808082">
<ele>1282.0</ele>
<speed>12.6</speed>
<course>302.6</course>
<desc>Speed 12.6 km/h Distance 19.91 km</desc>
<time>2011-09-24T11:03:44.81</time>
<name>5211</name>
</trkpt>
<trkpt lat="41.800507" lon="-1.808117">
<ele>1282.0</ele>
<speed>13.1</speed>
<course>303.9</course>
<desc>Speed 13.1 km/h Distance 19.91 km</desc>
<time>2011-09-24T11:03:45.81</time>
<name>5212</name>
</trkpt>
<trkpt lat="41.800525" lon="-1.808153">
<ele>1281.5</ele>
<speed>12.5</speed>
<course>303.9</course>
<desc>Speed 12.5 km/h Distance 19.91 km</desc>
<time>2011-09-24T11:03:46.81</time>
<name>5213</name>
</trkpt>
<trkpt lat="41.800542" lon="-1.808187">
<ele>1281.0</ele>
<speed>12.0</speed>
<course>305.2</course>
<desc>Speed 12.0 km/h Distance 19.92 km</desc>
<time>2011-09-24T11:03:47.81</time>
<name>5214</name>
</trkpt>
<trkpt lat="41.800558" lon="-1.808218">
<ele>1280.0</ele>
<speed>11.4</speed>
<course>310.0</course>
<desc>Speed 11.4 km/h Distance 19.92 km</desc>
<time>2011-09-24T11:03:48.80</time>
<name>5215</name>
</trkpt>
<trkpt lat="41.800575" lon="-1.808245">
<ele>1279.5</ele>
<speed>10.4</speed>
<course>301.4</course>
<desc>Speed 10.4 km/h Distance 19.92 km</desc>
<time>2011-09-24T11:03:49.80</time>
<name>5216</name>
</trkpt>
<trkpt lat="41.800592" lon="-1.808282">
<ele>1279.0</ele>
<speed>12.3</speed>
<course>306.4</course>
<desc>Speed 12.3 km/h Distance 19.93 km</desc>
<time>2011-09-24T11:03:50.81</time>
<name>5217</name>
</trkpt>
<trkpt lat="41.800610" lon="-1.808315">
<ele>1279.0</ele>
<speed>12.2</speed>
<course>303.9</course>
<desc>Speed 12.2 km/h Distance 19.93 km</desc>
<time>2011-09-24T11:03:51.80</time>
<name>5218</name>
</trkpt>
<trkpt lat="41.800628" lon="-1.808352">
<ele>1278.5</ele>
<speed>12.6</speed>
<course>298.2</course>
<desc>Speed 12.6 km/h Distance 19.93 km</desc>
<time>2011-09-24T11:03:52.81</time>
<name>5219</name>
</trkpt>
<trkpt lat="41.800642" lon="-1.808385">
<ele>1278.0</ele>
<speed>11.3</speed>
<course>302.7</course>
<desc>Speed 11.3 km/h Distance 19.94 km</desc>
<time>2011-09-24T11:03:53.80</time>
<name>5220</name>
</trkpt>
<trkpt lat="41.800660" lon="-1.808423">
<ele>1278.0</ele>
<speed>13.1</speed>
<course>300.5</course>
<desc>Speed 13.1 km/h Distance 19.94 km</desc>
<time>2011-09-24T11:03:54.80</time>
<name>5221</name>
</trkpt>
<trkpt lat="41.800678" lon="-1.808465">
<ele>1278.0</ele>
<speed>13.8</speed>
<course>302.7</course>
<desc>Speed 13.8 km/h Distance 19.95 km</desc>
<time>2011-09-24T11:03:55.79</time>
<name>5222</name>
</trkpt>
<trkpt lat="41.800697" lon="-1.808503">
<ele>1278.0</ele>
<speed>13.6</speed>
<course>305.0</course>
<desc>Speed 13.6 km/h Distance 19.95 km</desc>
<time>2011-09-24T11:03:56.79</time>
<name>5223</name>
</trkpt>
<trkpt lat="41.800717" lon="-1.808542">
<ele>1277.5</ele>
<speed>13.5</speed>
<course>300.3</course>
<desc>Speed 13.5 km/h Distance 19.95 km</desc>
<time>2011-09-24T11:03:57.79</time>
<name>5224</name>
</trkpt>
<trkpt lat="41.800733" lon="-1.808580">
<ele>1277.0</ele>
<speed>12.7</speed>
<course>306.2</course>
<desc>Speed 12.7 km/h Distance 19.96 km</desc>
<time>2011-09-24T11:03:58.79</time>
<name>5225</name>
</trkpt>
<trkpt lat="41.800753" lon="-1.808617">
<ele>1277.0</ele>
<speed>13.6</speed>
<course>305.1</course>
<desc>Speed 13.6 km/h Distance 19.96 km</desc>
<time>2011-09-24T11:03:59.79</time>
<name>5226</name>
</trkpt>
<trkpt lat="41.800772" lon="-1.808652">
<ele>1277.0</ele>
<speed>12.5</speed>
<course>301.4</course>
<desc>Speed 12.5 km/h Distance 19.96 km</desc>
<time>2011-09-24T11:04:00.79</time>
<name>5227</name>
</trkpt>
<trkpt lat="41.800788" lon="-1.808688">
<ele>1276.0</ele>
<speed>12.3</speed>
<course>305.0</course>
<desc>Speed 12.3 km/h Distance 19.97 km</desc>
<time>2011-09-24T11:04:01.79</time>
<name>5228</name>
</trkpt>
<trkpt lat="41.800808" lon="-1.808727">
<ele>1276.0</ele>
<speed>13.6</speed>
<course>306.2</course>
<desc>Speed 13.6 km/h Distance 19.97 km</desc>
<time>2011-09-24T11:04:02.80</time>
<name>5229</name>
</trkpt>
<trkpt lat="41.800828" lon="-1.808763">
<ele>1276.0</ele>
<speed>13.2</speed>
<course>308.8</course>
<desc>Speed 13.2 km/h Distance 19.98 km</desc>
<time>2011-09-24T11:04:03.79</time>
<name>5230</name>
</trkpt>
<trkpt lat="41.800848" lon="-1.808797">
<ele>1275.5</ele>
<speed>12.5</speed>
<course>301.1</course>
<desc>Speed 12.5 km/h Distance 19.98 km</desc>
<time>2011-09-24T11:04:04.79</time>
<name>5231</name>
</trkpt>
<trkpt lat="41.800863" lon="-1.808830">
<ele>1274.5</ele>
<speed>11.3</speed>
<course>305.1</course>
<desc>Speed 11.3 km/h Distance 19.98 km</desc>
<time>2011-09-24T11:04:05.78</time>
<name>5232</name>
</trkpt>
<trkpt lat="41.800882" lon="-1.808865">
<ele>1274.0</ele>
<speed>12.7</speed>
<course>302.7</course>
<desc>Speed 12.7 km/h Distance 19.99 km</desc>
<time>2011-09-24T11:04:06.78</time>
<name>5233</name>
</trkpt>
<trkpt lat="41.800900" lon="-1.808903">
<ele>1274.0</ele>
<speed>13.2</speed>
<course>306.2</course>
<desc>Speed 13.2 km/h Distance 19.99 km</desc>
<time>2011-09-24T11:04:07.79</time>
<name>5234</name>
</trkpt>
<trkpt lat="41.800920" lon="-1.808940">
<ele>1273.5</ele>
<speed>13.9</speed>
<course>305.0</course>
<desc>Speed 13.9 km/h Distance 19.99 km</desc>
<time>2011-09-24T11:04:08.78</time>
<name>5235</name>
</trkpt>
<trkpt lat="41.800940" lon="-1.808978">
<ele>1273.5</ele>
<speed>13.9</speed>
<course>305.0</course>
<desc>Speed 13.9 km/h Distance 20.00 km</desc>
<time>2011-09-24T11:04:09.78</time>
<name>5236</name>
</trkpt>
<trkpt lat="41.800960" lon="-1.809017">
<ele>1273.5</ele>
<speed>13.5</speed>
<course>296.0</course>
<desc>Speed 13.5 km/h Distance 20.00 km</desc>
<time>2011-09-24T11:04:10.78</time>
<name>5237</name>
</trkpt>
<trkpt lat="41.800973" lon="-1.809053">
<ele>1273.0</ele>
<speed>11.9</speed>
<course>300.2</course>
<desc>Speed 11.9 km/h Distance 20.00 km</desc>
<time>2011-09-24T11:04:11.78</time>
<name>5238</name>
</trkpt>
<trkpt lat="41.800990" lon="-1.809092">
<ele>1272.5</ele>
<speed>12.5</speed>
<course>300.2</course>
<desc>Speed 12.5 km/h Distance 20.01 km</desc>
<time>2011-09-24T11:04:12.78</time>
<name>5239</name>
</trkpt>
<trkpt lat="41.801007" lon="-1.809130">
<ele>1272.5</ele>
<speed>13.2</speed>
<course>299.2</course>
<desc>Speed 13.2 km/h Distance 20.01 km</desc>
<time>2011-09-24T11:04:13.78</time>
<name>5240</name>
</trkpt>
<trkpt lat="41.801023" lon="-1.809170">
<ele>1272.5</ele>
<speed>13.8</speed>
<course>295.8</course>
<desc>Speed 13.8 km/h Distance 20.02 km</desc>
<time>2011-09-24T11:04:14.78</time>
<name>5241</name>
</trkpt>
<trkpt lat="41.801038" lon="-1.809212">
<ele>1272.5</ele>
<speed>13.1</speed>
<course>293.2</course>
<desc>Speed 13.1 km/h Distance 20.02 km</desc>
<time>2011-09-24T11:04:15.77</time>
<name>5242</name>
</trkpt>
<trkpt lat="41.801052" lon="-1.809253">
<ele>1272.5</ele>
<speed>13.4</speed>
<course>298.7</course>
<desc>Speed 13.4 km/h Distance 20.02 km</desc>
<time>2011-09-24T11:04:16.77</time>
<name>5243</name>
</trkpt>
<trkpt lat="41.801070" lon="-1.809298">
<ele>1272.0</ele>
<speed>15.0</speed>
<course>289.2</course>
<desc>Speed 15.0 km/h Distance 20.03 km</desc>
<time>2011-09-24T11:04:17.77</time>
<name>5244</name>
</trkpt>
<trkpt lat="41.801082" lon="-1.809343">
<ele>1274.0</ele>
<speed>14.1</speed>
<course>300.5</course>
<desc>Speed 14.1 km/h Distance 20.03 km</desc>
<time>2011-09-24T11:04:18.77</time>
<name>5245</name>
</trkpt>
<trkpt lat="41.801100" lon="-1.809385">
<ele>1273.5</ele>
<speed>13.8</speed>
<course>285.6</course>
<desc>Speed 13.8 km/h Distance 20.04 km</desc>
<time>2011-09-24T11:04:19.77</time>
<name>5246</name>
</trkpt>
<trkpt lat="41.801108" lon="-1.809425">
<ele>1274.0</ele>
<speed>12.2</speed>
<course>279.9</course>
<desc>Speed 12.2 km/h Distance 20.04 km</desc>
<time>2011-09-24T11:04:20.77</time>
<name>5247</name>
</trkpt>
<trkpt lat="41.801113" lon="-1.809463">
<ele>1273.5</ele>
<speed>11.3</speed>
<course>280.4</course>
<desc>Speed 11.3 km/h Distance 20.04 km</desc>
<time>2011-09-24T11:04:21.77</time>
<name>5248</name>
</trkpt>
<trkpt lat="41.801118" lon="-1.809500">
<ele>1273.5</ele>
<speed>10.7</speed>
<course>287.7</course>
<desc>Speed 10.7 km/h Distance 20.04 km</desc>
<time>2011-09-24T11:04:22.77</time>
<name>5249</name>
</trkpt>
<trkpt lat="41.801127" lon="-1.809535">
<ele>1272.0</ele>
<speed>10.7</speed>
<course>290.1</course>
<desc>Speed 10.7 km/h Distance 20.05 km</desc>
<time>2011-09-24T11:04:23.76</time>
<name>5250</name>
</trkpt>
<trkpt lat="41.801137" lon="-1.809572">
<ele>1271.5</ele>
<speed>11.6</speed>
<course>287.0</course>
<desc>Speed 11.6 km/h Distance 20.05 km</desc>
<time>2011-09-24T11:04:24.77</time>
<name>5251</name>
</trkpt>
<trkpt lat="41.801145" lon="-1.809608">
<ele>1271.0</ele>
<speed>11.0</speed>
<course>286.6</course>
<desc>Speed 11.0 km/h Distance 20.05 km</desc>
<time>2011-09-24T11:04:25.77</time>
<name>5252</name>
</trkpt>
<trkpt lat="41.801152" lon="-1.809638">
<ele>1270.0</ele>
<speed>8.7</speed>
<course>281.9</course>
<desc>Speed 8.7 km/h Distance 20.06 km</desc>
<time>2011-09-24T11:04:26.76</time>
<name>5253</name>
</trkpt>
<trkpt lat="41.801157" lon="-1.809670">
<ele>1269.0</ele>
<speed>9.8</speed>
<course>281.9</course>
<desc>Speed 9.8 km/h Distance 20.06 km</desc>
<time>2011-09-24T11:04:27.77</time>
<name>5254</name>
</trkpt>
<trkpt lat="41.801162" lon="-1.809702">
<ele>1269.0</ele>
<speed>9.3</speed>
<course>280.4</course>
<desc>Speed 9.3 km/h Distance 20.06 km</desc>
<time>2011-09-24T11:04:28.77</time>
<name>5255</name>
</trkpt>
<trkpt lat="41.801167" lon="-1.809738">
<ele>1269.5</ele>
<speed>11.0</speed>
<course>281.7</course>
<desc>Speed 11.0 km/h Distance 20.07 km</desc>
<time>2011-09-24T11:04:29.76</time>
<name>5256</name>
</trkpt>
<trkpt lat="41.801173" lon="-1.809782">
<ele>1269.5</ele>
<speed>12.5</speed>
<course>287.0</course>
<desc>Speed 12.5 km/h Distance 20.07 km</desc>
<time>2011-09-24T11:04:30.76</time>
<name>5257</name>
</trkpt>
<trkpt lat="41.801182" lon="-1.809818">
<ele>1268.5</ele>
<speed>10.9</speed>
<course>305.6</course>
<desc>Speed 10.9 km/h Distance 20.07 km</desc>
<time>2011-09-24T11:04:31.76</time>
<name>5258</name>
</trkpt>
<trkpt lat="41.801195" lon="-1.809843">
<ele>1268.5</ele>
<speed>8.4</speed>
<course>287.5</course>
<desc>Speed 8.4 km/h Distance 20.07 km</desc>
<time>2011-09-24T11:04:32.77</time>
<name>5259</name>
</trkpt>
<trkpt lat="41.801202" lon="-1.809872">
<ele>1268.5</ele>
<speed>8.4</speed>
<course>282.0</course>
<desc>Speed 8.4 km/h Distance 20.08 km</desc>
<time>2011-09-24T11:04:33.76</time>
<name>5260</name>
</trkpt>
<trkpt lat="41.801207" lon="-1.809903">
<ele>1267.5</ele>
<speed>9.5</speed>
<course>282.6</course>
<desc>Speed 9.5 km/h Distance 20.08 km</desc>
<time>2011-09-24T11:04:34.77</time>
<name>5261</name>
</trkpt>
<trkpt lat="41.801213" lon="-1.809943">
<ele>1267.0</ele>
<speed>11.6</speed>
<course>280.8</course>
<desc>Speed 11.6 km/h Distance 20.08 km</desc>
<time>2011-09-24T11:04:35.76</time>
<name>5262</name>
</trkpt>
<trkpt lat="41.801218" lon="-1.809978">
<ele>1266.0</ele>
<speed>10.1</speed>
<course>276.4</course>
<desc>Speed 10.1 km/h Distance 20.09 km</desc>
<time>2011-09-24T11:04:36.75</time>
<name>5263</name>
</trkpt>
<trkpt lat="41.801222" lon="-1.810018">
<ele>1266.0</ele>
<speed>10.9</speed>
<course>305.2</course>
<desc>Speed 10.9 km/h Distance 20.09 km</desc>
<time>2011-09-24T11:04:37.76</time>
<name>5264</name>
</trkpt>
<trkpt lat="41.801238" lon="-1.810050">
<ele>1265.5</ele>
<speed>9.5</speed>
<course>284.5</course>
<desc>Speed 9.5 km/h Distance 20.09 km</desc>
<time>2011-09-24T11:04:38.75</time>
<name>5265</name>
</trkpt>
<trkpt lat="41.801247" lon="-1.810093">
<ele>1266.0</ele>
<speed>12.9</speed>
<course>301.9</course>
<desc>Speed 12.9 km/h Distance 20.10 km</desc>
<time>2011-09-24T11:04:39.75</time>
<name>5266</name>
</trkpt>
<trkpt lat="41.801268" lon="-1.810140">
<ele>1266.5</ele>
<speed>12.8</speed>
<course>303.9</course>
<desc>Speed 12.8 km/h Distance 20.10 km</desc>
<time>2011-09-24T11:04:40.75</time>
<name>5267</name>
</trkpt>
<trkpt lat="41.801293" lon="-1.810190">
<ele>1267.5</ele>
<speed>13.0</speed>
<course>297.4</course>
<desc>Speed 13.0 km/h Distance 20.11 km</desc>
<time>2011-09-24T11:04:41.75</time>
<name>5268</name>
</trkpt>
<trkpt lat="41.801313" lon="-1.810242">
<ele>1268.5</ele>
<speed>12.7</speed>
<course>301.0</course>
<desc>Speed 12.7 km/h Distance 20.11 km</desc>
<time>2011-09-24T11:04:42.76</time>
<name>5269</name>
</trkpt>
<trkpt lat="41.801335" lon="-1.810290">
<ele>1269.0</ele>
<speed>12.5</speed>
<course>284.5</course>
<desc>Speed 12.5 km/h Distance 20.12 km</desc>
<time>2011-09-24T11:04:44.08</time>
<name>5270</name>
</trkpt>
<trkpt lat="41.801352" lon="-1.810377">
<ele>1270.0</ele>
<speed>12.5</speed>
<course>270.0</course>
<desc>Speed 12.5 km/h Distance 20.12 km</desc>
<time>2011-09-24T11:04:45.74</time>
<name>5271</name>
</trkpt>
<trkpt lat="41.801352" lon="-1.810420">
<ele>1270.0</ele>
<speed>11.6</speed>
<course>303.9</course>
<desc>Speed 11.6 km/h Distance 20.13 km</desc>
<time>2011-09-24T11:04:46.75</time>
<name>5272</name>
</trkpt>
<trkpt lat="41.801372" lon="-1.810460">
<ele>1269.5</ele>
<speed>10.3</speed>
<course>276.4</course>
<desc>Speed 10.3 km/h Distance 20.13 km</desc>
<time>2011-09-24T11:04:47.74</time>
<name>5273</name>
</trkpt>
<trkpt lat="41.801375" lon="-1.810500">
<ele>1269.5</ele>
<speed>11.8</speed>
<course>275.9</course>
<desc>Speed 11.8 km/h Distance 20.13 km</desc>
<time>2011-09-24T11:04:48.74</time>
<name>5274</name>
</trkpt>
<trkpt lat="41.801378" lon="-1.810543">
<ele>1270.0</ele>
<speed>12.3</speed>
<course>281.2</course>
<desc>Speed 12.3 km/h Distance 20.14 km</desc>
<time>2011-09-24T11:04:49.74</time>
<name>5275</name>
</trkpt>
<trkpt lat="41.801385" lon="-1.810588">
<ele>1271.0</ele>
<speed>12.2</speed>
<course>274.9</course>
<desc>Speed 12.2 km/h Distance 20.14 km</desc>
<time>2011-09-24T11:04:50.75</time>
<name>5276</name>
</trkpt>
<trkpt lat="41.801388" lon="-1.810640">
<ele>1272.5</ele>
<speed>12.2</speed>
<course>279.0</course>
<desc>Speed 12.2 km/h Distance 20.15 km</desc>
<time>2011-09-24T11:04:51.74</time>
<name>5277</name>
</trkpt>
<trkpt lat="41.801395" lon="-1.810697">
<ele>1274.0</ele>
<speed>12.3</speed>
<course>273.0</course>
<desc>Speed 12.3 km/h Distance 20.15 km</desc>
<time>2011-09-24T11:04:52.76</time>
<name>5278</name>
</trkpt>
<trkpt lat="41.801397" lon="-1.810740">
<ele>1274.5</ele>
<speed>12.0</speed>
<course>272.6</course>
<desc>Speed 12.0 km/h Distance 20.15 km</desc>
<time>2011-09-24T11:04:53.74</time>
<name>5279</name>
</trkpt>
<trkpt lat="41.801398" lon="-1.810788">
<ele>1275.0</ele>
<speed>12.6</speed>
<course>264.3</course>
<desc>Speed 12.6 km/h Distance 20.16 km</desc>
<time>2011-09-24T11:04:54.73</time>
<name>5280</name>
</trkpt>
<trkpt lat="41.801395" lon="-1.810833">
<ele>1275.5</ele>
<speed>12.2</speed>
<course>264.1</course>
<desc>Speed 12.2 km/h Distance 20.16 km</desc>
<time>2011-09-24T11:04:55.74</time>
<name>5281</name>
</trkpt>
<trkpt lat="41.801392" lon="-1.810877">
<ele>1276.0</ele>
<speed>11.6</speed>
<course>267.2</course>
<desc>Speed 11.6 km/h Distance 20.17 km</desc>
<time>2011-09-24T11:04:56.73</time>
<name>5282</name>
</trkpt>
<trkpt lat="41.801390" lon="-1.810922">
<ele>1275.5</ele>
<speed>12.6</speed>
<course>261.8</course>
<desc>Speed 12.6 km/h Distance 20.17 km</desc>
<time>2011-09-24T11:04:57.73</time>
<name>5283</name>
</trkpt>
<trkpt lat="41.801385" lon="-1.810968">
<ele>1276.0</ele>
<speed>12.4</speed>
<course>261.5</course>
<desc>Speed 12.4 km/h Distance 20.17 km</desc>
<time>2011-09-24T11:04:58.73</time>
<name>5284</name>
</trkpt>
<trkpt lat="41.801380" lon="-1.811013">
<ele>1275.5</ele>
<speed>12.6</speed>
<course>264.3</course>
<desc>Speed 12.6 km/h Distance 20.18 km</desc>
<time>2011-09-24T11:04:59.73</time>
<name>5285</name>
</trkpt>
<trkpt lat="41.801377" lon="-1.811058">
<ele>1276.0</ele>
<speed>12.7</speed>
<course>258.3</course>
<desc>Speed 12.7 km/h Distance 20.18 km</desc>
<time>2011-09-24T11:05:00.73</time>
<name>5286</name>
</trkpt>
<trkpt lat="41.801370" lon="-1.811102">
<ele>1276.0</ele>
<speed>12.6</speed>
<course>261.5</course>
<desc>Speed 12.6 km/h Distance 20.18 km</desc>
<time>2011-09-24T11:05:01.73</time>
<name>5287</name>
</trkpt>
<trkpt lat="41.801365" lon="-1.811147">
<ele>1276.5</ele>
<speed>12.5</speed>
<course>267.2</course>
<desc>Speed 12.5 km/h Distance 20.19 km</desc>
<time>2011-09-24T11:05:02.73</time>
<name>5288</name>
</trkpt>
<trkpt lat="41.801363" lon="-1.811192">
<ele>1276.5</ele>
<speed>13.2</speed>
<course>264.3</course>
<desc>Speed 13.2 km/h Distance 20.19 km</desc>
<time>2011-09-24T11:05:03.73</time>
<name>5289</name>
</trkpt>
<trkpt lat="41.801360" lon="-1.811237">
<ele>1276.5</ele>
<speed>13.1</speed>
<course>246.8</course>
<desc>Speed 13.1 km/h Distance 20.20 km</desc>
<time>2011-09-24T11:05:04.73</time>
<name>5290</name>
</trkpt>
<trkpt lat="41.801347" lon="-1.811278">
<ele>1277.5</ele>
<speed>13.3</speed>
<course>246.8</course>
<desc>Speed 13.3 km/h Distance 20.20 km</desc>
<time>2011-09-24T11:05:05.72</time>
<name>5291</name>
</trkpt>
<trkpt lat="41.801333" lon="-1.811320">
<ele>1278.0</ele>
<speed>13.0</speed>
<course>244.2</course>
<desc>Speed 13.0 km/h Distance 20.20 km</desc>
<time>2011-09-24T11:05:07.73</time>
<name>5292</name>
</trkpt>
<trkpt lat="41.801318" lon="-1.811362">
<ele>1278.5</ele>
<speed>13.2</speed>
<course>244.0</course>
<desc>Speed 13.2 km/h Distance 20.21 km</desc>
<time>2011-09-24T11:05:08.72</time>
<name>5293</name>
</trkpt>
<trkpt lat="41.801305" lon="-1.811398">
<ele>1278.5</ele>
<speed>11.8</speed>
<course>240.6</course>
<desc>Speed 11.8 km/h Distance 20.21 km</desc>
<time>2011-09-24T11:05:09.72</time>
<name>5294</name>
</trkpt>
<trkpt lat="41.801292" lon="-1.811430">
<ele>1278.0</ele>
<speed>10.4</speed>
<course>241.8</course>
<desc>Speed 10.4 km/h Distance 20.21 km</desc>
<time>2011-09-24T11:05:10.72</time>
<name>5295</name>
</trkpt>
<trkpt lat="41.801278" lon="-1.811463">
<ele>1278.5</ele>
<speed>10.9</speed>
<course>238.9</course>
<desc>Speed 10.9 km/h Distance 20.22 km</desc>
<time>2011-09-24T11:05:11.72</time>
<name>5296</name>
</trkpt>
<trkpt lat="41.801263" lon="-1.811497">
<ele>1278.5</ele>
<speed>11.2</speed>
<course>234.9</course>
<desc>Speed 11.2 km/h Distance 20.22 km</desc>
<time>2011-09-24T11:05:12.72</time>
<name>5297</name>
</trkpt>
<trkpt lat="41.801245" lon="-1.811532">
<ele>1278.5</ele>
<speed>12.6</speed>
<course>238.6</course>
<desc>Speed 12.6 km/h Distance 20.22 km</desc>
<time>2011-09-24T11:05:13.72</time>
<name>5298</name>
</trkpt>
<trkpt lat="41.801228" lon="-1.811568">
<ele>1278.5</ele>
<speed>12.6</speed>
<course>237.4</course>
<desc>Speed 12.6 km/h Distance 20.23 km</desc>
<time>2011-09-24T11:05:14.73</time>
<name>5299</name>
</trkpt>
<trkpt lat="41.801212" lon="-1.811603">
<ele>1278.5</ele>
<speed>12.4</speed>
<course>239.8</course>
<desc>Speed 12.4 km/h Distance 20.23 km</desc>
<time>2011-09-24T11:05:15.72</time>
<name>5300</name>
</trkpt>
<trkpt lat="41.801195" lon="-1.811642">
<ele>1279.0</ele>
<speed>12.5</speed>
<course>241.8</course>
<desc>Speed 12.5 km/h Distance 20.23 km</desc>
<time>2011-09-24T11:05:16.72</time>
<name>5301</name>
</trkpt>
<trkpt lat="41.801182" lon="-1.811675">
<ele>1278.0</ele>
<speed>10.9</speed>
<course>237.7</course>
<desc>Speed 10.9 km/h Distance 20.24 km</desc>
<time>2011-09-24T11:05:17.72</time>
<name>5302</name>
</trkpt>
<trkpt lat="41.801168" lon="-1.811703">
<ele>1276.5</ele>
<speed>9.2</speed>
<course>234.6</course>
<desc>Speed 9.2 km/h Distance 20.24 km</desc>
<time>2011-09-24T11:05:18.72</time>
<name>5303</name>
</trkpt>
<trkpt lat="41.801153" lon="-1.811732">
<ele>1276.5</ele>
<speed>10.4</speed>
<course>225.5</course>
<desc>Speed 10.4 km/h Distance 20.24 km</desc>
<time>2011-09-24T11:05:19.71</time>
<name>5304</name>
</trkpt>
<trkpt lat="41.801135" lon="-1.811757">
<ele>1276.0</ele>
<speed>9.7</speed>
<course>230.7</course>
<desc>Speed 9.7 km/h Distance 20.25 km</desc>
<time>2011-09-24T11:05:20.71</time>
<name>5305</name>
</trkpt>
<trkpt lat="41.801117" lon="-1.811787">
<ele>1275.5</ele>
<speed>10.5</speed>
<course>234.6</course>
<desc>Speed 10.5 km/h Distance 20.25 km</desc>
<time>2011-09-24T11:05:21.71</time>
<name>5306</name>
</trkpt>
<trkpt lat="41.801102" lon="-1.811815">
<ele>1276.0</ele>
<speed>11.0</speed>
<course>226.6</course>
<desc>Speed 11.0 km/h Distance 20.25 km</desc>
<time>2011-09-24T11:05:22.71</time>
<name>5307</name>
</trkpt>
<trkpt lat="41.801082" lon="-1.811843">
<ele>1276.0</ele>
<speed>11.5</speed>
<course>232.2</course>
<desc>Speed 11.5 km/h Distance 20.26 km</desc>
<time>2011-09-24T11:05:23.71</time>
<name>5308</name>
</trkpt>
<trkpt lat="41.801063" lon="-1.811875">
<ele>1278.0</ele>
<speed>11.5</speed>
<course>224.9</course>
<desc>Speed 11.5 km/h Distance 20.26 km</desc>
<time>2011-09-24T11:05:24.71</time>
<name>5309</name>
</trkpt>
<trkpt lat="41.801038" lon="-1.811908">
<ele>1279.5</ele>
<speed>13.5</speed>
<course>228.9</course>
<desc>Speed 13.5 km/h Distance 20.26 km</desc>
<time>2011-09-24T11:05:25.71</time>
<name>5310</name>
</trkpt>
<trkpt lat="41.801017" lon="-1.811942">
<ele>1280.5</ele>
<speed>12.6</speed>
<course>231.2</course>
<desc>Speed 12.6 km/h Distance 20.27 km</desc>
<time>2011-09-24T11:05:26.71</time>
<name>5311</name>
</trkpt>
<trkpt lat="41.800997" lon="-1.811975">
<ele>1281.5</ele>
<speed>12.5</speed>
<course>239.5</course>
<desc>Speed 12.5 km/h Distance 20.27 km</desc>
<time>2011-09-24T11:05:27.71</time>
<name>5312</name>
</trkpt>
<trkpt lat="41.800978" lon="-1.812017">
<ele>1283.0</ele>
<speed>13.9</speed>
<course>242.2</course>
<desc>Speed 13.9 km/h Distance 20.27 km</desc>
<time>2011-09-24T11:05:28.71</time>
<name>5313</name>
</trkpt>
<trkpt lat="41.800960" lon="-1.812063">
<ele>1284.5</ele>
<speed>14.9</speed>
<course>244.2</course>
<desc>Speed 14.9 km/h Distance 20.28 km</desc>
<time>2011-09-24T11:05:29.71</time>
<name>5314</name>
</trkpt>
<trkpt lat="41.800945" lon="-1.812105">
<ele>1284.0</ele>
<speed>12.6</speed>
<course>258.8</course>
<desc>Speed 12.6 km/h Distance 20.28 km</desc>
<time>2011-09-24T11:05:30.70</time>
<name>5315</name>
</trkpt>
<trkpt lat="41.800938" lon="-1.812150">
<ele>1284.5</ele>
<speed>13.0</speed>
<course>253.7</course>
<desc>Speed 13.0 km/h Distance 20.29 km</desc>
<time>2011-09-24T11:05:31.70</time>
<name>5316</name>
</trkpt>
<trkpt lat="41.800930" lon="-1.812188">
<ele>1284.0</ele>
<speed>11.2</speed>
<course>255.0</course>
<desc>Speed 11.2 km/h Distance 20.29 km</desc>
<time>2011-09-24T11:05:32.70</time>
<name>5317</name>
</trkpt>
<trkpt lat="41.800922" lon="-1.812230">
<ele>1285.5</ele>
<speed>12.2</speed>
<course>253.7</course>
<desc>Speed 12.2 km/h Distance 20.29 km</desc>
<time>2011-09-24T11:05:33.70</time>
<name>5318</name>
</trkpt>
<trkpt lat="41.800913" lon="-1.812268">
<ele>1286.5</ele>
<speed>12.1</speed>
<course>260.5</course>
<desc>Speed 12.1 km/h Distance 20.30 km</desc>
<time>2011-09-24T11:05:34.69</time>
<name>5319</name>
</trkpt>
<trkpt lat="41.800908" lon="-1.812308">
<ele>1287.5</ele>
<speed>11.6</speed>
<course>264.1</course>
<desc>Speed 11.6 km/h Distance 20.30 km</desc>
<time>2011-09-24T11:05:35.69</time>
<name>5320</name>
</trkpt>
<trkpt lat="41.800905" lon="-1.812352">
<ele>1288.0</ele>
<speed>12.5</speed>
<course>264.3</course>
<desc>Speed 12.5 km/h Distance 20.30 km</desc>
<time>2011-09-24T11:05:36.70</time>
<name>5321</name>
</trkpt>
<trkpt lat="41.800902" lon="-1.812397">
<ele>1288.0</ele>
<speed>12.7</speed>
<course>267.3</course>
<desc>Speed 12.7 km/h Distance 20.31 km</desc>
<time>2011-09-24T11:05:37.70</time>
<name>5322</name>
</trkpt>
<trkpt lat="41.800900" lon="-1.812443">
<ele>1287.5</ele>
<speed>13.2</speed>
<course>264.5</course>
<desc>Speed 13.2 km/h Distance 20.31 km</desc>
<time>2011-09-24T11:05:38.69</time>
<name>5323</name>
</trkpt>
<trkpt lat="41.800897" lon="-1.812490">
<ele>1288.0</ele>
<speed>13.0</speed>
<course>267.2</course>
<desc>Speed 13.0 km/h Distance 20.31 km</desc>
<time>2011-09-24T11:05:39.69</time>
<name>5324</name>
</trkpt>
<trkpt lat="41.800895" lon="-1.812535">
<ele>1288.0</ele>
<speed>12.6</speed>
<course>276.8</course>
<desc>Speed 12.6 km/h Distance 20.32 km</desc>
<time>2011-09-24T11:05:40.69</time>
<name>5325</name>
</trkpt>
<trkpt lat="41.800900" lon="-1.812592">
<ele>1290.0</ele>
<speed>12.6</speed>
<course>272.3</course>
<desc>Speed 12.6 km/h Distance 20.32 km</desc>
<time>2011-09-24T11:05:41.69</time>
<name>5326</name>
</trkpt>
<trkpt lat="41.800902" lon="-1.812648">
<ele>1292.5</ele>
<speed>12.2</speed>
<course>273.3</course>
<desc>Speed 12.2 km/h Distance 20.33 km</desc>
<time>2011-09-24T11:05:42.69</time>
<name>5327</name>
</trkpt>
<trkpt lat="41.800903" lon="-1.812687">
<ele>1293.0</ele>
<speed>11.4</speed>
<course>273.0</course>
<desc>Speed 11.4 km/h Distance 20.33 km</desc>
<time>2011-09-24T11:05:43.69</time>
<name>5328</name>
</trkpt>
<trkpt lat="41.800905" lon="-1.812730">
<ele>1293.5</ele>
<speed>12.2</speed>
<course>270.0</course>
<desc>Speed 12.2 km/h Distance 20.33 km</desc>
<time>2011-09-24T11:05:44.69</time>
<name>5329</name>
</trkpt>
<trkpt lat="41.800905" lon="-1.812768">
<ele>1293.5</ele>
<speed>11.3</speed>
<course>279.1</course>
<desc>Speed 11.3 km/h Distance 20.34 km</desc>
<time>2011-09-24T11:05:45.69</time>
<name>5330</name>
</trkpt>
<trkpt lat="41.800910" lon="-1.812810">
<ele>1293.5</ele>
<speed>12.1</speed>
<course>285.0</course>
<desc>Speed 12.1 km/h Distance 20.34 km</desc>
<time>2011-09-24T11:05:46.68</time>
<name>5331</name>
</trkpt>
<trkpt lat="41.800918" lon="-1.812852">
<ele>1293.5</ele>
<speed>12.6</speed>
<course>284.5</course>
<desc>Speed 12.6 km/h Distance 20.34 km</desc>
<time>2011-09-24T11:05:47.68</time>
<name>5332</name>
</trkpt>
<trkpt lat="41.800927" lon="-1.812895">
<ele>1293.5</ele>
<speed>12.8</speed>
<course>284.0</course>
<desc>Speed 12.8 km/h Distance 20.35 km</desc>
<time>2011-09-24T11:05:48.69</time>
<name>5333</name>
</trkpt>
<trkpt lat="41.800935" lon="-1.812940">
<ele>1293.5</ele>
<speed>13.4</speed>
<course>283.0</course>
<desc>Speed 13.4 km/h Distance 20.35 km</desc>
<time>2011-09-24T11:05:49.69</time>
<name>5334</name>
</trkpt>
<trkpt lat="41.800943" lon="-1.812988">
<ele>1293.5</ele>
<speed>13.5</speed>
<course>283.9</course>
<desc>Speed 13.5 km/h Distance 20.36 km</desc>
<time>2011-09-24T11:05:50.68</time>
<name>5335</name>
</trkpt>
<trkpt lat="41.800952" lon="-1.813033">
<ele>1293.5</ele>
<speed>13.2</speed>
<course>283.9</course>
<desc>Speed 13.2 km/h Distance 20.36 km</desc>
<time>2011-09-24T11:05:51.68</time>
<name>5336</name>
</trkpt>
<trkpt lat="41.800960" lon="-1.813078">
<ele>1293.5</ele>
<speed>13.2</speed>
<course>286.0</course>
<desc>Speed 13.2 km/h Distance 20.36 km</desc>
<time>2011-09-24T11:05:52.67</time>
<name>5337</name>
</trkpt>
<trkpt lat="41.800970" lon="-1.813125">
<ele>1293.5</ele>
<speed>12.7</speed>
<course>287.8</course>
<desc>Speed 12.7 km/h Distance 20.37 km</desc>
<time>2011-09-24T11:05:53.68</time>
<name>5338</name>
</trkpt>
<trkpt lat="41.800980" lon="-1.813167">
<ele>1293.0</ele>
<speed>12.2</speed>
<course>288.5</course>
<desc>Speed 12.2 km/h Distance 20.37 km</desc>
<time>2011-09-24T11:05:54.67</time>
<name>5339</name>
</trkpt>
<trkpt lat="41.800988" lon="-1.813200">
<ele>1292.0</ele>
<speed>10.4</speed>
<course>301.4</course>
<desc>Speed 10.4 km/h Distance 20.37 km</desc>
<time>2011-09-24T11:05:55.68</time>
<name>5340</name>
</trkpt>
<trkpt lat="41.801005" lon="-1.813237">
<ele>1292.0</ele>
<speed>11.3</speed>
<course>294.1</course>
<desc>Speed 11.3 km/h Distance 20.38 km</desc>
<time>2011-09-24T11:05:56.68</time>
<name>5341</name>
</trkpt>
<trkpt lat="41.801017" lon="-1.813272">
<ele>1292.0</ele>
<speed>10.5</speed>
<course>299.5</course>
<desc>Speed 10.5 km/h Distance 20.38 km</desc>
<time>2011-09-24T11:05:57.68</time>
<name>5342</name>
</trkpt>
<trkpt lat="41.801030" lon="-1.813303">
<ele>1291.0</ele>
<speed>9.8</speed>
<course>290.1</course>
<desc>Speed 9.8 km/h Distance 20.38 km</desc>
<time>2011-09-24T11:05:58.67</time>
<name>5343</name>
</trkpt>
<trkpt lat="41.801040" lon="-1.813340">
<ele>1290.5</ele>
<speed>11.4</speed>
<course>292.9</course>
<desc>Speed 11.4 km/h Distance 20.39 km</desc>
<time>2011-09-24T11:05:59.67</time>
<name>5344</name>
</trkpt>
<trkpt lat="41.801050" lon="-1.813372">
<ele>1289.5</ele>
<speed>9.5</speed>
<course>305.2</course>
<desc>Speed 9.5 km/h Distance 20.39 km</desc>
<time>2011-09-24T11:06:00.68</time>
<name>5345</name>
</trkpt>
<trkpt lat="41.801067" lon="-1.813403">
<ele>1289.0</ele>
<speed>10.8</speed>
<course>302.6</course>
<desc>Speed 10.8 km/h Distance 20.39 km</desc>
<time>2011-09-24T11:06:01.67</time>
<name>5346</name>
</trkpt>
<trkpt lat="41.801083" lon="-1.813438">
<ele>1288.0</ele>
<speed>10.9</speed>
<course>311.0</course>
<desc>Speed 10.9 km/h Distance 20.40 km</desc>
<time>2011-09-24T11:06:02.66</time>
<name>5347</name>
</trkpt>
<trkpt lat="41.801102" lon="-1.813467">
<ele>1287.5</ele>
<speed>9.9</speed>
<course>312.5</course>
<desc>Speed 9.9 km/h Distance 20.40 km</desc>
<time>2011-09-24T11:06:03.67</time>
<name>5348</name>
</trkpt>
<trkpt lat="41.801123" lon="-1.813498">
<ele>1287.5</ele>
<speed>11.2</speed>
<course>299.9</course>
<desc>Speed 11.2 km/h Distance 20.40 km</desc>
<time>2011-09-24T11:06:04.66</time>
<name>5349</name>
</trkpt>
<trkpt lat="41.801138" lon="-1.813533">
<ele>1287.0</ele>
<speed>11.6</speed>
<course>315.6</course>
<desc>Speed 11.6 km/h Distance 20.41 km</desc>
<time>2011-09-24T11:06:05.66</time>
<name>5350</name>
</trkpt>
<trkpt lat="41.801165" lon="-1.813568">
<ele>1286.5</ele>
<speed>12.2</speed>
<course>313.8</course>
<desc>Speed 12.2 km/h Distance 20.41 km</desc>
<time>2011-09-24T11:06:06.66</time>
<name>5351</name>
</trkpt>
<trkpt lat="41.801190" lon="-1.813603">
<ele>1286.5</ele>
<speed>11.7</speed>
<course>297.3</course>
<desc>Speed 11.7 km/h Distance 20.42 km</desc>
<time>2011-09-24T11:06:07.66</time>
<name>5352</name>
</trkpt>
<trkpt lat="41.801207" lon="-1.813647">
<ele>1286.0</ele>
<speed>13.1</speed>
<course>297.3</course>
<desc>Speed 13.1 km/h Distance 20.42 km</desc>
<time>2011-09-24T11:06:08.66</time>
<name>5353</name>
</trkpt>
<trkpt lat="41.801223" lon="-1.813690">
<ele>1286.0</ele>
<speed>13.3</speed>
<course>306.2</course>
<desc>Speed 13.3 km/h Distance 20.42 km</desc>
<time>2011-09-24T11:06:09.67</time>
<name>5354</name>
</trkpt>
<trkpt lat="41.801243" lon="-1.813727">
<ele>1286.0</ele>
<speed>12.4</speed>
<course>309.2</course>
<desc>Speed 12.4 km/h Distance 20.43 km</desc>
<time>2011-09-24T11:06:10.66</time>
<name>5355</name>
</trkpt>
<trkpt lat="41.801267" lon="-1.813765">
<ele>1286.0</ele>
<speed>13.0</speed>
<course>302.8</course>
<desc>Speed 13.0 km/h Distance 20.43 km</desc>
<time>2011-09-24T11:06:11.66</time>
<name>5356</name>
</trkpt>
<trkpt lat="41.801287" lon="-1.813807">
<ele>1286.0</ele>
<speed>12.4</speed>
<course>308.3</course>
<desc>Speed 12.4 km/h Distance 20.44 km</desc>
<time>2011-09-24T11:06:12.66</time>
<name>5357</name>
</trkpt>
<trkpt lat="41.801303" lon="-1.813835">
<ele>1284.5</ele>
<speed>10.4</speed>
<course>319.3</course>
<desc>Speed 10.4 km/h Distance 20.44 km</desc>
<time>2011-09-24T11:06:13.66</time>
<name>5358</name>
</trkpt>
<trkpt lat="41.801325" lon="-1.813860">
<ele>1284.0</ele>
<speed>10.3</speed>
<course>311.8</course>
<desc>Speed 10.3 km/h Distance 20.44 km</desc>
<time>2011-09-24T11:06:14.66</time>
<name>5359</name>
</trkpt>
<trkpt lat="41.801348" lon="-1.813895">
<ele>1284.0</ele>
<speed>12.1</speed>
<course>308.8</course>
<desc>Speed 12.1 km/h Distance 20.45 km</desc>
<time>2011-09-24T11:06:15.66</time>
<name>5360</name>
</trkpt>
<trkpt lat="41.801368" lon="-1.813928">
<ele>1284.0</ele>
<speed>11.6</speed>
<course>295.8</course>
<desc>Speed 11.6 km/h Distance 20.45 km</desc>
<time>2011-09-24T11:06:16.66</time>
<name>5361</name>
</trkpt>
<trkpt lat="41.801383" lon="-1.813970">
<ele>1284.0</ele>
<speed>12.1</speed>
<course>293.2</course>
<desc>Speed 12.1 km/h Distance 20.45 km</desc>
<time>2011-09-24T11:06:17.66</time>
<name>5362</name>
</trkpt>
<trkpt lat="41.801397" lon="-1.814012">
<ele>1284.0</ele>
<speed>12.0</speed>
<course>306.2</course>
<desc>Speed 12.0 km/h Distance 20.46 km</desc>
<time>2011-09-24T11:06:18.65</time>
<name>5363</name>
</trkpt>
<trkpt lat="41.801417" lon="-1.814048">
<ele>1284.5</ele>
<speed>12.3</speed>
<course>299.6</course>
<desc>Speed 12.3 km/h Distance 20.46 km</desc>
<time>2011-09-24T11:06:19.66</time>
<name>5364</name>
</trkpt>
<trkpt lat="41.801435" lon="-1.814092">
<ele>1284.5</ele>
<speed>12.7</speed>
<course>309.7</course>
<desc>Speed 12.7 km/h Distance 20.46 km</desc>
<time>2011-09-24T11:06:20.65</time>
<name>5365</name>
</trkpt>
<trkpt lat="41.801457" lon="-1.814127">
<ele>1285.0</ele>
<speed>11.9</speed>
<course>307.5</course>
<desc>Speed 11.9 km/h Distance 20.47 km</desc>
<time>2011-09-24T11:06:21.65</time>
<name>5366</name>
</trkpt>
<trkpt lat="41.801477" lon="-1.814162">
<ele>1285.0</ele>
<speed>11.4</speed>
<course>298.8</course>
<desc>Speed 11.4 km/h Distance 20.47 km</desc>
<time>2011-09-24T11:06:22.65</time>
<name>5367</name>
</trkpt>
<trkpt lat="41.801492" lon="-1.814198">
<ele>1285.0</ele>
<speed>11.4</speed>
<course>311.1</course>
<desc>Speed 11.4 km/h Distance 20.48 km</desc>
<time>2011-09-24T11:06:23.65</time>
<name>5368</name>
</trkpt>
<trkpt lat="41.801513" lon="-1.814232">
<ele>1285.5</ele>
<speed>12.0</speed>
<course>308.4</course>
<desc>Speed 12.0 km/h Distance 20.48 km</desc>
<time>2011-09-24T11:06:24.65</time>
<name>5369</name>
</trkpt>
<trkpt lat="41.801535" lon="-1.814268">
<ele>1285.5</ele>
<speed>12.1</speed>
<course>306.4</course>
<desc>Speed 12.1 km/h Distance 20.48 km</desc>
<time>2011-09-24T11:06:25.65</time>
<name>5370</name>
</trkpt>
<trkpt lat="41.801553" lon="-1.814302">
<ele>1285.5</ele>
<speed>12.2</speed>
<course>310.3</course>
<desc>Speed 12.2 km/h Distance 20.49 km</desc>
<time>2011-09-24T11:06:26.65</time>
<name>5371</name>
</trkpt>
<trkpt lat="41.801573" lon="-1.814333">
<ele>1287.0</ele>
<speed>10.6</speed>
<course>306.4</course>
<desc>Speed 10.6 km/h Distance 20.49 km</desc>
<time>2011-09-24T11:06:27.65</time>
<name>5372</name>
</trkpt>
<trkpt lat="41.801592" lon="-1.814367">
<ele>1287.5</ele>
<speed>11.8</speed>
<course>311.8</course>
<desc>Speed 11.8 km/h Distance 20.49 km</desc>
<time>2011-09-24T11:06:28.64</time>
<name>5373</name>
</trkpt>
<trkpt lat="41.801615" lon="-1.814402">
<ele>1288.0</ele>
<speed>12.7</speed>
<course>303.9</course>
<desc>Speed 12.7 km/h Distance 20.50 km</desc>
<time>2011-09-24T11:06:29.64</time>
<name>5374</name>
</trkpt>
<trkpt lat="41.801642" lon="-1.814455">
<ele>1291.5</ele>
<speed>12.8</speed>
<course>308.3</course>
<desc>Speed 12.8 km/h Distance 20.50 km</desc>
<time>2011-09-24T11:06:30.64</time>
<name>5375</name>
</trkpt>
<trkpt lat="41.801658" lon="-1.814483">
<ele>1292.5</ele>
<speed>10.4</speed>
<course>314.1</course>
<desc>Speed 10.4 km/h Distance 20.51 km</desc>
<time>2011-09-24T11:06:31.64</time>
<name>5376</name>
</trkpt>
<trkpt lat="41.801680" lon="-1.814513">
<ele>1292.5</ele>
<speed>11.4</speed>
<course>315.7</course>
<desc>Speed 11.4 km/h Distance 20.51 km</desc>
<time>2011-09-24T11:06:32.64</time>
<name>5377</name>
</trkpt>
<trkpt lat="41.801702" lon="-1.814542">
<ele>1293.0</ele>
<speed>11.7</speed>
<course>325.1</course>
<desc>Speed 11.7 km/h Distance 20.51 km</desc>
<time>2011-09-24T11:06:33.64</time>
<name>5378</name>
</trkpt>
<trkpt lat="41.801728" lon="-1.814567">
<ele>1293.5</ele>
<speed>12.2</speed>
<course>314.1</course>
<desc>Speed 12.2 km/h Distance 20.52 km</desc>
<time>2011-09-24T11:06:34.64</time>
<name>5379</name>
</trkpt>
<trkpt lat="41.801750" lon="-1.814597">
<ele>1293.5</ele>
<speed>11.8</speed>
<course>317.8</course>
<desc>Speed 11.8 km/h Distance 20.52 km</desc>
<time>2011-09-24T11:06:35.64</time>
<name>5380</name>
</trkpt>
<trkpt lat="41.801773" lon="-1.814625">
<ele>1293.5</ele>
<speed>12.0</speed>
<course>315.2</course>
<desc>Speed 12.0 km/h Distance 20.52 km</desc>
<time>2011-09-24T11:06:36.64</time>
<name>5381</name>
</trkpt>
<trkpt lat="41.801793" lon="-1.814652">
<ele>1293.0</ele>
<speed>10.7</speed>
<course>313.4</course>
<desc>Speed 10.7 km/h Distance 20.53 km</desc>
<time>2011-09-24T11:06:37.64</time>
<name>5382</name>
</trkpt>
<trkpt lat="41.801813" lon="-1.814680">
<ele>1292.5</ele>
<speed>10.5</speed>
<course>323.3</course>
<desc>Speed 10.5 km/h Distance 20.53 km</desc>
<time>2011-09-24T11:06:38.64</time>
<name>5383</name>
</trkpt>
<trkpt lat="41.801835" lon="-1.814702">
<ele>1291.5</ele>
<speed>9.6</speed>
<course>311.0</course>
<desc>Speed 9.6 km/h Distance 20.53 km</desc>
<time>2011-09-24T11:06:39.64</time>
<name>5384</name>
</trkpt>
<trkpt lat="41.801853" lon="-1.814730">
<ele>1290.5</ele>
<speed>10.3</speed>
<course>317.0</course>
<desc>Speed 10.3 km/h Distance 20.54 km</desc>
<time>2011-09-24T11:06:40.64</time>
<name>5385</name>
</trkpt>
<trkpt lat="41.801880" lon="-1.814763">
<ele>1290.5</ele>
<speed>11.2</speed>
<course>318.5</course>
<desc>Speed 11.2 km/h Distance 20.54 km</desc>
<time>2011-09-24T11:06:41.63</time>
<name>5386</name>
</trkpt>
<trkpt lat="41.801907" lon="-1.814795">
<ele>1290.5</ele>
<speed>11.7</speed>
<course>317.0</course>
<desc>Speed 11.7 km/h Distance 20.54 km</desc>
<time>2011-09-24T11:06:42.63</time>
<name>5387</name>
</trkpt>
<trkpt lat="41.801933" lon="-1.814828">
<ele>1290.5</ele>
<speed>12.2</speed>
<course>312.4</course>
<desc>Speed 12.2 km/h Distance 20.55 km</desc>
<time>2011-09-24T11:06:43.63</time>
<name>5388</name>
</trkpt>
<trkpt lat="41.801958" lon="-1.814865">
<ele>1290.0</ele>
<speed>12.7</speed>
<course>306.7</course>
<desc>Speed 12.7 km/h Distance 20.55 km</desc>
<time>2011-09-24T11:06:44.63</time>
<name>5389</name>
</trkpt>
<trkpt lat="41.801975" lon="-1.814895">
<ele>1289.5</ele>
<speed>10.1</speed>
<course>321.3</course>
<desc>Speed 10.1 km/h Distance 20.55 km</desc>
<time>2011-09-24T11:06:45.64</time>
<name>5390</name>
</trkpt>
<trkpt lat="41.801997" lon="-1.814918">
<ele>1289.5</ele>
<speed>9.7</speed>
<course>321.5</course>
<desc>Speed 9.7 km/h Distance 20.56 km</desc>
<time>2011-09-24T11:06:46.64</time>
<name>5391</name>
</trkpt>
<trkpt lat="41.802022" lon="-1.814945">
<ele>1289.0</ele>
<speed>11.2</speed>
<course>318.2</course>
<desc>Speed 11.2 km/h Distance 20.56 km</desc>
<time>2011-09-24T11:06:47.63</time>
<name>5392</name>
</trkpt>
<trkpt lat="41.802047" lon="-1.814975">
<ele>1289.5</ele>
<speed>11.5</speed>
<course>319.8</course>
<desc>Speed 11.5 km/h Distance 20.57 km</desc>
<time>2011-09-24T11:06:48.63</time>
<name>5393</name>
</trkpt>
<trkpt lat="41.802072" lon="-1.815003">
<ele>1290.0</ele>
<speed>11.1</speed>
<course>319.8</course>
<desc>Speed 11.1 km/h Distance 20.57 km</desc>
<time>2011-09-24T11:06:49.63</time>
<name>5394</name>
</trkpt>
<trkpt lat="41.802097" lon="-1.815032">
<ele>1290.0</ele>
<speed>10.8</speed>
<course>312.7</course>
<desc>Speed 10.8 km/h Distance 20.57 km</desc>
<time>2011-09-24T11:06:50.63</time>
<name>5395</name>
</trkpt>
<trkpt lat="41.802115" lon="-1.815058">
<ele>1289.5</ele>
<speed>10.3</speed>
<course>323.3</course>
<desc>Speed 10.3 km/h Distance 20.58 km</desc>
<time>2011-09-24T11:06:51.62</time>
<name>5396</name>
</trkpt>
<trkpt lat="41.802143" lon="-1.815087">
<ele>1289.5</ele>
<speed>11.8</speed>
<course>321.6</course>
<desc>Speed 11.8 km/h Distance 20.58 km</desc>
<time>2011-09-24T11:06:52.62</time>
<name>5397</name>
</trkpt>
<trkpt lat="41.802170" lon="-1.815115">
<ele>1290.0</ele>
<speed>12.1</speed>
<course>318.2</course>
<desc>Speed 12.1 km/h Distance 20.58 km</desc>
<time>2011-09-24T11:06:53.63</time>
<name>5398</name>
</trkpt>
<trkpt lat="41.802195" lon="-1.815145">
<ele>1290.5</ele>
<speed>12.3</speed>
<course>306.7</course>
<desc>Speed 12.3 km/h Distance 20.59 km</desc>
<time>2011-09-24T11:06:54.62</time>
<name>5399</name>
</trkpt>
<trkpt lat="41.802212" lon="-1.815175">
<ele>1290.5</ele>
<speed>10.2</speed>
<course>283.9</course>
<desc>Speed 10.2 km/h Distance 20.59 km</desc>
<time>2011-09-24T11:06:55.62</time>
<name>5400</name>
</trkpt>
<trkpt lat="41.802220" lon="-1.815220">
<ele>1294.0</ele>
<speed>8.8</speed>
<course>317.8</course>
<desc>Speed 8.8 km/h Distance 20.59 km</desc>
<time>2011-09-24T11:06:56.63</time>
<name>5401</name>
</trkpt>
<trkpt lat="41.802243" lon="-1.815248">
<ele>1294.5</ele>
<speed>12.4</speed>
<course>316.2</course>
<desc>Speed 12.4 km/h Distance 20.60 km</desc>
<time>2011-09-24T11:06:57.62</time>
<name>5402</name>
</trkpt>
<trkpt lat="41.802267" lon="-1.815278">
<ele>1294.5</ele>
<speed>12.0</speed>
<course>312.6</course>
<desc>Speed 12.0 km/h Distance 20.60 km</desc>
<time>2011-09-24T11:06:58.62</time>
<name>5403</name>
</trkpt>
<trkpt lat="41.802288" lon="-1.815310">
<ele>1295.0</ele>
<speed>12.2</speed>
<course>313.8</course>
<desc>Speed 12.2 km/h Distance 20.60 km</desc>
<time>2011-09-24T11:06:59.62</time>
<name>5404</name>
</trkpt>
<trkpt lat="41.802313" lon="-1.815345">
<ele>1296.0</ele>
<speed>12.3</speed>
<course>316.2</course>
<desc>Speed 12.3 km/h Distance 20.61 km</desc>
<time>2011-09-24T11:07:00.62</time>
<name>5405</name>
</trkpt>
<trkpt lat="41.802337" lon="-1.815375">
<ele>1296.0</ele>
<speed>12.2</speed>
<course>315.2</course>
<desc>Speed 12.2 km/h Distance 20.61 km</desc>
<time>2011-09-24T11:07:01.62</time>
<name>5406</name>
</trkpt>
<trkpt lat="41.802357" lon="-1.815402">
<ele>1296.0</ele>
<speed>10.8</speed>
<course>326.9</course>
<desc>Speed 10.8 km/h Distance 20.62 km</desc>
<time>2011-09-24T11:07:02.61</time>
<name>5407</name>
</trkpt>
<trkpt lat="41.802383" lon="-1.815425">
<ele>1296.5</ele>
<speed>9.7</speed>
<course>329.9</course>
<desc>Speed 9.7 km/h Distance 20.62 km</desc>
<time>2011-09-24T11:07:03.62</time>
<name>5408</name>
</trkpt>
<trkpt lat="41.802413" lon="-1.815448">
<ele>1296.0</ele>
<speed>9.9</speed>
<course>326.9</course>
<desc>Speed 9.9 km/h Distance 20.62 km</desc>
<time>2011-09-24T11:07:04.61</time>
<name>5409</name>
</trkpt>
<trkpt lat="41.802440" lon="-1.815472">
<ele>1296.0</ele>
<speed>9.7</speed>
<course>315.1</course>
<desc>Speed 9.7 km/h Distance 20.63 km</desc>
<time>2011-09-24T11:07:05.61</time>
<name>5410</name>
</trkpt>
<trkpt lat="41.802460" lon="-1.815498">
<ele>1296.0</ele>
<speed>11.0</speed>
<course>313.4</course>
<desc>Speed 11.0 km/h Distance 20.63 km</desc>
<time>2011-09-24T11:07:06.61</time>
<name>5411</name>
</trkpt>
<trkpt lat="41.802480" lon="-1.815527">
<ele>1296.0</ele>
<speed>10.9</speed>
<course>313.5</course>
<desc>Speed 10.9 km/h Distance 20.63 km</desc>
<time>2011-09-24T11:07:07.61</time>
<name>5412</name>
</trkpt>
<trkpt lat="41.802500" lon="-1.815555">
<ele>1296.5</ele>
<speed>11.0</speed>
<course>317.5</course>
<desc>Speed 11.0 km/h Distance 20.64 km</desc>
<time>2011-09-24T11:07:08.62</time>
<name>5413</name>
</trkpt>
<trkpt lat="41.802522" lon="-1.815582">
<ele>1297.0</ele>
<speed>11.7</speed>
<course>312.7</course>
<desc>Speed 11.7 km/h Distance 20.64 km</desc>
<time>2011-09-24T11:07:09.61</time>
<name>5414</name>
</trkpt>
<trkpt lat="41.802540" lon="-1.815608">
<ele>1297.5</ele>
<speed>10.8</speed>
<course>321.2</course>
<desc>Speed 10.8 km/h Distance 20.64 km</desc>
<time>2011-09-24T11:07:10.61</time>
<name>5415</name>
</trkpt>
<trkpt lat="41.802562" lon="-1.815632">
<ele>1298.0</ele>
<speed>10.7</speed>
<course>319.8</course>
<desc>Speed 10.7 km/h Distance 20.65 km</desc>
<time>2011-09-24T11:07:11.60</time>
<name>5416</name>
</trkpt>
<trkpt lat="41.802587" lon="-1.815660">
<ele>1297.5</ele>
<speed>13.1</speed>
<course>326.2</course>
<desc>Speed 13.1 km/h Distance 20.65 km</desc>
<time>2011-09-24T11:07:12.60</time>
<name>5417</name>
</trkpt>
<trkpt lat="41.802620" lon="-1.815690">
<ele>1297.0</ele>
<speed>13.1</speed>
<course>317.1</course>
<desc>Speed 13.1 km/h Distance 20.65 km</desc>
<time>2011-09-24T11:07:13.60</time>
<name>5418</name>
</trkpt>
<trkpt lat="41.802640" lon="-1.815715">
<ele>1297.0</ele>
<speed>10.6</speed>
<course>312.9</course>
<desc>Speed 10.6 km/h Distance 20.66 km</desc>
<time>2011-09-24T11:07:14.60</time>
<name>5419</name>
</trkpt>
<trkpt lat="41.802655" lon="-1.815737">
<ele>1295.5</ele>
<speed>8.1</speed>
<course>297.3</course>
<desc>Speed 8.1 km/h Distance 20.66 km</desc>
<time>2011-09-24T11:07:15.60</time>
<name>5420</name>
</trkpt>
<trkpt lat="41.802663" lon="-1.815758">
<ele>1296.0</ele>
<speed>7.4</speed>
<course>315.2</course>
<desc>Speed 7.4 km/h Distance 20.66 km</desc>
<time>2011-09-24T11:07:16.61</time>
<name>5421</name>
</trkpt>
<trkpt lat="41.802683" lon="-1.815785">
<ele>1297.0</ele>
<speed>9.1</speed>
<course>325.0</course>
<desc>Speed 9.1 km/h Distance 20.66 km</desc>
<time>2011-09-24T11:07:17.61</time>
<name>5422</name>
</trkpt>
<trkpt lat="41.802712" lon="-1.815812">
<ele>1298.0</ele>
<speed>10.7</speed>
<course>329.6</course>
<desc>Speed 10.7 km/h Distance 20.67 km</desc>
<time>2011-09-24T11:07:18.60</time>
<name>5423</name>
</trkpt>
<trkpt lat="41.802743" lon="-1.815837">
<ele>1299.0</ele>
<speed>10.1</speed>
<course>316.6</course>
<desc>Speed 10.1 km/h Distance 20.67 km</desc>
<time>2011-09-24T11:07:19.60</time>
<name>5424</name>
</trkpt>
<trkpt lat="41.802768" lon="-1.815868">
<ele>1299.5</ele>
<speed>12.3</speed>
<course>320.0</course>
<desc>Speed 12.3 km/h Distance 20.68 km</desc>
<time>2011-09-24T11:07:20.60</time>
<name>5425</name>
</trkpt>
<trkpt lat="41.802795" lon="-1.815898">
<ele>1299.5</ele>
<speed>11.7</speed>
<course>319.6</course>
<desc>Speed 11.7 km/h Distance 20.68 km</desc>
<time>2011-09-24T11:07:21.60</time>
<name>5426</name>
</trkpt>
<trkpt lat="41.802818" lon="-1.815925">
<ele>1300.5</ele>
<speed>11.1</speed>
<course>326.5</course>
<desc>Speed 11.1 km/h Distance 20.68 km</desc>
<time>2011-09-24T11:07:22.60</time>
<name>5427</name>
</trkpt>
<trkpt lat="41.802848" lon="-1.815952">
<ele>1302.0</ele>
<speed>12.0</speed>
<course>324.7</course>
<desc>Speed 12.0 km/h Distance 20.69 km</desc>
<time>2011-09-24T11:07:23.59</time>
<name>5428</name>
</trkpt>
<trkpt lat="41.802880" lon="-1.815982">
<ele>1301.5</ele>
<speed>11.7</speed>
<course>311.2</course>
<desc>Speed 11.7 km/h Distance 20.69 km</desc>
<time>2011-09-24T11:07:24.59</time>
<name>5429</name>
</trkpt>
<trkpt lat="41.802905" lon="-1.816020">
<ele>1304.0</ele>
<speed>12.4</speed>
<course>319.8</course>
<desc>Speed 12.4 km/h Distance 20.70 km</desc>
<time>2011-09-24T11:07:25.59</time>
<name>5430</name>
</trkpt>
<trkpt lat="41.802930" lon="-1.816048">
<ele>1304.0</ele>
<speed>12.3</speed>
<course>318.2</course>
<desc>Speed 12.3 km/h Distance 20.70 km</desc>
<time>2011-09-24T11:07:26.59</time>
<name>5431</name>
</trkpt>
<trkpt lat="41.802955" lon="-1.816078">
<ele>1304.0</ele>
<speed>12.4</speed>
<course>331.2</course>
<desc>Speed 12.4 km/h Distance 20.70 km</desc>
<time>2011-09-24T11:07:27.59</time>
<name>5432</name>
</trkpt>
<trkpt lat="41.802987" lon="-1.816102">
<ele>1305.0</ele>
<speed>11.9</speed>
<course>321.5</course>
<desc>Speed 11.9 km/h Distance 20.71 km</desc>
<time>2011-09-24T11:07:28.59</time>
<name>5433</name>
</trkpt>
<trkpt lat="41.803012" lon="-1.816128">
<ele>1304.5</ele>
<speed>11.6</speed>
<course>325.1</course>
<desc>Speed 11.6 km/h Distance 20.71 km</desc>
<time>2011-09-24T11:07:29.59</time>
<name>5434</name>
</trkpt>
<trkpt lat="41.803038" lon="-1.816153">
<ele>1304.5</ele>
<speed>12.4</speed>
<course>331.5</course>
<desc>Speed 12.4 km/h Distance 20.71 km</desc>
<time>2011-09-24T11:07:30.59</time>
<name>5435</name>
</trkpt>
<trkpt lat="41.803075" lon="-1.816180">
<ele>1305.0</ele>
<speed>11.1</speed>
<course>331.5</course>
<desc>Speed 11.1 km/h Distance 20.72 km</desc>
<time>2011-09-24T11:07:31.59</time>
<name>5436</name>
</trkpt>
<trkpt lat="41.803112" lon="-1.816207">
<ele>1304.5</ele>
<speed>11.6</speed>
<course>327.4</course>
<desc>Speed 11.6 km/h Distance 20.72 km</desc>
<time>2011-09-24T11:07:32.58</time>
<name>5437</name>
</trkpt>
<trkpt lat="41.803135" lon="-1.816227">
<ele>1304.5</ele>
<speed>10.7</speed>
<course>331.3</course>
<desc>Speed 10.7 km/h Distance 20.73 km</desc>
<time>2011-09-24T11:07:33.58</time>
<name>5438</name>
</trkpt>
<trkpt lat="41.803160" lon="-1.816245">
<ele>1304.5</ele>
<speed>11.3</speed>
<course>327.4</course>
<desc>Speed 11.3 km/h Distance 20.73 km</desc>
<time>2011-09-24T11:07:34.58</time>
<name>5439</name>
</trkpt>
<trkpt lat="41.803183" lon="-1.816265">
<ele>1304.5</ele>
<speed>11.1</speed>
<course>327.4</course>
<desc>Speed 11.1 km/h Distance 20.73 km</desc>
<time>2011-09-24T11:07:35.58</time>
<name>5440</name>
</trkpt>
<trkpt lat="41.803207" lon="-1.816285">
<ele>1304.0</ele>
<speed>10.7</speed>
<course>310.3</course>
<desc>Speed 10.7 km/h Distance 20.74 km</desc>
<time>2011-09-24T11:07:36.58</time>
<name>5441</name>
</trkpt>
<trkpt lat="41.803227" lon="-1.816317">
<ele>1304.0</ele>
<speed>12.2</speed>
<course>295.0</course>
<desc>Speed 12.2 km/h Distance 20.74 km</desc>
<time>2011-09-24T11:07:37.58</time>
<name>5442</name>
</trkpt>
<trkpt lat="41.803240" lon="-1.816355">
<ele>1304.0</ele>
<speed>11.2</speed>
<course>278.2</course>
<desc>Speed 11.2 km/h Distance 20.74 km</desc>
<time>2011-09-24T11:07:38.58</time>
<name>5443</name>
</trkpt>
<trkpt lat="41.803245" lon="-1.816402">
<ele>1303.5</ele>
<speed>12.6</speed>
<course>263.9</course>
<desc>Speed 12.6 km/h Distance 20.75 km</desc>
<time>2011-09-24T11:07:39.58</time>
<name>5444</name>
</trkpt>
<trkpt lat="41.803242" lon="-1.816443">
<ele>1303.0</ele>
<speed>12.3</speed>
<course>234.8</course>
<desc>Speed 12.3 km/h Distance 20.75 km</desc>
<time>2011-09-24T11:07:40.58</time>
<name>5445</name>
</trkpt>
<trkpt lat="41.803225" lon="-1.816475">
<ele>1303.0</ele>
<speed>11.7</speed>
<course>163.2</course>
<desc>Speed 11.7 km/h Distance 20.75 km</desc>
<time>2011-09-24T11:07:41.58</time>
<name>5446</name>
</trkpt>
<trkpt lat="41.803208" lon="-1.816468">
<ele>1305.0</ele>
<speed>11.2</speed>
<course>188.7</course>
<desc>Speed 11.2 km/h Distance 20.76 km</desc>
<time>2011-09-24T11:07:42.57</time>
<name>5447</name>
</trkpt>
<trkpt lat="41.803192" lon="-1.816472">
<ele>1306.0</ele>
<speed>10.7</speed>
<course>173.7</course>
<desc>Speed 10.7 km/h Distance 20.76 km</desc>
<time>2011-09-24T11:07:43.57</time>
<name>5448</name>
</trkpt>
<trkpt lat="41.803168" lon="-1.816468">
<ele>1306.5</ele>
<speed>9.8</speed>
<course>167.1</course>
<desc>Speed 9.8 km/h Distance 20.76 km</desc>
<time>2011-09-24T11:07:44.57</time>
<name>5449</name>
</trkpt>
<trkpt lat="41.803147" lon="-1.816462">
<ele>1308.0</ele>
<speed>10.5</speed>
<course>152.7</course>
<desc>Speed 10.5 km/h Distance 20.76 km</desc>
<time>2011-09-24T11:07:45.58</time>
<name>5450</name>
</trkpt>
<trkpt lat="41.803125" lon="-1.816447">
<ele>1308.0</ele>
<speed>10.8</speed>
<course>149.6</course>
<desc>Speed 10.8 km/h Distance 20.76 km</desc>
<time>2011-09-24T11:07:46.57</time>
<name>5451</name>
</trkpt>
<trkpt lat="41.803102" lon="-1.816428">
<ele>1308.5</ele>
<speed>12.2</speed>
<course>147.8</course>
<desc>Speed 12.2 km/h Distance 20.77 km</desc>
<time>2011-09-24T11:07:47.57</time>
<name>5452</name>
</trkpt>
<trkpt lat="41.803080" lon="-1.816410">
<ele>1308.5</ele>
<speed>12.6</speed>
<course>137.0</course>
<desc>Speed 12.6 km/h Distance 20.77 km</desc>
<time>2011-09-24T11:07:48.58</time>
<name>5453</name>
</trkpt>
<trkpt lat="41.803060" lon="-1.816385">
<ele>1308.5</ele>
<speed>12.3</speed>
<course>145.3</course>
<desc>Speed 12.3 km/h Distance 20.77 km</desc>
<time>2011-09-24T11:07:49.58</time>
<name>5454</name>
</trkpt>
<trkpt lat="41.803037" lon="-1.816363">
<ele>1309.0</ele>
<speed>12.6</speed>
<course>145.4</course>
<desc>Speed 12.6 km/h Distance 20.78 km</desc>
<time>2011-09-24T11:07:50.57</time>
<name>5455</name>
</trkpt>
<trkpt lat="41.803015" lon="-1.816343">
<ele>1308.5</ele>
<speed>12.0</speed>
<course>151.3</course>
<desc>Speed 12.0 km/h Distance 20.78 km</desc>
<time>2011-09-24T11:07:51.57</time>
<name>5456</name>
</trkpt>
<trkpt lat="41.802990" lon="-1.816325">
<ele>1308.0</ele>
<speed>12.7</speed>
<course>153.6</course>
<desc>Speed 12.7 km/h Distance 20.78 km</desc>
<time>2011-09-24T11:07:52.57</time>
<name>5457</name>
</trkpt>
<trkpt lat="41.802960" lon="-1.816305">
<ele>1308.5</ele>
<speed>13.5</speed>
<course>145.3</course>
<desc>Speed 13.5 km/h Distance 20.79 km</desc>
<time>2011-09-24T11:07:53.57</time>
<name>5458</name>
</trkpt>
<trkpt lat="41.802937" lon="-1.816283">
<ele>1308.5</ele>
<speed>12.7</speed>
<course>156.3</course>
<desc>Speed 12.7 km/h Distance 20.79 km</desc>
<time>2011-09-24T11:07:54.56</time>
<name>5459</name>
</trkpt>
<trkpt lat="41.802908" lon="-1.816267">
<ele>1308.0</ele>
<speed>12.3</speed>
<course>156.0</course>
<desc>Speed 12.3 km/h Distance 20.79 km</desc>
<time>2011-09-24T11:07:55.56</time>
<name>5460</name>
</trkpt>
<trkpt lat="41.802883" lon="-1.816252">
<ele>1308.0</ele>
<speed>12.0</speed>
<course>152.0</course>
<desc>Speed 12.0 km/h Distance 20.80 km</desc>
<time>2011-09-24T11:07:56.56</time>
<name>5461</name>
</trkpt>
<trkpt lat="41.802860" lon="-1.816235">
<ele>1308.0</ele>
<speed>11.1</speed>
<course>164.6</course>
<desc>Speed 11.1 km/h Distance 20.80 km</desc>
<time>2011-09-24T11:07:57.56</time>
<name>5462</name>
</trkpt>
<trkpt lat="41.802833" lon="-1.816225">
<ele>1308.0</ele>
<speed>11.3</speed>
<course>155.3</course>
<desc>Speed 11.3 km/h Distance 20.80 km</desc>
<time>2011-09-24T11:07:58.56</time>
<name>5463</name>
</trkpt>
<trkpt lat="41.802812" lon="-1.816212">
<ele>1308.0</ele>
<speed>10.4</speed>
<course>160.9</course>
<desc>Speed 10.4 km/h Distance 20.81 km</desc>
<time>2011-09-24T11:07:59.56</time>
<name>5464</name>
</trkpt>
<trkpt lat="41.802787" lon="-1.816200">
<ele>1308.5</ele>
<speed>11.7</speed>
<course>167.9</course>
<desc>Speed 11.7 km/h Distance 20.81 km</desc>
<time>2011-09-24T11:08:00.56</time>
<name>5465</name>
</trkpt>
<trkpt lat="41.802763" lon="-1.816193">
<ele>1307.5</ele>
<speed>10.2</speed>
<course>167.8</course>
<desc>Speed 10.2 km/h Distance 20.81 km</desc>
<time>2011-09-24T11:08:01.57</time>
<name>5466</name>
</trkpt>
<trkpt lat="41.802740" lon="-1.816187">
<ele>1307.0</ele>
<speed>10.9</speed>
<course>160.7</course>
<desc>Speed 10.9 km/h Distance 20.81 km</desc>
<time>2011-09-24T11:08:02.56</time>
<name>5467</name>
</trkpt>
<trkpt lat="41.802715" lon="-1.816175">
<ele>1306.5</ele>
<speed>11.2</speed>
<course>164.5</course>
<desc>Speed 11.2 km/h Distance 20.82 km</desc>
<time>2011-09-24T11:08:03.55</time>
<name>5468</name>
</trkpt>
<trkpt lat="41.802688" lon="-1.816165">
<ele>1306.0</ele>
<speed>11.5</speed>
<course>155.9</course>
<desc>Speed 11.5 km/h Distance 20.82 km</desc>
<time>2011-09-24T11:08:04.55</time>
<name>5469</name>
</trkpt>
<trkpt lat="41.802663" lon="-1.816150">
<ele>1306.5</ele>
<speed>12.0</speed>
<course>153.5</course>
<desc>Speed 12.0 km/h Distance 20.82 km</desc>
<time>2011-09-24T11:08:05.56</time>
<name>5470</name>
</trkpt>
<trkpt lat="41.802638" lon="-1.816133">
<ele>1306.0</ele>
<speed>11.2</speed>
<course>155.3</course>
<desc>Speed 11.2 km/h Distance 20.83 km</desc>
<time>2011-09-24T11:08:06.56</time>
<name>5471</name>
</trkpt>
<trkpt lat="41.802617" lon="-1.816120">
<ele>1306.0</ele>
<speed>10.6</speed>
<course>155.3</course>
<desc>Speed 10.6 km/h Distance 20.83 km</desc>
<time>2011-09-24T11:08:07.56</time>
<name>5472</name>
</trkpt>
<trkpt lat="41.802595" lon="-1.816107">
<ele>1305.0</ele>
<speed>10.6</speed>
<course>154.4</course>
<desc>Speed 10.6 km/h Distance 20.83 km</desc>
<time>2011-09-24T11:08:08.55</time>
<name>5473</name>
</trkpt>
<trkpt lat="41.802572" lon="-1.816092">
<ele>1305.5</ele>
<speed>10.6</speed>
<course>161.2</course>
<desc>Speed 10.6 km/h Distance 20.83 km</desc>
<time>2011-09-24T11:08:09.55</time>
<name>5474</name>
</trkpt>
<trkpt lat="41.802550" lon="-1.816082">
<ele>1306.5</ele>
<speed>8.9</speed>
<course>166.0</course>
<desc>Speed 8.9 km/h Distance 20.84 km</desc>
<time>2011-09-24T11:08:10.55</time>
<name>5475</name>
</trkpt>
<trkpt lat="41.802535" lon="-1.816077">
<ele>1306.5</ele>
<speed>8.0</speed>
<course>158.1</course>
<desc>Speed 8.0 km/h Distance 20.84 km</desc>
<time>2011-09-24T11:08:11.55</time>
<name>5476</name>
</trkpt>
<trkpt lat="41.802513" lon="-1.816065">
<ele>1306.0</ele>
<speed>9.9</speed>
<course>156.9</course>
<desc>Speed 9.9 km/h Distance 20.84 km</desc>
<time>2011-09-24T11:08:12.56</time>
<name>5477</name>
</trkpt>
<trkpt lat="41.802490" lon="-1.816052">
<ele>1306.0</ele>
<speed>11.2</speed>
<course>159.5</course>
<desc>Speed 11.2 km/h Distance 20.84 km</desc>
<time>2011-09-24T11:08:13.55</time>
<name>5478</name>
</trkpt>
<trkpt lat="41.802467" lon="-1.816040">
<ele>1306.0</ele>
<speed>11.3</speed>
<course>151.3</course>
<desc>Speed 11.3 km/h Distance 20.85 km</desc>
<time>2011-09-24T11:08:14.54</time>
<name>5479</name>
</trkpt>
<trkpt lat="41.802442" lon="-1.816022">
<ele>1306.5</ele>
<speed>11.8</speed>
<course>156.3</course>
<desc>Speed 11.8 km/h Distance 20.85 km</desc>
<time>2011-09-24T11:08:15.54</time>
<name>5480</name>
</trkpt>
<trkpt lat="41.802413" lon="-1.816005">
<ele>1307.0</ele>
<speed>12.2</speed>
<course>159.5</course>
<desc>Speed 12.2 km/h Distance 20.85 km</desc>
<time>2011-09-24T11:08:16.55</time>
<name>5481</name>
</trkpt>
<trkpt lat="41.802387" lon="-1.815992">
<ele>1307.5</ele>
<speed>12.1</speed>
<course>161.9</course>
<desc>Speed 12.1 km/h Distance 20.86 km</desc>
<time>2011-09-24T11:08:17.55</time>
<name>5482</name>
</trkpt>
<trkpt lat="41.802360" lon="-1.815980">
<ele>1308.5</ele>
<speed>11.7</speed>
<course>171.6</course>
<desc>Speed 11.7 km/h Distance 20.86 km</desc>
<time>2011-09-24T11:08:18.55</time>
<name>5483</name>
</trkpt>
<trkpt lat="41.802335" lon="-1.815975">
<ele>1309.5</ele>
<speed>11.5</speed>
<course>160.8</course>
<desc>Speed 11.5 km/h Distance 20.86 km</desc>
<time>2011-09-24T11:08:19.55</time>
<name>5484</name>
</trkpt>
<trkpt lat="41.802310" lon="-1.815963">
<ele>1309.0</ele>
<speed>11.1</speed>
<course>164.5</course>
<desc>Speed 11.1 km/h Distance 20.86 km</desc>
<time>2011-09-24T11:08:20.55</time>
<name>5485</name>
</trkpt>
<trkpt lat="41.802283" lon="-1.815953">
<ele>1309.5</ele>
<speed>11.3</speed>
<course>166.0</course>
<desc>Speed 11.3 km/h Distance 20.87 km</desc>
<time>2011-09-24T11:08:21.55</time>
<name>5486</name>
</trkpt>
<trkpt lat="41.802258" lon="-1.815945">
<ele>1309.5</ele>
<speed>11.3</speed>
<course>167.7</course>
<desc>Speed 11.3 km/h Distance 20.87 km</desc>
<time>2011-09-24T11:08:22.54</time>
<name>5487</name>
</trkpt>
<trkpt lat="41.802230" lon="-1.815937">
<ele>1309.5</ele>
<speed>11.6</speed>
<course>166.0</course>
<desc>Speed 11.6 km/h Distance 20.87 km</desc>
<time>2011-09-24T11:08:23.54</time>
<name>5488</name>
</trkpt>
<trkpt lat="41.802200" lon="-1.815927">
<ele>1310.0</ele>
<speed>13.4</speed>
<course>167.5</course>
<desc>Speed 13.4 km/h Distance 20.88 km</desc>
<time>2011-09-24T11:08:24.54</time>
<name>5489</name>
</trkpt>
<trkpt lat="41.802172" lon="-1.815918">
<ele>1310.0</ele>
<speed>12.2</speed>
<course>166.7</course>
<desc>Speed 12.2 km/h Distance 20.88 km</desc>
<time>2011-09-24T11:08:25.54</time>
<name>5490</name>
</trkpt>
<trkpt lat="41.802140" lon="-1.815908">
<ele>1310.5</ele>
<speed>13.5</speed>
<course>171.2</course>
<desc>Speed 13.5 km/h Distance 20.88 km</desc>
<time>2011-09-24T11:08:26.54</time>
<name>5491</name>
</trkpt>
<trkpt lat="41.802108" lon="-1.815902">
<ele>1310.5</ele>
<speed>13.8</speed>
<course>166.9</course>
<desc>Speed 13.8 km/h Distance 20.89 km</desc>
<time>2011-09-24T11:08:27.54</time>
<name>5492</name>
</trkpt>
<trkpt lat="41.802077" lon="-1.815892">
<ele>1311.0</ele>
<speed>14.0</speed>
<course>166.1</course>
<desc>Speed 14.0 km/h Distance 20.89 km</desc>
<time>2011-09-24T11:08:28.54</time>
<name>5493</name>
</trkpt>
<trkpt lat="41.802047" lon="-1.815882">
<ele>1311.0</ele>
<speed>13.0</speed>
<course>160.6</course>
<desc>Speed 13.0 km/h Distance 20.90 km</desc>
<time>2011-09-24T11:08:29.54</time>
<name>5494</name>
</trkpt>
<trkpt lat="41.802015" lon="-1.815867">
<ele>1312.0</ele>
<speed>14.3</speed>
<course>162.5</course>
<desc>Speed 14.3 km/h Distance 20.90 km</desc>
<time>2011-09-24T11:08:30.54</time>
<name>5495</name>
</trkpt>
<trkpt lat="41.801983" lon="-1.815853">
<ele>1312.5</ele>
<speed>13.6</speed>
<course>157.5</course>
<desc>Speed 13.6 km/h Distance 20.90 km</desc>
<time>2011-09-24T11:08:31.53</time>
<name>5496</name>
</trkpt>
<trkpt lat="41.801953" lon="-1.815837">
<ele>1313.0</ele>
<speed>13.4</speed>
<course>157.5</course>
<desc>Speed 13.4 km/h Distance 20.91 km</desc>
<time>2011-09-24T11:08:32.53</time>
<name>5497</name>
</trkpt>
<trkpt lat="41.801923" lon="-1.815820">
<ele>1313.5</ele>
<speed>13.0</speed>
<course>156.3</course>
<desc>Speed 13.0 km/h Distance 20.91 km</desc>
<time>2011-09-24T11:08:33.54</time>
<name>5498</name>
</trkpt>
<trkpt lat="41.801895" lon="-1.815803">
<ele>1313.5</ele>
<speed>12.6</speed>
<course>166.1</course>
<desc>Speed 12.6 km/h Distance 20.91 km</desc>
<time>2011-09-24T11:08:34.52</time>
<name>5499</name>
</trkpt>
<trkpt lat="41.801860" lon="-1.815792">
<ele>1314.5</ele>
<speed>12.9</speed>
<course>162.2</course>
<desc>Speed 12.9 km/h Distance 20.92 km</desc>
<time>2011-09-24T11:08:35.52</time>
<name>5500</name>
</trkpt>
<trkpt lat="41.801825" lon="-1.815777">
<ele>1315.5</ele>
<speed>14.1</speed>
<course>158.7</course>
<desc>Speed 14.1 km/h Distance 20.92 km</desc>
<time>2011-09-24T11:08:36.52</time>
<name>5501</name>
</trkpt>
<trkpt lat="41.801790" lon="-1.815758">
<ele>1316.5</ele>
<speed>14.5</speed>
<course>158.7</course>
<desc>Speed 14.5 km/h Distance 20.93 km</desc>
<time>2011-09-24T11:08:37.52</time>
<name>5502</name>
</trkpt>
<trkpt lat="41.801755" lon="-1.815740">
<ele>1317.0</ele>
<speed>14.3</speed>
<course>156.9</course>
<desc>Speed 14.3 km/h Distance 20.93 km</desc>
<time>2011-09-24T11:08:38.52</time>
<name>5503</name>
</trkpt>
<trkpt lat="41.801720" lon="-1.815720">
<ele>1318.0</ele>
<speed>14.5</speed>
<course>156.2</course>
<desc>Speed 14.5 km/h Distance 20.93 km</desc>
<time>2011-09-24T11:08:39.53</time>
<name>5504</name>
</trkpt>
<trkpt lat="41.801683" lon="-1.815698">
<ele>1318.0</ele>
<speed>15.4</speed>
<course>157.1</course>
<desc>Speed 15.4 km/h Distance 20.94 km</desc>
<time>2011-09-24T11:08:40.52</time>
<name>5505</name>
</trkpt>
<trkpt lat="41.801645" lon="-1.815677">
<ele>1318.5</ele>
<speed>16.2</speed>
<course>159.6</course>
<desc>Speed 16.2 km/h Distance 20.94 km</desc>
<time>2011-09-24T11:08:41.52</time>
<name>5506</name>
</trkpt>
<trkpt lat="41.801605" lon="-1.815657">
<ele>1319.0</ele>
<speed>16.4</speed>
<course>154.6</course>
<desc>Speed 16.4 km/h Distance 20.95 km</desc>
<time>2011-09-24T11:08:42.52</time>
<name>5507</name>
</trkpt>
<trkpt lat="41.801568" lon="-1.815633">
<ele>1319.0</ele>
<speed>15.4</speed>
<course>153.6</course>
<desc>Speed 15.4 km/h Distance 20.95 km</desc>
<time>2011-09-24T11:08:43.52</time>
<name>5508</name>
</trkpt>
<trkpt lat="41.801533" lon="-1.815610">
<ele>1319.0</ele>
<speed>15.4</speed>
<course>154.2</course>
<desc>Speed 15.4 km/h Distance 20.96 km</desc>
<time>2011-09-24T11:08:44.52</time>
<name>5509</name>
</trkpt>
<trkpt lat="41.801500" lon="-1.815588">
<ele>1319.0</ele>
<speed>14.2</speed>
<course>152.4</course>
<desc>Speed 14.2 km/h Distance 20.96 km</desc>
<time>2011-09-24T11:08:45.51</time>
<name>5510</name>
</trkpt>
<trkpt lat="41.801467" lon="-1.815565">
<ele>1319.5</ele>
<speed>14.5</speed>
<course>152.0</course>
<desc>Speed 14.5 km/h Distance 20.96 km</desc>
<time>2011-09-24T11:08:46.51</time>
<name>5511</name>
</trkpt>
<trkpt lat="41.801432" lon="-1.815540">
<ele>1320.0</ele>
<speed>15.6</speed>
<course>150.4</course>
<desc>Speed 15.6 km/h Distance 20.97 km</desc>
<time>2011-09-24T11:08:47.51</time>
<name>5512</name>
</trkpt>
<trkpt lat="41.801397" lon="-1.815513">
<ele>1320.5</ele>
<speed>15.2</speed>
<course>152.4</course>
<desc>Speed 15.2 km/h Distance 20.97 km</desc>
<time>2011-09-24T11:08:48.51</time>
<name>5513</name>
</trkpt>
<trkpt lat="41.801363" lon="-1.815490">
<ele>1320.5</ele>
<speed>14.9</speed>
<course>155.2</course>
<desc>Speed 14.9 km/h Distance 20.98 km</desc>
<time>2011-09-24T11:08:49.51</time>
<name>5514</name>
</trkpt>
<trkpt lat="41.801328" lon="-1.815468">
<ele>1321.0</ele>
<speed>15.0</speed>
<course>154.8</course>
<desc>Speed 15.0 km/h Distance 20.98 km</desc>
<time>2011-09-24T11:08:50.51</time>
<name>5515</name>
</trkpt>
<trkpt lat="41.801297" lon="-1.815448">
<ele>1321.0</ele>
<speed>14.5</speed>
<course>157.7</course>
<desc>Speed 14.5 km/h Distance 20.99 km</desc>
<time>2011-09-24T11:08:51.51</time>
<name>5516</name>
</trkpt>
<trkpt lat="41.801263" lon="-1.815430">
<ele>1321.5</ele>
<speed>14.2</speed>
<course>157.7</course>
<desc>Speed 14.2 km/h Distance 20.99 km</desc>
<time>2011-09-24T11:08:52.51</time>
<name>5517</name>
</trkpt>
<trkpt lat="41.801230" lon="-1.815412">
<ele>1321.5</ele>
<speed>13.6</speed>
<course>154.8</course>
<desc>Speed 13.6 km/h Distance 20.99 km</desc>
<time>2011-09-24T11:08:53.51</time>
<name>5518</name>
</trkpt>
<trkpt lat="41.801198" lon="-1.815392">
<ele>1321.5</ele>
<speed>13.5</speed>
<course>153.6</course>
<desc>Speed 13.5 km/h Distance 21.00 km</desc>
<time>2011-09-24T11:08:54.50</time>
<name>5519</name>
</trkpt>
<trkpt lat="41.801168" lon="-1.815372">
<ele>1321.5</ele>
<speed>13.6</speed>
<course>155.9</course>
<desc>Speed 13.6 km/h Distance 21.00 km</desc>
<time>2011-09-24T11:08:55.50</time>
<name>5520</name>
</trkpt>
<trkpt lat="41.801135" lon="-1.815352">
<ele>1321.0</ele>
<speed>14.0</speed>
<course>162.0</course>
<desc>Speed 14.0 km/h Distance 21.01 km</desc>
<time>2011-09-24T11:08:56.50</time>
<name>5521</name>
</trkpt>
<trkpt lat="41.801097" lon="-1.815335">
<ele>1322.5</ele>
<speed>16.1</speed>
<course>163.0</course>
<desc>Speed 16.1 km/h Distance 21.01 km</desc>
<time>2011-09-24T11:08:57.51</time>
<name>5522</name>
</trkpt>
<trkpt lat="41.801060" lon="-1.815320">
<ele>1323.0</ele>
<speed>15.0</speed>
<course>158.7</course>
<desc>Speed 15.0 km/h Distance 21.01 km</desc>
<time>2011-09-24T11:08:58.51</time>
<name>5523</name>
</trkpt>
<trkpt lat="41.801025" lon="-1.815302">
<ele>1323.5</ele>
<speed>14.2</speed>
<course>148.8</course>
<desc>Speed 14.2 km/h Distance 21.02 km</desc>
<time>2011-09-24T11:08:59.50</time>
<name>5524</name>
</trkpt>
<trkpt lat="41.800998" lon="-1.815280">
<ele>1324.0</ele>
<speed>12.6</speed>
<course>151.7</course>
<desc>Speed 12.6 km/h Distance 21.02 km</desc>
<time>2011-09-24T11:09:00.50</time>
<name>5525</name>
</trkpt>
<trkpt lat="41.800968" lon="-1.815258">
<ele>1324.5</ele>
<speed>13.3</speed>
<course>161.4</course>
<desc>Speed 13.3 km/h Distance 21.03 km</desc>
<time>2011-09-24T11:09:01.50</time>
<name>5526</name>
</trkpt>
<trkpt lat="41.800935" lon="-1.815243">
<ele>1325.5</ele>
<speed>13.7</speed>
<course>163.4</course>
<desc>Speed 13.7 km/h Distance 21.03 km</desc>
<time>2011-09-24T11:09:02.50</time>
<name>5527</name>
</trkpt>
<trkpt lat="41.800902" lon="-1.815230">
<ele>1326.0</ele>
<speed>13.5</speed>
<course>159.6</course>
<desc>Speed 13.5 km/h Distance 21.03 km</desc>
<time>2011-09-24T11:09:03.50</time>
<name>5528</name>
</trkpt>
<trkpt lat="41.800872" lon="-1.815215">
<ele>1326.0</ele>
<speed>12.2</speed>
<course>157.2</course>
<desc>Speed 12.2 km/h Distance 21.04 km</desc>
<time>2011-09-24T11:09:04.50</time>
<name>5529</name>
</trkpt>
<trkpt lat="41.800845" lon="-1.815200">
<ele>1326.0</ele>
<speed>11.4</speed>
<course>158.5</course>
<desc>Speed 11.4 km/h Distance 21.04 km</desc>
<time>2011-09-24T11:09:05.50</time>
<name>5530</name>
</trkpt>
<trkpt lat="41.800817" lon="-1.815185">
<ele>1326.0</ele>
<speed>11.5</speed>
<course>158.6</course>
<desc>Speed 11.5 km/h Distance 21.04 km</desc>
<time>2011-09-24T11:09:06.49</time>
<name>5531</name>
</trkpt>
<trkpt lat="41.800785" lon="-1.815168">
<ele>1327.0</ele>
<speed>13.0</speed>
<course>161.7</course>
<desc>Speed 13.0 km/h Distance 21.05 km</desc>
<time>2011-09-24T11:09:07.49</time>
<name>5532</name>
</trkpt>
<trkpt lat="41.800755" lon="-1.815155">
<ele>1327.5</ele>
<speed>12.3</speed>
<course>155.5</course>
<desc>Speed 12.3 km/h Distance 21.05 km</desc>
<time>2011-09-24T11:09:08.49</time>
<name>5533</name>
</trkpt>
<trkpt lat="41.800725" lon="-1.815137">
<ele>1327.5</ele>
<speed>12.9</speed>
<course>158.4</course>
<desc>Speed 12.9 km/h Distance 21.06 km</desc>
<time>2011-09-24T11:09:09.50</time>
<name>5534</name>
</trkpt>
<trkpt lat="41.800697" lon="-1.815122">
<ele>1328.0</ele>
<speed>12.5</speed>
<course>156.3</course>
<desc>Speed 12.5 km/h Distance 21.06 km</desc>
<time>2011-09-24T11:09:10.49</time>
<name>5535</name>
</trkpt>
<trkpt lat="41.800668" lon="-1.815105">
<ele>1328.0</ele>
<speed>11.8</speed>
<course>157.5</course>
<desc>Speed 11.8 km/h Distance 21.06 km</desc>
<time>2011-09-24T11:09:11.49</time>
<name>5536</name>
</trkpt>
<trkpt lat="41.800638" lon="-1.815088">
<ele>1328.5</ele>
<speed>12.7</speed>
<course>159.6</course>
<desc>Speed 12.7 km/h Distance 21.07 km</desc>
<time>2011-09-24T11:09:12.49</time>
<name>5537</name>
</trkpt>
<trkpt lat="41.800608" lon="-1.815073">
<ele>1328.5</ele>
<speed>12.7</speed>
<course>158.5</course>
<desc>Speed 12.7 km/h Distance 21.07 km</desc>
<time>2011-09-24T11:09:13.49</time>
<name>5538</name>
</trkpt>
<trkpt lat="41.800580" lon="-1.815058">
<ele>1329.0</ele>
<speed>12.4</speed>
<course>162.4</course>
<desc>Speed 12.4 km/h Distance 21.07 km</desc>
<time>2011-09-24T11:09:14.49</time>
<name>5539</name>
</trkpt>
<trkpt lat="41.800557" lon="-1.815048">
<ele>1329.0</ele>
<speed>9.5</speed>
<course>160.7</course>
<desc>Speed 9.5 km/h Distance 21.08 km</desc>
<time>2011-09-24T11:09:15.49</time>
<name>5540</name>
</trkpt>
<trkpt lat="41.800532" lon="-1.815037">
<ele>1329.5</ele>
<speed>10.0</speed>
<course>159.4</course>
<desc>Speed 10.0 km/h Distance 21.08 km</desc>
<time>2011-09-24T11:09:16.48</time>
<name>5541</name>
</trkpt>
<trkpt lat="41.800508" lon="-1.815025">
<ele>1329.5</ele>
<speed>9.9</speed>
<course>165.1</course>
<desc>Speed 9.9 km/h Distance 21.08 km</desc>
<time>2011-09-24T11:09:17.48</time>
<name>5542</name>
</trkpt>
<trkpt lat="41.800485" lon="-1.815017">
<ele>1329.5</ele>
<speed>9.4</speed>
<course>162.2</course>
<desc>Speed 9.4 km/h Distance 21.08 km</desc>
<time>2011-09-24T11:09:18.48</time>
<name>5543</name>
</trkpt>
<trkpt lat="41.800462" lon="-1.815007">
<ele>1329.5</ele>
<speed>9.8</speed>
<course>166.9</course>
<desc>Speed 9.8 km/h Distance 21.09 km</desc>
<time>2011-09-24T11:09:19.48</time>
<name>5544</name>
</trkpt>
<trkpt lat="41.800435" lon="-1.814998">
<ele>1329.5</ele>
<speed>11.1</speed>
<course>166.1</course>
<desc>Speed 11.1 km/h Distance 21.09 km</desc>
<time>2011-09-24T11:09:20.48</time>
<name>5545</name>
</trkpt>
<trkpt lat="41.800405" lon="-1.814988">
<ele>1329.5</ele>
<speed>11.8</speed>
<course>162.9</course>
<desc>Speed 11.8 km/h Distance 21.09 km</desc>
<time>2011-09-24T11:09:21.48</time>
<name>5546</name>
</trkpt>
<trkpt lat="41.800377" lon="-1.814977">
<ele>1329.5</ele>
<speed>11.5</speed>
<course>168.3</course>
<desc>Speed 11.5 km/h Distance 21.10 km</desc>
<time>2011-09-24T11:09:22.48</time>
<name>5547</name>
</trkpt>
<trkpt lat="41.800347" lon="-1.814968">
<ele>1329.5</ele>
<speed>11.6</speed>
<course>161.6</course>
<desc>Speed 11.6 km/h Distance 21.10 km</desc>
<time>2011-09-24T11:09:23.48</time>
<name>5548</name>
</trkpt>
<trkpt lat="41.800317" lon="-1.814955">
<ele>1329.5</ele>
<speed>12.1</speed>
<course>165.2</course>
<desc>Speed 12.1 km/h Distance 21.10 km</desc>
<time>2011-09-24T11:09:24.48</time>
<name>5549</name>
</trkpt>
<trkpt lat="41.800288" lon="-1.814945">
<ele>1329.5</ele>
<speed>11.9</speed>
<course>166.1</course>
<desc>Speed 11.9 km/h Distance 21.11 km</desc>
<time>2011-09-24T11:09:25.48</time>
<name>5550</name>
</trkpt>
<trkpt lat="41.800263" lon="-1.814937">
<ele>1329.0</ele>
<speed>9.9</speed>
<course>160.7</course>
<desc>Speed 9.9 km/h Distance 21.11 km</desc>
<time>2011-09-24T11:09:26.48</time>
<name>5551</name>
</trkpt>
<trkpt lat="41.800238" lon="-1.814925">
<ele>1329.5</ele>
<speed>10.2</speed>
<course>159.7</course>
<desc>Speed 10.2 km/h Distance 21.11 km</desc>
<time>2011-09-24T11:09:27.48</time>
<name>5552</name>
</trkpt>
<trkpt lat="41.800218" lon="-1.814915">
<ele>1329.5</ele>
<speed>8.2</speed>
<course>165.1</course>
<desc>Speed 8.2 km/h Distance 21.11 km</desc>
<time>2011-09-24T11:09:28.48</time>
<name>5553</name>
</trkpt>
<trkpt lat="41.800195" lon="-1.814907">
<ele>1329.0</ele>
<speed>8.9</speed>
<course>149.6</course>
<desc>Speed 8.9 km/h Distance 21.12 km</desc>
<time>2011-09-24T11:09:29.48</time>
<name>5554</name>
</trkpt>
<trkpt lat="41.800172" lon="-1.814888">
<ele>1329.5</ele>
<speed>10.0</speed>
<course>149.6</course>
<desc>Speed 10.0 km/h Distance 21.12 km</desc>
<time>2011-09-24T11:09:30.48</time>
<name>5555</name>
</trkpt>
<trkpt lat="41.800148" lon="-1.814870">
<ele>1330.0</ele>
<speed>10.3</speed>
<course>151.3</course>
<desc>Speed 10.3 km/h Distance 21.12 km</desc>
<time>2011-09-24T11:09:31.48</time>
<name>5556</name>
</trkpt>
<trkpt lat="41.800123" lon="-1.814852">
<ele>1330.0</ele>
<speed>11.2</speed>
<course>152.9</course>
<desc>Speed 11.2 km/h Distance 21.13 km</desc>
<time>2011-09-24T11:09:32.47</time>
<name>5557</name>
</trkpt>
<trkpt lat="41.800097" lon="-1.814833">
<ele>1330.5</ele>
<speed>11.3</speed>
<course>149.7</course>
<desc>Speed 11.3 km/h Distance 21.13 km</desc>
<time>2011-09-24T11:09:33.47</time>
<name>5558</name>
</trkpt>
<trkpt lat="41.800073" lon="-1.814815">
<ele>1330.5</ele>
<speed>10.0</speed>
<course>150.2</course>
<desc>Speed 10.0 km/h Distance 21.13 km</desc>
<time>2011-09-24T11:09:34.47</time>
<name>5559</name>
</trkpt>
<trkpt lat="41.800052" lon="-1.814798">
<ele>1329.5</ele>
<speed>9.3</speed>
<course>152.0</course>
<desc>Speed 9.3 km/h Distance 21.14 km</desc>
<time>2011-09-24T11:09:35.48</time>
<name>5560</name>
</trkpt>
<trkpt lat="41.800028" lon="-1.814782">
<ele>1328.0</ele>
<speed>10.1</speed>
<course>146.5</course>
<desc>Speed 10.1 km/h Distance 21.14 km</desc>
<time>2011-09-24T11:09:36.48</time>
<name>5561</name>
</trkpt>
<trkpt lat="41.799998" lon="-1.814755">
<ele>1328.5</ele>
<speed>13.4</speed>
<course>135.6</course>
<desc>Speed 13.4 km/h Distance 21.14 km</desc>
<time>2011-09-24T11:09:37.47</time>
<name>5562</name>
</trkpt>
<trkpt lat="41.799972" lon="-1.814720">
<ele>1330.0</ele>
<speed>12.9</speed>
<course>138.5</course>
<desc>Speed 12.9 km/h Distance 21.15 km</desc>
<time>2011-09-24T11:09:38.47</time>
<name>5563</name>
</trkpt>
<trkpt lat="41.799945" lon="-1.814688">
<ele>1330.0</ele>
<speed>13.3</speed>
<course>141.7</course>
<desc>Speed 13.3 km/h Distance 21.15 km</desc>
<time>2011-09-24T11:09:39.47</time>
<name>5564</name>
</trkpt>
<trkpt lat="41.799918" lon="-1.814660">
<ele>1330.0</ele>
<speed>13.2</speed>
<course>145.2</course>
<desc>Speed 13.2 km/h Distance 21.15 km</desc>
<time>2011-09-24T11:09:40.47</time>
<name>5565</name>
</trkpt>
<trkpt lat="41.799893" lon="-1.814637">
<ele>1329.5</ele>
<speed>12.0</speed>
<course>143.3</course>
<desc>Speed 12.0 km/h Distance 21.16 km</desc>
<time>2011-09-24T11:09:41.47</time>
<name>5566</name>
</trkpt>
<trkpt lat="41.799865" lon="-1.814608">
<ele>1329.5</ele>
<speed>13.2</speed>
<course>138.5</course>
<desc>Speed 13.2 km/h Distance 21.16 km</desc>
<time>2011-09-24T11:09:42.46</time>
<name>5567</name>
</trkpt>
<trkpt lat="41.799838" lon="-1.814577">
<ele>1330.0</ele>
<speed>13.4</speed>
<course>139.8</course>
<desc>Speed 13.4 km/h Distance 21.17 km</desc>
<time>2011-09-24T11:09:43.46</time>
<name>5568</name>
</trkpt>
<trkpt lat="41.799813" lon="-1.814548">
<ele>1330.5</ele>
<speed>12.7</speed>
<course>141.5</course>
<desc>Speed 12.7 km/h Distance 21.17 km</desc>
<time>2011-09-24T11:09:44.46</time>
<name>5569</name>
</trkpt>
<trkpt lat="41.799788" lon="-1.814522">
<ele>1331.5</ele>
<speed>12.5</speed>
<course>141.5</course>
<desc>Speed 12.5 km/h Distance 21.17 km</desc>
<time>2011-09-24T11:09:45.47</time>
<name>5570</name>
</trkpt>
<trkpt lat="41.799763" lon="-1.814495">
<ele>1331.5</ele>
<speed>12.6</speed>
<course>143.3</course>
<desc>Speed 12.6 km/h Distance 21.18 km</desc>
<time>2011-09-24T11:09:46.46</time>
<name>5571</name>
</trkpt>
<trkpt lat="41.799737" lon="-1.814468">
<ele>1332.0</ele>
<speed>12.8</speed>
<course>141.6</course>
<desc>Speed 12.8 km/h Distance 21.18 km</desc>
<time>2011-09-24T11:09:47.46</time>
<name>5572</name>
</trkpt>
<trkpt lat="41.799710" lon="-1.814440">
<ele>1333.0</ele>
<speed>12.1</speed>
<course>138.5</course>
<desc>Speed 12.1 km/h Distance 21.18 km</desc>
<time>2011-09-24T11:09:48.46</time>
<name>5573</name>
</trkpt>
<trkpt lat="41.799683" lon="-1.814408">
<ele>1334.0</ele>
<speed>12.3</speed>
<course>139.8</course>
<desc>Speed 12.3 km/h Distance 21.19 km</desc>
<time>2011-09-24T11:09:49.46</time>
<name>5574</name>
</trkpt>
<trkpt lat="41.799658" lon="-1.814380">
<ele>1335.0</ele>
<speed>12.3</speed>
<course>139.8</course>
<desc>Speed 12.3 km/h Distance 21.19 km</desc>
<time>2011-09-24T11:09:50.46</time>
<name>5575</name>
</trkpt>
<trkpt lat="41.799633" lon="-1.814352">
<ele>1335.5</ele>
<speed>11.7</speed>
<course>141.5</course>
<desc>Speed 11.7 km/h Distance 21.20 km</desc>
<time>2011-09-24T11:09:51.46</time>
<name>5576</name>
</trkpt>
<trkpt lat="41.799608" lon="-1.814325">
<ele>1335.0</ele>
<speed>11.7</speed>
<course>134.1</course>
<desc>Speed 11.7 km/h Distance 21.20 km</desc>
<time>2011-09-24T11:09:52.46</time>
<name>5577</name>
</trkpt>
<trkpt lat="41.799587" lon="-1.814295">
<ele>1335.5</ele>
<speed>12.1</speed>
<course>127.8</course>
<desc>Speed 12.1 km/h Distance 21.20 km</desc>
<time>2011-09-24T11:09:53.46</time>
<name>5578</name>
</trkpt>
<trkpt lat="41.799568" lon="-1.814263">
<ele>1335.5</ele>
<speed>12.0</speed>
<course>117.7</course>
<desc>Speed 12.0 km/h Distance 21.21 km</desc>
<time>2011-09-24T11:09:54.46</time>
<name>5579</name>
</trkpt>
<trkpt lat="41.799553" lon="-1.814225">
<ele>1335.5</ele>
<speed>12.3</speed>
<course>121.6</course>
<desc>Speed 12.3 km/h Distance 21.21 km</desc>
<time>2011-09-24T11:09:55.45</time>
<name>5580</name>
</trkpt>
<trkpt lat="41.799535" lon="-1.814185">
<ele>1335.5</ele>
<speed>12.5</speed>
<course>122.7</course>
<desc>Speed 12.5 km/h Distance 21.21 km</desc>
<time>2011-09-24T11:09:56.46</time>
<name>5581</name>
</trkpt>
<trkpt lat="41.799517" lon="-1.814147">
<ele>1336.0</ele>
<speed>13.4</speed>
<course>118.2</course>
<desc>Speed 13.4 km/h Distance 21.22 km</desc>
<time>2011-09-24T11:09:57.45</time>
<name>5582</name>
</trkpt>
<trkpt lat="41.799500" lon="-1.814105">
<ele>1336.5</ele>
<speed>13.7</speed>
<course>114.9</course>
<desc>Speed 13.7 km/h Distance 21.22 km</desc>
<time>2011-09-24T11:09:58.45</time>
<name>5583</name>
</trkpt>
<trkpt lat="41.799485" lon="-1.814062">
<ele>1337.0</ele>
<speed>13.8</speed>
<course>106.6</course>
<desc>Speed 13.8 km/h Distance 21.22 km</desc>
<time>2011-09-24T11:09:59.46</time>
<name>5584</name>
</trkpt>
<trkpt lat="41.799475" lon="-1.814017">
<ele>1337.0</ele>
<speed>13.3</speed>
<course>106.0</course>
<desc>Speed 13.3 km/h Distance 21.23 km</desc>
<time>2011-09-24T11:10:00.45</time>
<name>5585</name>
</trkpt>
<trkpt lat="41.799465" lon="-1.813970">
<ele>1337.5</ele>
<speed>13.6</speed>
<course>98.5</course>
<desc>Speed 13.6 km/h Distance 21.23 km</desc>
<time>2011-09-24T11:10:01.46</time>
<name>5586</name>
</trkpt>
<trkpt lat="41.799460" lon="-1.813925">
<ele>1338.0</ele>
<speed>13.0</speed>
<course>98.2</course>
<desc>Speed 13.0 km/h Distance 21.24 km</desc>
<time>2011-09-24T11:10:02.46</time>
<name>5587</name>
</trkpt>
<trkpt lat="41.799455" lon="-1.813878">
<ele>1338.0</ele>
<speed>13.6</speed>
<course>92.7</course>
<desc>Speed 13.6 km/h Distance 21.24 km</desc>
<time>2011-09-24T11:10:03.46</time>
<name>5588</name>
</trkpt>
<trkpt lat="41.799453" lon="-1.813832">
<ele>1338.0</ele>
<speed>13.4</speed>
<course>92.8</course>
<desc>Speed 13.4 km/h Distance 21.24 km</desc>
<time>2011-09-24T11:10:04.46</time>
<name>5589</name>
</trkpt>
<trkpt lat="41.799452" lon="-1.813787">
<ele>1338.0</ele>
<speed>13.4</speed>
<course>90.0</course>
<desc>Speed 13.4 km/h Distance 21.25 km</desc>
<time>2011-09-24T11:10:05.45</time>
<name>5590</name>
</trkpt>
<trkpt lat="41.799452" lon="-1.813737">
<ele>1338.5</ele>
<speed>13.3</speed>
<course>84.3</course>
<desc>Speed 13.3 km/h Distance 21.25 km</desc>
<time>2011-09-24T11:10:06.44</time>
<name>5591</name>
</trkpt>
<trkpt lat="41.799455" lon="-1.813692">
<ele>1338.5</ele>
<speed>13.6</speed>
<course>90.0</course>
<desc>Speed 13.6 km/h Distance 21.26 km</desc>
<time>2011-09-24T11:10:07.62</time>
<name>5592</name>
</trkpt>
<trkpt lat="41.799455" lon="-1.813643">
<ele>1339.5</ele>
<speed>13.0</speed>
<course>84.3</course>
<desc>Speed 13.0 km/h Distance 21.26 km</desc>
<time>2011-09-24T11:10:08.44</time>
<name>5593</name>
</trkpt>
<trkpt lat="41.799458" lon="-1.813598">
<ele>1340.0</ele>
<speed>12.8</speed>
<course>72.2</course>
<desc>Speed 12.8 km/h Distance 21.26 km</desc>
<time>2011-09-24T11:10:09.45</time>
<name>5594</name>
</trkpt>
<trkpt lat="41.799468" lon="-1.813557">
<ele>1340.0</ele>
<speed>12.4</speed>
<course>75.0</course>
<desc>Speed 12.4 km/h Distance 21.27 km</desc>
<time>2011-09-24T11:10:10.44</time>
<name>5595</name>
</trkpt>
<trkpt lat="41.799477" lon="-1.813515">
<ele>1340.0</ele>
<speed>12.3</speed>
<course>78.3</course>
<desc>Speed 12.3 km/h Distance 21.27 km</desc>
<time>2011-09-24T11:10:11.46</time>
<name>5596</name>
</trkpt>
<trkpt lat="41.799483" lon="-1.813472">
<ele>1341.0</ele>
<speed>12.2</speed>
<course>83.6</course>
<desc>Speed 12.2 km/h Distance 21.27 km</desc>
<time>2011-09-24T11:10:12.44</time>
<name>5597</name>
</trkpt>
<trkpt lat="41.799487" lon="-1.813432">
<ele>1341.0</ele>
<speed>11.8</speed>
<course>71.5</course>
<desc>Speed 11.8 km/h Distance 21.28 km</desc>
<time>2011-09-24T11:10:13.44</time>
<name>5598</name>
</trkpt>
<trkpt lat="41.799497" lon="-1.813392">
<ele>1341.0</ele>
<speed>12.0</speed>
<course>75.0</course>
<desc>Speed 12.0 km/h Distance 21.28 km</desc>
<time>2011-09-24T11:10:14.44</time>
<name>5599</name>
</trkpt>
<trkpt lat="41.799505" lon="-1.813350">
<ele>1341.5</ele>
<speed>12.0</speed>
<course>76.3</course>
<desc>Speed 12.0 km/h Distance 21.28 km</desc>
<time>2011-09-24T11:10:15.45</time>
<name>5600</name>
</trkpt>
<trkpt lat="41.799512" lon="-1.813313">
<ele>1342.5</ele>
<speed>11.5</speed>
<course>80.5</course>
<desc>Speed 11.5 km/h Distance 21.29 km</desc>
<time>2011-09-24T11:10:16.44</time>
<name>5601</name>
</trkpt>
<trkpt lat="41.799517" lon="-1.813273">
<ele>1343.0</ele>
<speed>11.4</speed>
<course>69.9</course>
<desc>Speed 11.4 km/h Distance 21.29 km</desc>
<time>2011-09-24T11:10:17.44</time>
<name>5602</name>
</trkpt>
<trkpt lat="41.799527" lon="-1.813237">
<ele>1343.5</ele>
<speed>11.5</speed>
<course>69.0</course>
<desc>Speed 11.5 km/h Distance 21.29 km</desc>
<time>2011-09-24T11:10:18.44</time>
<name>5603</name>
</trkpt>
<trkpt lat="41.799537" lon="-1.813202">
<ele>1344.0</ele>
<speed>11.3</speed>
<course>66.9</course>
<desc>Speed 11.3 km/h Distance 21.30 km</desc>
<time>2011-09-24T11:10:19.43</time>
<name>5604</name>
</trkpt>
<trkpt lat="41.799548" lon="-1.813165">
<ele>1344.5</ele>
<speed>11.9</speed>
<course>66.9</course>
<desc>Speed 11.9 km/h Distance 21.30 km</desc>
<time>2011-09-24T11:10:20.43</time>
<name>5605</name>
</trkpt>
<trkpt lat="41.799560" lon="-1.813128">
<ele>1345.0</ele>
<speed>11.6</speed>
<course>69.9</course>
<desc>Speed 11.6 km/h Distance 21.30 km</desc>
<time>2011-09-24T11:10:21.43</time>
<name>5606</name>
</trkpt>
<trkpt lat="41.799570" lon="-1.813092">
<ele>1345.5</ele>
<speed>11.7</speed>
<course>76.3</course>
<desc>Speed 11.7 km/h Distance 21.31 km</desc>
<time>2011-09-24T11:10:22.43</time>
<name>5607</name>
</trkpt>
<trkpt lat="41.799577" lon="-1.813055">
<ele>1346.0</ele>
<speed>10.9</speed>
<course>75.0</course>
<desc>Speed 10.9 km/h Distance 21.31 km</desc>
<time>2011-09-24T11:10:23.43</time>
<name>5608</name>
</trkpt>
<trkpt lat="41.799583" lon="-1.813022">
<ele>1346.5</ele>
<speed>9.6</speed>
<course>68.1</course>
<desc>Speed 9.6 km/h Distance 21.31 km</desc>
<time>2011-09-24T11:10:24.43</time>
<name>5609</name>
</trkpt>
<trkpt lat="41.799593" lon="-1.812988">
<ele>1347.0</ele>
<speed>10.5</speed>
<course>73.1</course>
<desc>Speed 10.5 km/h Distance 21.32 km</desc>
<time>2011-09-24T11:10:25.43</time>
<name>5610</name>
</trkpt>
<trkpt lat="41.799602" lon="-1.812952">
<ele>1348.0</ele>
<speed>11.2</speed>
<course>70.7</course>
<desc>Speed 11.2 km/h Distance 21.32 km</desc>
<time>2011-09-24T11:10:26.43</time>
<name>5611</name>
</trkpt>
<trkpt lat="41.799612" lon="-1.812913">
<ele>1349.0</ele>
<speed>11.8</speed>
<course>66.4</course>
<desc>Speed 11.8 km/h Distance 21.32 km</desc>
<time>2011-09-24T11:10:27.75</time>
<name>5612</name>
</trkpt>
<trkpt lat="41.799637" lon="-1.812837">
<ele>1351.0</ele>
<speed>12.1</speed>
<course>64.0</course>
<desc>Speed 12.1 km/h Distance 21.33 km</desc>
<time>2011-09-24T11:10:29.43</time>
<name>5613</name>
</trkpt>
<trkpt lat="41.799650" lon="-1.812800">
<ele>1352.0</ele>
<speed>12.3</speed>
<course>64.2</course>
<desc>Speed 12.3 km/h Distance 21.33 km</desc>
<time>2011-09-24T11:10:30.42</time>
<name>5614</name>
</trkpt>
<trkpt lat="41.799665" lon="-1.812758">
<ele>1352.5</ele>
<speed>13.4</speed>
<course>70.1</course>
<desc>Speed 13.4 km/h Distance 21.34 km</desc>
<time>2011-09-24T11:10:31.67</time>
<name>5615</name>
</trkpt>
<trkpt lat="41.799677" lon="-1.812715">
<ele>1353.0</ele>
<speed>13.4</speed>
<course>66.8</course>
<desc>Speed 13.4 km/h Distance 21.34 km</desc>
<time>2011-09-24T11:10:32.42</time>
<name>5616</name>
</trkpt>
<trkpt lat="41.799690" lon="-1.812673">
<ele>1354.0</ele>
<speed>13.5</speed>
<course>66.8</course>
<desc>Speed 13.5 km/h Distance 21.34 km</desc>
<time>2011-09-24T11:10:33.42</time>
<name>5617</name>
</trkpt>
<trkpt lat="41.799703" lon="-1.812632">
<ele>1354.5</ele>
<speed>12.9</speed>
<course>65.9</course>
<desc>Speed 12.9 km/h Distance 21.35 km</desc>
<time>2011-09-24T11:10:34.42</time>
<name>5618</name>
</trkpt>
<trkpt lat="41.799717" lon="-1.812592">
<ele>1355.0</ele>
<speed>13.1</speed>
<course>63.3</course>
<desc>Speed 13.1 km/h Distance 21.35 km</desc>
<time>2011-09-24T11:10:35.42</time>
<name>5619</name>
</trkpt>
<trkpt lat="41.799732" lon="-1.812552">
<ele>1355.0</ele>
<speed>13.1</speed>
<course>66.8</course>
<desc>Speed 13.1 km/h Distance 21.36 km</desc>
<time>2011-09-24T11:10:36.42</time>
<name>5620</name>
</trkpt>
<trkpt lat="41.799745" lon="-1.812510">
<ele>1355.5</ele>
<speed>13.1</speed>
<course>68.6</course>
<desc>Speed 13.1 km/h Distance 21.36 km</desc>
<time>2011-09-24T11:10:37.43</time>
<name>5621</name>
</trkpt>
<trkpt lat="41.799757" lon="-1.812470">
<ele>1356.0</ele>
<speed>12.6</speed>
<course>65.9</course>
<desc>Speed 12.6 km/h Distance 21.36 km</desc>
<time>2011-09-24T11:10:38.42</time>
<name>5622</name>
</trkpt>
<trkpt lat="41.799770" lon="-1.812430">
<ele>1356.0</ele>
<speed>12.6</speed>
<course>62.3</course>
<desc>Speed 12.6 km/h Distance 21.37 km</desc>
<time>2011-09-24T11:10:39.42</time>
<name>5623</name>
</trkpt>
<trkpt lat="41.799785" lon="-1.812392">
<ele>1356.5</ele>
<speed>12.3</speed>
<course>67.8</course>
<desc>Speed 12.3 km/h Distance 21.37 km</desc>
<time>2011-09-24T11:10:40.41</time>
<name>5624</name>
</trkpt>
<trkpt lat="41.799797" lon="-1.812353">
<ele>1356.5</ele>
<speed>11.9</speed>
<course>66.9</course>
<desc>Speed 11.9 km/h Distance 21.37 km</desc>
<time>2011-09-24T11:10:41.42</time>
<name>5625</name>
</trkpt>
<trkpt lat="41.799808" lon="-1.812317">
<ele>1357.0</ele>
<speed>11.9</speed>
<course>72.1</course>
<desc>Speed 11.9 km/h Distance 21.38 km</desc>
<time>2011-09-24T11:10:42.41</time>
<name>5626</name>
</trkpt>
<trkpt lat="41.799818" lon="-1.812275">
<ele>1357.0</ele>
<speed>12.6</speed>
<course>71.5</course>
<desc>Speed 12.6 km/h Distance 21.38 km</desc>
<time>2011-09-24T11:10:43.41</time>
<name>5627</name>
</trkpt>
<trkpt lat="41.799828" lon="-1.812235">
<ele>1357.0</ele>
<speed>12.4</speed>
<course>68.6</course>
<desc>Speed 12.4 km/h Distance 21.38 km</desc>
<time>2011-09-24T11:10:44.41</time>
<name>5628</name>
</trkpt>
<trkpt lat="41.799840" lon="-1.812195">
<ele>1357.5</ele>
<speed>12.3</speed>
<course>66.8</course>
<desc>Speed 12.3 km/h Distance 21.39 km</desc>
<time>2011-09-24T11:10:45.41</time>
<name>5629</name>
</trkpt>
<trkpt lat="41.799853" lon="-1.812153">
<ele>1357.5</ele>
<speed>12.6</speed>
<course>71.5</course>
<desc>Speed 12.6 km/h Distance 21.39 km</desc>
<time>2011-09-24T11:10:46.41</time>
<name>5630</name>
</trkpt>
<trkpt lat="41.799863" lon="-1.812113">
<ele>1357.5</ele>
<speed>12.6</speed>
<course>69.4</course>
<desc>Speed 12.6 km/h Distance 21.40 km</desc>
<time>2011-09-24T11:10:47.41</time>
<name>5631</name>
</trkpt>
<trkpt lat="41.799875" lon="-1.812072">
<ele>1358.0</ele>
<speed>12.6</speed>
<course>71.5</course>
<desc>Speed 12.6 km/h Distance 21.40 km</desc>
<time>2011-09-24T11:10:48.40</time>
<name>5632</name>
</trkpt>
<trkpt lat="41.799885" lon="-1.812032">
<ele>1358.0</ele>
<speed>12.6</speed>
<course>70.7</course>
<desc>Speed 12.6 km/h Distance 21.40 km</desc>
<time>2011-09-24T11:10:49.41</time>
<name>5633</name>
</trkpt>
<trkpt lat="41.799895" lon="-1.811993">
<ele>1358.5</ele>
<speed>11.9</speed>
<course>76.3</course>
<desc>Speed 11.9 km/h Distance 21.41 km</desc>
<time>2011-09-24T11:10:50.41</time>
<name>5634</name>
</trkpt>
<trkpt lat="41.799902" lon="-1.811957">
<ele>1358.5</ele>
<speed>10.7</speed>
<course>76.3</course>
<desc>Speed 10.7 km/h Distance 21.41 km</desc>
<time>2011-09-24T11:10:51.41</time>
<name>5635</name>
</trkpt>
<trkpt lat="41.799908" lon="-1.811920">
<ele>1358.5</ele>
<speed>11.1</speed>
<course>77.4</course>
<desc>Speed 11.1 km/h Distance 21.41 km</desc>
<time>2011-09-24T11:10:52.41</time>
<name>5636</name>
</trkpt>
<trkpt lat="41.799915" lon="-1.811880">
<ele>1358.5</ele>
<speed>12.1</speed>
<course>77.9</course>
<desc>Speed 12.1 km/h Distance 21.42 km</desc>
<time>2011-09-24T11:10:53.41</time>
<name>5637</name>
</trkpt>
<trkpt lat="41.799922" lon="-1.811838">
<ele>1359.0</ele>
<speed>12.4</speed>
<course>72.2</course>
<desc>Speed 12.4 km/h Distance 21.42 km</desc>
<time>2011-09-24T11:10:54.41</time>
<name>5638</name>
</trkpt>
<trkpt lat="41.799932" lon="-1.811797">
<ele>1359.0</ele>
<speed>12.6</speed>
<course>79.2</course>
<desc>Speed 12.6 km/h Distance 21.42 km</desc>
<time>2011-09-24T11:10:55.40</time>
<name>5639</name>
</trkpt>
<trkpt lat="41.799938" lon="-1.811750">
<ele>1358.5</ele>
<speed>12.7</speed>
<course>75.5</course>
<desc>Speed 12.7 km/h Distance 21.43 km</desc>
<time>2011-09-24T11:10:56.40</time>
<name>5640</name>
</trkpt>
<trkpt lat="41.799947" lon="-1.811707">
<ele>1358.5</ele>
<speed>12.8</speed>
<course>73.7</course>
<desc>Speed 12.8 km/h Distance 21.43 km</desc>
<time>2011-09-24T11:10:57.40</time>
<name>5641</name>
</trkpt>
<trkpt lat="41.799955" lon="-1.811668">
<ele>1359.0</ele>
<speed>12.2</speed>
<course>80.5</course>
<desc>Speed 12.2 km/h Distance 21.43 km</desc>
<time>2011-09-24T11:10:58.40</time>
<name>5642</name>
</trkpt>
<trkpt lat="41.799960" lon="-1.811628">
<ele>1359.0</ele>
<speed>11.7</speed>
<course>82.7</course>
<desc>Speed 11.7 km/h Distance 21.44 km</desc>
<time>2011-09-24T11:10:59.40</time>
<name>5643</name>
</trkpt>
<trkpt lat="41.799963" lon="-1.811593">
<ele>1359.0</ele>
<speed>10.7</speed>
<course>78.6</course>
<desc>Speed 10.7 km/h Distance 21.44 km</desc>
<time>2011-09-24T11:11:00.40</time>
<name>5644</name>
</trkpt>
<trkpt lat="41.799968" lon="-1.811560">
<ele>1359.0</ele>
<speed>9.9</speed>
<course>82.4</course>
<desc>Speed 9.9 km/h Distance 21.44 km</desc>
<time>2011-09-24T11:11:01.40</time>
<name>5645</name>
</trkpt>
<trkpt lat="41.799972" lon="-1.811527">
<ele>1359.0</ele>
<speed>9.7</speed>
<course>86.0</course>
<desc>Speed 9.7 km/h Distance 21.45 km</desc>
<time>2011-09-24T11:11:02.40</time>
<name>5646</name>
</trkpt>
<trkpt lat="41.799973" lon="-1.811495">
<ele>1359.0</ele>
<speed>9.5</speed>
<course>69.5</course>
<desc>Speed 9.5 km/h Distance 21.45 km</desc>
<time>2011-09-24T11:11:03.39</time>
<name>5647</name>
</trkpt>
<trkpt lat="41.799982" lon="-1.811465">
<ele>1359.0</ele>
<speed>9.4</speed>
<course>78.0</course>
<desc>Speed 9.4 km/h Distance 21.45 km</desc>
<time>2011-09-24T11:11:04.39</time>
<name>5648</name>
</trkpt>
<trkpt lat="41.799987" lon="-1.811433">
<ele>1359.0</ele>
<speed>9.2</speed>
<course>78.6</course>
<desc>Speed 9.2 km/h Distance 21.45 km</desc>
<time>2011-09-24T11:11:05.39</time>
<name>5649</name>
</trkpt>
<trkpt lat="41.799992" lon="-1.811400">
<ele>1359.0</ele>
<speed>9.9</speed>
<course>83.3</course>
<desc>Speed 9.9 km/h Distance 21.46 km</desc>
<time>2011-09-24T11:11:06.39</time>
<name>5650</name>
</trkpt>
<trkpt lat="41.799995" lon="-1.811362">
<ele>1359.0</ele>
<speed>11.5</speed>
<course>84.3</course>
<desc>Speed 11.5 km/h Distance 21.46 km</desc>
<time>2011-09-24T11:11:07.39</time>
<name>5651</name>
</trkpt>
<trkpt lat="41.799998" lon="-1.811317">
<ele>1359.0</ele>
<speed>13.5</speed>
<course>87.3</course>
<desc>Speed 13.5 km/h Distance 21.46 km</desc>
<time>2011-09-24T11:11:08.39</time>
<name>5652</name>
</trkpt>
<trkpt lat="41.800000" lon="-1.811270">
<ele>1359.0</ele>
<speed>13.5</speed>
<course>92.8</course>
<desc>Speed 13.5 km/h Distance 21.47 km</desc>
<time>2011-09-24T11:11:09.39</time>
<name>5653</name>
</trkpt>
<trkpt lat="41.799998" lon="-1.811225">
<ele>1359.0</ele>
<speed>13.3</speed>
<course>95.7</course>
<desc>Speed 13.3 km/h Distance 21.47 km</desc>
<time>2011-09-24T11:11:10.39</time>
<name>5654</name>
</trkpt>
<trkpt lat="41.799995" lon="-1.811180">
<ele>1359.5</ele>
<speed>13.0</speed>
<course>98.8</course>
<desc>Speed 13.0 km/h Distance 21.47 km</desc>
<time>2011-09-24T11:11:11.39</time>
<name>5655</name>
</trkpt>
<trkpt lat="41.799990" lon="-1.811137">
<ele>1359.5</ele>
<speed>12.7</speed>
<course>93.2</course>
<desc>Speed 12.7 km/h Distance 21.48 km</desc>
<time>2011-09-24T11:11:12.38</time>
<name>5656</name>
</trkpt>
<trkpt lat="41.799988" lon="-1.811097">
<ele>1358.0</ele>
<speed>11.9</speed>
<course>102.1</course>
<desc>Speed 11.9 km/h Distance 21.48 km</desc>
<time>2011-09-24T11:11:13.38</time>
<name>5657</name>
</trkpt>
<trkpt lat="41.799982" lon="-1.811055">
<ele>1358.5</ele>
<speed>11.9</speed>
<course>103.1</course>
<desc>Speed 11.9 km/h Distance 21.49 km</desc>
<time>2011-09-24T11:11:14.38</time>
<name>5658</name>
</trkpt>
<trkpt lat="41.799975" lon="-1.811017">
<ele>1358.5</ele>
<speed>11.4</speed>
<course>102.6</course>
<desc>Speed 11.4 km/h Distance 21.49 km</desc>
<time>2011-09-24T11:11:15.38</time>
<name>5659</name>
</trkpt>
<trkpt lat="41.799970" lon="-1.810987">
<ele>1359.0</ele>
<speed>8.9</speed>
<course>111.6</course>
<desc>Speed 8.9 km/h Distance 21.49 km</desc>
<time>2011-09-24T11:11:16.38</time>
<name>5660</name>
</trkpt>
<trkpt lat="41.799962" lon="-1.810958">
<ele>1359.0</ele>
<speed>9.1</speed>
<course>109.7</course>
<desc>Speed 9.1 km/h Distance 21.49 km</desc>
<time>2011-09-24T11:11:17.39</time>
<name>5661</name>
</trkpt>
<trkpt lat="41.799955" lon="-1.810933">
<ele>1359.0</ele>
<speed>7.2</speed>
<course>106.0</course>
<desc>Speed 7.2 km/h Distance 21.50 km</desc>
<time>2011-09-24T11:11:18.39</time>
<name>5662</name>
</trkpt>
<trkpt lat="41.799950" lon="-1.810910">
<ele>1358.5</ele>
<speed>6.9</speed>
<course>106.6</course>
<desc>Speed 6.9 km/h Distance 21.50 km</desc>
<time>2011-09-24T11:11:19.39</time>
<name>5663</name>
</trkpt>
<trkpt lat="41.799947" lon="-1.810895">
<ele>1357.5</ele>
<speed>4.6</speed>
<course>108.5</course>
<desc>Speed 4.6 km/h Distance 21.50 km</desc>
<time>2011-09-24T11:11:20.38</time>
<name>5664</name>
</trkpt>
<trkpt lat="41.799942" lon="-1.810875">
<ele>1357.0</ele>
<speed>5.4</speed>
<course>119.2</course>
<desc>Speed 5.4 km/h Distance 21.50 km</desc>
<time>2011-09-24T11:11:21.38</time>
<name>5665</name>
</trkpt>
<trkpt lat="41.799933" lon="-1.810855">
<ele>1357.0</ele>
<speed>6.3</speed>
<course>110.1</course>
<desc>Speed 6.3 km/h Distance 21.50 km</desc>
<time>2011-09-24T11:11:22.38</time>
<name>5666</name>
</trkpt>
<trkpt lat="41.799928" lon="-1.810837">
<ele>1356.5</ele>
<speed>5.2</speed>
<course>115.6</course>
<desc>Speed 5.2 km/h Distance 21.50 km</desc>
<time>2011-09-24T11:11:23.38</time>
<name>5667</name>
</trkpt>
<trkpt lat="41.799920" lon="-1.810813">
<ele>1356.5</ele>
<speed>7.4</speed>
<course>107.7</course>
<desc>Speed 7.4 km/h Distance 21.51 km</desc>
<time>2011-09-24T11:11:24.38</time>
<name>5668</name>
</trkpt>
<trkpt lat="41.799912" lon="-1.810778">
<ele>1357.0</ele>
<speed>10.3</speed>
<course>111.4</course>
<desc>Speed 10.3 km/h Distance 21.51 km</desc>
<time>2011-09-24T11:11:25.37</time>
<name>5669</name>
</trkpt>
<trkpt lat="41.799900" lon="-1.810738">
<ele>1357.5</ele>
<speed>11.7</speed>
<course>121.4</course>
<desc>Speed 11.7 km/h Distance 21.51 km</desc>
<time>2011-09-24T11:11:26.37</time>
<name>5670</name>
</trkpt>
<trkpt lat="41.799883" lon="-1.810702">
<ele>1358.0</ele>
<speed>11.7</speed>
<course>108.5</course>
<desc>Speed 11.7 km/h Distance 21.52 km</desc>
<time>2011-09-24T11:11:27.38</time>
<name>5671</name>
</trkpt>
<trkpt lat="41.799875" lon="-1.810668">
<ele>1356.0</ele>
<speed>9.8</speed>
<course>111.9</course>
<desc>Speed 9.8 km/h Distance 21.52 km</desc>
<time>2011-09-24T11:11:28.37</time>
<name>5672</name>
</trkpt>
<trkpt lat="41.799865" lon="-1.810635">
<ele>1356.0</ele>
<speed>9.4</speed>
<course>119.5</course>
<desc>Speed 9.4 km/h Distance 21.52 km</desc>
<time>2011-09-24T11:11:29.37</time>
<name>5673</name>
</trkpt>
<trkpt lat="41.799852" lon="-1.810603">
<ele>1356.0</ele>
<speed>10.0</speed>
<course>123.9</course>
<desc>Speed 10.0 km/h Distance 21.53 km</desc>
<time>2011-09-24T11:11:30.37</time>
<name>5674</name>
</trkpt>
<trkpt lat="41.799837" lon="-1.810573">
<ele>1357.0</ele>
<speed>10.5</speed>
<course>108.5</course>
<desc>Speed 10.5 km/h Distance 21.53 km</desc>
<time>2011-09-24T11:11:31.38</time>
<name>5675</name>
</trkpt>
<trkpt lat="41.799828" lon="-1.810540">
<ele>1356.5</ele>
<speed>8.9</speed>
<course>122.4</course>
<desc>Speed 8.9 km/h Distance 21.53 km</desc>
<time>2011-09-24T11:11:32.37</time>
<name>5676</name>
</trkpt>
<trkpt lat="41.799813" lon="-1.810508">
<ele>1357.5</ele>
<speed>10.3</speed>
<course>116.3</course>
<desc>Speed 10.3 km/h Distance 21.53 km</desc>
<time>2011-09-24T11:11:33.37</time>
<name>5677</name>
</trkpt>
<trkpt lat="41.799802" lon="-1.810477">
<ele>1357.5</ele>
<speed>9.6</speed>
<course>120.8</course>
<desc>Speed 9.6 km/h Distance 21.54 km</desc>
<time>2011-09-24T11:11:34.37</time>
<name>5678</name>
</trkpt>
<trkpt lat="41.799788" lon="-1.810447">
<ele>1358.0</ele>
<speed>9.5</speed>
<course>129.6</course>
<desc>Speed 9.5 km/h Distance 21.54 km</desc>
<time>2011-09-24T11:11:35.36</time>
<name>5679</name>
</trkpt>
<trkpt lat="41.799775" lon="-1.810425">
<ele>1357.5</ele>
<speed>7.8</speed>
<course>130.8</course>
<desc>Speed 7.8 km/h Distance 21.54 km</desc>
<time>2011-09-24T11:11:36.37</time>
<name>5680</name>
</trkpt>
<trkpt lat="41.799760" lon="-1.810402">
<ele>1358.5</ele>
<speed>9.1</speed>
<course>131.8</course>
<desc>Speed 9.1 km/h Distance 21.55 km</desc>
<time>2011-09-24T11:11:37.37</time>
<name>5681</name>
</trkpt>
<trkpt lat="41.799747" lon="-1.810382">
<ele>1357.5</ele>
<speed>8.1</speed>
<course>123.9</course>
<desc>Speed 8.1 km/h Distance 21.55 km</desc>
<time>2011-09-24T11:11:38.36</time>
<name>5682</name>
</trkpt>
<trkpt lat="41.799733" lon="-1.810355">
<ele>1357.0</ele>
<speed>9.0</speed>
<course>119.4</course>
<desc>Speed 9.0 km/h Distance 21.55 km</desc>
<time>2011-09-24T11:11:39.36</time>
<name>5683</name>
</trkpt>
<trkpt lat="41.799720" lon="-1.810323">
<ele>1357.0</ele>
<speed>10.7</speed>
<course>121.1</course>
<desc>Speed 10.7 km/h Distance 21.55 km</desc>
<time>2011-09-24T11:11:40.36</time>
<name>5684</name>
</trkpt>
<trkpt lat="41.799705" lon="-1.810290">
<ele>1357.0</ele>
<speed>10.7</speed>
<course>128.3</course>
<desc>Speed 10.7 km/h Distance 21.56 km</desc>
<time>2011-09-24T11:11:41.36</time>
<name>5685</name>
</trkpt>
<trkpt lat="41.799688" lon="-1.810262">
<ele>1357.0</ele>
<speed>10.5</speed>
<course>122.4</course>
<desc>Speed 10.5 km/h Distance 21.56 km</desc>
<time>2011-09-24T11:11:42.36</time>
<name>5686</name>
</trkpt>
<trkpt lat="41.799673" lon="-1.810230">
<ele>1357.0</ele>
<speed>10.4</speed>
<course>121.1</course>
<desc>Speed 10.4 km/h Distance 21.56 km</desc>
<time>2011-09-24T11:11:43.36</time>
<name>5687</name>
</trkpt>
<trkpt lat="41.799658" lon="-1.810197">
<ele>1357.0</ele>
<speed>10.5</speed>
<course>127.1</course>
<desc>Speed 10.5 km/h Distance 21.57 km</desc>
<time>2011-09-24T11:11:44.36</time>
<name>5688</name>
</trkpt>
<trkpt lat="41.799643" lon="-1.810170">
<ele>1356.0</ele>
<speed>9.5</speed>
<course>134.6</course>
<desc>Speed 9.5 km/h Distance 21.57 km</desc>
<time>2011-09-24T11:11:45.36</time>
<name>5689</name>
</trkpt>
<trkpt lat="41.799625" lon="-1.810145">
<ele>1356.0</ele>
<speed>9.7</speed>
<course>137.1</course>
<desc>Speed 9.7 km/h Distance 21.57 km</desc>
<time>2011-09-24T11:11:46.36</time>
<name>5690</name>
</trkpt>
<trkpt lat="41.799605" lon="-1.810120">
<ele>1356.0</ele>
<speed>10.1</speed>
<course>131.0</course>
<desc>Speed 10.1 km/h Distance 21.57 km</desc>
<time>2011-09-24T11:11:47.36</time>
<name>5691</name>
</trkpt>
<trkpt lat="41.799587" lon="-1.810092">
<ele>1356.0</ele>
<speed>10.4</speed>
<course>131.8</course>
<desc>Speed 10.4 km/h Distance 21.58 km</desc>
<time>2011-09-24T11:11:48.35</time>
<name>5692</name>
</trkpt>
<trkpt lat="41.799567" lon="-1.810062">
<ele>1356.0</ele>
<speed>11.4</speed>
<course>133.4</course>
<desc>Speed 11.4 km/h Distance 21.58 km</desc>
<time>2011-09-24T11:11:49.36</time>
<name>5693</name>
</trkpt>
<trkpt lat="41.799547" lon="-1.810033">
<ele>1356.0</ele>
<speed>10.9</speed>
<course>130.0</course>
<desc>Speed 10.9 km/h Distance 21.58 km</desc>
<time>2011-09-24T11:11:50.36</time>
<name>5694</name>
</trkpt>
<trkpt lat="41.799530" lon="-1.810007">
<ele>1355.5</ele>
<speed>9.6</speed>
<course>136.5</course>
<desc>Speed 9.6 km/h Distance 21.59 km</desc>
<time>2011-09-24T11:11:51.35</time>
<name>5695</name>
</trkpt>
<trkpt lat="41.799512" lon="-1.809983">
<ele>1355.0</ele>
<speed>9.6</speed>
<course>139.0</course>
<desc>Speed 9.6 km/h Distance 21.59 km</desc>
<time>2011-09-24T11:11:52.36</time>
<name>5696</name>
</trkpt>
<trkpt lat="41.799492" lon="-1.809960">
<ele>1355.0</ele>
<speed>9.6</speed>
<course>132.7</course>
<desc>Speed 9.6 km/h Distance 21.59 km</desc>
<time>2011-09-24T11:11:53.36</time>
<name>5697</name>
</trkpt>
<trkpt lat="41.799473" lon="-1.809933">
<ele>1355.5</ele>
<speed>10.4</speed>
<course>130.0</course>
<desc>Speed 10.4 km/h Distance 21.60 km</desc>
<time>2011-09-24T11:11:54.36</time>
<name>5698</name>
</trkpt>
<trkpt lat="41.799457" lon="-1.809907">
<ele>1355.0</ele>
<speed>10.0</speed>
<course>141.2</course>
<desc>Speed 10.0 km/h Distance 21.60 km</desc>
<time>2011-09-24T11:11:55.36</time>
<name>5699</name>
</trkpt>
<trkpt lat="41.799435" lon="-1.809883">
<ele>1355.5</ele>
<speed>10.0</speed>
<course>140.9</course>
<desc>Speed 10.0 km/h Distance 21.60 km</desc>
<time>2011-09-24T11:11:56.35</time>
<name>5700</name>
</trkpt>
<trkpt lat="41.799417" lon="-1.809863">
<ele>1355.0</ele>
<speed>9.4</speed>
<course>139.0</course>
<desc>Speed 9.4 km/h Distance 21.60 km</desc>
<time>2011-09-24T11:11:57.36</time>
<name>5701</name>
</trkpt>
<trkpt lat="41.799397" lon="-1.809840">
<ele>1355.5</ele>
<speed>9.0</speed>
<course>131.0</course>
<desc>Speed 9.0 km/h Distance 21.61 km</desc>
<time>2011-09-24T11:11:58.35</time>
<name>5702</name>
</trkpt>
<trkpt lat="41.799378" lon="-1.809812">
<ele>1355.5</ele>
<speed>10.0</speed>
<course>132.7</course>
<desc>Speed 10.0 km/h Distance 21.61 km</desc>
<time>2011-09-24T11:11:59.36</time>
<name>5703</name>
</trkpt>
<trkpt lat="41.799360" lon="-1.809785">
<ele>1356.0</ele>
<speed>9.8</speed>
<course>131.9</course>
<desc>Speed 9.8 km/h Distance 21.61 km</desc>
<time>2011-09-24T11:12:00.35</time>
<name>5704</name>
</trkpt>
<trkpt lat="41.799343" lon="-1.809760">
<ele>1355.5</ele>
<speed>9.0</speed>
<course>132.9</course>
<desc>Speed 9.0 km/h Distance 21.62 km</desc>
<time>2011-09-24T11:12:01.34</time>
<name>5705</name>
</trkpt>
<trkpt lat="41.799328" lon="-1.809738">
<ele>1354.5</ele>
<speed>8.7</speed>
<course>135.9</course>
<desc>Speed 8.7 km/h Distance 21.62 km</desc>
<time>2011-09-24T11:12:02.34</time>
<name>5706</name>
</trkpt>
<trkpt lat="41.799312" lon="-1.809717">
<ele>1354.5</ele>
<speed>8.7</speed>
<course>131.8</course>
<desc>Speed 8.7 km/h Distance 21.62 km</desc>
<time>2011-09-24T11:12:03.34</time>
<name>5707</name>
</trkpt>
<trkpt lat="41.799295" lon="-1.809692">
<ele>1354.5</ele>
<speed>9.6</speed>
<course>134.5</course>
<desc>Speed 9.6 km/h Distance 21.62 km</desc>
<time>2011-09-24T11:12:04.34</time>
<name>5708</name>
</trkpt>
<trkpt lat="41.799277" lon="-1.809667">
<ele>1354.5</ele>
<speed>9.9</speed>
<course>138.2</course>
<desc>Speed 9.9 km/h Distance 21.63 km</desc>
<time>2011-09-24T11:12:05.34</time>
<name>5709</name>
</trkpt>
<trkpt lat="41.799260" lon="-1.809647">
<ele>1353.5</ele>
<speed>8.4</speed>
<course>143.3</course>
<desc>Speed 8.4 km/h Distance 21.63 km</desc>
<time>2011-09-24T11:12:06.34</time>
<name>5710</name>
</trkpt>
<trkpt lat="41.799242" lon="-1.809628">
<ele>1353.0</ele>
<speed>9.2</speed>
<course>137.1</course>
<desc>Speed 9.2 km/h Distance 21.63 km</desc>
<time>2011-09-24T11:12:07.35</time>
<name>5711</name>
</trkpt>
<trkpt lat="41.799222" lon="-1.809603">
<ele>1352.5</ele>
<speed>10.2</speed>
<course>137.8</course>
<desc>Speed 10.2 km/h Distance 21.64 km</desc>
<time>2011-09-24T11:12:08.34</time>
<name>5712</name>
</trkpt>
<trkpt lat="41.799198" lon="-1.809575">
<ele>1352.5</ele>
<speed>11.8</speed>
<course>137.5</course>
<desc>Speed 11.8 km/h Distance 21.64 km</desc>
<time>2011-09-24T11:12:09.35</time>
<name>5713</name>
</trkpt>
<trkpt lat="41.799177" lon="-1.809548">
<ele>1352.0</ele>
<speed>11.6</speed>
<course>137.5</course>
<desc>Speed 11.6 km/h Distance 21.64 km</desc>
<time>2011-09-24T11:12:10.34</time>
<name>5714</name>
</trkpt>
<trkpt lat="41.799155" lon="-1.809522">
<ele>1352.0</ele>
<speed>11.6</speed>
<course>139.3</course>
<desc>Speed 11.6 km/h Distance 21.65 km</desc>
<time>2011-09-24T11:12:11.34</time>
<name>5715</name>
</trkpt>
<trkpt lat="41.799133" lon="-1.809497">
<ele>1352.5</ele>
<speed>11.0</speed>
<course>143.3</course>
<desc>Speed 11.0 km/h Distance 21.65 km</desc>
<time>2011-09-24T11:12:12.33</time>
<name>5716</name>
</trkpt>
<trkpt lat="41.799108" lon="-1.809472">
<ele>1353.0</ele>
<speed>12.1</speed>
<course>137.8</course>
<desc>Speed 12.1 km/h Distance 21.65 km</desc>
<time>2011-09-24T11:12:13.33</time>
<name>5717</name>
</trkpt>
<trkpt lat="41.799085" lon="-1.809443">
<ele>1353.0</ele>
<speed>12.0</speed>
<course>147.4</course>
<desc>Speed 12.0 km/h Distance 21.66 km</desc>
<time>2011-09-24T11:12:14.33</time>
<name>5718</name>
</trkpt>
<trkpt lat="41.799062" lon="-1.809423">
<ele>1352.5</ele>
<speed>10.9</speed>
<course>150.8</course>
<desc>Speed 10.9 km/h Distance 21.66 km</desc>
<time>2011-09-24T11:12:15.34</time>
<name>5719</name>
</trkpt>
<trkpt lat="41.799035" lon="-1.809403">
<ele>1353.0</ele>
<speed>11.9</speed>
<course>143.3</course>
<desc>Speed 11.9 km/h Distance 21.66 km</desc>
<time>2011-09-24T11:12:16.33</time>
<name>5720</name>
</trkpt>
<trkpt lat="41.799010" lon="-1.809378">
<ele>1353.5</ele>
<speed>11.4</speed>
<course>139.5</course>
<desc>Speed 11.4 km/h Distance 21.67 km</desc>
<time>2011-09-24T11:12:17.34</time>
<name>5721</name>
</trkpt>
<trkpt lat="41.798987" lon="-1.809352">
<ele>1353.5</ele>
<speed>11.5</speed>
<course>141.1</course>
<desc>Speed 11.5 km/h Distance 21.67 km</desc>
<time>2011-09-24T11:12:18.34</time>
<name>5722</name>
</trkpt>
<trkpt lat="41.798967" lon="-1.809330">
<ele>1354.0</ele>
<speed>11.0</speed>
<course>147.1</course>
<desc>Speed 11.0 km/h Distance 21.67 km</desc>
<time>2011-09-24T11:12:19.33</time>
<name>5723</name>
</trkpt>
<trkpt lat="41.798942" lon="-1.809308">
<ele>1354.0</ele>
<speed>11.3</speed>
<course>147.5</course>
<desc>Speed 11.3 km/h Distance 21.67 km</desc>
<time>2011-09-24T11:12:20.33</time>
<name>5724</name>
</trkpt>
<trkpt lat="41.798918" lon="-1.809288">
<ele>1354.0</ele>
<speed>10.5</speed>
<course>153.6</course>
<desc>Speed 10.5 km/h Distance 21.68 km</desc>
<time>2011-09-24T11:12:21.34</time>
<name>5725</name>
</trkpt>
<trkpt lat="41.798893" lon="-1.809272">
<ele>1354.5</ele>
<speed>10.9</speed>
<course>157.0</course>
<desc>Speed 10.9 km/h Distance 21.68 km</desc>
<time>2011-09-24T11:12:22.33</time>
<name>5726</name>
</trkpt>
<trkpt lat="41.798870" lon="-1.809258">
<ele>1354.0</ele>
<speed>9.7</speed>
<course>149.6</course>
<desc>Speed 9.7 km/h Distance 21.68 km</desc>
<time>2011-09-24T11:12:23.32</time>
<name>5727</name>
</trkpt>
<trkpt lat="41.798847" lon="-1.809240">
<ele>1354.0</ele>
<speed>10.6</speed>
<course>140.8</course>
<desc>Speed 10.6 km/h Distance 21.69 km</desc>
<time>2011-09-24T11:12:24.33</time>
<name>5728</name>
</trkpt>
<trkpt lat="41.798828" lon="-1.809220">
<ele>1354.0</ele>
<speed>9.5</speed>
<course>136.5</course>
<desc>Speed 9.5 km/h Distance 21.69 km</desc>
<time>2011-09-24T11:12:25.33</time>
<name>5729</name>
</trkpt>
<trkpt lat="41.798810" lon="-1.809197">
<ele>1354.0</ele>
<speed>9.8</speed>
<course>143.3</course>
<desc>Speed 9.8 km/h Distance 21.69 km</desc>
<time>2011-09-24T11:12:26.33</time>
<name>5730</name>
</trkpt>
<trkpt lat="41.798792" lon="-1.809178">
<ele>1354.0</ele>
<speed>8.9</speed>
<course>148.2</course>
<desc>Speed 8.9 km/h Distance 21.69 km</desc>
<time>2011-09-24T11:12:27.33</time>
<name>5731</name>
</trkpt>
<trkpt lat="41.798772" lon="-1.809162">
<ele>1354.0</ele>
<speed>9.0</speed>
<course>148.1</course>
<desc>Speed 9.0 km/h Distance 21.70 km</desc>
<time>2011-09-24T11:12:28.33</time>
<name>5732</name>
</trkpt>
<trkpt lat="41.798752" lon="-1.809145">
<ele>1353.5</ele>
<speed>8.8</speed>
<course>148.5</course>
<desc>Speed 8.8 km/h Distance 21.70 km</desc>
<time>2011-09-24T11:12:29.33</time>
<name>5733</name>
</trkpt>
<trkpt lat="41.798733" lon="-1.809130">
<ele>1353.0</ele>
<speed>8.5</speed>
<course>148.2</course>
<desc>Speed 8.5 km/h Distance 21.70 km</desc>
<time>2011-09-24T11:12:30.33</time>
<name>5734</name>
</trkpt>
<trkpt lat="41.798713" lon="-1.809113">
<ele>1353.0</ele>
<speed>9.5</speed>
<course>143.3</course>
<desc>Speed 9.5 km/h Distance 21.71 km</desc>
<time>2011-09-24T11:12:31.34</time>
<name>5735</name>
</trkpt>
<trkpt lat="41.798693" lon="-1.809093">
<ele>1353.5</ele>
<speed>10.0</speed>
<course>145.5</course>
<desc>Speed 10.0 km/h Distance 21.71 km</desc>
<time>2011-09-24T11:12:32.33</time>
<name>5736</name>
</trkpt>
<trkpt lat="41.798672" lon="-1.809073">
<ele>1353.5</ele>
<speed>9.6</speed>
<course>137.1</course>
<desc>Speed 9.6 km/h Distance 21.71 km</desc>
<time>2011-09-24T11:12:33.33</time>
<name>5737</name>
</trkpt>
<trkpt lat="41.798652" lon="-1.809048">
<ele>1353.5</ele>
<speed>10.1</speed>
<course>131.8</course>
<desc>Speed 10.1 km/h Distance 21.71 km</desc>
<time>2011-09-24T11:12:34.32</time>
<name>5738</name>
</trkpt>
<trkpt lat="41.798635" lon="-1.809023">
<ele>1352.5</ele>
<speed>9.0</speed>
<course>137.5</course>
<desc>Speed 9.0 km/h Distance 21.72 km</desc>
<time>2011-09-24T11:12:35.32</time>
<name>5739</name>
</trkpt>
<trkpt lat="41.798613" lon="-1.808997">
<ele>1352.0</ele>
<speed>11.7</speed>
<course>141.5</course>
<desc>Speed 11.7 km/h Distance 21.72 km</desc>
<time>2011-09-24T11:12:36.32</time>
<name>5740</name>
</trkpt>
<trkpt lat="41.798588" lon="-1.808970">
<ele>1352.5</ele>
<speed>11.7</speed>
<course>136.2</course>
<desc>Speed 11.7 km/h Distance 21.72 km</desc>
<time>2011-09-24T11:12:37.31</time>
<name>5741</name>
</trkpt>
<trkpt lat="41.798565" lon="-1.808940">
<ele>1353.5</ele>
<speed>12.9</speed>
<course>137.8</course>
<desc>Speed 12.9 km/h Distance 21.73 km</desc>
<time>2011-09-24T11:12:38.31</time>
<name>5742</name>
</trkpt>
<trkpt lat="41.798542" lon="-1.808912">
<ele>1353.5</ele>
<speed>12.3</speed>
<course>136.2</course>
<desc>Speed 12.3 km/h Distance 21.73 km</desc>
<time>2011-09-24T11:12:39.31</time>
<name>5743</name>
</trkpt>
<trkpt lat="41.798518" lon="-1.808882">
<ele>1354.5</ele>
<speed>12.5</speed>
<course>128.1</course>
<desc>Speed 12.5 km/h Distance 21.73 km</desc>
<time>2011-09-24T11:12:40.31</time>
<name>5744</name>
</trkpt>
<trkpt lat="41.798495" lon="-1.808842">
<ele>1356.5</ele>
<speed>12.7</speed>
<course>129.2</course>
<desc>Speed 12.7 km/h Distance 21.74 km</desc>
<time>2011-09-24T11:12:41.32</time>
<name>5745</name>
</trkpt>
<trkpt lat="41.798472" lon="-1.808803">
<ele>1357.5</ele>
<speed>12.5</speed>
<course>132.5</course>
<desc>Speed 12.5 km/h Distance 21.74 km</desc>
<time>2011-09-24T11:12:42.31</time>
<name>5746</name>
</trkpt>
<trkpt lat="41.798447" lon="-1.808767">
<ele>1359.0</ele>
<speed>12.4</speed>
<course>125.1</course>
<desc>Speed 12.4 km/h Distance 21.75 km</desc>
<time>2011-09-24T11:12:43.31</time>
<name>5747</name>
</trkpt>
<trkpt lat="41.798428" lon="-1.808732">
<ele>1359.5</ele>
<speed>12.7</speed>
<course>129.7</course>
<desc>Speed 12.7 km/h Distance 21.75 km</desc>
<time>2011-09-24T11:12:44.31</time>
<name>5748</name>
</trkpt>
<trkpt lat="41.798407" lon="-1.808697">
<ele>1359.5</ele>
<speed>11.7</speed>
<course>132.5</course>
<desc>Speed 11.7 km/h Distance 21.75 km</desc>
<time>2011-09-24T11:12:45.31</time>
<name>5749</name>
</trkpt>
<trkpt lat="41.798385" lon="-1.808665">
<ele>1359.5</ele>
<speed>11.4</speed>
<course>129.7</course>
<desc>Speed 11.4 km/h Distance 21.76 km</desc>
<time>2011-09-24T11:12:46.31</time>
<name>5750</name>
</trkpt>
<trkpt lat="41.798363" lon="-1.808630">
<ele>1360.0</ele>
<speed>11.1</speed>
<course>133.0</course>
<desc>Speed 11.1 km/h Distance 21.76 km</desc>
<time>2011-09-24T11:12:47.31</time>
<name>5751</name>
</trkpt>
<trkpt lat="41.798337" lon="-1.808592">
<ele>1362.0</ele>
<speed>12.3</speed>
<course>135.7</course>
<desc>Speed 12.3 km/h Distance 21.77 km</desc>
<time>2011-09-24T11:12:48.31</time>
<name>5752</name>
</trkpt>
<trkpt lat="41.798315" lon="-1.808563">
<ele>1361.5</ele>
<speed>12.2</speed>
<course>136.0</course>
<desc>Speed 12.2 km/h Distance 21.77 km</desc>
<time>2011-09-24T11:12:49.31</time>
<name>5753</name>
</trkpt>
<trkpt lat="41.798287" lon="-1.808527">
<ele>1363.0</ele>
<speed>12.6</speed>
<course>134.7</course>
<desc>Speed 12.6 km/h Distance 21.77 km</desc>
<time>2011-09-24T11:12:50.31</time>
<name>5754</name>
</trkpt>
<trkpt lat="41.798263" lon="-1.808495">
<ele>1363.5</ele>
<speed>13.0</speed>
<course>140.4</course>
<desc>Speed 13.0 km/h Distance 21.78 km</desc>
<time>2011-09-24T11:12:51.32</time>
<name>5755</name>
</trkpt>
<trkpt lat="41.798233" lon="-1.808462">
<ele>1364.5</ele>
<speed>13.5</speed>
<course>135.6</course>
<desc>Speed 13.5 km/h Distance 21.78 km</desc>
<time>2011-09-24T11:12:52.30</time>
<name>5756</name>
</trkpt>
<trkpt lat="41.798207" lon="-1.808427">
<ele>1365.0</ele>
<speed>14.5</speed>
<course>139.0</course>
<desc>Speed 14.5 km/h Distance 21.79 km</desc>
<time>2011-09-24T11:12:53.31</time>
<name>5757</name>
</trkpt>
<trkpt lat="41.798177" lon="-1.808392">
<ele>1365.0</ele>
<speed>15.1</speed>
<course>133.0</course>
<desc>Speed 15.1 km/h Distance 21.79 km</desc>
<time>2011-09-24T11:12:54.31</time>
<name>5758</name>
</trkpt>
<trkpt lat="41.798150" lon="-1.808353">
<ele>1365.0</ele>
<speed>14.4</speed>
<course>135.6</course>
<desc>Speed 14.4 km/h Distance 21.79 km</desc>
<time>2011-09-24T11:12:55.30</time>
<name>5759</name>
</trkpt>
<trkpt lat="41.798123" lon="-1.808318">
<ele>1365.0</ele>
<speed>14.1</speed>
<course>145.1</course>
<desc>Speed 14.1 km/h Distance 21.80 km</desc>
<time>2011-09-24T11:12:56.30</time>
<name>5760</name>
</trkpt>
<trkpt lat="41.798097" lon="-1.808293">
<ele>1364.0</ele>
<speed>12.4</speed>
<course>141.5</course>
<desc>Speed 12.4 km/h Distance 21.80 km</desc>
<time>2011-09-24T11:12:57.31</time>
<name>5761</name>
</trkpt>
<trkpt lat="41.798072" lon="-1.808267">
<ele>1362.5</ele>
<speed>11.9</speed>
<course>136.0</course>
<desc>Speed 11.9 km/h Distance 21.81 km</desc>
<time>2011-09-24T11:12:58.31</time>
<name>5762</name>
</trkpt>
<trkpt lat="41.798043" lon="-1.808230">
<ele>1362.5</ele>
<speed>15.2</speed>
<course>139.0</course>
<desc>Speed 15.2 km/h Distance 21.81 km</desc>
<time>2011-09-24T11:12:59.30</time>
<name>5763</name>
</trkpt>
<trkpt lat="41.798013" lon="-1.808195">
<ele>1362.5</ele>
<speed>15.2</speed>
<course>137.4</course>
<desc>Speed 15.2 km/h Distance 21.81 km</desc>
<time>2011-09-24T11:13:00.29</time>
<name>5764</name>
</trkpt>
<trkpt lat="41.797985" lon="-1.808160">
<ele>1363.0</ele>
<speed>15.0</speed>
<course>135.6</course>
<desc>Speed 15.0 km/h Distance 21.82 km</desc>
<time>2011-09-24T11:13:01.29</time>
<name>5765</name>
</trkpt>
<trkpt lat="41.797958" lon="-1.808125">
<ele>1363.0</ele>
<speed>14.5</speed>
<course>135.6</course>
<desc>Speed 14.5 km/h Distance 21.82 km</desc>
<time>2011-09-24T11:13:02.30</time>
<name>5766</name>
</trkpt>
<trkpt lat="41.797932" lon="-1.808090">
<ele>1363.0</ele>
<speed>14.3</speed>
<course>133.8</course>
<desc>Speed 14.3 km/h Distance 21.83 km</desc>
<time>2011-09-24T11:13:03.30</time>
<name>5767</name>
</trkpt>
<trkpt lat="41.797907" lon="-1.808055">
<ele>1363.0</ele>
<speed>14.0</speed>
<course>137.3</course>
<desc>Speed 14.0 km/h Distance 21.83 km</desc>
<time>2011-09-24T11:13:04.30</time>
<name>5768</name>
</trkpt>
<trkpt lat="41.797878" lon="-1.808020">
<ele>1363.5</ele>
<speed>14.4</speed>
<course>138.4</course>
<desc>Speed 14.4 km/h Distance 21.84 km</desc>
<time>2011-09-24T11:13:05.29</time>
<name>5769</name>
</trkpt>
<trkpt lat="41.797852" lon="-1.807988">
<ele>1363.5</ele>
<speed>14.1</speed>
<course>137.0</course>
<desc>Speed 14.1 km/h Distance 21.84 km</desc>
<time>2011-09-24T11:13:06.29</time>
<name>5770</name>
</trkpt>
<trkpt lat="41.797825" lon="-1.807955">
<ele>1363.5</ele>
<speed>13.5</speed>
<course>145.0</course>
<desc>Speed 13.5 km/h Distance 21.84 km</desc>
<time>2011-09-24T11:13:07.29</time>
<name>5771</name>
</trkpt>
<trkpt lat="41.797797" lon="-1.807928">
<ele>1364.0</ele>
<speed>13.2</speed>
<course>149.5</course>
<desc>Speed 13.2 km/h Distance 21.85 km</desc>
<time>2011-09-24T11:13:08.30</time>
<name>5772</name>
</trkpt>
<trkpt lat="41.797765" lon="-1.807903">
<ele>1364.0</ele>
<speed>14.7</speed>
<course>144.9</course>
<desc>Speed 14.7 km/h Distance 21.85 km</desc>
<time>2011-09-24T11:13:09.29</time>
<name>5773</name>
</trkpt>
<trkpt lat="41.797737" lon="-1.807877">
<ele>1364.5</ele>
<speed>13.6</speed>
<course>131.1</course>
<desc>Speed 13.6 km/h Distance 21.86 km</desc>
<time>2011-09-24T11:13:10.29</time>
<name>5774</name>
</trkpt>
<trkpt lat="41.797715" lon="-1.807843">
<ele>1364.5</ele>
<speed>13.8</speed>
<course>140.0</course>
<desc>Speed 13.8 km/h Distance 21.86 km</desc>
<time>2011-09-24T11:13:11.28</time>
<name>5775</name>
</trkpt>
<trkpt lat="41.797688" lon="-1.807813">
<ele>1364.5</ele>
<speed>13.8</speed>
<course>141.5</course>
<desc>Speed 13.8 km/h Distance 21.86 km</desc>
<time>2011-09-24T11:13:12.28</time>
<name>5776</name>
</trkpt>
<trkpt lat="41.797663" lon="-1.807787">
<ele>1364.5</ele>
<speed>13.3</speed>
<course>145.1</course>
<desc>Speed 13.3 km/h Distance 21.87 km</desc>
<time>2011-09-24T11:13:13.28</time>
<name>5777</name>
</trkpt>
<trkpt lat="41.797637" lon="-1.807762">
<ele>1365.0</ele>
<speed>13.0</speed>
<course>143.3</course>
<desc>Speed 13.0 km/h Distance 21.87 km</desc>
<time>2011-09-24T11:13:14.28</time>
<name>5778</name>
</trkpt>
<trkpt lat="41.797608" lon="-1.807733">
<ele>1365.5</ele>
<speed>14.1</speed>
<course>161.6</course>
<desc>Speed 14.1 km/h Distance 21.87 km</desc>
<time>2011-09-24T11:13:15.28</time>
<name>5779</name>
</trkpt>
<trkpt lat="41.797578" lon="-1.807720">
<ele>1366.0</ele>
<speed>12.4</speed>
<course>150.8</course>
<desc>Speed 12.4 km/h Distance 21.88 km</desc>
<time>2011-09-24T11:13:16.28</time>
<name>5780</name>
</trkpt>
<trkpt lat="41.797545" lon="-1.807695">
<ele>1367.0</ele>
<speed>15.4</speed>
<course>144.8</course>
<desc>Speed 15.4 km/h Distance 21.88 km</desc>
<time>2011-09-24T11:13:17.28</time>
<name>5781</name>
</trkpt>
<trkpt lat="41.797513" lon="-1.807665">
<ele>1367.5</ele>
<speed>14.8</speed>
<course>152.5</course>
<desc>Speed 14.8 km/h Distance 21.89 km</desc>
<time>2011-09-24T11:13:18.28</time>
<name>5782</name>
</trkpt>
<trkpt lat="41.797480" lon="-1.807642">
<ele>1367.5</ele>
<speed>14.4</speed>
<course>157.7</course>
<desc>Speed 14.4 km/h Distance 21.89 km</desc>
<time>2011-09-24T11:13:19.27</time>
<name>5783</name>
</trkpt>
<trkpt lat="41.797447" lon="-1.807623">
<ele>1367.5</ele>
<speed>14.6</speed>
<course>159.6</course>
<desc>Speed 14.6 km/h Distance 21.89 km</desc>
<time>2011-09-24T11:13:20.28</time>
<name>5784</name>
</trkpt>
<trkpt lat="41.797410" lon="-1.807605">
<ele>1368.0</ele>
<speed>14.8</speed>
<course>152.5</course>
<desc>Speed 14.8 km/h Distance 21.90 km</desc>
<time>2011-09-24T11:13:21.27</time>
<name>5785</name>
</trkpt>
<trkpt lat="41.797377" lon="-1.807582">
<ele>1369.0</ele>
<speed>14.5</speed>
<course>140.0</course>
<desc>Speed 14.5 km/h Distance 21.90 km</desc>
<time>2011-09-24T11:13:22.27</time>
<name>5786</name>
</trkpt>
<trkpt lat="41.797350" lon="-1.807552">
<ele>1368.5</ele>
<speed>13.3</speed>
<course>146.5</course>
<desc>Speed 13.3 km/h Distance 21.91 km</desc>
<time>2011-09-24T11:13:23.27</time>
<name>5787</name>
</trkpt>
<trkpt lat="41.797320" lon="-1.807525">
<ele>1368.5</ele>
<speed>13.9</speed>
<course>157.9</course>
<desc>Speed 13.9 km/h Distance 21.91 km</desc>
<time>2011-09-24T11:13:24.27</time>
<name>5788</name>
</trkpt>
<trkpt lat="41.797283" lon="-1.807505">
<ele>1368.0</ele>
<speed>14.9</speed>
<course>163.0</course>
<desc>Speed 14.9 km/h Distance 21.91 km</desc>
<time>2011-09-24T11:13:25.27</time>
<name>5789</name>
</trkpt>
<trkpt lat="41.797247" lon="-1.807490">
<ele>1368.5</ele>
<speed>15.1</speed>
<course>163.0</course>
<desc>Speed 15.1 km/h Distance 21.92 km</desc>
<time>2011-09-24T11:13:26.26</time>
<name>5790</name>
</trkpt>
<trkpt lat="41.797210" lon="-1.807475">
<ele>1369.0</ele>
<speed>15.1</speed>
<course>164.4</course>
<desc>Speed 15.1 km/h Distance 21.92 km</desc>
<time>2011-09-24T11:13:27.26</time>
<name>5791</name>
</trkpt>
<trkpt lat="41.797170" lon="-1.807460">
<ele>1369.0</ele>
<speed>15.5</speed>
<course>165.4</course>
<desc>Speed 15.5 km/h Distance 21.93 km</desc>
<time>2011-09-24T11:13:28.27</time>
<name>5792</name>
</trkpt>
<trkpt lat="41.797132" lon="-1.807447">
<ele>1369.5</ele>
<speed>15.6</speed>
<course>174.7</course>
<desc>Speed 15.6 km/h Distance 21.93 km</desc>
<time>2011-09-24T11:13:29.26</time>
<name>5793</name>
</trkpt>
<trkpt lat="41.797092" lon="-1.807442">
<ele>1369.5</ele>
<speed>15.4</speed>
<course>172.2</course>
<desc>Speed 15.4 km/h Distance 21.94 km</desc>
<time>2011-09-24T11:13:30.26</time>
<name>5794</name>
</trkpt>
<trkpt lat="41.797055" lon="-1.807435">
<ele>1369.5</ele>
<speed>15.0</speed>
<course>178.8</course>
<desc>Speed 15.0 km/h Distance 21.94 km</desc>
<time>2011-09-24T11:13:31.26</time>
<name>5795</name>
</trkpt>
<trkpt lat="41.797015" lon="-1.807435">
<ele>1370.0</ele>
<speed>15.2</speed>
<course>183.7</course>
<desc>Speed 15.2 km/h Distance 21.95 km</desc>
<time>2011-09-24T11:13:32.26</time>
<name>5796</name>
</trkpt>
<trkpt lat="41.796975" lon="-1.807438">
<ele>1371.0</ele>
<speed>15.4</speed>
<course>185.9</course>
<desc>Speed 15.4 km/h Distance 21.95 km</desc>
<time>2011-09-24T11:13:33.26</time>
<name>5797</name>
</trkpt>
<trkpt lat="41.796938" lon="-1.807443">
<ele>1371.5</ele>
<speed>15.2</speed>
<course>185.9</course>
<desc>Speed 15.2 km/h Distance 21.95 km</desc>
<time>2011-09-24T11:13:34.26</time>
<name>5798</name>
</trkpt>
<trkpt lat="41.796902" lon="-1.807448">
<ele>1372.0</ele>
<speed>14.9</speed>
<course>189.2</course>
<desc>Speed 14.9 km/h Distance 21.96 km</desc>
<time>2011-09-24T11:13:35.25</time>
<name>5799</name>
</trkpt>
<trkpt lat="41.796863" lon="-1.807457">
<ele>1372.0</ele>
<speed>15.1</speed>
<course>191.4</course>
<desc>Speed 15.1 km/h Distance 21.96 km</desc>
<time>2011-09-24T11:13:36.26</time>
<name>5800</name>
</trkpt>
<trkpt lat="41.796827" lon="-1.807467">
<ele>1372.5</ele>
<speed>15.4</speed>
<course>195.2</course>
<desc>Speed 15.4 km/h Distance 21.97 km</desc>
<time>2011-09-24T11:13:37.25</time>
<name>5801</name>
</trkpt>
<trkpt lat="41.796790" lon="-1.807480">
<ele>1372.5</ele>
<speed>15.0</speed>
<course>193.3</course>
<desc>Speed 15.0 km/h Distance 21.97 km</desc>
<time>2011-09-24T11:13:38.25</time>
<name>5802</name>
</trkpt>
<trkpt lat="41.796753" lon="-1.807492">
<ele>1372.5</ele>
<speed>15.0</speed>
<course>194.0</course>
<desc>Speed 15.0 km/h Distance 21.98 km</desc>
<time>2011-09-24T11:13:39.25</time>
<name>5803</name>
</trkpt>
<trkpt lat="41.796718" lon="-1.807503">
<ele>1373.0</ele>
<speed>14.7</speed>
<course>195.8</course>
<desc>Speed 14.7 km/h Distance 21.98 km</desc>
<time>2011-09-24T11:13:40.25</time>
<name>5804</name>
</trkpt>
<trkpt lat="41.796683" lon="-1.807517">
<ele>1373.5</ele>
<speed>14.7</speed>
<course>199.5</course>
<desc>Speed 14.7 km/h Distance 21.98 km</desc>
<time>2011-09-24T11:13:41.34</time>
<name>5805</name>
</trkpt>
<trkpt lat="41.796648" lon="-1.807533">
<ele>1374.0</ele>
<speed>15.2</speed>
<course>195.2</course>
<desc>Speed 15.2 km/h Distance 21.99 km</desc>
<time>2011-09-24T11:13:42.24</time>
<name>5806</name>
</trkpt>
<trkpt lat="41.796612" lon="-1.807547">
<ele>1374.0</ele>
<speed>15.0</speed>
<course>195.2</course>
<desc>Speed 15.0 km/h Distance 21.99 km</desc>
<time>2011-09-24T11:13:43.25</time>
<name>5807</name>
</trkpt>
<trkpt lat="41.796575" lon="-1.807560">
<ele>1374.0</ele>
<speed>15.3</speed>
<course>199.6</course>
<desc>Speed 15.3 km/h Distance 22.00 km</desc>
<time>2011-09-24T11:13:44.24</time>
<name>5808</name>
</trkpt>
<trkpt lat="41.796540" lon="-1.807577">
<ele>1374.5</ele>
<speed>15.4</speed>
<course>202.4</course>
<desc>Speed 15.4 km/h Distance 22.00 km</desc>
<time>2011-09-24T11:13:45.24</time>
<name>5809</name>
</trkpt>
<trkpt lat="41.796507" lon="-1.807595">
<ele>1375.0</ele>
<speed>14.5</speed>
<course>204.8</course>
<desc>Speed 14.5 km/h Distance 22.00 km</desc>
<time>2011-09-24T11:13:46.24</time>
<name>5810</name>
</trkpt>
<trkpt lat="41.796472" lon="-1.807617">
<ele>1375.0</ele>
<speed>15.0</speed>
<course>202.3</course>
<desc>Speed 15.0 km/h Distance 22.01 km</desc>
<time>2011-09-24T11:13:47.23</time>
<name>5811</name>
</trkpt>
<trkpt lat="41.796438" lon="-1.807635">
<ele>1375.0</ele>
<speed>14.9</speed>
<course>201.3</course>
<desc>Speed 14.9 km/h Distance 22.01 km</desc>
<time>2011-09-24T11:13:48.23</time>
<name>5812</name>
</trkpt>
<trkpt lat="41.796403" lon="-1.807653">
<ele>1375.5</ele>
<speed>14.9</speed>
<course>204.1</course>
<desc>Speed 14.9 km/h Distance 22.02 km</desc>
<time>2011-09-24T11:13:49.23</time>
<name>5813</name>
</trkpt>
<trkpt lat="41.796370" lon="-1.807673">
<ele>1375.5</ele>
<speed>14.7</speed>
<course>205.2</course>
<desc>Speed 14.7 km/h Distance 22.02 km</desc>
<time>2011-09-24T11:13:50.23</time>
<name>5814</name>
</trkpt>
<trkpt lat="41.796338" lon="-1.807693">
<ele>1375.5</ele>
<speed>14.6</speed>
<course>205.8</course>
<desc>Speed 14.6 km/h Distance 22.02 km</desc>
<time>2011-09-24T11:13:51.23</time>
<name>5815</name>
</trkpt>
<trkpt lat="41.796305" lon="-1.807715">
<ele>1376.0</ele>
<speed>14.9</speed>
<course>204.1</course>
<desc>Speed 14.9 km/h Distance 22.03 km</desc>
<time>2011-09-24T11:13:52.23</time>
<name>5816</name>
</trkpt>
<trkpt lat="41.796272" lon="-1.807735">
<ele>1376.5</ele>
<speed>14.2</speed>
<course>206.4</course>
<desc>Speed 14.2 km/h Distance 22.03 km</desc>
<time>2011-09-24T11:13:53.24</time>
<name>5817</name>
</trkpt>
<trkpt lat="41.796242" lon="-1.807755">
<ele>1376.5</ele>
<speed>13.9</speed>
<course>208.3</course>
<desc>Speed 13.9 km/h Distance 22.04 km</desc>
<time>2011-09-24T11:13:54.22</time>
<name>5818</name>
</trkpt>
<trkpt lat="41.796212" lon="-1.807777">
<ele>1377.0</ele>
<speed>13.7</speed>
<course>208.3</course>
<desc>Speed 13.7 km/h Distance 22.04 km</desc>
<time>2011-09-24T11:13:55.22</time>
<name>5819</name>
</trkpt>
<trkpt lat="41.796182" lon="-1.807798">
<ele>1377.0</ele>
<speed>13.4</speed>
<course>213.1</course>
<desc>Speed 13.4 km/h Distance 22.04 km</desc>
<time>2011-09-24T11:13:56.22</time>
<name>5820</name>
</trkpt>
<trkpt lat="41.796155" lon="-1.807822">
<ele>1377.5</ele>
<speed>12.9</speed>
<course>216.7</course>
<desc>Speed 12.9 km/h Distance 22.05 km</desc>
<time>2011-09-24T11:13:57.37</time>
<name>5821</name>
</trkpt>
<trkpt lat="41.796130" lon="-1.807847">
<ele>1378.0</ele>
<speed>12.4</speed>
<course>212.9</course>
<desc>Speed 12.4 km/h Distance 22.05 km</desc>
<time>2011-09-24T11:13:58.22</time>
<name>5822</name>
</trkpt>
<trkpt lat="41.796105" lon="-1.807868">
<ele>1378.0</ele>
<speed>12.1</speed>
<course>211.2</course>
<desc>Speed 12.1 km/h Distance 22.05 km</desc>
<time>2011-09-24T11:13:59.22</time>
<name>5823</name>
</trkpt>
<trkpt lat="41.796078" lon="-1.807890">
<ele>1378.5</ele>
<speed>12.4</speed>
<course>213.1</course>
<desc>Speed 12.4 km/h Distance 22.06 km</desc>
<time>2011-09-24T11:14:00.21</time>
<name>5824</name>
</trkpt>
<trkpt lat="41.796052" lon="-1.807913">
<ele>1378.5</ele>
<speed>12.8</speed>
<course>214.9</course>
<desc>Speed 12.8 km/h Distance 22.06 km</desc>
<time>2011-09-24T11:14:01.22</time>
<name>5825</name>
</trkpt>
<trkpt lat="41.796027" lon="-1.807937">
<ele>1379.0</ele>
<speed>12.4</speed>
<course>220.4</course>
<desc>Speed 12.4 km/h Distance 22.06 km</desc>
<time>2011-09-24T11:14:02.22</time>
<name>5826</name>
</trkpt>
<trkpt lat="41.796003" lon="-1.807963">
<ele>1379.0</ele>
<speed>12.3</speed>
<course>218.6</course>
<desc>Speed 12.3 km/h Distance 22.07 km</desc>
<time>2011-09-24T11:14:03.22</time>
<name>5827</name>
</trkpt>
<trkpt lat="41.795980" lon="-1.807988">
<ele>1378.5</ele>
<speed>11.9</speed>
<course>211.2</course>
<desc>Speed 11.9 km/h Distance 22.07 km</desc>
<time>2011-09-24T11:14:04.22</time>
<name>5828</name>
</trkpt>
<trkpt lat="41.795953" lon="-1.808010">
<ele>1379.0</ele>
<speed>12.7</speed>
<course>209.7</course>
<desc>Speed 12.7 km/h Distance 22.07 km</desc>
<time>2011-09-24T11:14:05.40</time>
<name>5829</name>
</trkpt>
<trkpt lat="41.795925" lon="-1.808032">
<ele>1379.0</ele>
<speed>13.2</speed>
<course>211.5</course>
<desc>Speed 13.2 km/h Distance 22.08 km</desc>
<time>2011-09-24T11:14:06.22</time>
<name>5830</name>
</trkpt>
<trkpt lat="41.795897" lon="-1.808055">
<ele>1379.0</ele>
<speed>13.2</speed>
<course>209.2</course>
<desc>Speed 13.2 km/h Distance 22.08 km</desc>
<time>2011-09-24T11:14:07.22</time>
<name>5831</name>
</trkpt>
<trkpt lat="41.795870" lon="-1.808075">
<ele>1379.5</ele>
<speed>13.0</speed>
<course>209.7</course>
<desc>Speed 13.0 km/h Distance 22.09 km</desc>
<time>2011-09-24T11:14:08.22</time>
<name>5832</name>
</trkpt>
<trkpt lat="41.795842" lon="-1.808097">
<ele>1379.5</ele>
<speed>13.2</speed>
<course>207.7</course>
<desc>Speed 13.2 km/h Distance 22.09 km</desc>
<time>2011-09-24T11:14:09.22</time>
<name>5833</name>
</trkpt>
<trkpt lat="41.795813" lon="-1.808117">
<ele>1379.0</ele>
<speed>13.1</speed>
<course>208.3</course>
<desc>Speed 13.1 km/h Distance 22.09 km</desc>
<time>2011-09-24T11:14:10.21</time>
<name>5834</name>
</trkpt>
<trkpt lat="41.795783" lon="-1.808138">
<ele>1379.0</ele>
<speed>13.5</speed>
<course>207.8</course>
<desc>Speed 13.5 km/h Distance 22.10 km</desc>
<time>2011-09-24T11:14:11.21</time>
<name>5835</name>
</trkpt>
<trkpt lat="41.795755" lon="-1.808158">
<ele>1379.5</ele>
<speed>13.3</speed>
<course>205.8</course>
<desc>Speed 13.3 km/h Distance 22.10 km</desc>
<time>2011-09-24T11:14:12.21</time>
<name>5836</name>
</trkpt>
<trkpt lat="41.795727" lon="-1.808177">
<ele>1379.5</ele>
<speed>12.9</speed>
<course>208.3</course>
<desc>Speed 12.9 km/h Distance 22.10 km</desc>
<time>2011-09-24T11:14:13.21</time>
<name>5837</name>
</trkpt>
<trkpt lat="41.795697" lon="-1.808198">
<ele>1379.5</ele>
<speed>13.7</speed>
<course>204.5</course>
<desc>Speed 13.7 km/h Distance 22.11 km</desc>
<time>2011-09-24T11:14:14.21</time>
<name>5838</name>
</trkpt>
<trkpt lat="41.795667" lon="-1.808217">
<ele>1379.5</ele>
<speed>13.5</speed>
<course>205.2</course>
<desc>Speed 13.5 km/h Distance 22.11 km</desc>
<time>2011-09-24T11:14:15.22</time>
<name>5839</name>
</trkpt>
<trkpt lat="41.795635" lon="-1.808237">
<ele>1380.0</ele>
<speed>13.5</speed>
<course>205.7</course>
<desc>Speed 13.5 km/h Distance 22.11 km</desc>
<time>2011-09-24T11:14:16.21</time>
<name>5840</name>
</trkpt>
<trkpt lat="41.795607" lon="-1.808255">
<ele>1379.5</ele>
<speed>12.9</speed>
<course>209.7</course>
<desc>Speed 12.9 km/h Distance 22.12 km</desc>
<time>2011-09-24T11:14:17.20</time>
<name>5841</name>
</trkpt>
<trkpt lat="41.795578" lon="-1.808277">
<ele>1379.5</ele>
<speed>12.9</speed>
<course>206.4</course>
<desc>Speed 12.9 km/h Distance 22.12 km</desc>
<time>2011-09-24T11:14:18.20</time>
<name>5842</name>
</trkpt>
<trkpt lat="41.795548" lon="-1.808297">
<ele>1379.5</ele>
<speed>13.2</speed>
<course>207.7</course>
<desc>Speed 13.2 km/h Distance 22.13 km</desc>
<time>2011-09-24T11:14:19.20</time>
<name>5843</name>
</trkpt>
<trkpt lat="41.795520" lon="-1.808317">
<ele>1379.5</ele>
<speed>13.1</speed>
<course>207.8</course>
<desc>Speed 13.1 km/h Distance 22.13 km</desc>
<time>2011-09-24T11:14:20.20</time>
<name>5844</name>
</trkpt>
<trkpt lat="41.795492" lon="-1.808337">
<ele>1379.0</ele>
<speed>12.8</speed>
<course>209.7</course>
<desc>Speed 12.8 km/h Distance 22.13 km</desc>
<time>2011-09-24T11:14:21.20</time>
<name>5845</name>
</trkpt>
<trkpt lat="41.795463" lon="-1.808358">
<ele>1379.5</ele>
<speed>12.9</speed>
<course>211.2</course>
<desc>Speed 12.9 km/h Distance 22.14 km</desc>
<time>2011-09-24T11:14:22.19</time>
<name>5846</name>
</trkpt>
<trkpt lat="41.795437" lon="-1.808380">
<ele>1380.0</ele>
<speed>12.7</speed>
<course>207.8</course>
<desc>Speed 12.7 km/h Distance 22.14 km</desc>
<time>2011-09-24T11:14:23.19</time>
<name>5847</name>
</trkpt>
<trkpt lat="41.795408" lon="-1.808400">
<ele>1380.0</ele>
<speed>12.5</speed>
<course>211.2</course>
<desc>Speed 12.5 km/h Distance 22.14 km</desc>
<time>2011-09-24T11:14:24.19</time>
<name>5848</name>
</trkpt>
<trkpt lat="41.795382" lon="-1.808422">
<ele>1380.5</ele>
<speed>12.5</speed>
<course>207.7</course>
<desc>Speed 12.5 km/h Distance 22.15 km</desc>
<time>2011-09-24T11:14:25.19</time>
<name>5849</name>
</trkpt>
<trkpt lat="41.795353" lon="-1.808442">
<ele>1381.0</ele>
<speed>12.6</speed>
<course>207.7</course>
<desc>Speed 12.6 km/h Distance 22.15 km</desc>
<time>2011-09-24T11:14:26.19</time>
<name>5850</name>
</trkpt>
<trkpt lat="41.795325" lon="-1.808462">
<ele>1382.0</ele>
<speed>12.9</speed>
<course>202.5</course>
<desc>Speed 12.9 km/h Distance 22.15 km</desc>
<time>2011-09-24T11:14:27.19</time>
<name>5851</name>
</trkpt>
<trkpt lat="41.795295" lon="-1.808478">
<ele>1382.5</ele>
<speed>12.6</speed>
<course>205.7</course>
<desc>Speed 12.6 km/h Distance 22.16 km</desc>
<time>2011-09-24T11:14:28.19</time>
<name>5852</name>
</trkpt>
<trkpt lat="41.795267" lon="-1.808497">
<ele>1383.0</ele>
<speed>12.8</speed>
<course>200.4</course>
<desc>Speed 12.8 km/h Distance 22.16 km</desc>
<time>2011-09-24T11:14:29.18</time>
<name>5853</name>
</trkpt>
<trkpt lat="41.795237" lon="-1.808512">
<ele>1383.5</ele>
<speed>12.7</speed>
<course>203.6</course>
<desc>Speed 12.7 km/h Distance 22.16 km</desc>
<time>2011-09-24T11:14:30.18</time>
<name>5854</name>
</trkpt>
<trkpt lat="41.795208" lon="-1.808528">
<ele>1384.5</ele>
<speed>12.3</speed>
<course>201.5</course>
<desc>Speed 12.3 km/h Distance 22.17 km</desc>
<time>2011-09-24T11:14:31.18</time>
<name>5855</name>
</trkpt>
<trkpt lat="41.795180" lon="-1.808543">
<ele>1385.0</ele>
<speed>12.2</speed>
<course>203.7</course>
<desc>Speed 12.2 km/h Distance 22.17 km</desc>
<time>2011-09-24T11:14:32.18</time>
<name>5856</name>
</trkpt>
<trkpt lat="41.795152" lon="-1.808560">
<ele>1385.5</ele>
<speed>12.5</speed>
<course>199.4</course>
<desc>Speed 12.5 km/h Distance 22.18 km</desc>
<time>2011-09-24T11:14:33.18</time>
<name>5857</name>
</trkpt>
<trkpt lat="41.795123" lon="-1.808573">
<ele>1385.5</ele>
<speed>12.1</speed>
<course>201.7</course>
<desc>Speed 12.1 km/h Distance 22.18 km</desc>
<time>2011-09-24T11:14:34.18</time>
<name>5858</name>
</trkpt>
<trkpt lat="41.795098" lon="-1.808587">
<ele>1385.5</ele>
<speed>10.7</speed>
<course>198.8</course>
<desc>Speed 10.7 km/h Distance 22.18 km</desc>
<time>2011-09-24T11:14:35.18</time>
<name>5859</name>
</trkpt>
<trkpt lat="41.795077" lon="-1.808597">
<ele>1385.5</ele>
<speed>9.3</speed>
<course>199.0</course>
<desc>Speed 9.3 km/h Distance 22.18 km</desc>
<time>2011-09-24T11:14:36.18</time>
<name>5860</name>
</trkpt>
<trkpt lat="41.795055" lon="-1.808607">
<ele>1385.0</ele>
<speed>9.1</speed>
<course>214.2</course>
<desc>Speed 9.1 km/h Distance 22.19 km</desc>
<time>2011-09-24T11:14:37.18</time>
<name>5861</name>
</trkpt>
<trkpt lat="41.795037" lon="-1.808623">
<ele>1384.5</ele>
<speed>8.9</speed>
<course>204.6</course>
<desc>Speed 8.9 km/h Distance 22.19 km</desc>
<time>2011-09-24T11:14:38.18</time>
<name>5862</name>
</trkpt>
<trkpt lat="41.795015" lon="-1.808637">
<ele>1385.0</ele>
<speed>10.0</speed>
<course>199.0</course>
<desc>Speed 10.0 km/h Distance 22.19 km</desc>
<time>2011-09-24T11:14:39.18</time>
<name>5863</name>
</trkpt>
<trkpt lat="41.794993" lon="-1.808647">
<ele>1384.5</ele>
<speed>9.0</speed>
<course>199.0</course>
<desc>Speed 9.0 km/h Distance 22.19 km</desc>
<time>2011-09-24T11:14:40.18</time>
<name>5864</name>
</trkpt>
<trkpt lat="41.794972" lon="-1.808657">
<ele>1383.5</ele>
<speed>9.4</speed>
<course>205.5</course>
<desc>Speed 9.4 km/h Distance 22.20 km</desc>
<time>2011-09-24T11:14:41.17</time>
<name>5865</name>
</trkpt>
<trkpt lat="41.794953" lon="-1.808668">
<ele>1384.0</ele>
<speed>8.1</speed>
<course>190.6</course>
<desc>Speed 8.1 km/h Distance 22.20 km</desc>
<time>2011-09-24T11:14:42.17</time>
<name>5866</name>
</trkpt>
<trkpt lat="41.794933" lon="-1.808673">
<ele>1384.5</ele>
<speed>8.2</speed>
<course>196.4</course>
<desc>Speed 8.2 km/h Distance 22.20 km</desc>
<time>2011-09-24T11:14:43.17</time>
<name>5867</name>
</trkpt>
<trkpt lat="41.794917" lon="-1.808680">
<ele>1384.5</ele>
<speed>6.6</speed>
<course>196.0</course>
<desc>Speed 6.6 km/h Distance 22.20 km</desc>
<time>2011-09-24T11:14:44.16</time>
<name>5868</name>
</trkpt>
<trkpt lat="41.794895" lon="-1.808688">
<ele>1385.5</ele>
<speed>8.5</speed>
<course>195.0</course>
<desc>Speed 8.5 km/h Distance 22.21 km</desc>
<time>2011-09-24T11:14:45.16</time>
<name>5869</name>
</trkpt>
<trkpt lat="41.794877" lon="-1.808695">
<ele>1386.5</ele>
<speed>8.1</speed>
<course>198.7</course>
<desc>Speed 8.1 km/h Distance 22.21 km</desc>
<time>2011-09-24T11:14:46.16</time>
<name>5870</name>
</trkpt>
<trkpt lat="41.794858" lon="-1.808703">
<ele>1386.5</ele>
<speed>7.3</speed>
<course>202.6</course>
<desc>Speed 7.3 km/h Distance 22.21 km</desc>
<time>2011-09-24T11:14:47.16</time>
<name>5871</name>
</trkpt>
<trkpt lat="41.794843" lon="-1.808712">
<ele>1387.0</ele>
<speed>6.8</speed>
<course>196.6</course>
<desc>Speed 6.8 km/h Distance 22.21 km</desc>
<time>2011-09-24T11:14:48.18</time>
<name>5872</name>
</trkpt>
<trkpt lat="41.794827" lon="-1.808718">
<ele>1388.5</ele>
<speed>6.8</speed>
<course>195.2</course>
<desc>Speed 6.8 km/h Distance 22.21 km</desc>
<time>2011-09-24T11:14:49.16</time>
<name>5873</name>
</trkpt>
<trkpt lat="41.794808" lon="-1.808725">
<ele>1389.5</ele>
<speed>7.5</speed>
<course>201.9</course>
<desc>Speed 7.5 km/h Distance 22.22 km</desc>
<time>2011-09-24T11:14:50.16</time>
<name>5874</name>
</trkpt>
<trkpt lat="41.794787" lon="-1.808737">
<ele>1389.5</ele>
<speed>9.2</speed>
<course>201.9</course>
<desc>Speed 9.2 km/h Distance 22.22 km</desc>
<time>2011-09-24T11:14:51.17</time>
<name>5875</name>
</trkpt>
<trkpt lat="41.794765" lon="-1.808748">
<ele>1390.0</ele>
<speed>9.3</speed>
<course>197.7</course>
<desc>Speed 9.3 km/h Distance 22.22 km</desc>
<time>2011-09-24T11:14:52.15</time>
<name>5876</name>
</trkpt>
<trkpt lat="41.794742" lon="-1.808758">
<ele>1391.5</ele>
<speed>9.9</speed>
<course>197.8</course>
<desc>Speed 9.9 km/h Distance 22.22 km</desc>
<time>2011-09-24T11:14:53.16</time>
<name>5877</name>
</trkpt>
<trkpt lat="41.794718" lon="-1.808768">
<ele>1392.5</ele>
<speed>9.6</speed>
<course>198.1</course>
<desc>Speed 9.6 km/h Distance 22.23 km</desc>
<time>2011-09-24T11:14:54.15</time>
<name>5878</name>
</trkpt>
<trkpt lat="41.794692" lon="-1.808780">
<ele>1394.0</ele>
<speed>10.9</speed>
<course>205.6</course>
<desc>Speed 10.9 km/h Distance 22.23 km</desc>
<time>2011-09-24T11:14:55.15</time>
<name>5879</name>
</trkpt>
<trkpt lat="41.794668" lon="-1.808795">
<ele>1395.0</ele>
<speed>10.2</speed>
<course>200.4</course>
<desc>Speed 10.2 km/h Distance 22.23 km</desc>
<time>2011-09-24T11:14:56.15</time>
<name>5880</name>
</trkpt>
<trkpt lat="41.794645" lon="-1.808807">
<ele>1396.0</ele>
<speed>9.9</speed>
<course>208.1</course>
<desc>Speed 9.9 km/h Distance 22.24 km</desc>
<time>2011-09-24T11:14:57.15</time>
<name>5881</name>
</trkpt>
<trkpt lat="41.794622" lon="-1.808823">
<ele>1395.5</ele>
<speed>10.0</speed>
<course>207.3</course>
<desc>Speed 10.0 km/h Distance 22.24 km</desc>
<time>2011-09-24T11:14:58.15</time>
<name>5882</name>
</trkpt>
<trkpt lat="41.794600" lon="-1.808838">
<ele>1395.5</ele>
<speed>10.0</speed>
<course>214.5</course>
<desc>Speed 10.0 km/h Distance 22.24 km</desc>
<time>2011-09-24T11:14:59.14</time>
<name>5883</name>
</trkpt>
<trkpt lat="41.794578" lon="-1.808858">
<ele>1393.5</ele>
<speed>9.9</speed>
<course>214.3</course>
<desc>Speed 9.9 km/h Distance 22.24 km</desc>
<time>2011-09-24T11:15:00.15</time>
<name>5884</name>
</trkpt>
<trkpt lat="41.794558" lon="-1.808877">
<ele>1392.5</ele>
<speed>9.6</speed>
<course>207.3</course>
<desc>Speed 9.6 km/h Distance 22.25 km</desc>
<time>2011-09-24T11:15:01.15</time>
<name>5885</name>
</trkpt>
<trkpt lat="41.794537" lon="-1.808892">
<ele>1391.5</ele>
<speed>9.6</speed>
<course>211.9</course>
<desc>Speed 9.6 km/h Distance 22.25 km</desc>
<time>2011-09-24T11:15:02.15</time>
<name>5886</name>
</trkpt>
<trkpt lat="41.794517" lon="-1.808908">
<ele>1390.5</ele>
<speed>9.3</speed>
<course>201.7</course>
<desc>Speed 9.3 km/h Distance 22.25 km</desc>
<time>2011-09-24T11:15:03.14</time>
<name>5887</name>
</trkpt>
<trkpt lat="41.794492" lon="-1.808922">
<ele>1390.5</ele>
<speed>10.4</speed>
<course>195.4</course>
<desc>Speed 10.4 km/h Distance 22.25 km</desc>
<time>2011-09-24T11:15:04.15</time>
<name>5888</name>
</trkpt>
<trkpt lat="41.794465" lon="-1.808932">
<ele>1391.0</ele>
<speed>10.3</speed>
<course>201.9</course>
<desc>Speed 10.3 km/h Distance 22.26 km</desc>
<time>2011-09-24T11:15:05.14</time>
<name>5889</name>
</trkpt>
<trkpt lat="41.794443" lon="-1.808943">
<ele>1389.5</ele>
<speed>9.3</speed>
<course>195.6</course>
<desc>Speed 9.3 km/h Distance 22.26 km</desc>
<time>2011-09-24T11:15:06.14</time>
<name>5890</name>
</trkpt>
<trkpt lat="41.794417" lon="-1.808953">
<ele>1389.5</ele>
<speed>10.4</speed>
<course>190.1</course>
<desc>Speed 10.4 km/h Distance 22.26 km</desc>
<time>2011-09-24T11:15:07.14</time>
<name>5891</name>
</trkpt>
<trkpt lat="41.794388" lon="-1.808960">
<ele>1390.5</ele>
<speed>10.5</speed>
<course>194.0</course>
<desc>Speed 10.5 km/h Distance 22.27 km</desc>
<time>2011-09-24T11:15:08.13</time>
<name>5892</name>
</trkpt>
<trkpt lat="41.794363" lon="-1.808968">
<ele>1390.5</ele>
<speed>10.3</speed>
<course>187.4</course>
<desc>Speed 10.3 km/h Distance 22.27 km</desc>
<time>2011-09-24T11:15:09.14</time>
<name>5893</name>
</trkpt>
<trkpt lat="41.794335" lon="-1.808973">
<ele>1391.0</ele>
<speed>10.3</speed>
<course>189.8</course>
<desc>Speed 10.3 km/h Distance 22.27 km</desc>
<time>2011-09-24T11:15:10.13</time>
<name>5894</name>
</trkpt>
<trkpt lat="41.794307" lon="-1.808980">
<ele>1391.5</ele>
<speed>10.9</speed>
<course>185.4</course>
<desc>Speed 10.9 km/h Distance 22.28 km</desc>
<time>2011-09-24T11:15:11.13</time>
<name>5895</name>
</trkpt>
<trkpt lat="41.794282" lon="-1.808983">
<ele>1391.5</ele>
<speed>9.8</speed>
<course>190.1</course>
<desc>Speed 9.8 km/h Distance 22.28 km</desc>
<time>2011-09-24T11:15:12.27</time>
<name>5896</name>
</trkpt>
<trkpt lat="41.794253" lon="-1.808990">
<ele>1392.5</ele>
<speed>10.4</speed>
<course>193.5</course>
<desc>Speed 10.4 km/h Distance 22.28 km</desc>
<time>2011-09-24T11:15:13.12</time>
<name>5897</name>
</trkpt>
<trkpt lat="41.794202" lon="-1.809007">
<ele>1393.0</ele>
<speed>9.8</speed>
<course>191.5</course>
<desc>Speed 9.8 km/h Distance 22.29 km</desc>
<time>2011-09-24T11:15:15.13</time>
<name>5898</name>
</trkpt>
<trkpt lat="41.794147" lon="-1.809022">
<ele>1392.5</ele>
<speed>10.7</speed>
<course>192.4</course>
<desc>Speed 10.7 km/h Distance 22.29 km</desc>
<time>2011-09-24T11:15:17.12</time>
<name>5899</name>
</trkpt>
<trkpt lat="41.794090" lon="-1.809038">
<ele>1393.0</ele>
<speed>11.1</speed>
<course>188.0</course>
<desc>Speed 11.1 km/h Distance 22.30 km</desc>
<time>2011-09-24T11:15:19.12</time>
<name>5900</name>
</trkpt>
<trkpt lat="41.794028" lon="-1.809050">
<ele>1394.0</ele>
<speed>11.9</speed>
<course>189.2</course>
<desc>Speed 11.9 km/h Distance 22.31 km</desc>
<time>2011-09-24T11:15:21.12</time>
<name>5901</name>
</trkpt>
<trkpt lat="41.793967" lon="-1.809063">
<ele>1393.5</ele>
<speed>11.8</speed>
<course>192.8</course>
<desc>Speed 11.8 km/h Distance 22.31 km</desc>
<time>2011-09-24T11:15:23.12</time>
<name>5902</name>
</trkpt>
<trkpt lat="41.793907" lon="-1.809082">
<ele>1392.0</ele>
<speed>12.5</speed>
<course>187.3</course>
<desc>Speed 12.5 km/h Distance 22.32 km</desc>
<time>2011-09-24T11:15:25.11</time>
<name>5903</name>
</trkpt>
<trkpt lat="41.793838" lon="-1.809093">
<ele>1393.5</ele>
<speed>13.0</speed>
<course>192.0</course>
<desc>Speed 13.0 km/h Distance 22.33 km</desc>
<time>2011-09-24T11:15:27.12</time>
<name>5904</name>
</trkpt>
<trkpt lat="41.793768" lon="-1.809113">
<ele>1394.0</ele>
<speed>13.3</speed>
<course>192.0</course>
<desc>Speed 13.3 km/h Distance 22.34 km</desc>
<time>2011-09-24T11:15:29.12</time>
<name>5905</name>
</trkpt>
<trkpt lat="41.793698" lon="-1.809133">
<ele>1395.0</ele>
<speed>13.6</speed>
<course>192.2</course>
<desc>Speed 13.6 km/h Distance 22.35 km</desc>
<time>2011-09-24T11:15:31.11</time>
<name>5906</name>
</trkpt>
<trkpt lat="41.793635" lon="-1.809152">
<ele>1395.0</ele>
<speed>12.1</speed>
<course>190.1</course>
<desc>Speed 12.1 km/h Distance 22.35 km</desc>
<time>2011-09-24T11:15:33.11</time>
<name>5907</name>
</trkpt>
<trkpt lat="41.793565" lon="-1.809168">
<ele>1396.0</ele>
<speed>13.4</speed>
<course>199.0</course>
<desc>Speed 13.4 km/h Distance 22.36 km</desc>
<time>2011-09-24T11:15:35.11</time>
<name>5908</name>
</trkpt>
<trkpt lat="41.793500" lon="-1.809198">
<ele>1396.5</ele>
<speed>13.1</speed>
<course>197.5</course>
<desc>Speed 13.1 km/h Distance 22.37 km</desc>
<time>2011-09-24T11:15:37.10</time>
<name>5909</name>
</trkpt>
<trkpt lat="41.793468" lon="-1.809212">
<ele>1396.5</ele>
<speed>13.1</speed>
<course>203.7</course>
<desc>Speed 13.1 km/h Distance 22.37 km</desc>
<time>2011-09-24T11:15:38.11</time>
<name>5910</name>
</trkpt>
<trkpt lat="41.793412" lon="-1.809245">
<ele>1397.0</ele>
<speed>11.1</speed>
<course>205.1</course>
<desc>Speed 11.1 km/h Distance 22.38 km</desc>
<time>2011-09-24T11:15:40.10</time>
<name>5911</name>
</trkpt>
<trkpt lat="41.793385" lon="-1.809262">
<ele>1397.5</ele>
<speed>11.3</speed>
<course>213.2</course>
<desc>Speed 11.3 km/h Distance 22.38 km</desc>
<time>2011-09-24T11:15:41.10</time>
<name>5912</name>
</trkpt>
<trkpt lat="41.793358" lon="-1.809285">
<ele>1398.0</ele>
<speed>12.0</speed>
<course>220.2</course>
<desc>Speed 12.0 km/h Distance 22.39 km</desc>
<time>2011-09-24T11:15:42.10</time>
<name>5913</name>
</trkpt>
<trkpt lat="41.793333" lon="-1.809313">
<ele>1398.0</ele>
<speed>11.9</speed>
<course>211.0</course>
<desc>Speed 11.9 km/h Distance 22.39 km</desc>
<time>2011-09-24T11:15:43.10</time>
<name>5914</name>
</trkpt>
<trkpt lat="41.793273" lon="-1.809362">
<ele>1400.0</ele>
<speed>13.3</speed>
<course>200.4</course>
<desc>Speed 13.3 km/h Distance 22.40 km</desc>
<time>2011-09-24T11:15:45.10</time>
<name>5915</name>
</trkpt>
<trkpt lat="41.793243" lon="-1.809377">
<ele>1400.0</ele>
<speed>12.2</speed>
<course>187.4</course>
<desc>Speed 12.2 km/h Distance 22.40 km</desc>
<time>2011-09-24T11:15:46.10</time>
<name>5916</name>
</trkpt>
<trkpt lat="41.793215" lon="-1.809382">
<ele>1402.0</ele>
<speed>10.4</speed>
<course>174.1</course>
<desc>Speed 10.4 km/h Distance 22.40 km</desc>
<time>2011-09-24T11:15:47.10</time>
<name>5917</name>
</trkpt>
<trkpt lat="41.793192" lon="-1.809378">
<ele>1402.0</ele>
<speed>9.2</speed>
<course>173.0</course>
<desc>Speed 9.2 km/h Distance 22.41 km</desc>
<time>2011-09-24T11:15:48.10</time>
<name>5918</name>
</trkpt>
<trkpt lat="41.793172" lon="-1.809375">
<ele>1402.0</ele>
<speed>7.6</speed>
<course>154.5</course>
<desc>Speed 7.6 km/h Distance 22.41 km</desc>
<time>2011-09-24T11:15:49.10</time>
<name>5919</name>
</trkpt>
<trkpt lat="41.793153" lon="-1.809363">
<ele>1402.5</ele>
<speed>8.1</speed>
<course>172.5</course>
<desc>Speed 8.1 km/h Distance 22.41 km</desc>
<time>2011-09-24T11:15:50.10</time>
<name>5920</name>
</trkpt>
<trkpt lat="41.793135" lon="-1.809360">
<ele>1402.5</ele>
<speed>7.8</speed>
<course>180.0</course>
<desc>Speed 7.8 km/h Distance 22.41 km</desc>
<time>2011-09-24T11:15:51.09</time>
<name>5921</name>
</trkpt>
<trkpt lat="41.793095" lon="-1.809360">
<ele>1402.5</ele>
<speed>7.9</speed>
<course>176.3</course>
<desc>Speed 7.9 km/h Distance 22.42 km</desc>
<time>2011-09-24T11:15:53.10</time>
<name>5922</name>
</trkpt>
<trkpt lat="41.793075" lon="-1.809358">
<ele>1402.0</ele>
<speed>8.1</speed>
<course>177.5</course>
<desc>Speed 8.1 km/h Distance 22.42 km</desc>
<time>2011-09-24T11:15:54.10</time>
<name>5923</name>
</trkpt>
<trkpt lat="41.793057" lon="-1.809357">
<ele>1402.5</ele>
<speed>7.3</speed>
<course>182.8</course>
<desc>Speed 7.3 km/h Distance 22.42 km</desc>
<time>2011-09-24T11:15:55.10</time>
<name>5924</name>
</trkpt>
<trkpt lat="41.793040" lon="-1.809358">
<ele>1402.5</ele>
<speed>5.9</speed>
<course>172.7</course>
<desc>Speed 5.9 km/h Distance 22.42 km</desc>
<time>2011-09-24T11:15:57.17</time>
<name>5925</name>
</trkpt>
<trkpt lat="41.792992" lon="-1.809350">
<ele>1402.5</ele>
<speed>6.5</speed>
<course>59.8</course>
<desc>Speed 6.5 km/h Distance 22.43 km</desc>
<time>2011-09-24T11:15:59.45</time>
<name>5926</name>
</trkpt>
<trkpt lat="41.793008" lon="-1.809312">
<ele>1401.5</ele>
<speed>8.9</speed>
<course>345.6</course>
<desc>Speed 8.9 km/h Distance 22.43 km</desc>
<time>2011-09-24T11:16:01.08</time>
<name>5927</name>
</trkpt>
<trkpt lat="41.793062" lon="-1.809330">
<ele>1403.0</ele>
<speed>11.4</speed>
<course>313.5</course>
<desc>Speed 11.4 km/h Distance 22.44 km</desc>
<time>2011-09-24T11:16:03.09</time>
<name>5928</name>
</trkpt>
<trkpt lat="41.793082" lon="-1.809358">
<ele>1403.0</ele>
<speed>11.6</speed>
<course>306.3</course>
<desc>Speed 11.6 km/h Distance 22.44 km</desc>
<time>2011-09-24T11:16:04.09</time>
<name>5929</name>
</trkpt>
<trkpt lat="41.793092" lon="-1.809377">
<ele>1403.5</ele>
<speed>7.2</speed>
<course>280.8</course>
<desc>Speed 7.2 km/h Distance 22.44 km</desc>
<time>2011-09-24T11:16:05.08</time>
<name>5930</name>
</trkpt>
<trkpt lat="41.793093" lon="-1.809388">
<ele>1404.0</ele>
<speed>3.2</speed>
<course>270.0</course>
<desc>Speed 3.2 km/h Distance 22.44 km</desc>
<time>2011-09-24T11:16:06.09</time>
<name>5931</name>
</trkpt>
<trkpt lat="41.793093" lon="-1.809395">
<ele>1404.0</ele>
<speed>2.1</speed>
<course>192.6</course>
<desc>Speed 2.1 km/h Distance 22.45 km</desc>
<time>2011-09-24T11:16:07.09</time>
<name>5932</name>
</trkpt>
<trkpt lat="41.793088" lon="-1.809397">
<ele>1404.5</ele>
<speed>1.1</speed>
<course>333.1</course>
<desc>Speed 1.1 km/h Distance 22.45 km</desc>
<time>2011-09-24T11:16:08.08</time>
<name>5933</name>
</trkpt>
<trkpt lat="41.793208" lon="-1.809478">
<ele>1408.0</ele>
<speed>1.4</speed>
<course>352.3</course>
<desc>Speed 1.4 km/h Distance 22.45 km</desc>
<time>2011-09-24T11:16:09.54</time>
<name>5934</name>
</trkpt>
<trkpt lat="41.793263" lon="-1.809488">
<ele>1407.5</ele>
<speed>8.1</speed>
<course>357.2</course>
<desc>Speed 8.1 km/h Distance 22.45 km</desc>
<time>2011-09-24T11:16:11.54</time>
<name>5935</name>
</trkpt>
<trkpt lat="41.793292" lon="-1.809490">
<ele>1408.0</ele>
<speed>10.9</speed>
<course>8.2</course>
<desc>Speed 10.9 km/h Distance 22.46 km</desc>
<time>2011-09-24T11:16:12.54</time>
<name>5936</name>
</trkpt>
<trkpt lat="41.793335" lon="-1.809482">
<ele>1407.5</ele>
<speed>17.6</speed>
<course>11.2</course>
<desc>Speed 17.6 km/h Distance 22.46 km</desc>
<time>2011-09-24T11:16:13.54</time>
<name>5937</name>
</trkpt>
<trkpt lat="41.793392" lon="-1.809467">
<ele>1406.5</ele>
<speed>23.0</speed>
<course>11.5</course>
<desc>Speed 23.0 km/h Distance 22.47 km</desc>
<time>2011-09-24T11:16:14.54</time>
<name>5938</name>
</trkpt>
<trkpt lat="41.793447" lon="-1.809452">
<ele>1406.0</ele>
<speed>21.7</speed>
<course>10.3</course>
<desc>Speed 21.7 km/h Distance 22.47 km</desc>
<time>2011-09-24T11:16:15.67</time>
<name>5939</name>
</trkpt>
<trkpt lat="41.793502" lon="-1.809438">
<ele>1406.5</ele>
<speed>22.4</speed>
<course>1.4</course>
<desc>Speed 22.4 km/h Distance 22.48 km</desc>
<time>2011-09-24T11:16:16.53</time>
<name>5940</name>
</trkpt>
<trkpt lat="41.793563" lon="-1.809437">
<ele>1406.5</ele>
<speed>24.4</speed>
<course>0.9</course>
<desc>Speed 24.4 km/h Distance 22.49 km</desc>
<time>2011-09-24T11:16:17.53</time>
<name>5941</name>
</trkpt>
<trkpt lat="41.793623" lon="-1.809435">
<ele>1406.5</ele>
<speed>23.7</speed>
<course>359.1</course>
<desc>Speed 23.7 km/h Distance 22.49 km</desc>
<time>2011-09-24T11:16:18.54</time>
<name>5942</name>
</trkpt>
<trkpt lat="41.793683" lon="-1.809437">
<ele>1406.0</ele>
<speed>23.8</speed>
<course>0.0</course>
<desc>Speed 23.8 km/h Distance 22.50 km</desc>
<time>2011-09-24T11:16:19.52</time>
<name>5943</name>
</trkpt>
<trkpt lat="41.793740" lon="-1.809437">
<ele>1406.0</ele>
<speed>22.6</speed>
<course>1.5</course>
<desc>Speed 22.6 km/h Distance 22.51 km</desc>
<time>2011-09-24T11:16:20.52</time>
<name>5944</name>
</trkpt>
<trkpt lat="41.793793" lon="-1.809435">
<ele>1405.5</ele>
<speed>21.5</speed>
<course>358.7</course>
<desc>Speed 21.5 km/h Distance 22.51 km</desc>
<time>2011-09-24T11:16:21.52</time>
<name>5945</name>
</trkpt>
<trkpt lat="41.793845" lon="-1.809437">
<ele>1405.5</ele>
<speed>20.8</speed>
<course>5.7</course>
<desc>Speed 20.8 km/h Distance 22.52 km</desc>
<time>2011-09-24T11:16:22.53</time>
<name>5946</name>
</trkpt>
<trkpt lat="41.793895" lon="-1.809430">
<ele>1407.0</ele>
<speed>20.0</speed>
<course>349.9</course>
<desc>Speed 20.0 km/h Distance 22.52 km</desc>
<time>2011-09-24T11:16:23.51</time>
<name>5947</name>
</trkpt>
<trkpt lat="41.793930" lon="-1.809438">
<ele>1407.0</ele>
<speed>14.7</speed>
<course>353.5</course>
<desc>Speed 14.7 km/h Distance 22.53 km</desc>
<time>2011-09-24T11:16:24.51</time>
<name>5948</name>
</trkpt>
<trkpt lat="41.793973" lon="-1.809445">
<ele>1406.0</ele>
<speed>17.4</speed>
<course>355.4</course>
<desc>Speed 17.4 km/h Distance 22.53 km</desc>
<time>2011-09-24T11:16:25.51</time>
<name>5949</name>
</trkpt>
<trkpt lat="41.794018" lon="-1.809450">
<ele>1405.5</ele>
<speed>17.9</speed>
<course>354.9</course>
<desc>Speed 17.9 km/h Distance 22.54 km</desc>
<time>2011-09-24T11:16:26.51</time>
<name>5950</name>
</trkpt>
<trkpt lat="41.794060" lon="-1.809455">
<ele>1406.0</ele>
<speed>16.2</speed>
<course>354.1</course>
<desc>Speed 16.2 km/h Distance 22.54 km</desc>
<time>2011-09-24T11:16:27.52</time>
<name>5951</name>
</trkpt>
<trkpt lat="41.794097" lon="-1.809460">
<ele>1407.5</ele>
<speed>14.8</speed>
<course>356.4</course>
<desc>Speed 14.8 km/h Distance 22.55 km</desc>
<time>2011-09-24T11:16:28.51</time>
<name>5952</name>
</trkpt>
<trkpt lat="41.794135" lon="-1.809463">
<ele>1408.0</ele>
<speed>15.2</speed>
<course>357.8</course>
<desc>Speed 15.2 km/h Distance 22.55 km</desc>
<time>2011-09-24T11:16:29.51</time>
<name>5953</name>
</trkpt>
<trkpt lat="41.794173" lon="-1.809465">
<ele>1408.0</ele>
<speed>15.1</speed>
<course>355.9</course>
<desc>Speed 15.1 km/h Distance 22.55 km</desc>
<time>2011-09-24T11:16:30.51</time>
<name>5954</name>
</trkpt>
<trkpt lat="41.794210" lon="-1.809468">
<ele>1408.0</ele>
<speed>14.2</speed>
<course>355.6</course>
<desc>Speed 14.2 km/h Distance 22.56 km</desc>
<time>2011-09-24T11:16:31.52</time>
<name>5955</name>
</trkpt>
<trkpt lat="41.794240" lon="-1.809472">
<ele>1409.0</ele>
<speed>11.2</speed>
<course>357.8</course>
<desc>Speed 11.2 km/h Distance 22.56 km</desc>
<time>2011-09-24T11:16:32.72</time>
<name>5956</name>
</trkpt>
<trkpt lat="41.794268" lon="-1.809473">
<ele>1409.5</ele>
<speed>10.6</speed>
<course>1.2</course>
<desc>Speed 10.6 km/h Distance 22.56 km</desc>
<time>2011-09-24T11:16:33.50</time>
<name>5957</name>
</trkpt>
<trkpt lat="41.794295" lon="-1.809473">
<ele>1410.5</ele>
<speed>10.5</speed>
<course>1.4</course>
<desc>Speed 10.5 km/h Distance 22.57 km</desc>
<time>2011-09-24T11:16:34.51</time>
<name>5958</name>
</trkpt>
<trkpt lat="41.794323" lon="-1.809473">
<ele>1410.5</ele>
<speed>10.4</speed>
<course>354.3</course>
<desc>Speed 10.4 km/h Distance 22.57 km</desc>
<time>2011-09-24T11:16:35.50</time>
<name>5959</name>
</trkpt>
<trkpt lat="41.794348" lon="-1.809477">
<ele>1410.5</ele>
<speed>9.6</speed>
<course>357.8</course>
<desc>Speed 9.6 km/h Distance 22.57 km</desc>
<time>2011-09-24T11:16:36.51</time>
<name>5960</name>
</trkpt>
<trkpt lat="41.794375" lon="-1.809478">
<ele>1411.0</ele>
<speed>9.7</speed>
<course>355.6</course>
<desc>Speed 9.7 km/h Distance 22.58 km</desc>
<time>2011-09-24T11:16:37.50</time>
<name>5961</name>
</trkpt>
<trkpt lat="41.794405" lon="-1.809482">
<ele>1410.5</ele>
<speed>10.8</speed>
<course>357.8</course>
<desc>Speed 10.8 km/h Distance 22.58 km</desc>
<time>2011-09-24T11:16:38.51</time>
<name>5962</name>
</trkpt>
<trkpt lat="41.794432" lon="-1.809483">
<ele>1410.0</ele>
<speed>10.0</speed>
<course>0.0</course>
<desc>Speed 10.0 km/h Distance 22.58 km</desc>
<time>2011-09-24T11:16:39.51</time>
<name>5963</name>
</trkpt>
<trkpt lat="41.794458" lon="-1.809483">
<ele>1410.0</ele>
<speed>10.1</speed>
<course>2.2</course>
<desc>Speed 10.1 km/h Distance 22.59 km</desc>
<time>2011-09-24T11:16:40.50</time>
<name>5964</name>
</trkpt>
<trkpt lat="41.794485" lon="-1.809482">
<ele>1409.5</ele>
<speed>9.1</speed>
<course>18.7</course>
<desc>Speed 9.1 km/h Distance 22.59 km</desc>
<time>2011-09-24T11:16:41.54</time>
<name>5965</name>
</trkpt>
<trkpt lat="41.794503" lon="-1.809473">
<ele>1411.0</ele>
<speed>7.7</speed>
<course>9.7</course>
<desc>Speed 7.7 km/h Distance 22.59 km</desc>
<time>2011-09-24T11:16:42.50</time>
<name>5966</name>
</trkpt>
<trkpt lat="41.794525" lon="-1.809468">
<ele>1412.5</ele>
<speed>8.7</speed>
<course>3.2</course>
<desc>Speed 8.7 km/h Distance 22.59 km</desc>
<time>2011-09-24T11:16:43.83</time>
<name>5967</name>
</trkpt>
<trkpt lat="41.794547" lon="-1.809467">
<ele>1412.5</ele>
<speed>8.4</speed>
<course>5.7</course>
<desc>Speed 8.4 km/h Distance 22.60 km</desc>
<time>2011-09-24T11:16:44.50</time>
<name>5968</name>
</trkpt>
<trkpt lat="41.794572" lon="-1.809463">
<ele>1413.0</ele>
<speed>9.1</speed>
<course>9.3</course>
<desc>Speed 9.1 km/h Distance 22.60 km</desc>
<time>2011-09-24T11:16:45.51</time>
<name>5969</name>
</trkpt>
<trkpt lat="41.794595" lon="-1.809458">
<ele>1414.0</ele>
<speed>9.0</speed>
<course>6.3</course>
<desc>Speed 9.0 km/h Distance 22.60 km</desc>
<time>2011-09-24T11:16:46.50</time>
<name>5970</name>
</trkpt>
<trkpt lat="41.794618" lon="-1.809455">
<ele>1415.5</ele>
<speed>8.8</speed>
<course>2.2</course>
<desc>Speed 8.8 km/h Distance 22.60 km</desc>
<time>2011-09-24T11:16:47.51</time>
<name>5971</name>
</trkpt>
<trkpt lat="41.794642" lon="-1.809453">
<ele>1416.0</ele>
<speed>9.1</speed>
<course>5.4</course>
<desc>Speed 9.1 km/h Distance 22.61 km</desc>
<time>2011-09-24T11:16:48.50</time>
<name>5972</name>
</trkpt>
<trkpt lat="41.794667" lon="-1.809450">
<ele>1416.5</ele>
<speed>10.0</speed>
<course>9.7</course>
<desc>Speed 10.0 km/h Distance 22.61 km</desc>
<time>2011-09-24T11:16:49.51</time>
<name>5973</name>
</trkpt>
<trkpt lat="41.794688" lon="-1.809445">
<ele>1417.5</ele>
<speed>8.1</speed>
<course>9.1</course>
<desc>Speed 8.1 km/h Distance 22.61 km</desc>
<time>2011-09-24T11:16:50.50</time>
<name>5974</name>
</trkpt>
<trkpt lat="41.794712" lon="-1.809440">
<ele>1418.5</ele>
<speed>8.5</speed>
<course>16.0</course>
<desc>Speed 8.5 km/h Distance 22.61 km</desc>
<time>2011-09-24T11:16:51.49</time>
<name>5975</name>
</trkpt>
<trkpt lat="41.794733" lon="-1.809432">
<ele>1419.0</ele>
<speed>9.0</speed>
<course>8.6</course>
<desc>Speed 9.0 km/h Distance 22.62 km</desc>
<time>2011-09-24T11:16:52.50</time>
<name>5976</name>
</trkpt>
<trkpt lat="41.794758" lon="-1.809427">
<ele>1418.0</ele>
<speed>9.9</speed>
<course>336.4</course>
<desc>Speed 9.9 km/h Distance 22.62 km</desc>
<time>2011-09-24T11:16:53.50</time>
<name>5977</name>
</trkpt>
<trkpt lat="41.794778" lon="-1.809438">
<ele>1418.5</ele>
<speed>8.6</speed>
<course>13.8</course>
<desc>Speed 8.6 km/h Distance 22.62 km</desc>
<time>2011-09-24T11:16:54.50</time>
<name>5978</name>
</trkpt>
<trkpt lat="41.794798" lon="-1.809432">
<ele>1419.5</ele>
<speed>8.2</speed>
<course>14.0</course>
<desc>Speed 8.2 km/h Distance 22.62 km</desc>
<time>2011-09-24T11:16:55.49</time>
<name>5979</name>
</trkpt>
<trkpt lat="41.794818" lon="-1.809425">
<ele>1419.5</ele>
<speed>8.1</speed>
<course>5.7</course>
<desc>Speed 8.1 km/h Distance 22.63 km</desc>
<time>2011-09-24T11:16:56.49</time>
<name>5980</name>
</trkpt>
<trkpt lat="41.794843" lon="-1.809422">
<ele>1419.5</ele>
<speed>7.8</speed>
<course>15.9</course>
<desc>Speed 7.8 km/h Distance 22.63 km</desc>
<time>2011-09-24T11:16:57.50</time>
<name>5981</name>
</trkpt>
<trkpt lat="41.794865" lon="-1.809413">
<ele>1419.0</ele>
<speed>8.5</speed>
<course>5.6</course>
<desc>Speed 8.5 km/h Distance 22.63 km</desc>
<time>2011-09-24T11:16:58.50</time>
<name>5982</name>
</trkpt>
<trkpt lat="41.794888" lon="-1.809410">
<ele>1419.0</ele>
<speed>9.1</speed>
<course>3.0</course>
<desc>Speed 9.1 km/h Distance 22.63 km</desc>
<time>2011-09-24T11:16:59.50</time>
<name>5983</name>
</trkpt>
<trkpt lat="41.794912" lon="-1.809408">
<ele>1418.5</ele>
<speed>9.2</speed>
<course>5.4</course>
<desc>Speed 9.2 km/h Distance 22.64 km</desc>
<time>2011-09-24T11:17:00.49</time>
<name>5984</name>
</trkpt>
<trkpt lat="41.794937" lon="-1.809405">
<ele>1418.0</ele>
<speed>8.4</speed>
<course>8.6</course>
<desc>Speed 8.4 km/h Distance 22.64 km</desc>
<time>2011-09-24T11:17:01.49</time>
<name>5985</name>
</trkpt>
<trkpt lat="41.794960" lon="-1.809400">
<ele>1418.0</ele>
<speed>9.1</speed>
<course>9.7</course>
<desc>Speed 9.1 km/h Distance 22.64 km</desc>
<time>2011-09-24T11:17:02.50</time>
<name>5986</name>
</trkpt>
<trkpt lat="41.794982" lon="-1.809395">
<ele>1418.5</ele>
<speed>8.2</speed>
<course>5.1</course>
<desc>Speed 8.2 km/h Distance 22.64 km</desc>
<time>2011-09-24T11:17:03.50</time>
<name>5987</name>
</trkpt>
<trkpt lat="41.795010" lon="-1.809392">
<ele>1418.0</ele>
<speed>8.0</speed>
<course>7.8</course>
<desc>Speed 8.0 km/h Distance 22.65 km</desc>
<time>2011-09-24T11:17:04.50</time>
<name>5988</name>
</trkpt>
<trkpt lat="41.795037" lon="-1.809387">
<ele>1418.0</ele>
<speed>7.5</speed>
<course>23.4</course>
<desc>Speed 7.5 km/h Distance 22.65 km</desc>
<time>2011-09-24T11:17:05.50</time>
<name>5989</name>
</trkpt>
<trkpt lat="41.795057" lon="-1.809375">
<ele>1419.0</ele>
<speed>8.1</speed>
<course>26.4</course>
<desc>Speed 8.1 km/h Distance 22.65 km</desc>
<time>2011-09-24T11:17:06.48</time>
<name>5990</name>
</trkpt>
<trkpt lat="41.795077" lon="-1.809362">
<ele>1420.0</ele>
<speed>8.5</speed>
<course>2.8</course>
<desc>Speed 8.5 km/h Distance 22.66 km</desc>
<time>2011-09-24T11:17:07.48</time>
<name>5991</name>
</trkpt>
<trkpt lat="41.795105" lon="-1.809360">
<ele>1419.0</ele>
<speed>9.7</speed>
<course>5.7</course>
<desc>Speed 9.7 km/h Distance 22.66 km</desc>
<time>2011-09-24T11:17:08.49</time>
<name>5992</name>
</trkpt>
<trkpt lat="41.795130" lon="-1.809357">
<ele>1419.0</ele>
<speed>8.5</speed>
<course>10.6</course>
<desc>Speed 8.5 km/h Distance 22.66 km</desc>
<time>2011-09-24T11:17:09.48</time>
<name>5993</name>
</trkpt>
<trkpt lat="41.795157" lon="-1.809350">
<ele>1419.0</ele>
<speed>8.9</speed>
<course>12.3</course>
<desc>Speed 8.9 km/h Distance 22.66 km</desc>
<time>2011-09-24T11:17:10.48</time>
<name>5994</name>
</trkpt>
<trkpt lat="41.795185" lon="-1.809342">
<ele>1419.0</ele>
<speed>8.8</speed>
<course>20.4</course>
<desc>Speed 8.8 km/h Distance 22.67 km</desc>
<time>2011-09-24T11:17:11.48</time>
<name>5995</name>
</trkpt>
<trkpt lat="41.795208" lon="-1.809330">
<ele>1419.0</ele>
<speed>9.2</speed>
<course>19.7</course>
<desc>Speed 9.2 km/h Distance 22.67 km</desc>
<time>2011-09-24T11:17:12.89</time>
<name>5996</name>
</trkpt>
<trkpt lat="41.795253" lon="-1.809308">
<ele>1420.0</ele>
<speed>8.8</speed>
<course>13.1</course>
<desc>Speed 8.8 km/h Distance 22.68 km</desc>
<time>2011-09-24T11:17:14.49</time>
<name>5997</name>
</trkpt>
<trkpt lat="41.795280" lon="-1.809300">
<ele>1420.5</ele>
<speed>9.4</speed>
<course>10.1</course>
<desc>Speed 9.4 km/h Distance 22.68 km</desc>
<time>2011-09-24T11:17:15.48</time>
<name>5998</name>
</trkpt>
<trkpt lat="41.795308" lon="-1.809293">
<ele>1420.5</ele>
<speed>9.8</speed>
<course>30.1</course>
<desc>Speed 9.8 km/h Distance 22.68 km</desc>
<time>2011-09-24T11:17:16.48</time>
<name>5999</name>
</trkpt>
<trkpt lat="41.795338" lon="-1.809270">
<ele>1422.5</ele>
<speed>9.9</speed>
<course>26.4</course>
<desc>Speed 9.9 km/h Distance 22.69 km</desc>
<time>2011-09-24T11:17:17.48</time>
<name>6000</name>
</trkpt>
<trkpt lat="41.795363" lon="-1.809253">
<ele>1424.0</ele>
<speed>9.1</speed>
<course>12.3</course>
<desc>Speed 9.1 km/h Distance 22.69 km</desc>
<time>2011-09-24T11:17:18.48</time>
<name>6001</name>
</trkpt>
<trkpt lat="41.795392" lon="-1.809245">
<ele>1424.0</ele>
<speed>10.3</speed>
<course>6.3</course>
<desc>Speed 10.3 km/h Distance 22.69 km</desc>
<time>2011-09-24T11:17:19.47</time>
<name>6002</name>
</trkpt>
<trkpt lat="41.795425" lon="-1.809240">
<ele>1423.0</ele>
<speed>10.9</speed>
<course>9.9</course>
<desc>Speed 10.9 km/h Distance 22.70 km</desc>
<time>2011-09-24T11:17:20.47</time>
<name>6003</name>
</trkpt>
<trkpt lat="41.795453" lon="-1.809233">
<ele>1424.0</ele>
<speed>9.7</speed>
<course>6.8</course>
<desc>Speed 9.7 km/h Distance 22.70 km</desc>
<time>2011-09-24T11:17:21.74</time>
<name>6004</name>
</trkpt>
<trkpt lat="41.795515" lon="-1.809223">
<ele>1424.5</ele>
<speed>10.5</speed>
<course>13.9</course>
<desc>Speed 10.5 km/h Distance 22.71 km</desc>
<time>2011-09-24T11:17:23.47</time>
<name>6005</name>
</trkpt>
<trkpt lat="41.795540" lon="-1.809215">
<ele>1424.5</ele>
<speed>9.9</speed>
<course>11.4</course>
<desc>Speed 9.9 km/h Distance 22.71 km</desc>
<time>2011-09-24T11:17:24.48</time>
<name>6006</name>
</trkpt>
<trkpt lat="41.795565" lon="-1.809208">
<ele>1425.5</ele>
<speed>9.3</speed>
<course>5.7</course>
<desc>Speed 9.3 km/h Distance 22.71 km</desc>
<time>2011-09-24T11:17:25.47</time>
<name>6007</name>
</trkpt>
<trkpt lat="41.795590" lon="-1.809205">
<ele>1426.5</ele>
<speed>8.5</speed>
<course>3.2</course>
<desc>Speed 8.5 km/h Distance 22.72 km</desc>
<time>2011-09-24T11:17:26.47</time>
<name>6008</name>
</trkpt>
<trkpt lat="41.795612" lon="-1.809203">
<ele>1426.5</ele>
<speed>8.7</speed>
<course>353.6</course>
<desc>Speed 8.7 km/h Distance 22.72 km</desc>
<time>2011-09-24T11:17:27.47</time>
<name>6009</name>
</trkpt>
<trkpt lat="41.795633" lon="-1.809207">
<ele>1426.5</ele>
<speed>7.7</speed>
<course>0.0</course>
<desc>Speed 7.7 km/h Distance 22.72 km</desc>
<time>2011-09-24T11:17:28.47</time>
<name>6010</name>
</trkpt>
<trkpt lat="41.795652" lon="-1.809207">
<ele>1426.5</ele>
<speed>6.5</speed>
<course>2.8</course>
<desc>Speed 6.5 km/h Distance 22.72 km</desc>
<time>2011-09-24T11:17:29.46</time>
<name>6011</name>
</trkpt>
<trkpt lat="41.795668" lon="-1.809207">
<ele>1426.5</ele>
<speed>6.4</speed>
<course>2.7</course>
<desc>Speed 6.4 km/h Distance 22.72 km</desc>
<time>2011-09-24T11:17:30.46</time>
<name>6012</name>
</trkpt>
<trkpt lat="41.795688" lon="-1.809205">
<ele>1426.5</ele>
<speed>6.1</speed>
<course>3.8</course>
<desc>Speed 6.1 km/h Distance 22.73 km</desc>
<time>2011-09-24T11:17:31.46</time>
<name>6013</name>
</trkpt>
<trkpt lat="41.795703" lon="-1.809203">
<ele>1426.5</ele>
<speed>5.9</speed>
<course>355.0</course>
<desc>Speed 5.9 km/h Distance 22.73 km</desc>
<time>2011-09-24T11:17:32.46</time>
<name>6014</name>
</trkpt>
<trkpt lat="41.795720" lon="-1.809205">
<ele>1427.0</ele>
<speed>6.3</speed>
<course>4.5</course>
<desc>Speed 6.3 km/h Distance 22.73 km</desc>
<time>2011-09-24T11:17:33.45</time>
<name>6015</name>
</trkpt>
<trkpt lat="41.795738" lon="-1.809203">
<ele>1426.5</ele>
<speed>7.1</speed>
<course>14.0</course>
<desc>Speed 7.1 km/h Distance 22.73 km</desc>
<time>2011-09-24T11:17:34.45</time>
<name>6016</name>
</trkpt>
<trkpt lat="41.795753" lon="-1.809198">
<ele>1426.5</ele>
<speed>6.1</speed>
<course>8.4</course>
<desc>Speed 6.1 km/h Distance 22.73 km</desc>
<time>2011-09-24T11:17:35.45</time>
<name>6017</name>
</trkpt>
<trkpt lat="41.795778" lon="-1.809193">
<ele>1426.5</ele>
<speed>6.8</speed>
<course>0.6</course>
<desc>Speed 6.8 km/h Distance 22.74 km</desc>
<time>2011-09-24T11:17:36.45</time>
<name>6018</name>
</trkpt>
<trkpt lat="41.795802" lon="-1.809193">
<ele>1426.5</ele>
<speed>6.4</speed>
<course>357.5</course>
<desc>Speed 6.4 km/h Distance 22.74 km</desc>
<time>2011-09-24T11:17:37.45</time>
<name>6019</name>
</trkpt>
<trkpt lat="41.795820" lon="-1.809195">
<ele>1427.0</ele>
<speed>5.8</speed>
<course>3.8</course>
<desc>Speed 5.8 km/h Distance 22.74 km</desc>
<time>2011-09-24T11:17:38.46</time>
<name>6020</name>
</trkpt>
<trkpt lat="41.795835" lon="-1.809193">
<ele>1427.0</ele>
<speed>6.0</speed>
<course>5.3</course>
<desc>Speed 6.0 km/h Distance 22.74 km</desc>
<time>2011-09-24T11:17:39.45</time>
<name>6021</name>
</trkpt>
<trkpt lat="41.795848" lon="-1.809192">
<ele>1427.0</ele>
<speed>5.9</speed>
<course>354.7</course>
<desc>Speed 5.9 km/h Distance 22.74 km</desc>
<time>2011-09-24T11:17:40.44</time>
<name>6022</name>
</trkpt>
<trkpt lat="41.795862" lon="-1.809193">
<ele>1427.0</ele>
<speed>5.2</speed>
<course>5.3</course>
<desc>Speed 5.2 km/h Distance 22.75 km</desc>
<time>2011-09-24T11:17:41.44</time>
<name>6023</name>
</trkpt>
<trkpt lat="41.795875" lon="-1.809192">
<ele>1427.0</ele>
<speed>5.5</speed>
<course>0.0</course>
<desc>Speed 5.5 km/h Distance 22.75 km</desc>
<time>2011-09-24T11:17:42.45</time>
<name>6024</name>
</trkpt>
<trkpt lat="41.795895" lon="-1.809192">
<ele>1427.5</ele>
<speed>6.2</speed>
<course>1.2</course>
<desc>Speed 6.2 km/h Distance 22.75 km</desc>
<time>2011-09-24T11:17:43.45</time>
<name>6025</name>
</trkpt>
<trkpt lat="41.795908" lon="-1.809192">
<ele>1427.5</ele>
<speed>5.4</speed>
<course>347.4</course>
<desc>Speed 5.4 km/h Distance 22.75 km</desc>
<time>2011-09-24T11:17:44.44</time>
<name>6026</name>
</trkpt>
<trkpt lat="41.795920" lon="-1.809195">
<ele>1427.5</ele>
<speed>4.9</speed>
<course>3.7</course>
<desc>Speed 4.9 km/h Distance 22.75 km</desc>
<time>2011-09-24T11:17:45.44</time>
<name>6027</name>
</trkpt>
<trkpt lat="41.795940" lon="-1.809193">
<ele>1427.5</ele>
<speed>5.1</speed>
<course>5.3</course>
<desc>Speed 5.1 km/h Distance 22.75 km</desc>
<time>2011-09-24T11:17:46.45</time>
<name>6028</name>
</trkpt>
<trkpt lat="41.795953" lon="-1.809192">
<ele>1427.5</ele>
<speed>5.3</speed>
<course>354.7</course>
<desc>Speed 5.3 km/h Distance 22.76 km</desc>
<time>2011-09-24T11:17:47.44</time>
<name>6029</name>
</trkpt>
<trkpt lat="41.795967" lon="-1.809193">
<ele>1428.0</ele>
<speed>5.7</speed>
<course>344.6</course>
<desc>Speed 5.7 km/h Distance 22.76 km</desc>
<time>2011-09-24T11:17:48.44</time>
<name>6030</name>
</trkpt>
<trkpt lat="41.795985" lon="-1.809200">
<ele>1428.0</ele>
<speed>6.8</speed>
<course>347.1</course>
<desc>Speed 6.8 km/h Distance 22.76 km</desc>
<time>2011-09-24T11:17:49.43</time>
<name>6031</name>
</trkpt>
<trkpt lat="41.796002" lon="-1.809205">
<ele>1427.5</ele>
<speed>6.2</speed>
<course>351.3</course>
<desc>Speed 6.2 km/h Distance 22.76 km</desc>
<time>2011-09-24T11:17:50.44</time>
<name>6032</name>
</trkpt>
<trkpt lat="41.796018" lon="-1.809208">
<ele>1427.5</ele>
<speed>6.3</speed>
<course>2.8</course>
<desc>Speed 6.3 km/h Distance 22.76 km</desc>
<time>2011-09-24T11:17:51.44</time>
<name>6033</name>
</trkpt>
<trkpt lat="41.796035" lon="-1.809208">
<ele>1428.0</ele>
<speed>6.5</speed>
<course>355.0</course>
<desc>Speed 6.5 km/h Distance 22.76 km</desc>
<time>2011-09-24T11:17:52.43</time>
<name>6034</name>
</trkpt>
<trkpt lat="41.796052" lon="-1.809210">
<ele>1428.5</ele>
<speed>6.0</speed>
<course>352.5</course>
<desc>Speed 6.0 km/h Distance 22.77 km</desc>
<time>2011-09-24T11:17:53.44</time>
<name>6035</name>
</trkpt>
<trkpt lat="41.796063" lon="-1.809212">
<ele>1429.5</ele>
<speed>4.8</speed>
<course>8.2</course>
<desc>Speed 4.8 km/h Distance 22.77 km</desc>
<time>2011-09-24T11:17:54.44</time>
<name>6036</name>
</trkpt>
<trkpt lat="41.796080" lon="-1.809208">
<ele>1430.5</ele>
<speed>4.7</speed>
<course>355.6</course>
<desc>Speed 4.7 km/h Distance 22.77 km</desc>
<time>2011-09-24T11:17:56.39</time>
<name>6037</name>
</trkpt>
<trkpt lat="41.796112" lon="-1.809212">
<ele>1431.5</ele>
<speed>5.7</speed>
<course>2.8</course>
<desc>Speed 5.7 km/h Distance 22.77 km</desc>
<time>2011-09-24T11:17:57.43</time>
<name>6038</name>
</trkpt>
<trkpt lat="41.796128" lon="-1.809212">
<ele>1432.0</ele>
<speed>6.7</speed>
<course>349.7</course>
<desc>Speed 6.7 km/h Distance 22.78 km</desc>
<time>2011-09-24T11:17:58.49</time>
<name>6039</name>
</trkpt>
<trkpt lat="41.796148" lon="-1.809217">
<ele>1432.0</ele>
<speed>8.1</speed>
<course>344.1</course>
<desc>Speed 8.1 km/h Distance 22.78 km</desc>
<time>2011-09-24T11:17:59.43</time>
<name>6040</name>
</trkpt>
<trkpt lat="41.796170" lon="-1.809225">
<ele>1431.0</ele>
<speed>8.8</speed>
<course>358.8</course>
<desc>Speed 8.8 km/h Distance 22.78 km</desc>
<time>2011-09-24T11:18:00.43</time>
<name>6041</name>
</trkpt>
<trkpt lat="41.796197" lon="-1.809227">
<ele>1430.0</ele>
<speed>7.7</speed>
<course>0.0</course>
<desc>Speed 7.7 km/h Distance 22.78 km</desc>
<time>2011-09-24T11:18:01.43</time>
<name>6042</name>
</trkpt>
<trkpt lat="41.796220" lon="-1.809227">
<ele>1429.5</ele>
<speed>9.5</speed>
<course>356.8</course>
<desc>Speed 9.5 km/h Distance 22.79 km</desc>
<time>2011-09-24T11:18:02.43</time>
<name>6043</name>
</trkpt>
<trkpt lat="41.796242" lon="-1.809228">
<ele>1429.5</ele>
<speed>8.8</speed>
<course>353.4</course>
<desc>Speed 8.8 km/h Distance 22.79 km</desc>
<time>2011-09-24T11:18:03.43</time>
<name>6044</name>
</trkpt>
<trkpt lat="41.796262" lon="-1.809232">
<ele>1429.5</ele>
<speed>7.5</speed>
<course>352.5</course>
<desc>Speed 7.5 km/h Distance 22.79 km</desc>
<time>2011-09-24T11:18:04.43</time>
<name>6045</name>
</trkpt>
<trkpt lat="41.796280" lon="-1.809235">
<ele>1430.0</ele>
<speed>7.5</speed>
<course>349.4</course>
<desc>Speed 7.5 km/h Distance 22.79 km</desc>
<time>2011-09-24T11:18:05.43</time>
<name>6046</name>
</trkpt>
<trkpt lat="41.796300" lon="-1.809240">
<ele>1430.0</ele>
<speed>7.3</speed>
<course>339.6</course>
<desc>Speed 7.3 km/h Distance 22.79 km</desc>
<time>2011-09-24T11:18:06.43</time>
<name>6047</name>
</trkpt>
<trkpt lat="41.796317" lon="-1.809248">
<ele>1429.5</ele>
<speed>7.0</speed>
<course>346.3</course>
<desc>Speed 7.0 km/h Distance 22.80 km</desc>
<time>2011-09-24T11:18:07.43</time>
<name>6048</name>
</trkpt>
<trkpt lat="41.796332" lon="-1.809253">
<ele>1430.0</ele>
<speed>6.1</speed>
<course>339.5</course>
<desc>Speed 6.1 km/h Distance 22.80 km</desc>
<time>2011-09-24T11:18:08.43</time>
<name>6049</name>
</trkpt>
<trkpt lat="41.796345" lon="-1.809260">
<ele>1430.5</ele>
<speed>6.0</speed>
<course>341.3</course>
<desc>Speed 6.0 km/h Distance 22.80 km</desc>
<time>2011-09-24T11:18:09.43</time>
<name>6050</name>
</trkpt>
<trkpt lat="41.796363" lon="-1.809268">
<ele>1430.5</ele>
<speed>7.5</speed>
<course>348.6</course>
<desc>Speed 7.5 km/h Distance 22.80 km</desc>
<time>2011-09-24T11:18:10.42</time>
<name>6051</name>
</trkpt>
<trkpt lat="41.796382" lon="-1.809273">
<ele>1431.0</ele>
<speed>7.5</speed>
<course>349.7</course>
<desc>Speed 7.5 km/h Distance 22.80 km</desc>
<time>2011-09-24T11:18:11.42</time>
<name>6052</name>
</trkpt>
<trkpt lat="41.796395" lon="-1.809277">
<ele>1431.0</ele>
<speed>5.3</speed>
<course>346.3</course>
<desc>Speed 5.3 km/h Distance 22.81 km</desc>
<time>2011-09-24T11:18:12.42</time>
<name>6053</name>
</trkpt>
<trkpt lat="41.796410" lon="-1.809282">
<ele>1431.0</ele>
<speed>6.2</speed>
<course>353.0</course>
<desc>Speed 6.2 km/h Distance 22.81 km</desc>
<time>2011-09-24T11:18:13.42</time>
<name>6054</name>
</trkpt>
<trkpt lat="41.796430" lon="-1.809285">
<ele>1431.0</ele>
<speed>8.1</speed>
<course>353.3</course>
<desc>Speed 8.1 km/h Distance 22.81 km</desc>
<time>2011-09-24T11:18:14.42</time>
<name>6055</name>
</trkpt>
<trkpt lat="41.796452" lon="-1.809288">
<ele>1431.5</ele>
<speed>8.7</speed>
<course>351.3</course>
<desc>Speed 8.7 km/h Distance 22.81 km</desc>
<time>2011-09-24T11:18:15.42</time>
<name>6056</name>
</trkpt>
<trkpt lat="41.796468" lon="-1.809292">
<ele>1432.0</ele>
<speed>7.2</speed>
<course>335.0</course>
<desc>Speed 7.2 km/h Distance 22.81 km</desc>
<time>2011-09-24T11:18:16.42</time>
<name>6057</name>
</trkpt>
<trkpt lat="41.796482" lon="-1.809300">
<ele>1432.5</ele>
<speed>6.0</speed>
<course>333.7</course>
<desc>Speed 6.0 km/h Distance 22.82 km</desc>
<time>2011-09-24T11:18:17.42</time>
<name>6058</name>
</trkpt>
<trkpt lat="41.796497" lon="-1.809310">
<ele>1433.5</ele>
<speed>6.5</speed>
<course>333.7</course>
<desc>Speed 6.5 km/h Distance 22.82 km</desc>
<time>2011-09-24T11:18:18.43</time>
<name>6059</name>
</trkpt>
<trkpt lat="41.796512" lon="-1.809320">
<ele>1434.0</ele>
<speed>6.4</speed>
<course>340.7</course>
<desc>Speed 6.4 km/h Distance 22.82 km</desc>
<time>2011-09-24T11:18:19.42</time>
<name>6060</name>
</trkpt>
<trkpt lat="41.796537" lon="-1.809332">
<ele>1434.0</ele>
<speed>6.7</speed>
<course>335.9</course>
<desc>Speed 6.7 km/h Distance 22.82 km</desc>
<time>2011-09-24T11:18:20.42</time>
<name>6061</name>
</trkpt>
<trkpt lat="41.796553" lon="-1.809342">
<ele>1434.5</ele>
<speed>5.5</speed>
<course>326.3</course>
<desc>Speed 5.5 km/h Distance 22.82 km</desc>
<time>2011-09-24T11:18:21.42</time>
<name>6062</name>
</trkpt>
<trkpt lat="41.796568" lon="-1.809355">
<ele>1434.5</ele>
<speed>6.7</speed>
<course>345.1</course>
<desc>Speed 6.7 km/h Distance 22.83 km</desc>
<time>2011-09-24T11:18:22.41</time>
<name>6063</name>
</trkpt>
<trkpt lat="41.796592" lon="-1.809363">
<ele>1434.5</ele>
<speed>6.2</speed>
<course>333.7</course>
<desc>Speed 6.2 km/h Distance 22.83 km</desc>
<time>2011-09-24T11:18:25.41</time>
<name>6064</name>
</trkpt>
<trkpt lat="41.796607" lon="-1.809373">
<ele>1434.5</ele>
<speed>6.6</speed>
<course>329.9</course>
<desc>Speed 6.6 km/h Distance 22.83 km</desc>
<time>2011-09-24T11:18:26.41</time>
<name>6065</name>
</trkpt>
<trkpt lat="41.796622" lon="-1.809385">
<ele>1434.5</ele>
<speed>6.5</speed>
<course>323.4</course>
<desc>Speed 6.5 km/h Distance 22.83 km</desc>
<time>2011-09-24T11:18:27.41</time>
<name>6066</name>
</trkpt>
<trkpt lat="41.796638" lon="-1.809402">
<ele>1434.0</ele>
<speed>7.3</speed>
<course>329.9</course>
<desc>Speed 7.3 km/h Distance 22.84 km</desc>
<time>2011-09-24T11:18:28.41</time>
<name>6067</name>
</trkpt>
<trkpt lat="41.796653" lon="-1.809413">
<ele>1434.0</ele>
<speed>7.4</speed>
<course>315.0</course>
<desc>Speed 7.4 km/h Distance 22.84 km</desc>
<time>2011-09-24T11:18:29.41</time>
<name>6068</name>
</trkpt>
<trkpt lat="41.796663" lon="-1.809427">
<ele>1433.5</ele>
<speed>5.0</speed>
<course>317.0</course>
<desc>Speed 5.0 km/h Distance 22.84 km</desc>
<time>2011-09-24T11:18:30.41</time>
<name>6069</name>
</trkpt>
<trkpt lat="41.796677" lon="-1.809443">
<ele>1433.0</ele>
<speed>6.0</speed>
<course>328.7</course>
<desc>Speed 6.0 km/h Distance 22.84 km</desc>
<time>2011-09-24T11:18:31.41</time>
<name>6070</name>
</trkpt>
<trkpt lat="41.796695" lon="-1.809458">
<ele>1432.0</ele>
<speed>8.1</speed>
<course>325.3</course>
<desc>Speed 8.1 km/h Distance 22.84 km</desc>
<time>2011-09-24T11:18:32.42</time>
<name>6071</name>
</trkpt>
<trkpt lat="41.796718" lon="-1.809480">
<ele>1431.0</ele>
<speed>10.1</speed>
<course>328.8</course>
<desc>Speed 10.1 km/h Distance 22.85 km</desc>
<time>2011-09-24T11:18:33.41</time>
<name>6072</name>
</trkpt>
<trkpt lat="41.796745" lon="-1.809502">
<ele>1430.5</ele>
<speed>11.3</speed>
<course>323.3</course>
<desc>Speed 11.3 km/h Distance 22.85 km</desc>
<time>2011-09-24T11:18:34.41</time>
<name>6073</name>
</trkpt>
<trkpt lat="41.796768" lon="-1.809525">
<ele>1430.0</ele>
<speed>10.9</speed>
<course>326.7</course>
<desc>Speed 10.9 km/h Distance 22.85 km</desc>
<time>2011-09-24T11:18:35.40</time>
<name>6074</name>
</trkpt>
<trkpt lat="41.796797" lon="-1.809550">
<ele>1429.0</ele>
<speed>10.1</speed>
<course>326.2</course>
<desc>Speed 10.1 km/h Distance 22.86 km</desc>
<time>2011-09-24T11:18:36.40</time>
<name>6075</name>
</trkpt>
<trkpt lat="41.796830" lon="-1.809580">
<ele>1427.0</ele>
<speed>9.3</speed>
<course>303.9</course>
<desc>Speed 9.3 km/h Distance 22.86 km</desc>
<time>2011-09-24T11:18:37.40</time>
<name>6076</name>
</trkpt>
<trkpt lat="41.796845" lon="-1.809610">
<ele>1425.5</ele>
<speed>9.2</speed>
<course>299.9</course>
<desc>Speed 9.2 km/h Distance 22.86 km</desc>
<time>2011-09-24T11:18:38.40</time>
<name>6077</name>
</trkpt>
<trkpt lat="41.796860" lon="-1.809645">
<ele>1425.0</ele>
<speed>10.0</speed>
<course>318.5</course>
<desc>Speed 10.0 km/h Distance 22.87 km</desc>
<time>2011-09-24T11:18:39.40</time>
<name>6078</name>
</trkpt>
<trkpt lat="41.796887" lon="-1.809677">
<ele>1423.5</ele>
<speed>10.3</speed>
<course>311.0</course>
<desc>Speed 10.3 km/h Distance 22.87 km</desc>
<time>2011-09-24T11:18:40.40</time>
<name>6079</name>
</trkpt>
<trkpt lat="41.796905" lon="-1.809705">
<ele>1422.5</ele>
<speed>9.9</speed>
<course>306.7</course>
<desc>Speed 9.9 km/h Distance 22.87 km</desc>
<time>2011-09-24T11:18:41.40</time>
<name>6080</name>
</trkpt>
<trkpt lat="41.796922" lon="-1.809735">
<ele>1421.5</ele>
<speed>9.8</speed>
<course>310.0</course>
<desc>Speed 9.8 km/h Distance 22.88 km</desc>
<time>2011-09-24T11:18:42.41</time>
<name>6081</name>
</trkpt>
<trkpt lat="41.796938" lon="-1.809762">
<ele>1421.0</ele>
<speed>9.1</speed>
<course>305.6</course>
<desc>Speed 9.1 km/h Distance 22.88 km</desc>
<time>2011-09-24T11:18:43.40</time>
<name>6082</name>
</trkpt>
<trkpt lat="41.796952" lon="-1.809787">
<ele>1420.5</ele>
<speed>8.2</speed>
<course>315.9</course>
<desc>Speed 8.2 km/h Distance 22.88 km</desc>
<time>2011-09-24T11:18:44.40</time>
<name>6083</name>
</trkpt>
<trkpt lat="41.796968" lon="-1.809808">
<ele>1420.0</ele>
<speed>7.9</speed>
<course>307.5</course>
<desc>Speed 7.9 km/h Distance 22.89 km</desc>
<time>2011-09-24T11:18:45.40</time>
<name>6084</name>
</trkpt>
<trkpt lat="41.796982" lon="-1.809832">
<ele>1420.0</ele>
<speed>8.4</speed>
<course>318.2</course>
<desc>Speed 8.4 km/h Distance 22.89 km</desc>
<time>2011-09-24T11:18:46.40</time>
<name>6085</name>
</trkpt>
<trkpt lat="41.796998" lon="-1.809852">
<ele>1419.5</ele>
<speed>8.9</speed>
<course>315.9</course>
<desc>Speed 8.9 km/h Distance 22.89 km</desc>
<time>2011-09-24T11:18:47.39</time>
<name>6086</name>
</trkpt>
<trkpt lat="41.797015" lon="-1.809873">
<ele>1419.0</ele>
<speed>8.3</speed>
<course>305.6</course>
<desc>Speed 8.3 km/h Distance 22.89 km</desc>
<time>2011-09-24T11:18:48.39</time>
<name>6087</name>
</trkpt>
<trkpt lat="41.797028" lon="-1.809898">
<ele>1418.0</ele>
<speed>8.3</speed>
<course>305.6</course>
<desc>Speed 8.3 km/h Distance 22.90 km</desc>
<time>2011-09-24T11:18:49.39</time>
<name>6088</name>
</trkpt>
<trkpt lat="41.797042" lon="-1.809923">
<ele>1417.5</ele>
<speed>8.7</speed>
<course>310.8</course>
<desc>Speed 8.7 km/h Distance 22.90 km</desc>
<time>2011-09-24T11:18:50.39</time>
<name>6089</name>
</trkpt>
<trkpt lat="41.797057" lon="-1.809947">
<ele>1417.0</ele>
<speed>8.4</speed>
<course>303.9</course>
<desc>Speed 8.4 km/h Distance 22.90 km</desc>
<time>2011-09-24T11:18:51.39</time>
<name>6090</name>
</trkpt>
<trkpt lat="41.797070" lon="-1.809973">
<ele>1416.5</ele>
<speed>8.7</speed>
<course>298.9</course>
<desc>Speed 8.7 km/h Distance 22.90 km</desc>
<time>2011-09-24T11:18:52.40</time>
<name>6091</name>
</trkpt>
<trkpt lat="41.797082" lon="-1.810002">
<ele>1416.0</ele>
<speed>8.7</speed>
<course>333.8</course>
<desc>Speed 8.7 km/h Distance 22.91 km</desc>
<time>2011-09-24T11:18:53.40</time>
<name>6092</name>
</trkpt>
<trkpt lat="41.797155" lon="-1.810050">
<ele>1416.0</ele>
<speed>8.7</speed>
<course>332.5</course>
<desc>Speed 8.7 km/h Distance 22.92 km</desc>
<time>2011-09-24T11:18:55.39</time>
<name>6093</name>
</trkpt>
<trkpt lat="41.797188" lon="-1.810073">
<ele>1416.0</ele>
<speed>8.8</speed>
<course>319.5</course>
<desc>Speed 8.8 km/h Distance 22.92 km</desc>
<time>2011-09-24T11:18:56.39</time>
<name>6094</name>
</trkpt>
<trkpt lat="41.797212" lon="-1.810100">
<ele>1416.0</ele>
<speed>8.5</speed>
<course>307.4</course>
<desc>Speed 8.5 km/h Distance 22.92 km</desc>
<time>2011-09-24T11:18:57.39</time>
<name>6095</name>
</trkpt>
<trkpt lat="41.797225" lon="-1.810123">
<ele>1416.0</ele>
<speed>8.7</speed>
<course>303.8</course>
<desc>Speed 8.7 km/h Distance 22.93 km</desc>
<time>2011-09-24T11:18:58.38</time>
<name>6096</name>
</trkpt>
<trkpt lat="41.797237" lon="-1.810147">
<ele>1415.5</ele>
<speed>7.9</speed>
<course>305.8</course>
<desc>Speed 7.9 km/h Distance 22.93 km</desc>
<time>2011-09-24T11:18:59.38</time>
<name>6097</name>
</trkpt>
<trkpt lat="41.797248" lon="-1.810168">
<ele>1414.5</ele>
<speed>7.4</speed>
<course>305.6</course>
<desc>Speed 7.4 km/h Distance 22.93 km</desc>
<time>2011-09-24T11:19:00.38</time>
<name>6098</name>
</trkpt>
<trkpt lat="41.797262" lon="-1.810193">
<ele>1415.0</ele>
<speed>8.5</speed>
<course>327.4</course>
<desc>Speed 8.5 km/h Distance 22.93 km</desc>
<time>2011-09-24T11:19:01.38</time>
<name>6099</name>
</trkpt>
<trkpt lat="41.797285" lon="-1.810213">
<ele>1414.5</ele>
<speed>7.9</speed>
<course>329.2</course>
<desc>Speed 7.9 km/h Distance 22.94 km</desc>
<time>2011-09-24T11:19:02.38</time>
<name>6100</name>
</trkpt>
<trkpt lat="41.797310" lon="-1.810233">
<ele>1414.5</ele>
<speed>8.4</speed>
<course>311.8</course>
<desc>Speed 8.4 km/h Distance 22.94 km</desc>
<time>2011-09-24T11:19:03.38</time>
<name>6101</name>
</trkpt>
<trkpt lat="41.797323" lon="-1.810253">
<ele>1414.0</ele>
<speed>7.9</speed>
<course>315.2</course>
<desc>Speed 7.9 km/h Distance 22.94 km</desc>
<time>2011-09-24T11:19:04.38</time>
<name>6102</name>
</trkpt>
<trkpt lat="41.797338" lon="-1.810273">
<ele>1413.5</ele>
<speed>8.1</speed>
<course>335.0</course>
<desc>Speed 8.1 km/h Distance 22.94 km</desc>
<time>2011-09-24T11:19:05.38</time>
<name>6103</name>
</trkpt>
<trkpt lat="41.797365" lon="-1.810290">
<ele>1413.5</ele>
<speed>7.5</speed>
<course>315.2</course>
<desc>Speed 7.5 km/h Distance 22.95 km</desc>
<time>2011-09-24T11:19:06.38</time>
<name>6104</name>
</trkpt>
<trkpt lat="41.797380" lon="-1.810310">
<ele>1413.0</ele>
<speed>7.8</speed>
<course>317.6</course>
<desc>Speed 7.8 km/h Distance 22.95 km</desc>
<time>2011-09-24T11:19:07.38</time>
<name>6105</name>
</trkpt>
<trkpt lat="41.797395" lon="-1.810328">
<ele>1412.5</ele>
<speed>8.1</speed>
<course>303.8</course>
<desc>Speed 8.1 km/h Distance 22.95 km</desc>
<time>2011-09-24T11:19:08.37</time>
<name>6106</name>
</trkpt>
<trkpt lat="41.797407" lon="-1.810352">
<ele>1412.5</ele>
<speed>8.1</speed>
<course>308.0</course>
<desc>Speed 8.1 km/h Distance 22.95 km</desc>
<time>2011-09-24T11:19:09.37</time>
<name>6107</name>
</trkpt>
<trkpt lat="41.797418" lon="-1.810372">
<ele>1412.0</ele>
<speed>7.4</speed>
<course>309.5</course>
<desc>Speed 7.4 km/h Distance 22.96 km</desc>
<time>2011-09-24T11:19:10.38</time>
<name>6108</name>
</trkpt>
<trkpt lat="41.797432" lon="-1.810393">
<ele>1412.0</ele>
<speed>8.3</speed>
<course>303.8</course>
<desc>Speed 8.3 km/h Distance 22.96 km</desc>
<time>2011-09-24T11:19:11.37</time>
<name>6109</name>
</trkpt>
<trkpt lat="41.797443" lon="-1.810417">
<ele>1412.0</ele>
<speed>8.1</speed>
<course>330.3</course>
<desc>Speed 8.1 km/h Distance 22.96 km</desc>
<time>2011-09-24T11:19:12.37</time>
<name>6110</name>
</trkpt>
<trkpt lat="41.797472" lon="-1.810438">
<ele>1412.0</ele>
<speed>8.6</speed>
<course>312.9</course>
<desc>Speed 8.6 km/h Distance 22.96 km</desc>
<time>2011-09-24T11:19:13.37</time>
<name>6111</name>
</trkpt>
<trkpt lat="41.797487" lon="-1.810460">
<ele>1412.0</ele>
<speed>8.7</speed>
<course>309.5</course>
<desc>Speed 8.7 km/h Distance 22.97 km</desc>
<time>2011-09-24T11:19:14.37</time>
<name>6112</name>
</trkpt>
<trkpt lat="41.797500" lon="-1.810482">
<ele>1412.0</ele>
<speed>8.1</speed>
<course>307.5</course>
<desc>Speed 8.1 km/h Distance 22.97 km</desc>
<time>2011-09-24T11:19:15.37</time>
<name>6113</name>
</trkpt>
<trkpt lat="41.797513" lon="-1.810505">
<ele>1412.0</ele>
<speed>8.2</speed>
<course>295.6</course>
<desc>Speed 8.2 km/h Distance 22.97 km</desc>
<time>2011-09-24T11:19:16.37</time>
<name>6114</name>
</trkpt>
<trkpt lat="41.797522" lon="-1.810528">
<ele>1412.0</ele>
<speed>7.7</speed>
<course>299.9</course>
<desc>Speed 7.7 km/h Distance 22.97 km</desc>
<time>2011-09-24T11:19:17.37</time>
<name>6115</name>
</trkpt>
<trkpt lat="41.797532" lon="-1.810552">
<ele>1412.0</ele>
<speed>7.5</speed>
<course>299.9</course>
<desc>Speed 7.5 km/h Distance 22.98 km</desc>
<time>2011-09-24T11:19:18.37</time>
<name>6116</name>
</trkpt>
<trkpt lat="41.797542" lon="-1.810575">
<ele>1412.0</ele>
<speed>7.8</speed>
<course>315.2</course>
<desc>Speed 7.8 km/h Distance 22.98 km</desc>
<time>2011-09-24T11:19:19.37</time>
<name>6117</name>
</trkpt>
<trkpt lat="41.797557" lon="-1.810595">
<ele>1412.5</ele>
<speed>7.5</speed>
<course>303.9</course>
<desc>Speed 7.5 km/h Distance 22.98 km</desc>
<time>2011-09-24T11:19:20.36</time>
<name>6118</name>
</trkpt>
<trkpt lat="41.797567" lon="-1.810615">
<ele>1412.5</ele>
<speed>6.7</speed>
<course>286.0</course>
<desc>Speed 6.7 km/h Distance 22.98 km</desc>
<time>2011-09-24T11:19:21.36</time>
<name>6119</name>
</trkpt>
<trkpt lat="41.797572" lon="-1.810638">
<ele>1413.0</ele>
<speed>6.9</speed>
<course>284.1</course>
<desc>Speed 6.9 km/h Distance 22.98 km</desc>
<time>2011-09-24T11:19:22.36</time>
<name>6120</name>
</trkpt>
<trkpt lat="41.797577" lon="-1.810665">
<ele>1413.0</ele>
<speed>7.9</speed>
<course>311.8</course>
<desc>Speed 7.9 km/h Distance 22.99 km</desc>
<time>2011-09-24T11:19:23.36</time>
<name>6121</name>
</trkpt>
<trkpt lat="41.797593" lon="-1.810690">
<ele>1413.5</ele>
<speed>8.2</speed>
<course>312.9</course>
<desc>Speed 8.2 km/h Distance 22.99 km</desc>
<time>2011-09-24T11:19:24.36</time>
<name>6122</name>
</trkpt>
<trkpt lat="41.797608" lon="-1.810712">
<ele>1414.5</ele>
<speed>7.3</speed>
<course>287.2</course>
<desc>Speed 7.3 km/h Distance 22.99 km</desc>
<time>2011-09-24T11:19:25.36</time>
<name>6123</name>
</trkpt>
<trkpt lat="41.797613" lon="-1.810733">
<ele>1415.0</ele>
<speed>6.7</speed>
<course>281.6</course>
<desc>Speed 6.7 km/h Distance 22.99 km</desc>
<time>2011-09-24T11:19:26.36</time>
<name>6124</name>
</trkpt>
<trkpt lat="41.797617" lon="-1.810755">
<ele>1414.5</ele>
<speed>6.4</speed>
<course>286.0</course>
<desc>Speed 6.4 km/h Distance 23.00 km</desc>
<time>2011-09-24T11:19:27.37</time>
<name>6125</name>
</trkpt>
<trkpt lat="41.797622" lon="-1.810778">
<ele>1413.5</ele>
<speed>7.3</speed>
<course>281.6</course>
<desc>Speed 7.3 km/h Distance 23.00 km</desc>
<time>2011-09-24T11:19:28.36</time>
<name>6126</name>
</trkpt>
<trkpt lat="41.797625" lon="-1.810800">
<ele>1413.0</ele>
<speed>6.4</speed>
<course>291.8</course>
<desc>Speed 6.4 km/h Distance 23.00 km</desc>
<time>2011-09-24T11:19:29.36</time>
<name>6127</name>
</trkpt>
<trkpt lat="41.797630" lon="-1.810817">
<ele>1413.0</ele>
<speed>5.2</speed>
<course>297.3</course>
<desc>Speed 5.2 km/h Distance 23.00 km</desc>
<time>2011-09-24T11:19:30.36</time>
<name>6128</name>
</trkpt>
<trkpt lat="41.797638" lon="-1.810838">
<ele>1414.0</ele>
<speed>6.5</speed>
<course>296.1</course>
<desc>Speed 6.5 km/h Distance 23.00 km</desc>
<time>2011-09-24T11:19:31.35</time>
<name>6129</name>
</trkpt>
<trkpt lat="41.797645" lon="-1.810857">
<ele>1414.5</ele>
<speed>5.4</speed>
<course>291.0</course>
<desc>Speed 5.4 km/h Distance 23.00 km</desc>
<time>2011-09-24T11:19:32.35</time>
<name>6130</name>
</trkpt>
<trkpt lat="41.797652" lon="-1.810880">
<ele>1415.5</ele>
<speed>6.5</speed>
<course>301.8</course>
<desc>Speed 6.5 km/h Distance 23.01 km</desc>
<time>2011-09-24T11:19:33.35</time>
<name>6131</name>
</trkpt>
<trkpt lat="41.797662" lon="-1.810902">
<ele>1415.5</ele>
<speed>6.6</speed>
<course>270.0</course>
<desc>Speed 6.6 km/h Distance 23.01 km</desc>
<time>2011-09-24T11:19:34.35</time>
<name>6132</name>
</trkpt>
<trkpt lat="41.797662" lon="-1.810927">
<ele>1416.0</ele>
<speed>7.3</speed>
<course>263.6</course>
<desc>Speed 7.3 km/h Distance 23.01 km</desc>
<time>2011-09-24T11:19:35.35</time>
<name>6133</name>
</trkpt>
<trkpt lat="41.797660" lon="-1.810947">
<ele>1416.0</ele>
<speed>5.3</speed>
<course>291.9</course>
<desc>Speed 5.3 km/h Distance 23.01 km</desc>
<time>2011-09-24T11:19:36.36</time>
<name>6134</name>
</trkpt>
<trkpt lat="41.797665" lon="-1.810963">
<ele>1416.0</ele>
<speed>5.5</speed>
<course>282.6</course>
<desc>Speed 5.5 km/h Distance 23.01 km</desc>
<time>2011-09-24T11:19:37.35</time>
<name>6135</name>
</trkpt>
<trkpt lat="41.797668" lon="-1.810983">
<ele>1415.5</ele>
<speed>6.1</speed>
<course>276.4</course>
<desc>Speed 6.1 km/h Distance 23.02 km</desc>
<time>2011-09-24T11:19:38.35</time>
<name>6136</name>
</trkpt>
<trkpt lat="41.797670" lon="-1.811003">
<ele>1415.5</ele>
<speed>5.9</speed>
<course>270.0</course>
<desc>Speed 5.9 km/h Distance 23.02 km</desc>
<time>2011-09-24T11:19:39.34</time>
<name>6137</name>
</trkpt>
<trkpt lat="41.797670" lon="-1.811023">
<ele>1415.5</ele>
<speed>6.2</speed>
<course>291.0</course>
<desc>Speed 6.2 km/h Distance 23.02 km</desc>
<time>2011-09-24T11:19:40.34</time>
<name>6138</name>
</trkpt>
<trkpt lat="41.797677" lon="-1.811047">
<ele>1415.5</ele>
<speed>6.7</speed>
<course>280.9</course>
<desc>Speed 6.7 km/h Distance 23.02 km</desc>
<time>2011-09-24T11:19:41.35</time>
<name>6139</name>
</trkpt>
<trkpt lat="41.797680" lon="-1.811070">
<ele>1415.5</ele>
<speed>6.2</speed>
<course>240.8</course>
<desc>Speed 6.2 km/h Distance 23.02 km</desc>
<time>2011-09-24T11:19:42.34</time>
<name>6140</name>
</trkpt>
<trkpt lat="41.797672" lon="-1.811090">
<ele>1415.0</ele>
<speed>6.3</speed>
<course>259.2</course>
<desc>Speed 6.3 km/h Distance 23.02 km</desc>
<time>2011-09-24T11:19:43.34</time>
<name>6141</name>
</trkpt>
<trkpt lat="41.797668" lon="-1.811113">
<ele>1415.5</ele>
<speed>7.0</speed>
<course>256.3</course>
<desc>Speed 7.0 km/h Distance 23.03 km</desc>
<time>2011-09-24T11:19:44.34</time>
<name>6142</name>
</trkpt>
<trkpt lat="41.797665" lon="-1.811132">
<ele>1414.5</ele>
<speed>5.8</speed>
<course>287.2</course>
<desc>Speed 5.8 km/h Distance 23.03 km</desc>
<time>2011-09-24T11:19:45.35</time>
<name>6143</name>
</trkpt>
<trkpt lat="41.797670" lon="-1.811153">
<ele>1415.5</ele>
<speed>5.9</speed>
<course>270.0</course>
<desc>Speed 5.9 km/h Distance 23.03 km</desc>
<time>2011-09-24T11:19:46.35</time>
<name>6144</name>
</trkpt>
<trkpt lat="41.797670" lon="-1.811172">
<ele>1416.0</ele>
<speed>5.0</speed>
<course>253.5</course>
<desc>Speed 5.0 km/h Distance 23.03 km</desc>
<time>2011-09-24T11:19:47.35</time>
<name>6145</name>
</trkpt>
<trkpt lat="41.797667" lon="-1.811187">
<ele>1416.5</ele>
<speed>5.4</speed>
<course>262.4</course>
<desc>Speed 5.4 km/h Distance 23.03 km</desc>
<time>2011-09-24T11:19:48.34</time>
<name>6146</name>
</trkpt>
<trkpt lat="41.797665" lon="-1.811203">
<ele>1416.5</ele>
<speed>5.1</speed>
<course>261.5</course>
<desc>Speed 5.1 km/h Distance 23.03 km</desc>
<time>2011-09-24T11:19:49.33</time>
<name>6147</name>
</trkpt>
<trkpt lat="41.797663" lon="-1.811218">
<ele>1416.0</ele>
<speed>4.8</speed>
<course>261.5</course>
<desc>Speed 4.8 km/h Distance 23.04 km</desc>
<time>2011-09-24T11:19:50.33</time>
<name>6148</name>
</trkpt>
<trkpt lat="41.797662" lon="-1.811233">
<ele>1417.5</ele>
<speed>5.4</speed>
<course>270.0</course>
<desc>Speed 5.4 km/h Distance 23.04 km</desc>
<time>2011-09-24T11:19:51.33</time>
<name>6149</name>
</trkpt>
<trkpt lat="41.797662" lon="-1.811252">
<ele>1418.0</ele>
<speed>5.0</speed>
<course>256.3</course>
<desc>Speed 5.0 km/h Distance 23.04 km</desc>
<time>2011-09-24T11:19:52.33</time>
<name>6150</name>
</trkpt>
<trkpt lat="41.797658" lon="-1.811270">
<ele>1418.0</ele>
<speed>5.4</speed>
<course>275.9</course>
<desc>Speed 5.4 km/h Distance 23.04 km</desc>
<time>2011-09-24T11:19:53.33</time>
<name>6151</name>
</trkpt>
<trkpt lat="41.797660" lon="-1.811292">
<ele>1418.0</ele>
<speed>5.5</speed>
<course>277.0</course>
<desc>Speed 5.5 km/h Distance 23.04 km</desc>
<time>2011-09-24T11:19:54.33</time>
<name>6152</name>
</trkpt>
<trkpt lat="41.797662" lon="-1.811310">
<ele>1417.5</ele>
<speed>4.9</speed>
<course>270.0</course>
<desc>Speed 4.9 km/h Distance 23.04 km</desc>
<time>2011-09-24T11:19:55.34</time>
<name>6153</name>
</trkpt>
<trkpt lat="41.797662" lon="-1.811332">
<ele>1417.0</ele>
<speed>5.3</speed>
<course>241.9</course>
<desc>Speed 5.3 km/h Distance 23.05 km</desc>
<time>2011-09-24T11:19:56.33</time>
<name>6154</name>
</trkpt>
<trkpt lat="41.797655" lon="-1.811348">
<ele>1416.0</ele>
<speed>5.7</speed>
<course>248.1</course>
<desc>Speed 5.7 km/h Distance 23.05 km</desc>
<time>2011-09-24T11:19:57.34</time>
<name>6155</name>
</trkpt>
<trkpt lat="41.797650" lon="-1.811365">
<ele>1415.5</ele>
<speed>6.0</speed>
<course>257.4</course>
<desc>Speed 6.0 km/h Distance 23.05 km</desc>
<time>2011-09-24T11:19:58.33</time>
<name>6156</name>
</trkpt>
<trkpt lat="41.797647" lon="-1.811385">
<ele>1415.5</ele>
<speed>5.5</speed>
<course>245.9</course>
<desc>Speed 5.5 km/h Distance 23.05 km</desc>
<time>2011-09-24T11:19:59.33</time>
<name>6157</name>
</trkpt>
<trkpt lat="41.797640" lon="-1.811405">
<ele>1415.0</ele>
<speed>6.1</speed>
<course>238.7</course>
<desc>Speed 6.1 km/h Distance 23.05 km</desc>
<time>2011-09-24T11:20:00.33</time>
<name>6158</name>
</trkpt>
<trkpt lat="41.797632" lon="-1.811423">
<ele>1415.0</ele>
<speed>6.6</speed>
<course>244.4</course>
<desc>Speed 6.6 km/h Distance 23.05 km</desc>
<time>2011-09-24T11:20:01.33</time>
<name>6159</name>
</trkpt>
<trkpt lat="41.797623" lon="-1.811447">
<ele>1414.5</ele>
<speed>7.1</speed>
<course>245.9</course>
<desc>Speed 7.1 km/h Distance 23.06 km</desc>
<time>2011-09-24T11:20:02.32</time>
<name>6160</name>
</trkpt>
<trkpt lat="41.797615" lon="-1.811472">
<ele>1413.5</ele>
<speed>7.7</speed>
<course>244.4</course>
<desc>Speed 7.7 km/h Distance 23.06 km</desc>
<time>2011-09-24T11:20:03.32</time>
<name>6161</name>
</trkpt>
<trkpt lat="41.797607" lon="-1.811495">
<ele>1413.5</ele>
<speed>7.8</speed>
<course>241.7</course>
<desc>Speed 7.8 km/h Distance 23.06 km</desc>
<time>2011-09-24T11:20:04.32</time>
<name>6162</name>
</trkpt>
<trkpt lat="41.797597" lon="-1.811520">
<ele>1413.5</ele>
<speed>8.1</speed>
<course>240.1</course>
<desc>Speed 8.1 km/h Distance 23.06 km</desc>
<time>2011-09-24T11:20:05.32</time>
<name>6163</name>
</trkpt>
<trkpt lat="41.797587" lon="-1.811543">
<ele>1413.5</ele>
<speed>7.7</speed>
<course>247.3</course>
<desc>Speed 7.7 km/h Distance 23.06 km</desc>
<time>2011-09-24T11:20:06.32</time>
<name>6164</name>
</trkpt>
<trkpt lat="41.797578" lon="-1.811570">
<ele>1414.0</ele>
<speed>8.1</speed>
<course>236.2</course>
<desc>Speed 8.1 km/h Distance 23.07 km</desc>
<time>2011-09-24T11:20:07.32</time>
<name>6165</name>
</trkpt>
<trkpt lat="41.797567" lon="-1.811593">
<ele>1413.5</ele>
<speed>8.0</speed>
<course>247.2</course>
<desc>Speed 8.0 km/h Distance 23.07 km</desc>
<time>2011-09-24T11:20:08.32</time>
<name>6166</name>
</trkpt>
<trkpt lat="41.797558" lon="-1.811620">
<ele>1413.5</ele>
<speed>8.0</speed>
<course>240.1</course>
<desc>Speed 8.0 km/h Distance 23.07 km</desc>
<time>2011-09-24T11:20:09.32</time>
<name>6167</name>
</trkpt>
<trkpt lat="41.797548" lon="-1.811643">
<ele>1413.5</ele>
<speed>8.0</speed>
<course>234.2</course>
<desc>Speed 8.0 km/h Distance 23.07 km</desc>
<time>2011-09-24T11:20:10.32</time>
<name>6168</name>
</trkpt>
<trkpt lat="41.797537" lon="-1.811665">
<ele>1413.5</ele>
<speed>8.0</speed>
<course>225.7</course>
<desc>Speed 8.0 km/h Distance 23.08 km</desc>
<time>2011-09-24T11:20:11.32</time>
<name>6169</name>
</trkpt>
<trkpt lat="41.797523" lon="-1.811683">
<ele>1413.5</ele>
<speed>7.5</speed>
<course>236.2</course>
<desc>Speed 7.5 km/h Distance 23.08 km</desc>
<time>2011-09-24T11:20:12.31</time>
<name>6170</name>
</trkpt>
<trkpt lat="41.797513" lon="-1.811703">
<ele>1414.0</ele>
<speed>6.8</speed>
<course>228.2</course>
<desc>Speed 6.8 km/h Distance 23.08 km</desc>
<time>2011-09-24T11:20:13.67</time>
<name>6171</name>
</trkpt>
<trkpt lat="41.797490" lon="-1.811738">
<ele>1413.5</ele>
<speed>7.1</speed>
<course>236.1</course>
<desc>Speed 7.1 km/h Distance 23.08 km</desc>
<time>2011-09-24T11:20:15.32</time>
<name>6172</name>
</trkpt>
<trkpt lat="41.797470" lon="-1.811778">
<ele>1414.0</ele>
<speed>6.6</speed>
<course>233.8</course>
<desc>Speed 6.6 km/h Distance 23.09 km</desc>
<time>2011-09-24T11:20:17.32</time>
<name>6173</name>
</trkpt>
<trkpt lat="41.797460" lon="-1.811797">
<ele>1414.5</ele>
<speed>7.2</speed>
<course>236.1</course>
<desc>Speed 7.2 km/h Distance 23.09 km</desc>
<time>2011-09-24T11:20:18.32</time>
<name>6174</name>
</trkpt>
<trkpt lat="41.797450" lon="-1.811817">
<ele>1414.5</ele>
<speed>7.0</speed>
<course>240.8</course>
<desc>Speed 7.0 km/h Distance 23.09 km</desc>
<time>2011-09-24T11:20:19.31</time>
<name>6175</name>
</trkpt>
<trkpt lat="41.797442" lon="-1.811837">
<ele>1415.0</ele>
<speed>7.1</speed>
<course>236.1</course>
<desc>Speed 7.1 km/h Distance 23.09 km</desc>
<time>2011-09-24T11:20:20.31</time>
<name>6176</name>
</trkpt>
<trkpt lat="41.797432" lon="-1.811857">
<ele>1416.0</ele>
<speed>7.2</speed>
<course>228.2</course>
<desc>Speed 7.2 km/h Distance 23.10 km</desc>
<time>2011-09-24T11:20:21.31</time>
<name>6177</name>
</trkpt>
<trkpt lat="41.797418" lon="-1.811877">
<ele>1416.5</ele>
<speed>7.1</speed>
<course>238.2</course>
<desc>Speed 7.1 km/h Distance 23.10 km</desc>
<time>2011-09-24T11:20:22.31</time>
<name>6178</name>
</trkpt>
<trkpt lat="41.797408" lon="-1.811898">
<ele>1416.5</ele>
<speed>7.0</speed>
<course>227.5</course>
<desc>Speed 7.0 km/h Distance 23.10 km</desc>
<time>2011-09-24T11:20:23.89</time>
<name>6179</name>
</trkpt>
<trkpt lat="41.797387" lon="-1.811930">
<ele>1417.0</ele>
<speed>5.4</speed>
<course>226.8</course>
<desc>Speed 5.4 km/h Distance 23.10 km</desc>
<time>2011-09-24T11:20:25.31</time>
<name>6180</name>
</trkpt>
<trkpt lat="41.797375" lon="-1.811947">
<ele>1417.0</ele>
<speed>6.7</speed>
<course>240.8</course>
<desc>Speed 6.7 km/h Distance 23.11 km</desc>
<time>2011-09-24T11:20:26.31</time>
<name>6181</name>
</trkpt>
<trkpt lat="41.797367" lon="-1.811967">
<ele>1417.0</ele>
<speed>6.8</speed>
<course>238.3</course>
<desc>Speed 6.8 km/h Distance 23.11 km</desc>
<time>2011-09-24T11:20:27.31</time>
<name>6182</name>
</trkpt>
<trkpt lat="41.797357" lon="-1.811988">
<ele>1417.0</ele>
<speed>6.9</speed>
<course>248.1</course>
<desc>Speed 6.9 km/h Distance 23.11 km</desc>
<time>2011-09-24T11:20:28.31</time>
<name>6183</name>
</trkpt>
<trkpt lat="41.797352" lon="-1.812005">
<ele>1418.5</ele>
<speed>5.1</speed>
<course>213.9</course>
<desc>Speed 5.1 km/h Distance 23.11 km</desc>
<time>2011-09-24T11:20:29.31</time>
<name>6184</name>
</trkpt>
<trkpt lat="41.797335" lon="-1.812020">
<ele>1417.5</ele>
<speed>8.0</speed>
<course>230.5</course>
<desc>Speed 8.0 km/h Distance 23.11 km</desc>
<time>2011-09-24T11:20:30.31</time>
<name>6185</name>
</trkpt>
<trkpt lat="41.797322" lon="-1.812042">
<ele>1417.5</ele>
<speed>8.6</speed>
<course>221.8</course>
<desc>Speed 8.6 km/h Distance 23.12 km</desc>
<time>2011-09-24T11:20:31.30</time>
<name>6186</name>
</trkpt>
<trkpt lat="41.797305" lon="-1.812062">
<ele>1417.5</ele>
<speed>9.5</speed>
<course>229.2</course>
<desc>Speed 9.5 km/h Distance 23.12 km</desc>
<time>2011-09-24T11:20:32.31</time>
<name>6187</name>
</trkpt>
<trkpt lat="41.797290" lon="-1.812085">
<ele>1418.5</ele>
<speed>9.8</speed>
<course>237.7</course>
<desc>Speed 9.8 km/h Distance 23.12 km</desc>
<time>2011-09-24T11:20:33.30</time>
<name>6188</name>
</trkpt>
<trkpt lat="41.797277" lon="-1.812113">
<ele>1419.5</ele>
<speed>9.6</speed>
<course>236.1</course>
<desc>Speed 9.6 km/h Distance 23.12 km</desc>
<time>2011-09-24T11:20:34.30</time>
<name>6189</name>
</trkpt>
<trkpt lat="41.797265" lon="-1.812137">
<ele>1419.5</ele>
<speed>8.3</speed>
<course>229.5</course>
<desc>Speed 8.3 km/h Distance 23.13 km</desc>
<time>2011-09-24T11:20:35.30</time>
<name>6190</name>
</trkpt>
<trkpt lat="41.797253" lon="-1.812155">
<ele>1419.0</ele>
<speed>7.5</speed>
<course>229.5</course>
<desc>Speed 7.5 km/h Distance 23.13 km</desc>
<time>2011-09-24T11:20:36.31</time>
<name>6191</name>
</trkpt>
<trkpt lat="41.797242" lon="-1.812173">
<ele>1418.0</ele>
<speed>8.0</speed>
<course>234.1</course>
<desc>Speed 8.0 km/h Distance 23.13 km</desc>
<time>2011-09-24T11:20:37.30</time>
<name>6192</name>
</trkpt>
<trkpt lat="41.797230" lon="-1.812195">
<ele>1418.5</ele>
<speed>8.4</speed>
<course>234.2</course>
<desc>Speed 8.4 km/h Distance 23.13 km</desc>
<time>2011-09-24T11:20:38.31</time>
<name>6193</name>
</trkpt>
<trkpt lat="41.797218" lon="-1.812217">
<ele>1419.0</ele>
<speed>8.0</speed>
<course>216.7</course>
<desc>Speed 8.0 km/h Distance 23.13 km</desc>
<time>2011-09-24T11:20:39.30</time>
<name>6194</name>
</trkpt>
<trkpt lat="41.797200" lon="-1.812235">
<ele>1418.0</ele>
<speed>9.2</speed>
<course>230.0</course>
<desc>Speed 9.2 km/h Distance 23.14 km</desc>
<time>2011-09-24T11:20:40.59</time>
<name>6195</name>
</trkpt>
<trkpt lat="41.797167" lon="-1.812288">
<ele>1418.5</ele>
<speed>10.2</speed>
<course>241.2</course>
<desc>Speed 10.2 km/h Distance 23.14 km</desc>
<time>2011-09-24T11:20:42.30</time>
<name>6196</name>
</trkpt>
<trkpt lat="41.797152" lon="-1.812325">
<ele>1419.5</ele>
<speed>10.1</speed>
<course>237.4</course>
<desc>Speed 10.1 km/h Distance 23.15 km</desc>
<time>2011-09-24T11:20:43.29</time>
<name>6197</name>
</trkpt>
<trkpt lat="41.797135" lon="-1.812360">
<ele>1420.0</ele>
<speed>10.3</speed>
<course>238.9</course>
<desc>Speed 10.3 km/h Distance 23.15 km</desc>
<time>2011-09-24T11:20:44.29</time>
<name>6198</name>
</trkpt>
<trkpt lat="41.797120" lon="-1.812393">
<ele>1421.0</ele>
<speed>10.1</speed>
<course>241.8</course>
<desc>Speed 10.1 km/h Distance 23.15 km</desc>
<time>2011-09-24T11:20:45.30</time>
<name>6199</name>
</trkpt>
<trkpt lat="41.797107" lon="-1.812427">
<ele>1421.0</ele>
<speed>9.6</speed>
<course>233.3</course>
<desc>Speed 9.6 km/h Distance 23.16 km</desc>
<time>2011-09-24T11:20:46.30</time>
<name>6200</name>
</trkpt>
<trkpt lat="41.797090" lon="-1.812457">
<ele>1422.0</ele>
<speed>9.8</speed>
<course>241.8</course>
<desc>Speed 9.8 km/h Distance 23.16 km</desc>
<time>2011-09-24T11:20:47.29</time>
<name>6201</name>
</trkpt>
<trkpt lat="41.797077" lon="-1.812490">
<ele>1423.0</ele>
<speed>9.6</speed>
<course>242.9</course>
<desc>Speed 9.6 km/h Distance 23.16 km</desc>
<time>2011-09-24T11:20:48.30</time>
<name>6202</name>
</trkpt>
<trkpt lat="41.797063" lon="-1.812525">
<ele>1423.5</ele>
<speed>9.6</speed>
<course>240.1</course>
<desc>Speed 9.6 km/h Distance 23.17 km</desc>
<time>2011-09-24T11:20:49.29</time>
<name>6203</name>
</trkpt>
<trkpt lat="41.797048" lon="-1.812560">
<ele>1424.0</ele>
<speed>9.7</speed>
<course>241.2</course>
<desc>Speed 9.7 km/h Distance 23.17 km</desc>
<time>2011-09-24T11:20:50.29</time>
<name>6204</name>
</trkpt>
<trkpt lat="41.797033" lon="-1.812597">
<ele>1425.0</ele>
<speed>10.1</speed>
<course>244.0</course>
<desc>Speed 10.1 km/h Distance 23.17 km</desc>
<time>2011-09-24T11:20:51.29</time>
<name>6205</name>
</trkpt>
<trkpt lat="41.797020" lon="-1.812633">
<ele>1426.0</ele>
<speed>10.1</speed>
<course>245.9</course>
<desc>Speed 10.1 km/h Distance 23.18 km</desc>
<time>2011-09-24T11:20:52.29</time>
<name>6206</name>
</trkpt>
<trkpt lat="41.797008" lon="-1.812668">
<ele>1427.0</ele>
<speed>10.0</speed>
<course>238.9</course>
<desc>Speed 10.0 km/h Distance 23.18 km</desc>
<time>2011-09-24T11:20:53.29</time>
<name>6207</name>
</trkpt>
<trkpt lat="41.796993" lon="-1.812702">
<ele>1427.5</ele>
<speed>9.6</speed>
<course>237.6</course>
<desc>Speed 9.6 km/h Distance 23.18 km</desc>
<time>2011-09-24T11:20:54.29</time>
<name>6208</name>
</trkpt>
<trkpt lat="41.796978" lon="-1.812733">
<ele>1428.0</ele>
<speed>9.8</speed>
<course>231.7</course>
<desc>Speed 9.8 km/h Distance 23.19 km</desc>
<time>2011-09-24T11:20:55.29</time>
<name>6209</name>
</trkpt>
<trkpt lat="41.796962" lon="-1.812762">
<ele>1428.5</ele>
<speed>9.7</speed>
<course>232.9</course>
<desc>Speed 9.7 km/h Distance 23.19 km</desc>
<time>2011-09-24T11:20:56.28</time>
<name>6210</name>
</trkpt>
<trkpt lat="41.796947" lon="-1.812788">
<ele>1428.5</ele>
<speed>9.4</speed>
<course>234.4</course>
<desc>Speed 9.4 km/h Distance 23.19 km</desc>
<time>2011-09-24T11:20:57.28</time>
<name>6211</name>
</trkpt>
<trkpt lat="41.796933" lon="-1.812813">
<ele>1429.5</ele>
<speed>9.1</speed>
<course>227.1</course>
<desc>Speed 9.1 km/h Distance 23.19 km</desc>
<time>2011-09-24T11:20:58.28</time>
<name>6212</name>
</trkpt>
<trkpt lat="41.796918" lon="-1.812835">
<ele>1430.0</ele>
<speed>9.4</speed>
<course>229.2</course>
<desc>Speed 9.4 km/h Distance 23.20 km</desc>
<time>2011-09-24T11:20:59.28</time>
<name>6213</name>
</trkpt>
<trkpt lat="41.796903" lon="-1.812858">
<ele>1430.5</ele>
<speed>9.2</speed>
<course>241.1</course>
<desc>Speed 9.2 km/h Distance 23.20 km</desc>
<time>2011-09-24T11:21:00.28</time>
<name>6214</name>
</trkpt>
<trkpt lat="41.796892" lon="-1.812887">
<ele>1430.5</ele>
<speed>9.4</speed>
<course>236.1</course>
<desc>Speed 9.4 km/h Distance 23.20 km</desc>
<time>2011-09-24T11:21:01.28</time>
<name>6215</name>
</trkpt>
<trkpt lat="41.796877" lon="-1.812917">
<ele>1431.0</ele>
<speed>10.0</speed>
<course>239.2</course>
<desc>Speed 10.0 km/h Distance 23.20 km</desc>
<time>2011-09-24T11:21:02.28</time>
<name>6216</name>
</trkpt>
<trkpt lat="41.796863" lon="-1.812947">
<ele>1431.5</ele>
<speed>10.4</speed>
<course>231.7</course>
<desc>Speed 10.4 km/h Distance 23.21 km</desc>
<time>2011-09-24T11:21:03.28</time>
<name>6217</name>
</trkpt>
<trkpt lat="41.796847" lon="-1.812975">
<ele>1431.0</ele>
<speed>10.4</speed>
<course>237.6</course>
<desc>Speed 10.4 km/h Distance 23.21 km</desc>
<time>2011-09-24T11:21:04.28</time>
<name>6218</name>
</trkpt>
<trkpt lat="41.796832" lon="-1.813007">
<ele>1431.5</ele>
<speed>10.4</speed>
<course>236.2</course>
<desc>Speed 10.4 km/h Distance 23.21 km</desc>
<time>2011-09-24T11:21:05.27</time>
<name>6219</name>
</trkpt>
<trkpt lat="41.796817" lon="-1.813037">
<ele>1431.5</ele>
<speed>10.2</speed>
<course>230.7</course>
<desc>Speed 10.2 km/h Distance 23.22 km</desc>
<time>2011-09-24T11:21:06.27</time>
<name>6220</name>
</trkpt>
<trkpt lat="41.796798" lon="-1.813067">
<ele>1432.0</ele>
<speed>10.2</speed>
<course>231.2</course>
<desc>Speed 10.2 km/h Distance 23.22 km</desc>
<time>2011-09-24T11:21:07.27</time>
<name>6221</name>
</trkpt>
<trkpt lat="41.796783" lon="-1.813092">
<ele>1432.5</ele>
<speed>9.9</speed>
<course>231.2</course>
<desc>Speed 9.9 km/h Distance 23.22 km</desc>
<time>2011-09-24T11:21:08.27</time>
<name>6222</name>
</trkpt>
<trkpt lat="41.796768" lon="-1.813117">
<ele>1432.5</ele>
<speed>9.6</speed>
<course>234.6</course>
<desc>Speed 9.6 km/h Distance 23.23 km</desc>
<time>2011-09-24T11:21:09.27</time>
<name>6223</name>
</trkpt>
<trkpt lat="41.796753" lon="-1.813145">
<ele>1433.0</ele>
<speed>9.9</speed>
<course>231.7</course>
<desc>Speed 9.9 km/h Distance 23.23 km</desc>
<time>2011-09-24T11:21:10.28</time>
<name>6224</name>
</trkpt>
<trkpt lat="41.796737" lon="-1.813173">
<ele>1433.5</ele>
<speed>10.1</speed>
<course>228.6</course>
<desc>Speed 10.1 km/h Distance 23.23 km</desc>
<time>2011-09-24T11:21:11.30</time>
<name>6225</name>
</trkpt>
<trkpt lat="41.796702" lon="-1.813227">
<ele>1432.5</ele>
<speed>9.8</speed>
<course>232.9</course>
<desc>Speed 9.8 km/h Distance 23.24 km</desc>
<time>2011-09-24T11:21:13.26</time>
<name>6226</name>
</trkpt>
<trkpt lat="41.796687" lon="-1.813253">
<ele>1432.5</ele>
<speed>9.9</speed>
<course>236.1</course>
<desc>Speed 9.9 km/h Distance 23.24 km</desc>
<time>2011-09-24T11:21:14.26</time>
<name>6227</name>
</trkpt>
<trkpt lat="41.796672" lon="-1.813283">
<ele>1432.5</ele>
<speed>9.9</speed>
<course>234.6</course>
<desc>Speed 9.9 km/h Distance 23.24 km</desc>
<time>2011-09-24T11:21:15.26</time>
<name>6228</name>
</trkpt>
<trkpt lat="41.796657" lon="-1.813312">
<ele>1432.5</ele>
<speed>9.8</speed>
<course>234.4</course>
<desc>Speed 9.8 km/h Distance 23.25 km</desc>
<time>2011-09-24T11:21:16.27</time>
<name>6229</name>
</trkpt>
<trkpt lat="41.796643" lon="-1.813337">
<ele>1432.0</ele>
<speed>9.6</speed>
<course>232.9</course>
<desc>Speed 9.6 km/h Distance 23.25 km</desc>
<time>2011-09-24T11:21:17.26</time>
<name>6230</name>
</trkpt>
<trkpt lat="41.796628" lon="-1.813363">
<ele>1431.5</ele>
<speed>9.6</speed>
<course>237.7</course>
<desc>Speed 9.6 km/h Distance 23.25 km</desc>
<time>2011-09-24T11:21:18.26</time>
<name>6231</name>
</trkpt>
<trkpt lat="41.796615" lon="-1.813392">
<ele>1432.0</ele>
<speed>9.5</speed>
<course>234.6</course>
<desc>Speed 9.5 km/h Distance 23.25 km</desc>
<time>2011-09-24T11:21:19.26</time>
<name>6232</name>
</trkpt>
<trkpt lat="41.796600" lon="-1.813420">
<ele>1432.0</ele>
<speed>10.0</speed>
<course>237.8</course>
<desc>Speed 10.0 km/h Distance 23.26 km</desc>
<time>2011-09-24T11:21:20.25</time>
<name>6233</name>
</trkpt>
<trkpt lat="41.796587" lon="-1.813448">
<ele>1432.0</ele>
<speed>9.8</speed>
<course>234.6</course>
<desc>Speed 9.8 km/h Distance 23.26 km</desc>
<time>2011-09-24T11:21:21.25</time>
<name>6234</name>
</trkpt>
<trkpt lat="41.796572" lon="-1.813477">
<ele>1431.5</ele>
<speed>9.1</speed>
<course>236.1</course>
<desc>Speed 9.1 km/h Distance 23.26 km</desc>
<time>2011-09-24T11:21:23.21</time>
<name>6235</name>
</trkpt>
<trkpt lat="41.796532" lon="-1.813557">
<ele>1431.5</ele>
<speed>9.5</speed>
<course>236.1</course>
<desc>Speed 9.5 km/h Distance 23.27 km</desc>
<time>2011-09-24T11:21:25.25</time>
<name>6236</name>
</trkpt>
<trkpt lat="41.796517" lon="-1.813587">
<ele>1431.5</ele>
<speed>9.7</speed>
<course>234.6</course>
<desc>Speed 9.7 km/h Distance 23.27 km</desc>
<time>2011-09-24T11:21:26.26</time>
<name>6237</name>
</trkpt>
<trkpt lat="41.796502" lon="-1.813615">
<ele>1431.5</ele>
<speed>9.5</speed>
<course>236.1</course>
<desc>Speed 9.5 km/h Distance 23.28 km</desc>
<time>2011-09-24T11:21:27.26</time>
<name>6238</name>
</trkpt>
<trkpt lat="41.796487" lon="-1.813645">
<ele>1432.0</ele>
<speed>10.0</speed>
<course>242.4</course>
<desc>Speed 10.0 km/h Distance 23.28 km</desc>
<time>2011-09-24T11:21:28.25</time>
<name>6239</name>
</trkpt>
<trkpt lat="41.796475" lon="-1.813675">
<ele>1431.5</ele>
<speed>9.4</speed>
<course>239.4</course>
<desc>Speed 9.4 km/h Distance 23.28 km</desc>
<time>2011-09-24T11:21:30.02</time>
<name>6240</name>
</trkpt>
<trkpt lat="41.796450" lon="-1.813732">
<ele>1432.0</ele>
<speed>9.1</speed>
<course>232.9</course>
<desc>Speed 9.1 km/h Distance 23.29 km</desc>
<time>2011-09-24T11:21:31.24</time>
<name>6241</name>
</trkpt>
<trkpt lat="41.796435" lon="-1.813758">
<ele>1432.5</ele>
<speed>9.3</speed>
<course>243.7</course>
<desc>Speed 9.3 km/h Distance 23.29 km</desc>
<time>2011-09-24T11:21:32.24</time>
<name>6242</name>
</trkpt>
<trkpt lat="41.796423" lon="-1.813790">
<ele>1433.0</ele>
<speed>9.3</speed>
<course>251.5</course>
<desc>Speed 9.3 km/h Distance 23.29 km</desc>
<time>2011-09-24T11:21:33.25</time>
<name>6243</name>
</trkpt>
<trkpt lat="41.796415" lon="-1.813823">
<ele>1433.0</ele>
<speed>9.0</speed>
<course>241.1</course>
<desc>Speed 9.0 km/h Distance 23.30 km</desc>
<time>2011-09-24T11:21:34.24</time>
<name>6244</name>
</trkpt>
<trkpt lat="41.796403" lon="-1.813852">
<ele>1433.5</ele>
<speed>8.9</speed>
<course>241.1</course>
<desc>Speed 8.9 km/h Distance 23.30 km</desc>
<time>2011-09-24T11:21:35.24</time>
<name>6245</name>
</trkpt>
<trkpt lat="41.796392" lon="-1.813880">
<ele>1433.5</ele>
<speed>8.8</speed>
<course>239.2</course>
<desc>Speed 8.8 km/h Distance 23.30 km</desc>
<time>2011-09-24T11:21:36.24</time>
<name>6246</name>
</trkpt>
<trkpt lat="41.796378" lon="-1.813910">
<ele>1433.5</ele>
<speed>8.8</speed>
<course>237.7</course>
<desc>Speed 8.8 km/h Distance 23.30 km</desc>
<time>2011-09-24T11:21:37.24</time>
<name>6247</name>
</trkpt>
<trkpt lat="41.796365" lon="-1.813938">
<ele>1434.0</ele>
<speed>8.9</speed>
<course>239.6</course>
<desc>Speed 8.9 km/h Distance 23.31 km</desc>
<time>2011-09-24T11:21:38.24</time>
<name>6248</name>
</trkpt>
<trkpt lat="41.796353" lon="-1.813965">
<ele>1433.0</ele>
<speed>9.0</speed>
<course>241.1</course>
<desc>Speed 9.0 km/h Distance 23.31 km</desc>
<time>2011-09-24T11:21:39.24</time>
<name>6249</name>
</trkpt>
<trkpt lat="41.796342" lon="-1.813993">
<ele>1433.0</ele>
<speed>8.9</speed>
<course>243.3</course>
<desc>Speed 8.9 km/h Distance 23.31 km</desc>
<time>2011-09-24T11:21:40.24</time>
<name>6250</name>
</trkpt>
<trkpt lat="41.796332" lon="-1.814020">
<ele>1433.0</ele>
<speed>8.3</speed>
<course>253.4</course>
<desc>Speed 8.3 km/h Distance 23.31 km</desc>
<time>2011-09-24T11:21:41.24</time>
<name>6251</name>
</trkpt>
<trkpt lat="41.796325" lon="-1.814050">
<ele>1433.5</ele>
<speed>8.5</speed>
<course>243.3</course>
<desc>Speed 8.5 km/h Distance 23.32 km</desc>
<time>2011-09-24T11:21:42.24</time>
<name>6252</name>
</trkpt>
<trkpt lat="41.796315" lon="-1.814077">
<ele>1434.0</ele>
<speed>8.5</speed>
<course>249.5</course>
<desc>Speed 8.5 km/h Distance 23.32 km</desc>
<time>2011-09-24T11:21:43.24</time>
<name>6253</name>
</trkpt>
<trkpt lat="41.796307" lon="-1.814107">
<ele>1434.5</ele>
<speed>8.9</speed>
<course>251.4</course>
<desc>Speed 8.9 km/h Distance 23.32 km</desc>
<time>2011-09-24T11:21:44.23</time>
<name>6254</name>
</trkpt>
<trkpt lat="41.796300" lon="-1.814133">
<ele>1434.5</ele>
<speed>8.2</speed>
<course>238.4</course>
<desc>Speed 8.2 km/h Distance 23.32 km</desc>
<time>2011-09-24T11:21:45.44</time>
<name>6255</name>
</trkpt>
<trkpt lat="41.796282" lon="-1.814173">
<ele>1435.5</ele>
<speed>5.9</speed>
<course>242.7</course>
<desc>Speed 5.9 km/h Distance 23.33 km</desc>
<time>2011-09-24T11:21:47.24</time>
<name>6256</name>
</trkpt>
<trkpt lat="41.796273" lon="-1.814195">
<ele>1435.0</ele>
<speed>6.8</speed>
<course>232.0</course>
<desc>Speed 6.8 km/h Distance 23.33 km</desc>
<time>2011-09-24T11:21:48.24</time>
<name>6257</name>
</trkpt>
<trkpt lat="41.796262" lon="-1.814215">
<ele>1434.5</ele>
<speed>7.1</speed>
<course>245.9</course>
<desc>Speed 7.1 km/h Distance 23.33 km</desc>
<time>2011-09-24T11:21:49.27</time>
<name>6258</name>
</trkpt>
<trkpt lat="41.796255" lon="-1.814235">
<ele>1435.0</ele>
<speed>6.4</speed>
<course>233.8</course>
<desc>Speed 6.4 km/h Distance 23.33 km</desc>
<time>2011-09-24T11:21:50.24</time>
<name>6259</name>
</trkpt>
<trkpt lat="41.796245" lon="-1.814253">
<ele>1435.0</ele>
<speed>6.8</speed>
<course>240.8</course>
<desc>Speed 6.8 km/h Distance 23.34 km</desc>
<time>2011-09-24T11:21:51.23</time>
<name>6260</name>
</trkpt>
<trkpt lat="41.796237" lon="-1.814273">
<ele>1434.5</ele>
<speed>7.1</speed>
<course>225.7</course>
<desc>Speed 7.1 km/h Distance 23.34 km</desc>
<time>2011-09-24T11:21:52.23</time>
<name>6261</name>
</trkpt>
<trkpt lat="41.796223" lon="-1.814292">
<ele>1434.0</ele>
<speed>7.4</speed>
<course>224.8</course>
<desc>Speed 7.4 km/h Distance 23.34 km</desc>
<time>2011-09-24T11:21:53.23</time>
<name>6262</name>
</trkpt>
<trkpt lat="41.796208" lon="-1.814312">
<ele>1434.0</ele>
<speed>8.0</speed>
<course>227.1</course>
<desc>Speed 8.0 km/h Distance 23.34 km</desc>
<time>2011-09-24T11:21:54.23</time>
<name>6263</name>
</trkpt>
<trkpt lat="41.796193" lon="-1.814333">
<ele>1434.0</ele>
<speed>8.3</speed>
<course>227.1</course>
<desc>Speed 8.3 km/h Distance 23.35 km</desc>
<time>2011-09-24T11:21:55.23</time>
<name>6264</name>
</trkpt>
<trkpt lat="41.796178" lon="-1.814355">
<ele>1434.5</ele>
<speed>8.4</speed>
<course>232.0</course>
<desc>Speed 8.4 km/h Distance 23.35 km</desc>
<time>2011-09-24T11:21:56.23</time>
<name>6265</name>
</trkpt>
<trkpt lat="41.796167" lon="-1.814375">
<ele>1434.0</ele>
<speed>7.8</speed>
<course>224.1</course>
<desc>Speed 7.8 km/h Distance 23.35 km</desc>
<time>2011-09-24T11:21:57.23</time>
<name>6266</name>
</trkpt>
<trkpt lat="41.796150" lon="-1.814397">
<ele>1434.5</ele>
<speed>9.2</speed>
<course>221.8</course>
<desc>Speed 9.2 km/h Distance 23.35 km</desc>
<time>2011-09-24T11:21:58.22</time>
<name>6267</name>
</trkpt>
<trkpt lat="41.796133" lon="-1.814417">
<ele>1436.5</ele>
<speed>8.8</speed>
<course>208.5</course>
<desc>Speed 8.8 km/h Distance 23.35 km</desc>
<time>2011-09-24T11:21:59.22</time>
<name>6268</name>
</trkpt>
<trkpt lat="41.796115" lon="-1.814430">
<ele>1436.5</ele>
<speed>8.9</speed>
<course>195.4</course>
<desc>Speed 8.9 km/h Distance 23.36 km</desc>
<time>2011-09-24T11:22:00.23</time>
<name>6269</name>
</trkpt>
<trkpt lat="41.796097" lon="-1.814437">
<ele>1436.5</ele>
<speed>7.8</speed>
<course>184.4</course>
<desc>Speed 7.8 km/h Distance 23.36 km</desc>
<time>2011-09-24T11:22:01.22</time>
<name>6270</name>
</trkpt>
<trkpt lat="41.796077" lon="-1.814438">
<ele>1437.0</ele>
<speed>7.9</speed>
<course>168.6</course>
<desc>Speed 7.9 km/h Distance 23.36 km</desc>
<time>2011-09-24T11:22:02.22</time>
<name>6271</name>
</trkpt>
<trkpt lat="41.796058" lon="-1.814433">
<ele>1437.5</ele>
<speed>7.6</speed>
<course>159.5</course>
<desc>Speed 7.6 km/h Distance 23.36 km</desc>
<time>2011-09-24T11:22:03.23</time>
<name>6272</name>
</trkpt>
<trkpt lat="41.796045" lon="-1.814427">
<ele>1436.5</ele>
<speed>5.4</speed>
<course>131.7</course>
<desc>Speed 5.4 km/h Distance 23.37 km</desc>
<time>2011-09-24T11:22:04.23</time>
<name>6273</name>
</trkpt>
<trkpt lat="41.796035" lon="-1.814412">
<ele>1436.5</ele>
<speed>6.3</speed>
<course>128.8</course>
<desc>Speed 6.3 km/h Distance 23.37 km</desc>
<time>2011-09-24T11:22:05.22</time>
<name>6274</name>
</trkpt>
<trkpt lat="41.796025" lon="-1.814395">
<ele>1436.0</ele>
<speed>7.0</speed>
<course>116.0</course>
<desc>Speed 7.0 km/h Distance 23.37 km</desc>
<time>2011-09-24T11:22:06.23</time>
<name>6275</name>
</trkpt>
<trkpt lat="41.796018" lon="-1.814377">
<ele>1437.0</ele>
<speed>6.7</speed>
<course>102.6</course>
<desc>Speed 6.7 km/h Distance 23.37 km</desc>
<time>2011-09-24T11:22:07.22</time>
<name>6276</name>
</trkpt>
<trkpt lat="41.796015" lon="-1.814357">
<ele>1437.0</ele>
<speed>7.4</speed>
<course>95.9</course>
<desc>Speed 7.4 km/h Distance 23.37 km</desc>
<time>2011-09-24T11:22:08.22</time>
<name>6277</name>
</trkpt>
<trkpt lat="41.796013" lon="-1.814335">
<ele>1436.5</ele>
<speed>6.9</speed>
<course>101.6</course>
<desc>Speed 6.9 km/h Distance 23.37 km</desc>
<time>2011-09-24T11:22:09.22</time>
<name>6278</name>
</trkpt>
<trkpt lat="41.796010" lon="-1.814313">
<ele>1437.0</ele>
<speed>7.7</speed>
<course>108.5</course>
<desc>Speed 7.7 km/h Distance 23.38 km</desc>
<time>2011-09-24T11:22:10.23</time>
<name>6279</name>
</trkpt>
<trkpt lat="41.796005" lon="-1.814293">
<ele>1437.5</ele>
<speed>7.9</speed>
<course>101.6</course>
<desc>Speed 7.9 km/h Distance 23.38 km</desc>
<time>2011-09-24T11:22:11.22</time>
<name>6280</name>
</trkpt>
<trkpt lat="41.796002" lon="-1.814272">
<ele>1437.5</ele>
<speed>7.8</speed>
<course>97.0</course>
<desc>Speed 7.8 km/h Distance 23.38 km</desc>
<time>2011-09-24T11:22:12.22</time>
<name>6281</name>
</trkpt>
<trkpt lat="41.796000" lon="-1.814253">
<ele>1438.0</ele>
<speed>6.8</speed>
<course>76.3</course>
<desc>Speed 6.8 km/h Distance 23.38 km</desc>
<time>2011-09-24T11:22:13.22</time>
<name>6282</name>
</trkpt>
<trkpt lat="41.796003" lon="-1.814235">
<ele>1438.5</ele>
<speed>6.6</speed>
<course>77.4</course>
<desc>Speed 6.6 km/h Distance 23.38 km</desc>
<time>2011-09-24T11:22:14.22</time>
<name>6283</name>
</trkpt>
<trkpt lat="41.796007" lon="-1.814215">
<ele>1437.5</ele>
<speed>6.5</speed>
<course>62.7</course>
<desc>Speed 6.5 km/h Distance 23.38 km</desc>
<time>2011-09-24T11:22:15.22</time>
<name>6284</name>
</trkpt>
<trkpt lat="41.796015" lon="-1.814193">
<ele>1437.5</ele>
<speed>7.3</speed>
<course>48.2</course>
<desc>Speed 7.3 km/h Distance 23.39 km</desc>
<time>2011-09-24T11:22:16.21</time>
<name>6285</name>
</trkpt>
<trkpt lat="41.796028" lon="-1.814173">
<ele>1437.0</ele>
<speed>7.7</speed>
<course>71.5</course>
<desc>Speed 7.7 km/h Distance 23.39 km</desc>
<time>2011-09-24T11:22:17.21</time>
<name>6286</name>
</trkpt>
<trkpt lat="41.796033" lon="-1.814153">
<ele>1437.0</ele>
<speed>6.3</speed>
<course>60.8</course>
<desc>Speed 6.3 km/h Distance 23.39 km</desc>
<time>2011-09-24T11:22:18.21</time>
<name>6287</name>
</trkpt>
<trkpt lat="41.796042" lon="-1.814133">
<ele>1437.0</ele>
<speed>6.9</speed>
<course>53.8</course>
<desc>Speed 6.9 km/h Distance 23.39 km</desc>
<time>2011-09-24T11:22:19.21</time>
<name>6288</name>
</trkpt>
<trkpt lat="41.796052" lon="-1.814115">
<ele>1436.5</ele>
<speed>6.7</speed>
<course>61.8</course>
<desc>Speed 6.7 km/h Distance 23.39 km</desc>
<time>2011-09-24T11:22:20.21</time>
<name>6289</name>
</trkpt>
<trkpt lat="41.796058" lon="-1.814098">
<ele>1436.5</ele>
<speed>5.9</speed>
<course>50.1</course>
<desc>Speed 5.9 km/h Distance 23.40 km</desc>
<time>2011-09-24T11:22:21.20</time>
<name>6290</name>
</trkpt>
<trkpt lat="41.796067" lon="-1.814085">
<ele>1436.5</ele>
<speed>5.0</speed>
<course>71.5</course>
<desc>Speed 5.0 km/h Distance 23.40 km</desc>
<time>2011-09-24T11:22:22.20</time>
<name>6291</name>
</trkpt>
<trkpt lat="41.796072" lon="-1.814065">
<ele>1437.5</ele>
<speed>6.6</speed>
<course>79.1</course>
<desc>Speed 6.6 km/h Distance 23.40 km</desc>
<time>2011-09-24T11:22:23.21</time>
<name>6292</name>
</trkpt>
<trkpt lat="41.796075" lon="-1.814042">
<ele>1438.0</ele>
<speed>7.5</speed>
<course>85.2</course>
<desc>Speed 7.5 km/h Distance 23.40 km</desc>
<time>2011-09-24T11:22:24.20</time>
<name>6293</name>
</trkpt>
<trkpt lat="41.796077" lon="-1.814015">
<ele>1439.0</ele>
<speed>8.3</speed>
<course>60.8</course>
<desc>Speed 8.3 km/h Distance 23.40 km</desc>
<time>2011-09-24T11:22:25.20</time>
<name>6294</name>
</trkpt>
<trkpt lat="41.796085" lon="-1.813995">
<ele>1440.0</ele>
<speed>8.0</speed>
<course>71.4</course>
<desc>Speed 8.0 km/h Distance 23.40 km</desc>
<time>2011-09-24T11:22:26.20</time>
<name>6295</name>
</trkpt>
<trkpt lat="41.796090" lon="-1.813975">
<ele>1441.0</ele>
<speed>7.6</speed>
<course>78.3</course>
<desc>Speed 7.6 km/h Distance 23.41 km</desc>
<time>2011-09-24T11:22:27.20</time>
<name>6296</name>
</trkpt>
<trkpt lat="41.796093" lon="-1.813953">
<ele>1441.5</ele>
<speed>7.5</speed>
<course>67.6</course>
<desc>Speed 7.5 km/h Distance 23.41 km</desc>
<time>2011-09-24T11:22:28.20</time>
<name>6297</name>
</trkpt>
<trkpt lat="41.796100" lon="-1.813932">
<ele>1442.5</ele>
<speed>8.6</speed>
<course>67.5</course>
<desc>Speed 8.6 km/h Distance 23.41 km</desc>
<time>2011-09-24T11:22:29.20</time>
<name>6298</name>
</trkpt>
<trkpt lat="41.796107" lon="-1.813910">
<ele>1444.0</ele>
<speed>9.0</speed>
<course>56.1</course>
<desc>Speed 9.0 km/h Distance 23.41 km</desc>
<time>2011-09-24T11:22:30.20</time>
<name>6299</name>
</trkpt>
<trkpt lat="41.796117" lon="-1.813890">
<ele>1445.5</ele>
<speed>8.7</speed>
<course>61.8</course>
<desc>Speed 8.7 km/h Distance 23.41 km</desc>
<time>2011-09-24T11:22:31.20</time>
<name>6300</name>
</trkpt>
<trkpt lat="41.796127" lon="-1.813865">
<ele>1446.5</ele>
<speed>9.3</speed>
<course>57.9</course>
<desc>Speed 9.3 km/h Distance 23.42 km</desc>
<time>2011-09-24T11:22:32.20</time>
<name>6301</name>
</trkpt>
<trkpt lat="41.796138" lon="-1.813840">
<ele>1447.0</ele>
<speed>9.3</speed>
<course>70.3</course>
<desc>Speed 9.3 km/h Distance 23.42 km</desc>
<time>2011-09-24T11:22:33.19</time>
<name>6302</name>
</trkpt>
<trkpt lat="41.796145" lon="-1.813815">
<ele>1447.5</ele>
<speed>9.1</speed>
<course>70.3</course>
<desc>Speed 9.1 km/h Distance 23.42 km</desc>
<time>2011-09-24T11:22:34.19</time>
<name>6303</name>
</trkpt>
<trkpt lat="41.796152" lon="-1.813790">
<ele>1448.0</ele>
<speed>8.7</speed>
<course>62.7</course>
<desc>Speed 8.7 km/h Distance 23.42 km</desc>
<time>2011-09-24T11:22:35.19</time>
<name>6304</name>
</trkpt>
<trkpt lat="41.796160" lon="-1.813768">
<ele>1448.0</ele>
<speed>7.7</speed>
<course>78.3</course>
<desc>Speed 7.7 km/h Distance 23.43 km</desc>
<time>2011-09-24T11:22:36.20</time>
<name>6305</name>
</trkpt>
<trkpt lat="41.796163" lon="-1.813747">
<ele>1448.5</ele>
<speed>7.5</speed>
<course>72.8</course>
<desc>Speed 7.5 km/h Distance 23.43 km</desc>
<time>2011-09-24T11:22:37.19</time>
<name>6306</name>
</trkpt>
<trkpt lat="41.796168" lon="-1.813725">
<ele>1449.5</ele>
<speed>7.0</speed>
<course>40.0</course>
<desc>Speed 7.0 km/h Distance 23.43 km</desc>
<time>2011-09-24T11:22:38.19</time>
<name>6307</name>
</trkpt>
<trkpt lat="41.796182" lon="-1.813710">
<ele>1449.0</ele>
<speed>6.9</speed>
<course>25.0</course>
<desc>Speed 6.9 km/h Distance 23.43 km</desc>
<time>2011-09-24T11:22:39.19</time>
<name>6308</name>
</trkpt>
<trkpt lat="41.796195" lon="-1.813702">
<ele>1449.5</ele>
<speed>5.8</speed>
<course>283.3</course>
<desc>Speed 5.8 km/h Distance 23.43 km</desc>
<time>2011-09-24T11:22:40.19</time>
<name>6309</name>
</trkpt>
<trkpt lat="41.796200" lon="-1.813730">
<ele>1449.0</ele>
<speed>8.3</speed>
<course>270.0</course>
<desc>Speed 8.3 km/h Distance 23.44 km</desc>
<time>2011-09-24T11:22:41.19</time>
<name>6310</name>
</trkpt>
<trkpt lat="41.796200" lon="-1.813753">
<ele>1449.0</ele>
<speed>6.4</speed>
<course>251.5</course>
<desc>Speed 6.4 km/h Distance 23.44 km</desc>
<time>2011-09-24T11:22:42.19</time>
<name>6311</name>
</trkpt>
<trkpt lat="41.796195" lon="-1.813773">
<ele>1449.5</ele>
<speed>6.2</speed>
<course>247.6</course>
<desc>Speed 6.2 km/h Distance 23.44 km</desc>
<time>2011-09-24T11:22:43.19</time>
<name>6312</name>
</trkpt>
<trkpt lat="41.796188" lon="-1.813795">
<ele>1450.0</ele>
<speed>7.4</speed>
<course>236.2</course>
<desc>Speed 7.4 km/h Distance 23.44 km</desc>
<time>2011-09-24T11:22:44.19</time>
<name>6313</name>
</trkpt>
<trkpt lat="41.796177" lon="-1.813818">
<ele>1451.0</ele>
<speed>8.6</speed>
<course>244.7</course>
<desc>Speed 8.6 km/h Distance 23.44 km</desc>
<time>2011-09-24T11:22:45.19</time>
<name>6314</name>
</trkpt>
<trkpt lat="41.796167" lon="-1.813847">
<ele>1452.0</ele>
<speed>9.3</speed>
<course>248.5</course>
<desc>Speed 9.3 km/h Distance 23.45 km</desc>
<time>2011-09-24T11:22:46.19</time>
<name>6315</name>
</trkpt>
<trkpt lat="41.796158" lon="-1.813875">
<ele>1452.5</ele>
<speed>9.8</speed>
<course>299.9</course>
<desc>Speed 9.8 km/h Distance 23.45 km</desc>
<time>2011-09-24T11:22:47.18</time>
<name>6316</name>
</trkpt>
<trkpt lat="41.796163" lon="-1.813887">
<ele>1454.0</ele>
<speed>4.1</speed>
<course>270.0</course>
<desc>Speed 4.1 km/h Distance 23.45 km</desc>
<time>2011-09-24T11:22:48.18</time>
<name>6317</name>
</trkpt>
<trkpt lat="41.796163" lon="-1.813897">
<ele>1454.0</ele>
<speed>3.1</speed>
<course>209.2</course>
<desc>Speed 3.1 km/h Distance 23.45 km</desc>
<time>2011-09-24T11:22:49.18</time>
<name>6318</name>
</trkpt>
<trkpt lat="41.796157" lon="-1.813902">
<ele>1453.5</ele>
<speed>4.5</speed>
<course>171.9</course>
<desc>Speed 4.5 km/h Distance 23.45 km</desc>
<time>2011-09-24T11:22:50.18</time>
<name>6319</name>
</trkpt>
<trkpt lat="41.796147" lon="-1.813900">
<ele>1453.5</ele>
<speed>4.0</speed>
<course>108.5</course>
<desc>Speed 4.0 km/h Distance 23.45 km</desc>
<time>2011-09-24T11:22:51.18</time>
<name>6320</name>
</trkpt>
<trkpt lat="41.796145" lon="-1.813893">
<ele>1453.5</ele>
<speed>2.8</speed>
<course>66.0</course>
<desc>Speed 2.8 km/h Distance 23.45 km</desc>
<time>2011-09-24T11:22:52.18</time>
<name>6321</name>
</trkpt>
<trkpt lat="41.796147" lon="-1.813888">
<ele>1453.5</ele>
<speed>1.5</speed>
<course>23.0</course>
<desc>Speed 1.5 km/h Distance 23.45 km</desc>
<time>2011-09-24T11:22:53.18</time>
<name>6322</name>
</trkpt>
<trkpt lat="41.796150" lon="-1.813887">
<ele>1453.5</ele>
<speed>1.1</speed>
<course>51.1</course>
<desc>Speed 1.1 km/h Distance 23.45 km</desc>
<time>2011-09-24T11:22:54.18</time>
<name>6323</name>
</trkpt>
<trkpt lat="41.796155" lon="-1.813878">
<ele>1453.0</ele>
<speed>2.8</speed>
<course>60.1</course>
<desc>Speed 2.8 km/h Distance 23.45 km</desc>
<time>2011-09-24T11:22:55.18</time>
<name>6324</name>
</trkpt>
<trkpt lat="41.796160" lon="-1.813867">
<ele>1453.5</ele>
<speed>3.9</speed>
<course>65.9</course>
<desc>Speed 3.9 km/h Distance 23.46 km</desc>
<time>2011-09-24T11:22:56.18</time>
<name>6325</name>
</trkpt>
<trkpt lat="41.796167" lon="-1.813847">
<ele>1453.5</ele>
<speed>6.1</speed>
<course>67.6</course>
<desc>Speed 6.1 km/h Distance 23.46 km</desc>
<time>2011-09-24T11:22:57.18</time>
<name>6326</name>
</trkpt>
<trkpt lat="41.796173" lon="-1.813825">
<ele>1453.5</ele>
<speed>7.1</speed>
<course>58.7</course>
<desc>Speed 7.1 km/h Distance 23.46 km</desc>
<time>2011-09-24T11:22:58.17</time>
<name>6327</name>
</trkpt>
<trkpt lat="41.796182" lon="-1.813807">
<ele>1453.5</ele>
<speed>6.0</speed>
<course>61.9</course>
<desc>Speed 6.0 km/h Distance 23.46 km</desc>
<time>2011-09-24T11:22:59.18</time>
<name>6328</name>
</trkpt>
<trkpt lat="41.796188" lon="-1.813790">
<ele>1453.5</ele>
<speed>5.7</speed>
<course>56.3</course>
<desc>Speed 5.7 km/h Distance 23.46 km</desc>
<time>2011-09-24T11:23:00.17</time>
<name>6329</name>
</trkpt>
<trkpt lat="41.796195" lon="-1.813777">
<ele>1454.0</ele>
<speed>4.4</speed>
<course>53.8</course>
<desc>Speed 4.4 km/h Distance 23.46 km</desc>
<time>2011-09-24T11:23:01.17</time>
<name>6330</name>
</trkpt>
<trkpt lat="41.796205" lon="-1.813758">
<ele>1454.0</ele>
<speed>6.2</speed>
<course>71.5</course>
<desc>Speed 6.2 km/h Distance 23.47 km</desc>
<time>2011-09-24T11:23:02.17</time>
<name>6331</name>
</trkpt>
<trkpt lat="41.796210" lon="-1.813738">
<ele>1454.0</ele>
<speed>6.7</speed>
<course>62.7</course>
<desc>Speed 6.7 km/h Distance 23.47 km</desc>
<time>2011-09-24T11:23:03.17</time>
<name>6332</name>
</trkpt>
<trkpt lat="41.796218" lon="-1.813717">
<ele>1454.0</ele>
<speed>6.9</speed>
<course>79.8</course>
<desc>Speed 6.9 km/h Distance 23.47 km</desc>
<time>2011-09-24T11:23:04.17</time>
<name>6333</name>
</trkpt>
<trkpt lat="41.796222" lon="-1.813692">
<ele>1454.5</ele>
<speed>7.3</speed>
<course>74.0</course>
<desc>Speed 7.3 km/h Distance 23.47 km</desc>
<time>2011-09-24T11:23:05.17</time>
<name>6334</name>
</trkpt>
<trkpt lat="41.796227" lon="-1.813668">
<ele>1454.0</ele>
<speed>7.5</speed>
<course>57.9</course>
<desc>Speed 7.5 km/h Distance 23.47 km</desc>
<time>2011-09-24T11:23:06.17</time>
<name>6335</name>
</trkpt>
<trkpt lat="41.796238" lon="-1.813643">
<ele>1454.5</ele>
<speed>8.2</speed>
<course>60.1</course>
<desc>Speed 8.2 km/h Distance 23.48 km</desc>
<time>2011-09-24T11:23:07.17</time>
<name>6336</name>
</trkpt>
<trkpt lat="41.796248" lon="-1.813620">
<ele>1454.5</ele>
<speed>7.9</speed>
<course>56.2</course>
<desc>Speed 7.9 km/h Distance 23.48 km</desc>
<time>2011-09-24T11:23:08.17</time>
<name>6337</name>
</trkpt>
<trkpt lat="41.796260" lon="-1.813597">
<ele>1454.5</ele>
<speed>7.6</speed>
<course>48.2</course>
<desc>Speed 7.6 km/h Distance 23.48 km</desc>
<time>2011-09-24T11:23:09.16</time>
<name>6338</name>
</trkpt>
<trkpt lat="41.796273" lon="-1.813577">
<ele>1454.5</ele>
<speed>7.4</speed>
<course>58.7</course>
<desc>Speed 7.4 km/h Distance 23.48 km</desc>
<time>2011-09-24T11:23:10.17</time>
<name>6339</name>
</trkpt>
<trkpt lat="41.796282" lon="-1.813558">
<ele>1454.5</ele>
<speed>5.8</speed>
<course>56.2</course>
<desc>Speed 5.8 km/h Distance 23.48 km</desc>
<time>2011-09-24T11:23:11.16</time>
<name>6340</name>
</trkpt>
<trkpt lat="41.796293" lon="-1.813535">
<ele>1454.5</ele>
<speed>7.4</speed>
<course>64.4</course>
<desc>Speed 7.4 km/h Distance 23.49 km</desc>
<time>2011-09-24T11:23:12.16</time>
<name>6341</name>
</trkpt>
<trkpt lat="41.796302" lon="-1.813512">
<ele>1454.5</ele>
<speed>7.2</speed>
<course>61.8</course>
<desc>Speed 7.2 km/h Distance 23.49 km</desc>
<time>2011-09-24T11:23:13.16</time>
<name>6342</name>
</trkpt>
<trkpt lat="41.796312" lon="-1.813487">
<ele>1454.5</ele>
<speed>8.1</speed>
<course>57.7</course>
<desc>Speed 8.1 km/h Distance 23.49 km</desc>
<time>2011-09-24T11:23:14.16</time>
<name>6343</name>
</trkpt>
<trkpt lat="41.796325" lon="-1.813458">
<ele>1454.5</ele>
<speed>9.5</speed>
<course>56.2</course>
<desc>Speed 9.5 km/h Distance 23.49 km</desc>
<time>2011-09-24T11:23:15.16</time>
<name>6344</name>
</trkpt>
<trkpt lat="41.796340" lon="-1.813428">
<ele>1454.5</ele>
<speed>10.5</speed>
<course>61.8</course>
<desc>Speed 10.5 km/h Distance 23.50 km</desc>
<time>2011-09-24T11:23:16.16</time>
<name>6345</name>
</trkpt>
<trkpt lat="41.796353" lon="-1.813395">
<ele>1454.5</ele>
<speed>11.1</speed>
<course>57.4</course>
<desc>Speed 11.1 km/h Distance 23.50 km</desc>
<time>2011-09-24T11:23:17.16</time>
<name>6346</name>
</trkpt>
<trkpt lat="41.796370" lon="-1.813360">
<ele>1454.5</ele>
<speed>11.7</speed>
<course>60.1</course>
<desc>Speed 11.7 km/h Distance 23.50 km</desc>
<time>2011-09-24T11:23:18.16</time>
<name>6347</name>
</trkpt>
<trkpt lat="41.796385" lon="-1.813325">
<ele>1454.5</ele>
<speed>11.6</speed>
<course>66.9</course>
<desc>Speed 11.6 km/h Distance 23.51 km</desc>
<time>2011-09-24T11:23:19.16</time>
<name>6348</name>
</trkpt>
<trkpt lat="41.796397" lon="-1.813288">
<ele>1454.5</ele>
<speed>11.8</speed>
<course>64.0</course>
<desc>Speed 11.8 km/h Distance 23.51 km</desc>
<time>2011-09-24T11:23:20.16</time>
<name>6349</name>
</trkpt>
<trkpt lat="41.796410" lon="-1.813252">
<ele>1454.5</ele>
<speed>12.1</speed>
<course>66.9</course>
<desc>Speed 12.1 km/h Distance 23.51 km</desc>
<time>2011-09-24T11:23:21.15</time>
<name>6350</name>
</trkpt>
<trkpt lat="41.796422" lon="-1.813215">
<ele>1454.5</ele>
<speed>11.7</speed>
<course>67.8</course>
<desc>Speed 11.7 km/h Distance 23.52 km</desc>
<time>2011-09-24T11:23:22.15</time>
<name>6351</name>
</trkpt>
<trkpt lat="41.796433" lon="-1.813177">
<ele>1455.0</ele>
<speed>12.0</speed>
<course>64.0</course>
<desc>Speed 12.0 km/h Distance 23.52 km</desc>
<time>2011-09-24T11:23:23.15</time>
<name>6352</name>
</trkpt>
<trkpt lat="41.796447" lon="-1.813140">
<ele>1455.5</ele>
<speed>11.7</speed>
<course>61.2</course>
<desc>Speed 11.7 km/h Distance 23.52 km</desc>
<time>2011-09-24T11:23:24.15</time>
<name>6353</name>
</trkpt>
<trkpt lat="41.796462" lon="-1.813103">
<ele>1456.0</ele>
<speed>11.8</speed>
<course>70.7</course>
<desc>Speed 11.8 km/h Distance 23.53 km</desc>
<time>2011-09-24T11:23:25.15</time>
<name>6354</name>
</trkpt>
<trkpt lat="41.796472" lon="-1.813065">
<ele>1456.5</ele>
<speed>11.3</speed>
<course>62.3</course>
<desc>Speed 11.3 km/h Distance 23.53 km</desc>
<time>2011-09-24T11:23:26.15</time>
<name>6355</name>
</trkpt>
<trkpt lat="41.796487" lon="-1.813027">
<ele>1457.0</ele>
<speed>12.0</speed>
<course>65.0</course>
<desc>Speed 12.0 km/h Distance 23.53 km</desc>
<time>2011-09-24T11:23:27.15</time>
<name>6356</name>
</trkpt>
<trkpt lat="41.796500" lon="-1.812988">
<ele>1457.0</ele>
<speed>12.5</speed>
<course>63.3</course>
<desc>Speed 12.5 km/h Distance 23.54 km</desc>
<time>2011-09-24T11:23:28.15</time>
<name>6357</name>
</trkpt>
<trkpt lat="41.796515" lon="-1.812948">
<ele>1457.0</ele>
<speed>12.8</speed>
<course>65.0</course>
<desc>Speed 12.8 km/h Distance 23.54 km</desc>
<time>2011-09-24T11:23:29.15</time>
<name>6358</name>
</trkpt>
<trkpt lat="41.796528" lon="-1.812910">
<ele>1457.5</ele>
<speed>13.0</speed>
<course>60.8</course>
<desc>Speed 13.0 km/h Distance 23.55 km</desc>
<time>2011-09-24T11:23:30.15</time>
<name>6359</name>
</trkpt>
<trkpt lat="41.796545" lon="-1.812870">
<ele>1457.5</ele>
<speed>13.2</speed>
<course>64.2</course>
<desc>Speed 13.2 km/h Distance 23.55 km</desc>
<time>2011-09-24T11:23:31.15</time>
<name>6360</name>
</trkpt>
<trkpt lat="41.796560" lon="-1.812828">
<ele>1457.5</ele>
<speed>13.6</speed>
<course>64.2</course>
<desc>Speed 13.6 km/h Distance 23.55 km</desc>
<time>2011-09-24T11:23:32.15</time>
<name>6361</name>
</trkpt>
<trkpt lat="41.796575" lon="-1.812787">
<ele>1457.5</ele>
<speed>13.5</speed>
<course>60.8</course>
<desc>Speed 13.5 km/h Distance 23.56 km</desc>
<time>2011-09-24T11:23:33.15</time>
<name>6362</name>
</trkpt>
<trkpt lat="41.796592" lon="-1.812747">
<ele>1458.0</ele>
<speed>13.2</speed>
<course>65.0</course>
<desc>Speed 13.2 km/h Distance 23.56 km</desc>
<time>2011-09-24T11:23:34.14</time>
<name>6363</name>
</trkpt>
<trkpt lat="41.796605" lon="-1.812708">
<ele>1458.5</ele>
<speed>12.8</speed>
<course>57.3</course>
<desc>Speed 12.8 km/h Distance 23.56 km</desc>
<time>2011-09-24T11:23:35.14</time>
<name>6364</name>
</trkpt>
<trkpt lat="41.796623" lon="-1.812670">
<ele>1459.0</ele>
<speed>13.3</speed>
<course>62.7</course>
<desc>Speed 13.3 km/h Distance 23.57 km</desc>
<time>2011-09-24T11:23:36.14</time>
<name>6365</name>
</trkpt>
<trkpt lat="41.796640" lon="-1.812627">
<ele>1459.0</ele>
<speed>13.2</speed>
<course>68.3</course>
<desc>Speed 13.2 km/h Distance 23.57 km</desc>
<time>2011-09-24T11:23:37.14</time>
<name>6366</name>
</trkpt>
<trkpt lat="41.796653" lon="-1.812582">
<ele>1459.5</ele>
<speed>13.9</speed>
<course>69.0</course>
<desc>Speed 13.9 km/h Distance 23.58 km</desc>
<time>2011-09-24T11:23:38.14</time>
<name>6367</name>
</trkpt>
<trkpt lat="41.796667" lon="-1.812535">
<ele>1459.5</ele>
<speed>14.1</speed>
<course>65.9</course>
<desc>Speed 14.1 km/h Distance 23.58 km</desc>
<time>2011-09-24T11:23:39.14</time>
<name>6368</name>
</trkpt>
<trkpt lat="41.796682" lon="-1.812490">
<ele>1460.0</ele>
<speed>13.7</speed>
<course>62.7</course>
<desc>Speed 13.7 km/h Distance 23.58 km</desc>
<time>2011-09-24T11:23:40.14</time>
<name>6369</name>
</trkpt>
<trkpt lat="41.796698" lon="-1.812447">
<ele>1460.0</ele>
<speed>14.0</speed>
<course>69.7</course>
<desc>Speed 14.0 km/h Distance 23.59 km</desc>
<time>2011-09-24T11:23:41.14</time>
<name>6370</name>
</trkpt>
<trkpt lat="41.796712" lon="-1.812398">
<ele>1460.0</ele>
<speed>14.5</speed>
<course>77.8</course>
<desc>Speed 14.5 km/h Distance 23.59 km</desc>
<time>2011-09-24T11:23:42.14</time>
<name>6371</name>
</trkpt>
<trkpt lat="41.796720" lon="-1.812347">
<ele>1460.0</ele>
<speed>15.5</speed>
<course>77.8</course>
<desc>Speed 15.5 km/h Distance 23.60 km</desc>
<time>2011-09-24T11:23:43.14</time>
<name>6372</name>
</trkpt>
<trkpt lat="41.796728" lon="-1.812295">
<ele>1460.5</ele>
<speed>15.1</speed>
<course>79.9</course>
<desc>Speed 15.1 km/h Distance 23.60 km</desc>
<time>2011-09-24T11:23:44.14</time>
<name>6373</name>
</trkpt>
<trkpt lat="41.796735" lon="-1.812245">
<ele>1460.5</ele>
<speed>15.1</speed>
<course>77.8</course>
<desc>Speed 15.1 km/h Distance 23.61 km</desc>
<time>2011-09-24T11:23:45.13</time>
<name>6374</name>
</trkpt>
<trkpt lat="41.796743" lon="-1.812193">
<ele>1460.5</ele>
<speed>14.9</speed>
<course>79.9</course>
<desc>Speed 14.9 km/h Distance 23.61 km</desc>
<time>2011-09-24T11:23:46.13</time>
<name>6375</name>
</trkpt>
<trkpt lat="41.796750" lon="-1.812143">
<ele>1460.5</ele>
<speed>14.9</speed>
<course>79.5</course>
<desc>Speed 14.9 km/h Distance 23.61 km</desc>
<time>2011-09-24T11:23:47.13</time>
<name>6376</name>
</trkpt>
<trkpt lat="41.796757" lon="-1.812095">
<ele>1461.0</ele>
<speed>14.6</speed>
<course>82.1</course>
<desc>Speed 14.6 km/h Distance 23.62 km</desc>
<time>2011-09-24T11:23:48.13</time>
<name>6377</name>
</trkpt>
<trkpt lat="41.796762" lon="-1.812047">
<ele>1461.0</ele>
<speed>14.5</speed>
<course>84.9</course>
<desc>Speed 14.5 km/h Distance 23.62 km</desc>
<time>2011-09-24T11:23:49.13</time>
<name>6378</name>
</trkpt>
<trkpt lat="41.796765" lon="-1.811997">
<ele>1461.5</ele>
<speed>14.8</speed>
<course>87.4</course>
<desc>Speed 14.8 km/h Distance 23.63 km</desc>
<time>2011-09-24T11:23:50.13</time>
<name>6379</name>
</trkpt>
<trkpt lat="41.796767" lon="-1.811948">
<ele>1461.5</ele>
<speed>14.4</speed>
<course>84.5</course>
<desc>Speed 14.4 km/h Distance 23.63 km</desc>
<time>2011-09-24T11:23:51.13</time>
<name>6380</name>
</trkpt>
<trkpt lat="41.796770" lon="-1.811902">
<ele>1461.5</ele>
<speed>13.8</speed>
<course>84.3</course>
<desc>Speed 13.8 km/h Distance 23.63 km</desc>
<time>2011-09-24T11:23:52.13</time>
<name>6381</name>
</trkpt>
<trkpt lat="41.796773" lon="-1.811857">
<ele>1461.5</ele>
<speed>13.2</speed>
<course>87.0</course>
<desc>Speed 13.2 km/h Distance 23.64 km</desc>
<time>2011-09-24T11:23:53.14</time>
<name>6382</name>
</trkpt>
<trkpt lat="41.796775" lon="-1.811813">
<ele>1461.5</ele>
<speed>13.0</speed>
<course>90.0</course>
<desc>Speed 13.0 km/h Distance 23.64 km</desc>
<time>2011-09-24T11:23:54.13</time>
<name>6383</name>
</trkpt>
<trkpt lat="41.796775" lon="-1.811770">
<ele>1461.0</ele>
<speed>12.9</speed>
<course>90.0</course>
<desc>Speed 12.9 km/h Distance 23.65 km</desc>
<time>2011-09-24T11:23:55.13</time>
<name>6384</name>
</trkpt>
<trkpt lat="41.796775" lon="-1.811727">
<ele>1461.0</ele>
<speed>12.8</speed>
<course>93.0</course>
<desc>Speed 12.8 km/h Distance 23.65 km</desc>
<time>2011-09-24T11:23:56.13</time>
<name>6385</name>
</trkpt>
<trkpt lat="41.796773" lon="-1.811683">
<ele>1460.5</ele>
<speed>13.0</speed>
<course>95.5</course>
<desc>Speed 13.0 km/h Distance 23.65 km</desc>
<time>2011-09-24T11:23:57.13</time>
<name>6386</name>
</trkpt>
<trkpt lat="41.796770" lon="-1.811637">
<ele>1460.5</ele>
<speed>13.7</speed>
<course>100.5</course>
<desc>Speed 13.7 km/h Distance 23.66 km</desc>
<time>2011-09-24T11:23:58.12</time>
<name>6387</name>
</trkpt>
<trkpt lat="41.796763" lon="-1.811588">
<ele>1460.5</ele>
<speed>14.3</speed>
<course>104.0</course>
<desc>Speed 14.3 km/h Distance 23.66 km</desc>
<time>2011-09-24T11:23:59.12</time>
<name>6388</name>
</trkpt>
<trkpt lat="41.796755" lon="-1.811543">
<ele>1460.5</ele>
<speed>13.9</speed>
<course>104.0</course>
<desc>Speed 13.9 km/h Distance 23.66 km</desc>
<time>2011-09-24T11:24:00.12</time>
<name>6389</name>
</trkpt>
<trkpt lat="41.796747" lon="-1.811498">
<ele>1460.5</ele>
<speed>13.8</speed>
<course>103.9</course>
<desc>Speed 13.8 km/h Distance 23.67 km</desc>
<time>2011-09-24T11:24:01.13</time>
<name>6390</name>
</trkpt>
<trkpt lat="41.796738" lon="-1.811453">
<ele>1460.5</ele>
<speed>13.7</speed>
<course>109.2</course>
<desc>Speed 13.7 km/h Distance 23.67 km</desc>
<time>2011-09-24T11:24:02.12</time>
<name>6391</name>
</trkpt>
<trkpt lat="41.796727" lon="-1.811408">
<ele>1460.5</ele>
<speed>13.8</speed>
<course>107.2</course>
<desc>Speed 13.8 km/h Distance 23.68 km</desc>
<time>2011-09-24T11:24:03.25</time>
<name>6392</name>
</trkpt>
<trkpt lat="41.796717" lon="-1.811365">
<ele>1461.0</ele>
<speed>13.4</speed>
<course>114.9</course>
<desc>Speed 13.4 km/h Distance 23.68 km</desc>
<time>2011-09-24T11:24:04.12</time>
<name>6393</name>
</trkpt>
<trkpt lat="41.796702" lon="-1.811322">
<ele>1461.5</ele>
<speed>13.6</speed>
<course>113.2</course>
<desc>Speed 13.6 km/h Distance 23.68 km</desc>
<time>2011-09-24T11:24:05.13</time>
<name>6394</name>
</trkpt>
<trkpt lat="41.796688" lon="-1.811280">
<ele>1461.5</ele>
<speed>13.7</speed>
<course>113.2</course>
<desc>Speed 13.7 km/h Distance 23.69 km</desc>
<time>2011-09-24T11:24:06.11</time>
<name>6395</name>
</trkpt>
<trkpt lat="41.796675" lon="-1.811238">
<ele>1462.0</ele>
<speed>13.3</speed>
<course>118.2</course>
<desc>Speed 13.3 km/h Distance 23.69 km</desc>
<time>2011-09-24T11:24:07.12</time>
<name>6396</name>
</trkpt>
<trkpt lat="41.796658" lon="-1.811197">
<ele>1462.0</ele>
<speed>14.0</speed>
<course>103.0</course>
<desc>Speed 14.0 km/h Distance 23.70 km</desc>
<time>2011-09-24T11:24:08.11</time>
<name>6397</name>
</trkpt>
<trkpt lat="41.796648" lon="-1.811138">
<ele>1462.0</ele>
<speed>12.5</speed>
<course>100.8</course>
<desc>Speed 12.5 km/h Distance 23.70 km</desc>
<time>2011-09-24T11:24:10.13</time>
<name>6398</name>
</trkpt>
<trkpt lat="41.796643" lon="-1.811103">
<ele>1462.0</ele>
<speed>11.7</speed>
<course>119.9</course>
<desc>Speed 11.7 km/h Distance 23.70 km</desc>
<time>2011-09-24T11:24:11.12</time>
<name>6399</name>
</trkpt>
<trkpt lat="41.796628" lon="-1.811068">
<ele>1461.0</ele>
<speed>12.3</speed>
<course>136.5</course>
<desc>Speed 12.3 km/h Distance 23.71 km</desc>
<time>2011-09-24T11:24:12.12</time>
<name>6400</name>
</trkpt>
<trkpt lat="41.796610" lon="-1.811045">
<ele>1459.5</ele>
<speed>10.2</speed>
<course>129.3</course>
<desc>Speed 10.2 km/h Distance 23.71 km</desc>
<time>2011-09-24T11:24:13.52</time>
<name>6401</name>
</trkpt>
<trkpt lat="41.796568" lon="-1.810977">
<ele>1460.5</ele>
<speed>15.0</speed>
<course>129.2</course>
<desc>Speed 15.0 km/h Distance 23.72 km</desc>
<time>2011-09-24T11:24:15.11</time>
<name>6402</name>
</trkpt>
<trkpt lat="41.796545" lon="-1.810938">
<ele>1460.5</ele>
<speed>14.8</speed>
<course>137.0</course>
<desc>Speed 14.8 km/h Distance 23.72 km</desc>
<time>2011-09-24T11:24:16.11</time>
<name>6403</name>
</trkpt>
<trkpt lat="41.796518" lon="-1.810905">
<ele>1461.5</ele>
<speed>14.1</speed>
<course>140.2</course>
<desc>Speed 14.1 km/h Distance 23.72 km</desc>
<time>2011-09-24T11:24:17.10</time>
<name>6404</name>
</trkpt>
<trkpt lat="41.796490" lon="-1.810873">
<ele>1462.0</ele>
<speed>14.5</speed>
<course>149.5</course>
<desc>Speed 14.5 km/h Distance 23.73 km</desc>
<time>2011-09-24T11:24:18.11</time>
<name>6405</name>
</trkpt>
<trkpt lat="41.796458" lon="-1.810848">
<ele>1462.5</ele>
<speed>14.3</speed>
<course>155.5</course>
<desc>Speed 14.3 km/h Distance 23.73 km</desc>
<time>2011-09-24T11:24:19.10</time>
<name>6406</name>
</trkpt>
<trkpt lat="41.796428" lon="-1.810830">
<ele>1461.5</ele>
<speed>13.1</speed>
<course>159.6</course>
<desc>Speed 13.1 km/h Distance 23.74 km</desc>
<time>2011-09-24T11:24:20.10</time>
<name>6407</name>
</trkpt>
<trkpt lat="41.796395" lon="-1.810813">
<ele>1461.5</ele>
<speed>14.0</speed>
<course>157.9</course>
<desc>Speed 14.0 km/h Distance 23.74 km</desc>
<time>2011-09-24T11:24:21.10</time>
<name>6408</name>
</trkpt>
<trkpt lat="41.796358" lon="-1.810793">
<ele>1462.0</ele>
<speed>15.1</speed>
<course>168.9</course>
<desc>Speed 15.1 km/h Distance 23.75 km</desc>
<time>2011-09-24T11:24:22.10</time>
<name>6409</name>
</trkpt>
<trkpt lat="41.796327" lon="-1.810785">
<ele>1461.5</ele>
<speed>13.0</speed>
<course>165.3</course>
<desc>Speed 13.0 km/h Distance 23.75 km</desc>
<time>2011-09-24T11:24:23.10</time>
<name>6410</name>
</trkpt>
<trkpt lat="41.796293" lon="-1.810773">
<ele>1462.5</ele>
<speed>13.9</speed>
<course>162.3</course>
<desc>Speed 13.9 km/h Distance 23.75 km</desc>
<time>2011-09-24T11:24:24.29</time>
<name>6411</name>
</trkpt>
<trkpt lat="41.796258" lon="-1.810758">
<ele>1463.0</ele>
<speed>14.2</speed>
<course>170.7</course>
<desc>Speed 14.2 km/h Distance 23.76 km</desc>
<time>2011-09-24T11:24:25.11</time>
<name>6412</name>
</trkpt>
<trkpt lat="41.796228" lon="-1.810752">
<ele>1464.0</ele>
<speed>12.8</speed>
<course>178.3</course>
<desc>Speed 12.8 km/h Distance 23.76 km</desc>
<time>2011-09-24T11:24:26.10</time>
<name>6413</name>
</trkpt>
<trkpt lat="41.796192" lon="-1.810750">
<ele>1464.0</ele>
<speed>14.7</speed>
<course>175.9</course>
<desc>Speed 14.7 km/h Distance 23.76 km</desc>
<time>2011-09-24T11:24:27.10</time>
<name>6414</name>
</trkpt>
<trkpt lat="41.796157" lon="-1.810747">
<ele>1464.5</ele>
<speed>13.7</speed>
<course>183.9</course>
<desc>Speed 13.7 km/h Distance 23.77 km</desc>
<time>2011-09-24T11:24:28.10</time>
<name>6415</name>
</trkpt>
<trkpt lat="41.796120" lon="-1.810750">
<ele>1464.5</ele>
<speed>14.5</speed>
<course>183.8</course>
<desc>Speed 14.5 km/h Distance 23.77 km</desc>
<time>2011-09-24T11:24:29.11</time>
<name>6416</name>
</trkpt>
<trkpt lat="41.796085" lon="-1.810753">
<ele>1465.0</ele>
<speed>13.9</speed>
<course>189.6</course>
<desc>Speed 13.9 km/h Distance 23.78 km</desc>
<time>2011-09-24T11:24:30.10</time>
<name>6417</name>
</trkpt>
<trkpt lat="41.796048" lon="-1.810762">
<ele>1465.5</ele>
<speed>14.5</speed>
<course>192.5</course>
<desc>Speed 14.5 km/h Distance 23.78 km</desc>
<time>2011-09-24T11:24:31.10</time>
<name>6418</name>
</trkpt>
<trkpt lat="41.796020" lon="-1.810770">
<ele>1465.0</ele>
<speed>12.1</speed>
<course>189.6</course>
<desc>Speed 12.1 km/h Distance 23.78 km</desc>
<time>2011-09-24T11:24:32.10</time>
<name>6419</name>
</trkpt>
<trkpt lat="41.795990" lon="-1.810777">
<ele>1465.0</ele>
<speed>12.1</speed>
<course>185.9</course>
<desc>Speed 12.1 km/h Distance 23.79 km</desc>
<time>2011-09-24T11:24:33.09</time>
<name>6420</name>
</trkpt>
<trkpt lat="41.795953" lon="-1.810782">
<ele>1466.0</ele>
<speed>14.4</speed>
<course>191.4</course>
<desc>Speed 14.4 km/h Distance 23.79 km</desc>
<time>2011-09-24T11:24:34.10</time>
<name>6421</name>
</trkpt>
<trkpt lat="41.795917" lon="-1.810792">
<ele>1465.5</ele>
<speed>14.4</speed>
<course>192.0</course>
<desc>Speed 14.4 km/h Distance 23.79 km</desc>
<time>2011-09-24T11:24:35.09</time>
<name>6422</name>
</trkpt>
<trkpt lat="41.795882" lon="-1.810802">
<ele>1465.5</ele>
<speed>14.1</speed>
<course>192.0</course>
<desc>Speed 14.1 km/h Distance 23.80 km</desc>
<time>2011-09-24T11:24:36.09</time>
<name>6423</name>
</trkpt>
<trkpt lat="41.795847" lon="-1.810812">
<ele>1464.5</ele>
<speed>13.9</speed>
<course>200.4</course>
<desc>Speed 13.9 km/h Distance 23.80 km</desc>
<time>2011-09-24T11:24:37.09</time>
<name>6424</name>
</trkpt>
<trkpt lat="41.795813" lon="-1.810828">
<ele>1464.0</ele>
<speed>13.3</speed>
<course>193.3</course>
<desc>Speed 13.3 km/h Distance 23.81 km</desc>
<time>2011-09-24T11:24:38.10</time>
<name>6425</name>
</trkpt>
<trkpt lat="41.795782" lon="-1.810838">
<ele>1465.0</ele>
<speed>12.7</speed>
<course>197.5</course>
<desc>Speed 12.7 km/h Distance 23.81 km</desc>
<time>2011-09-24T11:24:39.09</time>
<name>6426</name>
</trkpt>
<trkpt lat="41.795750" lon="-1.810852">
<ele>1465.5</ele>
<speed>12.7</speed>
<course>202.3</course>
<desc>Speed 12.7 km/h Distance 23.81 km</desc>
<time>2011-09-24T11:24:40.09</time>
<name>6427</name>
</trkpt>
<trkpt lat="41.795717" lon="-1.810870">
<ele>1466.0</ele>
<speed>14.3</speed>
<course>201.3</course>
<desc>Speed 14.3 km/h Distance 23.82 km</desc>
<time>2011-09-24T11:24:41.09</time>
<name>6428</name>
</trkpt>
<trkpt lat="41.795682" lon="-1.810888">
<ele>1466.0</ele>
<speed>14.6</speed>
<course>199.6</course>
<desc>Speed 14.6 km/h Distance 23.82 km</desc>
<time>2011-09-24T11:24:42.08</time>
<name>6429</name>
</trkpt>
<trkpt lat="41.795647" lon="-1.810905">
<ele>1466.5</ele>
<speed>14.5</speed>
<course>199.5</course>
<desc>Speed 14.5 km/h Distance 23.83 km</desc>
<time>2011-09-24T11:24:43.09</time>
<name>6430</name>
</trkpt>
<trkpt lat="41.795615" lon="-1.810920">
<ele>1466.5</ele>
<speed>13.1</speed>
<course>196.7</course>
<desc>Speed 13.1 km/h Distance 23.83 km</desc>
<time>2011-09-24T11:24:44.09</time>
<name>6431</name>
</trkpt>
<trkpt lat="41.795582" lon="-1.810933">
<ele>1466.5</ele>
<speed>13.0</speed>
<course>192.6</course>
<desc>Speed 13.0 km/h Distance 23.83 km</desc>
<time>2011-09-24T11:24:45.08</time>
<name>6432</name>
</trkpt>
<trkpt lat="41.795548" lon="-1.810943">
<ele>1466.5</ele>
<speed>13.6</speed>
<course>191.0</course>
<desc>Speed 13.6 km/h Distance 23.84 km</desc>
<time>2011-09-24T11:24:46.08</time>
<name>6433</name>
</trkpt>
<trkpt lat="41.795517" lon="-1.810952">
<ele>1466.0</ele>
<speed>12.5</speed>
<course>188.0</course>
<desc>Speed 12.5 km/h Distance 23.84 km</desc>
<time>2011-09-24T11:24:47.08</time>
<name>6434</name>
</trkpt>
<trkpt lat="41.795482" lon="-1.810958">
<ele>1466.0</ele>
<speed>13.5</speed>
<course>190.6</course>
<desc>Speed 13.5 km/h Distance 23.85 km</desc>
<time>2011-09-24T11:24:48.08</time>
<name>6435</name>
</trkpt>
<trkpt lat="41.795448" lon="-1.810967">
<ele>1466.0</ele>
<speed>13.4</speed>
<course>193.3</course>
<desc>Speed 13.4 km/h Distance 23.85 km</desc>
<time>2011-09-24T11:24:49.08</time>
<name>6436</name>
</trkpt>
<trkpt lat="41.795417" lon="-1.810977">
<ele>1466.0</ele>
<speed>12.4</speed>
<course>190.5</course>
<desc>Speed 12.4 km/h Distance 23.85 km</desc>
<time>2011-09-24T11:24:50.08</time>
<name>6437</name>
</trkpt>
<trkpt lat="41.795383" lon="-1.810985">
<ele>1466.0</ele>
<speed>12.9</speed>
<course>195.4</course>
<desc>Speed 12.9 km/h Distance 23.86 km</desc>
<time>2011-09-24T11:24:51.08</time>
<name>6438</name>
</trkpt>
<trkpt lat="41.795352" lon="-1.810997">
<ele>1466.0</ele>
<speed>13.1</speed>
<course>192.8</course>
<desc>Speed 13.1 km/h Distance 23.86 km</desc>
<time>2011-09-24T11:24:52.08</time>
<name>6439</name>
</trkpt>
<trkpt lat="41.795313" lon="-1.811008">
<ele>1464.5</ele>
<speed>14.9</speed>
<course>206.4</course>
<desc>Speed 14.9 km/h Distance 23.86 km</desc>
<time>2011-09-24T11:24:53.07</time>
<name>6440</name>
</trkpt>
<trkpt lat="41.795283" lon="-1.811028">
<ele>1463.5</ele>
<speed>13.0</speed>
<course>197.5</course>
<desc>Speed 13.0 km/h Distance 23.87 km</desc>
<time>2011-09-24T11:24:54.07</time>
<name>6441</name>
</trkpt>
<trkpt lat="41.795252" lon="-1.811042">
<ele>1464.0</ele>
<speed>12.8</speed>
<course>200.4</course>
<desc>Speed 12.8 km/h Distance 23.87 km</desc>
<time>2011-09-24T11:24:55.08</time>
<name>6442</name>
</trkpt>
<trkpt lat="41.795218" lon="-1.811058">
<ele>1463.5</ele>
<speed>13.6</speed>
<course>209.7</course>
<desc>Speed 13.6 km/h Distance 23.88 km</desc>
<time>2011-09-24T11:24:56.07</time>
<name>6443</name>
</trkpt>
<trkpt lat="41.795190" lon="-1.811080">
<ele>1464.0</ele>
<speed>13.3</speed>
<course>211.8</course>
<desc>Speed 13.3 km/h Distance 23.88 km</desc>
<time>2011-09-24T11:24:57.08</time>
<name>6444</name>
</trkpt>
<trkpt lat="41.795160" lon="-1.811105">
<ele>1464.5</ele>
<speed>13.2</speed>
<course>205.2</course>
<desc>Speed 13.2 km/h Distance 23.88 km</desc>
<time>2011-09-24T11:24:58.07</time>
<name>6445</name>
</trkpt>
<trkpt lat="41.795128" lon="-1.811125">
<ele>1464.5</ele>
<speed>13.3</speed>
<course>203.3</course>
<desc>Speed 13.3 km/h Distance 23.89 km</desc>
<time>2011-09-24T11:24:59.08</time>
<name>6446</name>
</trkpt>
<trkpt lat="41.795097" lon="-1.811143">
<ele>1464.5</ele>
<speed>13.3</speed>
<course>206.4</course>
<desc>Speed 13.3 km/h Distance 23.89 km</desc>
<time>2011-09-24T11:25:00.07</time>
<name>6447</name>
</trkpt>
<trkpt lat="41.795037" lon="-1.811183">
<ele>1464.5</ele>
<speed>12.9</speed>
<course>207.7</course>
<desc>Speed 12.9 km/h Distance 23.90 km</desc>
<time>2011-09-24T11:25:02.07</time>
<name>6448</name>
</trkpt>
<trkpt lat="41.795008" lon="-1.811203">
<ele>1464.0</ele>
<speed>12.1</speed>
<course>203.7</course>
<desc>Speed 12.1 km/h Distance 23.90 km</desc>
<time>2011-09-24T11:25:03.07</time>
<name>6449</name>
</trkpt>
<trkpt lat="41.794980" lon="-1.811220">
<ele>1464.5</ele>
<speed>11.7</speed>
<course>192.3</course>
<desc>Speed 11.7 km/h Distance 23.91 km</desc>
<time>2011-09-24T11:25:04.07</time>
<name>6450</name>
</trkpt>
<trkpt lat="41.794952" lon="-1.811228">
<ele>1464.5</ele>
<speed>11.4</speed>
<course>200.5</course>
<desc>Speed 11.4 km/h Distance 23.91 km</desc>
<time>2011-09-24T11:25:05.22</time>
<name>6451</name>
</trkpt>
<trkpt lat="41.794888" lon="-1.811260">
<ele>1464.0</ele>
<speed>13.3</speed>
<course>211.2</course>
<desc>Speed 13.3 km/h Distance 23.92 km</desc>
<time>2011-09-24T11:25:07.06</time>
<name>6452</name>
</trkpt>
<trkpt lat="41.794862" lon="-1.811282">
<ele>1464.0</ele>
<speed>11.6</speed>
<course>208.7</course>
<desc>Speed 11.6 km/h Distance 23.92 km</desc>
<time>2011-09-24T11:25:08.06</time>
<name>6453</name>
</trkpt>
<trkpt lat="41.794837" lon="-1.811300">
<ele>1465.0</ele>
<speed>11.5</speed>
<course>200.5</course>
<desc>Speed 11.5 km/h Distance 23.92 km</desc>
<time>2011-09-24T11:25:09.06</time>
<name>6454</name>
</trkpt>
<trkpt lat="41.794810" lon="-1.811313">
<ele>1464.5</ele>
<speed>11.0</speed>
<course>210.8</course>
<desc>Speed 11.0 km/h Distance 23.93 km</desc>
<time>2011-09-24T11:25:10.19</time>
<name>6455</name>
</trkpt>
<trkpt lat="41.794785" lon="-1.811333">
<ele>1464.5</ele>
<speed>11.3</speed>
<course>202.5</course>
<desc>Speed 11.3 km/h Distance 23.93 km</desc>
<time>2011-09-24T11:25:11.07</time>
<name>6456</name>
</trkpt>
<trkpt lat="41.794755" lon="-1.811350">
<ele>1465.0</ele>
<speed>12.6</speed>
<course>199.5</course>
<desc>Speed 12.6 km/h Distance 23.93 km</desc>
<time>2011-09-24T11:25:12.06</time>
<name>6457</name>
</trkpt>
<trkpt lat="41.794723" lon="-1.811365">
<ele>1465.0</ele>
<speed>12.2</speed>
<course>202.8</course>
<desc>Speed 12.2 km/h Distance 23.94 km</desc>
<time>2011-09-24T11:25:13.06</time>
<name>6458</name>
</trkpt>
<trkpt lat="41.794697" lon="-1.811380">
<ele>1463.5</ele>
<speed>10.7</speed>
<course>209.2</course>
<desc>Speed 10.7 km/h Distance 23.94 km</desc>
<time>2011-09-24T11:25:14.07</time>
<name>6459</name>
</trkpt>
<trkpt lat="41.794670" lon="-1.811400">
<ele>1462.5</ele>
<speed>11.6</speed>
<course>211.2</course>
<desc>Speed 11.6 km/h Distance 23.94 km</desc>
<time>2011-09-24T11:25:15.29</time>
<name>6460</name>
</trkpt>
<trkpt lat="41.794643" lon="-1.811422">
<ele>1461.5</ele>
<speed>12.1</speed>
<course>195.3</course>
<desc>Speed 12.1 km/h Distance 23.95 km</desc>
<time>2011-09-24T11:25:16.06</time>
<name>6461</name>
</trkpt>
<trkpt lat="41.794612" lon="-1.811433">
<ele>1462.0</ele>
<speed>11.9</speed>
<course>199.5</course>
<desc>Speed 11.9 km/h Distance 23.95 km</desc>
<time>2011-09-24T11:25:17.07</time>
<name>6462</name>
</trkpt>
<trkpt lat="41.794577" lon="-1.811450">
<ele>1462.5</ele>
<speed>13.4</speed>
<course>203.3</course>
<desc>Speed 13.4 km/h Distance 23.95 km</desc>
<time>2011-09-24T11:25:18.06</time>
<name>6463</name>
</trkpt>
<trkpt lat="41.794545" lon="-1.811468">
<ele>1463.0</ele>
<speed>13.4</speed>
<course>199.5</course>
<desc>Speed 13.4 km/h Distance 23.96 km</desc>
<time>2011-09-24T11:25:19.05</time>
<name>6464</name>
</trkpt>
<trkpt lat="41.794510" lon="-1.811485">
<ele>1463.0</ele>
<speed>13.8</speed>
<course>207.6</course>
<desc>Speed 13.8 km/h Distance 23.96 km</desc>
<time>2011-09-24T11:25:20.05</time>
<name>6465</name>
</trkpt>
<trkpt lat="41.794477" lon="-1.811508">
<ele>1463.0</ele>
<speed>14.0</speed>
<course>175.3</course>
<desc>Speed 14.0 km/h Distance 23.97 km</desc>
<time>2011-09-24T11:25:21.06</time>
<name>6466</name>
</trkpt>
<trkpt lat="41.794447" lon="-1.811505">
<ele>1461.5</ele>
<speed>11.2</speed>
<course>192.3</course>
<desc>Speed 11.2 km/h Distance 23.97 km</desc>
<time>2011-09-24T11:25:22.05</time>
<name>6467</name>
</trkpt>
<trkpt lat="41.794418" lon="-1.811513">
<ele>1460.0</ele>
<speed>11.5</speed>
<course>198.6</course>
<desc>Speed 11.5 km/h Distance 23.97 km</desc>
<time>2011-09-24T11:25:23.06</time>
<name>6468</name>
</trkpt>
<trkpt lat="41.794385" lon="-1.811528">
<ele>1460.0</ele>
<speed>13.3</speed>
<course>193.2</course>
<desc>Speed 13.3 km/h Distance 23.98 km</desc>
<time>2011-09-24T11:25:24.06</time>
<name>6469</name>
</trkpt>
<trkpt lat="41.794353" lon="-1.811538">
<ele>1460.0</ele>
<speed>12.0</speed>
<course>189.3</course>
<desc>Speed 12.0 km/h Distance 23.98 km</desc>
<time>2011-09-24T11:25:25.06</time>
<name>6470</name>
</trkpt>
<trkpt lat="41.794323" lon="-1.811545">
<ele>1460.0</ele>
<speed>10.6</speed>
<course>213.7</course>
<desc>Speed 10.6 km/h Distance 23.98 km</desc>
<time>2011-09-24T11:25:26.05</time>
<name>6471</name>
</trkpt>
<trkpt lat="41.794292" lon="-1.811573">
<ele>1459.5</ele>
<speed>13.5</speed>
<course>206.4</course>
<desc>Speed 13.5 km/h Distance 23.99 km</desc>
<time>2011-09-24T11:25:27.05</time>
<name>6472</name>
</trkpt>
<trkpt lat="41.794257" lon="-1.811597">
<ele>1460.0</ele>
<speed>14.2</speed>
<course>206.4</course>
<desc>Speed 14.2 km/h Distance 23.99 km</desc>
<time>2011-09-24T11:25:28.05</time>
<name>6473</name>
</trkpt>
<trkpt lat="41.794222" lon="-1.811620">
<ele>1460.5</ele>
<speed>14.2</speed>
<course>207.7</course>
<desc>Speed 14.2 km/h Distance 24.00 km</desc>
<time>2011-09-24T11:25:29.04</time>
<name>6474</name>
</trkpt>
<trkpt lat="41.794193" lon="-1.811640">
<ele>1458.5</ele>
<speed>12.0</speed>
<course>199.5</course>
<desc>Speed 12.0 km/h Distance 24.00 km</desc>
<time>2011-09-24T11:25:30.05</time>
<name>6475</name>
</trkpt>
<trkpt lat="41.794158" lon="-1.811657">
<ele>1457.5</ele>
<speed>14.2</speed>
<course>191.6</course>
<desc>Speed 14.2 km/h Distance 24.01 km</desc>
<time>2011-09-24T11:25:31.05</time>
<name>6476</name>
</trkpt>
<trkpt lat="41.794128" lon="-1.811665">
<ele>1457.5</ele>
<speed>10.6</speed>
<course>209.2</course>
<desc>Speed 10.6 km/h Distance 24.01 km</desc>
<time>2011-09-24T11:25:32.05</time>
<name>6477</name>
</trkpt>
<trkpt lat="41.794095" lon="-1.811690">
<ele>1458.0</ele>
<speed>13.8</speed>
<course>205.8</course>
<desc>Speed 13.8 km/h Distance 24.01 km</desc>
<time>2011-09-24T11:25:33.04</time>
<name>6478</name>
</trkpt>
<trkpt lat="41.794062" lon="-1.811712">
<ele>1458.0</ele>
<speed>14.2</speed>
<course>207.5</course>
<desc>Speed 14.2 km/h Distance 24.02 km</desc>
<time>2011-09-24T11:25:34.04</time>
<name>6479</name>
</trkpt>
<trkpt lat="41.794028" lon="-1.811735">
<ele>1457.5</ele>
<speed>14.4</speed>
<course>200.4</course>
<desc>Speed 14.4 km/h Distance 24.02 km</desc>
<time>2011-09-24T11:25:35.03</time>
<name>6480</name>
</trkpt>
<trkpt lat="41.793992" lon="-1.811753">
<ele>1458.0</ele>
<speed>14.6</speed>
<course>200.4</course>
<desc>Speed 14.6 km/h Distance 24.03 km</desc>
<time>2011-09-24T11:25:36.03</time>
<name>6481</name>
</trkpt>
<trkpt lat="41.793955" lon="-1.811772">
<ele>1458.5</ele>
<speed>14.7</speed>
<course>207.5</course>
<desc>Speed 14.7 km/h Distance 24.03 km</desc>
<time>2011-09-24T11:25:37.03</time>
<name>6482</name>
</trkpt>
<trkpt lat="41.793922" lon="-1.811795">
<ele>1458.5</ele>
<speed>14.0</speed>
<course>212.4</course>
<desc>Speed 14.0 km/h Distance 24.03 km</desc>
<time>2011-09-24T11:25:38.04</time>
<name>6483</name>
</trkpt>
<trkpt lat="41.793888" lon="-1.811823">
<ele>1458.5</ele>
<speed>13.4</speed>
<course>208.0</course>
<desc>Speed 13.4 km/h Distance 24.04 km</desc>
<time>2011-09-24T11:25:39.04</time>
<name>6484</name>
</trkpt>
<trkpt lat="41.793853" lon="-1.811848">
<ele>1459.0</ele>
<speed>13.9</speed>
<course>207.5</course>
<desc>Speed 13.9 km/h Distance 24.04 km</desc>
<time>2011-09-24T11:25:40.03</time>
<name>6485</name>
</trkpt>
<trkpt lat="41.793820" lon="-1.811872">
<ele>1459.5</ele>
<speed>13.4</speed>
<course>207.0</course>
<desc>Speed 13.4 km/h Distance 24.05 km</desc>
<time>2011-09-24T11:25:41.03</time>
<name>6486</name>
</trkpt>
<trkpt lat="41.793788" lon="-1.811893">
<ele>1459.5</ele>
<speed>12.8</speed>
<course>209.7</course>
<desc>Speed 12.8 km/h Distance 24.05 km</desc>
<time>2011-09-24T11:25:42.03</time>
<name>6487</name>
</trkpt>
<trkpt lat="41.793760" lon="-1.811915">
<ele>1460.0</ele>
<speed>12.2</speed>
<course>204.8</course>
<desc>Speed 12.2 km/h Distance 24.05 km</desc>
<time>2011-09-24T11:25:43.03</time>
<name>6488</name>
</trkpt>
<trkpt lat="41.793725" lon="-1.811937">
<ele>1460.5</ele>
<speed>13.5</speed>
<course>204.1</course>
<desc>Speed 13.5 km/h Distance 24.06 km</desc>
<time>2011-09-24T11:25:44.03</time>
<name>6489</name>
</trkpt>
<trkpt lat="41.793692" lon="-1.811957">
<ele>1461.5</ele>
<speed>13.5</speed>
<course>205.2</course>
<desc>Speed 13.5 km/h Distance 24.06 km</desc>
<time>2011-09-24T11:25:45.02</time>
<name>6490</name>
</trkpt>
<trkpt lat="41.793660" lon="-1.811977">
<ele>1462.5</ele>
<speed>12.6</speed>
<course>206.4</course>
<desc>Speed 12.6 km/h Distance 24.07 km</desc>
<time>2011-09-24T11:25:46.02</time>
<name>6491</name>
</trkpt>
<trkpt lat="41.793630" lon="-1.811997">
<ele>1462.5</ele>
<speed>12.5</speed>
<course>201.4</course>
<desc>Speed 12.5 km/h Distance 24.07 km</desc>
<time>2011-09-24T11:25:47.03</time>
<name>6492</name>
</trkpt>
<trkpt lat="41.793598" lon="-1.812013">
<ele>1463.0</ele>
<speed>12.1</speed>
<course>206.4</course>
<desc>Speed 12.1 km/h Distance 24.07 km</desc>
<time>2011-09-24T11:25:48.02</time>
<name>6493</name>
</trkpt>
<trkpt lat="41.793568" lon="-1.812033">
<ele>1463.0</ele>
<speed>12.3</speed>
<course>199.5</course>
<desc>Speed 12.3 km/h Distance 24.08 km</desc>
<time>2011-09-24T11:25:49.02</time>
<name>6494</name>
</trkpt>
<trkpt lat="41.793537" lon="-1.812048">
<ele>1464.5</ele>
<speed>12.6</speed>
<course>199.5</course>
<desc>Speed 12.6 km/h Distance 24.08 km</desc>
<time>2011-09-24T11:25:50.02</time>
<name>6495</name>
</trkpt>
<trkpt lat="41.793505" lon="-1.812063">
<ele>1464.5</ele>
<speed>12.6</speed>
<course>194.6</course>
<desc>Speed 12.6 km/h Distance 24.09 km</desc>
<time>2011-09-24T11:25:51.02</time>
<name>6496</name>
</trkpt>
<trkpt lat="41.793472" lon="-1.812075">
<ele>1465.5</ele>
<speed>12.8</speed>
<course>198.6</course>
<desc>Speed 12.8 km/h Distance 24.09 km</desc>
<time>2011-09-24T11:25:52.02</time>
<name>6497</name>
</trkpt>
<trkpt lat="41.793438" lon="-1.812090">
<ele>1467.0</ele>
<speed>12.6</speed>
<course>196.6</course>
<desc>Speed 12.6 km/h Distance 24.09 km</desc>
<time>2011-09-24T11:25:53.02</time>
<name>6498</name>
</trkpt>
<trkpt lat="41.793405" lon="-1.812103">
<ele>1468.5</ele>
<speed>13.0</speed>
<course>194.7</course>
<desc>Speed 13.0 km/h Distance 24.10 km</desc>
<time>2011-09-24T11:25:54.02</time>
<name>6499</name>
</trkpt>
<trkpt lat="41.793372" lon="-1.812115">
<ele>1469.5</ele>
<speed>12.9</speed>
<course>194.7</course>
<desc>Speed 12.9 km/h Distance 24.10 km</desc>
<time>2011-09-24T11:25:55.03</time>
<name>6500</name>
</trkpt>
<trkpt lat="41.793338" lon="-1.812127">
<ele>1470.5</ele>
<speed>13.0</speed>
<course>194.6</course>
<desc>Speed 13.0 km/h Distance 24.10 km</desc>
<time>2011-09-24T11:25:56.02</time>
<name>6501</name>
</trkpt>
<trkpt lat="41.793305" lon="-1.812138">
<ele>1471.5</ele>
<speed>13.3</speed>
<course>195.5</course>
<desc>Speed 13.3 km/h Distance 24.11 km</desc>
<time>2011-09-24T11:25:57.96</time>
<name>6502</name>
</trkpt>
<trkpt lat="41.793207" lon="-1.812175">
<ele>1474.0</ele>
<speed>13.5</speed>
<course>194.8</course>
<desc>Speed 13.5 km/h Distance 24.12 km</desc>
<time>2011-09-24T11:26:00.02</time>
<name>6503</name>
</trkpt>
<trkpt lat="41.793173" lon="-1.812187">
<ele>1475.0</ele>
<speed>13.4</speed>
<course>193.3</course>
<desc>Speed 13.4 km/h Distance 24.12 km</desc>
<time>2011-09-24T11:26:01.02</time>
<name>6504</name>
</trkpt>
<trkpt lat="41.793142" lon="-1.812197">
<ele>1476.0</ele>
<speed>13.5</speed>
<course>195.4</course>
<desc>Speed 13.5 km/h Distance 24.13 km</desc>
<time>2011-09-24T11:26:02.02</time>
<name>6505</name>
</trkpt>
<trkpt lat="41.793110" lon="-1.812208">
<ele>1476.5</ele>
<speed>13.3</speed>
<course>196.2</course>
<desc>Speed 13.3 km/h Distance 24.13 km</desc>
<time>2011-09-24T11:26:03.02</time>
<name>6506</name>
</trkpt>
<trkpt lat="41.793080" lon="-1.812220">
<ele>1477.0</ele>
<speed>13.1</speed>
<course>190.5</course>
<desc>Speed 13.1 km/h Distance 24.13 km</desc>
<time>2011-09-24T11:26:04.01</time>
<name>6507</name>
</trkpt>
<trkpt lat="41.793047" lon="-1.812228">
<ele>1477.5</ele>
<speed>13.0</speed>
<course>189.0</course>
<desc>Speed 13.0 km/h Distance 24.14 km</desc>
<time>2011-09-24T11:26:05.02</time>
<name>6508</name>
</trkpt>
<trkpt lat="41.793015" lon="-1.812235">
<ele>1478.0</ele>
<speed>13.0</speed>
<course>193.3</course>
<desc>Speed 13.0 km/h Distance 24.14 km</desc>
<time>2011-09-24T11:26:06.02</time>
<name>6509</name>
</trkpt>
<trkpt lat="41.792983" lon="-1.812245">
<ele>1478.5</ele>
<speed>13.2</speed>
<course>190.6</course>
<desc>Speed 13.2 km/h Distance 24.15 km</desc>
<time>2011-09-24T11:26:07.01</time>
<name>6510</name>
</trkpt>
<trkpt lat="41.792950" lon="-1.812253">
<ele>1479.0</ele>
<speed>13.0</speed>
<course>191.7</course>
<desc>Speed 13.0 km/h Distance 24.15 km</desc>
<time>2011-09-24T11:26:08.01</time>
<name>6511</name>
</trkpt>
<trkpt lat="41.792920" lon="-1.812262">
<ele>1479.0</ele>
<speed>12.8</speed>
<course>190.6</course>
<desc>Speed 12.8 km/h Distance 24.15 km</desc>
<time>2011-09-24T11:26:09.01</time>
<name>6512</name>
</trkpt>
<trkpt lat="41.792887" lon="-1.812270">
<ele>1479.5</ele>
<speed>12.9</speed>
<course>193.2</course>
<desc>Speed 12.9 km/h Distance 24.16 km</desc>
<time>2011-09-24T11:26:10.02</time>
<name>6513</name>
</trkpt>
<trkpt lat="41.792855" lon="-1.812280">
<ele>1480.0</ele>
<speed>13.0</speed>
<course>195.3</course>
<desc>Speed 13.0 km/h Distance 24.16 km</desc>
<time>2011-09-24T11:26:11.01</time>
<name>6514</name>
</trkpt>
<trkpt lat="41.792823" lon="-1.812292">
<ele>1480.0</ele>
<speed>13.0</speed>
<course>193.1</course>
<desc>Speed 13.0 km/h Distance 24.16 km</desc>
<time>2011-09-24T11:26:12.00</time>
<name>6515</name>
</trkpt>
<trkpt lat="41.792792" lon="-1.812302">
<ele>1480.5</ele>
<speed>13.2</speed>
<course>195.3</course>
<desc>Speed 13.2 km/h Distance 24.17 km</desc>
<time>2011-09-24T11:26:13.01</time>
<name>6516</name>
</trkpt>
<trkpt lat="41.792760" lon="-1.812313">
<ele>1480.5</ele>
<speed>12.6</speed>
<course>196.2</course>
<desc>Speed 12.6 km/h Distance 24.17 km</desc>
<time>2011-09-24T11:26:14.01</time>
<name>6517</name>
</trkpt>
<trkpt lat="41.792730" lon="-1.812325">
<ele>1481.0</ele>
<speed>12.4</speed>
<course>189.5</course>
<desc>Speed 12.4 km/h Distance 24.17 km</desc>
<time>2011-09-24T11:26:15.00</time>
<name>6518</name>
</trkpt>
<trkpt lat="41.792700" lon="-1.812332">
<ele>1481.0</ele>
<speed>12.2</speed>
<course>191.2</course>
<desc>Speed 12.2 km/h Distance 24.18 km</desc>
<time>2011-09-24T11:26:16.00</time>
<name>6519</name>
</trkpt>
<trkpt lat="41.792668" lon="-1.812340">
<ele>1481.5</ele>
<speed>12.9</speed>
<course>190.4</course>
<desc>Speed 12.9 km/h Distance 24.18 km</desc>
<time>2011-09-24T11:26:18.11</time>
<name>6520</name>
</trkpt>
<trkpt lat="41.792573" lon="-1.812363">
<ele>1482.5</ele>
<speed>13.0</speed>
<course>188.7</course>
<desc>Speed 13.0 km/h Distance 24.19 km</desc>
<time>2011-09-24T11:26:20.00</time>
<name>6521</name>
</trkpt>
<trkpt lat="41.792542" lon="-1.812370">
<ele>1483.0</ele>
<speed>13.0</speed>
<course>182.3</course>
<desc>Speed 13.0 km/h Distance 24.20 km</desc>
<time>2011-09-24T11:26:21.00</time>
<name>6522</name>
</trkpt>
<trkpt lat="41.792510" lon="-1.812372">
<ele>1483.5</ele>
<speed>13.0</speed>
<course>188.5</course>
<desc>Speed 13.0 km/h Distance 24.20 km</desc>
<time>2011-09-24T11:26:22.00</time>
<name>6523</name>
</trkpt>
<trkpt lat="41.792477" lon="-1.812378">
<ele>1484.0</ele>
<speed>13.2</speed>
<course>191.0</course>
<desc>Speed 13.2 km/h Distance 24.20 km</desc>
<time>2011-09-24T11:26:23.00</time>
<name>6524</name>
</trkpt>
<trkpt lat="41.792445" lon="-1.812387">
<ele>1484.0</ele>
<speed>13.0</speed>
<course>182.3</course>
<desc>Speed 13.0 km/h Distance 24.21 km</desc>
<time>2011-09-24T11:26:23.99</time>
<name>6525</name>
</trkpt>
<trkpt lat="41.792413" lon="-1.812388">
<ele>1484.0</ele>
<speed>12.9</speed>
<course>186.9</course>
<desc>Speed 12.9 km/h Distance 24.21 km</desc>
<time>2011-09-24T11:26:25.00</time>
<name>6526</name>
</trkpt>
<trkpt lat="41.792382" lon="-1.812393">
<ele>1484.5</ele>
<speed>13.0</speed>
<course>190.6</course>
<desc>Speed 13.0 km/h Distance 24.21 km</desc>
<time>2011-09-24T11:26:26.00</time>
<name>6527</name>
</trkpt>
<trkpt lat="41.792348" lon="-1.812402">
<ele>1484.5</ele>
<speed>13.6</speed>
<course>192.6</course>
<desc>Speed 13.6 km/h Distance 24.22 km</desc>
<time>2011-09-24T11:26:26.99</time>
<name>6528</name>
</trkpt>
<trkpt lat="41.792315" lon="-1.812412">
<ele>1485.0</ele>
<speed>13.3</speed>
<course>191.0</course>
<desc>Speed 13.3 km/h Distance 24.22 km</desc>
<time>2011-09-24T11:26:28.00</time>
<name>6529</name>
</trkpt>
<trkpt lat="41.792283" lon="-1.812420">
<ele>1485.0</ele>
<speed>13.4</speed>
<course>186.6</course>
<desc>Speed 13.4 km/h Distance 24.23 km</desc>
<time>2011-09-24T11:26:29.00</time>
<name>6530</name>
</trkpt>
<trkpt lat="41.792252" lon="-1.812425">
<ele>1485.0</ele>
<speed>12.7</speed>
<course>186.3</course>
<desc>Speed 12.7 km/h Distance 24.23 km</desc>
<time>2011-09-24T11:26:29.99</time>
<name>6531</name>
</trkpt>
<trkpt lat="41.792218" lon="-1.812430">
<ele>1485.0</ele>
<speed>12.6</speed>
<course>189.3</course>
<desc>Speed 12.6 km/h Distance 24.23 km</desc>
<time>2011-09-24T11:26:30.99</time>
<name>6532</name>
</trkpt>
<trkpt lat="41.792188" lon="-1.812437">
<ele>1485.5</ele>
<speed>12.3</speed>
<course>191.1</course>
<desc>Speed 12.3 km/h Distance 24.24 km</desc>
<time>2011-09-24T11:26:31.99</time>
<name>6533</name>
</trkpt>
<trkpt lat="41.792157" lon="-1.812445">
<ele>1485.5</ele>
<speed>12.5</speed>
<course>192.3</course>
<desc>Speed 12.5 km/h Distance 24.24 km</desc>
<time>2011-09-24T11:26:33.00</time>
<name>6534</name>
</trkpt>
<trkpt lat="41.792128" lon="-1.812453">
<ele>1485.5</ele>
<speed>12.0</speed>
<course>193.9</course>
<desc>Speed 12.0 km/h Distance 24.24 km</desc>
<time>2011-09-24T11:26:34.00</time>
<name>6535</name>
</trkpt>
<trkpt lat="41.792098" lon="-1.812463">
<ele>1486.0</ele>
<speed>12.3</speed>
<course>191.1</course>
<desc>Speed 12.3 km/h Distance 24.25 km</desc>
<time>2011-09-24T11:26:34.99</time>
<name>6536</name>
</trkpt>
<trkpt lat="41.792067" lon="-1.812472">
<ele>1486.0</ele>
<speed>12.9</speed>
<course>191.0</course>
<desc>Speed 12.9 km/h Distance 24.25 km</desc>
<time>2011-09-24T11:26:35.99</time>
<name>6537</name>
</trkpt>
<trkpt lat="41.792035" lon="-1.812480">
<ele>1486.0</ele>
<speed>12.5</speed>
<course>187.1</course>
<desc>Speed 12.5 km/h Distance 24.25 km</desc>
<time>2011-09-24T11:26:37.21</time>
<name>6538</name>
</trkpt>
<trkpt lat="41.792005" lon="-1.812485">
<ele>1486.5</ele>
<speed>12.3</speed>
<course>184.4</course>
<desc>Speed 12.3 km/h Distance 24.26 km</desc>
<time>2011-09-24T11:26:37.99</time>
<name>6539</name>
</trkpt>
<trkpt lat="41.791973" lon="-1.812488">
<ele>1486.5</ele>
<speed>12.5</speed>
<course>186.5</course>
<desc>Speed 12.5 km/h Distance 24.26 km</desc>
<time>2011-09-24T11:26:38.99</time>
<name>6540</name>
</trkpt>
<trkpt lat="41.791940" lon="-1.812493">
<ele>1486.5</ele>
<speed>12.7</speed>
<course>189.3</course>
<desc>Speed 12.7 km/h Distance 24.26 km</desc>
<time>2011-09-24T11:26:39.99</time>
<name>6541</name>
</trkpt>
<trkpt lat="41.791910" lon="-1.812500">
<ele>1487.0</ele>
<speed>12.7</speed>
<course>186.6</course>
<desc>Speed 12.7 km/h Distance 24.27 km</desc>
<time>2011-09-24T11:26:40.99</time>
<name>6542</name>
</trkpt>
<trkpt lat="41.791878" lon="-1.812505">
<ele>1487.0</ele>
<speed>12.6</speed>
<course>186.8</course>
<desc>Speed 12.6 km/h Distance 24.27 km</desc>
<time>2011-09-24T11:26:41.99</time>
<name>6543</name>
</trkpt>
<trkpt lat="41.791847" lon="-1.812510">
<ele>1487.5</ele>
<speed>12.4</speed>
<course>186.6</course>
<desc>Speed 12.4 km/h Distance 24.27 km</desc>
<time>2011-09-24T11:26:42.99</time>
<name>6544</name>
</trkpt>
<trkpt lat="41.791815" lon="-1.812515">
<ele>1487.5</ele>
<speed>12.9</speed>
<course>182.3</course>
<desc>Speed 12.9 km/h Distance 24.28 km</desc>
<time>2011-09-24T11:26:43.99</time>
<name>6545</name>
</trkpt>
<trkpt lat="41.791783" lon="-1.812517">
<ele>1487.5</ele>
<speed>12.6</speed>
<course>182.3</course>
<desc>Speed 12.6 km/h Distance 24.28 km</desc>
<time>2011-09-24T11:26:44.98</time>
<name>6546</name>
</trkpt>
<trkpt lat="41.791752" lon="-1.812518">
<ele>1487.5</ele>
<speed>12.5</speed>
<course>178.8</course>
<desc>Speed 12.5 km/h Distance 24.28 km</desc>
<time>2011-09-24T11:26:45.98</time>
<name>6547</name>
</trkpt>
<trkpt lat="41.791718" lon="-1.812518">
<ele>1488.0</ele>
<speed>13.4</speed>
<course>178.8</course>
<desc>Speed 13.4 km/h Distance 24.29 km</desc>
<time>2011-09-24T11:26:46.98</time>
<name>6548</name>
</trkpt>
<trkpt lat="41.791685" lon="-1.812518">
<ele>1487.5</ele>
<speed>13.1</speed>
<course>173.1</course>
<desc>Speed 13.1 km/h Distance 24.29 km</desc>
<time>2011-09-24T11:26:47.98</time>
<name>6549</name>
</trkpt>
<trkpt lat="41.791653" lon="-1.812513">
<ele>1487.5</ele>
<speed>12.8</speed>
<course>168.3</course>
<desc>Speed 12.8 km/h Distance 24.30 km</desc>
<time>2011-09-24T11:26:48.98</time>
<name>6550</name>
</trkpt>
<trkpt lat="41.791623" lon="-1.812505">
<ele>1488.0</ele>
<speed>12.1</speed>
<course>170.7</course>
<desc>Speed 12.1 km/h Distance 24.30 km</desc>
<time>2011-09-24T11:26:49.98</time>
<name>6551</name>
</trkpt>
<trkpt lat="41.791593" lon="-1.812498">
<ele>1488.0</ele>
<speed>12.4</speed>
<course>169.0</course>
<desc>Speed 12.4 km/h Distance 24.30 km</desc>
<time>2011-09-24T11:26:50.98</time>
<name>6552</name>
</trkpt>
<trkpt lat="41.791562" lon="-1.812490">
<ele>1488.5</ele>
<speed>12.8</speed>
<course>166.7</course>
<desc>Speed 12.8 km/h Distance 24.31 km</desc>
<time>2011-09-24T11:26:51.98</time>
<name>6553</name>
</trkpt>
<trkpt lat="41.791530" lon="-1.812480">
<ele>1488.5</ele>
<speed>13.1</speed>
<course>169.9</course>
<desc>Speed 13.1 km/h Distance 24.31 km</desc>
<time>2011-09-24T11:26:52.98</time>
<name>6554</name>
</trkpt>
<trkpt lat="41.791502" lon="-1.812473">
<ele>1488.5</ele>
<speed>12.2</speed>
<course>178.5</course>
<desc>Speed 12.2 km/h Distance 24.31 km</desc>
<time>2011-09-24T11:26:53.98</time>
<name>6555</name>
</trkpt>
<trkpt lat="41.791477" lon="-1.812473">
<ele>1487.5</ele>
<speed>10.2</speed>
<course>192.9</course>
<desc>Speed 10.2 km/h Distance 24.32 km</desc>
<time>2011-09-24T11:26:55.97</time>
<name>6556</name>
</trkpt>
<trkpt lat="41.791455" lon="-1.812480">
<ele>1486.0</ele>
<speed>8.8</speed>
<course>169.5</course>
<desc>Speed 8.8 km/h Distance 24.32 km</desc>
<time>2011-09-24T11:26:56.98</time>
<name>6557</name>
</trkpt>
<trkpt lat="41.791428" lon="-1.812473">
<ele>1486.0</ele>
<speed>11.2</speed>
<course>153.6</course>
<desc>Speed 11.2 km/h Distance 24.32 km</desc>
<time>2011-09-24T11:26:57.97</time>
<name>6558</name>
</trkpt>
<trkpt lat="41.791393" lon="-1.812450">
<ele>1488.0</ele>
<speed>15.3</speed>
<course>161.7</course>
<desc>Speed 15.3 km/h Distance 24.33 km</desc>
<time>2011-09-24T11:26:58.98</time>
<name>6559</name>
</trkpt>
<trkpt lat="41.791363" lon="-1.812437">
<ele>1488.5</ele>
<speed>12.9</speed>
<course>170.7</course>
<desc>Speed 12.9 km/h Distance 24.33 km</desc>
<time>2011-09-24T11:26:59.97</time>
<name>6560</name>
</trkpt>
<trkpt lat="41.791333" lon="-1.812430">
<ele>1488.0</ele>
<speed>11.7</speed>
<course>174.3</course>
<desc>Speed 11.7 km/h Distance 24.33 km</desc>
<time>2011-09-24T11:27:00.97</time>
<name>6561</name>
</trkpt>
<trkpt lat="41.791308" lon="-1.812427">
<ele>1486.5</ele>
<speed>9.8</speed>
<course>168.6</course>
<desc>Speed 9.8 km/h Distance 24.34 km</desc>
<time>2011-09-24T11:27:01.97</time>
<name>6562</name>
</trkpt>
<trkpt lat="41.791283" lon="-1.812420">
<ele>1484.5</ele>
<speed>10.1</speed>
<course>163.8</course>
<desc>Speed 10.1 km/h Distance 24.34 km</desc>
<time>2011-09-24T11:27:02.97</time>
<name>6563</name>
</trkpt>
<trkpt lat="41.791253" lon="-1.812408">
<ele>1484.5</ele>
<speed>12.4</speed>
<course>161.4</course>
<desc>Speed 12.4 km/h Distance 24.34 km</desc>
<time>2011-09-24T11:27:03.97</time>
<name>6564</name>
</trkpt>
<trkpt lat="41.791220" lon="-1.812393">
<ele>1484.5</ele>
<speed>13.1</speed>
<course>160.5</course>
<desc>Speed 13.1 km/h Distance 24.35 km</desc>
<time>2011-09-24T11:27:04.97</time>
<name>6565</name>
</trkpt>
<trkpt lat="41.791188" lon="-1.812378">
<ele>1484.0</ele>
<speed>12.7</speed>
<course>151.7</course>
<desc>Speed 12.7 km/h Distance 24.35 km</desc>
<time>2011-09-24T11:27:05.97</time>
<name>6566</name>
</trkpt>
<trkpt lat="41.791158" lon="-1.812357">
<ele>1484.0</ele>
<speed>12.6</speed>
<course>152.2</course>
<desc>Speed 12.6 km/h Distance 24.35 km</desc>
<time>2011-09-24T11:27:06.98</time>
<name>6567</name>
</trkpt>
<trkpt lat="41.791130" lon="-1.812337">
<ele>1484.0</ele>
<speed>12.9</speed>
<course>148.4</course>
<desc>Speed 12.9 km/h Distance 24.36 km</desc>
<time>2011-09-24T11:27:07.97</time>
<name>6568</name>
</trkpt>
<trkpt lat="41.791102" lon="-1.812313">
<ele>1484.5</ele>
<speed>12.1</speed>
<course>149.7</course>
<desc>Speed 12.1 km/h Distance 24.36 km</desc>
<time>2011-09-24T11:27:08.96</time>
<name>6569</name>
</trkpt>
<trkpt lat="41.791078" lon="-1.812295">
<ele>1484.0</ele>
<speed>10.2</speed>
<course>152.0</course>
<desc>Speed 10.2 km/h Distance 24.36 km</desc>
<time>2011-09-24T11:27:09.97</time>
<name>6570</name>
</trkpt>
<trkpt lat="41.791055" lon="-1.812278">
<ele>1483.0</ele>
<speed>9.6</speed>
<course>155.0</course>
<desc>Speed 9.6 km/h Distance 24.37 km</desc>
<time>2011-09-24T11:27:10.96</time>
<name>6571</name>
</trkpt>
<trkpt lat="41.791028" lon="-1.812262">
<ele>1483.0</ele>
<speed>10.3</speed>
<course>163.4</course>
<desc>Speed 10.3 km/h Distance 24.37 km</desc>
<time>2011-09-24T11:27:11.96</time>
<name>6572</name>
</trkpt>
<trkpt lat="41.791003" lon="-1.812252">
<ele>1481.5</ele>
<speed>9.3</speed>
<course>158.5</course>
<desc>Speed 9.3 km/h Distance 24.37 km</desc>
<time>2011-09-24T11:27:12.96</time>
<name>6573</name>
</trkpt>
<trkpt lat="41.790975" lon="-1.812237">
<ele>1481.0</ele>
<speed>10.0</speed>
<course>166.1</course>
<desc>Speed 10.0 km/h Distance 24.38 km</desc>
<time>2011-09-24T11:27:13.96</time>
<name>6574</name>
</trkpt>
<trkpt lat="41.790950" lon="-1.812228">
<ele>1479.5</ele>
<speed>9.3</speed>
<course>153.5</course>
<desc>Speed 9.3 km/h Distance 24.38 km</desc>
<time>2011-09-24T11:27:14.96</time>
<name>6575</name>
</trkpt>
<trkpt lat="41.790925" lon="-1.812212">
<ele>1478.5</ele>
<speed>9.5</speed>
<course>145.1</course>
<desc>Speed 9.5 km/h Distance 24.38 km</desc>
<time>2011-09-24T11:27:15.96</time>
<name>6576</name>
</trkpt>
<trkpt lat="41.790898" lon="-1.812187">
<ele>1479.0</ele>
<speed>11.9</speed>
<course>144.9</course>
<desc>Speed 11.9 km/h Distance 24.39 km</desc>
<time>2011-09-24T11:27:16.96</time>
<name>6577</name>
</trkpt>
<trkpt lat="41.790868" lon="-1.812158">
<ele>1479.5</ele>
<speed>12.8</speed>
<course>144.8</course>
<desc>Speed 12.8 km/h Distance 24.39 km</desc>
<time>2011-09-24T11:27:17.96</time>
<name>6578</name>
</trkpt>
<trkpt lat="41.790838" lon="-1.812130">
<ele>1480.0</ele>
<speed>13.0</speed>
<course>140.2</course>
<desc>Speed 13.0 km/h Distance 24.39 km</desc>
<time>2011-09-24T11:27:18.96</time>
<name>6579</name>
</trkpt>
<trkpt lat="41.790810" lon="-1.812098">
<ele>1480.5</ele>
<speed>12.7</speed>
<course>140.0</course>
<desc>Speed 12.7 km/h Distance 24.40 km</desc>
<time>2011-09-24T11:27:19.96</time>
<name>6580</name>
</trkpt>
<trkpt lat="41.790783" lon="-1.812068">
<ele>1481.0</ele>
<speed>13.5</speed>
<course>140.0</course>
<desc>Speed 13.5 km/h Distance 24.40 km</desc>
<time>2011-09-24T11:27:20.96</time>
<name>6581</name>
</trkpt>
<trkpt lat="41.790757" lon="-1.812038">
<ele>1481.5</ele>
<speed>13.0</speed>
<course>140.0</course>
<desc>Speed 13.0 km/h Distance 24.41 km</desc>
<time>2011-09-24T11:27:21.96</time>
<name>6582</name>
</trkpt>
<trkpt lat="41.790730" lon="-1.812008">
<ele>1482.0</ele>
<speed>12.1</speed>
<course>134.7</course>
<desc>Speed 12.1 km/h Distance 24.41 km</desc>
<time>2011-09-24T11:27:22.95</time>
<name>6583</name>
</trkpt>
<trkpt lat="41.790707" lon="-1.811977">
<ele>1483.0</ele>
<speed>12.0</speed>
<course>128.8</course>
<desc>Speed 12.0 km/h Distance 24.41 km</desc>
<time>2011-09-24T11:27:23.95</time>
<name>6584</name>
</trkpt>
<trkpt lat="41.790687" lon="-1.811943">
<ele>1483.5</ele>
<speed>11.7</speed>
<course>122.4</course>
<desc>Speed 11.7 km/h Distance 24.42 km</desc>
<time>2011-09-24T11:27:24.96</time>
<name>6585</name>
</trkpt>
<trkpt lat="41.790672" lon="-1.811912">
<ele>1483.0</ele>
<speed>10.2</speed>
<course>121.1</course>
<desc>Speed 10.2 km/h Distance 24.42 km</desc>
<time>2011-09-24T11:27:25.96</time>
<name>6586</name>
</trkpt>
<trkpt lat="41.790657" lon="-1.811878">
<ele>1483.0</ele>
<speed>10.8</speed>
<course>117.3</course>
<desc>Speed 10.8 km/h Distance 24.42 km</desc>
<time>2011-09-24T11:27:26.95</time>
<name>6587</name>
</trkpt>
<trkpt lat="41.790640" lon="-1.811835">
<ele>1483.0</ele>
<speed>13.6</speed>
<course>110.1</course>
<desc>Speed 13.6 km/h Distance 24.43 km</desc>
<time>2011-09-24T11:27:27.95</time>
<name>6588</name>
</trkpt>
<trkpt lat="41.790625" lon="-1.811780">
<ele>1485.0</ele>
<speed>13.4</speed>
<course>111.0</course>
<desc>Speed 13.4 km/h Distance 24.43 km</desc>
<time>2011-09-24T11:27:28.96</time>
<name>6589</name>
</trkpt>
<trkpt lat="41.790612" lon="-1.811733">
<ele>1486.0</ele>
<speed>13.0</speed>
<course>111.0</course>
<desc>Speed 13.0 km/h Distance 24.44 km</desc>
<time>2011-09-24T11:27:29.95</time>
<name>6590</name>
</trkpt>
<trkpt lat="41.790598" lon="-1.811687">
<ele>1487.0</ele>
<speed>13.4</speed>
<course>108.5</course>
<desc>Speed 13.4 km/h Distance 24.44 km</desc>
<time>2011-09-24T11:27:30.95</time>
<name>6591</name>
</trkpt>
<trkpt lat="41.790587" lon="-1.811640">
<ele>1488.0</ele>
<speed>13.1</speed>
<course>108.5</course>
<desc>Speed 13.1 km/h Distance 24.44 km</desc>
<time>2011-09-24T11:27:31.94</time>
<name>6592</name>
</trkpt>
<trkpt lat="41.790575" lon="-1.811593">
<ele>1488.5</ele>
<speed>12.8</speed>
<course>107.2</course>
<desc>Speed 12.8 km/h Distance 24.45 km</desc>
<time>2011-09-24T11:27:32.94</time>
<name>6593</name>
</trkpt>
<trkpt lat="41.790565" lon="-1.811550">
<ele>1489.0</ele>
<speed>12.1</speed>
<course>110.6</course>
<desc>Speed 12.1 km/h Distance 24.45 km</desc>
<time>2011-09-24T11:27:33.94</time>
<name>6594</name>
</trkpt>
<trkpt lat="41.790553" lon="-1.811508">
<ele>1490.0</ele>
<speed>12.1</speed>
<course>111.4</course>
<desc>Speed 12.1 km/h Distance 24.46 km</desc>
<time>2011-09-24T11:27:34.95</time>
<name>6595</name>
</trkpt>
<trkpt lat="41.790542" lon="-1.811468">
<ele>1490.5</ele>
<speed>11.7</speed>
<course>114.1</course>
<desc>Speed 11.7 km/h Distance 24.46 km</desc>
<time>2011-09-24T11:27:35.94</time>
<name>6596</name>
</trkpt>
<trkpt lat="41.790528" lon="-1.811428">
<ele>1491.5</ele>
<speed>12.0</speed>
<course>102.6</course>
<desc>Speed 12.0 km/h Distance 24.46 km</desc>
<time>2011-09-24T11:27:36.94</time>
<name>6597</name>
</trkpt>
<trkpt lat="41.790522" lon="-1.811388">
<ele>1492.5</ele>
<speed>9.9</speed>
<course>105.6</course>
<desc>Speed 9.9 km/h Distance 24.47 km</desc>
<time>2011-09-24T11:27:37.94</time>
<name>6598</name>
</trkpt>
<trkpt lat="41.790513" lon="-1.811348">
<ele>1492.5</ele>
<speed>11.3</speed>
<course>105.6</course>
<desc>Speed 11.3 km/h Distance 24.47 km</desc>
<time>2011-09-24T11:27:38.94</time>
<name>6599</name>
</trkpt>
<trkpt lat="41.790505" lon="-1.811308">
<ele>1493.0</ele>
<speed>11.8</speed>
<course>102.6</course>
<desc>Speed 11.8 km/h Distance 24.47 km</desc>
<time>2011-09-24T11:27:39.94</time>
<name>6600</name>
</trkpt>
<trkpt lat="41.790498" lon="-1.811268">
<ele>1493.0</ele>
<speed>11.6</speed>
<course>122.7</course>
<desc>Speed 11.6 km/h Distance 24.48 km</desc>
<time>2011-09-24T11:27:40.94</time>
<name>6601</name>
</trkpt>
<trkpt lat="41.790480" lon="-1.811230">
<ele>1493.5</ele>
<speed>12.7</speed>
<course>134.1</course>
<desc>Speed 12.7 km/h Distance 24.48 km</desc>
<time>2011-09-24T11:27:41.94</time>
<name>6602</name>
</trkpt>
<trkpt lat="41.790458" lon="-1.811200">
<ele>1493.0</ele>
<speed>11.5</speed>
<course>154.3</course>
<desc>Speed 11.5 km/h Distance 24.48 km</desc>
<time>2011-09-24T11:27:42.94</time>
<name>6603</name>
</trkpt>
<trkpt lat="41.790430" lon="-1.811182">
<ele>1493.5</ele>
<speed>12.0</speed>
<course>172.3</course>
<desc>Speed 12.0 km/h Distance 24.49 km</desc>
<time>2011-09-24T11:27:43.94</time>
<name>6604</name>
</trkpt>
<trkpt lat="41.790393" lon="-1.811175">
<ele>1495.0</ele>
<speed>12.5</speed>
<course>192.6</course>
<desc>Speed 12.5 km/h Distance 24.49 km</desc>
<time>2011-09-24T11:27:44.94</time>
<name>6605</name>
</trkpt>
<trkpt lat="41.790360" lon="-1.811185">
<ele>1496.0</ele>
<speed>12.8</speed>
<course>220.5</course>
<desc>Speed 12.8 km/h Distance 24.50 km</desc>
<time>2011-09-24T11:27:45.94</time>
<name>6606</name>
</trkpt>
<trkpt lat="41.790337" lon="-1.811212">
<ele>1496.0</ele>
<speed>12.3</speed>
<course>250.7</course>
<desc>Speed 12.3 km/h Distance 24.50 km</desc>
<time>2011-09-24T11:27:46.93</time>
<name>6607</name>
</trkpt>
<trkpt lat="41.790327" lon="-1.811250">
<ele>1496.5</ele>
<speed>12.7</speed>
<course>276.1</course>
<desc>Speed 12.7 km/h Distance 24.50 km</desc>
<time>2011-09-24T11:27:47.93</time>
<name>6608</name>
</trkpt>
<trkpt lat="41.790330" lon="-1.811292">
<ele>1496.5</ele>
<speed>13.0</speed>
<course>282.1</course>
<desc>Speed 13.0 km/h Distance 24.51 km</desc>
<time>2011-09-24T11:27:48.93</time>
<name>6609</name>
</trkpt>
<trkpt lat="41.790337" lon="-1.811333">
<ele>1497.0</ele>
<speed>13.0</speed>
<course>289.3</course>
<desc>Speed 13.0 km/h Distance 24.51 km</desc>
<time>2011-09-24T11:27:49.93</time>
<name>6610</name>
</trkpt>
<trkpt lat="41.790347" lon="-1.811372">
<ele>1497.5</ele>
<speed>12.8</speed>
<course>292.2</course>
<desc>Speed 12.8 km/h Distance 24.51 km</desc>
<time>2011-09-24T11:27:50.93</time>
<name>6611</name>
</trkpt>
<trkpt lat="41.790358" lon="-1.811410">
<ele>1497.5</ele>
<speed>12.9</speed>
<course>291.4</course>
<desc>Speed 12.9 km/h Distance 24.52 km</desc>
<time>2011-09-24T11:27:51.93</time>
<name>6612</name>
</trkpt>
<trkpt lat="41.790370" lon="-1.811450">
<ele>1498.0</ele>
<speed>13.0</speed>
<course>288.5</course>
<desc>Speed 13.0 km/h Distance 24.52 km</desc>
<time>2011-09-24T11:27:52.93</time>
<name>6613</name>
</trkpt>
<trkpt lat="41.790380" lon="-1.811490">
<ele>1498.0</ele>
<speed>13.2</speed>
<course>291.4</course>
<desc>Speed 13.2 km/h Distance 24.52 km</desc>
<time>2011-09-24T11:27:53.93</time>
<name>6614</name>
</trkpt>
<trkpt lat="41.790392" lon="-1.811530">
<ele>1498.5</ele>
<speed>13.4</speed>
<course>294.1</course>
<desc>Speed 13.4 km/h Distance 24.53 km</desc>
<time>2011-09-24T11:27:54.93</time>
<name>6615</name>
</trkpt>
<trkpt lat="41.790405" lon="-1.811570">
<ele>1499.0</ele>
<speed>13.4</speed>
<course>295.0</course>
<desc>Speed 13.4 km/h Distance 24.53 km</desc>
<time>2011-09-24T11:27:55.93</time>
<name>6616</name>
</trkpt>
<trkpt lat="41.790418" lon="-1.811608">
<ele>1499.0</ele>
<speed>13.2</speed>
<course>296.7</course>
<desc>Speed 13.2 km/h Distance 24.53 km</desc>
<time>2011-09-24T11:27:56.93</time>
<name>6617</name>
</trkpt>
<trkpt lat="41.790433" lon="-1.811648">
<ele>1499.0</ele>
<speed>13.2</speed>
<course>292.2</course>
<desc>Speed 13.2 km/h Distance 24.54 km</desc>
<time>2011-09-24T11:27:57.92</time>
<name>6618</name>
</trkpt>
<trkpt lat="41.790445" lon="-1.811687">
<ele>1499.5</ele>
<speed>13.0</speed>
<course>295.0</course>
<desc>Speed 13.0 km/h Distance 24.54 km</desc>
<time>2011-09-24T11:27:58.92</time>
<name>6619</name>
</trkpt>
<trkpt lat="41.790458" lon="-1.811725">
<ele>1499.5</ele>
<speed>12.9</speed>
<course>295.0</course>
<desc>Speed 12.9 km/h Distance 24.54 km</desc>
<time>2011-09-24T11:27:59.93</time>
<name>6620</name>
</trkpt>
<trkpt lat="41.790472" lon="-1.811763">
<ele>1499.5</ele>
<speed>13.0</speed>
<course>294.1</course>
<desc>Speed 13.0 km/h Distance 24.55 km</desc>
<time>2011-09-24T11:28:00.92</time>
<name>6621</name>
</trkpt>
<trkpt lat="41.790485" lon="-1.811803">
<ele>1499.5</ele>
<speed>13.0</speed>
<course>294.1</course>
<desc>Speed 13.0 km/h Distance 24.55 km</desc>
<time>2011-09-24T11:28:01.92</time>
<name>6622</name>
</trkpt>
<trkpt lat="41.790498" lon="-1.811843">
<ele>1499.5</ele>
<speed>13.1</speed>
<course>296.0</course>
<desc>Speed 13.1 km/h Distance 24.56 km</desc>
<time>2011-09-24T11:28:02.92</time>
<name>6623</name>
</trkpt>
<trkpt lat="41.790512" lon="-1.811880">
<ele>1499.5</ele>
<speed>12.7</speed>
<course>295.0</course>
<desc>Speed 12.7 km/h Distance 24.56 km</desc>
<time>2011-09-24T11:28:03.92</time>
<name>6624</name>
</trkpt>
<trkpt lat="41.790525" lon="-1.811918">
<ele>1499.5</ele>
<speed>12.7</speed>
<course>294.1</course>
<desc>Speed 12.7 km/h Distance 24.56 km</desc>
<time>2011-09-24T11:28:04.92</time>
<name>6625</name>
</trkpt>
<trkpt lat="41.790538" lon="-1.811958">
<ele>1499.5</ele>
<speed>13.1</speed>
<course>297.7</course>
<desc>Speed 13.1 km/h Distance 24.57 km</desc>
<time>2011-09-24T11:28:05.92</time>
<name>6626</name>
</trkpt>
<trkpt lat="41.790553" lon="-1.811997">
<ele>1499.5</ele>
<speed>12.9</speed>
<course>300.2</course>
<desc>Speed 12.9 km/h Distance 24.57 km</desc>
<time>2011-09-24T11:28:06.92</time>
<name>6627</name>
</trkpt>
<trkpt lat="41.790570" lon="-1.812035">
<ele>1499.5</ele>
<speed>12.6</speed>
<course>298.8</course>
<desc>Speed 12.6 km/h Distance 24.57 km</desc>
<time>2011-09-24T11:28:07.92</time>
<name>6628</name>
</trkpt>
<trkpt lat="41.790585" lon="-1.812072">
<ele>1499.5</ele>
<speed>12.7</speed>
<course>298.8</course>
<desc>Speed 12.7 km/h Distance 24.58 km</desc>
<time>2011-09-24T11:28:08.92</time>
<name>6629</name>
</trkpt>
<trkpt lat="41.790600" lon="-1.812108">
<ele>1499.5</ele>
<speed>12.2</speed>
<course>303.8</course>
<desc>Speed 12.2 km/h Distance 24.58 km</desc>
<time>2011-09-24T11:28:09.92</time>
<name>6630</name>
</trkpt>
<trkpt lat="41.790618" lon="-1.812145">
<ele>1500.0</ele>
<speed>13.1</speed>
<course>303.9</course>
<desc>Speed 13.1 km/h Distance 24.58 km</desc>
<time>2011-09-24T11:28:10.91</time>
<name>6631</name>
</trkpt>
<trkpt lat="41.790637" lon="-1.812182">
<ele>1500.5</ele>
<speed>12.9</speed>
<course>301.4</course>
<desc>Speed 12.9 km/h Distance 24.59 km</desc>
<time>2011-09-24T11:28:11.91</time>
<name>6632</name>
</trkpt>
<trkpt lat="41.790653" lon="-1.812218">
<ele>1500.5</ele>
<speed>13.0</speed>
<course>303.9</course>
<desc>Speed 13.0 km/h Distance 24.59 km</desc>
<time>2011-09-24T11:28:12.92</time>
<name>6633</name>
</trkpt>
<trkpt lat="41.790672" lon="-1.812255">
<ele>1500.5</ele>
<speed>13.1</speed>
<course>300.2</course>
<desc>Speed 13.1 km/h Distance 24.59 km</desc>
<time>2011-09-24T11:28:13.91</time>
<name>6634</name>
</trkpt>
<trkpt lat="41.790688" lon="-1.812293">
<ele>1501.0</ele>
<speed>13.1</speed>
<course>306.2</course>
<desc>Speed 13.1 km/h Distance 24.60 km</desc>
<time>2011-09-24T11:28:14.91</time>
<name>6635</name>
</trkpt>
<trkpt lat="41.790708" lon="-1.812330">
<ele>1501.0</ele>
<speed>13.4</speed>
<course>302.7</course>
<desc>Speed 13.4 km/h Distance 24.60 km</desc>
<time>2011-09-24T11:28:15.91</time>
<name>6636</name>
</trkpt>
<trkpt lat="41.790727" lon="-1.812368">
<ele>1501.5</ele>
<speed>13.4</speed>
<course>307.5</course>
<desc>Speed 13.4 km/h Distance 24.61 km</desc>
<time>2011-09-24T11:28:16.91</time>
<name>6637</name>
</trkpt>
<trkpt lat="41.790747" lon="-1.812403">
<ele>1501.5</ele>
<speed>13.4</speed>
<course>309.7</course>
<desc>Speed 13.4 km/h Distance 24.61 km</desc>
<time>2011-09-24T11:28:17.91</time>
<name>6638</name>
</trkpt>
<trkpt lat="41.790768" lon="-1.812438">
<ele>1501.5</ele>
<speed>13.4</speed>
<course>306.2</course>
<desc>Speed 13.4 km/h Distance 24.61 km</desc>
<time>2011-09-24T11:28:18.91</time>
<name>6639</name>
</trkpt>
<trkpt lat="41.790788" lon="-1.812475">
<ele>1501.5</ele>
<speed>13.7</speed>
<course>309.7</course>
<desc>Speed 13.7 km/h Distance 24.62 km</desc>
<time>2011-09-24T11:28:19.91</time>
<name>6640</name>
</trkpt>
<trkpt lat="41.790810" lon="-1.812510">
<ele>1502.0</ele>
<speed>13.4</speed>
<course>313.2</course>
<desc>Speed 13.4 km/h Distance 24.62 km</desc>
<time>2011-09-24T11:28:20.91</time>
<name>6641</name>
</trkpt>
<trkpt lat="41.790833" lon="-1.812543">
<ele>1502.0</ele>
<speed>13.2</speed>
<course>311.1</course>
<desc>Speed 13.2 km/h Distance 24.62 km</desc>
<time>2011-09-24T11:28:21.91</time>
<name>6642</name>
</trkpt>
<trkpt lat="41.790855" lon="-1.812577">
<ele>1502.0</ele>
<speed>13.5</speed>
<course>313.8</course>
<desc>Speed 13.5 km/h Distance 24.63 km</desc>
<time>2011-09-24T11:28:22.91</time>
<name>6643</name>
</trkpt>
<trkpt lat="41.790880" lon="-1.812612">
<ele>1502.0</ele>
<speed>14.1</speed>
<course>320.2</course>
<desc>Speed 14.1 km/h Distance 24.63 km</desc>
<time>2011-09-24T11:28:23.90</time>
<name>6644</name>
</trkpt>
<trkpt lat="41.790908" lon="-1.812643">
<ele>1502.0</ele>
<speed>14.5</speed>
<course>326.4</course>
<desc>Speed 14.5 km/h Distance 24.64 km</desc>
<time>2011-09-24T11:28:24.90</time>
<name>6645</name>
</trkpt>
<trkpt lat="41.790938" lon="-1.812670">
<ele>1502.0</ele>
<speed>14.4</speed>
<course>323.3</course>
<desc>Speed 14.4 km/h Distance 24.64 km</desc>
<time>2011-09-24T11:28:25.90</time>
<name>6646</name>
</trkpt>
<trkpt lat="41.790967" lon="-1.812698">
<ele>1502.0</ele>
<speed>14.4</speed>
<course>326.4</course>
<desc>Speed 14.4 km/h Distance 24.64 km</desc>
<time>2011-09-24T11:28:26.90</time>
<name>6647</name>
</trkpt>
<trkpt lat="41.790997" lon="-1.812725">
<ele>1502.5</ele>
<speed>13.9</speed>
<course>329.9</course>
<desc>Speed 13.9 km/h Distance 24.65 km</desc>
<time>2011-09-24T11:28:27.90</time>
<name>6648</name>
</trkpt>
<trkpt lat="41.791027" lon="-1.812748">
<ele>1503.0</ele>
<speed>13.9</speed>
<course>332.3</course>
<desc>Speed 13.9 km/h Distance 24.65 km</desc>
<time>2011-09-24T11:28:28.90</time>
<name>6649</name>
</trkpt>
<trkpt lat="41.791055" lon="-1.812768">
<ele>1502.5</ele>
<speed>13.1</speed>
<course>341.9</course>
<desc>Speed 13.1 km/h Distance 24.66 km</desc>
<time>2011-09-24T11:28:29.90</time>
<name>6650</name>
</trkpt>
<trkpt lat="41.791082" lon="-1.812780">
<ele>1502.0</ele>
<speed>11.1</speed>
<course>346.7</course>
<desc>Speed 11.1 km/h Distance 24.66 km</desc>
<time>2011-09-24T11:28:30.91</time>
<name>6651</name>
</trkpt>
<trkpt lat="41.791113" lon="-1.812790">
<ele>1502.0</ele>
<speed>12.7</speed>
<course>339.5</course>
<desc>Speed 12.7 km/h Distance 24.66 km</desc>
<time>2011-09-24T11:28:31.90</time>
<name>6652</name>
</trkpt>
<trkpt lat="41.791143" lon="-1.812805">
<ele>1502.5</ele>
<speed>12.2</speed>
<course>344.6</course>
<desc>Speed 12.2 km/h Distance 24.67 km</desc>
<time>2011-09-24T11:28:32.90</time>
<name>6653</name>
</trkpt>
<trkpt lat="41.791175" lon="-1.812817">
<ele>1503.5</ele>
<speed>13.0</speed>
<course>340.6</course>
<desc>Speed 13.0 km/h Distance 24.67 km</desc>
<time>2011-09-24T11:28:33.90</time>
<name>6654</name>
</trkpt>
<trkpt lat="41.791203" lon="-1.812830">
<ele>1503.0</ele>
<speed>11.8</speed>
<course>355.0</course>
<desc>Speed 11.8 km/h Distance 24.67 km</desc>
<time>2011-09-24T11:28:34.90</time>
<name>6655</name>
</trkpt>
<trkpt lat="41.791230" lon="-1.812833">
<ele>1502.5</ele>
<speed>10.4</speed>
<course>350.1</course>
<desc>Speed 10.4 km/h Distance 24.68 km</desc>
<time>2011-09-24T11:28:35.90</time>
<name>6656</name>
</trkpt>
<trkpt lat="41.791258" lon="-1.812840">
<ele>1502.5</ele>
<speed>10.8</speed>
<course>347.7</course>
<desc>Speed 10.8 km/h Distance 24.68 km</desc>
<time>2011-09-24T11:28:36.90</time>
<name>6657</name>
</trkpt>
<trkpt lat="41.791287" lon="-1.812848">
<ele>1503.0</ele>
<speed>11.1</speed>
<course>347.4</course>
<desc>Speed 11.1 km/h Distance 24.68 km</desc>
<time>2011-09-24T11:28:37.89</time>
<name>6658</name>
</trkpt>
<trkpt lat="41.791320" lon="-1.812858">
<ele>1503.5</ele>
<speed>13.5</speed>
<course>333.6</course>
<desc>Speed 13.5 km/h Distance 24.69 km</desc>
<time>2011-09-24T11:28:38.90</time>
<name>6659</name>
</trkpt>
<trkpt lat="41.791350" lon="-1.812878">
<ele>1502.5</ele>
<speed>13.0</speed>
<course>335.9</course>
<desc>Speed 13.0 km/h Distance 24.69 km</desc>
<time>2011-09-24T11:28:39.89</time>
<name>6660</name>
</trkpt>
<trkpt lat="41.791383" lon="-1.812898">
<ele>1502.5</ele>
<speed>13.6</speed>
<course>336.7</course>
<desc>Speed 13.6 km/h Distance 24.69 km</desc>
<time>2011-09-24T11:28:40.90</time>
<name>6661</name>
</trkpt>
<trkpt lat="41.791415" lon="-1.812917">
<ele>1502.5</ele>
<speed>14.0</speed>
<course>343.4</course>
<desc>Speed 14.0 km/h Distance 24.70 km</desc>
<time>2011-09-24T11:28:41.89</time>
<name>6662</name>
</trkpt>
<trkpt lat="41.791448" lon="-1.812930">
<ele>1503.0</ele>
<speed>13.7</speed>
<course>345.3</course>
<desc>Speed 13.7 km/h Distance 24.70 km</desc>
<time>2011-09-24T11:28:42.90</time>
<name>6663</name>
</trkpt>
<trkpt lat="41.791482" lon="-1.812942">
<ele>1504.0</ele>
<speed>13.9</speed>
<course>339.4</course>
<desc>Speed 13.9 km/h Distance 24.71 km</desc>
<time>2011-09-24T11:28:43.89</time>
<name>6664</name>
</trkpt>
<trkpt lat="41.791508" lon="-1.812955">
<ele>1504.0</ele>
<speed>10.5</speed>
<course>343.3</course>
<desc>Speed 10.5 km/h Distance 24.71 km</desc>
<time>2011-09-24T11:28:44.89</time>
<name>6665</name>
</trkpt>
<trkpt lat="41.791542" lon="-1.812968">
<ele>1504.0</ele>
<speed>13.3</speed>
<course>326.3</course>
<desc>Speed 13.3 km/h Distance 24.71 km</desc>
<time>2011-09-24T11:28:45.90</time>
<name>6666</name>
</trkpt>
<trkpt lat="41.791573" lon="-1.812997">
<ele>1502.0</ele>
<speed>14.9</speed>
<course>352.9</course>
<desc>Speed 14.9 km/h Distance 24.72 km</desc>
<time>2011-09-24T11:28:46.89</time>
<name>6667</name>
</trkpt>
<trkpt lat="41.791603" lon="-1.813002">
<ele>1503.0</ele>
<speed>11.8</speed>
<course>348.3</course>
<desc>Speed 11.8 km/h Distance 24.72 km</desc>
<time>2011-09-24T11:28:47.89</time>
<name>6668</name>
</trkpt>
<trkpt lat="41.791633" lon="-1.813010">
<ele>1503.5</ele>
<speed>12.0</speed>
<course>348.9</course>
<desc>Speed 12.0 km/h Distance 24.72 km</desc>
<time>2011-09-24T11:28:48.89</time>
<name>6669</name>
</trkpt>
<trkpt lat="41.791665" lon="-1.813018">
<ele>1504.0</ele>
<speed>12.1</speed>
<course>351.5</course>
<desc>Speed 12.1 km/h Distance 24.73 km</desc>
<time>2011-09-24T11:28:49.88</time>
<name>6670</name>
</trkpt>
<trkpt lat="41.791698" lon="-1.813025">
<ele>1504.5</ele>
<speed>13.4</speed>
<course>352.0</course>
<desc>Speed 13.4 km/h Distance 24.73 km</desc>
<time>2011-09-24T11:28:50.89</time>
<name>6671</name>
</trkpt>
<trkpt lat="41.791733" lon="-1.813032">
<ele>1505.0</ele>
<speed>13.1</speed>
<course>351.7</course>
<desc>Speed 13.1 km/h Distance 24.73 km</desc>
<time>2011-09-24T11:28:51.88</time>
<name>6672</name>
</trkpt>
<trkpt lat="41.791768" lon="-1.813038">
<ele>1505.5</ele>
<speed>13.7</speed>
<course>349.9</course>
<desc>Speed 13.7 km/h Distance 24.74 km</desc>
<time>2011-09-24T11:28:52.88</time>
<name>6673</name>
</trkpt>
<trkpt lat="41.791803" lon="-1.813047">
<ele>1506.0</ele>
<speed>13.9</speed>
<course>345.4</course>
<desc>Speed 13.9 km/h Distance 24.74 km</desc>
<time>2011-09-24T11:28:53.88</time>
<name>6674</name>
</trkpt>
<trkpt lat="41.791837" lon="-1.813058">
<ele>1506.5</ele>
<speed>13.4</speed>
<course>340.5</course>
<desc>Speed 13.4 km/h Distance 24.75 km</desc>
<time>2011-09-24T11:28:54.88</time>
<name>6675</name>
</trkpt>
<trkpt lat="41.791872" lon="-1.813075">
<ele>1507.5</ele>
<speed>14.0</speed>
<course>348.0</course>
<desc>Speed 14.0 km/h Distance 24.75 km</desc>
<time>2011-09-24T11:28:55.88</time>
<name>6676</name>
</trkpt>
<trkpt lat="41.791907" lon="-1.813085">
<ele>1508.5</ele>
<speed>13.5</speed>
<course>343.7</course>
<desc>Speed 13.5 km/h Distance 24.75 km</desc>
<time>2011-09-24T11:28:56.88</time>
<name>6677</name>
</trkpt>
<trkpt lat="41.791945" lon="-1.813100">
<ele>1509.0</ele>
<speed>14.9</speed>
<course>347.2</course>
<desc>Speed 14.9 km/h Distance 24.76 km</desc>
<time>2011-09-24T11:28:57.87</time>
<name>6678</name>
</trkpt>
<trkpt lat="41.791983" lon="-1.813112">
<ele>1510.0</ele>
<speed>14.4</speed>
<course>342.3</course>
<desc>Speed 14.4 km/h Distance 24.76 km</desc>
<time>2011-09-24T11:28:58.88</time>
<name>6679</name>
</trkpt>
<trkpt lat="41.792018" lon="-1.813127">
<ele>1510.5</ele>
<speed>14.7</speed>
<course>348.6</course>
<desc>Speed 14.7 km/h Distance 24.77 km</desc>
<time>2011-09-24T11:28:59.87</time>
<name>6680</name>
</trkpt>
<trkpt lat="41.792055" lon="-1.813137">
<ele>1511.0</ele>
<speed>14.4</speed>
<course>344.8</course>
<desc>Speed 14.4 km/h Distance 24.77 km</desc>
<time>2011-09-24T11:29:00.87</time>
<name>6681</name>
</trkpt>
<trkpt lat="41.792092" lon="-1.813150">
<ele>1511.0</ele>
<speed>14.4</speed>
<course>340.4</course>
<desc>Speed 14.4 km/h Distance 24.78 km</desc>
<time>2011-09-24T11:29:01.87</time>
<name>6682</name>
</trkpt>
<trkpt lat="41.792127" lon="-1.813167">
<ele>1512.0</ele>
<speed>14.4</speed>
<course>352.0</course>
<desc>Speed 14.4 km/h Distance 24.78 km</desc>
<time>2011-09-24T11:29:02.87</time>
<name>6683</name>
</trkpt>
<trkpt lat="41.792162" lon="-1.813173">
<ele>1513.5</ele>
<speed>13.1</speed>
<course>340.4</course>
<desc>Speed 13.1 km/h Distance 24.78 km</desc>
<time>2011-09-24T11:29:03.87</time>
<name>6684</name>
</trkpt>
<trkpt lat="41.792200" lon="-1.813192">
<ele>1514.0</ele>
<speed>15.4</speed>
<course>337.9</course>
<desc>Speed 15.4 km/h Distance 24.79 km</desc>
<time>2011-09-24T11:29:04.87</time>
<name>6685</name>
</trkpt>
<trkpt lat="41.792237" lon="-1.813212">
<ele>1514.0</ele>
<speed>15.2</speed>
<course>339.6</course>
<desc>Speed 15.2 km/h Distance 24.79 km</desc>
<time>2011-09-24T11:29:05.86</time>
<name>6686</name>
</trkpt>
<trkpt lat="41.792273" lon="-1.813230">
<ele>1514.5</ele>
<speed>14.7</speed>
<course>343.0</course>
<desc>Speed 14.7 km/h Distance 24.80 km</desc>
<time>2011-09-24T11:29:06.86</time>
<name>6687</name>
</trkpt>
<trkpt lat="41.792310" lon="-1.813245">
<ele>1515.0</ele>
<speed>14.9</speed>
<course>346.1</course>
<desc>Speed 14.9 km/h Distance 24.80 km</desc>
<time>2011-09-24T11:29:07.86</time>
<name>6688</name>
</trkpt>
<trkpt lat="41.792350" lon="-1.813258">
<ele>1515.0</ele>
<speed>16.1</speed>
<course>348.0</course>
<desc>Speed 16.1 km/h Distance 24.81 km</desc>
<time>2011-09-24T11:29:08.86</time>
<name>6689</name>
</trkpt>
<trkpt lat="41.792385" lon="-1.813268">
<ele>1516.5</ele>
<speed>13.7</speed>
<course>345.4</course>
<desc>Speed 13.7 km/h Distance 24.81 km</desc>
<time>2011-09-24T11:29:09.87</time>
<name>6690</name>
</trkpt>
<trkpt lat="41.792423" lon="-1.813282">
<ele>1517.0</ele>
<speed>15.3</speed>
<course>338.8</course>
<desc>Speed 15.3 km/h Distance 24.81 km</desc>
<time>2011-09-24T11:29:10.86</time>
<name>6691</name>
</trkpt>
<trkpt lat="41.792462" lon="-1.813302">
<ele>1517.0</ele>
<speed>15.7</speed>
<course>342.0</course>
<desc>Speed 15.7 km/h Distance 24.82 km</desc>
<time>2011-09-24T11:29:11.86</time>
<name>6692</name>
</trkpt>
<trkpt lat="41.792500" lon="-1.813318">
<ele>1517.5</ele>
<speed>14.5</speed>
<course>344.4</course>
<desc>Speed 14.5 km/h Distance 24.82 km</desc>
<time>2011-09-24T11:29:12.86</time>
<name>6693</name>
</trkpt>
<trkpt lat="41.792540" lon="-1.813333">
<ele>1518.0</ele>
<speed>15.7</speed>
<course>345.4</course>
<desc>Speed 15.7 km/h Distance 24.83 km</desc>
<time>2011-09-24T11:29:13.86</time>
<name>6694</name>
</trkpt>
<trkpt lat="41.792578" lon="-1.813347">
<ele>1517.5</ele>
<speed>15.6</speed>
<course>346.7</course>
<desc>Speed 15.6 km/h Distance 24.83 km</desc>
<time>2011-09-24T11:29:14.86</time>
<name>6695</name>
</trkpt>
<trkpt lat="41.792615" lon="-1.813358">
<ele>1518.0</ele>
<speed>14.8</speed>
<course>341.2</course>
<desc>Speed 14.8 km/h Distance 24.84 km</desc>
<time>2011-09-24T11:29:15.86</time>
<name>6696</name>
</trkpt>
<trkpt lat="41.792655" lon="-1.813377">
<ele>1518.0</ele>
<speed>16.3</speed>
<course>345.4</course>
<desc>Speed 16.3 km/h Distance 24.84 km</desc>
<time>2011-09-24T11:29:16.86</time>
<name>6697</name>
</trkpt>
<trkpt lat="41.792688" lon="-1.813388">
<ele>1519.0</ele>
<speed>13.7</speed>
<course>342.2</course>
<desc>Speed 13.7 km/h Distance 24.85 km</desc>
<time>2011-09-24T11:29:17.85</time>
<name>6698</name>
</trkpt>
<trkpt lat="41.792723" lon="-1.813403">
<ele>1519.5</ele>
<speed>13.9</speed>
<course>340.6</course>
<desc>Speed 13.9 km/h Distance 24.85 km</desc>
<time>2011-09-24T11:29:18.85</time>
<name>6699</name>
</trkpt>
<trkpt lat="41.792755" lon="-1.813418">
<ele>1519.5</ele>
<speed>13.2</speed>
<course>343.8</course>
<desc>Speed 13.2 km/h Distance 24.85 km</desc>
<time>2011-09-24T11:29:19.85</time>
<name>6700</name>
</trkpt>
<trkpt lat="41.792793" lon="-1.813433">
<ele>1519.0</ele>
<speed>14.5</speed>
<course>348.6</course>
<desc>Speed 14.5 km/h Distance 24.86 km</desc>
<time>2011-09-24T11:29:20.85</time>
<name>6701</name>
</trkpt>
<trkpt lat="41.792830" lon="-1.813443">
<ele>1519.0</ele>
<speed>14.0</speed>
<course>342.7</course>
<desc>Speed 14.0 km/h Distance 24.86 km</desc>
<time>2011-09-24T11:29:21.85</time>
<name>6702</name>
</trkpt>
<trkpt lat="41.792870" lon="-1.813460">
<ele>1519.0</ele>
<speed>15.0</speed>
<course>342.7</course>
<desc>Speed 15.0 km/h Distance 24.87 km</desc>
<time>2011-09-24T11:29:22.85</time>
<name>6703</name>
</trkpt>
<trkpt lat="41.792910" lon="-1.813477">
<ele>1519.0</ele>
<speed>15.3</speed>
<course>344.7</course>
<desc>Speed 15.3 km/h Distance 24.87 km</desc>
<time>2011-09-24T11:29:23.85</time>
<name>6704</name>
</trkpt>
<trkpt lat="41.792947" lon="-1.813490">
<ele>1519.5</ele>
<speed>14.3</speed>
<course>346.7</course>
<desc>Speed 14.3 km/h Distance 24.88 km</desc>
<time>2011-09-24T11:29:24.84</time>
<name>6705</name>
</trkpt>
<trkpt lat="41.792983" lon="-1.813502">
<ele>1520.5</ele>
<speed>14.3</speed>
<course>350.8</course>
<desc>Speed 14.3 km/h Distance 24.88 km</desc>
<time>2011-09-24T11:29:25.84</time>
<name>6706</name>
</trkpt>
<trkpt lat="41.793022" lon="-1.813510">
<ele>1521.5</ele>
<speed>14.3</speed>
<course>347.2</course>
<desc>Speed 14.3 km/h Distance 24.88 km</desc>
<time>2011-09-24T11:29:26.84</time>
<name>6707</name>
</trkpt>
<trkpt lat="41.793060" lon="-1.813522">
<ele>1522.0</ele>
<speed>14.6</speed>
<course>343.0</course>
<desc>Speed 14.6 km/h Distance 24.89 km</desc>
<time>2011-09-24T11:29:27.84</time>
<name>6708</name>
</trkpt>
<trkpt lat="41.793097" lon="-1.813537">
<ele>1522.5</ele>
<speed>14.4</speed>
<course>342.2</course>
<desc>Speed 14.4 km/h Distance 24.89 km</desc>
<time>2011-09-24T11:29:29.08</time>
<name>6709</name>
</trkpt>
<trkpt lat="41.793132" lon="-1.813552">
<ele>1523.0</ele>
<speed>14.1</speed>
<course>347.2</course>
<desc>Speed 14.1 km/h Distance 24.90 km</desc>
<time>2011-09-24T11:29:29.84</time>
<name>6710</name>
</trkpt>
<trkpt lat="41.793170" lon="-1.813563">
<ele>1523.5</ele>
<speed>15.1</speed>
<course>345.4</course>
<desc>Speed 15.1 km/h Distance 24.90 km</desc>
<time>2011-09-24T11:29:30.85</time>
<name>6711</name>
</trkpt>
<trkpt lat="41.793208" lon="-1.813577">
<ele>1524.0</ele>
<speed>14.8</speed>
<course>343.7</course>
<desc>Speed 14.8 km/h Distance 24.91 km</desc>
<time>2011-09-24T11:29:31.83</time>
<name>6712</name>
</trkpt>
<trkpt lat="41.793247" lon="-1.813592">
<ele>1524.0</ele>
<speed>14.8</speed>
<course>345.4</course>
<desc>Speed 14.8 km/h Distance 24.91 km</desc>
<time>2011-09-24T11:29:32.84</time>
<name>6713</name>
</trkpt>
<trkpt lat="41.793285" lon="-1.813605">
<ele>1524.0</ele>
<speed>14.9</speed>
<course>348.5</course>
<desc>Speed 14.9 km/h Distance 24.91 km</desc>
<time>2011-09-24T11:29:33.83</time>
<name>6714</name>
</trkpt>
<trkpt lat="41.793322" lon="-1.813615">
<ele>1525.0</ele>
<speed>14.3</speed>
<course>350.3</course>
<desc>Speed 14.3 km/h Distance 24.92 km</desc>
<time>2011-09-24T11:29:34.83</time>
<name>6715</name>
</trkpt>
<trkpt lat="41.793358" lon="-1.813623">
<ele>1525.5</ele>
<speed>14.0</speed>
<course>346.6</course>
<desc>Speed 14.0 km/h Distance 24.92 km</desc>
<time>2011-09-24T11:29:35.84</time>
<name>6716</name>
</trkpt>
<trkpt lat="41.793395" lon="-1.813635">
<ele>1526.0</ele>
<speed>14.5</speed>
<course>357.9</course>
<desc>Speed 14.5 km/h Distance 24.93 km</desc>
<time>2011-09-24T11:29:36.84</time>
<name>6717</name>
</trkpt>
<trkpt lat="41.793435" lon="-1.813637">
<ele>1527.0</ele>
<speed>14.5</speed>
<course>354.6</course>
<desc>Speed 14.5 km/h Distance 24.93 km</desc>
<time>2011-09-24T11:29:37.83</time>
<name>6718</name>
</trkpt>
<trkpt lat="41.793473" lon="-1.813642">
<ele>1527.5</ele>
<speed>14.5</speed>
<course>343.1</course>
<desc>Speed 14.5 km/h Distance 24.94 km</desc>
<time>2011-09-24T11:29:38.97</time>
<name>6719</name>
</trkpt>
<trkpt lat="41.793547" lon="-1.813672">
<ele>1528.0</ele>
<speed>14.5</speed>
<course>345.5</course>
<desc>Speed 14.5 km/h Distance 24.94 km</desc>
<time>2011-09-24T11:29:40.83</time>
<name>6720</name>
</trkpt>
<trkpt lat="41.793585" lon="-1.813685">
<ele>1527.5</ele>
<speed>14.7</speed>
<course>342.0</course>
<desc>Speed 14.7 km/h Distance 24.95 km</desc>
<time>2011-09-24T11:29:41.83</time>
<name>6721</name>
</trkpt>
<trkpt lat="41.793623" lon="-1.813702">
<ele>1527.5</ele>
<speed>14.6</speed>
<course>340.4</course>
<desc>Speed 14.6 km/h Distance 24.95 km</desc>
<time>2011-09-24T11:29:42.83</time>
<name>6722</name>
</trkpt>
<trkpt lat="41.793662" lon="-1.813720">
<ele>1527.0</ele>
<speed>14.7</speed>
<course>327.9</course>
<desc>Speed 14.7 km/h Distance 24.96 km</desc>
<time>2011-09-24T11:29:44.47</time>
<name>6723</name>
</trkpt>
<trkpt lat="41.793777" lon="-1.813817">
<ele>1524.5</ele>
<speed>14.8</speed>
<course>317.7</course>
<desc>Speed 14.8 km/h Distance 24.97 km</desc>
<time>2011-09-24T11:29:46.82</time>
<name>6724</name>
</trkpt>
<trkpt lat="41.793807" lon="-1.813853">
<ele>1524.0</ele>
<speed>14.8</speed>
<course>315.2</course>
<desc>Speed 14.8 km/h Distance 24.98 km</desc>
<time>2011-09-24T11:29:47.95</time>
<name>6725</name>
</trkpt>
<trkpt lat="41.793837" lon="-1.813893">
<ele>1523.5</ele>
<speed>14.7</speed>
<course>312.5</course>
<desc>Speed 14.7 km/h Distance 24.98 km</desc>
<time>2011-09-24T11:29:48.84</time>
<name>6726</name>
</trkpt>
<trkpt lat="41.793862" lon="-1.813930">
<ele>1523.5</ele>
<speed>14.0</speed>
<course>309.2</course>
<desc>Speed 14.0 km/h Distance 24.99 km</desc>
<time>2011-09-24T11:29:49.82</time>
<name>6727</name>
</trkpt>
<trkpt lat="41.793885" lon="-1.813968">
<ele>1523.5</ele>
<speed>14.0</speed>
<course>302.8</course>
<desc>Speed 14.0 km/h Distance 24.99 km</desc>
<time>2011-09-24T11:29:50.83</time>
<name>6728</name>
</trkpt>
<trkpt lat="41.793905" lon="-1.814010">
<ele>1523.5</ele>
<speed>13.4</speed>
<course>299.2</course>
<desc>Speed 13.4 km/h Distance 24.99 km</desc>
<time>2011-09-24T11:29:51.82</time>
<name>6729</name>
</trkpt>
<trkpt lat="41.793922" lon="-1.814050">
<ele>1523.0</ele>
<speed>12.9</speed>
<course>288.5</course>
<desc>Speed 12.9 km/h Distance 25.00 km</desc>
<time>2011-09-24T11:29:52.82</time>
<name>6730</name>
</trkpt>
<trkpt lat="41.793933" lon="-1.814097">
<ele>1523.5</ele>
<speed>14.1</speed>
<course>283.9</course>
<desc>Speed 14.1 km/h Distance 25.00 km</desc>
<time>2011-09-24T11:29:53.82</time>
<name>6731</name>
</trkpt>
<trkpt lat="41.793942" lon="-1.814142">
<ele>1524.0</ele>
<speed>14.4</speed>
<course>279.1</course>
<desc>Speed 14.4 km/h Distance 25.01 km</desc>
<time>2011-09-24T11:29:54.83</time>
<name>6732</name>
</trkpt>
<trkpt lat="41.793947" lon="-1.814183">
<ele>1523.5</ele>
<speed>13.1</speed>
<course>273.7</course>
<desc>Speed 13.1 km/h Distance 25.01 km</desc>
<time>2011-09-24T11:29:55.83</time>
<name>6733</name>
</trkpt>
<trkpt lat="41.793948" lon="-1.814218">
<ele>1521.5</ele>
<speed>10.1</speed>
<course>266.8</course>
<desc>Speed 10.1 km/h Distance 25.01 km</desc>
<time>2011-09-24T11:29:56.83</time>
<name>6734</name>
</trkpt>
<trkpt lat="41.793947" lon="-1.814258">
<ele>1522.5</ele>
<speed>11.2</speed>
<course>261.0</course>
<desc>Speed 11.2 km/h Distance 25.02 km</desc>
<time>2011-09-24T11:29:57.83</time>
<name>6735</name>
</trkpt>
<trkpt lat="41.793943" lon="-1.814287">
<ele>1522.0</ele>
<speed>8.5</speed>
<course>208.4</course>
<desc>Speed 8.5 km/h Distance 25.02 km</desc>
<time>2011-09-24T11:29:58.82</time>
<name>6736</name>
</trkpt>
<trkpt lat="41.793925" lon="-1.814300">
<ele>1521.0</ele>
<speed>8.9</speed>
<course>241.7</course>
<desc>Speed 8.9 km/h Distance 25.02 km</desc>
<time>2011-09-24T11:29:59.82</time>
<name>6737</name>
</trkpt>
<trkpt lat="41.793918" lon="-1.814317">
<ele>1521.5</ele>
<speed>5.5</speed>
<course>259.2</course>
<desc>Speed 5.5 km/h Distance 25.02 km</desc>
<time>2011-09-24T11:30:00.82</time>
<name>6738</name>
</trkpt>
<trkpt lat="41.793913" lon="-1.814352">
<ele>1522.0</ele>
<speed>9.9</speed>
<course>252.2</course>
<desc>Speed 9.9 km/h Distance 25.02 km</desc>
<time>2011-09-24T11:30:01.82</time>
<name>6739</name>
</trkpt>
<trkpt lat="41.793903" lon="-1.814393">
<ele>1523.0</ele>
<speed>13.0</speed>
<course>245.9</course>
<desc>Speed 13.0 km/h Distance 25.03 km</desc>
<time>2011-09-24T11:30:02.82</time>
<name>6740</name>
</trkpt>
<trkpt lat="41.793893" lon="-1.814423">
<ele>1522.5</ele>
<speed>9.9</speed>
<course>253.7</course>
<desc>Speed 9.9 km/h Distance 25.03 km</desc>
<time>2011-09-24T11:30:03.82</time>
<name>6741</name>
</trkpt>
<trkpt lat="41.793885" lon="-1.814462">
<ele>1522.0</ele>
<speed>11.2</speed>
<course>237.6</course>
<desc>Speed 11.2 km/h Distance 25.03 km</desc>
<time>2011-09-24T11:30:04.82</time>
<name>6742</name>
</trkpt>
<trkpt lat="41.793870" lon="-1.814493">
<ele>1521.5</ele>
<speed>10.9</speed>
<course>255.0</course>
<desc>Speed 10.9 km/h Distance 25.04 km</desc>
<time>2011-09-24T11:30:05.82</time>
<name>6743</name>
</trkpt>
<trkpt lat="41.793863" lon="-1.814527">
<ele>1520.0</ele>
<speed>10.1</speed>
<course>255.0</course>
<desc>Speed 10.1 km/h Distance 25.04 km</desc>
<time>2011-09-24T11:30:06.81</time>
<name>6744</name>
</trkpt>
<trkpt lat="41.793857" lon="-1.814560">
<ele>1520.0</ele>
<speed>9.8</speed>
<course>248.1</course>
<desc>Speed 9.8 km/h Distance 25.04 km</desc>
<time>2011-09-24T11:30:07.81</time>
<name>6745</name>
</trkpt>
<trkpt lat="41.793847" lon="-1.814593">
<ele>1519.5</ele>
<speed>10.8</speed>
<course>256.3</course>
<desc>Speed 10.8 km/h Distance 25.05 km</desc>
<time>2011-09-24T11:30:08.82</time>
<name>6746</name>
</trkpt>
<trkpt lat="41.793840" lon="-1.814630">
<ele>1518.0</ele>
<speed>10.9</speed>
<course>218.9</course>
<desc>Speed 10.9 km/h Distance 25.05 km</desc>
<time>2011-09-24T11:30:09.81</time>
<name>6747</name>
</trkpt>
<trkpt lat="41.793820" lon="-1.814652">
<ele>1518.5</ele>
<speed>10.4</speed>
<course>243.9</course>
<desc>Speed 10.4 km/h Distance 25.05 km</desc>
<time>2011-09-24T11:30:10.98</time>
<name>6748</name>
</trkpt>
<trkpt lat="41.793795" lon="-1.814720">
<ele>1517.5</ele>
<speed>11.5</speed>
<course>244.9</course>
<desc>Speed 11.5 km/h Distance 25.06 km</desc>
<time>2011-09-24T11:30:12.81</time>
<name>6749</name>
</trkpt>
<trkpt lat="41.793783" lon="-1.814753">
<ele>1517.5</ele>
<speed>11.2</speed>
<course>276.4</course>
<desc>Speed 11.2 km/h Distance 25.06 km</desc>
<time>2011-09-24T11:30:13.82</time>
<name>6750</name>
</trkpt>
<trkpt lat="41.793787" lon="-1.814793">
<ele>1519.5</ele>
<speed>11.6</speed>
<course>252.5</course>
<desc>Speed 11.6 km/h Distance 25.07 km</desc>
<time>2011-09-24T11:30:14.82</time>
<name>6751</name>
</trkpt>
<trkpt lat="41.793780" lon="-1.814822">
<ele>1519.0</ele>
<speed>8.6</speed>
<course>264.9</course>
<desc>Speed 8.6 km/h Distance 25.07 km</desc>
<time>2011-09-24T11:30:15.81</time>
<name>6752</name>
</trkpt>
<trkpt lat="41.793777" lon="-1.814872">
<ele>1520.0</ele>
<speed>14.2</speed>
<course>267.0</course>
<desc>Speed 14.2 km/h Distance 25.07 km</desc>
<time>2011-09-24T11:30:16.81</time>
<name>6753</name>
</trkpt>
<trkpt lat="41.793775" lon="-1.814915">
<ele>1521.0</ele>
<speed>13.1</speed>
<course>229.5</course>
<desc>Speed 13.1 km/h Distance 25.08 km</desc>
<time>2011-09-24T11:30:17.81</time>
<name>6754</name>
</trkpt>
<trkpt lat="41.793763" lon="-1.814933">
<ele>1521.0</ele>
<speed>6.9</speed>
<course>280.8</course>
<desc>Speed 6.9 km/h Distance 25.08 km</desc>
<time>2011-09-24T11:30:18.81</time>
<name>6755</name>
</trkpt>
<trkpt lat="41.793775" lon="-1.815015">
<ele>1520.5</ele>
<speed>8.1</speed>
<course>297.3</course>
<desc>Speed 8.1 km/h Distance 25.08 km</desc>
<time>2011-09-24T11:30:20.81</time>
<name>6756</name>
</trkpt>
<trkpt lat="41.793783" lon="-1.815037">
<ele>1520.5</ele>
<speed>5.5</speed>
<course>280.0</course>
<desc>Speed 5.5 km/h Distance 25.09 km</desc>
<time>2011-09-24T11:30:21.81</time>
<name>6757</name>
</trkpt>
<trkpt lat="41.793795" lon="-1.815125">
<ele>1521.5</ele>
<speed>11.8</speed>
<course>276.4</course>
<desc>Speed 11.8 km/h Distance 25.09 km</desc>
<time>2011-09-24T11:30:23.81</time>
<name>6758</name>
</trkpt>
<trkpt lat="41.793798" lon="-1.815165">
<ele>1522.0</ele>
<speed>11.1</speed>
<course>291.7</course>
<desc>Speed 11.1 km/h Distance 25.10 km</desc>
<time>2011-09-24T11:30:24.81</time>
<name>6759</name>
</trkpt>
<trkpt lat="41.793812" lon="-1.815210">
<ele>1521.5</ele>
<speed>12.4</speed>
<course>282.6</course>
<desc>Speed 12.4 km/h Distance 25.10 km</desc>
<time>2011-09-24T11:30:25.81</time>
<name>6760</name>
</trkpt>
<trkpt lat="41.793818" lon="-1.815250">
<ele>1520.5</ele>
<speed>11.4</speed>
<course>274.0</course>
<desc>Speed 11.4 km/h Distance 25.10 km</desc>
<time>2011-09-24T11:30:26.81</time>
<name>6761</name>
</trkpt>
<trkpt lat="41.793820" lon="-1.815282">
<ele>1522.0</ele>
<speed>7.2</speed>
<course>281.7</course>
<desc>Speed 7.2 km/h Distance 25.11 km</desc>
<time>2011-09-24T11:30:27.80</time>
<name>6762</name>
</trkpt>
<trkpt lat="41.793827" lon="-1.815325">
<ele>1522.5</ele>
<speed>11.4</speed>
<course>286.3</course>
<desc>Speed 11.4 km/h Distance 25.11 km</desc>
<time>2011-09-24T11:30:28.81</time>
<name>6763</name>
</trkpt>
<trkpt lat="41.793835" lon="-1.815363">
<ele>1521.0</ele>
<speed>8.7</speed>
<course>285.0</course>
<desc>Speed 8.7 km/h Distance 25.11 km</desc>
<time>2011-09-24T11:30:29.80</time>
<name>6764</name>
</trkpt>
<trkpt lat="41.793843" lon="-1.815405">
<ele>1519.0</ele>
<speed>9.5</speed>
<course>289.7</course>
<desc>Speed 9.5 km/h Distance 25.12 km</desc>
<time>2011-09-24T11:30:30.80</time>
<name>6765</name>
</trkpt>
<trkpt lat="41.793870" lon="-1.815505">
<ele>1519.5</ele>
<speed>11.3</speed>
<course>288.5</course>
<desc>Speed 11.3 km/h Distance 25.13 km</desc>
<time>2011-09-24T11:30:32.81</time>
<name>6766</name>
</trkpt>
<trkpt lat="41.793882" lon="-1.815552">
<ele>1518.5</ele>
<speed>11.5</speed>
<course>282.6</course>
<desc>Speed 11.5 km/h Distance 25.13 km</desc>
<time>2011-09-24T11:30:33.80</time>
<name>6767</name>
</trkpt>
<trkpt lat="41.793887" lon="-1.815582">
<ele>1519.0</ele>
<speed>6.2</speed>
<course>278.0</course>
<desc>Speed 6.2 km/h Distance 25.13 km</desc>
<time>2011-09-24T11:30:34.80</time>
<name>6768</name>
</trkpt>
<trkpt lat="41.793890" lon="-1.815613">
<ele>1519.0</ele>
<speed>8.2</speed>
<course>297.5</course>
<desc>Speed 8.2 km/h Distance 25.14 km</desc>
<time>2011-09-24T11:30:35.80</time>
<name>6769</name>
</trkpt>
<trkpt lat="41.793902" lon="-1.815643">
<ele>1519.0</ele>
<speed>6.3</speed>
<course>277.3</course>
<desc>Speed 6.3 km/h Distance 25.14 km</desc>
<time>2011-09-24T11:30:36.80</time>
<name>6770</name>
</trkpt>
<trkpt lat="41.793905" lon="-1.815678">
<ele>1518.5</ele>
<speed>6.6</speed>
<course>276.2</course>
<desc>Speed 6.6 km/h Distance 25.14 km</desc>
<time>2011-09-24T11:30:37.81</time>
<name>6771</name>
</trkpt>
<trkpt lat="41.793913" lon="-1.815782">
<ele>1519.0</ele>
<speed>9.2</speed>
<course>281.8</course>
<desc>Speed 9.2 km/h Distance 25.15 km</desc>
<time>2011-09-24T11:30:39.81</time>
<name>6772</name>
</trkpt>
<trkpt lat="41.793933" lon="-1.815910">
<ele>1526.5</ele>
<speed>12.1</speed>
<course>296.3</course>
<desc>Speed 12.1 km/h Distance 25.16 km</desc>
<time>2011-09-24T11:30:41.80</time>
<name>6773</name>
</trkpt>
<trkpt lat="41.793945" lon="-1.815942">
<ele>1524.0</ele>
<speed>7.1</speed>
<course>290.1</course>
<desc>Speed 7.1 km/h Distance 25.16 km</desc>
<time>2011-09-24T11:30:42.80</time>
<name>6774</name>
</trkpt>
<trkpt lat="41.793955" lon="-1.815978">
<ele>1523.0</ele>
<speed>8.2</speed>
<course>290.6</course>
<desc>Speed 8.2 km/h Distance 25.17 km</desc>
<time>2011-09-24T11:30:43.80</time>
<name>6775</name>
</trkpt>
<trkpt lat="41.793967" lon="-1.816020">
<ele>1521.5</ele>
<speed>9.4</speed>
<course>293.1</course>
<desc>Speed 9.4 km/h Distance 25.17 km</desc>
<time>2011-09-24T11:30:44.79</time>
<name>6776</name>
</trkpt>
<trkpt lat="41.793978" lon="-1.816057">
<ele>1519.0</ele>
<speed>9.3</speed>
<course>292.2</course>
<desc>Speed 9.3 km/h Distance 25.17 km</desc>
<time>2011-09-24T11:30:45.79</time>
<name>6777</name>
</trkpt>
<trkpt lat="41.793990" lon="-1.816095">
<ele>1518.0</ele>
<speed>9.7</speed>
<course>280.4</course>
<desc>Speed 9.7 km/h Distance 25.18 km</desc>
<time>2011-09-24T11:30:46.79</time>
<name>6778</name>
</trkpt>
<trkpt lat="41.793995" lon="-1.816132">
<ele>1516.5</ele>
<speed>8.6</speed>
<course>280.7</course>
<desc>Speed 8.6 km/h Distance 25.18 km</desc>
<time>2011-09-24T11:30:47.80</time>
<name>6779</name>
</trkpt>
<trkpt lat="41.794010" lon="-1.816238">
<ele>1518.0</ele>
<speed>11.1</speed>
<course>276.7</course>
<desc>Speed 11.1 km/h Distance 25.19 km</desc>
<time>2011-09-24T11:30:49.79</time>
<name>6780</name>
</trkpt>
<trkpt lat="41.794013" lon="-1.816277">
<ele>1516.0</ele>
<speed>9.2</speed>
<course>251.5</course>
<desc>Speed 9.2 km/h Distance 25.19 km</desc>
<time>2011-09-24T11:30:50.78</time>
<name>6781</name>
</trkpt>
<trkpt lat="41.794005" lon="-1.816310">
<ele>1516.0</ele>
<speed>8.0</speed>
<course>275.1</course>
<desc>Speed 8.0 km/h Distance 25.20 km</desc>
<time>2011-09-24T11:30:51.79</time>
<name>6782</name>
</trkpt>
<trkpt lat="41.794008" lon="-1.816360">
<ele>1517.5</ele>
<speed>10.9</speed>
<course>281.7</course>
<desc>Speed 10.9 km/h Distance 25.20 km</desc>
<time>2011-09-24T11:30:52.79</time>
<name>6783</name>
</trkpt>
<trkpt lat="41.794015" lon="-1.816403">
<ele>1516.5</ele>
<speed>9.9</speed>
<course>280.5</course>
<desc>Speed 9.9 km/h Distance 25.20 km</desc>
<time>2011-09-24T11:30:53.79</time>
<name>6784</name>
</trkpt>
<trkpt lat="41.794028" lon="-1.816500">
<ele>1519.0</ele>
<speed>5.4</speed>
<course>270.0</course>
<desc>Speed 5.4 km/h Distance 25.21 km</desc>
<time>2011-09-24T11:30:55.78</time>
<name>6785</name>
</trkpt>
<trkpt lat="41.794028" lon="-1.816530">
<ele>1521.5</ele>
<speed>5.4</speed>
<course>287.0</course>
<desc>Speed 5.4 km/h Distance 25.21 km</desc>
<time>2011-09-24T11:30:56.79</time>
<name>6786</name>
</trkpt>
<trkpt lat="41.794037" lon="-1.816567">
<ele>1519.5</ele>
<speed>10.9</speed>
<course>263.0</course>
<desc>Speed 10.9 km/h Distance 25.22 km</desc>
<time>2011-09-24T11:30:57.79</time>
<name>6787</name>
</trkpt>
<trkpt lat="41.794033" lon="-1.816603">
<ele>1518.5</ele>
<speed>7.6</speed>
<course>273.7</course>
<desc>Speed 7.6 km/h Distance 25.22 km</desc>
<time>2011-09-24T11:30:58.79</time>
<name>6788</name>
</trkpt>
<trkpt lat="41.794035" lon="-1.816638">
<ele>1518.5</ele>
<speed>6.6</speed>
<course>290.2</course>
<desc>Speed 6.6 km/h Distance 25.22 km</desc>
<time>2011-09-24T11:30:59.79</time>
<name>6789</name>
</trkpt>
<trkpt lat="41.794040" lon="-1.816657">
<ele>1517.5</ele>
<speed>5.5</speed>
<course>282.6</course>
<desc>Speed 5.5 km/h Distance 25.23 km</desc>
<time>2011-09-24T11:31:00.78</time>
<name>6790</name>
</trkpt>
<trkpt lat="41.794055" lon="-1.816747">
<ele>1519.5</ele>
<speed>12.3</speed>
<course>275.9</course>
<desc>Speed 12.3 km/h Distance 25.23 km</desc>
<time>2011-09-24T11:31:02.78</time>
<name>6791</name>
</trkpt>
<trkpt lat="41.794058" lon="-1.816790">
<ele>1520.0</ele>
<speed>12.6</speed>
<course>280.8</course>
<desc>Speed 12.6 km/h Distance 25.24 km</desc>
<time>2011-09-24T11:31:03.78</time>
<name>6792</name>
</trkpt>
<trkpt lat="41.794065" lon="-1.816837">
<ele>1520.0</ele>
<speed>12.3</speed>
<course>283.5</course>
<desc>Speed 12.3 km/h Distance 25.24 km</desc>
<time>2011-09-24T11:31:04.78</time>
<name>6793</name>
</trkpt>
<trkpt lat="41.794073" lon="-1.816883">
<ele>1520.0</ele>
<speed>12.0</speed>
<course>240.1</course>
<desc>Speed 12.0 km/h Distance 25.24 km</desc>
<time>2011-09-24T11:31:05.78</time>
<name>6794</name>
</trkpt>
<trkpt lat="41.794063" lon="-1.816907">
<ele>1520.5</ele>
<speed>6.3</speed>
<course>282.1</course>
<desc>Speed 6.3 km/h Distance 25.25 km</desc>
<time>2011-09-24T11:31:06.77</time>
<name>6795</name>
</trkpt>
<trkpt lat="41.794070" lon="-1.816948">
<ele>1518.0</ele>
<speed>10.1</speed>
<course>298.8</course>
<desc>Speed 10.1 km/h Distance 25.25 km</desc>
<time>2011-09-24T11:31:07.78</time>
<name>6796</name>
</trkpt>
<trkpt lat="41.794085" lon="-1.816985">
<ele>1517.5</ele>
<speed>9.8</speed>
<course>295.0</course>
<desc>Speed 9.8 km/h Distance 25.25 km</desc>
<time>2011-09-24T11:31:08.78</time>
<name>6797</name>
</trkpt>
<trkpt lat="41.794098" lon="-1.817023">
<ele>1517.0</ele>
<speed>9.0</speed>
<course>290.6</course>
<desc>Speed 9.0 km/h Distance 25.26 km</desc>
<time>2011-09-24T11:31:09.78</time>
<name>6798</name>
</trkpt>
<trkpt lat="41.794110" lon="-1.817065">
<ele>1516.0</ele>
<speed>10.2</speed>
<course>281.2</course>
<desc>Speed 10.2 km/h Distance 25.26 km</desc>
<time>2011-09-24T11:31:10.78</time>
<name>6799</name>
</trkpt>
<trkpt lat="41.794117" lon="-1.817110">
<ele>1514.5</ele>
<speed>11.0</speed>
<course>280.8</course>
<desc>Speed 11.0 km/h Distance 25.26 km</desc>
<time>2011-09-24T11:31:11.77</time>
<name>6800</name>
</trkpt>
<trkpt lat="41.794123" lon="-1.817157">
<ele>1515.0</ele>
<speed>13.0</speed>
<course>280.5</course>
<desc>Speed 13.0 km/h Distance 25.27 km</desc>
<time>2011-09-24T11:31:12.76</time>
<name>6801</name>
</trkpt>
<trkpt lat="41.794130" lon="-1.817205">
<ele>1515.0</ele>
<speed>12.3</speed>
<course>289.1</course>
<desc>Speed 12.3 km/h Distance 25.27 km</desc>
<time>2011-09-24T11:31:13.77</time>
<name>6802</name>
</trkpt>
<trkpt lat="41.794143" lon="-1.817257">
<ele>1512.0</ele>
<speed>11.3</speed>
<course>278.7</course>
<desc>Speed 11.3 km/h Distance 25.28 km</desc>
<time>2011-09-24T11:31:14.77</time>
<name>6803</name>
</trkpt>
<trkpt lat="41.794150" lon="-1.817315">
<ele>1509.5</ele>
<speed>13.5</speed>
<course>286.2</course>
<desc>Speed 13.5 km/h Distance 25.28 km</desc>
<time>2011-09-24T11:31:15.77</time>
<name>6804</name>
</trkpt>
<trkpt lat="41.794163" lon="-1.817377">
<ele>1507.5</ele>
<speed>13.8</speed>
<course>278.7</course>
<desc>Speed 13.8 km/h Distance 25.29 km</desc>
<time>2011-09-24T11:31:16.76</time>
<name>6805</name>
</trkpt>
<trkpt lat="41.794170" lon="-1.817435">
<ele>1506.0</ele>
<speed>13.8</speed>
<course>288.0</course>
<desc>Speed 13.8 km/h Distance 25.29 km</desc>
<time>2011-09-24T11:31:17.76</time>
<name>6806</name>
</trkpt>
<trkpt lat="41.794183" lon="-1.817490">
<ele>1505.0</ele>
<speed>13.9</speed>
<course>287.0</course>
<desc>Speed 13.9 km/h Distance 25.30 km</desc>
<time>2011-09-24T11:31:18.75</time>
<name>6807</name>
</trkpt>
<trkpt lat="41.794197" lon="-1.817548">
<ele>1503.0</ele>
<speed>13.4</speed>
<course>283.8</course>
<desc>Speed 13.4 km/h Distance 25.30 km</desc>
<time>2011-09-24T11:31:19.75</time>
<name>6808</name>
</trkpt>
<trkpt lat="41.794255" lon="-1.817867">
<ele>1521.5</ele>
<speed>14.0</speed>
<course>281.0</course>
<desc>Speed 14.0 km/h Distance 25.33 km</desc>
<time>2011-09-24T11:31:22.75</time>
<name>6809</name>
</trkpt>
<trkpt lat="41.794277" lon="-1.818017">
<ele>1531.5</ele>
<speed>14.2</speed>
<course>282.4</course>
<desc>Speed 14.2 km/h Distance 25.34 km</desc>
<time>2011-09-24T11:31:24.75</time>
<name>6810</name>
</trkpt>
<trkpt lat="41.794298" lon="-1.818148">
<ele>1538.0</ele>
<speed>13.9</speed>
<course>289.9</course>
<desc>Speed 13.9 km/h Distance 25.35 km</desc>
<time>2011-09-24T11:31:26.75</time>
<name>6811</name>
</trkpt>
<trkpt lat="41.794315" lon="-1.818210">
<ele>1539.5</ele>
<speed>14.1</speed>
<course>299.0</course>
<desc>Speed 14.1 km/h Distance 25.36 km</desc>
<time>2011-09-24T11:31:27.75</time>
<name>6812</name>
</trkpt>
<trkpt lat="41.794335" lon="-1.818258">
<ele>1538.5</ele>
<speed>14.3</speed>
<course>301.9</course>
<desc>Speed 14.3 km/h Distance 25.36 km</desc>
<time>2011-09-24T11:31:28.75</time>
<name>6813</name>
</trkpt>
<trkpt lat="41.794357" lon="-1.818305">
<ele>1537.5</ele>
<speed>14.1</speed>
<course>302.9</course>
<desc>Speed 14.1 km/h Distance 25.37 km</desc>
<time>2011-09-24T11:31:29.75</time>
<name>6814</name>
</trkpt>
<trkpt lat="41.794378" lon="-1.818350">
<ele>1536.0</ele>
<speed>13.9</speed>
<course>300.8</course>
<desc>Speed 13.9 km/h Distance 25.37 km</desc>
<time>2011-09-24T11:31:30.75</time>
<name>6815</name>
</trkpt>
<trkpt lat="41.794398" lon="-1.818395">
<ele>1534.5</ele>
<speed>13.6</speed>
<course>302.8</course>
<desc>Speed 13.6 km/h Distance 25.38 km</desc>
<time>2011-09-24T11:31:31.75</time>
<name>6816</name>
</trkpt>
<trkpt lat="41.794418" lon="-1.818437">
<ele>1533.5</ele>
<speed>13.0</speed>
<course>301.8</course>
<desc>Speed 13.0 km/h Distance 25.38 km</desc>
<time>2011-09-24T11:31:32.75</time>
<name>6817</name>
</trkpt>
<trkpt lat="41.794438" lon="-1.818480">
<ele>1532.5</ele>
<speed>13.7</speed>
<course>308.1</course>
<desc>Speed 13.7 km/h Distance 25.39 km</desc>
<time>2011-09-24T11:31:33.74</time>
<name>6818</name>
</trkpt>
<trkpt lat="41.794462" lon="-1.818520">
<ele>1531.5</ele>
<speed>13.7</speed>
<course>304.9</course>
<desc>Speed 13.7 km/h Distance 25.39 km</desc>
<time>2011-09-24T11:31:34.74</time>
<name>6819</name>
</trkpt>
<trkpt lat="41.794483" lon="-1.818562">
<ele>1531.0</ele>
<speed>13.6</speed>
<course>303.8</course>
<desc>Speed 13.6 km/h Distance 25.39 km</desc>
<time>2011-09-24T11:31:35.74</time>
<name>6820</name>
</trkpt>
<trkpt lat="41.794505" lon="-1.818605">
<ele>1530.0</ele>
<speed>13.6</speed>
<course>308.0</course>
<desc>Speed 13.6 km/h Distance 25.40 km</desc>
<time>2011-09-24T11:31:36.74</time>
<name>6821</name>
</trkpt>
<trkpt lat="41.794528" lon="-1.818645">
<ele>1529.0</ele>
<speed>13.5</speed>
<course>296.2</course>
<desc>Speed 13.5 km/h Distance 25.40 km</desc>
<time>2011-09-24T11:31:37.74</time>
<name>6822</name>
</trkpt>
<trkpt lat="41.794547" lon="-1.818695">
<ele>1529.5</ele>
<speed>12.7</speed>
<course>298.2</course>
<desc>Speed 12.7 km/h Distance 25.41 km</desc>
<time>2011-09-24T11:31:38.74</time>
<name>6823</name>
</trkpt>
<trkpt lat="41.794563" lon="-1.818737">
<ele>1528.5</ele>
<speed>13.1</speed>
<course>298.2</course>
<desc>Speed 13.1 km/h Distance 25.41 km</desc>
<time>2011-09-24T11:31:39.74</time>
<name>6824</name>
</trkpt>
<trkpt lat="41.794580" lon="-1.818778">
<ele>1528.0</ele>
<speed>12.9</speed>
<course>296.7</course>
<desc>Speed 12.9 km/h Distance 25.41 km</desc>
<time>2011-09-24T11:31:40.74</time>
<name>6825</name>
</trkpt>
<trkpt lat="41.794595" lon="-1.818818">
<ele>1527.0</ele>
<speed>12.7</speed>
<course>294.8</course>
<desc>Speed 12.7 km/h Distance 25.42 km</desc>
<time>2011-09-24T11:31:41.74</time>
<name>6826</name>
</trkpt>
<trkpt lat="41.794612" lon="-1.818867">
<ele>1528.0</ele>
<speed>12.5</speed>
<course>290.3</course>
<desc>Speed 12.5 km/h Distance 25.42 km</desc>
<time>2011-09-24T11:31:42.74</time>
<name>6827</name>
</trkpt>
<trkpt lat="41.794625" lon="-1.818915">
<ele>1528.5</ele>
<speed>12.6</speed>
<course>289.9</course>
<desc>Speed 12.6 km/h Distance 25.43 km</desc>
<time>2011-09-24T11:31:43.74</time>
<name>6828</name>
</trkpt>
<trkpt lat="41.794637" lon="-1.818958">
<ele>1528.0</ele>
<speed>12.8</speed>
<course>284.6</course>
<desc>Speed 12.8 km/h Distance 25.43 km</desc>
<time>2011-09-24T11:31:44.74</time>
<name>6829</name>
</trkpt>
<trkpt lat="41.794647" lon="-1.819010">
<ele>1528.0</ele>
<speed>12.6</speed>
<course>298.2</course>
<desc>Speed 12.6 km/h Distance 25.44 km</desc>
<time>2011-09-24T11:31:45.74</time>
<name>6830</name>
</trkpt>
<trkpt lat="41.794663" lon="-1.819052">
<ele>1527.5</ele>
<speed>12.7</speed>
<course>289.1</course>
<desc>Speed 12.7 km/h Distance 25.44 km</desc>
<time>2011-09-24T11:31:46.73</time>
<name>6831</name>
</trkpt>
<trkpt lat="41.794677" lon="-1.819103">
<ele>1528.5</ele>
<speed>13.1</speed>
<course>289.1</course>
<desc>Speed 13.1 km/h Distance 25.44 km</desc>
<time>2011-09-24T11:31:47.73</time>
<name>6832</name>
</trkpt>
<trkpt lat="41.794690" lon="-1.819155">
<ele>1529.0</ele>
<speed>13.1</speed>
<course>289.7</course>
<desc>Speed 13.1 km/h Distance 25.45 km</desc>
<time>2011-09-24T11:31:48.73</time>
<name>6833</name>
</trkpt>
<trkpt lat="41.794703" lon="-1.819205">
<ele>1529.5</ele>
<speed>12.9</speed>
<course>291.7</course>
<desc>Speed 12.9 km/h Distance 25.45 km</desc>
<time>2011-09-24T11:31:49.73</time>
<name>6834</name>
</trkpt>
<trkpt lat="41.794717" lon="-1.819250">
<ele>1529.5</ele>
<speed>12.9</speed>
<course>287.9</course>
<desc>Speed 12.9 km/h Distance 25.46 km</desc>
<time>2011-09-24T11:31:50.73</time>
<name>6835</name>
</trkpt>
<trkpt lat="41.794728" lon="-1.819298">
<ele>1529.5</ele>
<speed>13.1</speed>
<course>294.1</course>
<desc>Speed 13.1 km/h Distance 25.46 km</desc>
<time>2011-09-24T11:31:51.73</time>
<name>6836</name>
</trkpt>
<trkpt lat="41.794743" lon="-1.819343">
<ele>1530.0</ele>
<speed>12.7</speed>
<course>294.1</course>
<desc>Speed 12.7 km/h Distance 25.46 km</desc>
<time>2011-09-24T11:31:52.74</time>
<name>6837</name>
</trkpt>
<trkpt lat="41.794758" lon="-1.819388">
<ele>1530.0</ele>
<speed>13.1</speed>
<course>298.2</course>
<desc>Speed 13.1 km/h Distance 25.47 km</desc>
<time>2011-09-24T11:31:53.73</time>
<name>6838</name>
</trkpt>
<trkpt lat="41.794775" lon="-1.819430">
<ele>1530.0</ele>
<speed>13.3</speed>
<course>298.2</course>
<desc>Speed 13.3 km/h Distance 25.47 km</desc>
<time>2011-09-24T11:31:54.73</time>
<name>6839</name>
</trkpt>
<trkpt lat="41.794792" lon="-1.819472">
<ele>1530.5</ele>
<speed>13.2</speed>
<course>296.4</course>
<desc>Speed 13.2 km/h Distance 25.48 km</desc>
<time>2011-09-24T11:31:55.73</time>
<name>6840</name>
</trkpt>
<trkpt lat="41.794808" lon="-1.819517">
<ele>1530.5</ele>
<speed>13.4</speed>
<course>295.8</course>
<desc>Speed 13.4 km/h Distance 25.48 km</desc>
<time>2011-09-24T11:31:56.73</time>
<name>6841</name>
</trkpt>
<trkpt lat="41.794823" lon="-1.819558">
<ele>1530.5</ele>
<speed>13.2</speed>
<course>294.9</course>
<desc>Speed 13.2 km/h Distance 25.48 km</desc>
<time>2011-09-24T11:31:57.73</time>
<name>6842</name>
</trkpt>
<trkpt lat="41.794838" lon="-1.819602">
<ele>1530.0</ele>
<speed>12.8</speed>
<course>291.7</course>
<desc>Speed 12.8 km/h Distance 25.49 km</desc>
<time>2011-09-24T11:31:58.73</time>
<name>6843</name>
</trkpt>
<trkpt lat="41.794852" lon="-1.819647">
<ele>1530.0</ele>
<speed>13.0</speed>
<course>294.1</course>
<desc>Speed 13.0 km/h Distance 25.49 km</desc>
<time>2011-09-24T11:31:59.73</time>
<name>6844</name>
</trkpt>
<trkpt lat="41.794867" lon="-1.819692">
<ele>1530.0</ele>
<speed>13.1</speed>
<course>301.7</course>
<desc>Speed 13.1 km/h Distance 25.50 km</desc>
<time>2011-09-24T11:32:00.72</time>
<name>6845</name>
</trkpt>
<trkpt lat="41.794887" lon="-1.819735">
<ele>1530.5</ele>
<speed>13.7</speed>
<course>302.8</course>
<desc>Speed 13.7 km/h Distance 25.50 km</desc>
<time>2011-09-24T11:32:01.72</time>
<name>6846</name>
</trkpt>
<trkpt lat="41.794907" lon="-1.819777">
<ele>1531.0</ele>
<speed>13.4</speed>
<course>298.2</course>
<desc>Speed 13.4 km/h Distance 25.51 km</desc>
<time>2011-09-24T11:32:02.72</time>
<name>6847</name>
</trkpt>
<trkpt lat="41.794923" lon="-1.819818">
<ele>1531.0</ele>
<speed>13.0</speed>
<course>299.6</course>
<desc>Speed 13.0 km/h Distance 25.51 km</desc>
<time>2011-09-24T11:32:03.72</time>
<name>6848</name>
</trkpt>
<trkpt lat="41.794942" lon="-1.819862">
<ele>1532.5</ele>
<speed>12.6</speed>
<course>298.2</course>
<desc>Speed 12.6 km/h Distance 25.51 km</desc>
<time>2011-09-24T11:32:04.72</time>
<name>6849</name>
</trkpt>
<trkpt lat="41.794958" lon="-1.819903">
<ele>1533.0</ele>
<speed>12.7</speed>
<course>301.6</course>
<desc>Speed 12.7 km/h Distance 25.52 km</desc>
<time>2011-09-24T11:32:05.72</time>
<name>6850</name>
</trkpt>
<trkpt lat="41.794977" lon="-1.819943">
<ele>1534.0</ele>
<speed>12.2</speed>
<course>301.4</course>
<desc>Speed 12.2 km/h Distance 25.52 km</desc>
<time>2011-09-24T11:32:06.72</time>
<name>6851</name>
</trkpt>
<trkpt lat="41.794993" lon="-1.819980">
<ele>1534.5</ele>
<speed>11.4</speed>
<course>302.6</course>
<desc>Speed 11.4 km/h Distance 25.52 km</desc>
<time>2011-09-24T11:32:07.72</time>
<name>6852</name>
</trkpt>
<trkpt lat="41.795010" lon="-1.820015">
<ele>1535.0</ele>
<speed>11.3</speed>
<course>302.6</course>
<desc>Speed 11.3 km/h Distance 25.53 km</desc>
<time>2011-09-24T11:32:08.71</time>
<name>6853</name>
</trkpt>
<trkpt lat="41.795027" lon="-1.820050">
<ele>1536.0</ele>
<speed>11.1</speed>
<course>301.1</course>
<desc>Speed 11.1 km/h Distance 25.53 km</desc>
<time>2011-09-24T11:32:09.72</time>
<name>6854</name>
</trkpt>
<trkpt lat="41.795042" lon="-1.820083">
<ele>1536.5</ele>
<speed>10.7</speed>
<course>307.8</course>
<desc>Speed 10.7 km/h Distance 25.53 km</desc>
<time>2011-09-24T11:32:10.72</time>
<name>6855</name>
</trkpt>
<trkpt lat="41.795060" lon="-1.820115">
<ele>1536.5</ele>
<speed>10.4</speed>
<course>309.3</course>
<desc>Speed 10.4 km/h Distance 25.54 km</desc>
<time>2011-09-24T11:32:11.71</time>
<name>6856</name>
</trkpt>
<trkpt lat="41.795078" lon="-1.820145">
<ele>1537.0</ele>
<speed>10.3</speed>
<course>309.3</course>
<desc>Speed 10.3 km/h Distance 25.54 km</desc>
<time>2011-09-24T11:32:12.71</time>
<name>6857</name>
</trkpt>
<trkpt lat="41.795097" lon="-1.820175">
<ele>1537.5</ele>
<speed>10.6</speed>
<course>311.8</course>
<desc>Speed 10.6 km/h Distance 25.54 km</desc>
<time>2011-09-24T11:32:13.71</time>
<name>6858</name>
</trkpt>
<trkpt lat="41.795117" lon="-1.820205">
<ele>1538.0</ele>
<speed>10.8</speed>
<course>309.3</course>
<desc>Speed 10.8 km/h Distance 25.55 km</desc>
<time>2011-09-24T11:32:14.71</time>
<name>6859</name>
</trkpt>
<trkpt lat="41.795135" lon="-1.820235">
<ele>1538.0</ele>
<speed>10.7</speed>
<course>306.7</course>
<desc>Speed 10.7 km/h Distance 25.55 km</desc>
<time>2011-09-24T11:32:15.71</time>
<name>6860</name>
</trkpt>
<trkpt lat="41.795152" lon="-1.820265">
<ele>1538.0</ele>
<speed>11.1</speed>
<course>309.3</course>
<desc>Speed 11.1 km/h Distance 25.55 km</desc>
<time>2011-09-24T11:32:16.71</time>
<name>6861</name>
</trkpt>
<trkpt lat="41.795170" lon="-1.820295">
<ele>1538.0</ele>
<speed>11.1</speed>
<course>310.9</course>
<desc>Speed 11.1 km/h Distance 25.56 km</desc>
<time>2011-09-24T11:32:17.71</time>
<name>6862</name>
</trkpt>
<trkpt lat="41.795188" lon="-1.820323">
<ele>1538.0</ele>
<speed>10.6</speed>
<course>317.5</course>
<desc>Speed 10.6 km/h Distance 25.56 km</desc>
<time>2011-09-24T11:32:18.71</time>
<name>6863</name>
</trkpt>
<trkpt lat="41.795210" lon="-1.820350">
<ele>1538.0</ele>
<speed>10.7</speed>
<course>305.2</course>
<desc>Speed 10.7 km/h Distance 25.56 km</desc>
<time>2011-09-24T11:32:19.71</time>
<name>6864</name>
</trkpt>
<trkpt lat="41.795227" lon="-1.820382">
<ele>1538.5</ele>
<speed>10.9</speed>
<course>317.0</course>
<desc>Speed 10.9 km/h Distance 25.57 km</desc>
<time>2011-09-24T11:32:20.71</time>
<name>6865</name>
</trkpt>
<trkpt lat="41.795247" lon="-1.820407">
<ele>1538.5</ele>
<speed>10.8</speed>
<course>319.3</course>
<desc>Speed 10.8 km/h Distance 25.57 km</desc>
<time>2011-09-24T11:32:21.70</time>
<name>6866</name>
</trkpt>
<trkpt lat="41.795268" lon="-1.820432">
<ele>1538.5</ele>
<speed>10.6</speed>
<course>317.1</course>
<desc>Speed 10.6 km/h Distance 25.57 km</desc>
<time>2011-09-24T11:32:22.70</time>
<name>6867</name>
</trkpt>
<trkpt lat="41.795288" lon="-1.820457">
<ele>1539.0</ele>
<speed>10.5</speed>
<course>317.0</course>
<desc>Speed 10.5 km/h Distance 25.58 km</desc>
<time>2011-09-24T11:32:23.70</time>
<name>6868</name>
</trkpt>
<trkpt lat="41.795308" lon="-1.820482">
<ele>1539.0</ele>
<speed>10.5</speed>
<course>325.4</course>
<desc>Speed 10.5 km/h Distance 25.58 km</desc>
<time>2011-09-24T11:32:24.70</time>
<name>6869</name>
</trkpt>
<trkpt lat="41.795330" lon="-1.820502">
<ele>1539.5</ele>
<speed>10.2</speed>
<course>325.3</course>
<desc>Speed 10.2 km/h Distance 25.58 km</desc>
<time>2011-09-24T11:32:25.70</time>
<name>6870</name>
</trkpt>
<trkpt lat="41.795353" lon="-1.820523">
<ele>1540.0</ele>
<speed>10.5</speed>
<course>329.7</course>
<desc>Speed 10.5 km/h Distance 25.59 km</desc>
<time>2011-09-24T11:32:26.70</time>
<name>6871</name>
</trkpt>
<trkpt lat="41.795377" lon="-1.820542">
<ele>1540.0</ele>
<speed>10.7</speed>
<course>335.0</course>
<desc>Speed 10.7 km/h Distance 25.59 km</desc>
<time>2011-09-24T11:32:27.70</time>
<name>6872</name>
</trkpt>
<trkpt lat="41.795403" lon="-1.820558">
<ele>1540.0</ele>
<speed>11.1</speed>
<course>338.3</course>
<desc>Speed 11.1 km/h Distance 25.59 km</desc>
<time>2011-09-24T11:32:28.70</time>
<name>6873</name>
</trkpt>
<trkpt lat="41.795428" lon="-1.820572">
<ele>1540.0</ele>
<speed>10.5</speed>
<course>338.5</course>
<desc>Speed 10.5 km/h Distance 25.59 km</desc>
<time>2011-09-24T11:32:29.70</time>
<name>6874</name>
</trkpt>
<trkpt lat="41.795457" lon="-1.820587">
<ele>1540.5</ele>
<speed>11.0</speed>
<course>342.9</course>
<desc>Speed 11.0 km/h Distance 25.60 km</desc>
<time>2011-09-24T11:32:30.70</time>
<name>6875</name>
</trkpt>
<trkpt lat="41.795485" lon="-1.820598">
<ele>1540.5</ele>
<speed>11.9</speed>
<course>346.1</course>
<desc>Speed 11.9 km/h Distance 25.60 km</desc>
<time>2011-09-24T11:32:31.70</time>
<name>6876</name>
</trkpt>
<trkpt lat="41.795515" lon="-1.820608">
<ele>1540.5</ele>
<speed>11.4</speed>
<course>350.2</course>
<desc>Speed 11.4 km/h Distance 25.60 km</desc>
<time>2011-09-24T11:32:32.70</time>
<name>6877</name>
</trkpt>
<trkpt lat="41.795543" lon="-1.820615">
<ele>1541.0</ele>
<speed>11.1</speed>
<course>355.0</course>
<desc>Speed 11.1 km/h Distance 25.61 km</desc>
<time>2011-09-24T11:32:33.70</time>
<name>6878</name>
</trkpt>
<trkpt lat="41.795570" lon="-1.820618">
<ele>1541.0</ele>
<speed>10.7</speed>
<course>355.2</course>
<desc>Speed 10.7 km/h Distance 25.61 km</desc>
<time>2011-09-24T11:32:34.70</time>
<name>6879</name>
</trkpt>
<trkpt lat="41.795598" lon="-1.820622">
<ele>1541.5</ele>
<speed>10.5</speed>
<course>357.8</course>
<desc>Speed 10.5 km/h Distance 25.61 km</desc>
<time>2011-09-24T11:32:35.70</time>
<name>6880</name>
</trkpt>
<trkpt lat="41.795627" lon="-1.820623">
<ele>1542.0</ele>
<speed>10.7</speed>
<course>1.4</course>
<desc>Speed 10.7 km/h Distance 25.62 km</desc>
<time>2011-09-24T11:32:36.69</time>
<name>6881</name>
</trkpt>
<trkpt lat="41.795655" lon="-1.820623">
<ele>1542.0</ele>
<speed>10.8</speed>
<course>0.0</course>
<desc>Speed 10.8 km/h Distance 25.62 km</desc>
<time>2011-09-24T11:32:37.69</time>
<name>6882</name>
</trkpt>
<trkpt lat="41.795683" lon="-1.820623">
<ele>1542.5</ele>
<speed>11.0</speed>
<course>1.4</course>
<desc>Speed 11.0 km/h Distance 25.62 km</desc>
<time>2011-09-24T11:32:38.70</time>
<name>6883</name>
</trkpt>
<trkpt lat="41.795712" lon="-1.820623">
<ele>1542.5</ele>
<speed>10.8</speed>
<course>7.4</course>
<desc>Speed 10.8 km/h Distance 25.63 km</desc>
<time>2011-09-24T11:32:39.69</time>
<name>6884</name>
</trkpt>
<trkpt lat="41.795740" lon="-1.820618">
<ele>1542.5</ele>
<speed>11.0</speed>
<course>4.8</course>
<desc>Speed 11.0 km/h Distance 25.63 km</desc>
<time>2011-09-24T11:32:40.69</time>
<name>6885</name>
</trkpt>
<trkpt lat="41.795768" lon="-1.820615">
<ele>1543.0</ele>
<speed>11.2</speed>
<course>4.5</course>
<desc>Speed 11.2 km/h Distance 25.63 km</desc>
<time>2011-09-24T11:32:41.69</time>
<name>6886</name>
</trkpt>
<trkpt lat="41.795797" lon="-1.820612">
<ele>1543.0</ele>
<speed>11.1</speed>
<course>2.5</course>
<desc>Speed 11.1 km/h Distance 25.64 km</desc>
<time>2011-09-24T11:32:42.69</time>
<name>6887</name>
</trkpt>
<trkpt lat="41.795827" lon="-1.820610">
<ele>1543.0</ele>
<speed>11.5</speed>
<course>7.4</course>
<desc>Speed 11.5 km/h Distance 25.64 km</desc>
<time>2011-09-24T11:32:43.69</time>
<name>6888</name>
</trkpt>
<trkpt lat="41.795855" lon="-1.820605">
<ele>1543.0</ele>
<speed>11.6</speed>
<course>6.9</course>
<desc>Speed 11.6 km/h Distance 25.64 km</desc>
<time>2011-09-24T11:32:44.69</time>
<name>6889</name>
</trkpt>
<trkpt lat="41.795885" lon="-1.820600">
<ele>1543.0</ele>
<speed>11.4</speed>
<course>13.1</course>
<desc>Speed 11.4 km/h Distance 25.65 km</desc>
<time>2011-09-24T11:32:45.69</time>
<name>6890</name>
</trkpt>
<trkpt lat="41.795912" lon="-1.820592">
<ele>1543.0</ele>
<speed>10.8</speed>
<course>13.9</course>
<desc>Speed 10.8 km/h Distance 25.65 km</desc>
<time>2011-09-24T11:32:46.69</time>
<name>6891</name>
</trkpt>
<trkpt lat="41.795937" lon="-1.820583">
<ele>1543.0</ele>
<speed>10.2</speed>
<course>10.6</course>
<desc>Speed 10.2 km/h Distance 25.65 km</desc>
<time>2011-09-24T11:32:47.69</time>
<name>6892</name>
</trkpt>
<trkpt lat="41.795963" lon="-1.820577">
<ele>1543.0</ele>
<speed>10.8</speed>
<course>17.1</course>
<desc>Speed 10.8 km/h Distance 25.66 km</desc>
<time>2011-09-24T11:32:48.69</time>
<name>6893</name>
</trkpt>
<trkpt lat="41.795992" lon="-1.820565">
<ele>1543.0</ele>
<speed>11.5</speed>
<course>26.5</course>
<desc>Speed 11.5 km/h Distance 25.66 km</desc>
<time>2011-09-24T11:32:49.68</time>
<name>6894</name>
</trkpt>
<trkpt lat="41.796017" lon="-1.820548">
<ele>1543.0</ele>
<speed>11.1</speed>
<course>20.3</course>
<desc>Speed 11.1 km/h Distance 25.66 km</desc>
<time>2011-09-24T11:32:50.69</time>
<name>6895</name>
</trkpt>
<trkpt lat="41.796037" lon="-1.820538">
<ele>1542.5</ele>
<speed>8.4</speed>
<course>26.4</course>
<desc>Speed 8.4 km/h Distance 25.66 km</desc>
<time>2011-09-24T11:32:51.68</time>
<name>6896</name>
</trkpt>
<trkpt lat="41.796057" lon="-1.820525">
<ele>1542.5</ele>
<speed>9.0</speed>
<course>23.1</course>
<desc>Speed 9.0 km/h Distance 25.67 km</desc>
<time>2011-09-24T11:32:52.68</time>
<name>6897</name>
</trkpt>
<trkpt lat="41.796080" lon="-1.820512">
<ele>1542.5</ele>
<speed>9.3</speed>
<course>16.5</course>
<desc>Speed 9.3 km/h Distance 25.67 km</desc>
<time>2011-09-24T11:32:53.68</time>
<name>6898</name>
</trkpt>
<trkpt lat="41.796105" lon="-1.820502">
<ele>1543.0</ele>
<speed>10.2</speed>
<course>11.7</course>
<desc>Speed 10.2 km/h Distance 25.67 km</desc>
<time>2011-09-24T11:32:54.68</time>
<name>6899</name>
</trkpt>
<trkpt lat="41.796135" lon="-1.820493">
<ele>1543.0</ele>
<speed>11.2</speed>
<course>10.6</course>
<desc>Speed 11.2 km/h Distance 25.68 km</desc>
<time>2011-09-24T11:32:55.68</time>
<name>6900</name>
</trkpt>
<trkpt lat="41.796162" lon="-1.820487">
<ele>1543.0</ele>
<speed>10.8</speed>
<course>10.6</course>
<desc>Speed 10.8 km/h Distance 25.68 km</desc>
<time>2011-09-24T11:32:56.67</time>
<name>6901</name>
</trkpt>
<trkpt lat="41.796188" lon="-1.820480">
<ele>1543.0</ele>
<speed>10.7</speed>
<course>7.1</course>
<desc>Speed 10.7 km/h Distance 25.68 km</desc>
<time>2011-09-24T11:32:57.68</time>
<name>6902</name>
</trkpt>
<trkpt lat="41.796218" lon="-1.820475">
<ele>1543.0</ele>
<speed>11.4</speed>
<course>7.8</course>
<desc>Speed 11.4 km/h Distance 25.68 km</desc>
<time>2011-09-24T11:32:58.67</time>
<name>6903</name>
</trkpt>
<trkpt lat="41.796245" lon="-1.820470">
<ele>1543.5</ele>
<speed>10.7</speed>
<course>14.8</course>
<desc>Speed 10.7 km/h Distance 25.69 km</desc>
<time>2011-09-24T11:32:59.68</time>
<name>6904</name>
</trkpt>
<trkpt lat="41.796273" lon="-1.820460">
<ele>1543.5</ele>
<speed>11.4</speed>
<course>20.5</course>
<desc>Speed 11.4 km/h Distance 25.69 km</desc>
<time>2011-09-24T11:33:00.67</time>
<name>6905</name>
</trkpt>
<trkpt lat="41.796300" lon="-1.820447">
<ele>1543.5</ele>
<speed>11.3</speed>
<course>15.6</course>
<desc>Speed 11.3 km/h Distance 25.69 km</desc>
<time>2011-09-24T11:33:01.66</time>
<name>6906</name>
</trkpt>
<trkpt lat="41.796327" lon="-1.820437">
<ele>1544.0</ele>
<speed>10.6</speed>
<course>15.6</course>
<desc>Speed 10.6 km/h Distance 25.70 km</desc>
<time>2011-09-24T11:33:02.67</time>
<name>6907</name>
</trkpt>
<trkpt lat="41.796353" lon="-1.820427">
<ele>1544.0</ele>
<speed>10.3</speed>
<course>17.7</course>
<desc>Speed 10.3 km/h Distance 25.70 km</desc>
<time>2011-09-24T11:33:03.67</time>
<name>6908</name>
</trkpt>
<trkpt lat="41.796377" lon="-1.820417">
<ele>1544.5</ele>
<speed>9.8</speed>
<course>10.5</course>
<desc>Speed 9.8 km/h Distance 25.70 km</desc>
<time>2011-09-24T11:33:04.68</time>
<name>6909</name>
</trkpt>
<trkpt lat="41.796403" lon="-1.820410">
<ele>1545.0</ele>
<speed>9.8</speed>
<course>10.6</course>
<desc>Speed 9.8 km/h Distance 25.71 km</desc>
<time>2011-09-24T11:33:05.66</time>
<name>6910</name>
</trkpt>
<trkpt lat="41.796430" lon="-1.820403">
<ele>1545.0</ele>
<speed>10.0</speed>
<course>7.4</course>
<desc>Speed 10.0 km/h Distance 25.71 km</desc>
<time>2011-09-24T11:33:06.66</time>
<name>6911</name>
</trkpt>
<trkpt lat="41.796458" lon="-1.820398">
<ele>1545.0</ele>
<speed>11.0</speed>
<course>18.3</course>
<desc>Speed 11.0 km/h Distance 25.71 km</desc>
<time>2011-09-24T11:33:07.66</time>
<name>6912</name>
</trkpt>
<trkpt lat="41.796488" lon="-1.820385">
<ele>1545.0</ele>
<speed>11.3</speed>
<course>21.5</course>
<desc>Speed 11.3 km/h Distance 25.72 km</desc>
<time>2011-09-24T11:33:08.66</time>
<name>6913</name>
</trkpt>
<trkpt lat="41.796517" lon="-1.820370">
<ele>1545.0</ele>
<speed>12.0</speed>
<course>18.3</course>
<desc>Speed 12.0 km/h Distance 25.72 km</desc>
<time>2011-09-24T11:33:09.67</time>
<name>6914</name>
</trkpt>
<trkpt lat="41.796547" lon="-1.820357">
<ele>1544.5</ele>
<speed>12.3</speed>
<course>15.4</course>
<desc>Speed 12.3 km/h Distance 25.72 km</desc>
<time>2011-09-24T11:33:10.66</time>
<name>6915</name>
</trkpt>
<trkpt lat="41.796578" lon="-1.820345">
<ele>1544.5</ele>
<speed>12.7</speed>
<course>20.4</course>
<desc>Speed 12.7 km/h Distance 25.73 km</desc>
<time>2011-09-24T11:33:11.66</time>
<name>6916</name>
</trkpt>
<trkpt lat="41.796608" lon="-1.820330">
<ele>1544.5</ele>
<speed>12.9</speed>
<course>18.6</course>
<desc>Speed 12.9 km/h Distance 25.73 km</desc>
<time>2011-09-24T11:33:12.66</time>
<name>6917</name>
</trkpt>
<trkpt lat="41.796642" lon="-1.820315">
<ele>1544.5</ele>
<speed>13.3</speed>
<course>14.7</course>
<desc>Speed 13.3 km/h Distance 25.73 km</desc>
<time>2011-09-24T11:33:13.66</time>
<name>6918</name>
</trkpt>
<trkpt lat="41.796675" lon="-1.820303">
<ele>1544.5</ele>
<speed>13.4</speed>
<course>12.6</course>
<desc>Speed 13.4 km/h Distance 25.74 km</desc>
<time>2011-09-24T11:33:14.66</time>
<name>6919</name>
</trkpt>
<trkpt lat="41.796708" lon="-1.820293">
<ele>1545.0</ele>
<speed>13.4</speed>
<course>12.0</course>
<desc>Speed 13.4 km/h Distance 25.74 km</desc>
<time>2011-09-24T11:33:15.66</time>
<name>6920</name>
</trkpt>
<trkpt lat="41.796743" lon="-1.820283">
<ele>1545.0</ele>
<speed>13.5</speed>
<course>10.5</course>
<desc>Speed 13.5 km/h Distance 25.75 km</desc>
<time>2011-09-24T11:33:16.65</time>
<name>6921</name>
</trkpt>
<trkpt lat="41.796777" lon="-1.820275">
<ele>1545.0</ele>
<speed>13.2</speed>
<course>12.6</course>
<desc>Speed 13.2 km/h Distance 25.75 km</desc>
<time>2011-09-24T11:33:17.65</time>
<name>6922</name>
</trkpt>
<trkpt lat="41.796810" lon="-1.820265">
<ele>1545.5</ele>
<speed>12.7</speed>
<course>10.5</course>
<desc>Speed 12.7 km/h Distance 25.75 km</desc>
<time>2011-09-24T11:33:18.66</time>
<name>6923</name>
</trkpt>
<trkpt lat="41.796843" lon="-1.820257">
<ele>1545.5</ele>
<speed>12.9</speed>
<course>3.8</course>
<desc>Speed 12.9 km/h Distance 25.76 km</desc>
<time>2011-09-24T11:33:19.65</time>
<name>6924</name>
</trkpt>
<trkpt lat="41.796878" lon="-1.820253">
<ele>1545.5</ele>
<speed>12.9</speed>
<course>4.1</course>
<desc>Speed 12.9 km/h Distance 25.76 km</desc>
<time>2011-09-24T11:33:20.65</time>
<name>6925</name>
</trkpt>
<trkpt lat="41.796912" lon="-1.820250">
<ele>1545.5</ele>
<speed>13.0</speed>
<course>1.9</course>
<desc>Speed 13.0 km/h Distance 25.76 km</desc>
<time>2011-09-24T11:33:21.65</time>
<name>6926</name>
</trkpt>
<trkpt lat="41.796945" lon="-1.820248">
<ele>1545.5</ele>
<speed>12.9</speed>
<course>353.9</course>
<desc>Speed 12.9 km/h Distance 25.77 km</desc>
<time>2011-09-24T11:33:22.65</time>
<name>6927</name>
</trkpt>
<trkpt lat="41.796980" lon="-1.820253">
<ele>1545.5</ele>
<speed>13.2</speed>
<course>348.0</course>
<desc>Speed 13.2 km/h Distance 25.77 km</desc>
<time>2011-09-24T11:33:23.64</time>
<name>6928</name>
</trkpt>
<trkpt lat="41.797015" lon="-1.820263">
<ele>1545.5</ele>
<speed>13.0</speed>
<course>345.2</course>
<desc>Speed 13.0 km/h Distance 25.78 km</desc>
<time>2011-09-24T11:33:24.64</time>
<name>6929</name>
</trkpt>
<trkpt lat="41.797048" lon="-1.820275">
<ele>1545.5</ele>
<speed>13.0</speed>
<course>340.5</course>
<desc>Speed 13.0 km/h Distance 25.78 km</desc>
<time>2011-09-24T11:33:25.64</time>
<name>6930</name>
</trkpt>
<trkpt lat="41.797080" lon="-1.820290">
<ele>1545.5</ele>
<speed>12.9</speed>
<course>337.5</course>
<desc>Speed 12.9 km/h Distance 25.78 km</desc>
<time>2011-09-24T11:33:26.64</time>
<name>6931</name>
</trkpt>
<trkpt lat="41.797110" lon="-1.820307">
<ele>1545.5</ele>
<speed>12.6</speed>
<course>335.5</course>
<desc>Speed 12.6 km/h Distance 25.79 km</desc>
<time>2011-09-24T11:33:27.64</time>
<name>6932</name>
</trkpt>
<trkpt lat="41.797140" lon="-1.820325">
<ele>1545.5</ele>
<speed>12.3</speed>
<course>331.7</course>
<desc>Speed 12.3 km/h Distance 25.79 km</desc>
<time>2011-09-24T11:33:28.64</time>
<name>6933</name>
</trkpt>
<trkpt lat="41.797170" lon="-1.820347">
<ele>1545.5</ele>
<speed>12.5</speed>
<course>327.1</course>
<desc>Speed 12.5 km/h Distance 25.79 km</desc>
<time>2011-09-24T11:33:29.64</time>
<name>6934</name>
</trkpt>
<trkpt lat="41.797195" lon="-1.820368">
<ele>1545.5</ele>
<speed>11.7</speed>
<course>326.9</course>
<desc>Speed 11.7 km/h Distance 25.80 km</desc>
<time>2011-09-24T11:33:30.63</time>
<name>6935</name>
</trkpt>
<trkpt lat="41.797222" lon="-1.820392">
<ele>1545.5</ele>
<speed>12.0</speed>
<course>321.2</course>
<desc>Speed 12.0 km/h Distance 25.80 km</desc>
<time>2011-09-24T11:33:31.63</time>
<name>6936</name>
</trkpt>
<trkpt lat="41.797243" lon="-1.820415">
<ele>1545.5</ele>
<speed>10.8</speed>
<course>319.3</course>
<desc>Speed 10.8 km/h Distance 25.80 km</desc>
<time>2011-09-24T11:33:32.63</time>
<name>6937</name>
</trkpt>
<trkpt lat="41.797265" lon="-1.820440">
<ele>1545.5</ele>
<speed>10.9</speed>
<course>317.1</course>
<desc>Speed 10.9 km/h Distance 25.81 km</desc>
<time>2011-09-24T11:33:33.63</time>
<name>6938</name>
</trkpt>
<trkpt lat="41.797285" lon="-1.820465">
<ele>1545.5</ele>
<speed>10.8</speed>
<course>315.1</course>
<desc>Speed 10.8 km/h Distance 25.81 km</desc>
<time>2011-09-24T11:33:34.63</time>
<name>6939</name>
</trkpt>
<trkpt lat="41.797305" lon="-1.820492">
<ele>1545.5</ele>
<speed>10.6</speed>
<course>317.1</course>
<desc>Speed 10.6 km/h Distance 25.81 km</desc>
<time>2011-09-24T11:33:35.63</time>
<name>6940</name>
</trkpt>
<trkpt lat="41.797325" lon="-1.820517">
<ele>1545.5</ele>
<speed>10.7</speed>
<course>319.3</course>
<desc>Speed 10.7 km/h Distance 25.82 km</desc>
<time>2011-09-24T11:33:36.63</time>
<name>6941</name>
</trkpt>
<trkpt lat="41.797347" lon="-1.820542">
<ele>1545.5</ele>
<speed>11.0</speed>
<course>317.5</course>
<desc>Speed 11.0 km/h Distance 25.82 km</desc>
<time>2011-09-24T11:33:37.63</time>
<name>6942</name>
</trkpt>
<trkpt lat="41.797368" lon="-1.820568">
<ele>1546.0</ele>
<speed>11.3</speed>
<course>311.8</course>
<desc>Speed 11.3 km/h Distance 25.82 km</desc>
<time>2011-09-24T11:33:38.63</time>
<name>6943</name>
</trkpt>
<trkpt lat="41.797388" lon="-1.820598">
<ele>1545.5</ele>
<speed>11.8</speed>
<course>309.7</course>
<desc>Speed 11.8 km/h Distance 25.83 km</desc>
<time>2011-09-24T11:33:39.62</time>
<name>6944</name>
</trkpt>
<trkpt lat="41.797410" lon="-1.820633">
<ele>1546.0</ele>
<speed>13.2</speed>
<course>310.5</course>
<desc>Speed 13.2 km/h Distance 25.83 km</desc>
<time>2011-09-24T11:33:40.62</time>
<name>6945</name>
</trkpt>
<trkpt lat="41.797433" lon="-1.820670">
<ele>1546.0</ele>
<speed>13.7</speed>
<course>314.7</course>
<desc>Speed 13.7 km/h Distance 25.83 km</desc>
<time>2011-09-24T11:33:41.62</time>
<name>6946</name>
</trkpt>
<trkpt lat="41.797457" lon="-1.820702">
<ele>1546.0</ele>
<speed>12.9</speed>
<course>316.2</course>
<desc>Speed 12.9 km/h Distance 25.84 km</desc>
<time>2011-09-24T11:33:42.62</time>
<name>6947</name>
</trkpt>
<trkpt lat="41.797480" lon="-1.820732">
<ele>1546.5</ele>
<speed>12.6</speed>
<course>313.5</course>
<desc>Speed 12.6 km/h Distance 25.84 km</desc>
<time>2011-09-24T11:33:43.62</time>
<name>6948</name>
</trkpt>
<trkpt lat="41.797500" lon="-1.820760">
<ele>1546.0</ele>
<speed>11.6</speed>
<course>317.8</course>
<desc>Speed 11.6 km/h Distance 25.85 km</desc>
<time>2011-09-24T11:33:44.62</time>
<name>6949</name>
</trkpt>
<trkpt lat="41.797523" lon="-1.820788">
<ele>1545.5</ele>
<speed>12.1</speed>
<course>317.8</course>
<desc>Speed 12.1 km/h Distance 25.85 km</desc>
<time>2011-09-24T11:33:45.62</time>
<name>6950</name>
</trkpt>
<trkpt lat="41.797547" lon="-1.820817">
<ele>1546.0</ele>
<speed>12.6</speed>
<course>313.2</course>
<desc>Speed 12.6 km/h Distance 25.85 km</desc>
<time>2011-09-24T11:33:46.62</time>
<name>6951</name>
</trkpt>
<trkpt lat="41.797570" lon="-1.820850">
<ele>1546.0</ele>
<speed>12.6</speed>
<course>320.2</course>
<desc>Speed 12.6 km/h Distance 25.86 km</desc>
<time>2011-09-24T11:33:48.54</time>
<name>6952</name>
</trkpt>
<trkpt lat="41.797642" lon="-1.820930">
<ele>1546.5</ele>
<speed>12.1</speed>
<course>321.5</course>
<desc>Speed 12.1 km/h Distance 25.87 km</desc>
<time>2011-09-24T11:33:50.61</time>
<name>6953</name>
</trkpt>
<trkpt lat="41.797667" lon="-1.820957">
<ele>1547.0</ele>
<speed>12.2</speed>
<course>321.5</course>
<desc>Speed 12.2 km/h Distance 25.87 km</desc>
<time>2011-09-24T11:33:51.62</time>
<name>6954</name>
</trkpt>
<trkpt lat="41.797692" lon="-1.820983">
<ele>1547.0</ele>
<speed>12.6</speed>
<course>323.3</course>
<desc>Speed 12.6 km/h Distance 25.87 km</desc>
<time>2011-09-24T11:33:52.61</time>
<name>6955</name>
</trkpt>
<trkpt lat="41.797718" lon="-1.821010">
<ele>1547.0</ele>
<speed>12.8</speed>
<course>314.1</course>
<desc>Speed 12.8 km/h Distance 25.88 km</desc>
<time>2011-09-24T11:33:53.62</time>
<name>6956</name>
</trkpt>
<trkpt lat="41.797740" lon="-1.821040">
<ele>1547.0</ele>
<speed>12.6</speed>
<course>316.2</course>
<desc>Speed 12.6 km/h Distance 25.88 km</desc>
<time>2011-09-24T11:33:54.61</time>
<name>6957</name>
</trkpt>
<trkpt lat="41.797763" lon="-1.821070">
<ele>1547.5</ele>
<speed>12.3</speed>
<course>321.5</course>
<desc>Speed 12.3 km/h Distance 25.88 km</desc>
<time>2011-09-24T11:33:55.61</time>
<name>6958</name>
</trkpt>
<trkpt lat="41.797788" lon="-1.821097">
<ele>1547.5</ele>
<speed>12.4</speed>
<course>317.9</course>
<desc>Speed 12.4 km/h Distance 25.89 km</desc>
<time>2011-09-24T11:33:56.61</time>
<name>6959</name>
</trkpt>
<trkpt lat="41.797812" lon="-1.821125">
<ele>1547.5</ele>
<speed>12.3</speed>
<course>319.3</course>
<desc>Speed 12.3 km/h Distance 25.89 km</desc>
<time>2011-09-24T11:33:57.61</time>
<name>6960</name>
</trkpt>
<trkpt lat="41.797833" lon="-1.821150">
<ele>1547.5</ele>
<speed>11.6</speed>
<course>319.3</course>
<desc>Speed 11.6 km/h Distance 25.89 km</desc>
<time>2011-09-24T11:33:58.61</time>
<name>6961</name>
</trkpt>
<trkpt lat="41.797855" lon="-1.821175">
<ele>1548.0</ele>
<speed>11.2</speed>
<course>319.3</course>
<desc>Speed 11.2 km/h Distance 25.90 km</desc>
<time>2011-09-24T11:33:59.61</time>
<name>6962</name>
</trkpt>
<trkpt lat="41.797877" lon="-1.821200">
<ele>1548.5</ele>
<speed>11.1</speed>
<course>317.5</course>
<desc>Speed 11.1 km/h Distance 25.90 km</desc>
<time>2011-09-24T11:34:00.61</time>
<name>6963</name>
</trkpt>
<trkpt lat="41.797898" lon="-1.821227">
<ele>1548.5</ele>
<speed>11.2</speed>
<course>315.2</course>
<desc>Speed 11.2 km/h Distance 25.90 km</desc>
<time>2011-09-24T11:34:01.61</time>
<name>6964</name>
</trkpt>
<trkpt lat="41.797918" lon="-1.821253">
<ele>1549.0</ele>
<speed>11.1</speed>
<course>321.2</course>
<desc>Speed 11.1 km/h Distance 25.91 km</desc>
<time>2011-09-24T11:34:02.61</time>
<name>6965</name>
</trkpt>
<trkpt lat="41.797940" lon="-1.821277">
<ele>1549.0</ele>
<speed>11.1</speed>
<course>319.3</course>
<desc>Speed 11.1 km/h Distance 25.91 km</desc>
<time>2011-09-24T11:34:03.60</time>
<name>6966</name>
</trkpt>
<trkpt lat="41.797962" lon="-1.821302">
<ele>1549.5</ele>
<speed>10.9</speed>
<course>313.4</course>
<desc>Speed 10.9 km/h Distance 25.91 km</desc>
<time>2011-09-24T11:34:04.60</time>
<name>6967</name>
</trkpt>
<trkpt lat="41.797982" lon="-1.821330">
<ele>1549.5</ele>
<speed>11.1</speed>
<course>315.2</course>
<desc>Speed 11.1 km/h Distance 25.92 km</desc>
<time>2011-09-24T11:34:05.60</time>
<name>6968</name>
</trkpt>
<trkpt lat="41.798002" lon="-1.821357">
<ele>1549.5</ele>
<speed>11.1</speed>
<course>313.5</course>
<desc>Speed 11.1 km/h Distance 25.92 km</desc>
<time>2011-09-24T11:34:06.68</time>
<name>6969</name>
</trkpt>
<trkpt lat="41.798022" lon="-1.821385">
<ele>1550.0</ele>
<speed>11.4</speed>
<course>317.1</course>
<desc>Speed 11.4 km/h Distance 25.92 km</desc>
<time>2011-09-24T11:34:07.60</time>
<name>6970</name>
</trkpt>
<trkpt lat="41.798042" lon="-1.821410">
<ele>1550.0</ele>
<speed>10.9</speed>
<course>317.1</course>
<desc>Speed 10.9 km/h Distance 25.93 km</desc>
<time>2011-09-24T11:34:08.60</time>
<name>6971</name>
</trkpt>
<trkpt lat="41.798062" lon="-1.821435">
<ele>1550.0</ele>
<speed>10.7</speed>
<course>317.0</course>
<desc>Speed 10.7 km/h Distance 25.93 km</desc>
<time>2011-09-24T11:34:09.61</time>
<name>6972</name>
</trkpt>
<trkpt lat="41.798082" lon="-1.821460">
<ele>1550.0</ele>
<speed>10.5</speed>
<course>317.5</course>
<desc>Speed 10.5 km/h Distance 25.93 km</desc>
<time>2011-09-24T11:34:10.60</time>
<name>6973</name>
</trkpt>
<trkpt lat="41.798103" lon="-1.821487">
<ele>1550.5</ele>
<speed>11.2</speed>
<course>317.5</course>
<desc>Speed 11.2 km/h Distance 25.94 km</desc>
<time>2011-09-24T11:34:11.59</time>
<name>6974</name>
</trkpt>
<trkpt lat="41.798125" lon="-1.821513">
<ele>1550.5</ele>
<speed>11.5</speed>
<course>315.2</course>
<desc>Speed 11.5 km/h Distance 25.94 km</desc>
<time>2011-09-24T11:34:12.60</time>
<name>6975</name>
</trkpt>
<trkpt lat="41.798145" lon="-1.821540">
<ele>1551.0</ele>
<speed>11.2</speed>
<course>315.2</course>
<desc>Speed 11.2 km/h Distance 25.94 km</desc>
<time>2011-09-24T11:34:13.60</time>
<name>6976</name>
</trkpt>
<trkpt lat="41.798165" lon="-1.821567">
<ele>1551.0</ele>
<speed>10.8</speed>
<course>321.3</course>
<desc>Speed 10.8 km/h Distance 25.95 km</desc>
<time>2011-09-24T11:34:14.59</time>
<name>6977</name>
</trkpt>
<trkpt lat="41.798187" lon="-1.821590">
<ele>1551.5</ele>
<speed>10.9</speed>
<course>317.5</course>
<desc>Speed 10.9 km/h Distance 25.95 km</desc>
<time>2011-09-24T11:34:15.60</time>
<name>6978</name>
</trkpt>
<trkpt lat="41.798208" lon="-1.821617">
<ele>1551.5</ele>
<speed>11.1</speed>
<course>312.7</course>
<desc>Speed 11.1 km/h Distance 25.95 km</desc>
<time>2011-09-24T11:34:16.60</time>
<name>6979</name>
</trkpt>
<trkpt lat="41.798227" lon="-1.821643">
<ele>1552.0</ele>
<speed>10.7</speed>
<course>311.0</course>
<desc>Speed 10.7 km/h Distance 25.95 km</desc>
<time>2011-09-24T11:34:17.59</time>
<name>6980</name>
</trkpt>
<trkpt lat="41.798245" lon="-1.821672">
<ele>1552.5</ele>
<speed>10.9</speed>
<course>317.5</course>
<desc>Speed 10.9 km/h Distance 25.96 km</desc>
<time>2011-09-24T11:34:18.59</time>
<name>6981</name>
</trkpt>
<trkpt lat="41.798267" lon="-1.821698">
<ele>1552.5</ele>
<speed>11.1</speed>
<course>319.0</course>
<desc>Speed 11.1 km/h Distance 25.96 km</desc>
<time>2011-09-24T11:34:19.59</time>
<name>6982</name>
</trkpt>
<trkpt lat="41.798287" lon="-1.821722">
<ele>1552.5</ele>
<speed>10.3</speed>
<course>312.7</course>
<desc>Speed 10.3 km/h Distance 25.96 km</desc>
<time>2011-09-24T11:34:20.59</time>
<name>6983</name>
</trkpt>
<trkpt lat="41.798305" lon="-1.821748">
<ele>1552.5</ele>
<speed>10.7</speed>
<course>313.5</course>
<desc>Speed 10.7 km/h Distance 25.97 km</desc>
<time>2011-09-24T11:34:21.59</time>
<name>6984</name>
</trkpt>
<trkpt lat="41.798325" lon="-1.821777">
<ele>1552.5</ele>
<speed>11.1</speed>
<course>317.5</course>
<desc>Speed 11.1 km/h Distance 25.97 km</desc>
<time>2011-09-24T11:34:22.59</time>
<name>6985</name>
</trkpt>
<trkpt lat="41.798347" lon="-1.821803">
<ele>1553.0</ele>
<speed>11.2</speed>
<course>323.3</course>
<desc>Speed 11.2 km/h Distance 25.97 km</desc>
<time>2011-09-24T11:34:23.59</time>
<name>6986</name>
</trkpt>
<trkpt lat="41.798370" lon="-1.821827">
<ele>1553.0</ele>
<speed>11.2</speed>
<course>319.3</course>
<desc>Speed 11.2 km/h Distance 25.98 km</desc>
<time>2011-09-24T11:34:24.59</time>
<name>6987</name>
</trkpt>
<trkpt lat="41.798392" lon="-1.821852">
<ele>1553.5</ele>
<speed>11.1</speed>
<course>317.0</course>
<desc>Speed 11.1 km/h Distance 25.98 km</desc>
<time>2011-09-24T11:34:25.59</time>
<name>6988</name>
</trkpt>
<trkpt lat="41.798412" lon="-1.821877">
<ele>1553.5</ele>
<speed>11.1</speed>
<course>321.4</course>
<desc>Speed 11.1 km/h Distance 25.98 km</desc>
<time>2011-09-24T11:34:26.59</time>
<name>6989</name>
</trkpt>
<trkpt lat="41.798435" lon="-1.821902">
<ele>1553.5</ele>
<speed>11.3</speed>
<course>321.4</course>
<desc>Speed 11.3 km/h Distance 25.99 km</desc>
<time>2011-09-24T11:34:27.59</time>
<name>6990</name>
</trkpt>
<trkpt lat="41.798458" lon="-1.821927">
<ele>1554.0</ele>
<speed>11.6</speed>
<course>323.3</course>
<desc>Speed 11.6 km/h Distance 25.99 km</desc>
<time>2011-09-24T11:34:28.59</time>
<name>6991</name>
</trkpt>
<trkpt lat="41.798482" lon="-1.821950">
<ele>1554.0</ele>
<speed>11.6</speed>
<course>321.4</course>
<desc>Speed 11.6 km/h Distance 25.99 km</desc>
<time>2011-09-24T11:34:29.59</time>
<name>6992</name>
</trkpt>
<trkpt lat="41.798505" lon="-1.821975">
<ele>1554.5</ele>
<speed>11.2</speed>
<course>323.3</course>
<desc>Speed 11.2 km/h Distance 26.00 km</desc>
<time>2011-09-24T11:34:30.58</time>
<name>6993</name>
</trkpt>
<trkpt lat="41.798527" lon="-1.821997">
<ele>1554.5</ele>
<speed>10.8</speed>
<course>321.2</course>
<desc>Speed 10.8 km/h Distance 26.00 km</desc>
<time>2011-09-24T11:34:31.58</time>
<name>6994</name>
</trkpt>
<trkpt lat="41.798548" lon="-1.822020">
<ele>1554.5</ele>
<speed>10.8</speed>
<course>323.3</course>
<desc>Speed 10.8 km/h Distance 26.00 km</desc>
<time>2011-09-24T11:34:32.58</time>
<name>6995</name>
</trkpt>
<trkpt lat="41.798572" lon="-1.822043">
<ele>1554.5</ele>
<speed>10.9</speed>
<course>325.5</course>
<desc>Speed 10.9 km/h Distance 26.01 km</desc>
<time>2011-09-24T11:34:33.58</time>
<name>6996</name>
</trkpt>
<trkpt lat="41.798593" lon="-1.822063">
<ele>1555.0</ele>
<speed>10.9</speed>
<course>327.4</course>
<desc>Speed 10.9 km/h Distance 26.01 km</desc>
<time>2011-09-24T11:34:34.58</time>
<name>6997</name>
</trkpt>
<trkpt lat="41.798617" lon="-1.822083">
<ele>1555.0</ele>
<speed>10.8</speed>
<course>327.1</course>
<desc>Speed 10.8 km/h Distance 26.01 km</desc>
<time>2011-09-24T11:34:35.58</time>
<name>6998</name>
</trkpt>
<trkpt lat="41.798642" lon="-1.822105">
<ele>1555.0</ele>
<speed>11.2</speed>
<course>327.5</course>
<desc>Speed 11.2 km/h Distance 26.01 km</desc>
<time>2011-09-24T11:34:36.58</time>
<name>6999</name>
</trkpt>
<trkpt lat="41.798665" lon="-1.822125">
<ele>1555.0</ele>
<speed>11.1</speed>
<course>331.9</course>
<desc>Speed 11.1 km/h Distance 26.02 km</desc>
<time>2011-09-24T11:34:37.58</time>
<name>7000</name>
</trkpt>
<trkpt lat="41.798688" lon="-1.822142">
<ele>1555.0</ele>
<speed>10.5</speed>
<course>335.0</course>
<desc>Speed 10.5 km/h Distance 26.02 km</desc>
<time>2011-09-24T11:34:38.58</time>
<name>7001</name>
</trkpt>
<trkpt lat="41.798715" lon="-1.822158">
<ele>1555.5</ele>
<speed>11.1</speed>
<course>333.5</course>
<desc>Speed 11.1 km/h Distance 26.02 km</desc>
<time>2011-09-24T11:34:39.58</time>
<name>7002</name>
</trkpt>
<trkpt lat="41.798740" lon="-1.822175">
<ele>1555.5</ele>
<speed>10.8</speed>
<course>330.7</course>
<desc>Speed 10.8 km/h Distance 26.03 km</desc>
<time>2011-09-24T11:34:40.58</time>
<name>7003</name>
</trkpt>
<trkpt lat="41.798760" lon="-1.822190">
<ele>1555.0</ele>
<speed>9.4</speed>
<course>331.3</course>
<desc>Speed 9.4 km/h Distance 26.03 km</desc>
<time>2011-09-24T11:34:41.57</time>
<name>7004</name>
</trkpt>
<trkpt lat="41.798785" lon="-1.822208">
<ele>1555.0</ele>
<speed>10.6</speed>
<course>331.3</course>
<desc>Speed 10.6 km/h Distance 26.03 km</desc>
<time>2011-09-24T11:34:42.57</time>
<name>7005</name>
</trkpt>
<trkpt lat="41.798810" lon="-1.822227">
<ele>1555.5</ele>
<speed>11.5</speed>
<course>329.2</course>
<desc>Speed 11.5 km/h Distance 26.04 km</desc>
<time>2011-09-24T11:34:43.58</time>
<name>7006</name>
</trkpt>
<trkpt lat="41.798835" lon="-1.822247">
<ele>1556.0</ele>
<speed>10.9</speed>
<course>333.6</course>
<desc>Speed 10.9 km/h Distance 26.04 km</desc>
<time>2011-09-24T11:34:44.57</time>
<name>7007</name>
</trkpt>
<trkpt lat="41.798860" lon="-1.822263">
<ele>1556.5</ele>
<speed>11.1</speed>
<course>333.5</course>
<desc>Speed 11.1 km/h Distance 26.04 km</desc>
<time>2011-09-24T11:34:45.57</time>
<name>7008</name>
</trkpt>
<trkpt lat="41.798885" lon="-1.822280">
<ele>1556.5</ele>
<speed>10.7</speed>
<course>335.0</course>
<desc>Speed 10.7 km/h Distance 26.05 km</desc>
<time>2011-09-24T11:34:46.57</time>
<name>7009</name>
</trkpt>
<trkpt lat="41.798912" lon="-1.822297">
<ele>1556.5</ele>
<speed>11.2</speed>
<course>331.3</course>
<desc>Speed 11.2 km/h Distance 26.05 km</desc>
<time>2011-09-24T11:34:47.57</time>
<name>7010</name>
</trkpt>
<trkpt lat="41.798937" lon="-1.822315">
<ele>1557.0</ele>
<speed>11.1</speed>
<course>335.0</course>
<desc>Speed 11.1 km/h Distance 26.05 km</desc>
<time>2011-09-24T11:34:48.57</time>
<name>7011</name>
</trkpt>
<trkpt lat="41.798963" lon="-1.822332">
<ele>1557.0</ele>
<speed>10.9</speed>
<course>331.4</course>
<desc>Speed 10.9 km/h Distance 26.06 km</desc>
<time>2011-09-24T11:34:49.57</time>
<name>7012</name>
</trkpt>
<trkpt lat="41.798988" lon="-1.822350">
<ele>1557.5</ele>
<speed>11.4</speed>
<course>335.0</course>
<desc>Speed 11.4 km/h Distance 26.06 km</desc>
<time>2011-09-24T11:34:50.57</time>
<name>7013</name>
</trkpt>
<trkpt lat="41.799015" lon="-1.822367">
<ele>1557.5</ele>
<speed>11.2</speed>
<course>331.9</course>
<desc>Speed 11.2 km/h Distance 26.06 km</desc>
<time>2011-09-24T11:34:51.56</time>
<name>7014</name>
</trkpt>
<trkpt lat="41.799038" lon="-1.822383">
<ele>1557.5</ele>
<speed>10.7</speed>
<course>335.0</course>
<desc>Speed 10.7 km/h Distance 26.06 km</desc>
<time>2011-09-24T11:34:52.56</time>
<name>7015</name>
</trkpt>
<trkpt lat="41.799065" lon="-1.822400">
<ele>1558.0</ele>
<speed>11.5</speed>
<course>337.2</course>
<desc>Speed 11.5 km/h Distance 26.07 km</desc>
<time>2011-09-24T11:34:53.57</time>
<name>7016</name>
</trkpt>
<trkpt lat="41.799092" lon="-1.822415">
<ele>1558.5</ele>
<speed>11.2</speed>
<course>335.0</course>
<desc>Speed 11.2 km/h Distance 26.07 km</desc>
<time>2011-09-24T11:34:54.57</time>
<name>7017</name>
</trkpt>
<trkpt lat="41.799118" lon="-1.822432">
<ele>1558.5</ele>
<speed>11.1</speed>
<course>331.3</course>
<desc>Speed 11.1 km/h Distance 26.07 km</desc>
<time>2011-09-24T11:34:55.56</time>
<name>7018</name>
</trkpt>
<trkpt lat="41.799143" lon="-1.822450">
<ele>1559.0</ele>
<speed>11.1</speed>
<course>336.3</course>
<desc>Speed 11.1 km/h Distance 26.08 km</desc>
<time>2011-09-24T11:34:56.56</time>
<name>7019</name>
</trkpt>
<trkpt lat="41.799172" lon="-1.822467">
<ele>1559.5</ele>
<speed>12.2</speed>
<course>338.4</course>
<desc>Speed 12.2 km/h Distance 26.08 km</desc>
<time>2011-09-24T11:34:57.56</time>
<name>7020</name>
</trkpt>
<trkpt lat="41.799200" lon="-1.822482">
<ele>1559.5</ele>
<speed>11.8</speed>
<course>335.0</course>
<desc>Speed 11.8 km/h Distance 26.08 km</desc>
<time>2011-09-24T11:34:58.56</time>
<name>7021</name>
</trkpt>
<trkpt lat="41.799227" lon="-1.822498">
<ele>1559.5</ele>
<speed>11.5</speed>
<course>332.9</course>
<desc>Speed 11.5 km/h Distance 26.09 km</desc>
<time>2011-09-24T11:34:59.56</time>
<name>7022</name>
</trkpt>
<trkpt lat="41.799253" lon="-1.822517">
<ele>1560.0</ele>
<speed>11.3</speed>
<course>331.3</course>
<desc>Speed 11.3 km/h Distance 26.09 km</desc>
<time>2011-09-24T11:35:00.56</time>
<name>7023</name>
</trkpt>
<trkpt lat="41.799278" lon="-1.822535">
<ele>1560.0</ele>
<speed>11.2</speed>
<course>332.9</course>
<desc>Speed 11.2 km/h Distance 26.09 km</desc>
<time>2011-09-24T11:35:01.55</time>
<name>7024</name>
</trkpt>
<trkpt lat="41.799305" lon="-1.822553">
<ele>1560.0</ele>
<speed>11.2</speed>
<course>336.0</course>
<desc>Speed 11.2 km/h Distance 26.10 km</desc>
<time>2011-09-24T11:35:02.55</time>
<name>7025</name>
</trkpt>
<trkpt lat="41.799330" lon="-1.822568">
<ele>1560.0</ele>
<speed>10.7</speed>
<course>329.2</course>
<desc>Speed 10.7 km/h Distance 26.10 km</desc>
<time>2011-09-24T11:35:03.55</time>
<name>7026</name>
</trkpt>
<trkpt lat="41.799355" lon="-1.822588">
<ele>1560.5</ele>
<speed>11.0</speed>
<course>325.1</course>
<desc>Speed 11.0 km/h Distance 26.10 km</desc>
<time>2011-09-24T11:35:04.55</time>
<name>7027</name>
</trkpt>
<trkpt lat="41.799380" lon="-1.822612">
<ele>1561.0</ele>
<speed>11.5</speed>
<course>329.1</course>
<desc>Speed 11.5 km/h Distance 26.11 km</desc>
<time>2011-09-24T11:35:05.55</time>
<name>7028</name>
</trkpt>
<trkpt lat="41.799405" lon="-1.822632">
<ele>1561.0</ele>
<speed>11.3</speed>
<course>325.3</course>
<desc>Speed 11.3 km/h Distance 26.11 km</desc>
<time>2011-09-24T11:35:06.55</time>
<name>7029</name>
</trkpt>
<trkpt lat="41.799428" lon="-1.822653">
<ele>1561.5</ele>
<speed>11.2</speed>
<course>325.3</course>
<desc>Speed 11.2 km/h Distance 26.11 km</desc>
<time>2011-09-24T11:35:07.55</time>
<name>7030</name>
</trkpt>
<trkpt lat="41.799452" lon="-1.822675">
<ele>1561.5</ele>
<speed>11.0</speed>
<course>319.3</course>
<desc>Speed 11.0 km/h Distance 26.12 km</desc>
<time>2011-09-24T11:35:08.55</time>
<name>7031</name>
</trkpt>
<trkpt lat="41.799473" lon="-1.822700">
<ele>1561.5</ele>
<speed>11.0</speed>
<course>321.2</course>
<desc>Speed 11.0 km/h Distance 26.12 km</desc>
<time>2011-09-24T11:35:09.55</time>
<name>7032</name>
</trkpt>
<trkpt lat="41.799495" lon="-1.822723">
<ele>1562.0</ele>
<speed>10.7</speed>
<course>321.2</course>
<desc>Speed 10.7 km/h Distance 26.12 km</desc>
<time>2011-09-24T11:35:10.54</time>
<name>7033</name>
</trkpt>
<trkpt lat="41.799517" lon="-1.822747">
<ele>1562.0</ele>
<speed>10.9</speed>
<course>321.4</course>
<desc>Speed 10.9 km/h Distance 26.13 km</desc>
<time>2011-09-24T11:35:11.55</time>
<name>7034</name>
</trkpt>
<trkpt lat="41.799540" lon="-1.822772">
<ele>1562.0</ele>
<speed>11.2</speed>
<course>325.2</course>
<desc>Speed 11.2 km/h Distance 26.13 km</desc>
<time>2011-09-24T11:35:12.54</time>
<name>7035</name>
</trkpt>
<trkpt lat="41.799565" lon="-1.822795">
<ele>1562.5</ele>
<speed>11.8</speed>
<course>323.3</course>
<desc>Speed 11.8 km/h Distance 26.13 km</desc>
<time>2011-09-24T11:35:13.54</time>
<name>7036</name>
</trkpt>
<trkpt lat="41.799590" lon="-1.822820">
<ele>1563.0</ele>
<speed>11.8</speed>
<course>323.3</course>
<desc>Speed 11.8 km/h Distance 26.14 km</desc>
<time>2011-09-24T11:35:14.54</time>
<name>7037</name>
</trkpt>
<trkpt lat="41.799613" lon="-1.822843">
<ele>1563.0</ele>
<speed>11.7</speed>
<course>323.3</course>
<desc>Speed 11.7 km/h Distance 26.14 km</desc>
<time>2011-09-24T11:35:15.54</time>
<name>7038</name>
</trkpt>
<trkpt lat="41.799638" lon="-1.822868">
<ele>1563.5</ele>
<speed>11.3</speed>
<course>321.2</course>
<desc>Speed 11.3 km/h Distance 26.14 km</desc>
<time>2011-09-24T11:35:16.54</time>
<name>7039</name>
</trkpt>
<trkpt lat="41.799660" lon="-1.822892">
<ele>1564.0</ele>
<speed>11.1</speed>
<course>321.2</course>
<desc>Speed 11.1 km/h Distance 26.15 km</desc>
<time>2011-09-24T11:35:17.54</time>
<name>7040</name>
</trkpt>
<trkpt lat="41.799682" lon="-1.822915">
<ele>1564.0</ele>
<speed>11.0</speed>
<course>327.1</course>
<desc>Speed 11.0 km/h Distance 26.15 km</desc>
<time>2011-09-24T11:35:18.54</time>
<name>7041</name>
</trkpt>
<trkpt lat="41.799707" lon="-1.822937">
<ele>1564.5</ele>
<speed>11.1</speed>
<course>331.3</course>
<desc>Speed 11.1 km/h Distance 26.15 km</desc>
<time>2011-09-24T11:35:19.54</time>
<name>7042</name>
</trkpt>
<trkpt lat="41.799732" lon="-1.822955">
<ele>1564.5</ele>
<speed>11.2</speed>
<course>329.6</course>
<desc>Speed 11.2 km/h Distance 26.16 km</desc>
<time>2011-09-24T11:35:20.54</time>
<name>7043</name>
</trkpt>
<trkpt lat="41.799755" lon="-1.822973">
<ele>1564.5</ele>
<speed>10.4</speed>
<course>329.6</course>
<desc>Speed 10.4 km/h Distance 26.16 km</desc>
<time>2011-09-24T11:35:21.54</time>
<name>7044</name>
</trkpt>
<trkpt lat="41.799778" lon="-1.822992">
<ele>1564.5</ele>
<speed>10.3</speed>
<course>327.8</course>
<desc>Speed 10.3 km/h Distance 26.16 km</desc>
<time>2011-09-24T11:35:22.54</time>
<name>7045</name>
</trkpt>
<trkpt lat="41.799800" lon="-1.823010">
<ele>1564.5</ele>
<speed>10.2</speed>
<course>335.0</course>
<desc>Speed 10.2 km/h Distance 26.16 km</desc>
<time>2011-09-24T11:35:23.53</time>
<name>7046</name>
</trkpt>
<trkpt lat="41.799827" lon="-1.823027">
<ele>1565.0</ele>
<speed>11.3</speed>
<course>336.0</course>
<desc>Speed 11.3 km/h Distance 26.17 km</desc>
<time>2011-09-24T11:35:24.53</time>
<name>7047</name>
</trkpt>
<trkpt lat="41.799852" lon="-1.823042">
<ele>1565.0</ele>
<speed>11.1</speed>
<course>331.4</course>
<desc>Speed 11.1 km/h Distance 26.17 km</desc>
<time>2011-09-24T11:35:25.53</time>
<name>7048</name>
</trkpt>
<trkpt lat="41.799877" lon="-1.823060">
<ele>1564.5</ele>
<speed>10.4</speed>
<course>335.0</course>
<desc>Speed 10.4 km/h Distance 26.17 km</desc>
<time>2011-09-24T11:35:26.53</time>
<name>7049</name>
</trkpt>
<trkpt lat="41.799903" lon="-1.823077">
<ele>1565.0</ele>
<speed>11.6</speed>
<course>334.4</course>
<desc>Speed 11.6 km/h Distance 26.18 km</desc>
<time>2011-09-24T11:35:27.53</time>
<name>7050</name>
</trkpt>
<trkpt lat="41.799927" lon="-1.823092">
<ele>1565.0</ele>
<speed>10.4</speed>
<course>338.3</course>
<desc>Speed 10.4 km/h Distance 26.18 km</desc>
<time>2011-09-24T11:35:28.53</time>
<name>7051</name>
</trkpt>
<trkpt lat="41.799952" lon="-1.823105">
<ele>1565.0</ele>
<speed>11.1</speed>
<course>336.0</course>
<desc>Speed 11.1 km/h Distance 26.18 km</desc>
<time>2011-09-24T11:35:29.53</time>
<name>7052</name>
</trkpt>
<trkpt lat="41.799977" lon="-1.823120">
<ele>1565.0</ele>
<speed>11.2</speed>
<course>342.9</course>
<desc>Speed 11.2 km/h Distance 26.19 km</desc>
<time>2011-09-24T11:35:30.53</time>
<name>7053</name>
</trkpt>
<trkpt lat="41.800005" lon="-1.823132">
<ele>1565.0</ele>
<speed>11.6</speed>
<course>337.5</course>
<desc>Speed 11.6 km/h Distance 26.19 km</desc>
<time>2011-09-24T11:35:31.54</time>
<name>7054</name>
</trkpt>
<trkpt lat="41.800035" lon="-1.823148">
<ele>1565.5</ele>
<speed>12.3</speed>
<course>341.7</course>
<desc>Speed 12.3 km/h Distance 26.19 km</desc>
<time>2011-09-24T11:35:32.53</time>
<name>7055</name>
</trkpt>
<trkpt lat="41.800065" lon="-1.823162">
<ele>1565.5</ele>
<speed>12.2</speed>
<course>338.5</course>
<desc>Speed 12.2 km/h Distance 26.20 km</desc>
<time>2011-09-24T11:35:33.53</time>
<name>7056</name>
</trkpt>
<trkpt lat="41.800093" lon="-1.823177">
<ele>1566.0</ele>
<speed>11.7</speed>
<course>340.7</course>
<desc>Speed 11.7 km/h Distance 26.20 km</desc>
<time>2011-09-24T11:35:34.53</time>
<name>7057</name>
</trkpt>
<trkpt lat="41.800122" lon="-1.823190">
<ele>1566.0</ele>
<speed>11.8</speed>
<course>342.9</course>
<desc>Speed 11.8 km/h Distance 26.20 km</desc>
<time>2011-09-24T11:35:35.53</time>
<name>7058</name>
</trkpt>
<trkpt lat="41.800150" lon="-1.823202">
<ele>1566.5</ele>
<speed>11.6</speed>
<course>338.4</course>
<desc>Speed 11.6 km/h Distance 26.21 km</desc>
<time>2011-09-24T11:35:36.53</time>
<name>7059</name>
</trkpt>
<trkpt lat="41.800178" lon="-1.823217">
<ele>1566.5</ele>
<speed>11.4</speed>
<course>339.5</course>
<desc>Speed 11.4 km/h Distance 26.21 km</desc>
<time>2011-09-24T11:35:37.53</time>
<name>7060</name>
</trkpt>
<trkpt lat="41.800205" lon="-1.823230">
<ele>1567.0</ele>
<speed>11.6</speed>
<course>337.2</course>
<desc>Speed 11.6 km/h Distance 26.21 km</desc>
<time>2011-09-24T11:35:38.52</time>
<name>7061</name>
</trkpt>
<trkpt lat="41.800232" lon="-1.823245">
<ele>1567.0</ele>
<speed>11.4</speed>
<course>332.9</course>
<desc>Speed 11.4 km/h Distance 26.22 km</desc>
<time>2011-09-24T11:35:39.53</time>
<name>7062</name>
</trkpt>
<trkpt lat="41.800258" lon="-1.823263">
<ele>1567.0</ele>
<speed>11.4</speed>
<course>336.3</course>
<desc>Speed 11.4 km/h Distance 26.22 km</desc>
<time>2011-09-24T11:35:40.52</time>
<name>7063</name>
</trkpt>
<trkpt lat="41.800287" lon="-1.823280">
<ele>1568.0</ele>
<speed>11.9</speed>
<course>343.8</course>
<desc>Speed 11.9 km/h Distance 26.22 km</desc>
<time>2011-09-24T11:35:41.52</time>
<name>7064</name>
</trkpt>
<trkpt lat="41.800317" lon="-1.823292">
<ele>1568.0</ele>
<speed>11.6</speed>
<course>346.0</course>
<desc>Speed 11.6 km/h Distance 26.23 km</desc>
<time>2011-09-24T11:35:42.52</time>
<name>7065</name>
</trkpt>
<trkpt lat="41.800347" lon="-1.823302">
<ele>1568.5</ele>
<speed>12.0</speed>
<course>338.5</course>
<desc>Speed 12.0 km/h Distance 26.23 km</desc>
<time>2011-09-24T11:35:43.52</time>
<name>7066</name>
</trkpt>
<trkpt lat="41.800375" lon="-1.823317">
<ele>1569.0</ele>
<speed>11.8</speed>
<course>339.6</course>
<desc>Speed 11.8 km/h Distance 26.23 km</desc>
<time>2011-09-24T11:35:44.52</time>
<name>7067</name>
</trkpt>
<trkpt lat="41.800405" lon="-1.823332">
<ele>1569.5</ele>
<speed>12.1</speed>
<course>328.8</course>
<desc>Speed 12.1 km/h Distance 26.24 km</desc>
<time>2011-09-24T11:35:45.52</time>
<name>7068</name>
</trkpt>
<trkpt lat="41.800432" lon="-1.823353">
<ele>1569.5</ele>
<speed>11.7</speed>
<course>338.4</course>
<desc>Speed 11.7 km/h Distance 26.24 km</desc>
<time>2011-09-24T11:35:46.51</time>
<name>7069</name>
</trkpt>
<trkpt lat="41.800460" lon="-1.823368">
<ele>1570.0</ele>
<speed>11.8</speed>
<course>335.0</course>
<desc>Speed 11.8 km/h Distance 26.24 km</desc>
<time>2011-09-24T11:35:47.51</time>
<name>7070</name>
</trkpt>
<trkpt lat="41.800487" lon="-1.823385">
<ele>1570.0</ele>
<speed>11.7</speed>
<course>340.7</course>
<desc>Speed 11.7 km/h Distance 26.25 km</desc>
<time>2011-09-24T11:35:48.51</time>
<name>7071</name>
</trkpt>
<trkpt lat="41.800515" lon="-1.823398">
<ele>1570.0</ele>
<speed>11.3</speed>
<course>337.3</course>
<desc>Speed 11.3 km/h Distance 26.25 km</desc>
<time>2011-09-24T11:35:49.51</time>
<name>7072</name>
</trkpt>
<trkpt lat="41.800542" lon="-1.823413">
<ele>1570.0</ele>
<speed>11.4</speed>
<course>339.5</course>
<desc>Speed 11.4 km/h Distance 26.25 km</desc>
<time>2011-09-24T11:35:50.51</time>
<name>7073</name>
</trkpt>
<trkpt lat="41.800568" lon="-1.823427">
<ele>1570.0</ele>
<speed>11.2</speed>
<course>333.6</course>
<desc>Speed 11.2 km/h Distance 26.26 km</desc>
<time>2011-09-24T11:35:51.51</time>
<name>7074</name>
</trkpt>
<trkpt lat="41.800593" lon="-1.823443">
<ele>1570.0</ele>
<speed>11.2</speed>
<course>331.4</course>
<desc>Speed 11.2 km/h Distance 26.26 km</desc>
<time>2011-09-24T11:35:52.50</time>
<name>7075</name>
</trkpt>
<trkpt lat="41.800618" lon="-1.823462">
<ele>1569.5</ele>
<speed>11.8</speed>
<course>329.6</course>
<desc>Speed 11.8 km/h Distance 26.26 km</desc>
<time>2011-09-24T11:35:53.51</time>
<name>7076</name>
</trkpt>
<trkpt lat="41.800642" lon="-1.823480">
<ele>1569.5</ele>
<speed>10.7</speed>
<course>336.3</course>
<desc>Speed 10.7 km/h Distance 26.27 km</desc>
<time>2011-09-24T11:35:54.52</time>
<name>7077</name>
</trkpt>
<trkpt lat="41.800670" lon="-1.823497">
<ele>1569.5</ele>
<speed>11.7</speed>
<course>332.9</course>
<desc>Speed 11.7 km/h Distance 26.27 km</desc>
<time>2011-09-24T11:35:55.51</time>
<name>7078</name>
</trkpt>
<trkpt lat="41.800697" lon="-1.823515">
<ele>1569.5</ele>
<speed>12.0</speed>
<course>330.7</course>
<desc>Speed 12.0 km/h Distance 26.27 km</desc>
<time>2011-09-24T11:35:56.51</time>
<name>7079</name>
</trkpt>
<trkpt lat="41.800723" lon="-1.823535">
<ele>1569.5</ele>
<speed>11.9</speed>
<course>328.8</course>
<desc>Speed 11.9 km/h Distance 26.28 km</desc>
<time>2011-09-24T11:35:57.51</time>
<name>7080</name>
</trkpt>
<trkpt lat="41.800750" lon="-1.823557">
<ele>1569.5</ele>
<speed>12.2</speed>
<course>334.2</course>
<desc>Speed 12.2 km/h Distance 26.28 km</desc>
<time>2011-09-24T11:35:58.52</time>
<name>7081</name>
</trkpt>
<trkpt lat="41.800778" lon="-1.823575">
<ele>1569.5</ele>
<speed>12.3</speed>
<course>330.8</course>
<desc>Speed 12.3 km/h Distance 26.28 km</desc>
<time>2011-09-24T11:35:59.50</time>
<name>7082</name>
</trkpt>
<trkpt lat="41.800805" lon="-1.823595">
<ele>1569.5</ele>
<speed>12.3</speed>
<course>332.9</course>
<desc>Speed 12.3 km/h Distance 26.29 km</desc>
<time>2011-09-24T11:36:00.50</time>
<name>7083</name>
</trkpt>
<trkpt lat="41.800832" lon="-1.823613">
<ele>1569.5</ele>
<speed>12.1</speed>
<course>330.7</course>
<desc>Speed 12.1 km/h Distance 26.29 km</desc>
<time>2011-09-24T11:36:01.50</time>
<name>7084</name>
</trkpt>
<trkpt lat="41.800858" lon="-1.823633">
<ele>1569.0</ele>
<speed>11.8</speed>
<course>331.3</course>
<desc>Speed 11.8 km/h Distance 26.29 km</desc>
<time>2011-09-24T11:36:02.50</time>
<name>7085</name>
</trkpt>
<trkpt lat="41.800883" lon="-1.823652">
<ele>1569.5</ele>
<speed>11.1</speed>
<course>331.3</course>
<desc>Speed 11.1 km/h Distance 26.30 km</desc>
<time>2011-09-24T11:36:03.50</time>
<name>7086</name>
</trkpt>
<trkpt lat="41.800908" lon="-1.823670">
<ele>1569.5</ele>
<speed>11.6</speed>
<course>333.6</course>
<desc>Speed 11.6 km/h Distance 26.30 km</desc>
<time>2011-09-24T11:36:04.50</time>
<name>7087</name>
</trkpt>
<trkpt lat="41.800938" lon="-1.823690">
<ele>1570.5</ele>
<speed>12.7</speed>
<course>336.3</course>
<desc>Speed 12.7 km/h Distance 26.30 km</desc>
<time>2011-09-24T11:36:05.50</time>
<name>7088</name>
</trkpt>
<trkpt lat="41.800967" lon="-1.823707">
<ele>1570.5</ele>
<speed>12.0</speed>
<course>336.3</course>
<desc>Speed 12.0 km/h Distance 26.31 km</desc>
<time>2011-09-24T11:36:06.49</time>
<name>7089</name>
</trkpt>
<trkpt lat="41.800995" lon="-1.823723">
<ele>1570.5</ele>
<speed>11.5</speed>
<course>338.5</course>
<desc>Speed 11.5 km/h Distance 26.31 km</desc>
<time>2011-09-24T11:36:07.50</time>
<name>7090</name>
</trkpt>
<trkpt lat="41.801023" lon="-1.823738">
<ele>1571.0</ele>
<speed>11.8</speed>
<course>334.3</course>
<desc>Speed 11.8 km/h Distance 26.31 km</desc>
<time>2011-09-24T11:36:08.50</time>
<name>7091</name>
</trkpt>
<trkpt lat="41.801052" lon="-1.823757">
<ele>1571.0</ele>
<speed>12.0</speed>
<course>334.3</course>
<desc>Speed 12.0 km/h Distance 26.32 km</desc>
<time>2011-09-24T11:36:09.50</time>
<name>7092</name>
</trkpt>
<trkpt lat="41.801080" lon="-1.823775">
<ele>1571.5</ele>
<speed>11.7</speed>
<course>336.3</course>
<desc>Speed 11.7 km/h Distance 26.32 km</desc>
<time>2011-09-24T11:36:10.50</time>
<name>7093</name>
</trkpt>
<trkpt lat="41.801108" lon="-1.823792">
<ele>1571.5</ele>
<speed>12.1</speed>
<course>337.5</course>
<desc>Speed 12.1 km/h Distance 26.32 km</desc>
<time>2011-09-24T11:36:11.50</time>
<name>7094</name>
</trkpt>
<trkpt lat="41.801138" lon="-1.823808">
<ele>1572.0</ele>
<speed>12.3</speed>
<course>337.4</course>
<desc>Speed 12.3 km/h Distance 26.33 km</desc>
<time>2011-09-24T11:36:12.49</time>
<name>7095</name>
</trkpt>
<trkpt lat="41.801168" lon="-1.823825">
<ele>1572.0</ele>
<speed>12.4</speed>
<course>335.5</course>
<desc>Speed 12.4 km/h Distance 26.33 km</desc>
<time>2011-09-24T11:36:13.49</time>
<name>7096</name>
</trkpt>
<trkpt lat="41.801198" lon="-1.823843">
<ele>1572.0</ele>
<speed>12.6</speed>
<course>330.3</course>
<desc>Speed 12.6 km/h Distance 26.34 km</desc>
<time>2011-09-24T11:36:14.49</time>
<name>7097</name>
</trkpt>
<trkpt lat="41.801227" lon="-1.823865">
<ele>1572.0</ele>
<speed>12.4</speed>
<course>328.4</course>
<desc>Speed 12.4 km/h Distance 26.34 km</desc>
<time>2011-09-24T11:36:15.49</time>
<name>7098</name>
</trkpt>
<trkpt lat="41.801255" lon="-1.823888">
<ele>1572.5</ele>
<speed>12.5</speed>
<course>330.3</course>
<desc>Speed 12.5 km/h Distance 26.34 km</desc>
<time>2011-09-24T11:36:16.49</time>
<name>7099</name>
</trkpt>
<trkpt lat="41.801283" lon="-1.823910">
<ele>1572.5</ele>
<speed>12.6</speed>
<course>328.8</course>
<desc>Speed 12.6 km/h Distance 26.35 km</desc>
<time>2011-09-24T11:36:17.49</time>
<name>7100</name>
</trkpt>
<trkpt lat="41.801310" lon="-1.823932">
<ele>1572.5</ele>
<speed>12.4</speed>
<course>326.9</course>
<desc>Speed 12.4 km/h Distance 26.35 km</desc>
<time>2011-09-24T11:36:18.49</time>
<name>7101</name>
</trkpt>
<trkpt lat="41.801337" lon="-1.823955">
<ele>1573.0</ele>
<speed>12.2</speed>
<course>328.8</course>
<desc>Speed 12.2 km/h Distance 26.35 km</desc>
<time>2011-09-24T11:36:19.49</time>
<name>7102</name>
</trkpt>
<trkpt lat="41.801363" lon="-1.823977">
<ele>1573.0</ele>
<speed>12.2</speed>
<course>328.8</course>
<desc>Speed 12.2 km/h Distance 26.36 km</desc>
<time>2011-09-24T11:36:20.49</time>
<name>7103</name>
</trkpt>
<trkpt lat="41.801390" lon="-1.823998">
<ele>1573.5</ele>
<speed>12.0</speed>
<course>325.1</course>
<desc>Speed 12.0 km/h Distance 26.36 km</desc>
<time>2011-09-24T11:36:21.49</time>
<name>7104</name>
</trkpt>
<trkpt lat="41.801417" lon="-1.824023">
<ele>1573.5</ele>
<speed>12.2</speed>
<course>327.1</course>
<desc>Speed 12.2 km/h Distance 26.36 km</desc>
<time>2011-09-24T11:36:22.48</time>
<name>7105</name>
</trkpt>
<trkpt lat="41.801442" lon="-1.824045">
<ele>1574.0</ele>
<speed>11.9</speed>
<course>330.8</course>
<desc>Speed 11.9 km/h Distance 26.37 km</desc>
<time>2011-09-24T11:36:23.48</time>
<name>7106</name>
</trkpt>
<trkpt lat="41.801468" lon="-1.824065">
<ele>1574.0</ele>
<speed>11.8</speed>
<course>315.7</course>
<desc>Speed 11.8 km/h Distance 26.37 km</desc>
<time>2011-09-24T11:36:24.49</time>
<name>7107</name>
</trkpt>
<trkpt lat="41.801490" lon="-1.824093">
<ele>1574.0</ele>
<speed>11.7</speed>
<course>315.2</course>
<desc>Speed 11.7 km/h Distance 26.37 km</desc>
<time>2011-09-24T11:36:25.48</time>
<name>7108</name>
</trkpt>
<trkpt lat="41.801510" lon="-1.824120">
<ele>1574.0</ele>
<speed>11.3</speed>
<course>315.7</course>
<desc>Speed 11.3 km/h Distance 26.38 km</desc>
<time>2011-09-24T11:36:26.48</time>
<name>7109</name>
</trkpt>
<trkpt lat="41.801532" lon="-1.824148">
<ele>1574.5</ele>
<speed>11.4</speed>
<course>317.5</course>
<desc>Speed 11.4 km/h Distance 26.38 km</desc>
<time>2011-09-24T11:36:27.48</time>
<name>7110</name>
</trkpt>
<trkpt lat="41.801553" lon="-1.824175">
<ele>1574.5</ele>
<speed>11.4</speed>
<course>317.1</course>
<desc>Speed 11.4 km/h Distance 26.38 km</desc>
<time>2011-09-24T11:36:28.48</time>
<name>7111</name>
</trkpt>
<trkpt lat="41.801573" lon="-1.824200">
<ele>1574.5</ele>
<speed>11.0</speed>
<course>317.5</course>
<desc>Speed 11.0 km/h Distance 26.39 km</desc>
<time>2011-09-24T11:36:29.48</time>
<name>7112</name>
</trkpt>
<trkpt lat="41.801595" lon="-1.824227">
<ele>1574.5</ele>
<speed>11.1</speed>
<course>319.3</course>
<desc>Speed 11.1 km/h Distance 26.39 km</desc>
<time>2011-09-24T11:36:30.48</time>
<name>7113</name>
</trkpt>
<trkpt lat="41.801617" lon="-1.824252">
<ele>1575.0</ele>
<speed>11.0</speed>
<course>315.7</course>
<desc>Speed 11.0 km/h Distance 26.39 km</desc>
<time>2011-09-24T11:36:31.48</time>
<name>7114</name>
</trkpt>
<trkpt lat="41.801638" lon="-1.824280">
<ele>1575.0</ele>
<speed>11.5</speed>
<course>315.2</course>
<desc>Speed 11.5 km/h Distance 26.40 km</desc>
<time>2011-09-24T11:36:32.48</time>
<name>7115</name>
</trkpt>
<trkpt lat="41.801658" lon="-1.824307">
<ele>1575.5</ele>
<speed>11.3</speed>
<course>321.4</course>
<desc>Speed 11.3 km/h Distance 26.40 km</desc>
<time>2011-09-24T11:36:33.48</time>
<name>7116</name>
</trkpt>
<trkpt lat="41.801682" lon="-1.824332">
<ele>1575.5</ele>
<speed>11.4</speed>
<course>323.3</course>
<desc>Speed 11.4 km/h Distance 26.40 km</desc>
<time>2011-09-24T11:36:34.47</time>
<name>7117</name>
</trkpt>
<trkpt lat="41.801705" lon="-1.824355">
<ele>1576.0</ele>
<speed>11.4</speed>
<course>319.6</course>
<desc>Speed 11.4 km/h Distance 26.41 km</desc>
<time>2011-09-24T11:36:35.47</time>
<name>7118</name>
</trkpt>
<trkpt lat="41.801728" lon="-1.824382">
<ele>1576.0</ele>
<speed>12.0</speed>
<course>325.1</course>
<desc>Speed 12.0 km/h Distance 26.41 km</desc>
<time>2011-09-24T11:36:36.47</time>
<name>7119</name>
</trkpt>
<trkpt lat="41.801755" lon="-1.824407">
<ele>1576.0</ele>
<speed>12.3</speed>
<course>315.8</course>
<desc>Speed 12.3 km/h Distance 26.41 km</desc>
<time>2011-09-24T11:36:37.47</time>
<name>7120</name>
</trkpt>
<trkpt lat="41.801777" lon="-1.824435">
<ele>1576.0</ele>
<speed>12.2</speed>
<course>317.8</course>
<desc>Speed 12.2 km/h Distance 26.42 km</desc>
<time>2011-09-24T11:36:38.47</time>
<name>7121</name>
</trkpt>
<trkpt lat="41.801800" lon="-1.824463">
<ele>1576.0</ele>
<speed>11.9</speed>
<course>312.7</course>
<desc>Speed 11.9 km/h Distance 26.42 km</desc>
<time>2011-09-24T11:36:39.50</time>
<name>7122</name>
</trkpt>
<trkpt lat="41.801818" lon="-1.824490">
<ele>1576.0</ele>
<speed>10.9</speed>
<course>310.9</course>
<desc>Speed 10.9 km/h Distance 26.42 km</desc>
<time>2011-09-24T11:36:40.47</time>
<name>7123</name>
</trkpt>
<trkpt lat="41.801837" lon="-1.824518">
<ele>1575.5</ele>
<speed>11.0</speed>
<course>316.4</course>
<desc>Speed 11.0 km/h Distance 26.43 km</desc>
<time>2011-09-24T11:36:41.47</time>
<name>7124</name>
</trkpt>
<trkpt lat="41.801878" lon="-1.824572">
<ele>1575.5</ele>
<speed>11.6</speed>
<course>316.4</course>
<desc>Speed 11.6 km/h Distance 26.43 km</desc>
<time>2011-09-24T11:36:43.47</time>
<name>7125</name>
</trkpt>
<trkpt lat="41.801920" lon="-1.824625">
<ele>1576.0</ele>
<speed>11.2</speed>
<course>319.3</course>
<desc>Speed 11.2 km/h Distance 26.44 km</desc>
<time>2011-09-24T11:36:45.46</time>
<name>7126</name>
</trkpt>
<trkpt lat="41.801942" lon="-1.824650">
<ele>1576.5</ele>
<speed>11.2</speed>
<course>313.5</course>
<desc>Speed 11.2 km/h Distance 26.44 km</desc>
<time>2011-09-24T11:36:46.46</time>
<name>7127</name>
</trkpt>
<trkpt lat="41.801962" lon="-1.824678">
<ele>1576.5</ele>
<speed>11.2</speed>
<course>313.4</course>
<desc>Speed 11.2 km/h Distance 26.45 km</desc>
<time>2011-09-24T11:36:47.46</time>
<name>7128</name>
</trkpt>
<trkpt lat="41.801982" lon="-1.824707">
<ele>1576.5</ele>
<speed>11.3</speed>
<course>315.2</course>
<desc>Speed 11.3 km/h Distance 26.45 km</desc>
<time>2011-09-24T11:36:48.46</time>
<name>7129</name>
</trkpt>
<trkpt lat="41.802002" lon="-1.824733">
<ele>1576.5</ele>
<speed>11.1</speed>
<course>313.5</course>
<desc>Speed 11.1 km/h Distance 26.45 km</desc>
<time>2011-09-24T11:36:49.46</time>
<name>7130</name>
</trkpt>
<trkpt lat="41.802022" lon="-1.824762">
<ele>1577.0</ele>
<speed>11.5</speed>
<course>317.5</course>
<desc>Speed 11.5 km/h Distance 26.46 km</desc>
<time>2011-09-24T11:36:50.46</time>
<name>7131</name>
</trkpt>
<trkpt lat="41.802043" lon="-1.824788">
<ele>1577.0</ele>
<speed>11.4</speed>
<course>312.6</course>
<desc>Speed 11.4 km/h Distance 26.46 km</desc>
<time>2011-09-24T11:36:52.57</time>
<name>7132</name>
</trkpt>
<trkpt lat="41.802102" lon="-1.824873">
<ele>1577.5</ele>
<speed>11.1</speed>
<course>309.3</course>
<desc>Speed 11.1 km/h Distance 26.47 km</desc>
<time>2011-09-24T11:36:54.45</time>
<name>7133</name>
</trkpt>
<trkpt lat="41.802120" lon="-1.824903">
<ele>1577.5</ele>
<speed>10.9</speed>
<course>315.2</course>
<desc>Speed 10.9 km/h Distance 26.47 km</desc>
<time>2011-09-24T11:36:55.45</time>
<name>7134</name>
</trkpt>
<trkpt lat="41.802140" lon="-1.824930">
<ele>1578.0</ele>
<speed>10.9</speed>
<course>315.2</course>
<desc>Speed 10.9 km/h Distance 26.47 km</desc>
<time>2011-09-24T11:36:56.45</time>
<name>7135</name>
</trkpt>
<trkpt lat="41.802160" lon="-1.824957">
<ele>1578.0</ele>
<speed>10.9</speed>
<course>309.3</course>
<desc>Speed 10.9 km/h Distance 26.48 km</desc>
<time>2011-09-24T11:36:57.45</time>
<name>7136</name>
</trkpt>
<trkpt lat="41.802178" lon="-1.824987">
<ele>1578.5</ele>
<speed>11.5</speed>
<course>311.8</course>
<desc>Speed 11.5 km/h Distance 26.48 km</desc>
<time>2011-09-24T11:36:58.45</time>
<name>7137</name>
</trkpt>
<trkpt lat="41.802198" lon="-1.825017">
<ele>1579.0</ele>
<speed>11.3</speed>
<course>311.0</course>
<desc>Speed 11.3 km/h Distance 26.48 km</desc>
<time>2011-09-24T11:36:59.45</time>
<name>7138</name>
</trkpt>
<trkpt lat="41.802217" lon="-1.825045">
<ele>1579.0</ele>
<speed>11.1</speed>
<course>314.1</course>
<desc>Speed 11.1 km/h Distance 26.49 km</desc>
<time>2011-09-24T11:37:00.45</time>
<name>7139</name>
</trkpt>
<trkpt lat="41.802238" lon="-1.825075">
<ele>1579.5</ele>
<speed>11.8</speed>
<course>317.5</course>
<desc>Speed 11.8 km/h Distance 26.49 km</desc>
<time>2011-09-24T11:37:01.45</time>
<name>7140</name>
</trkpt>
<trkpt lat="41.802260" lon="-1.825102">
<ele>1580.0</ele>
<speed>11.5</speed>
<course>315.7</course>
<desc>Speed 11.5 km/h Distance 26.49 km</desc>
<time>2011-09-24T11:37:02.45</time>
<name>7141</name>
</trkpt>
<trkpt lat="41.802282" lon="-1.825130">
<ele>1580.0</ele>
<speed>11.4</speed>
<course>313.5</course>
<desc>Speed 11.4 km/h Distance 26.50 km</desc>
<time>2011-09-24T11:37:03.45</time>
<name>7142</name>
</trkpt>
<trkpt lat="41.802302" lon="-1.825158">
<ele>1580.5</ele>
<speed>11.5</speed>
<course>315.2</course>
<desc>Speed 11.5 km/h Distance 26.50 km</desc>
<time>2011-09-24T11:37:04.45</time>
<name>7143</name>
</trkpt>
<trkpt lat="41.802322" lon="-1.825185">
<ele>1580.5</ele>
<speed>11.4</speed>
<course>314.3</course>
<desc>Speed 11.4 km/h Distance 26.50 km</desc>
<time>2011-09-24T11:37:05.46</time>
<name>7144</name>
</trkpt>
<trkpt lat="41.802362" lon="-1.825240">
<ele>1581.0</ele>
<speed>11.2</speed>
<course>309.4</course>
<desc>Speed 11.2 km/h Distance 26.51 km</desc>
<time>2011-09-24T11:37:07.44</time>
<name>7145</name>
</trkpt>
<trkpt lat="41.802380" lon="-1.825270">
<ele>1581.5</ele>
<speed>11.1</speed>
<course>311.0</course>
<desc>Speed 11.1 km/h Distance 26.51 km</desc>
<time>2011-09-24T11:37:08.44</time>
<name>7146</name>
</trkpt>
<trkpt lat="41.802398" lon="-1.825298">
<ele>1581.5</ele>
<speed>11.1</speed>
<course>313.5</course>
<desc>Speed 11.1 km/h Distance 26.52 km</desc>
<time>2011-09-24T11:37:09.45</time>
<name>7147</name>
</trkpt>
<trkpt lat="41.802418" lon="-1.825327">
<ele>1581.5</ele>
<speed>11.3</speed>
<course>307.0</course>
<desc>Speed 11.3 km/h Distance 26.52 km</desc>
<time>2011-09-24T11:37:10.44</time>
<name>7148</name>
</trkpt>
<trkpt lat="41.802433" lon="-1.825353">
<ele>1581.0</ele>
<speed>10.3</speed>
<course>313.5</course>
<desc>Speed 10.3 km/h Distance 26.52 km</desc>
<time>2011-09-24T11:37:11.44</time>
<name>7149</name>
</trkpt>
<trkpt lat="41.802453" lon="-1.825382">
<ele>1581.5</ele>
<speed>11.3</speed>
<course>310.9</course>
<desc>Speed 11.3 km/h Distance 26.53 km</desc>
<time>2011-09-24T11:37:12.44</time>
<name>7150</name>
</trkpt>
<trkpt lat="41.802472" lon="-1.825410">
<ele>1581.5</ele>
<speed>10.9</speed>
<course>312.7</course>
<desc>Speed 10.9 km/h Distance 26.53 km</desc>
<time>2011-09-24T11:37:13.43</time>
<name>7151</name>
</trkpt>
<trkpt lat="41.802490" lon="-1.825437">
<ele>1581.5</ele>
<speed>10.4</speed>
<course>308.3</course>
<desc>Speed 10.4 km/h Distance 26.53 km</desc>
<time>2011-09-24T11:37:14.43</time>
<name>7152</name>
</trkpt>
<trkpt lat="41.802507" lon="-1.825465">
<ele>1581.5</ele>
<speed>10.3</speed>
<course>311.9</course>
<desc>Speed 10.3 km/h Distance 26.53 km</desc>
<time>2011-09-24T11:37:15.43</time>
<name>7153</name>
</trkpt>
<trkpt lat="41.802523" lon="-1.825490">
<ele>1581.5</ele>
<speed>9.8</speed>
<course>307.1</course>
<desc>Speed 9.8 km/h Distance 26.54 km</desc>
<time>2011-09-24T11:37:16.43</time>
<name>7154</name>
</trkpt>
<trkpt lat="41.802538" lon="-1.825517">
<ele>1581.5</ele>
<speed>9.7</speed>
<course>307.1</course>
<desc>Speed 9.7 km/h Distance 26.54 km</desc>
<time>2011-09-24T11:37:17.47</time>
<name>7155</name>
</trkpt>
<trkpt lat="41.802553" lon="-1.825543">
<ele>1582.0</ele>
<speed>9.7</speed>
<course>310.0</course>
<desc>Speed 9.7 km/h Distance 26.54 km</desc>
<time>2011-09-24T11:37:18.43</time>
<name>7156</name>
</trkpt>
<trkpt lat="41.802570" lon="-1.825570">
<ele>1582.0</ele>
<speed>9.7</speed>
<course>308.8</course>
<desc>Speed 9.7 km/h Distance 26.55 km</desc>
<time>2011-09-24T11:37:19.43</time>
<name>7157</name>
</trkpt>
<trkpt lat="41.802585" lon="-1.825595">
<ele>1582.5</ele>
<speed>9.5</speed>
<course>316.5</course>
<desc>Speed 9.5 km/h Distance 26.55 km</desc>
<time>2011-09-24T11:37:20.43</time>
<name>7158</name>
</trkpt>
<trkpt lat="41.802603" lon="-1.825618">
<ele>1583.0</ele>
<speed>9.6</speed>
<course>302.3</course>
<desc>Speed 9.6 km/h Distance 26.55 km</desc>
<time>2011-09-24T11:37:21.43</time>
<name>7159</name>
</trkpt>
<trkpt lat="41.802617" lon="-1.825647">
<ele>1583.0</ele>
<speed>9.6</speed>
<course>302.3</course>
<desc>Speed 9.6 km/h Distance 26.55 km</desc>
<time>2011-09-24T11:37:22.43</time>
<name>7160</name>
</trkpt>
<trkpt lat="41.802630" lon="-1.825675">
<ele>1583.5</ele>
<speed>9.5</speed>
<course>279.0</course>
<desc>Speed 9.5 km/h Distance 26.56 km</desc>
<time>2011-09-24T11:37:23.43</time>
<name>7161</name>
</trkpt>
<trkpt lat="41.802633" lon="-1.825703">
<ele>1583.5</ele>
<speed>8.9</speed>
<course>254.2</course>
<desc>Speed 8.9 km/h Distance 26.56 km</desc>
<time>2011-09-24T11:37:24.43</time>
<name>7162</name>
</trkpt>
<trkpt lat="41.802627" lon="-1.825735">
<ele>1583.5</ele>
<speed>9.6</speed>
<course>227.1</course>
<desc>Speed 9.6 km/h Distance 26.56 km</desc>
<time>2011-09-24T11:37:25.43</time>
<name>7163</name>
</trkpt>
<trkpt lat="41.802612" lon="-1.825757">
<ele>1584.0</ele>
<speed>9.3</speed>
<course>211.8</course>
<desc>Speed 9.3 km/h Distance 26.56 km</desc>
<time>2011-09-24T11:37:26.43</time>
<name>7164</name>
</trkpt>
<trkpt lat="41.802592" lon="-1.825773">
<ele>1584.5</ele>
<speed>9.5</speed>
<course>173.6</course>
<desc>Speed 9.5 km/h Distance 26.57 km</desc>
<time>2011-09-24T11:37:27.43</time>
<name>7165</name>
</trkpt>
<trkpt lat="41.802570" lon="-1.825770">
<ele>1585.0</ele>
<speed>9.3</speed>
<course>141.1</course>
<desc>Speed 9.3 km/h Distance 26.57 km</desc>
<time>2011-09-24T11:37:28.42</time>
<name>7166</name>
</trkpt>
<trkpt lat="41.802550" lon="-1.825748">
<ele>1585.0</ele>
<speed>10.4</speed>
<course>116.0</course>
<desc>Speed 10.4 km/h Distance 26.57 km</desc>
<time>2011-09-24T11:37:29.42</time>
<name>7167</name>
</trkpt>
<trkpt lat="41.802537" lon="-1.825712">
<ele>1585.0</ele>
<speed>12.2</speed>
<course>118.8</course>
<desc>Speed 12.2 km/h Distance 26.58 km</desc>
<time>2011-09-24T11:37:30.42</time>
<name>7168</name>
</trkpt>
<trkpt lat="41.802522" lon="-1.825675">
<ele>1585.0</ele>
<speed>12.6</speed>
<course>118.2</course>
<desc>Speed 12.6 km/h Distance 26.58 km</desc>
<time>2011-09-24T11:37:31.42</time>
<name>7169</name>
</trkpt>
<trkpt lat="41.802508" lon="-1.825642">
<ele>1585.0</ele>
<speed>11.7</speed>
<course>122.4</course>
<desc>Speed 11.7 km/h Distance 26.58 km</desc>
<time>2011-09-24T11:37:32.42</time>
<name>7170</name>
</trkpt>
<trkpt lat="41.802493" lon="-1.825610">
<ele>1585.0</ele>
<speed>11.3</speed>
<course>126.1</course>
<desc>Speed 11.3 km/h Distance 26.59 km</desc>
<time>2011-09-24T11:37:33.52</time>
<name>7171</name>
</trkpt>
<trkpt lat="41.802462" lon="-1.825552">
<ele>1585.0</ele>
<speed>10.8</speed>
<course>128.3</course>
<desc>Speed 10.8 km/h Distance 26.59 km</desc>
<time>2011-09-24T11:37:35.42</time>
<name>7172</name>
</trkpt>
<trkpt lat="41.802445" lon="-1.825523">
<ele>1585.0</ele>
<speed>11.3</speed>
<course>131.0</course>
<desc>Speed 11.3 km/h Distance 26.59 km</desc>
<time>2011-09-24T11:37:36.42</time>
<name>7173</name>
</trkpt>
<trkpt lat="41.802427" lon="-1.825495">
<ele>1585.0</ele>
<speed>11.1</speed>
<course>132.7</course>
<desc>Speed 11.1 km/h Distance 26.60 km</desc>
<time>2011-09-24T11:37:37.42</time>
<name>7174</name>
</trkpt>
<trkpt lat="41.802408" lon="-1.825468">
<ele>1585.0</ele>
<speed>10.7</speed>
<course>134.5</course>
<desc>Speed 10.7 km/h Distance 26.60 km</desc>
<time>2011-09-24T11:37:38.42</time>
<name>7175</name>
</trkpt>
<trkpt lat="41.802390" lon="-1.825443">
<ele>1585.0</ele>
<speed>10.4</speed>
<course>130.8</course>
<desc>Speed 10.4 km/h Distance 26.60 km</desc>
<time>2011-09-24T11:37:39.42</time>
<name>7176</name>
</trkpt>
<trkpt lat="41.802375" lon="-1.825420">
<ele>1585.0</ele>
<speed>10.0</speed>
<course>134.5</course>
<desc>Speed 10.0 km/h Distance 26.61 km</desc>
<time>2011-09-24T11:37:40.41</time>
<name>7177</name>
</trkpt>
<trkpt lat="41.802357" lon="-1.825395">
<ele>1585.0</ele>
<speed>10.6</speed>
<course>136.5</course>
<desc>Speed 10.6 km/h Distance 26.61 km</desc>
<time>2011-09-24T11:37:41.42</time>
<name>7178</name>
</trkpt>
<trkpt lat="41.802338" lon="-1.825372">
<ele>1585.0</ele>
<speed>10.4</speed>
<course>139.0</course>
<desc>Speed 10.4 km/h Distance 26.61 km</desc>
<time>2011-09-24T11:37:42.41</time>
<name>7179</name>
</trkpt>
<trkpt lat="41.802318" lon="-1.825348">
<ele>1585.0</ele>
<speed>10.6</speed>
<course>141.0</course>
<desc>Speed 10.6 km/h Distance 26.61 km</desc>
<time>2011-09-24T11:37:43.41</time>
<name>7180</name>
</trkpt>
<trkpt lat="41.802298" lon="-1.825327">
<ele>1585.0</ele>
<speed>10.5</speed>
<course>143.3</course>
<desc>Speed 10.5 km/h Distance 26.62 km</desc>
<time>2011-09-24T11:37:44.41</time>
<name>7181</name>
</trkpt>
<trkpt lat="41.802277" lon="-1.825305">
<ele>1585.0</ele>
<speed>11.0</speed>
<course>141.3</course>
<desc>Speed 11.0 km/h Distance 26.62 km</desc>
<time>2011-09-24T11:37:45.41</time>
<name>7182</name>
</trkpt>
<trkpt lat="41.802255" lon="-1.825282">
<ele>1585.0</ele>
<speed>11.3</speed>
<course>139.3</course>
<desc>Speed 11.3 km/h Distance 26.62 km</desc>
<time>2011-09-24T11:37:46.41</time>
<name>7183</name>
</trkpt>
<trkpt lat="41.802233" lon="-1.825257">
<ele>1585.0</ele>
<speed>11.3</speed>
<course>139.0</course>
<desc>Speed 11.3 km/h Distance 26.63 km</desc>
<time>2011-09-24T11:37:47.41</time>
<name>7184</name>
</trkpt>
<trkpt lat="41.802213" lon="-1.825233">
<ele>1585.0</ele>
<speed>11.1</speed>
<course>141.2</course>
<desc>Speed 11.1 km/h Distance 26.63 km</desc>
<time>2011-09-24T11:37:48.41</time>
<name>7185</name>
</trkpt>
<trkpt lat="41.802192" lon="-1.825210">
<ele>1585.0</ele>
<speed>10.5</speed>
<course>138.7</course>
<desc>Speed 10.5 km/h Distance 26.63 km</desc>
<time>2011-09-24T11:37:49.41</time>
<name>7186</name>
</trkpt>
<trkpt lat="41.802173" lon="-1.825188">
<ele>1585.5</ele>
<speed>10.7</speed>
<course>141.1</course>
<desc>Speed 10.7 km/h Distance 26.64 km</desc>
<time>2011-09-24T11:37:50.41</time>
<name>7187</name>
</trkpt>
<trkpt lat="41.802153" lon="-1.825167">
<ele>1585.5</ele>
<speed>10.3</speed>
<course>152.0</course>
<desc>Speed 10.3 km/h Distance 26.64 km</desc>
<time>2011-09-24T11:37:51.40</time>
<name>7188</name>
</trkpt>
<trkpt lat="41.802130" lon="-1.825150">
<ele>1585.5</ele>
<speed>10.3</speed>
<course>141.1</course>
<desc>Speed 10.3 km/h Distance 26.64 km</desc>
<time>2011-09-24T11:37:52.41</time>
<name>7189</name>
</trkpt>
<trkpt lat="41.802110" lon="-1.825128">
<ele>1585.5</ele>
<speed>10.4</speed>
<course>147.7</course>
<desc>Speed 10.4 km/h Distance 26.64 km</desc>
<time>2011-09-24T11:37:53.40</time>
<name>7190</name>
</trkpt>
<trkpt lat="41.802088" lon="-1.825110">
<ele>1585.5</ele>
<speed>10.2</speed>
<course>141.0</course>
<desc>Speed 10.2 km/h Distance 26.65 km</desc>
<time>2011-09-24T11:37:54.40</time>
<name>7191</name>
</trkpt>
<trkpt lat="41.802068" lon="-1.825088">
<ele>1585.5</ele>
<speed>10.3</speed>
<course>143.3</course>
<desc>Speed 10.3 km/h Distance 26.65 km</desc>
<time>2011-09-24T11:37:55.40</time>
<name>7192</name>
</trkpt>
<trkpt lat="41.802048" lon="-1.825068">
<ele>1586.0</ele>
<speed>10.2</speed>
<course>141.1</course>
<desc>Speed 10.2 km/h Distance 26.65 km</desc>
<time>2011-09-24T11:37:56.40</time>
<name>7193</name>
</trkpt>
<trkpt lat="41.802028" lon="-1.825047">
<ele>1586.0</ele>
<speed>10.1</speed>
<course>148.1</course>
<desc>Speed 10.1 km/h Distance 26.66 km</desc>
<time>2011-09-24T11:37:57.40</time>
<name>7194</name>
</trkpt>
<trkpt lat="41.802008" lon="-1.825030">
<ele>1586.0</ele>
<speed>10.1</speed>
<course>145.3</course>
<desc>Speed 10.1 km/h Distance 26.66 km</desc>
<time>2011-09-24T11:37:58.40</time>
<name>7195</name>
</trkpt>
<trkpt lat="41.801985" lon="-1.825008">
<ele>1586.0</ele>
<speed>11.0</speed>
<course>145.5</course>
<desc>Speed 11.0 km/h Distance 26.66 km</desc>
<time>2011-09-24T11:37:59.40</time>
<name>7196</name>
</trkpt>
<trkpt lat="41.801963" lon="-1.824988">
<ele>1586.0</ele>
<speed>10.7</speed>
<course>143.3</course>
<desc>Speed 10.7 km/h Distance 26.66 km</desc>
<time>2011-09-24T11:38:00.40</time>
<name>7197</name>
</trkpt>
<trkpt lat="41.801943" lon="-1.824968">
<ele>1586.5</ele>
<speed>10.4</speed>
<course>143.3</course>
<desc>Speed 10.4 km/h Distance 26.67 km</desc>
<time>2011-09-24T11:38:01.40</time>
<name>7198</name>
</trkpt>
<trkpt lat="41.801922" lon="-1.824947">
<ele>1586.5</ele>
<speed>10.5</speed>
<course>145.5</course>
<desc>Speed 10.5 km/h Distance 26.67 km</desc>
<time>2011-09-24T11:38:02.40</time>
<name>7199</name>
</trkpt>
<trkpt lat="41.801900" lon="-1.824927">
<ele>1586.5</ele>
<speed>10.4</speed>
<course>143.3</course>
<desc>Speed 10.4 km/h Distance 26.67 km</desc>
<time>2011-09-24T11:38:03.39</time>
<name>7200</name>
</trkpt>
<trkpt lat="41.801880" lon="-1.824907">
<ele>1586.5</ele>
<speed>10.3</speed>
<course>143.3</course>
<desc>Speed 10.3 km/h Distance 26.68 km</desc>
<time>2011-09-24T11:38:04.39</time>
<name>7201</name>
</trkpt>
<trkpt lat="41.801858" lon="-1.824885">
<ele>1587.0</ele>
<speed>10.4</speed>
<course>147.8</course>
<desc>Speed 10.4 km/h Distance 26.68 km</desc>
<time>2011-09-24T11:38:05.40</time>
<name>7202</name>
</trkpt>
<trkpt lat="41.801837" lon="-1.824867">
<ele>1587.0</ele>
<speed>10.4</speed>
<course>141.2</course>
<desc>Speed 10.4 km/h Distance 26.68 km</desc>
<time>2011-09-24T11:38:06.39</time>
<name>7203</name>
</trkpt>
<trkpt lat="41.801815" lon="-1.824843">
<ele>1587.0</ele>
<speed>11.0</speed>
<course>143.3</course>
<desc>Speed 11.0 km/h Distance 26.69 km</desc>
<time>2011-09-24T11:38:07.40</time>
<name>7204</name>
</trkpt>
<trkpt lat="41.801793" lon="-1.824822">
<ele>1587.0</ele>
<speed>11.1</speed>
<course>147.4</course>
<desc>Speed 11.1 km/h Distance 26.69 km</desc>
<time>2011-09-24T11:38:08.39</time>
<name>7205</name>
</trkpt>
<trkpt lat="41.801770" lon="-1.824802">
<ele>1587.5</ele>
<speed>11.3</speed>
<course>149.2</course>
<desc>Speed 11.3 km/h Distance 26.69 km</desc>
<time>2011-09-24T11:38:09.40</time>
<name>7206</name>
</trkpt>
<trkpt lat="41.801745" lon="-1.824782">
<ele>1587.5</ele>
<speed>11.4</speed>
<course>147.1</course>
<desc>Speed 11.4 km/h Distance 26.69 km</desc>
<time>2011-09-24T11:38:10.39</time>
<name>7207</name>
</trkpt>
<trkpt lat="41.801720" lon="-1.824760">
<ele>1587.5</ele>
<speed>11.9</speed>
<course>149.2</course>
<desc>Speed 11.9 km/h Distance 26.70 km</desc>
<time>2011-09-24T11:38:11.39</time>
<name>7208</name>
</trkpt>
<trkpt lat="41.801695" lon="-1.824740">
<ele>1587.5</ele>
<speed>12.0</speed>
<course>152.9</course>
<desc>Speed 12.0 km/h Distance 26.70 km</desc>
<time>2011-09-24T11:38:12.39</time>
<name>7209</name>
</trkpt>
<trkpt lat="41.801668" lon="-1.824722">
<ele>1587.5</ele>
<speed>11.5</speed>
<course>153.5</course>
<desc>Speed 11.5 km/h Distance 26.70 km</desc>
<time>2011-09-24T11:38:13.38</time>
<name>7210</name>
</trkpt>
<trkpt lat="41.801643" lon="-1.824705">
<ele>1587.5</ele>
<speed>11.7</speed>
<course>156.3</course>
<desc>Speed 11.7 km/h Distance 26.71 km</desc>
<time>2011-09-24T11:38:14.39</time>
<name>7211</name>
</trkpt>
<trkpt lat="41.801615" lon="-1.824688">
<ele>1587.5</ele>
<speed>12.1</speed>
<course>155.0</course>
<desc>Speed 12.1 km/h Distance 26.71 km</desc>
<time>2011-09-24T11:38:15.38</time>
<name>7212</name>
</trkpt>
<trkpt lat="41.801588" lon="-1.824672">
<ele>1587.5</ele>
<speed>12.1</speed>
<course>157.2</course>
<desc>Speed 12.1 km/h Distance 26.71 km</desc>
<time>2011-09-24T11:38:16.38</time>
<name>7213</name>
</trkpt>
<trkpt lat="41.801562" lon="-1.824657">
<ele>1587.5</ele>
<speed>11.9</speed>
<course>156.3</course>
<desc>Speed 11.9 km/h Distance 26.72 km</desc>
<time>2011-09-24T11:38:17.38</time>
<name>7214</name>
</trkpt>
<trkpt lat="41.801533" lon="-1.824640">
<ele>1588.0</ele>
<speed>12.0</speed>
<course>157.2</course>
<desc>Speed 12.0 km/h Distance 26.72 km</desc>
<time>2011-09-24T11:38:18.38</time>
<name>7215</name>
</trkpt>
<trkpt lat="41.801507" lon="-1.824625">
<ele>1588.0</ele>
<speed>12.0</speed>
<course>158.5</course>
<desc>Speed 12.0 km/h Distance 26.72 km</desc>
<time>2011-09-24T11:38:19.38</time>
<name>7216</name>
</trkpt>
<trkpt lat="41.801478" lon="-1.824610">
<ele>1588.5</ele>
<speed>12.1</speed>
<course>158.5</course>
<desc>Speed 12.1 km/h Distance 26.73 km</desc>
<time>2011-09-24T11:38:20.38</time>
<name>7217</name>
</trkpt>
<trkpt lat="41.801450" lon="-1.824595">
<ele>1589.0</ele>
<speed>12.1</speed>
<course>160.6</course>
<desc>Speed 12.1 km/h Distance 26.73 km</desc>
<time>2011-09-24T11:38:21.38</time>
<name>7218</name>
</trkpt>
<trkpt lat="41.801422" lon="-1.824582">
<ele>1589.0</ele>
<speed>12.0</speed>
<course>159.5</course>
<desc>Speed 12.0 km/h Distance 26.73 km</desc>
<time>2011-09-24T11:38:22.37</time>
<name>7219</name>
</trkpt>
<trkpt lat="41.801395" lon="-1.824568">
<ele>1589.5</ele>
<speed>11.7</speed>
<course>157.2</course>
<desc>Speed 11.7 km/h Distance 26.74 km</desc>
<time>2011-09-24T11:38:23.38</time>
<name>7220</name>
</trkpt>
<trkpt lat="41.801368" lon="-1.824553">
<ele>1589.5</ele>
<speed>11.5</speed>
<course>158.4</course>
<desc>Speed 11.5 km/h Distance 26.74 km</desc>
<time>2011-09-24T11:38:24.37</time>
<name>7221</name>
</trkpt>
<trkpt lat="41.801340" lon="-1.824538">
<ele>1590.0</ele>
<speed>12.0</speed>
<course>158.4</course>
<desc>Speed 12.0 km/h Distance 26.74 km</desc>
<time>2011-09-24T11:38:25.37</time>
<name>7222</name>
</trkpt>
<trkpt lat="41.801312" lon="-1.824523">
<ele>1590.0</ele>
<speed>11.9</speed>
<course>160.6</course>
<desc>Speed 11.9 km/h Distance 26.75 km</desc>
<time>2011-09-24T11:38:26.38</time>
<name>7223</name>
</trkpt>
<trkpt lat="41.801283" lon="-1.824510">
<ele>1590.5</ele>
<speed>12.2</speed>
<course>159.6</course>
<desc>Speed 12.2 km/h Distance 26.75 km</desc>
<time>2011-09-24T11:38:27.37</time>
<name>7224</name>
</trkpt>
<trkpt lat="41.801253" lon="-1.824495">
<ele>1590.5</ele>
<speed>12.6</speed>
<course>158.4</course>
<desc>Speed 12.6 km/h Distance 26.75 km</desc>
<time>2011-09-24T11:38:28.37</time>
<name>7225</name>
</trkpt>
<trkpt lat="41.801225" lon="-1.824480">
<ele>1591.0</ele>
<speed>12.7</speed>
<course>158.4</course>
<desc>Speed 12.7 km/h Distance 26.76 km</desc>
<time>2011-09-24T11:38:29.37</time>
<name>7226</name>
</trkpt>
<trkpt lat="41.801197" lon="-1.824465">
<ele>1591.0</ele>
<speed>12.2</speed>
<course>158.4</course>
<desc>Speed 12.2 km/h Distance 26.76 km</desc>
<time>2011-09-24T11:38:30.37</time>
<name>7227</name>
</trkpt>
<trkpt lat="41.801168" lon="-1.824450">
<ele>1591.5</ele>
<speed>12.1</speed>
<course>157.2</course>
<desc>Speed 12.1 km/h Distance 26.76 km</desc>
<time>2011-09-24T11:38:31.37</time>
<name>7228</name>
</trkpt>
<trkpt lat="41.801142" lon="-1.824435">
<ele>1591.5</ele>
<speed>11.9</speed>
<course>156.3</course>
<desc>Speed 11.9 km/h Distance 26.77 km</desc>
<time>2011-09-24T11:38:32.37</time>
<name>7229</name>
</trkpt>
<trkpt lat="41.801113" lon="-1.824418">
<ele>1591.5</ele>
<speed>11.8</speed>
<course>152.9</course>
<desc>Speed 11.8 km/h Distance 26.77 km</desc>
<time>2011-09-24T11:38:33.37</time>
<name>7230</name>
</trkpt>
<trkpt lat="41.801087" lon="-1.824400">
<ele>1591.5</ele>
<speed>12.1</speed>
<course>157.5</course>
<desc>Speed 12.1 km/h Distance 26.77 km</desc>
<time>2011-09-24T11:38:34.36</time>
<name>7231</name>
</trkpt>
<trkpt lat="41.801057" lon="-1.824383">
<ele>1592.0</ele>
<speed>12.7</speed>
<course>152.9</course>
<desc>Speed 12.7 km/h Distance 26.78 km</desc>
<time>2011-09-24T11:38:35.37</time>
<name>7232</name>
</trkpt>
<trkpt lat="41.801030" lon="-1.824365">
<ele>1592.0</ele>
<speed>12.2</speed>
<course>154.2</course>
<desc>Speed 12.2 km/h Distance 26.78 km</desc>
<time>2011-09-24T11:38:36.36</time>
<name>7233</name>
</trkpt>
<trkpt lat="41.801002" lon="-1.824347">
<ele>1592.5</ele>
<speed>12.4</speed>
<course>150.8</course>
<desc>Speed 12.4 km/h Distance 26.78 km</desc>
<time>2011-09-24T11:38:37.36</time>
<name>7234</name>
</trkpt>
<trkpt lat="41.800975" lon="-1.824327">
<ele>1592.5</ele>
<speed>11.9</speed>
<course>158.5</course>
<desc>Speed 11.9 km/h Distance 26.79 km</desc>
<time>2011-09-24T11:38:38.36</time>
<name>7235</name>
</trkpt>
<trkpt lat="41.800947" lon="-1.824312">
<ele>1592.5</ele>
<speed>12.1</speed>
<course>154.3</course>
<desc>Speed 12.1 km/h Distance 26.79 km</desc>
<time>2011-09-24T11:38:39.36</time>
<name>7236</name>
</trkpt>
<trkpt lat="41.800918" lon="-1.824293">
<ele>1593.0</ele>
<speed>12.5</speed>
<course>166.1</course>
<desc>Speed 12.5 km/h Distance 26.80 km</desc>
<time>2011-09-24T11:38:40.36</time>
<name>7237</name>
</trkpt>
<trkpt lat="41.800888" lon="-1.824283">
<ele>1593.0</ele>
<speed>12.3</speed>
<course>170.5</course>
<desc>Speed 12.3 km/h Distance 26.80 km</desc>
<time>2011-09-24T11:38:41.36</time>
<name>7238</name>
</trkpt>
<trkpt lat="41.800858" lon="-1.824277">
<ele>1593.0</ele>
<speed>12.1</speed>
<course>162.9</course>
<desc>Speed 12.1 km/h Distance 26.80 km</desc>
<time>2011-09-24T11:38:42.35</time>
<name>7239</name>
</trkpt>
<trkpt lat="41.800830" lon="-1.824265">
<ele>1593.5</ele>
<speed>12.3</speed>
<course>164.6</course>
<desc>Speed 12.3 km/h Distance 26.81 km</desc>
<time>2011-09-24T11:38:43.36</time>
<name>7240</name>
</trkpt>
<trkpt lat="41.800798" lon="-1.824253">
<ele>1593.5</ele>
<speed>12.6</speed>
<course>166.7</course>
<desc>Speed 12.6 km/h Distance 26.81 km</desc>
<time>2011-09-24T11:38:44.36</time>
<name>7241</name>
</trkpt>
<trkpt lat="41.800767" lon="-1.824243">
<ele>1593.5</ele>
<speed>12.6</speed>
<course>162.9</course>
<desc>Speed 12.6 km/h Distance 26.81 km</desc>
<time>2011-09-24T11:38:45.36</time>
<name>7242</name>
</trkpt>
<trkpt lat="41.800738" lon="-1.824232">
<ele>1593.5</ele>
<speed>12.0</speed>
<course>161.6</course>
<desc>Speed 12.0 km/h Distance 26.82 km</desc>
<time>2011-09-24T11:38:46.35</time>
<name>7243</name>
</trkpt>
<trkpt lat="41.800708" lon="-1.824218">
<ele>1594.0</ele>
<speed>12.3</speed>
<course>165.2</course>
<desc>Speed 12.3 km/h Distance 26.82 km</desc>
<time>2011-09-24T11:38:47.35</time>
<name>7244</name>
</trkpt>
<trkpt lat="41.800680" lon="-1.824208">
<ele>1594.0</ele>
<speed>12.0</speed>
<course>162.9</course>
<desc>Speed 12.0 km/h Distance 26.82 km</desc>
<time>2011-09-24T11:38:48.35</time>
<name>7245</name>
</trkpt>
<trkpt lat="41.800652" lon="-1.824197">
<ele>1594.5</ele>
<speed>12.1</speed>
<course>161.6</course>
<desc>Speed 12.1 km/h Distance 26.83 km</desc>
<time>2011-09-24T11:38:49.35</time>
<name>7246</name>
</trkpt>
<trkpt lat="41.800622" lon="-1.824183">
<ele>1594.5</ele>
<speed>12.3</speed>
<course>160.7</course>
<desc>Speed 12.3 km/h Distance 26.83 km</desc>
<time>2011-09-24T11:38:50.35</time>
<name>7247</name>
</trkpt>
<trkpt lat="41.800593" lon="-1.824170">
<ele>1594.5</ele>
<speed>12.1</speed>
<course>162.9</course>
<desc>Speed 12.1 km/h Distance 26.83 km</desc>
<time>2011-09-24T11:38:51.35</time>
<name>7248</name>
</trkpt>
<trkpt lat="41.800565" lon="-1.824158">
<ele>1595.0</ele>
<speed>11.8</speed>
<course>159.5</course>
<desc>Speed 11.8 km/h Distance 26.84 km</desc>
<time>2011-09-24T11:38:52.35</time>
<name>7249</name>
</trkpt>
<trkpt lat="41.800538" lon="-1.824145">
<ele>1595.0</ele>
<speed>11.7</speed>
<course>160.7</course>
<desc>Speed 11.7 km/h Distance 26.84 km</desc>
<time>2011-09-24T11:38:53.35</time>
<name>7250</name>
</trkpt>
<trkpt lat="41.800510" lon="-1.824132">
<ele>1595.5</ele>
<speed>12.1</speed>
<course>165.3</course>
<desc>Speed 12.1 km/h Distance 26.84 km</desc>
<time>2011-09-24T11:38:54.35</time>
<name>7251</name>
</trkpt>
<trkpt lat="41.800482" lon="-1.824122">
<ele>1595.5</ele>
<speed>12.0</speed>
<course>166.0</course>
<desc>Speed 12.0 km/h Distance 26.85 km</desc>
<time>2011-09-24T11:38:55.35</time>
<name>7252</name>
</trkpt>
<trkpt lat="41.800452" lon="-1.824112">
<ele>1596.0</ele>
<speed>12.1</speed>
<course>162.9</course>
<desc>Speed 12.1 km/h Distance 26.85 km</desc>
<time>2011-09-24T11:38:56.34</time>
<name>7253</name>
</trkpt>
<trkpt lat="41.800423" lon="-1.824100">
<ele>1596.0</ele>
<speed>11.9</speed>
<course>167.7</course>
<desc>Speed 11.9 km/h Distance 26.85 km</desc>
<time>2011-09-24T11:38:57.34</time>
<name>7254</name>
</trkpt>
<trkpt lat="41.800395" lon="-1.824092">
<ele>1596.5</ele>
<speed>12.0</speed>
<course>168.3</course>
<desc>Speed 12.0 km/h Distance 26.86 km</desc>
<time>2011-09-24T11:38:58.34</time>
<name>7255</name>
</trkpt>
<trkpt lat="41.800365" lon="-1.824083">
<ele>1596.5</ele>
<speed>12.0</speed>
<course>166.0</course>
<desc>Speed 12.0 km/h Distance 26.86 km</desc>
<time>2011-09-24T11:38:59.34</time>
<name>7256</name>
</trkpt>
<trkpt lat="41.800335" lon="-1.824073">
<ele>1597.0</ele>
<speed>12.2</speed>
<course>166.1</course>
<desc>Speed 12.2 km/h Distance 26.86 km</desc>
<time>2011-09-24T11:39:00.34</time>
<name>7257</name>
</trkpt>
<trkpt lat="41.800305" lon="-1.824063">
<ele>1597.0</ele>
<speed>12.5</speed>
<course>163.9</course>
<desc>Speed 12.5 km/h Distance 26.87 km</desc>
<time>2011-09-24T11:39:01.34</time>
<name>7258</name>
</trkpt>
<trkpt lat="41.800275" lon="-1.824052">
<ele>1597.5</ele>
<speed>12.6</speed>
<course>166.1</course>
<desc>Speed 12.6 km/h Distance 26.87 km</desc>
<time>2011-09-24T11:39:02.34</time>
<name>7259</name>
</trkpt>
<trkpt lat="41.800245" lon="-1.824042">
<ele>1597.5</ele>
<speed>12.4</speed>
<course>166.1</course>
<desc>Speed 12.4 km/h Distance 26.87 km</desc>
<time>2011-09-24T11:39:03.34</time>
<name>7260</name>
</trkpt>
<trkpt lat="41.800215" lon="-1.824032">
<ele>1598.0</ele>
<speed>12.2</speed>
<course>170.7</course>
<desc>Speed 12.2 km/h Distance 26.88 km</desc>
<time>2011-09-24T11:39:04.34</time>
<name>7261</name>
</trkpt>
<trkpt lat="41.800185" lon="-1.824025">
<ele>1598.0</ele>
<speed>12.1</speed>
<course>169.9</course>
<desc>Speed 12.1 km/h Distance 26.88 km</desc>
<time>2011-09-24T11:39:05.33</time>
<name>7262</name>
</trkpt>
<trkpt lat="41.800157" lon="-1.824018">
<ele>1598.5</ele>
<speed>11.5</speed>
<course>165.2</course>
<desc>Speed 11.5 km/h Distance 26.88 km</desc>
<time>2011-09-24T11:39:06.33</time>
<name>7263</name>
</trkpt>
<trkpt lat="41.800128" lon="-1.824008">
<ele>1599.0</ele>
<speed>11.7</speed>
<course>166.0</course>
<desc>Speed 11.7 km/h Distance 26.89 km</desc>
<time>2011-09-24T11:39:07.33</time>
<name>7264</name>
</trkpt>
<trkpt lat="41.800098" lon="-1.823998">
<ele>1599.5</ele>
<speed>12.3</speed>
<course>170.5</course>
<desc>Speed 12.3 km/h Distance 26.89 km</desc>
<time>2011-09-24T11:39:08.33</time>
<name>7265</name>
</trkpt>
<trkpt lat="41.800068" lon="-1.823992">
<ele>1599.5</ele>
<speed>12.3</speed>
<course>173.4</course>
<desc>Speed 12.3 km/h Distance 26.89 km</desc>
<time>2011-09-24T11:39:09.33</time>
<name>7266</name>
</trkpt>
<trkpt lat="41.800037" lon="-1.823987">
<ele>1600.0</ele>
<speed>12.5</speed>
<course>168.9</course>
<desc>Speed 12.5 km/h Distance 26.90 km</desc>
<time>2011-09-24T11:39:10.33</time>
<name>7267</name>
</trkpt>
<trkpt lat="41.800005" lon="-1.823978">
<ele>1600.5</ele>
<speed>12.8</speed>
<course>171.0</course>
<desc>Speed 12.8 km/h Distance 26.90 km</desc>
<time>2011-09-24T11:39:11.33</time>
<name>7268</name>
</trkpt>
<trkpt lat="41.799973" lon="-1.823972">
<ele>1600.5</ele>
<speed>13.4</speed>
<course>173.4</course>
<desc>Speed 13.4 km/h Distance 26.90 km</desc>
<time>2011-09-24T11:39:12.32</time>
<name>7269</name>
</trkpt>
<trkpt lat="41.799942" lon="-1.823967">
<ele>1600.0</ele>
<speed>12.8</speed>
<course>170.7</course>
<desc>Speed 12.8 km/h Distance 26.91 km</desc>
<time>2011-09-24T11:39:13.32</time>
<name>7270</name>
</trkpt>
<trkpt lat="41.799912" lon="-1.823960">
<ele>1600.0</ele>
<speed>12.4</speed>
<course>163.9</course>
<desc>Speed 12.4 km/h Distance 26.91 km</desc>
<time>2011-09-24T11:39:14.32</time>
<name>7271</name>
</trkpt>
<trkpt lat="41.799882" lon="-1.823948">
<ele>1600.5</ele>
<speed>12.3</speed>
<course>170.7</course>
<desc>Speed 12.3 km/h Distance 26.91 km</desc>
<time>2011-09-24T11:39:15.32</time>
<name>7272</name>
</trkpt>
<trkpt lat="41.799852" lon="-1.823942">
<ele>1600.5</ele>
<speed>12.7</speed>
<course>170.2</course>
<desc>Speed 12.7 km/h Distance 26.92 km</desc>
<time>2011-09-24T11:39:16.32</time>
<name>7273</name>
</trkpt>
<trkpt lat="41.799823" lon="-1.823935">
<ele>1600.5</ele>
<speed>12.1</speed>
<course>171.0</course>
<desc>Speed 12.1 km/h Distance 26.92 km</desc>
<time>2011-09-24T11:39:17.32</time>
<name>7274</name>
</trkpt>
<trkpt lat="41.799792" lon="-1.823928">
<ele>1600.5</ele>
<speed>12.4</speed>
<course>168.3</course>
<desc>Speed 12.4 km/h Distance 26.92 km</desc>
<time>2011-09-24T11:39:18.32</time>
<name>7275</name>
</trkpt>
<trkpt lat="41.799762" lon="-1.823920">
<ele>1600.5</ele>
<speed>12.6</speed>
<course>169.0</course>
<desc>Speed 12.6 km/h Distance 26.93 km</desc>
<time>2011-09-24T11:39:19.31</time>
<name>7276</name>
</trkpt>
<trkpt lat="41.799730" lon="-1.823912">
<ele>1600.5</ele>
<speed>12.9</speed>
<course>161.9</course>
<desc>Speed 12.9 km/h Distance 26.93 km</desc>
<time>2011-09-24T11:39:20.31</time>
<name>7277</name>
</trkpt>
<trkpt lat="41.799703" lon="-1.823900">
<ele>1600.5</ele>
<speed>11.7</speed>
<course>172.9</course>
<desc>Speed 11.7 km/h Distance 26.93 km</desc>
<time>2011-09-24T11:39:21.31</time>
<name>7278</name>
</trkpt>
<trkpt lat="41.799673" lon="-1.823895">
<ele>1601.0</ele>
<speed>12.4</speed>
<course>173.1</course>
<desc>Speed 12.4 km/h Distance 26.94 km</desc>
<time>2011-09-24T11:39:22.31</time>
<name>7279</name>
</trkpt>
<trkpt lat="41.799643" lon="-1.823890">
<ele>1601.0</ele>
<speed>12.1</speed>
<course>168.3</course>
<desc>Speed 12.1 km/h Distance 26.94 km</desc>
<time>2011-09-24T11:39:23.32</time>
<name>7280</name>
</trkpt>
<trkpt lat="41.799613" lon="-1.823882">
<ele>1601.0</ele>
<speed>12.1</speed>
<course>170.5</course>
<desc>Speed 12.1 km/h Distance 26.94 km</desc>
<time>2011-09-24T11:39:24.31</time>
<name>7281</name>
</trkpt>
<trkpt lat="41.799583" lon="-1.823875">
<ele>1601.0</ele>
<speed>12.0</speed>
<course>168.3</course>
<desc>Speed 12.0 km/h Distance 26.95 km</desc>
<time>2011-09-24T11:39:25.31</time>
<name>7282</name>
</trkpt>
<trkpt lat="41.799553" lon="-1.823867">
<ele>1601.0</ele>
<speed>12.0</speed>
<course>172.4</course>
<desc>Speed 12.0 km/h Distance 26.95 km</desc>
<time>2011-09-24T11:39:26.31</time>
<name>7283</name>
</trkpt>
<trkpt lat="41.799525" lon="-1.823862">
<ele>1601.0</ele>
<speed>11.7</speed>
<course>168.3</course>
<desc>Speed 11.7 km/h Distance 26.95 km</desc>
<time>2011-09-24T11:39:27.31</time>
<name>7284</name>
</trkpt>
<trkpt lat="41.799495" lon="-1.823853">
<ele>1601.0</ele>
<speed>12.5</speed>
<course>165.1</course>
<desc>Speed 12.5 km/h Distance 26.96 km</desc>
<time>2011-09-24T11:39:28.30</time>
<name>7285</name>
</trkpt>
<trkpt lat="41.799472" lon="-1.823845">
<ele>1601.5</ele>
<speed>11.0</speed>
<course>169.0</course>
<desc>Speed 11.0 km/h Distance 26.96 km</desc>
<time>2011-09-24T11:39:29.30</time>
<name>7286</name>
</trkpt>
<trkpt lat="41.799440" lon="-1.823837">
<ele>1601.0</ele>
<speed>12.5</speed>
<course>167.1</course>
<desc>Speed 12.5 km/h Distance 26.96 km</desc>
<time>2011-09-24T11:39:30.30</time>
<name>7287</name>
</trkpt>
<trkpt lat="41.799418" lon="-1.823830">
<ele>1602.0</ele>
<speed>9.6</speed>
<course>168.3</course>
<desc>Speed 9.6 km/h Distance 26.97 km</desc>
<time>2011-09-24T11:39:31.30</time>
<name>7288</name>
</trkpt>
<trkpt lat="41.799388" lon="-1.823822">
<ele>1601.5</ele>
<speed>12.2</speed>
<course>172.2</course>
<desc>Speed 12.2 km/h Distance 26.97 km</desc>
<time>2011-09-24T11:39:32.30</time>
<name>7289</name>
</trkpt>
<trkpt lat="41.799362" lon="-1.823817">
<ele>1602.0</ele>
<speed>11.8</speed>
<course>173.1</course>
<desc>Speed 11.8 km/h Distance 26.97 km</desc>
<time>2011-09-24T11:39:33.31</time>
<name>7290</name>
</trkpt>
<trkpt lat="41.799332" lon="-1.823812">
<ele>1602.5</ele>
<speed>12.0</speed>
<course>172.6</course>
<desc>Speed 12.0 km/h Distance 26.98 km</desc>
<time>2011-09-24T11:39:34.30</time>
<name>7291</name>
</trkpt>
<trkpt lat="41.799303" lon="-1.823807">
<ele>1602.5</ele>
<speed>11.9</speed>
<course>173.1</course>
<desc>Speed 11.9 km/h Distance 26.98 km</desc>
<time>2011-09-24T11:39:35.30</time>
<name>7292</name>
</trkpt>
<trkpt lat="41.799273" lon="-1.823802">
<ele>1603.0</ele>
<speed>12.2</speed>
<course>168.3</course>
<desc>Speed 12.2 km/h Distance 26.98 km</desc>
<time>2011-09-24T11:39:36.29</time>
<name>7293</name>
</trkpt>
<trkpt lat="41.799243" lon="-1.823793">
<ele>1603.5</ele>
<speed>12.4</speed>
<course>175.3</course>
<desc>Speed 12.4 km/h Distance 26.99 km</desc>
<time>2011-09-24T11:39:37.30</time>
<name>7294</name>
</trkpt>
<trkpt lat="41.799213" lon="-1.823790">
<ele>1603.5</ele>
<speed>12.2</speed>
<course>168.3</course>
<desc>Speed 12.2 km/h Distance 26.99 km</desc>
<time>2011-09-24T11:39:38.29</time>
<name>7295</name>
</trkpt>
<trkpt lat="41.799183" lon="-1.823782">
<ele>1604.0</ele>
<speed>12.5</speed>
<course>173.4</course>
<desc>Speed 12.5 km/h Distance 26.99 km</desc>
<time>2011-09-24T11:39:39.30</time>
<name>7296</name>
</trkpt>
<trkpt lat="41.799152" lon="-1.823777">
<ele>1604.0</ele>
<speed>12.4</speed>
<course>170.5</course>
<desc>Speed 12.4 km/h Distance 27.00 km</desc>
<time>2011-09-24T11:39:40.29</time>
<name>7297</name>
</trkpt>
<trkpt lat="41.799122" lon="-1.823770">
<ele>1604.5</ele>
<speed>12.2</speed>
<course>171.0</course>
<desc>Speed 12.2 km/h Distance 27.00 km</desc>
<time>2011-09-24T11:39:41.29</time>
<name>7298</name>
</trkpt>
<trkpt lat="41.799090" lon="-1.823763">
<ele>1604.5</ele>
<speed>12.6</speed>
<course>170.5</course>
<desc>Speed 12.6 km/h Distance 27.00 km</desc>
<time>2011-09-24T11:39:42.29</time>
<name>7299</name>
</trkpt>
<trkpt lat="41.799060" lon="-1.823757">
<ele>1605.0</ele>
<speed>13.0</speed>
<course>172.6</course>
<desc>Speed 13.0 km/h Distance 27.01 km</desc>
<time>2011-09-24T11:39:43.29</time>
<name>7300</name>
</trkpt>
<trkpt lat="41.799032" lon="-1.823752">
<ele>1605.5</ele>
<speed>12.0</speed>
<course>173.4</course>
<desc>Speed 12.0 km/h Distance 27.01 km</desc>
<time>2011-09-24T11:39:44.29</time>
<name>7301</name>
</trkpt>
<trkpt lat="41.799000" lon="-1.823747">
<ele>1606.0</ele>
<speed>12.0</speed>
<course>175.6</course>
<desc>Speed 12.0 km/h Distance 27.01 km</desc>
<time>2011-09-24T11:39:45.30</time>
<name>7302</name>
</trkpt>
<trkpt lat="41.798968" lon="-1.823743">
<ele>1606.0</ele>
<speed>12.7</speed>
<course>170.7</course>
<desc>Speed 12.7 km/h Distance 27.02 km</desc>
<time>2011-09-24T11:39:46.29</time>
<name>7303</name>
</trkpt>
<trkpt lat="41.798938" lon="-1.823737">
<ele>1606.0</ele>
<speed>12.3</speed>
<course>169.5</course>
<desc>Speed 12.3 km/h Distance 27.02 km</desc>
<time>2011-09-24T11:39:47.29</time>
<name>7304</name>
</trkpt>
<trkpt lat="41.798905" lon="-1.823728">
<ele>1606.5</ele>
<speed>12.9</speed>
<course>173.2</course>
<desc>Speed 12.9 km/h Distance 27.02 km</desc>
<time>2011-09-24T11:39:48.29</time>
<name>7305</name>
</trkpt>
<trkpt lat="41.798875" lon="-1.823723">
<ele>1606.5</ele>
<speed>12.3</speed>
<course>171.2</course>
<desc>Speed 12.3 km/h Distance 27.03 km</desc>
<time>2011-09-24T11:39:49.28</time>
<name>7306</name>
</trkpt>
<trkpt lat="41.798843" lon="-1.823717">
<ele>1606.0</ele>
<speed>12.2</speed>
<course>168.3</course>
<desc>Speed 12.2 km/h Distance 27.03 km</desc>
<time>2011-09-24T11:39:50.28</time>
<name>7307</name>
</trkpt>
<trkpt lat="41.798813" lon="-1.823708">
<ele>1606.0</ele>
<speed>11.8</speed>
<course>168.3</course>
<desc>Speed 11.8 km/h Distance 27.03 km</desc>
<time>2011-09-24T11:39:51.28</time>
<name>7308</name>
</trkpt>
<trkpt lat="41.798783" lon="-1.823700">
<ele>1606.0</ele>
<speed>12.0</speed>
<course>166.1</course>
<desc>Speed 12.0 km/h Distance 27.04 km</desc>
<time>2011-09-24T11:39:52.28</time>
<name>7309</name>
</trkpt>
<trkpt lat="41.798753" lon="-1.823690">
<ele>1605.5</ele>
<speed>12.0</speed>
<course>131.9</course>
<desc>Speed 12.0 km/h Distance 27.04 km</desc>
<time>2011-09-24T11:39:53.28</time>
<name>7310</name>
</trkpt>
<trkpt lat="41.798737" lon="-1.823665">
<ele>1605.5</ele>
<speed>10.0</speed>
<course>152.7</course>
<desc>Speed 10.0 km/h Distance 27.04 km</desc>
<time>2011-09-24T11:39:54.29</time>
<name>7311</name>
</trkpt>
<trkpt lat="41.798715" lon="-1.823650">
<ele>1605.5</ele>
<speed>9.5</speed>
<course>175.3</course>
<desc>Speed 9.5 km/h Distance 27.05 km</desc>
<time>2011-09-24T11:39:55.28</time>
<name>7312</name>
</trkpt>
<trkpt lat="41.798685" lon="-1.823647">
<ele>1605.5</ele>
<speed>11.5</speed>
<course>175.6</course>
<desc>Speed 11.5 km/h Distance 27.05 km</desc>
<time>2011-09-24T11:39:56.28</time>
<name>7313</name>
</trkpt>
<trkpt lat="41.798653" lon="-1.823643">
<ele>1605.5</ele>
<speed>12.2</speed>
<course>169.4</course>
<desc>Speed 12.2 km/h Distance 27.05 km</desc>
<time>2011-09-24T11:39:57.27</time>
<name>7314</name>
</trkpt>
<trkpt lat="41.798627" lon="-1.823637">
<ele>1606.0</ele>
<speed>10.3</speed>
<course>168.3</course>
<desc>Speed 10.3 km/h Distance 27.06 km</desc>
<time>2011-09-24T11:39:58.27</time>
<name>7315</name>
</trkpt>
<trkpt lat="41.798597" lon="-1.823628">
<ele>1606.5</ele>
<speed>11.2</speed>
<course>168.9</course>
<desc>Speed 11.2 km/h Distance 27.06 km</desc>
<time>2011-09-24T11:39:59.27</time>
<name>7316</name>
</trkpt>
<trkpt lat="41.798565" lon="-1.823620">
<ele>1607.0</ele>
<speed>12.6</speed>
<course>167.3</course>
<desc>Speed 12.6 km/h Distance 27.06 km</desc>
<time>2011-09-24T11:40:00.27</time>
<name>7317</name>
</trkpt>
<trkpt lat="41.798532" lon="-1.823610">
<ele>1607.5</ele>
<speed>13.2</speed>
<course>190.6</course>
<desc>Speed 13.2 km/h Distance 27.07 km</desc>
<time>2011-09-24T11:40:01.27</time>
<name>7318</name>
</trkpt>
<trkpt lat="41.798505" lon="-1.823617">
<ele>1605.5</ele>
<speed>10.2</speed>
<course>175.6</course>
<desc>Speed 10.2 km/h Distance 27.07 km</desc>
<time>2011-09-24T11:40:02.27</time>
<name>7319</name>
</trkpt>
<trkpt lat="41.798473" lon="-1.823613">
<ele>1605.0</ele>
<speed>12.4</speed>
<course>166.7</course>
<desc>Speed 12.4 km/h Distance 27.07 km</desc>
<time>2011-09-24T11:40:03.26</time>
<name>7320</name>
</trkpt>
<trkpt lat="41.798442" lon="-1.823603">
<ele>1605.5</ele>
<speed>12.3</speed>
<course>162.5</course>
<desc>Speed 12.3 km/h Distance 27.08 km</desc>
<time>2011-09-24T11:40:04.26</time>
<name>7321</name>
</trkpt>
<trkpt lat="41.798410" lon="-1.823590">
<ele>1605.0</ele>
<speed>12.8</speed>
<course>164.6</course>
<desc>Speed 12.8 km/h Distance 27.08 km</desc>
<time>2011-09-24T11:40:05.26</time>
<name>7322</name>
</trkpt>
<trkpt lat="41.798378" lon="-1.823578">
<ele>1605.0</ele>
<speed>13.0</speed>
<course>167.5</course>
<desc>Speed 13.0 km/h Distance 27.09 km</desc>
<time>2011-09-24T11:40:06.26</time>
<name>7323</name>
</trkpt>
<trkpt lat="41.798345" lon="-1.823568">
<ele>1605.0</ele>
<speed>13.0</speed>
<course>169.4</course>
<desc>Speed 13.0 km/h Distance 27.09 km</desc>
<time>2011-09-24T11:40:07.26</time>
<name>7324</name>
</trkpt>
<trkpt lat="41.798312" lon="-1.823560">
<ele>1605.0</ele>
<speed>12.8</speed>
<course>169.0</course>
<desc>Speed 12.8 km/h Distance 27.09 km</desc>
<time>2011-09-24T11:40:08.26</time>
<name>7325</name>
</trkpt>
<trkpt lat="41.798280" lon="-1.823552">
<ele>1605.0</ele>
<speed>12.4</speed>
<course>170.7</course>
<desc>Speed 12.4 km/h Distance 27.10 km</desc>
<time>2011-09-24T11:40:09.26</time>
<name>7326</name>
</trkpt>
<trkpt lat="41.798250" lon="-1.823545">
<ele>1605.0</ele>
<speed>12.0</speed>
<course>166.7</course>
<desc>Speed 12.0 km/h Distance 27.10 km</desc>
<time>2011-09-24T11:40:10.26</time>
<name>7327</name>
</trkpt>
<trkpt lat="41.798218" lon="-1.823535">
<ele>1604.5</ele>
<speed>12.6</speed>
<course>165.3</course>
<desc>Speed 12.6 km/h Distance 27.10 km</desc>
<time>2011-09-24T11:40:11.26</time>
<name>7328</name>
</trkpt>
<trkpt lat="41.798190" lon="-1.823525">
<ele>1605.0</ele>
<speed>11.5</speed>
<course>169.0</course>
<desc>Speed 11.5 km/h Distance 27.11 km</desc>
<time>2011-09-24T11:40:12.26</time>
<name>7329</name>
</trkpt>
<trkpt lat="41.798158" lon="-1.823517">
<ele>1605.0</ele>
<speed>12.4</speed>
<course>168.9</course>
<desc>Speed 12.4 km/h Distance 27.11 km</desc>
<time>2011-09-24T11:40:13.25</time>
<name>7330</name>
</trkpt>
<trkpt lat="41.798127" lon="-1.823508">
<ele>1605.5</ele>
<speed>12.1</speed>
<course>168.3</course>
<desc>Speed 12.1 km/h Distance 27.11 km</desc>
<time>2011-09-24T11:40:14.25</time>
<name>7331</name>
</trkpt>
<trkpt lat="41.798097" lon="-1.823500">
<ele>1606.0</ele>
<speed>12.5</speed>
<course>173.2</course>
<desc>Speed 12.5 km/h Distance 27.12 km</desc>
<time>2011-09-24T11:40:15.25</time>
<name>7332</name>
</trkpt>
<trkpt lat="41.798065" lon="-1.823495">
<ele>1606.0</ele>
<speed>11.8</speed>
<course>182.9</course>
<desc>Speed 11.8 km/h Distance 27.12 km</desc>
<time>2011-09-24T11:40:16.25</time>
<name>7333</name>
</trkpt>
<trkpt lat="41.798038" lon="-1.823497">
<ele>1604.5</ele>
<speed>10.5</speed>
<course>166.0</course>
<desc>Speed 10.5 km/h Distance 27.12 km</desc>
<time>2011-09-24T11:40:17.25</time>
<name>7334</name>
</trkpt>
<trkpt lat="41.798008" lon="-1.823487">
<ele>1604.0</ele>
<speed>11.8</speed>
<course>163.9</course>
<desc>Speed 11.8 km/h Distance 27.13 km</desc>
<time>2011-09-24T11:40:18.25</time>
<name>7335</name>
</trkpt>
<trkpt lat="41.797978" lon="-1.823475">
<ele>1603.5</ele>
<speed>12.2</speed>
<course>175.6</course>
<desc>Speed 12.2 km/h Distance 27.13 km</desc>
<time>2011-09-24T11:40:19.25</time>
<name>7336</name>
</trkpt>
<trkpt lat="41.797948" lon="-1.823472">
<ele>1602.5</ele>
<speed>12.1</speed>
<course>177.7</course>
<desc>Speed 12.1 km/h Distance 27.13 km</desc>
<time>2011-09-24T11:40:20.25</time>
<name>7337</name>
</trkpt>
<trkpt lat="41.797917" lon="-1.823470">
<ele>1602.5</ele>
<speed>12.0</speed>
<course>167.7</course>
<desc>Speed 12.0 km/h Distance 27.14 km</desc>
<time>2011-09-24T11:40:21.25</time>
<name>7338</name>
</trkpt>
<trkpt lat="41.797888" lon="-1.823462">
<ele>1602.5</ele>
<speed>11.8</speed>
<course>170.7</course>
<desc>Speed 11.8 km/h Distance 27.14 km</desc>
<time>2011-09-24T11:40:22.25</time>
<name>7339</name>
</trkpt>
<trkpt lat="41.797858" lon="-1.823455">
<ele>1602.0</ele>
<speed>11.4</speed>
<course>168.6</course>
<desc>Speed 11.4 km/h Distance 27.14 km</desc>
<time>2011-09-24T11:40:23.25</time>
<name>7340</name>
</trkpt>
<trkpt lat="41.797833" lon="-1.823448">
<ele>1602.5</ele>
<speed>10.3</speed>
<course>171.8</course>
<desc>Speed 10.3 km/h Distance 27.15 km</desc>
<time>2011-09-24T11:40:24.25</time>
<name>7341</name>
</trkpt>
<trkpt lat="41.797807" lon="-1.823443">
<ele>1602.0</ele>
<speed>10.3</speed>
<course>174.7</course>
<desc>Speed 10.3 km/h Distance 27.15 km</desc>
<time>2011-09-24T11:40:25.25</time>
<name>7342</name>
</trkpt>
<trkpt lat="41.797780" lon="-1.823440">
<ele>1601.5</ele>
<speed>10.0</speed>
<course>176.9</course>
<desc>Speed 10.0 km/h Distance 27.15 km</desc>
<time>2011-09-24T11:40:26.25</time>
<name>7343</name>
</trkpt>
<trkpt lat="41.797755" lon="-1.823438">
<ele>1601.0</ele>
<speed>9.3</speed>
<course>186.3</course>
<desc>Speed 9.3 km/h Distance 27.16 km</desc>
<time>2011-09-24T11:40:27.25</time>
<name>7344</name>
</trkpt>
<trkpt lat="41.797732" lon="-1.823442">
<ele>1600.0</ele>
<speed>8.7</speed>
<course>182.2</course>
<desc>Speed 8.7 km/h Distance 27.16 km</desc>
<time>2011-09-24T11:40:28.25</time>
<name>7345</name>
</trkpt>
<trkpt lat="41.797708" lon="-1.823443">
<ele>1599.5</ele>
<speed>9.2</speed>
<course>174.7</course>
<desc>Speed 9.2 km/h Distance 27.16 km</desc>
<time>2011-09-24T11:40:29.25</time>
<name>7346</name>
</trkpt>
<trkpt lat="41.797682" lon="-1.823440">
<ele>1599.0</ele>
<speed>9.9</speed>
<course>177.1</course>
<desc>Speed 9.9 km/h Distance 27.16 km</desc>
<time>2011-09-24T11:40:30.25</time>
<name>7347</name>
</trkpt>
<trkpt lat="41.797655" lon="-1.823438">
<ele>1598.5</ele>
<speed>10.4</speed>
<course>175.6</course>
<desc>Speed 10.4 km/h Distance 27.17 km</desc>
<time>2011-09-24T11:40:31.24</time>
<name>7348</name>
</trkpt>
<trkpt lat="41.797623" lon="-1.823435">
<ele>1597.5</ele>
<speed>11.8</speed>
<course>178.8</course>
<desc>Speed 11.8 km/h Distance 27.17 km</desc>
<time>2011-09-24T11:40:32.24</time>
<name>7349</name>
</trkpt>
<trkpt lat="41.797597" lon="-1.823435">
<ele>1597.0</ele>
<speed>10.5</speed>
<course>180.0</course>
<desc>Speed 10.5 km/h Distance 27.17 km</desc>
<time>2011-09-24T11:40:33.24</time>
<name>7350</name>
</trkpt>
<trkpt lat="41.797568" lon="-1.823435">
<ele>1596.0</ele>
<speed>10.7</speed>
<course>190.0</course>
<desc>Speed 10.7 km/h Distance 27.18 km</desc>
<time>2011-09-24T11:40:34.23</time>
<name>7351</name>
</trkpt>
<trkpt lat="41.797547" lon="-1.823440">
<ele>1595.0</ele>
<speed>9.0</speed>
<course>191.4</course>
<desc>Speed 9.0 km/h Distance 27.18 km</desc>
<time>2011-09-24T11:40:35.23</time>
<name>7352</name>
</trkpt>
<trkpt lat="41.797522" lon="-1.823447">
<ele>1593.5</ele>
<speed>9.5</speed>
<course>158.6</course>
<desc>Speed 9.5 km/h Distance 27.18 km</desc>
<time>2011-09-24T11:40:36.23</time>
<name>7353</name>
</trkpt>
<trkpt lat="41.797490" lon="-1.823430">
<ele>1594.5</ele>
<speed>13.3</speed>
<course>163.9</course>
<desc>Speed 13.3 km/h Distance 27.19 km</desc>
<time>2011-09-24T11:40:37.24</time>
<name>7354</name>
</trkpt>
<trkpt lat="41.797460" lon="-1.823418">
<ele>1595.0</ele>
<speed>12.1</speed>
<course>170.7</course>
<desc>Speed 12.1 km/h Distance 27.19 km</desc>
<time>2011-09-24T11:40:38.24</time>
<name>7355</name>
</trkpt>
<trkpt lat="41.797430" lon="-1.823412">
<ele>1595.0</ele>
<speed>11.4</speed>
<course>162.9</course>
<desc>Speed 11.4 km/h Distance 27.19 km</desc>
<time>2011-09-24T11:40:39.23</time>
<name>7356</name>
</trkpt>
<trkpt lat="41.797402" lon="-1.823400">
<ele>1595.0</ele>
<speed>11.2</speed>
<course>166.1</course>
<desc>Speed 11.2 km/h Distance 27.20 km</desc>
<time>2011-09-24T11:40:40.23</time>
<name>7357</name>
</trkpt>
<trkpt lat="41.797372" lon="-1.823390">
<ele>1595.0</ele>
<speed>11.8</speed>
<course>164.6</course>
<desc>Speed 11.8 km/h Distance 27.20 km</desc>
<time>2011-09-24T11:40:41.23</time>
<name>7358</name>
</trkpt>
<trkpt lat="41.797340" lon="-1.823378">
<ele>1595.5</ele>
<speed>12.1</speed>
<course>163.9</course>
<desc>Speed 12.1 km/h Distance 27.20 km</desc>
<time>2011-09-24T11:40:42.23</time>
<name>7359</name>
</trkpt>
<trkpt lat="41.797310" lon="-1.823367">
<ele>1596.0</ele>
<speed>12.1</speed>
<course>160.6</course>
<desc>Speed 12.1 km/h Distance 27.21 km</desc>
<time>2011-09-24T11:40:43.23</time>
<name>7360</name>
</trkpt>
<trkpt lat="41.797278" lon="-1.823352">
<ele>1596.0</ele>
<speed>12.1</speed>
<course>157.5</course>
<desc>Speed 12.1 km/h Distance 27.21 km</desc>
<time>2011-09-24T11:40:44.23</time>
<name>7361</name>
</trkpt>
<trkpt lat="41.797248" lon="-1.823335">
<ele>1596.0</ele>
<speed>11.8</speed>
<course>164.4</course>
<desc>Speed 11.8 km/h Distance 27.21 km</desc>
<time>2011-09-24T11:40:45.23</time>
<name>7362</name>
</trkpt>
<trkpt lat="41.797222" lon="-1.823325">
<ele>1595.5</ele>
<speed>10.3</speed>
<course>160.8</course>
<desc>Speed 10.3 km/h Distance 27.22 km</desc>
<time>2011-09-24T11:40:46.22</time>
<name>7363</name>
</trkpt>
<trkpt lat="41.797197" lon="-1.823313">
<ele>1595.5</ele>
<speed>10.5</speed>
<course>156.7</course>
<desc>Speed 10.5 km/h Distance 27.22 km</desc>
<time>2011-09-24T11:40:47.22</time>
<name>7364</name>
</trkpt>
<trkpt lat="41.797165" lon="-1.823295">
<ele>1596.5</ele>
<speed>11.9</speed>
<course>160.5</course>
<desc>Speed 11.9 km/h Distance 27.22 km</desc>
<time>2011-09-24T11:40:48.23</time>
<name>7365</name>
</trkpt>
<trkpt lat="41.797133" lon="-1.823280">
<ele>1597.0</ele>
<speed>11.7</speed>
<course>161.6</course>
<desc>Speed 11.7 km/h Distance 27.23 km</desc>
<time>2011-09-24T11:40:49.22</time>
<name>7366</name>
</trkpt>
<trkpt lat="41.797103" lon="-1.823267">
<ele>1596.0</ele>
<speed>12.6</speed>
<course>159.5</course>
<desc>Speed 12.6 km/h Distance 27.23 km</desc>
<time>2011-09-24T11:40:50.22</time>
<name>7367</name>
</trkpt>
<trkpt lat="41.797073" lon="-1.823252">
<ele>1596.0</ele>
<speed>12.1</speed>
<course>161.7</course>
<desc>Speed 12.1 km/h Distance 27.23 km</desc>
<time>2011-09-24T11:40:51.22</time>
<name>7368</name>
</trkpt>
<trkpt lat="41.797043" lon="-1.823238">
<ele>1596.0</ele>
<speed>12.2</speed>
<course>165.3</course>
<desc>Speed 12.2 km/h Distance 27.24 km</desc>
<time>2011-09-24T11:40:52.22</time>
<name>7369</name>
</trkpt>
<trkpt lat="41.797015" lon="-1.823228">
<ele>1595.5</ele>
<speed>11.5</speed>
<course>163.7</course>
<desc>Speed 11.5 km/h Distance 27.24 km</desc>
<time>2011-09-24T11:40:53.22</time>
<name>7370</name>
</trkpt>
<trkpt lat="41.796985" lon="-1.823217">
<ele>1595.5</ele>
<speed>12.1</speed>
<course>171.0</course>
<desc>Speed 12.1 km/h Distance 27.25 km</desc>
<time>2011-09-24T11:40:54.22</time>
<name>7371</name>
</trkpt>
<trkpt lat="41.796953" lon="-1.823210">
<ele>1596.5</ele>
<speed>12.2</speed>
<course>183.0</course>
<desc>Speed 12.2 km/h Distance 27.25 km</desc>
<time>2011-09-24T11:40:55.21</time>
<name>7372</name>
</trkpt>
<trkpt lat="41.796930" lon="-1.823212">
<ele>1596.0</ele>
<speed>8.7</speed>
<course>166.9</course>
<desc>Speed 8.7 km/h Distance 27.25 km</desc>
<time>2011-09-24T11:40:56.21</time>
<name>7373</name>
</trkpt>
<trkpt lat="41.796903" lon="-1.823203">
<ele>1595.0</ele>
<speed>10.5</speed>
<course>161.7</course>
<desc>Speed 10.5 km/h Distance 27.25 km</desc>
<time>2011-09-24T11:40:57.30</time>
<name>7374</name>
</trkpt>
<trkpt lat="41.796873" lon="-1.823190">
<ele>1595.0</ele>
<speed>12.0</speed>
<course>168.0</course>
<desc>Speed 12.0 km/h Distance 27.26 km</desc>
<time>2011-09-24T11:40:58.21</time>
<name>7375</name>
</trkpt>
<trkpt lat="41.796838" lon="-1.823180">
<ele>1594.0</ele>
<speed>13.3</speed>
<course>159.5</course>
<desc>Speed 13.3 km/h Distance 27.26 km</desc>
<time>2011-09-24T11:40:59.21</time>
<name>7376</name>
</trkpt>
<trkpt lat="41.796802" lon="-1.823162">
<ele>1594.0</ele>
<speed>13.9</speed>
<course>165.3</course>
<desc>Speed 13.9 km/h Distance 27.27 km</desc>
<time>2011-09-24T11:41:00.21</time>
<name>7377</name>
</trkpt>
<trkpt lat="41.796768" lon="-1.823150">
<ele>1593.5</ele>
<speed>13.1</speed>
<course>168.8</course>
<desc>Speed 13.1 km/h Distance 27.27 km</desc>
<time>2011-09-24T11:41:01.21</time>
<name>7378</name>
</trkpt>
<trkpt lat="41.796737" lon="-1.823142">
<ele>1592.0</ele>
<speed>12.5</speed>
<course>161.7</course>
<desc>Speed 12.5 km/h Distance 27.27 km</desc>
<time>2011-09-24T11:41:02.21</time>
<name>7379</name>
</trkpt>
<trkpt lat="41.796707" lon="-1.823128">
<ele>1590.5</ele>
<speed>12.8</speed>
<course>167.7</course>
<desc>Speed 12.8 km/h Distance 27.28 km</desc>
<time>2011-09-24T11:41:03.21</time>
<name>7380</name>
</trkpt>
<trkpt lat="41.796678" lon="-1.823120">
<ele>1589.5</ele>
<speed>11.2</speed>
<course>188.4</course>
<desc>Speed 11.2 km/h Distance 27.28 km</desc>
<time>2011-09-24T11:41:04.21</time>
<name>7381</name>
</trkpt>
<trkpt lat="41.796653" lon="-1.823125">
<ele>1590.5</ele>
<speed>10.0</speed>
<course>174.7</course>
<desc>Speed 10.0 km/h Distance 27.28 km</desc>
<time>2011-09-24T11:41:05.20</time>
<name>7382</name>
</trkpt>
<trkpt lat="41.796627" lon="-1.823122">
<ele>1589.0</ele>
<speed>10.3</speed>
<course>167.1</course>
<desc>Speed 10.3 km/h Distance 27.29 km</desc>
<time>2011-09-24T11:41:06.21</time>
<name>7383</name>
</trkpt>
<trkpt lat="41.796605" lon="-1.823115">
<ele>1589.0</ele>
<speed>8.9</speed>
<course>176.3</course>
<desc>Speed 8.9 km/h Distance 27.29 km</desc>
<time>2011-09-24T11:41:07.47</time>
<name>7384</name>
</trkpt>
<trkpt lat="41.796547" lon="-1.823110">
<ele>1588.5</ele>
<speed>12.3</speed>
<course>177.2</course>
<desc>Speed 12.3 km/h Distance 27.30 km</desc>
<time>2011-09-24T11:41:09.22</time>
<name>7385</name>
</trkpt>
<trkpt lat="41.796518" lon="-1.823108">
<ele>1587.5</ele>
<speed>11.6</speed>
<course>177.2</course>
<desc>Speed 11.6 km/h Distance 27.30 km</desc>
<time>2011-09-24T11:41:10.21</time>
<name>7386</name>
</trkpt>
<trkpt lat="41.796490" lon="-1.823107">
<ele>1586.5</ele>
<speed>11.1</speed>
<course>187.0</course>
<desc>Speed 11.1 km/h Distance 27.30 km</desc>
<time>2011-09-24T11:41:11.20</time>
<name>7387</name>
</trkpt>
<trkpt lat="41.796472" lon="-1.823110">
<ele>1585.0</ele>
<speed>7.2</speed>
<course>200.4</course>
<desc>Speed 7.2 km/h Distance 27.30 km</desc>
<time>2011-09-24T11:41:12.21</time>
<name>7388</name>
</trkpt>
<trkpt lat="41.796448" lon="-1.823122">
<ele>1586.0</ele>
<speed>9.9</speed>
<course>191.2</course>
<desc>Speed 9.9 km/h Distance 27.31 km</desc>
<time>2011-09-24T11:41:13.21</time>
<name>7389</name>
</trkpt>
<trkpt lat="41.796423" lon="-1.823128">
<ele>1584.5</ele>
<speed>10.3</speed>
<course>187.7</course>
<desc>Speed 10.3 km/h Distance 27.31 km</desc>
<time>2011-09-24T11:41:15.17</time>
<name>7390</name>
</trkpt>
<trkpt lat="41.796350" lon="-1.823142">
<ele>1583.5</ele>
<speed>9.2</speed>
<course>185.0</course>
<desc>Speed 9.2 km/h Distance 27.32 km</desc>
<time>2011-09-24T11:41:17.20</time>
<name>7391</name>
</trkpt>
<trkpt lat="41.796325" lon="-1.823145">
<ele>1582.5</ele>
<speed>9.5</speed>
<course>191.4</course>
<desc>Speed 9.5 km/h Distance 27.32 km</desc>
<time>2011-09-24T11:41:18.20</time>
<name>7392</name>
</trkpt>
<trkpt lat="41.796300" lon="-1.823152">
<ele>1581.5</ele>
<speed>10.2</speed>
<course>178.8</course>
<desc>Speed 10.2 km/h Distance 27.32 km</desc>
<time>2011-09-24T11:41:19.20</time>
<name>7393</name>
</trkpt>
<trkpt lat="41.796273" lon="-1.823152">
<ele>1580.5</ele>
<speed>10.3</speed>
<course>176.9</course>
<desc>Speed 10.3 km/h Distance 27.33 km</desc>
<time>2011-09-24T11:41:20.20</time>
<name>7394</name>
</trkpt>
<trkpt lat="41.796248" lon="-1.823150">
<ele>1580.0</ele>
<speed>10.2</speed>
<course>177.5</course>
<desc>Speed 10.2 km/h Distance 27.33 km</desc>
<time>2011-09-24T11:41:21.20</time>
<name>7395</name>
</trkpt>
<trkpt lat="41.796218" lon="-1.823148">
<ele>1579.5</ele>
<speed>11.0</speed>
<course>177.5</course>
<desc>Speed 11.0 km/h Distance 27.33 km</desc>
<time>2011-09-24T11:41:22.19</time>
<name>7396</name>
</trkpt>
<trkpt lat="41.796193" lon="-1.823147">
<ele>1579.0</ele>
<speed>9.6</speed>
<course>152.0</course>
<desc>Speed 9.6 km/h Distance 27.33 km</desc>
<time>2011-09-24T11:41:23.20</time>
<name>7397</name>
</trkpt>
<trkpt lat="41.796170" lon="-1.823130">
<ele>1579.5</ele>
<speed>11.3</speed>
<course>162.9</course>
<desc>Speed 11.3 km/h Distance 27.34 km</desc>
<time>2011-09-24T11:41:24.19</time>
<name>7398</name>
</trkpt>
<trkpt lat="41.796142" lon="-1.823118">
<ele>1580.0</ele>
<speed>11.0</speed>
<course>170.5</course>
<desc>Speed 11.0 km/h Distance 27.34 km</desc>
<time>2011-09-24T11:41:25.19</time>
<name>7399</name>
</trkpt>
<trkpt lat="41.796112" lon="-1.823112">
<ele>1579.0</ele>
<speed>11.4</speed>
<course>181.9</course>
<desc>Speed 11.4 km/h Distance 27.34 km</desc>
<time>2011-09-24T11:41:26.19</time>
<name>7400</name>
</trkpt>
<trkpt lat="41.796078" lon="-1.823113">
<ele>1580.5</ele>
<speed>12.9</speed>
<course>186.5</course>
<desc>Speed 12.9 km/h Distance 27.35 km</desc>
<time>2011-09-24T11:41:27.19</time>
<name>7401</name>
</trkpt>
<trkpt lat="41.796045" lon="-1.823118">
<ele>1580.5</ele>
<speed>13.0</speed>
<course>180.0</course>
<desc>Speed 13.0 km/h Distance 27.35 km</desc>
<time>2011-09-24T11:41:28.19</time>
<name>7402</name>
</trkpt>
<trkpt lat="41.796012" lon="-1.823118">
<ele>1581.0</ele>
<speed>13.2</speed>
<course>173.5</course>
<desc>Speed 13.2 km/h Distance 27.36 km</desc>
<time>2011-09-24T11:41:29.19</time>
<name>7403</name>
</trkpt>
<trkpt lat="41.795978" lon="-1.823113">
<ele>1581.5</ele>
<speed>12.3</speed>
<course>171.0</course>
<desc>Speed 12.3 km/h Distance 27.36 km</desc>
<time>2011-09-24T11:41:30.19</time>
<name>7404</name>
</trkpt>
<trkpt lat="41.795947" lon="-1.823107">
<ele>1581.5</ele>
<speed>12.1</speed>
<course>156.5</course>
<desc>Speed 12.1 km/h Distance 27.36 km</desc>
<time>2011-09-24T11:41:31.19</time>
<name>7405</name>
</trkpt>
<trkpt lat="41.795907" lon="-1.823083">
<ele>1585.0</ele>
<speed>11.8</speed>
<course>159.6</course>
<desc>Speed 11.8 km/h Distance 27.37 km</desc>
<time>2011-09-24T11:41:32.20</time>
<name>7406</name>
</trkpt>
<trkpt lat="41.795870" lon="-1.823065">
<ele>1589.0</ele>
<speed>11.9</speed>
<course>162.0</course>
<desc>Speed 11.9 km/h Distance 27.37 km</desc>
<time>2011-09-24T11:41:33.19</time>
<name>7407</name>
</trkpt>
<trkpt lat="41.795832" lon="-1.823048">
<ele>1592.0</ele>
<speed>12.4</speed>
<course>168.6</course>
<desc>Speed 12.4 km/h Distance 27.38 km</desc>
<time>2011-09-24T11:41:34.19</time>
<name>7408</name>
</trkpt>
<trkpt lat="41.795795" lon="-1.823038">
<ele>1595.0</ele>
<speed>12.0</speed>
<course>172.2</course>
<desc>Speed 12.0 km/h Distance 27.38 km</desc>
<time>2011-09-24T11:41:35.18</time>
<name>7409</name>
</trkpt>
<trkpt lat="41.795758" lon="-1.823032">
<ele>1597.5</ele>
<speed>12.5</speed>
<course>168.0</course>
<desc>Speed 12.5 km/h Distance 27.38 km</desc>
<time>2011-09-24T11:41:36.18</time>
<name>7410</name>
</trkpt>
<trkpt lat="41.795723" lon="-1.823022">
<ele>1599.5</ele>
<speed>12.3</speed>
<course>164.8</course>
<desc>Speed 12.3 km/h Distance 27.39 km</desc>
<time>2011-09-24T11:41:37.19</time>
<name>7411</name>
</trkpt>
<trkpt lat="41.795687" lon="-1.823008">
<ele>1600.5</ele>
<speed>12.7</speed>
<course>173.4</course>
<desc>Speed 12.7 km/h Distance 27.39 km</desc>
<time>2011-09-24T11:41:38.18</time>
<name>7412</name>
</trkpt>
<trkpt lat="41.795655" lon="-1.823003">
<ele>1600.5</ele>
<speed>12.4</speed>
<course>177.1</course>
<desc>Speed 12.4 km/h Distance 27.40 km</desc>
<time>2011-09-24T11:41:39.18</time>
<name>7413</name>
</trkpt>
<trkpt lat="41.795628" lon="-1.823002">
<ele>1600.5</ele>
<speed>10.8</speed>
<course>177.1</course>
<desc>Speed 10.8 km/h Distance 27.40 km</desc>
<time>2011-09-24T11:41:40.18</time>
<name>7414</name>
</trkpt>
<trkpt lat="41.795602" lon="-1.823000">
<ele>1600.5</ele>
<speed>10.8</speed>
<course>170.1</course>
<desc>Speed 10.8 km/h Distance 27.40 km</desc>
<time>2011-09-24T11:41:41.18</time>
<name>7415</name>
</trkpt>
<trkpt lat="41.795573" lon="-1.822993">
<ele>1601.0</ele>
<speed>11.5</speed>
<course>160.9</course>
<desc>Speed 11.5 km/h Distance 27.41 km</desc>
<time>2011-09-24T11:41:42.18</time>
<name>7416</name>
</trkpt>
<trkpt lat="41.795548" lon="-1.822982">
<ele>1601.0</ele>
<speed>11.2</speed>
<course>155.0</course>
<desc>Speed 11.2 km/h Distance 27.41 km</desc>
<time>2011-09-24T11:41:43.18</time>
<name>7417</name>
</trkpt>
<trkpt lat="41.795522" lon="-1.822965">
<ele>1601.5</ele>
<speed>11.3</speed>
<course>154.4</course>
<desc>Speed 11.3 km/h Distance 27.41 km</desc>
<time>2011-09-24T11:41:44.19</time>
<name>7418</name>
</trkpt>
<trkpt lat="41.795498" lon="-1.822950">
<ele>1601.5</ele>
<speed>10.9</speed>
<course>160.7</course>
<desc>Speed 10.9 km/h Distance 27.41 km</desc>
<time>2011-09-24T11:41:45.18</time>
<name>7419</name>
</trkpt>
<trkpt lat="41.795470" lon="-1.822937">
<ele>1601.5</ele>
<speed>11.4</speed>
<course>165.2</course>
<desc>Speed 11.4 km/h Distance 27.42 km</desc>
<time>2011-09-24T11:41:46.18</time>
<name>7420</name>
</trkpt>
<trkpt lat="41.795442" lon="-1.822927">
<ele>1602.0</ele>
<speed>11.6</speed>
<course>179.1</course>
<desc>Speed 11.6 km/h Distance 27.42 km</desc>
<time>2011-09-24T11:41:47.18</time>
<name>7421</name>
</trkpt>
<trkpt lat="41.795412" lon="-1.822927">
<ele>1602.5</ele>
<speed>12.5</speed>
<course>177.7</course>
<desc>Speed 12.5 km/h Distance 27.42 km</desc>
<time>2011-09-24T11:41:48.18</time>
<name>7422</name>
</trkpt>
<trkpt lat="41.795380" lon="-1.822925">
<ele>1602.5</ele>
<speed>12.5</speed>
<course>181.9</course>
<desc>Speed 12.5 km/h Distance 27.43 km</desc>
<time>2011-09-24T11:41:49.18</time>
<name>7423</name>
</trkpt>
<trkpt lat="41.795347" lon="-1.822927">
<ele>1603.0</ele>
<speed>12.9</speed>
<course>175.9</course>
<desc>Speed 12.9 km/h Distance 27.43 km</desc>
<time>2011-09-24T11:41:50.18</time>
<name>7424</name>
</trkpt>
<trkpt lat="41.795313" lon="-1.822923">
<ele>1603.5</ele>
<speed>13.9</speed>
<course>168.0</course>
<desc>Speed 13.9 km/h Distance 27.44 km</desc>
<time>2011-09-24T11:41:51.17</time>
<name>7425</name>
</trkpt>
<trkpt lat="41.795278" lon="-1.822913">
<ele>1604.5</ele>
<speed>13.8</speed>
<course>169.9</course>
<desc>Speed 13.8 km/h Distance 27.44 km</desc>
<time>2011-09-24T11:41:52.17</time>
<name>7426</name>
</trkpt>
<trkpt lat="41.795243" lon="-1.822905">
<ele>1605.0</ele>
<speed>14.1</speed>
<course>171.0</course>
<desc>Speed 14.1 km/h Distance 27.44 km</desc>
<time>2011-09-24T11:41:53.17</time>
<name>7427</name>
</trkpt>
<trkpt lat="41.795212" lon="-1.822898">
<ele>1606.5</ele>
<speed>14.0</speed>
<course>164.1</course>
<desc>Speed 14.0 km/h Distance 27.45 km</desc>
<time>2011-09-24T11:41:54.17</time>
<name>7428</name>
</trkpt>
<trkpt lat="41.795177" lon="-1.822885">
<ele>1608.0</ele>
<speed>13.8</speed>
<course>165.4</course>
<desc>Speed 13.8 km/h Distance 27.45 km</desc>
<time>2011-09-24T11:41:55.17</time>
<name>7429</name>
</trkpt>
<trkpt lat="41.795143" lon="-1.822873">
<ele>1609.5</ele>
<speed>14.0</speed>
<course>163.4</course>
<desc>Speed 14.0 km/h Distance 27.46 km</desc>
<time>2011-09-24T11:41:56.17</time>
<name>7430</name>
</trkpt>
<trkpt lat="41.795110" lon="-1.822860">
<ele>1610.0</ele>
<speed>14.0</speed>
<course>167.4</course>
<desc>Speed 14.0 km/h Distance 27.46 km</desc>
<time>2011-09-24T11:41:57.17</time>
<name>7431</name>
</trkpt>
<trkpt lat="41.795077" lon="-1.822850">
<ele>1610.5</ele>
<speed>13.8</speed>
<course>160.6</course>
<desc>Speed 13.8 km/h Distance 27.46 km</desc>
<time>2011-09-24T11:41:58.17</time>
<name>7432</name>
</trkpt>
<trkpt lat="41.795045" lon="-1.822835">
<ele>1611.0</ele>
<speed>13.5</speed>
<course>149.9</course>
<desc>Speed 13.5 km/h Distance 27.47 km</desc>
<time>2011-09-24T11:41:59.17</time>
<name>7433</name>
</trkpt>
<trkpt lat="41.795015" lon="-1.822812">
<ele>1611.5</ele>
<speed>13.9</speed>
<course>151.2</course>
<desc>Speed 13.9 km/h Distance 27.47 km</desc>
<time>2011-09-24T11:42:00.17</time>
<name>7434</name>
</trkpt>
<trkpt lat="41.794983" lon="-1.822788">
<ele>1612.0</ele>
<speed>14.2</speed>
<course>146.7</course>
<desc>Speed 14.2 km/h Distance 27.47 km</desc>
<time>2011-09-24T11:42:01.17</time>
<name>7435</name>
</trkpt>
<trkpt lat="41.794955" lon="-1.822763">
<ele>1612.5</ele>
<speed>13.4</speed>
<course>148.8</course>
<desc>Speed 13.4 km/h Distance 27.48 km</desc>
<time>2011-09-24T11:42:02.17</time>
<name>7436</name>
</trkpt>
<trkpt lat="41.794928" lon="-1.822742">
<ele>1613.0</ele>
<speed>12.2</speed>
<course>143.3</course>
<desc>Speed 12.2 km/h Distance 27.48 km</desc>
<time>2011-09-24T11:42:03.17</time>
<name>7437</name>
</trkpt>
<trkpt lat="41.794905" lon="-1.822718">
<ele>1613.5</ele>
<speed>11.8</speed>
<course>147.1</course>
<desc>Speed 11.8 km/h Distance 27.48 km</desc>
<time>2011-09-24T11:42:04.17</time>
<name>7438</name>
</trkpt>
<trkpt lat="41.794880" lon="-1.822697">
<ele>1614.0</ele>
<speed>12.0</speed>
<course>147.1</course>
<desc>Speed 12.0 km/h Distance 27.49 km</desc>
<time>2011-09-24T11:42:05.17</time>
<name>7439</name>
</trkpt>
<trkpt lat="41.794855" lon="-1.822675">
<ele>1614.0</ele>
<speed>11.4</speed>
<course>145.5</course>
<desc>Speed 11.4 km/h Distance 27.49 km</desc>
<time>2011-09-24T11:42:06.17</time>
<name>7440</name>
</trkpt>
<trkpt lat="41.794833" lon="-1.822655">
<ele>1614.5</ele>
<speed>10.5</speed>
<course>139.0</course>
<desc>Speed 10.5 km/h Distance 27.49 km</desc>
<time>2011-09-24T11:42:07.16</time>
<name>7441</name>
</trkpt>
<trkpt lat="41.794813" lon="-1.822632">
<ele>1614.5</ele>
<speed>10.4</speed>
<course>149.7</course>
<desc>Speed 10.4 km/h Distance 27.50 km</desc>
<time>2011-09-24T11:42:08.16</time>
<name>7442</name>
</trkpt>
<trkpt lat="41.794790" lon="-1.822613">
<ele>1614.5</ele>
<speed>10.8</speed>
<course>154.4</course>
<desc>Speed 10.8 km/h Distance 27.50 km</desc>
<time>2011-09-24T11:42:09.17</time>
<name>7443</name>
</trkpt>
<trkpt lat="41.794767" lon="-1.822598">
<ele>1615.0</ele>
<speed>10.5</speed>
<course>149.7</course>
<desc>Speed 10.5 km/h Distance 27.50 km</desc>
<time>2011-09-24T11:42:10.16</time>
<name>7444</name>
</trkpt>
<trkpt lat="41.794743" lon="-1.822580">
<ele>1615.0</ele>
<speed>10.4</speed>
<course>153.5</course>
<desc>Speed 10.4 km/h Distance 27.51 km</desc>
<time>2011-09-24T11:42:11.16</time>
<name>7445</name>
</trkpt>
<trkpt lat="41.794718" lon="-1.822563">
<ele>1615.0</ele>
<speed>10.5</speed>
<course>153.5</course>
<desc>Speed 10.5 km/h Distance 27.51 km</desc>
<time>2011-09-24T11:42:12.16</time>
<name>7446</name>
</trkpt>
<trkpt lat="41.794693" lon="-1.822547">
<ele>1615.0</ele>
<speed>10.6</speed>
<course>147.4</course>
<desc>Speed 10.6 km/h Distance 27.51 km</desc>
<time>2011-09-24T11:42:13.16</time>
<name>7447</name>
</trkpt>
<trkpt lat="41.794670" lon="-1.822527">
<ele>1615.0</ele>
<speed>10.6</speed>
<course>149.6</course>
<desc>Speed 10.6 km/h Distance 27.52 km</desc>
<time>2011-09-24T11:42:14.16</time>
<name>7448</name>
</trkpt>
<trkpt lat="41.794647" lon="-1.822508">
<ele>1615.5</ele>
<speed>10.7</speed>
<course>153.5</course>
<desc>Speed 10.7 km/h Distance 27.52 km</desc>
<time>2011-09-24T11:42:15.16</time>
<name>7449</name>
</trkpt>
<trkpt lat="41.794622" lon="-1.822492">
<ele>1615.5</ele>
<speed>11.1</speed>
<course>152.9</course>
<desc>Speed 11.1 km/h Distance 27.52 km</desc>
<time>2011-09-24T11:42:16.16</time>
<name>7450</name>
</trkpt>
<trkpt lat="41.794595" lon="-1.822473">
<ele>1615.5</ele>
<speed>11.2</speed>
<course>149.1</course>
<desc>Speed 11.2 km/h Distance 27.53 km</desc>
<time>2011-09-24T11:42:17.16</time>
<name>7451</name>
</trkpt>
<trkpt lat="41.794570" lon="-1.822453">
<ele>1616.5</ele>
<speed>10.2</speed>
<course>152.0</course>
<desc>Speed 10.2 km/h Distance 27.53 km</desc>
<time>2011-09-24T11:42:18.15</time>
<name>7452</name>
</trkpt>
<trkpt lat="41.794547" lon="-1.822437">
<ele>1616.5</ele>
<speed>10.7</speed>
<course>145.3</course>
<desc>Speed 10.7 km/h Distance 27.53 km</desc>
<time>2011-09-24T11:42:19.15</time>
<name>7453</name>
</trkpt>
<trkpt lat="41.794523" lon="-1.822415">
<ele>1617.0</ele>
<speed>10.9</speed>
<course>139.0</course>
<desc>Speed 10.9 km/h Distance 27.53 km</desc>
<time>2011-09-24T11:42:20.15</time>
<name>7454</name>
</trkpt>
<trkpt lat="41.794503" lon="-1.822392">
<ele>1617.5</ele>
<speed>10.7</speed>
<course>151.9</course>
<desc>Speed 10.7 km/h Distance 27.54 km</desc>
<time>2011-09-24T11:42:21.15</time>
<name>7455</name>
</trkpt>
<trkpt lat="41.794480" lon="-1.822375">
<ele>1617.5</ele>
<speed>10.9</speed>
<course>158.5</course>
<desc>Speed 10.9 km/h Distance 27.54 km</desc>
<time>2011-09-24T11:42:22.15</time>
<name>7456</name>
</trkpt>
<trkpt lat="41.794452" lon="-1.822360">
<ele>1618.0</ele>
<speed>11.8</speed>
<course>155.1</course>
<desc>Speed 11.8 km/h Distance 27.54 km</desc>
<time>2011-09-24T11:42:23.15</time>
<name>7457</name>
</trkpt>
<trkpt lat="41.794425" lon="-1.822343">
<ele>1618.0</ele>
<speed>11.6</speed>
<course>151.3</course>
<desc>Speed 11.6 km/h Distance 27.55 km</desc>
<time>2011-09-24T11:42:24.15</time>
<name>7458</name>
</trkpt>
<trkpt lat="41.794400" lon="-1.822325">
<ele>1618.0</ele>
<speed>11.0</speed>
<course>147.1</course>
<desc>Speed 11.0 km/h Distance 27.55 km</desc>
<time>2011-09-24T11:42:25.15</time>
<name>7459</name>
</trkpt>
<trkpt lat="41.794375" lon="-1.822303">
<ele>1618.0</ele>
<speed>12.0</speed>
<course>150.3</course>
<desc>Speed 12.0 km/h Distance 27.55 km</desc>
<time>2011-09-24T11:42:26.15</time>
<name>7460</name>
</trkpt>
<trkpt lat="41.794347" lon="-1.822282">
<ele>1618.0</ele>
<speed>13.1</speed>
<course>150.3</course>
<desc>Speed 13.1 km/h Distance 27.56 km</desc>
<time>2011-09-24T11:42:27.15</time>
<name>7461</name>
</trkpt>
<trkpt lat="41.794318" lon="-1.822260">
<ele>1618.5</ele>
<speed>13.5</speed>
<course>148.5</course>
<desc>Speed 13.5 km/h Distance 27.56 km</desc>
<time>2011-09-24T11:42:28.15</time>
<name>7462</name>
</trkpt>
<trkpt lat="41.794290" lon="-1.822237">
<ele>1618.5</ele>
<speed>13.5</speed>
<course>145.0</course>
<desc>Speed 13.5 km/h Distance 27.56 km</desc>
<time>2011-09-24T11:42:29.15</time>
<name>7463</name>
</trkpt>
<trkpt lat="41.794262" lon="-1.822210">
<ele>1618.5</ele>
<speed>13.4</speed>
<course>138.5</course>
<desc>Speed 13.4 km/h Distance 27.57 km</desc>
<time>2011-09-24T11:42:30.15</time>
<name>7464</name>
</trkpt>
<trkpt lat="41.794235" lon="-1.822178">
<ele>1619.0</ele>
<speed>14.1</speed>
<course>141.7</course>
<desc>Speed 14.1 km/h Distance 27.57 km</desc>
<time>2011-09-24T11:42:31.15</time>
<name>7465</name>
</trkpt>
<trkpt lat="41.794207" lon="-1.822148">
<ele>1619.0</ele>
<speed>14.5</speed>
<course>143.3</course>
<desc>Speed 14.5 km/h Distance 27.58 km</desc>
<time>2011-09-24T11:42:32.15</time>
<name>7466</name>
</trkpt>
<trkpt lat="41.794178" lon="-1.822120">
<ele>1619.0</ele>
<speed>14.2</speed>
<course>143.3</course>
<desc>Speed 14.2 km/h Distance 27.58 km</desc>
<time>2011-09-24T11:42:33.14</time>
<name>7467</name>
</trkpt>
<trkpt lat="41.794150" lon="-1.822092">
<ele>1619.5</ele>
<speed>13.9</speed>
<course>151.7</course>
<desc>Speed 13.9 km/h Distance 27.58 km</desc>
<time>2011-09-24T11:42:34.14</time>
<name>7468</name>
</trkpt>
<trkpt lat="41.794120" lon="-1.822070">
<ele>1619.5</ele>
<speed>13.5</speed>
<course>144.9</course>
<desc>Speed 13.5 km/h Distance 27.59 km</desc>
<time>2011-09-24T11:42:35.14</time>
<name>7469</name>
</trkpt>
<trkpt lat="41.794092" lon="-1.822043">
<ele>1619.5</ele>
<speed>13.8</speed>
<course>149.9</course>
<desc>Speed 13.8 km/h Distance 27.59 km</desc>
<time>2011-09-24T11:42:36.14</time>
<name>7470</name>
</trkpt>
<trkpt lat="41.794062" lon="-1.822020">
<ele>1619.5</ele>
<speed>13.6</speed>
<course>144.9</course>
<desc>Speed 13.6 km/h Distance 27.60 km</desc>
<time>2011-09-24T11:42:37.14</time>
<name>7471</name>
</trkpt>
<trkpt lat="41.794032" lon="-1.821992">
<ele>1620.0</ele>
<speed>13.8</speed>
<course>150.3</course>
<desc>Speed 13.8 km/h Distance 27.60 km</desc>
<time>2011-09-24T11:42:38.14</time>
<name>7472</name>
</trkpt>
<trkpt lat="41.794003" lon="-1.821970">
<ele>1620.0</ele>
<speed>13.1</speed>
<course>148.5</course>
<desc>Speed 13.1 km/h Distance 27.60 km</desc>
<time>2011-09-24T11:42:39.14</time>
<name>7473</name>
</trkpt>
<trkpt lat="41.793975" lon="-1.821947">
<ele>1620.5</ele>
<speed>13.1</speed>
<course>149.9</course>
<desc>Speed 13.1 km/h Distance 27.61 km</desc>
<time>2011-09-24T11:42:40.14</time>
<name>7474</name>
</trkpt>
<trkpt lat="41.793945" lon="-1.821923">
<ele>1621.0</ele>
<speed>13.0</speed>
<course>148.8</course>
<desc>Speed 13.0 km/h Distance 27.61 km</desc>
<time>2011-09-24T11:42:41.14</time>
<name>7475</name>
</trkpt>
<trkpt lat="41.793918" lon="-1.821902">
<ele>1621.0</ele>
<speed>12.7</speed>
<course>145.1</course>
<desc>Speed 12.7 km/h Distance 27.61 km</desc>
<time>2011-09-24T11:42:42.14</time>
<name>7476</name>
</trkpt>
<trkpt lat="41.793892" lon="-1.821877">
<ele>1621.0</ele>
<speed>12.7</speed>
<course>148.5</course>
<desc>Speed 12.7 km/h Distance 27.62 km</desc>
<time>2011-09-24T11:42:43.14</time>
<name>7477</name>
</trkpt>
<trkpt lat="41.793863" lon="-1.821853">
<ele>1621.0</ele>
<speed>12.9</speed>
<course>146.7</course>
<desc>Speed 12.9 km/h Distance 27.62 km</desc>
<time>2011-09-24T11:42:44.14</time>
<name>7478</name>
</trkpt>
<trkpt lat="41.793835" lon="-1.821828">
<ele>1621.5</ele>
<speed>13.3</speed>
<course>139.5</course>
<desc>Speed 13.3 km/h Distance 27.63 km</desc>
<time>2011-09-24T11:42:45.14</time>
<name>7479</name>
</trkpt>
<trkpt lat="41.793812" lon="-1.821802">
<ele>1621.5</ele>
<speed>11.9</speed>
<course>145.2</course>
<desc>Speed 11.9 km/h Distance 27.63 km</desc>
<time>2011-09-24T11:42:46.14</time>
<name>7480</name>
</trkpt>
<trkpt lat="41.793787" lon="-1.821778">
<ele>1622.0</ele>
<speed>11.9</speed>
<course>145.2</course>
<desc>Speed 11.9 km/h Distance 27.63 km</desc>
<time>2011-09-24T11:42:47.14</time>
<name>7481</name>
</trkpt>
<trkpt lat="41.793762" lon="-1.821755">
<ele>1622.0</ele>
<speed>12.0</speed>
<course>145.2</course>
<desc>Speed 12.0 km/h Distance 27.64 km</desc>
<time>2011-09-24T11:42:48.13</time>
<name>7482</name>
</trkpt>
<trkpt lat="41.793737" lon="-1.821732">
<ele>1622.5</ele>
<speed>11.9</speed>
<course>141.2</course>
<desc>Speed 11.9 km/h Distance 27.64 km</desc>
<time>2011-09-24T11:42:49.14</time>
<name>7483</name>
</trkpt>
<trkpt lat="41.793715" lon="-1.821708">
<ele>1622.5</ele>
<speed>11.3</speed>
<course>139.5</course>
<desc>Speed 11.3 km/h Distance 27.64 km</desc>
<time>2011-09-24T11:42:50.13</time>
<name>7484</name>
</trkpt>
<trkpt lat="41.793692" lon="-1.821682">
<ele>1623.0</ele>
<speed>11.6</speed>
<course>137.4</course>
<desc>Speed 11.6 km/h Distance 27.65 km</desc>
<time>2011-09-24T11:42:51.13</time>
<name>7485</name>
</trkpt>
<trkpt lat="41.793670" lon="-1.821655">
<ele>1623.5</ele>
<speed>12.0</speed>
<course>143.3</course>
<desc>Speed 12.0 km/h Distance 27.65 km</desc>
<time>2011-09-24T11:42:52.13</time>
<name>7486</name>
</trkpt>
<trkpt lat="41.793645" lon="-1.821630">
<ele>1623.5</ele>
<speed>12.0</speed>
<course>145.3</course>
<desc>Speed 12.0 km/h Distance 27.65 km</desc>
<time>2011-09-24T11:42:53.13</time>
<name>7487</name>
</trkpt>
<trkpt lat="41.793622" lon="-1.821608">
<ele>1623.5</ele>
<speed>11.6</speed>
<course>149.2</course>
<desc>Speed 11.6 km/h Distance 27.66 km</desc>
<time>2011-09-24T11:42:54.13</time>
<name>7488</name>
</trkpt>
<trkpt lat="41.793597" lon="-1.821588">
<ele>1623.5</ele>
<speed>11.2</speed>
<course>147.2</course>
<desc>Speed 11.2 km/h Distance 27.66 km</desc>
<time>2011-09-24T11:42:55.13</time>
<name>7489</name>
</trkpt>
<trkpt lat="41.793572" lon="-1.821567">
<ele>1624.0</ele>
<speed>11.9</speed>
<course>147.2</course>
<desc>Speed 11.9 km/h Distance 27.66 km</desc>
<time>2011-09-24T11:42:56.13</time>
<name>7490</name>
</trkpt>
<trkpt lat="41.793547" lon="-1.821545">
<ele>1624.0</ele>
<speed>11.9</speed>
<course>148.8</course>
<desc>Speed 11.9 km/h Distance 27.67 km</desc>
<time>2011-09-24T11:42:57.13</time>
<name>7491</name>
</trkpt>
<trkpt lat="41.793520" lon="-1.821523">
<ele>1624.0</ele>
<speed>12.0</speed>
<course>145.3</course>
<desc>Speed 12.0 km/h Distance 27.67 km</desc>
<time>2011-09-24T11:42:58.14</time>
<name>7492</name>
</trkpt>
<trkpt lat="41.793497" lon="-1.821502">
<ele>1624.5</ele>
<speed>11.6</speed>
<course>145.2</course>
<desc>Speed 11.6 km/h Distance 27.67 km</desc>
<time>2011-09-24T11:42:59.13</time>
<name>7493</name>
</trkpt>
<trkpt lat="41.793472" lon="-1.821478">
<ele>1624.5</ele>
<speed>11.7</speed>
<course>145.3</course>
<desc>Speed 11.7 km/h Distance 27.68 km</desc>
<time>2011-09-24T11:43:00.13</time>
<name>7494</name>
</trkpt>
<trkpt lat="41.793448" lon="-1.821457">
<ele>1625.0</ele>
<speed>11.7</speed>
<course>147.1</course>
<desc>Speed 11.7 km/h Distance 27.68 km</desc>
<time>2011-09-24T11:43:01.13</time>
<name>7495</name>
</trkpt>
<trkpt lat="41.793423" lon="-1.821435">
<ele>1625.0</ele>
<speed>11.6</speed>
<course>143.3</course>
<desc>Speed 11.6 km/h Distance 27.68 km</desc>
<time>2011-09-24T11:43:02.13</time>
<name>7496</name>
</trkpt>
<trkpt lat="41.793400" lon="-1.821412">
<ele>1625.0</ele>
<speed>11.6</speed>
<course>141.4</course>
<desc>Speed 11.6 km/h Distance 27.69 km</desc>
<time>2011-09-24T11:43:03.12</time>
<name>7497</name>
</trkpt>
<trkpt lat="41.793377" lon="-1.821387">
<ele>1625.5</ele>
<speed>11.6</speed>
<course>141.4</course>
<desc>Speed 11.6 km/h Distance 27.69 km</desc>
<time>2011-09-24T11:43:04.12</time>
<name>7498</name>
</trkpt>
<trkpt lat="41.793353" lon="-1.821362">
<ele>1625.5</ele>
<speed>11.8</speed>
<course>147.4</course>
<desc>Speed 11.8 km/h Distance 27.69 km</desc>
<time>2011-09-24T11:43:05.12</time>
<name>7499</name>
</trkpt>
<trkpt lat="41.793330" lon="-1.821342">
<ele>1625.5</ele>
<speed>10.9</speed>
<course>148.8</course>
<desc>Speed 10.9 km/h Distance 27.69 km</desc>
<time>2011-09-24T11:43:06.12</time>
<name>7500</name>
</trkpt>
<trkpt lat="41.793303" lon="-1.821320">
<ele>1626.0</ele>
<speed>12.0</speed>
<course>147.1</course>
<desc>Speed 12.0 km/h Distance 27.70 km</desc>
<time>2011-09-24T11:43:07.13</time>
<name>7501</name>
</trkpt>
<trkpt lat="41.793278" lon="-1.821298">
<ele>1626.0</ele>
<speed>11.6</speed>
<course>149.2</course>
<desc>Speed 11.6 km/h Distance 27.70 km</desc>
<time>2011-09-24T11:43:08.12</time>
<name>7502</name>
</trkpt>
<trkpt lat="41.793253" lon="-1.821278">
<ele>1626.0</ele>
<speed>11.7</speed>
<course>156.3</course>
<desc>Speed 11.7 km/h Distance 27.70 km</desc>
<time>2011-09-24T11:43:09.13</time>
<name>7503</name>
</trkpt>
<trkpt lat="41.793225" lon="-1.821262">
<ele>1626.0</ele>
<speed>12.1</speed>
<course>149.2</course>
<desc>Speed 12.1 km/h Distance 27.71 km</desc>
<time>2011-09-24T11:43:10.12</time>
<name>7504</name>
</trkpt>
<trkpt lat="41.793200" lon="-1.821242">
<ele>1626.0</ele>
<speed>11.2</speed>
<course>149.6</course>
<desc>Speed 11.2 km/h Distance 27.71 km</desc>
<time>2011-09-24T11:43:11.12</time>
<name>7505</name>
</trkpt>
<trkpt lat="41.793177" lon="-1.821223">
<ele>1626.0</ele>
<speed>10.8</speed>
<course>159.4</course>
<desc>Speed 10.8 km/h Distance 27.71 km</desc>
<time>2011-09-24T11:43:12.11</time>
<name>7506</name>
</trkpt>
<trkpt lat="41.793153" lon="-1.821212">
<ele>1626.0</ele>
<speed>10.1</speed>
<course>159.5</course>
<desc>Speed 10.1 km/h Distance 27.72 km</desc>
<time>2011-09-24T11:43:13.12</time>
<name>7507</name>
</trkpt>
<trkpt lat="41.793123" lon="-1.821197">
<ele>1626.0</ele>
<speed>12.2</speed>
<course>152.9</course>
<desc>Speed 12.2 km/h Distance 27.72 km</desc>
<time>2011-09-24T11:43:14.11</time>
<name>7508</name>
</trkpt>
<trkpt lat="41.793097" lon="-1.821178">
<ele>1626.0</ele>
<speed>12.0</speed>
<course>157.2</course>
<desc>Speed 12.0 km/h Distance 27.72 km</desc>
<time>2011-09-24T11:43:15.11</time>
<name>7509</name>
</trkpt>
<trkpt lat="41.793070" lon="-1.821163">
<ele>1626.5</ele>
<speed>11.4</speed>
<course>161.9</course>
<desc>Speed 11.4 km/h Distance 27.73 km</desc>
<time>2011-09-24T11:43:16.11</time>
<name>7510</name>
</trkpt>
<trkpt lat="41.793043" lon="-1.821152">
<ele>1626.5</ele>
<speed>11.7</speed>
<course>148.8</course>
<desc>Speed 11.7 km/h Distance 27.73 km</desc>
<time>2011-09-24T11:43:17.11</time>
<name>7511</name>
</trkpt>
<trkpt lat="41.793017" lon="-1.821130">
<ele>1626.5</ele>
<speed>11.4</speed>
<course>147.1</course>
<desc>Speed 11.4 km/h Distance 27.73 km</desc>
<time>2011-09-24T11:43:18.11</time>
<name>7512</name>
</trkpt>
<trkpt lat="41.792992" lon="-1.821108">
<ele>1627.0</ele>
<speed>12.1</speed>
<course>154.2</course>
<desc>Speed 12.1 km/h Distance 27.74 km</desc>
<time>2011-09-24T11:43:19.11</time>
<name>7513</name>
</trkpt>
<trkpt lat="41.792963" lon="-1.821090">
<ele>1627.0</ele>
<speed>11.9</speed>
<course>160.7</course>
<desc>Speed 11.9 km/h Distance 27.74 km</desc>
<time>2011-09-24T11:43:20.11</time>
<name>7514</name>
</trkpt>
<trkpt lat="41.792935" lon="-1.821077">
<ele>1627.5</ele>
<speed>12.0</speed>
<course>156.3</course>
<desc>Speed 12.0 km/h Distance 27.74 km</desc>
<time>2011-09-24T11:43:21.11</time>
<name>7515</name>
</trkpt>
<trkpt lat="41.792907" lon="-1.821060">
<ele>1628.0</ele>
<speed>12.5</speed>
<course>165.3</course>
<desc>Speed 12.5 km/h Distance 27.75 km</desc>
<time>2011-09-24T11:43:22.11</time>
<name>7516</name>
</trkpt>
<trkpt lat="41.792878" lon="-1.821050">
<ele>1627.5</ele>
<speed>12.2</speed>
<course>158.6</course>
<desc>Speed 12.2 km/h Distance 27.75 km</desc>
<time>2011-09-24T11:43:23.11</time>
<name>7517</name>
</trkpt>
<trkpt lat="41.792847" lon="-1.821033">
<ele>1627.5</ele>
<speed>12.7</speed>
<course>155.0</course>
<desc>Speed 12.7 km/h Distance 27.75 km</desc>
<time>2011-09-24T11:43:24.10</time>
<name>7518</name>
</trkpt>
<trkpt lat="41.792820" lon="-1.821017">
<ele>1628.0</ele>
<speed>11.8</speed>
<course>146.9</course>
<desc>Speed 11.8 km/h Distance 27.76 km</desc>
<time>2011-09-24T11:43:25.10</time>
<name>7519</name>
</trkpt>
<trkpt lat="41.792793" lon="-1.820993">
<ele>1628.0</ele>
<speed>12.8</speed>
<course>141.4</course>
<desc>Speed 12.8 km/h Distance 27.76 km</desc>
<time>2011-09-24T11:43:26.10</time>
<name>7520</name>
</trkpt>
<trkpt lat="41.792770" lon="-1.820968">
<ele>1628.0</ele>
<speed>12.2</speed>
<course>141.4</course>
<desc>Speed 12.2 km/h Distance 27.76 km</desc>
<time>2011-09-24T11:43:27.11</time>
<name>7521</name>
</trkpt>
<trkpt lat="41.792747" lon="-1.820943">
<ele>1628.0</ele>
<speed>11.8</speed>
<course>139.5</course>
<desc>Speed 11.8 km/h Distance 27.77 km</desc>
<time>2011-09-24T11:43:28.10</time>
<name>7522</name>
</trkpt>
<trkpt lat="41.792723" lon="-1.820917">
<ele>1628.0</ele>
<speed>12.1</speed>
<course>145.2</course>
<desc>Speed 12.1 km/h Distance 27.77 km</desc>
<time>2011-09-24T11:43:29.10</time>
<name>7523</name>
</trkpt>
<trkpt lat="41.792698" lon="-1.820893">
<ele>1628.5</ele>
<speed>12.2</speed>
<course>129.3</course>
<desc>Speed 12.2 km/h Distance 27.77 km</desc>
<time>2011-09-24T11:43:30.11</time>
<name>7524</name>
</trkpt>
<trkpt lat="41.792680" lon="-1.820863">
<ele>1629.0</ele>
<speed>11.0</speed>
<course>130.3</course>
<desc>Speed 11.0 km/h Distance 27.78 km</desc>
<time>2011-09-24T11:43:31.11</time>
<name>7525</name>
</trkpt>
<trkpt lat="41.792660" lon="-1.820832">
<ele>1629.5</ele>
<speed>12.0</speed>
<course>123.9</course>
<desc>Speed 12.0 km/h Distance 27.78 km</desc>
<time>2011-09-24T11:43:32.10</time>
<name>7526</name>
</trkpt>
<trkpt lat="41.792643" lon="-1.820798">
<ele>1629.5</ele>
<speed>11.9</speed>
<course>126.4</course>
<desc>Speed 11.9 km/h Distance 27.78 km</desc>
<time>2011-09-24T11:43:33.10</time>
<name>7527</name>
</trkpt>
<trkpt lat="41.792625" lon="-1.820765">
<ele>1629.5</ele>
<speed>12.1</speed>
<course>126.2</course>
<desc>Speed 12.1 km/h Distance 27.79 km</desc>
<time>2011-09-24T11:43:34.10</time>
<name>7528</name>
</trkpt>
<trkpt lat="41.792605" lon="-1.820728">
<ele>1630.0</ele>
<speed>12.9</speed>
<course>134.7</course>
<desc>Speed 12.9 km/h Distance 27.79 km</desc>
<time>2011-09-24T11:43:35.10</time>
<name>7529</name>
</trkpt>
<trkpt lat="41.792582" lon="-1.820697">
<ele>1630.5</ele>
<speed>12.6</speed>
<course>139.8</course>
<desc>Speed 12.6 km/h Distance 27.80 km</desc>
<time>2011-09-24T11:43:36.10</time>
<name>7530</name>
</trkpt>
<trkpt lat="41.792557" lon="-1.820668">
<ele>1630.5</ele>
<speed>12.5</speed>
<course>136.2</course>
<desc>Speed 12.5 km/h Distance 27.80 km</desc>
<time>2011-09-24T11:43:37.10</time>
<name>7531</name>
</trkpt>
<trkpt lat="41.792533" lon="-1.820638">
<ele>1631.0</ele>
<speed>12.8</speed>
<course>144.9</course>
<desc>Speed 12.8 km/h Distance 27.80 km</desc>
<time>2011-09-24T11:43:38.10</time>
<name>7532</name>
</trkpt>
<trkpt lat="41.792505" lon="-1.820612">
<ele>1631.0</ele>
<speed>13.2</speed>
<course>135.2</course>
<desc>Speed 13.2 km/h Distance 27.81 km</desc>
<time>2011-09-24T11:43:39.10</time>
<name>7533</name>
</trkpt>
<trkpt lat="41.792480" lon="-1.820578">
<ele>1631.0</ele>
<speed>14.0</speed>
<course>140.2</course>
<desc>Speed 14.0 km/h Distance 27.81 km</desc>
<time>2011-09-24T11:43:40.10</time>
<name>7534</name>
</trkpt>
<trkpt lat="41.792452" lon="-1.820547">
<ele>1631.5</ele>
<speed>14.3</speed>
<course>141.8</course>
<desc>Speed 14.3 km/h Distance 27.81 km</desc>
<time>2011-09-24T11:43:41.09</time>
<name>7535</name>
</trkpt>
<trkpt lat="41.792422" lon="-1.820515">
<ele>1631.5</ele>
<speed>14.4</speed>
<course>144.8</course>
<desc>Speed 14.4 km/h Distance 27.82 km</desc>
<time>2011-09-24T11:43:42.09</time>
<name>7536</name>
</trkpt>
<trkpt lat="41.792392" lon="-1.820487">
<ele>1632.0</ele>
<speed>14.5</speed>
<course>146.3</course>
<desc>Speed 14.5 km/h Distance 27.82 km</desc>
<time>2011-09-24T11:43:43.09</time>
<name>7537</name>
</trkpt>
<trkpt lat="41.792360" lon="-1.820458">
<ele>1632.0</ele>
<speed>15.0</speed>
<course>141.7</course>
<desc>Speed 15.0 km/h Distance 27.83 km</desc>
<time>2011-09-24T11:43:44.09</time>
<name>7538</name>
</trkpt>
<trkpt lat="41.792332" lon="-1.820428">
<ele>1632.5</ele>
<speed>14.7</speed>
<course>147.9</course>
<desc>Speed 14.7 km/h Distance 27.83 km</desc>
<time>2011-09-24T11:43:45.10</time>
<name>7539</name>
</trkpt>
<trkpt lat="41.792300" lon="-1.820402">
<ele>1633.0</ele>
<speed>14.7</speed>
<course>147.9</course>
<desc>Speed 14.7 km/h Distance 27.84 km</desc>
<time>2011-09-24T11:43:46.09</time>
<name>7540</name>
</trkpt>
<trkpt lat="41.792268" lon="-1.820375">
<ele>1633.0</ele>
<speed>14.8</speed>
<course>149.5</course>
<desc>Speed 14.8 km/h Distance 27.84 km</desc>
<time>2011-09-24T11:43:47.09</time>
<name>7541</name>
</trkpt>
<trkpt lat="41.792237" lon="-1.820350">
<ele>1633.5</ele>
<speed>14.8</speed>
<course>141.7</course>
<desc>Speed 14.8 km/h Distance 27.84 km</desc>
<time>2011-09-24T11:43:48.09</time>
<name>7542</name>
</trkpt>
<trkpt lat="41.792208" lon="-1.820320">
<ele>1633.5</ele>
<speed>14.5</speed>
<course>138.5</course>
<desc>Speed 14.5 km/h Distance 27.85 km</desc>
<time>2011-09-24T11:43:49.09</time>
<name>7543</name>
</trkpt>
<trkpt lat="41.792182" lon="-1.820288">
<ele>1634.0</ele>
<speed>14.3</speed>
<course>131.2</course>
<desc>Speed 14.3 km/h Distance 27.85 km</desc>
<time>2011-09-24T11:43:50.09</time>
<name>7544</name>
</trkpt>
<trkpt lat="41.792157" lon="-1.820250">
<ele>1634.0</ele>
<speed>14.8</speed>
<course>128.1</course>
<desc>Speed 14.8 km/h Distance 27.86 km</desc>
<time>2011-09-24T11:43:51.09</time>
<name>7545</name>
</trkpt>
<trkpt lat="41.792133" lon="-1.820210">
<ele>1634.0</ele>
<speed>15.2</speed>
<course>128.4</course>
<desc>Speed 15.2 km/h Distance 27.86 km</desc>
<time>2011-09-24T11:43:52.09</time>
<name>7546</name>
</trkpt>
<trkpt lat="41.792112" lon="-1.820173">
<ele>1634.0</ele>
<speed>14.2</speed>
<course>112.4</course>
<desc>Speed 14.2 km/h Distance 27.86 km</desc>
<time>2011-09-24T11:43:53.09</time>
<name>7547</name>
</trkpt>
<trkpt lat="41.792098" lon="-1.820130">
<ele>1634.5</ele>
<speed>13.8</speed>
<course>103.9</course>
<desc>Speed 13.8 km/h Distance 27.87 km</desc>
<time>2011-09-24T11:43:54.09</time>
<name>7548</name>
</trkpt>
<trkpt lat="41.792090" lon="-1.820085">
<ele>1635.0</ele>
<speed>13.7</speed>
<course>100.5</course>
<desc>Speed 13.7 km/h Distance 27.87 km</desc>
<time>2011-09-24T11:43:55.09</time>
<name>7549</name>
</trkpt>
<trkpt lat="41.792083" lon="-1.820037">
<ele>1636.0</ele>
<speed>14.0</speed>
<course>95.3</course>
<desc>Speed 14.0 km/h Distance 27.88 km</desc>
<time>2011-09-24T11:43:56.09</time>
<name>7550</name>
</trkpt>
<trkpt lat="41.792080" lon="-1.819988">
<ele>1637.0</ele>
<speed>13.6</speed>
<course>90.0</course>
<desc>Speed 13.6 km/h Distance 27.88 km</desc>
<time>2011-09-24T11:43:57.08</time>
<name>7551</name>
</trkpt>
<trkpt lat="41.792080" lon="-1.819938">
<ele>1638.0</ele>
<speed>14.0</speed>
<course>97.9</course>
<desc>Speed 14.0 km/h Distance 27.88 km</desc>
<time>2011-09-24T11:43:58.09</time>
<name>7552</name>
</trkpt>
<trkpt lat="41.792075" lon="-1.819890">
<ele>1639.0</ele>
<speed>14.1</speed>
<course>103.0</course>
<desc>Speed 14.1 km/h Distance 27.89 km</desc>
<time>2011-09-24T11:43:59.08</time>
<name>7553</name>
</trkpt>
<trkpt lat="41.792067" lon="-1.819842">
<ele>1639.5</ele>
<speed>13.9</speed>
<course>106.0</course>
<desc>Speed 13.9 km/h Distance 27.89 km</desc>
<time>2011-09-24T11:44:00.08</time>
<name>7554</name>
</trkpt>
<trkpt lat="41.792057" lon="-1.819795">
<ele>1640.0</ele>
<speed>14.2</speed>
<course>107.9</course>
<desc>Speed 14.2 km/h Distance 27.90 km</desc>
<time>2011-09-24T11:44:01.08</time>
<name>7555</name>
</trkpt>
<trkpt lat="41.792045" lon="-1.819747">
<ele>1640.5</ele>
<speed>14.6</speed>
<course>111.7</course>
<desc>Speed 14.6 km/h Distance 27.90 km</desc>
<time>2011-09-24T11:44:02.08</time>
<name>7556</name>
</trkpt>
<trkpt lat="41.792032" lon="-1.819702">
<ele>1641.0</ele>
<speed>14.4</speed>
<course>116.4</course>
<desc>Speed 14.4 km/h Distance 27.90 km</desc>
<time>2011-09-24T11:44:03.09</time>
<name>7557</name>
</trkpt>
<trkpt lat="41.792015" lon="-1.819657">
<ele>1641.5</ele>
<speed>14.6</speed>
<course>117.3</course>
<desc>Speed 14.6 km/h Distance 27.91 km</desc>
<time>2011-09-24T11:44:04.08</time>
<name>7558</name>
</trkpt>
<trkpt lat="41.791998" lon="-1.819613">
<ele>1642.0</ele>
<speed>14.7</speed>
<course>119.6</course>
<desc>Speed 14.7 km/h Distance 27.91 km</desc>
<time>2011-09-24T11:44:05.08</time>
<name>7559</name>
</trkpt>
<trkpt lat="41.791980" lon="-1.819570">
<ele>1642.0</ele>
<speed>15.0</speed>
<course>113.3</course>
<desc>Speed 15.0 km/h Distance 27.92 km</desc>
<time>2011-09-24T11:44:06.08</time>
<name>7560</name>
</trkpt>
<trkpt lat="41.791965" lon="-1.819523">
<ele>1642.5</ele>
<speed>14.5</speed>
<course>114.9</course>
<desc>Speed 14.5 km/h Distance 27.92 km</desc>
<time>2011-09-24T11:44:07.08</time>
<name>7561</name>
</trkpt>
<trkpt lat="41.791950" lon="-1.819480">
<ele>1643.0</ele>
<speed>14.5</speed>
<course>116.4</course>
<desc>Speed 14.5 km/h Distance 27.93 km</desc>
<time>2011-09-24T11:44:08.08</time>
<name>7562</name>
</trkpt>
<trkpt lat="41.791933" lon="-1.819435">
<ele>1643.0</ele>
<speed>14.9</speed>
<course>116.4</course>
<desc>Speed 14.9 km/h Distance 27.93 km</desc>
<time>2011-09-24T11:44:09.09</time>
<name>7563</name>
</trkpt>
<trkpt lat="41.791917" lon="-1.819390">
<ele>1643.0</ele>
<speed>14.9</speed>
<course>131.2</course>
<desc>Speed 14.9 km/h Distance 27.93 km</desc>
<time>2011-09-24T11:44:10.08</time>
<name>7564</name>
</trkpt>
<trkpt lat="41.791892" lon="-1.819352">
<ele>1643.5</ele>
<speed>15.3</speed>
<course>122.9</course>
<desc>Speed 15.3 km/h Distance 27.94 km</desc>
<time>2011-09-24T11:44:11.08</time>
<name>7565</name>
</trkpt>
<trkpt lat="41.791870" lon="-1.819307">
<ele>1643.5</ele>
<speed>15.6</speed>
<course>111.0</course>
<desc>Speed 15.6 km/h Distance 27.94 km</desc>
<time>2011-09-24T11:44:12.08</time>
<name>7566</name>
</trkpt>
<trkpt lat="41.791857" lon="-1.819260">
<ele>1643.5</ele>
<speed>15.0</speed>
<course>115.6</course>
<desc>Speed 15.0 km/h Distance 27.95 km</desc>
<time>2011-09-24T11:44:13.08</time>
<name>7567</name>
</trkpt>
<trkpt lat="41.791840" lon="-1.819213">
<ele>1644.0</ele>
<speed>15.2</speed>
<course>114.1</course>
<desc>Speed 15.2 km/h Distance 27.95 km</desc>
<time>2011-09-24T11:44:14.08</time>
<name>7568</name>
</trkpt>
<trkpt lat="41.791825" lon="-1.819168">
<ele>1644.0</ele>
<speed>14.6</speed>
<course>109.8</course>
<desc>Speed 14.6 km/h Distance 27.95 km</desc>
<time>2011-09-24T11:44:15.08</time>
<name>7569</name>
</trkpt>
<trkpt lat="41.791813" lon="-1.819125">
<ele>1644.5</ele>
<speed>13.9</speed>
<course>106.0</course>
<desc>Speed 13.9 km/h Distance 27.96 km</desc>
<time>2011-09-24T11:44:16.07</time>
<name>7570</name>
</trkpt>
<trkpt lat="41.791803" lon="-1.819078">
<ele>1645.0</ele>
<speed>14.4</speed>
<course>108.5</course>
<desc>Speed 14.4 km/h Distance 27.96 km</desc>
<time>2011-09-24T11:44:17.08</time>
<name>7571</name>
</trkpt>
<trkpt lat="41.791792" lon="-1.819032">
<ele>1645.0</ele>
<speed>14.5</speed>
<course>115.6</course>
<desc>Speed 14.5 km/h Distance 27.97 km</desc>
<time>2011-09-24T11:44:18.07</time>
<name>7572</name>
</trkpt>
<trkpt lat="41.791775" lon="-1.818985">
<ele>1645.5</ele>
<speed>15.0</speed>
<course>111.0</course>
<desc>Speed 15.0 km/h Distance 27.97 km</desc>
<time>2011-09-24T11:44:19.07</time>
<name>7573</name>
</trkpt>
<trkpt lat="41.791762" lon="-1.818938">
<ele>1645.5</ele>
<speed>15.1</speed>
<course>117.0</course>
<desc>Speed 15.1 km/h Distance 27.98 km</desc>
<time>2011-09-24T11:44:20.07</time>
<name>7574</name>
</trkpt>
<trkpt lat="41.791743" lon="-1.818890">
<ele>1645.5</ele>
<speed>15.8</speed>
<course>120.8</course>
<desc>Speed 15.8 km/h Distance 27.98 km</desc>
<time>2011-09-24T11:44:21.07</time>
<name>7575</name>
</trkpt>
<trkpt lat="41.791723" lon="-1.818845">
<ele>1646.0</ele>
<speed>15.8</speed>
<course>118.7</course>
<desc>Speed 15.8 km/h Distance 27.98 km</desc>
<time>2011-09-24T11:44:22.07</time>
<name>7576</name>
</trkpt>
<trkpt lat="41.791705" lon="-1.818800">
<ele>1646.0</ele>
<speed>15.0</speed>
<course>113.3</course>
<desc>Speed 15.0 km/h Distance 27.99 km</desc>
<time>2011-09-24T11:44:23.07</time>
<name>7577</name>
</trkpt>
<trkpt lat="41.791690" lon="-1.818753">
<ele>1646.5</ele>
<speed>15.4</speed>
<course>114.1</course>
<desc>Speed 15.4 km/h Distance 27.99 km</desc>
<time>2011-09-24T11:44:24.07</time>
<name>7578</name>
</trkpt>
<trkpt lat="41.791673" lon="-1.818703">
<ele>1646.0</ele>
<speed>16.2</speed>
<course>119.9</course>
<desc>Speed 16.2 km/h Distance 28.00 km</desc>
<time>2011-09-24T11:44:25.07</time>
<name>7579</name>
</trkpt>
<trkpt lat="41.791653" lon="-1.818657">
<ele>1646.5</ele>
<speed>15.8</speed>
<course>117.8</course>
<desc>Speed 15.8 km/h Distance 28.00 km</desc>
<time>2011-09-24T11:44:26.07</time>
<name>7580</name>
</trkpt>
<trkpt lat="41.791635" lon="-1.818610">
<ele>1646.5</ele>
<speed>15.8</speed>
<course>119.9</course>
<desc>Speed 15.8 km/h Distance 28.01 km</desc>
<time>2011-09-24T11:44:27.07</time>
<name>7581</name>
</trkpt>
<trkpt lat="41.791615" lon="-1.818563">
<ele>1647.0</ele>
<speed>15.9</speed>
<course>124.8</course>
<desc>Speed 15.9 km/h Distance 28.01 km</desc>
<time>2011-09-24T11:44:28.07</time>
<name>7582</name>
</trkpt>
<trkpt lat="41.791592" lon="-1.818518">
<ele>1647.0</ele>
<speed>16.1</speed>
<course>120.8</course>
<desc>Speed 16.1 km/h Distance 28.01 km</desc>
<time>2011-09-24T11:44:29.07</time>
<name>7583</name>
</trkpt>
<trkpt lat="41.791572" lon="-1.818473">
<ele>1647.0</ele>
<speed>15.7</speed>
<course>117.0</course>
<desc>Speed 15.7 km/h Distance 28.02 km</desc>
<time>2011-09-24T11:44:30.06</time>
<name>7584</name>
</trkpt>
<trkpt lat="41.791553" lon="-1.818425">
<ele>1647.5</ele>
<speed>16.1</speed>
<course>113.4</course>
<desc>Speed 16.1 km/h Distance 28.02 km</desc>
<time>2011-09-24T11:44:31.06</time>
<name>7585</name>
</trkpt>
<trkpt lat="41.791537" lon="-1.818373">
<ele>1648.0</ele>
<speed>16.1</speed>
<course>113.3</course>
<desc>Speed 16.1 km/h Distance 28.03 km</desc>
<time>2011-09-24T11:44:32.06</time>
<name>7586</name>
</trkpt>
<trkpt lat="41.791522" lon="-1.818327">
<ele>1648.0</ele>
<speed>15.2</speed>
<course>106.0</course>
<desc>Speed 15.2 km/h Distance 28.03 km</desc>
<time>2011-09-24T11:44:33.06</time>
<name>7587</name>
</trkpt>
<trkpt lat="41.791512" lon="-1.818280">
<ele>1648.5</ele>
<speed>14.3</speed>
<course>106.6</course>
<desc>Speed 14.3 km/h Distance 28.04 km</desc>
<time>2011-09-24T11:44:34.06</time>
<name>7588</name>
</trkpt>
<trkpt lat="41.791502" lon="-1.818235">
<ele>1648.5</ele>
<speed>14.4</speed>
<course>109.2</course>
<desc>Speed 14.4 km/h Distance 28.04 km</desc>
<time>2011-09-24T11:44:35.06</time>
<name>7589</name>
</trkpt>
<trkpt lat="41.791490" lon="-1.818190">
<ele>1649.0</ele>
<speed>13.8</speed>
<course>112.4</course>
<desc>Speed 13.8 km/h Distance 28.04 km</desc>
<time>2011-09-24T11:44:36.06</time>
<name>7590</name>
</trkpt>
<trkpt lat="41.791477" lon="-1.818147">
<ele>1649.0</ele>
<speed>13.9</speed>
<course>114.9</course>
<desc>Speed 13.9 km/h Distance 28.05 km</desc>
<time>2011-09-24T11:44:37.06</time>
<name>7591</name>
</trkpt>
<trkpt lat="41.791462" lon="-1.818103">
<ele>1649.5</ele>
<speed>14.1</speed>
<course>120.6</course>
<desc>Speed 14.1 km/h Distance 28.05 km</desc>
<time>2011-09-24T11:44:38.06</time>
<name>7592</name>
</trkpt>
<trkpt lat="41.791443" lon="-1.818062">
<ele>1650.0</ele>
<speed>14.4</speed>
<course>120.6</course>
<desc>Speed 14.4 km/h Distance 28.06 km</desc>
<time>2011-09-24T11:44:39.06</time>
<name>7593</name>
</trkpt>
<trkpt lat="41.791425" lon="-1.818020">
<ele>1650.5</ele>
<speed>14.3</speed>
<course>121.6</course>
<desc>Speed 14.3 km/h Distance 28.06 km</desc>
<time>2011-09-24T11:44:40.06</time>
<name>7594</name>
</trkpt>
<trkpt lat="41.791407" lon="-1.817980">
<ele>1651.5</ele>
<speed>14.3</speed>
<course>120.5</course>
<desc>Speed 14.3 km/h Distance 28.06 km</desc>
<time>2011-09-24T11:44:41.06</time>
<name>7595</name>
</trkpt>
<trkpt lat="41.791388" lon="-1.817938">
<ele>1652.0</ele>
<speed>14.5</speed>
<course>125.0</course>
<desc>Speed 14.5 km/h Distance 28.07 km</desc>
<time>2011-09-24T11:44:42.06</time>
<name>7596</name>
</trkpt>
<trkpt lat="41.791368" lon="-1.817900">
<ele>1652.5</ele>
<speed>14.4</speed>
<course>130.5</course>
<desc>Speed 14.4 km/h Distance 28.07 km</desc>
<time>2011-09-24T11:44:43.06</time>
<name>7597</name>
</trkpt>
<trkpt lat="41.791345" lon="-1.817863">
<ele>1653.5</ele>
<speed>14.7</speed>
<course>137.0</course>
<desc>Speed 14.7 km/h Distance 28.08 km</desc>
<time>2011-09-24T11:44:44.05</time>
<name>7598</name>
</trkpt>
<trkpt lat="41.791318" lon="-1.817830">
<ele>1654.0</ele>
<speed>14.6</speed>
<course>136.6</course>
<desc>Speed 14.6 km/h Distance 28.08 km</desc>
<time>2011-09-24T11:44:45.05</time>
<name>7599</name>
</trkpt>
<trkpt lat="41.791293" lon="-1.817798">
<ele>1654.5</ele>
<speed>14.1</speed>
<course>138.5</course>
<desc>Speed 14.1 km/h Distance 28.08 km</desc>
<time>2011-09-24T11:44:46.05</time>
<name>7600</name>
</trkpt>
<trkpt lat="41.791267" lon="-1.817767">
<ele>1655.0</ele>
<speed>13.9</speed>
<course>138.2</course>
<desc>Speed 13.9 km/h Distance 28.09 km</desc>
<time>2011-09-24T11:44:47.05</time>
<name>7601</name>
</trkpt>
<trkpt lat="41.791242" lon="-1.817737">
<ele>1655.5</ele>
<speed>13.8</speed>
<course>143.3</course>
<desc>Speed 13.8 km/h Distance 28.09 km</desc>
<time>2011-09-24T11:44:48.05</time>
<name>7602</name>
</trkpt>
<trkpt lat="41.791213" lon="-1.817708">
<ele>1656.0</ele>
<speed>13.8</speed>
<course>144.9</course>
<desc>Speed 13.8 km/h Distance 28.10 km</desc>
<time>2011-09-24T11:44:49.05</time>
<name>7603</name>
</trkpt>
<trkpt lat="41.791183" lon="-1.817680">
<ele>1656.5</ele>
<speed>14.5</speed>
<course>140.2</course>
<desc>Speed 14.5 km/h Distance 28.10 km</desc>
<time>2011-09-24T11:44:50.05</time>
<name>7604</name>
</trkpt>
<trkpt lat="41.791155" lon="-1.817648">
<ele>1657.0</ele>
<speed>14.7</speed>
<course>146.3</course>
<desc>Speed 14.7 km/h Distance 28.10 km</desc>
<time>2011-09-24T11:44:51.05</time>
<name>7605</name>
</trkpt>
<trkpt lat="41.791123" lon="-1.817620">
<ele>1657.0</ele>
<speed>15.2</speed>
<course>150.8</course>
<desc>Speed 15.2 km/h Distance 28.11 km</desc>
<time>2011-09-24T11:44:52.05</time>
<name>7606</name>
</trkpt>
<trkpt lat="41.791090" lon="-1.817595">
<ele>1657.5</ele>
<speed>14.5</speed>
<course>145.1</course>
<desc>Speed 14.5 km/h Distance 28.11 km</desc>
<time>2011-09-24T11:44:53.05</time>
<name>7607</name>
</trkpt>
<trkpt lat="41.791063" lon="-1.817570">
<ele>1658.0</ele>
<speed>13.3</speed>
<course>156.3</course>
<desc>Speed 13.3 km/h Distance 28.12 km</desc>
<time>2011-09-24T11:44:54.05</time>
<name>7608</name>
</trkpt>
<trkpt lat="41.791035" lon="-1.817553">
<ele>1657.5</ele>
<speed>12.1</speed>
<course>152.2</course>
<desc>Speed 12.1 km/h Distance 28.12 km</desc>
<time>2011-09-24T11:44:55.05</time>
<name>7609</name>
</trkpt>
<trkpt lat="41.791007" lon="-1.817533">
<ele>1658.0</ele>
<speed>12.7</speed>
<course>149.9</course>
<desc>Speed 12.7 km/h Distance 28.12 km</desc>
<time>2011-09-24T11:44:56.05</time>
<name>7610</name>
</trkpt>
<trkpt lat="41.790977" lon="-1.817510">
<ele>1658.0</ele>
<speed>13.4</speed>
<course>161.4</course>
<desc>Speed 13.4 km/h Distance 28.13 km</desc>
<time>2011-09-24T11:44:57.04</time>
<name>7611</name>
</trkpt>
<trkpt lat="41.790943" lon="-1.817495">
<ele>1658.0</ele>
<speed>13.7</speed>
<course>177.9</course>
<desc>Speed 13.7 km/h Distance 28.13 km</desc>
<time>2011-09-24T11:44:58.04</time>
<name>7612</name>
</trkpt>
<trkpt lat="41.790907" lon="-1.817493">
<ele>1658.5</ele>
<speed>14.1</speed>
<course>174.0</course>
<desc>Speed 14.1 km/h Distance 28.13 km</desc>
<time>2011-09-24T11:44:59.04</time>
<name>7613</name>
</trkpt>
<trkpt lat="41.790872" lon="-1.817488">
<ele>1659.0</ele>
<speed>14.1</speed>
<course>176.2</course>
<desc>Speed 14.1 km/h Distance 28.14 km</desc>
<time>2011-09-24T11:45:00.05</time>
<name>7614</name>
</trkpt>
<trkpt lat="41.790837" lon="-1.817485">
<ele>1659.0</ele>
<speed>14.0</speed>
<course>178.1</course>
<desc>Speed 14.0 km/h Distance 28.14 km</desc>
<time>2011-09-24T11:45:01.04</time>
<name>7615</name>
</trkpt>
<trkpt lat="41.790798" lon="-1.817483">
<ele>1659.0</ele>
<speed>14.5</speed>
<course>180.0</course>
<desc>Speed 14.5 km/h Distance 28.15 km</desc>
<time>2011-09-24T11:45:02.05</time>
<name>7616</name>
</trkpt>
<trkpt lat="41.790765" lon="-1.817483">
<ele>1659.0</ele>
<speed>13.4</speed>
<course>175.9</course>
<desc>Speed 13.4 km/h Distance 28.15 km</desc>
<time>2011-09-24T11:45:03.05</time>
<name>7617</name>
</trkpt>
<trkpt lat="41.790728" lon="-1.817480">
<ele>1660.0</ele>
<speed>14.5</speed>
<course>185.9</course>
<desc>Speed 14.5 km/h Distance 28.15 km</desc>
<time>2011-09-24T11:45:04.05</time>
<name>7618</name>
</trkpt>
<trkpt lat="41.790692" lon="-1.817485">
<ele>1659.5</ele>
<speed>14.9</speed>
<course>173.1</course>
<desc>Speed 14.9 km/h Distance 28.16 km</desc>
<time>2011-09-24T11:45:05.05</time>
<name>7619</name>
</trkpt>
<trkpt lat="41.790650" lon="-1.817478">
<ele>1660.0</ele>
<speed>16.5</speed>
<course>174.7</course>
<desc>Speed 16.5 km/h Distance 28.16 km</desc>
<time>2011-09-24T11:45:06.05</time>
<name>7620</name>
</trkpt>
<trkpt lat="41.790610" lon="-1.817473">
<ele>1660.5</ele>
<speed>16.1</speed>
<course>178.1</course>
<desc>Speed 16.1 km/h Distance 28.17 km</desc>
<time>2011-09-24T11:45:07.04</time>
<name>7621</name>
</trkpt>
<trkpt lat="41.790572" lon="-1.817472">
<ele>1661.0</ele>
<speed>14.7</speed>
<course>184.4</course>
<desc>Speed 14.7 km/h Distance 28.17 km</desc>
<time>2011-09-24T11:45:08.04</time>
<name>7622</name>
</trkpt>
<trkpt lat="41.790540" lon="-1.817475">
<ele>1661.5</ele>
<speed>12.5</speed>
<course>182.9</course>
<desc>Speed 12.5 km/h Distance 28.18 km</desc>
<time>2011-09-24T11:45:09.05</time>
<name>7623</name>
</trkpt>
<trkpt lat="41.790513" lon="-1.817477">
<ele>1662.0</ele>
<speed>10.8</speed>
<course>195.2</course>
<desc>Speed 10.8 km/h Distance 28.18 km</desc>
<time>2011-09-24T11:45:10.05</time>
<name>7624</name>
</trkpt>
<trkpt lat="41.790495" lon="-1.817483">
<ele>1661.5</ele>
<speed>7.4</speed>
<course>198.7</course>
<desc>Speed 7.4 km/h Distance 28.18 km</desc>
<time>2011-09-24T11:45:11.05</time>
<name>7625</name>
</trkpt>
<trkpt lat="41.790477" lon="-1.817492">
<ele>1662.0</ele>
<speed>7.8</speed>
<course>177.3</course>
<desc>Speed 7.8 km/h Distance 28.18 km</desc>
<time>2011-09-24T11:45:12.04</time>
<name>7626</name>
</trkpt>
<trkpt lat="41.790457" lon="-1.817490">
<ele>1662.0</ele>
<speed>7.5</speed>
<course>167.8</course>
<desc>Speed 7.5 km/h Distance 28.19 km</desc>
<time>2011-09-24T11:45:13.04</time>
<name>7627</name>
</trkpt>
<trkpt lat="41.790433" lon="-1.817483">
<ele>1662.0</ele>
<speed>9.5</speed>
<course>174.3</course>
<desc>Speed 9.5 km/h Distance 28.19 km</desc>
<time>2011-09-24T11:45:14.04</time>
<name>7628</name>
</trkpt>
<trkpt lat="41.790408" lon="-1.817480">
<ele>1662.0</ele>
<speed>10.2</speed>
<course>177.8</course>
<desc>Speed 10.2 km/h Distance 28.19 km</desc>
<time>2011-09-24T11:45:15.04</time>
<name>7629</name>
</trkpt>
<trkpt lat="41.790385" lon="-1.817478">
<ele>1662.5</ele>
<speed>9.3</speed>
<course>186.4</course>
<desc>Speed 9.3 km/h Distance 28.19 km</desc>
<time>2011-09-24T11:45:16.03</time>
<name>7630</name>
</trkpt>
<trkpt lat="41.790363" lon="-1.817482">
<ele>1662.0</ele>
<speed>8.8</speed>
<course>194.0</course>
<desc>Speed 8.8 km/h Distance 28.20 km</desc>
<time>2011-09-24T11:45:17.03</time>
<name>7631</name>
</trkpt>
<trkpt lat="41.790348" lon="-1.817487">
<ele>1662.0</ele>
<speed>6.3</speed>
<course>191.2</course>
<desc>Speed 6.3 km/h Distance 28.20 km</desc>
<time>2011-09-24T11:45:18.03</time>
<name>7632</name>
</trkpt>
<trkpt lat="41.790337" lon="-1.817490">
<ele>1662.5</ele>
<speed>4.8</speed>
<course>206.1</course>
<desc>Speed 4.8 km/h Distance 28.20 km</desc>
<time>2011-09-24T11:45:19.03</time>
<name>7633</name>
</trkpt>
<trkpt lat="41.790327" lon="-1.817497">
<ele>1662.5</ele>
<speed>5.0</speed>
<course>197.4</course>
<desc>Speed 5.0 km/h Distance 28.20 km</desc>
<time>2011-09-24T11:45:20.03</time>
<name>7634</name>
</trkpt>
<trkpt lat="41.790315" lon="-1.817502">
<ele>1663.0</ele>
<speed>5.6</speed>
<course>198.4</course>
<desc>Speed 5.6 km/h Distance 28.20 km</desc>
<time>2011-09-24T11:45:21.03</time>
<name>7635</name>
</trkpt>
<trkpt lat="41.790300" lon="-1.817508">
<ele>1663.0</ele>
<speed>6.3</speed>
<course>175.0</course>
<desc>Speed 6.3 km/h Distance 28.20 km</desc>
<time>2011-09-24T11:45:22.03</time>
<name>7636</name>
</trkpt>
<trkpt lat="41.790283" lon="-1.817507">
<ele>1663.5</ele>
<speed>6.5</speed>
<course>131.7</course>
<desc>Speed 6.5 km/h Distance 28.21 km</desc>
<time>2011-09-24T11:45:23.03</time>
<name>7637</name>
</trkpt>
<trkpt lat="41.790273" lon="-1.817492">
<ele>1664.0</ele>
<speed>6.0</speed>
<course>56.1</course>
<desc>Speed 6.0 km/h Distance 28.21 km</desc>
<time>2011-09-24T11:45:24.02</time>
<name>7638</name>
</trkpt>
<trkpt lat="41.790283" lon="-1.817472">
<ele>1663.5</ele>
<speed>7.8</speed>
<course>335.8</course>
<desc>Speed 7.8 km/h Distance 28.21 km</desc>
<time>2011-09-24T11:45:25.04</time>
<name>7639</name>
</trkpt>
<trkpt lat="41.790300" lon="-1.817482">
<ele>1665.0</ele>
<speed>7.7</speed>
<course>347.1</course>
<desc>Speed 7.7 km/h Distance 28.21 km</desc>
<time>2011-09-24T11:45:26.03</time>
<name>7640</name>
</trkpt>
<trkpt lat="41.790317" lon="-1.817487">
<ele>1664.5</ele>
<speed>6.7</speed>
<course>349.7</course>
<desc>Speed 6.7 km/h Distance 28.21 km</desc>
<time>2011-09-24T11:45:27.03</time>
<name>7641</name>
</trkpt>
<trkpt lat="41.790330" lon="-1.817490">
<ele>1664.5</ele>
<speed>6.3</speed>
<course>349.7</course>
<desc>Speed 6.3 km/h Distance 28.21 km</desc>
<time>2011-09-24T11:45:28.03</time>
<name>7642</name>
</trkpt>
<trkpt lat="41.790343" lon="-1.817493">
<ele>1664.5</ele>
<speed>5.4</speed>
<course>3.9</course>
<desc>Speed 5.4 km/h Distance 28.22 km</desc>
<time>2011-09-24T11:45:29.02</time>
<name>7643</name>
</trkpt>
<trkpt lat="41.790357" lon="-1.817493">
<ele>1665.0</ele>
<speed>5.4</speed>
<course>5.3</course>
<desc>Speed 5.4 km/h Distance 28.22 km</desc>
<time>2011-09-24T11:45:30.03</time>
<name>7644</name>
</trkpt>
<trkpt lat="41.790370" lon="-1.817492">
<ele>1665.0</ele>
<speed>5.8</speed>
<course>11.4</course>
<desc>Speed 5.8 km/h Distance 28.22 km</desc>
<time>2011-09-24T11:45:31.02</time>
<name>7645</name>
</trkpt>
<trkpt lat="41.790388" lon="-1.817487">
<ele>1665.0</ele>
<speed>6.6</speed>
<course>12.6</course>
<desc>Speed 6.6 km/h Distance 28.22 km</desc>
<time>2011-09-24T11:45:32.02</time>
<name>7646</name>
</trkpt>
<trkpt lat="41.790405" lon="-1.817482">
<ele>1665.5</ele>
<speed>7.0</speed>
<course>12.6</course>
<desc>Speed 7.0 km/h Distance 28.22 km</desc>
<time>2011-09-24T11:45:33.02</time>
<name>7647</name>
</trkpt>
<trkpt lat="41.790415" lon="-1.817478">
<ele>1665.5</ele>
<speed>4.1</speed>
<course>348.8</course>
<desc>Speed 4.1 km/h Distance 28.22 km</desc>
<time>2011-09-24T11:45:34.02</time>
<name>7648</name>
</trkpt>
<trkpt lat="41.790427" lon="-1.817482">
<ele>1665.5</ele>
<speed>4.7</speed>
<course>349.7</course>
<desc>Speed 4.7 km/h Distance 28.23 km</desc>
<time>2011-09-24T11:45:35.02</time>
<name>7649</name>
</trkpt>
<trkpt lat="41.790440" lon="-1.817485">
<ele>1665.5</ele>
<speed>5.1</speed>
<course>351.2</course>
<desc>Speed 5.1 km/h Distance 28.23 km</desc>
<time>2011-09-24T11:45:36.02</time>
<name>7650</name>
</trkpt>
<trkpt lat="41.790455" lon="-1.817488">
<ele>1665.5</ele>
<speed>5.7</speed>
<course>356.2</course>
<desc>Speed 5.7 km/h Distance 28.23 km</desc>
<time>2011-09-24T11:45:37.02</time>
<name>7651</name>
</trkpt>
<trkpt lat="41.790470" lon="-1.817490">
<ele>1665.5</ele>
<speed>6.0</speed>
<course>0.0</course>
<desc>Speed 6.0 km/h Distance 28.23 km</desc>
<time>2011-09-24T11:45:38.02</time>
<name>7652</name>
</trkpt>
<trkpt lat="41.790487" lon="-1.817490">
<ele>1665.5</ele>
<speed>6.2</speed>
<course>355.3</course>
<desc>Speed 6.2 km/h Distance 28.23 km</desc>
<time>2011-09-24T11:45:39.02</time>
<name>7653</name>
</trkpt>
<trkpt lat="41.790498" lon="-1.817492">
<ele>1664.5</ele>
<speed>4.5</speed>
<course>327.6</course>
<desc>Speed 4.5 km/h Distance 28.23 km</desc>
<time>2011-09-24T11:45:40.02</time>
<name>7654</name>
</trkpt>
<trkpt lat="41.790510" lon="-1.817502">
<ele>1664.5</ele>
<speed>5.1</speed>
<course>349.7</course>
<desc>Speed 5.1 km/h Distance 28.23 km</desc>
<time>2011-09-24T11:45:41.02</time>
<name>7655</name>
</trkpt>
<trkpt lat="41.790523" lon="-1.817505">
<ele>1664.0</ele>
<speed>4.9</speed>
<course>342.2</course>
<desc>Speed 4.9 km/h Distance 28.24 km</desc>
<time>2011-09-24T11:45:42.02</time>
<name>7656</name>
</trkpt>
<trkpt lat="41.790535" lon="-1.817510">
<ele>1663.5</ele>
<speed>5.1</speed>
<course>20.5</course>
<desc>Speed 5.1 km/h Distance 28.24 km</desc>
<time>2011-09-24T11:45:43.01</time>
<name>7657</name>
</trkpt>
<trkpt lat="41.790548" lon="-1.817503">
<ele>1664.0</ele>
<speed>5.1</speed>
<course>354.7</course>
<desc>Speed 5.1 km/h Distance 28.24 km</desc>
<time>2011-09-24T11:45:44.01</time>
<name>7658</name>
</trkpt>
<trkpt lat="41.790562" lon="-1.817505">
<ele>1663.5</ele>
<speed>5.1</speed>
<course>4.7</course>
<desc>Speed 5.1 km/h Distance 28.24 km</desc>
<time>2011-09-24T11:45:45.01</time>
<name>7659</name>
</trkpt>
<trkpt lat="41.790573" lon="-1.817503">
<ele>1663.5</ele>
<speed>5.0</speed>
<course>355.3</course>
<desc>Speed 5.0 km/h Distance 28.24 km</desc>
<time>2011-09-24T11:45:46.02</time>
<name>7660</name>
</trkpt>
<trkpt lat="41.790585" lon="-1.817505">
<ele>1663.5</ele>
<speed>4.1</speed>
<course>13.4</course>
<desc>Speed 4.1 km/h Distance 28.24 km</desc>
<time>2011-09-24T11:45:47.01</time>
<name>7661</name>
</trkpt>
<trkpt lat="41.790595" lon="-1.817502">
<ele>1663.5</ele>
<speed>4.0</speed>
<course>1.9</course>
<desc>Speed 4.0 km/h Distance 28.24 km</desc>
<time>2011-09-24T11:45:48.01</time>
<name>7662</name>
</trkpt>
<trkpt lat="41.790610" lon="-1.817502">
<ele>1663.5</ele>
<speed>5.4</speed>
<course>5.0</course>
<desc>Speed 5.4 km/h Distance 28.25 km</desc>
<time>2011-09-24T11:45:49.01</time>
<name>7663</name>
</trkpt>
<trkpt lat="41.790625" lon="-1.817500">
<ele>1663.5</ele>
<speed>5.9</speed>
<course>40.5</course>
<desc>Speed 5.9 km/h Distance 28.25 km</desc>
<time>2011-09-24T11:45:50.01</time>
<name>7664</name>
</trkpt>
<trkpt lat="41.790637" lon="-1.817487">
<ele>1664.0</ele>
<speed>6.3</speed>
<course>20.5</course>
<desc>Speed 6.3 km/h Distance 28.25 km</desc>
<time>2011-09-24T11:45:51.01</time>
<name>7665</name>
</trkpt>
<trkpt lat="41.790650" lon="-1.817480">
<ele>1664.5</ele>
<speed>5.0</speed>
<course>10.3</course>
<desc>Speed 5.0 km/h Distance 28.25 km</desc>
<time>2011-09-24T11:45:52.01</time>
<name>7666</name>
</trkpt>
<trkpt lat="41.790663" lon="-1.817477">
<ele>1665.0</ele>
<speed>5.2</speed>
<course>320.0</course>
<desc>Speed 5.2 km/h Distance 28.25 km</desc>
<time>2011-09-24T11:45:53.01</time>
<name>7667</name>
</trkpt>
<trkpt lat="41.790677" lon="-1.817492">
<ele>1664.0</ele>
<speed>6.6</speed>
<course>233.4</course>
<desc>Speed 6.6 km/h Distance 28.25 km</desc>
<time>2011-09-24T11:45:54.01</time>
<name>7668</name>
</trkpt>
<trkpt lat="41.790668" lon="-1.817507">
<ele>1665.5</ele>
<speed>6.3</speed>
<course>240.8</course>
<desc>Speed 6.3 km/h Distance 28.26 km</desc>
<time>2011-09-24T11:45:55.01</time>
<name>7669</name>
</trkpt>
<trkpt lat="41.790660" lon="-1.817527">
<ele>1665.0</ele>
<speed>7.1</speed>
<course>197.8</course>
<desc>Speed 7.1 km/h Distance 28.26 km</desc>
<time>2011-09-24T11:45:56.01</time>
<name>7670</name>
</trkpt>
<trkpt lat="41.790648" lon="-1.817532">
<ele>1665.0</ele>
<speed>5.4</speed>
<course>159.5</course>
<desc>Speed 5.4 km/h Distance 28.26 km</desc>
<time>2011-09-24T11:45:57.01</time>
<name>7671</name>
</trkpt>
<trkpt lat="41.790635" lon="-1.817525">
<ele>1665.0</ele>
<speed>6.3</speed>
<course>195.6</course>
<desc>Speed 6.3 km/h Distance 28.26 km</desc>
<time>2011-09-24T11:45:58.00</time>
<name>7672</name>
</trkpt>
<trkpt lat="41.790622" lon="-1.817530">
<ele>1664.5</ele>
<speed>6.2</speed>
<course>172.1</course>
<desc>Speed 6.2 km/h Distance 28.26 km</desc>
<time>2011-09-24T11:45:59.00</time>
<name>7673</name>
</trkpt>
<trkpt lat="41.790603" lon="-1.817527">
<ele>1664.5</ele>
<speed>7.8</speed>
<course>182.8</course>
<desc>Speed 7.8 km/h Distance 28.26 km</desc>
<time>2011-09-24T11:46:00.01</time>
<name>7674</name>
</trkpt>
<trkpt lat="41.790587" lon="-1.817528">
<ele>1664.5</ele>
<speed>6.9</speed>
<course>182.8</course>
<desc>Speed 6.9 km/h Distance 28.27 km</desc>
<time>2011-09-24T11:46:01.01</time>
<name>7675</name>
</trkpt>
<trkpt lat="41.790570" lon="-1.817530">
<ele>1664.5</ele>
<speed>7.4</speed>
<course>177.5</course>
<desc>Speed 7.4 km/h Distance 28.27 km</desc>
<time>2011-09-24T11:46:02.01</time>
<name>7676</name>
</trkpt>
<trkpt lat="41.790552" lon="-1.817528">
<ele>1665.5</ele>
<speed>7.7</speed>
<course>192.6</course>
<desc>Speed 7.7 km/h Distance 28.27 km</desc>
<time>2011-09-24T11:46:03.01</time>
<name>7677</name>
</trkpt>
<trkpt lat="41.790535" lon="-1.817533">
<ele>1665.0</ele>
<speed>7.3</speed>
<course>177.3</course>
<desc>Speed 7.3 km/h Distance 28.27 km</desc>
<time>2011-09-24T11:46:04.01</time>
<name>7678</name>
</trkpt>
<trkpt lat="41.790515" lon="-1.817532">
<ele>1665.5</ele>
<speed>7.8</speed>
<course>176.3</course>
<desc>Speed 7.8 km/h Distance 28.27 km</desc>
<time>2011-09-24T11:46:05.00</time>
<name>7679</name>
</trkpt>
<trkpt lat="41.790495" lon="-1.817530">
<ele>1665.5</ele>
<speed>8.5</speed>
<course>177.0</course>
<desc>Speed 8.5 km/h Distance 28.28 km</desc>
<time>2011-09-24T11:46:06.01</time>
<name>7680</name>
</trkpt>
<trkpt lat="41.790472" lon="-1.817528">
<ele>1666.5</ele>
<speed>9.2</speed>
<course>172.6</course>
<desc>Speed 9.2 km/h Distance 28.28 km</desc>
<time>2011-09-24T11:46:07.01</time>
<name>7681</name>
</trkpt>
<trkpt lat="41.790452" lon="-1.817525">
<ele>1666.5</ele>
<speed>8.6</speed>
<course>167.1</course>
<desc>Speed 8.6 km/h Distance 28.28 km</desc>
<time>2011-09-24T11:46:08.01</time>
<name>7682</name>
</trkpt>
<trkpt lat="41.790430" lon="-1.817518">
<ele>1667.0</ele>
<speed>8.3</speed>
<course>152.4</course>
<desc>Speed 8.3 km/h Distance 28.28 km</desc>
<time>2011-09-24T11:46:09.01</time>
<name>7683</name>
</trkpt>
<trkpt lat="41.790413" lon="-1.817507">
<ele>1667.5</ele>
<speed>7.1</speed>
<course>176.3</course>
<desc>Speed 7.1 km/h Distance 28.29 km</desc>
<time>2011-09-24T11:46:09.99</time>
<name>7684</name>
</trkpt>
<trkpt lat="41.790395" lon="-1.817505">
<ele>1667.5</ele>
<speed>8.0</speed>
<course>175.5</course>
<desc>Speed 8.0 km/h Distance 28.29 km</desc>
<time>2011-09-24T11:46:11.00</time>
<name>7685</name>
</trkpt>
<trkpt lat="41.790377" lon="-1.817503">
<ele>1668.5</ele>
<speed>7.5</speed>
<course>176.3</course>
<desc>Speed 7.5 km/h Distance 28.29 km</desc>
<time>2011-09-24T11:46:11.99</time>
<name>7686</name>
</trkpt>
<trkpt lat="41.790357" lon="-1.817502">
<ele>1668.5</ele>
<speed>7.8</speed>
<course>163.2</course>
<desc>Speed 7.8 km/h Distance 28.29 km</desc>
<time>2011-09-24T11:46:13.00</time>
<name>7687</name>
</trkpt>
<trkpt lat="41.790340" lon="-1.817495">
<ele>1669.0</ele>
<speed>7.2</speed>
<course>176.2</course>
<desc>Speed 7.2 km/h Distance 28.29 km</desc>
<time>2011-09-24T11:46:13.99</time>
<name>7688</name>
</trkpt>
<trkpt lat="41.790325" lon="-1.817493">
<ele>1669.0</ele>
<speed>6.6</speed>
<course>177.2</course>
<desc>Speed 6.6 km/h Distance 28.30 km</desc>
<time>2011-09-24T11:46:14.99</time>
<name>7689</name>
</trkpt>
<trkpt lat="41.790308" lon="-1.817493">
<ele>1669.0</ele>
<speed>6.6</speed>
<course>178.8</course>
<desc>Speed 6.6 km/h Distance 28.30 km</desc>
<time>2011-09-24T11:46:15.99</time>
<name>7690</name>
</trkpt>
<trkpt lat="41.790295" lon="-1.817493">
<ele>1669.5</ele>
<speed>6.0</speed>
<course>175.0</course>
<desc>Speed 6.0 km/h Distance 28.30 km</desc>
<time>2011-09-24T11:46:16.99</time>
<name>7691</name>
</trkpt>
<trkpt lat="41.790280" lon="-1.817492">
<ele>1669.5</ele>
<speed>5.5</speed>
<course>177.8</course>
<desc>Speed 5.5 km/h Distance 28.30 km</desc>
<time>2011-09-24T11:46:17.99</time>
<name>7692</name>
</trkpt>
<trkpt lat="41.790268" lon="-1.817492">
<ele>1669.5</ele>
<speed>5.0</speed>
<course>180.0</course>
<desc>Speed 5.0 km/h Distance 28.30 km</desc>
<time>2011-09-24T11:46:18.99</time>
<name>7693</name>
</trkpt>
<trkpt lat="41.790257" lon="-1.817492">
<ele>1670.0</ele>
<speed>4.7</speed>
<course>163.2</course>
<desc>Speed 4.7 km/h Distance 28.30 km</desc>
<time>2011-09-24T11:46:19.99</time>
<name>7694</name>
</trkpt>
<trkpt lat="41.790248" lon="-1.817488">
<ele>1670.5</ele>
<speed>3.7</speed>
<course>175.0</course>
<desc>Speed 3.7 km/h Distance 28.30 km</desc>
<time>2011-09-24T11:46:20.99</time>
<name>7695</name>
</trkpt>
<trkpt lat="41.790240" lon="-1.817488">
<ele>1670.5</ele>
<speed>4.0</speed>
<course>173.6</course>
<desc>Speed 4.0 km/h Distance 28.31 km</desc>
<time>2011-09-24T11:46:21.99</time>
<name>7696</name>
</trkpt>
<trkpt lat="41.790227" lon="-1.817487">
<ele>1670.5</ele>
<speed>5.1</speed>
<course>304.3</course>
<desc>Speed 5.1 km/h Distance 28.31 km</desc>
<time>2011-09-24T11:46:22.99</time>
<name>7697</name>
</trkpt>
<trkpt lat="41.790228" lon="-1.817490">
<ele>1670.0</ele>
<speed>2.2</speed>
<course>194.2</course>
<desc>Speed 2.2 km/h Distance 28.31 km</desc>
<time>2011-09-24T11:46:23.99</time>
<name>7698</name>
</trkpt>
<trkpt lat="41.790218" lon="-1.817493">
<ele>1669.5</ele>
<speed>4.7</speed>
<course>191.4</course>
<desc>Speed 4.7 km/h Distance 28.31 km</desc>
<time>2011-09-24T11:46:24.99</time>
<name>7699</name>
</trkpt>
<trkpt lat="41.790200" lon="-1.817498">
<ele>1668.5</ele>
<speed>7.5</speed>
<course>195.2</course>
<desc>Speed 7.5 km/h Distance 28.31 km</desc>
<time>2011-09-24T11:46:25.99</time>
<name>7700</name>
</trkpt>
<trkpt lat="41.790187" lon="-1.817503">
<ele>1667.5</ele>
<speed>6.4</speed>
<course>202.6</course>
<desc>Speed 6.4 km/h Distance 28.31 km</desc>
<time>2011-09-24T11:46:26.99</time>
<name>7701</name>
</trkpt>
<trkpt lat="41.790172" lon="-1.817512">
<ele>1666.0</ele>
<speed>6.4</speed>
<course>216.6</course>
<desc>Speed 6.4 km/h Distance 28.31 km</desc>
<time>2011-09-24T11:46:27.99</time>
<name>7702</name>
</trkpt>
<trkpt lat="41.790162" lon="-1.817522">
<ele>1665.0</ele>
<speed>6.0</speed>
<course>216.6</course>
<desc>Speed 6.0 km/h Distance 28.32 km</desc>
<time>2011-09-24T11:46:28.99</time>
<name>7703</name>
</trkpt>
<trkpt lat="41.790150" lon="-1.817533">
<ele>1664.0</ele>
<speed>5.8</speed>
<course>224.7</course>
<desc>Speed 5.8 km/h Distance 28.32 km</desc>
<time>2011-09-24T11:46:29.99</time>
<name>7704</name>
</trkpt>
<trkpt lat="41.790140" lon="-1.817547">
<ele>1662.5</ele>
<speed>5.7</speed>
<course>0.0</course>
<desc>Speed 5.7 km/h Distance 28.32 km</desc>
<time>2011-09-24T11:46:30.99</time>
<name>7705</name>
</trkpt>
<trkpt lat="41.790150" lon="-1.817547">
<ele>1661.5</ele>
<speed>4.1</speed>
<course>146.7</course>
<desc>Speed 4.1 km/h Distance 28.32 km</desc>
<time>2011-09-24T11:46:32.00</time>
<name>7706</name>
</trkpt>
<trkpt lat="41.790093" lon="-1.817497">
<ele>1660.0</ele>
<speed>14.7</speed>
<course>149.5</course>
<desc>Speed 14.7 km/h Distance 28.33 km</desc>
<time>2011-09-24T11:46:33.98</time>
<name>7707</name>
</trkpt>
<trkpt lat="41.790062" lon="-1.817472">
<ele>1659.5</ele>
<speed>14.9</speed>
<course>152.3</course>
<desc>Speed 14.9 km/h Distance 28.33 km</desc>
<time>2011-09-24T11:46:34.99</time>
<name>7708</name>
</trkpt>
<trkpt lat="41.790017" lon="-1.817440">
<ele>1659.0</ele>
<speed>19.9</speed>
<course>151.8</course>
<desc>Speed 19.9 km/h Distance 28.34 km</desc>
<time>2011-09-24T11:46:35.99</time>
<name>7709</name>
</trkpt>
<trkpt lat="41.789975" lon="-1.817410">
<ele>1658.5</ele>
<speed>19.0</speed>
<course>153.1</course>
<desc>Speed 19.0 km/h Distance 28.34 km</desc>
<time>2011-09-24T11:46:36.99</time>
<name>7710</name>
</trkpt>
<trkpt lat="41.789933" lon="-1.817382">
<ele>1657.0</ele>
<speed>7.3</speed>
<course>136.1</course>
<desc>Speed 7.3 km/h Distance 28.35 km</desc>
<time>2011-09-24T11:46:38.98</time>
<name>7711</name>
</trkpt>
<trkpt lat="41.789922" lon="-1.817367">
<ele>1656.5</ele>
<speed>5.6</speed>
<course>148.2</course>
<desc>Speed 5.6 km/h Distance 28.35 km</desc>
<time>2011-09-24T11:46:39.98</time>
<name>7712</name>
</trkpt>
<trkpt lat="41.789912" lon="-1.817358">
<ele>1656.0</ele>
<speed>4.0</speed>
<course>153.6</course>
<desc>Speed 4.0 km/h Distance 28.35 km</desc>
<time>2011-09-24T11:46:40.98</time>
<name>7713</name>
</trkpt>
<trkpt lat="41.789902" lon="-1.817352">
<ele>1656.0</ele>
<speed>4.1</speed>
<course>156.1</course>
<desc>Speed 4.1 km/h Distance 28.35 km</desc>
<time>2011-09-24T11:46:41.99</time>
<name>7714</name>
</trkpt>
<trkpt lat="41.789893" lon="-1.817347">
<ele>1655.5</ele>
<speed>3.2</speed>
<course>155.0</course>
<desc>Speed 3.2 km/h Distance 28.35 km</desc>
<time>2011-09-24T11:46:42.98</time>
<name>7715</name>
</trkpt>
<trkpt lat="41.789880" lon="-1.817338">
<ele>1654.5</ele>
<speed>5.1</speed>
<course>116.6</course>
<desc>Speed 5.1 km/h Distance 28.35 km</desc>
<time>2011-09-24T11:46:43.98</time>
<name>7716</name>
</trkpt>
<trkpt lat="41.789875" lon="-1.817325">
<ele>1655.0</ele>
<speed>4.1</speed>
<course>129.9</course>
<desc>Speed 4.1 km/h Distance 28.36 km</desc>
<time>2011-09-24T11:46:44.97</time>
<name>7717</name>
</trkpt>
<trkpt lat="41.789867" lon="-1.817312">
<ele>1654.5</ele>
<speed>4.7</speed>
<course>155.0</course>
<desc>Speed 4.7 km/h Distance 28.36 km</desc>
<time>2011-09-24T11:46:45.97</time>
<name>7718</name>
</trkpt>
<trkpt lat="41.789853" lon="-1.817303">
<ele>1654.0</ele>
<speed>6.0</speed>
<course>143.2</course>
<desc>Speed 6.0 km/h Distance 28.36 km</desc>
<time>2011-09-24T11:46:46.98</time>
<name>7719</name>
</trkpt>
<trkpt lat="41.789847" lon="-1.817297">
<ele>1653.5</ele>
<speed>3.2</speed>
<course>151.7</course>
<desc>Speed 3.2 km/h Distance 28.36 km</desc>
<time>2011-09-24T11:46:47.97</time>
<name>7720</name>
</trkpt>
<trkpt lat="41.789835" lon="-1.817288">
<ele>1653.0</ele>
<speed>4.8</speed>
<course>146.8</course>
<desc>Speed 4.8 km/h Distance 28.36 km</desc>
<time>2011-09-24T11:46:48.97</time>
<name>7721</name>
</trkpt>
<trkpt lat="41.789822" lon="-1.817277">
<ele>1651.5</ele>
<speed>6.0</speed>
<course>123.9</course>
<desc>Speed 6.0 km/h Distance 28.36 km</desc>
<time>2011-09-24T11:46:49.97</time>
<name>7722</name>
</trkpt>
<trkpt lat="41.789810" lon="-1.817253">
<ele>1651.0</ele>
<speed>8.3</speed>
<course>120.0</course>
<desc>Speed 8.3 km/h Distance 28.37 km</desc>
<time>2011-09-24T11:46:50.97</time>
<name>7723</name>
</trkpt>
<trkpt lat="41.789805" lon="-1.817242">
<ele>1650.0</ele>
<speed>3.6</speed>
<course>313.2</course>
<desc>Speed 3.6 km/h Distance 28.37 km</desc>
<time>2011-09-24T11:46:51.97</time>
<name>7724</name>
</trkpt>
<trkpt lat="41.789817" lon="-1.817258">
<ele>1650.5</ele>
<speed>7.4</speed>
<course>130.0</course>
<desc>Speed 7.4 km/h Distance 28.37 km</desc>
<time>2011-09-24T11:46:52.97</time>
<name>7725</name>
</trkpt>
<trkpt lat="41.789800" lon="-1.817232">
<ele>1650.5</ele>
<speed>9.9</speed>
<course>140.0</course>
<desc>Speed 9.9 km/h Distance 28.37 km</desc>
<time>2011-09-24T11:46:53.96</time>
<name>7726</name>
</trkpt>
<trkpt lat="41.789787" lon="-1.817217">
<ele>1650.0</ele>
<speed>6.2</speed>
<course>133.6</course>
<desc>Speed 6.2 km/h Distance 28.37 km</desc>
<time>2011-09-24T11:46:54.96</time>
<name>7727</name>
</trkpt>
<trkpt lat="41.789778" lon="-1.817205">
<ele>1650.0</ele>
<speed>4.1</speed>
<course>90.0</course>
<desc>Speed 4.1 km/h Distance 28.37 km</desc>
<time>2011-09-24T11:46:55.97</time>
<name>7728</name>
</trkpt>
<trkpt lat="41.789778" lon="-1.817190">
<ele>1649.5</ele>
<speed>3.6</speed>
<course>110.9</course>
<desc>Speed 3.6 km/h Distance 28.38 km</desc>
<time>2011-09-24T11:46:56.96</time>
<name>7729</name>
</trkpt>
<trkpt lat="41.789775" lon="-1.817178">
<ele>1649.5</ele>
<speed>3.6</speed>
<course>135.2</course>
<desc>Speed 3.6 km/h Distance 28.38 km</desc>
<time>2011-09-24T11:46:57.96</time>
<name>7730</name>
</trkpt>
<trkpt lat="41.789760" lon="-1.817158">
<ele>1649.5</ele>
<speed>6.0</speed>
<course>143.4</course>
<desc>Speed 6.0 km/h Distance 28.38 km</desc>
<time>2011-09-24T11:46:58.96</time>
<name>7731</name>
</trkpt>
<trkpt lat="41.789748" lon="-1.817147">
<ele>1649.0</ele>
<speed>5.2</speed>
<course>131.7</course>
<desc>Speed 5.2 km/h Distance 28.38 km</desc>
<time>2011-09-24T11:46:59.97</time>
<name>7732</name>
</trkpt>
<trkpt lat="41.789738" lon="-1.817132">
<ele>1648.5</ele>
<speed>5.4</speed>
<course>134.3</course>
<desc>Speed 5.4 km/h Distance 28.38 km</desc>
<time>2011-09-24T11:47:00.96</time>
<name>7733</name>
</trkpt>
<trkpt lat="41.789725" lon="-1.817113">
<ele>1649.0</ele>
<speed>6.7</speed>
<course>115.6</course>
<desc>Speed 6.7 km/h Distance 28.38 km</desc>
<time>2011-09-24T11:47:01.96</time>
<name>7734</name>
</trkpt>
<trkpt lat="41.789717" lon="-1.817090">
<ele>1648.0</ele>
<speed>7.5</speed>
<course>115.1</course>
<desc>Speed 7.5 km/h Distance 28.39 km</desc>
<time>2011-09-24T11:47:02.97</time>
<name>7735</name>
</trkpt>
<trkpt lat="41.789705" lon="-1.817057">
<ele>1648.0</ele>
<speed>9.8</speed>
<course>132.4</course>
<desc>Speed 9.8 km/h Distance 28.39 km</desc>
<time>2011-09-24T11:47:03.96</time>
<name>7736</name>
</trkpt>
<trkpt lat="41.789677" lon="-1.817015">
<ele>1648.0</ele>
<speed>15.2</speed>
<course>139.0</course>
<desc>Speed 15.2 km/h Distance 28.39 km</desc>
<time>2011-09-24T11:47:04.96</time>
<name>7737</name>
</trkpt>
<trkpt lat="41.789647" lon="-1.816980">
<ele>1648.5</ele>
<speed>15.2</speed>
<course>133.2</course>
<desc>Speed 15.2 km/h Distance 28.40 km</desc>
<time>2011-09-24T11:47:05.96</time>
<name>7738</name>
</trkpt>
<trkpt lat="41.789623" lon="-1.816947">
<ele>1648.0</ele>
<speed>12.6</speed>
<course>111.5</course>
<desc>Speed 12.6 km/h Distance 28.40 km</desc>
<time>2011-09-24T11:47:06.96</time>
<name>7739</name>
</trkpt>
<trkpt lat="41.789615" lon="-1.816918">
<ele>1647.5</ele>
<speed>7.8</speed>
<course>127.5</course>
<desc>Speed 7.8 km/h Distance 28.41 km</desc>
<time>2011-09-24T11:47:07.96</time>
<name>7740</name>
</trkpt>
<trkpt lat="41.789602" lon="-1.816895">
<ele>1646.0</ele>
<speed>8.0</speed>
<course>135.2</course>
<desc>Speed 8.0 km/h Distance 28.41 km</desc>
<time>2011-09-24T11:47:08.95</time>
<name>7741</name>
</trkpt>
<trkpt lat="41.789587" lon="-1.816875">
<ele>1645.5</ele>
<speed>7.7</speed>
<course>138.2</course>
<desc>Speed 7.7 km/h Distance 28.41 km</desc>
<time>2011-09-24T11:47:09.95</time>
<name>7742</name>
</trkpt>
<trkpt lat="41.789570" lon="-1.816855">
<ele>1644.0</ele>
<speed>8.0</speed>
<course>118.3</course>
<desc>Speed 8.0 km/h Distance 28.41 km</desc>
<time>2011-09-24T11:47:10.95</time>
<name>7743</name>
</trkpt>
<trkpt lat="41.789560" lon="-1.816830">
<ele>1643.0</ele>
<speed>8.6</speed>
<course>128.3</course>
<desc>Speed 8.6 km/h Distance 28.41 km</desc>
<time>2011-09-24T11:47:11.95</time>
<name>7744</name>
</trkpt>
<trkpt lat="41.789543" lon="-1.816802">
<ele>1642.5</ele>
<speed>10.5</speed>
<course>129.3</course>
<desc>Speed 10.5 km/h Distance 28.42 km</desc>
<time>2011-09-24T11:47:12.95</time>
<name>7745</name>
</trkpt>
<trkpt lat="41.789525" lon="-1.816772">
<ele>1641.5</ele>
<speed>11.3</speed>
<course>117.3</course>
<desc>Speed 11.3 km/h Distance 28.42 km</desc>
<time>2011-09-24T11:47:13.96</time>
<name>7746</name>
</trkpt>
<trkpt lat="41.789517" lon="-1.816750">
<ele>1640.0</ele>
<speed>7.1</speed>
<course>129.7</course>
<desc>Speed 7.1 km/h Distance 28.42 km</desc>
<time>2011-09-24T11:47:14.95</time>
<name>7747</name>
</trkpt>
<trkpt lat="41.789495" lon="-1.816715">
<ele>1640.0</ele>
<speed>12.1</speed>
<course>133.2</course>
<desc>Speed 12.1 km/h Distance 28.43 km</desc>
<time>2011-09-24T11:47:15.96</time>
<name>7748</name>
</trkpt>
<trkpt lat="41.789472" lon="-1.816682">
<ele>1639.0</ele>
<speed>11.8</speed>
<course>160.3</course>
<desc>Speed 11.8 km/h Distance 28.43 km</desc>
<time>2011-09-24T11:47:16.95</time>
<name>7749</name>
</trkpt>
<trkpt lat="41.789427" lon="-1.816660">
<ele>1638.5</ele>
<speed>13.8</speed>
<course>152.0</course>
<desc>Speed 13.8 km/h Distance 28.44 km</desc>
<time>2011-09-24T11:47:18.94</time>
<name>7750</name>
</trkpt>
<trkpt lat="41.789403" lon="-1.816643">
<ele>1638.0</ele>
<speed>9.7</speed>
<course>152.2</course>
<desc>Speed 9.7 km/h Distance 28.44 km</desc>
<time>2011-09-24T11:47:19.94</time>
<name>7751</name>
</trkpt>
<trkpt lat="41.789375" lon="-1.816623">
<ele>1637.5</ele>
<speed>11.2</speed>
<course>152.3</course>
<desc>Speed 11.2 km/h Distance 28.44 km</desc>
<time>2011-09-24T11:47:20.95</time>
<name>7752</name>
</trkpt>
<trkpt lat="41.789347" lon="-1.816603">
<ele>1637.5</ele>
<speed>11.8</speed>
<course>169.6</course>
<desc>Speed 11.8 km/h Distance 28.45 km</desc>
<time>2011-09-24T11:47:21.95</time>
<name>7753</name>
</trkpt>
<trkpt lat="41.789313" lon="-1.816595">
<ele>1637.0</ele>
<speed>11.8</speed>
<course>158.5</course>
<desc>Speed 11.8 km/h Distance 28.45 km</desc>
<time>2011-09-24T11:47:22.95</time>
<name>7754</name>
</trkpt>
<trkpt lat="41.789285" lon="-1.816580">
<ele>1637.0</ele>
<speed>10.5</speed>
<course>128.9</course>
<desc>Speed 10.5 km/h Distance 28.45 km</desc>
<time>2011-09-24T11:47:23.94</time>
<name>7755</name>
</trkpt>
<trkpt lat="41.789270" lon="-1.816555">
<ele>1638.5</ele>
<speed>8.4</speed>
<course>133.8</course>
<desc>Speed 8.4 km/h Distance 28.46 km</desc>
<time>2011-09-24T11:47:24.95</time>
<name>7756</name>
</trkpt>
<trkpt lat="41.789253" lon="-1.816532">
<ele>1638.0</ele>
<speed>8.4</speed>
<course>165.8</course>
<desc>Speed 8.4 km/h Distance 28.46 km</desc>
<time>2011-09-24T11:47:25.94</time>
<name>7757</name>
</trkpt>
<trkpt lat="41.789233" lon="-1.816525">
<ele>1635.5</ele>
<speed>6.6</speed>
<course>175.0</course>
<desc>Speed 6.6 km/h Distance 28.46 km</desc>
<time>2011-09-24T11:47:26.95</time>
<name>7758</name>
</trkpt>
<trkpt lat="41.789218" lon="-1.816523">
<ele>1633.5</ele>
<speed>4.1</speed>
<course>157.4</course>
<desc>Speed 4.1 km/h Distance 28.46 km</desc>
<time>2011-09-24T11:47:27.95</time>
<name>7759</name>
</trkpt>
<trkpt lat="41.789203" lon="-1.816515">
<ele>1632.5</ele>
<speed>4.4</speed>
<course>163.2</course>
<desc>Speed 4.4 km/h Distance 28.46 km</desc>
<time>2011-09-24T11:47:28.94</time>
<name>7760</name>
</trkpt>
<trkpt lat="41.789187" lon="-1.816508">
<ele>1631.5</ele>
<speed>4.9</speed>
<course>165.8</course>
<desc>Speed 4.9 km/h Distance 28.47 km</desc>
<time>2011-09-24T11:47:29.94</time>
<name>7761</name>
</trkpt>
<trkpt lat="41.789167" lon="-1.816502">
<ele>1630.5</ele>
<speed>6.4</speed>
<course>166.9</course>
<desc>Speed 6.4 km/h Distance 28.47 km</desc>
<time>2011-09-24T11:47:30.93</time>
<name>7762</name>
</trkpt>
<trkpt lat="41.789145" lon="-1.816495">
<ele>1629.5</ele>
<speed>7.0</speed>
<course>246.0</course>
<desc>Speed 7.0 km/h Distance 28.47 km</desc>
<time>2011-09-24T11:47:31.93</time>
<name>7763</name>
</trkpt>
<trkpt lat="41.789142" lon="-1.816505">
<ele>1629.0</ele>
<speed>3.3</speed>
<course>192.2</course>
<desc>Speed 3.3 km/h Distance 28.47 km</desc>
<time>2011-09-24T11:47:32.93</time>
<name>7764</name>
</trkpt>
<trkpt lat="41.789125" lon="-1.816510">
<ele>1627.0</ele>
<speed>6.3</speed>
<course>171.2</course>
<desc>Speed 6.3 km/h Distance 28.47 km</desc>
<time>2011-09-24T11:47:33.93</time>
<name>7765</name>
</trkpt>
<trkpt lat="41.789110" lon="-1.816507">
<ele>1625.5</ele>
<speed>4.7</speed>
<course>157.4</course>
<desc>Speed 4.7 km/h Distance 28.48 km</desc>
<time>2011-09-24T11:47:34.93</time>
<name>7766</name>
</trkpt>
<trkpt lat="41.789095" lon="-1.816498">
<ele>1624.0</ele>
<speed>4.8</speed>
<course>148.3</course>
<desc>Speed 4.8 km/h Distance 28.48 km</desc>
<time>2011-09-24T11:47:35.94</time>
<name>7767</name>
</trkpt>
<trkpt lat="41.789057" lon="-1.816467">
<ele>1623.0</ele>
<speed>4.6</speed>
<course>157.3</course>
<desc>Speed 4.6 km/h Distance 28.48 km</desc>
<time>2011-09-24T11:47:37.93</time>
<name>7768</name>
</trkpt>
<trkpt lat="41.789030" lon="-1.816452">
<ele>1623.0</ele>
<speed>10.0</speed>
<course>158.1</course>
<desc>Speed 10.0 km/h Distance 28.49 km</desc>
<time>2011-09-24T11:47:38.94</time>
<name>7769</name>
</trkpt>
<trkpt lat="41.789008" lon="-1.816440">
<ele>1623.0</ele>
<speed>8.9</speed>
<course>153.6</course>
<desc>Speed 8.9 km/h Distance 28.49 km</desc>
<time>2011-09-24T11:47:39.93</time>
<name>7770</name>
</trkpt>
<trkpt lat="41.788988" lon="-1.816427">
<ele>1622.5</ele>
<speed>7.5</speed>
<course>139.9</course>
<desc>Speed 7.5 km/h Distance 28.49 km</desc>
<time>2011-09-24T11:47:40.92</time>
<name>7771</name>
</trkpt>
<trkpt lat="41.788910" lon="-1.816338">
<ele>1629.0</ele>
<speed>1.5</speed>
<course>140.3</course>
<desc>Speed 1.5 km/h Distance 28.50 km</desc>
<time>2011-09-24T11:47:42.92</time>
<name>7772</name>
</trkpt>
<trkpt lat="41.788807" lon="-1.816223">
<ele>1637.0</ele>
<speed>5.0</speed>
<course>160.6</course>
<desc>Speed 5.0 km/h Distance 28.52 km</desc>
<time>2011-09-24T11:47:45.93</time>
<name>7773</name>
</trkpt>
<trkpt lat="41.788778" lon="-1.816210">
<ele>1638.5</ele>
<speed>3.4</speed>
<course>157.0</course>
<desc>Speed 3.4 km/h Distance 28.52 km</desc>
<time>2011-09-24T11:47:46.94</time>
<name>7774</name>
</trkpt>
<trkpt lat="41.788755" lon="-1.816197">
<ele>1639.5</ele>
<speed>2.8</speed>
<course>55.7</course>
<desc>Speed 2.8 km/h Distance 28.52 km</desc>
<time>2011-09-24T11:47:47.93</time>
<name>7775</name>
</trkpt>
<trkpt lat="41.788757" lon="-1.816193">
<ele>1641.0</ele>
<speed>1.8</speed>
<course>261.5</course>
<desc>Speed 1.8 km/h Distance 28.52 km</desc>
<time>2011-09-24T11:47:48.93</time>
<name>7776</name>
</trkpt>
<trkpt lat="41.788755" lon="-1.816208">
<ele>1640.5</ele>
<speed>4.9</speed>
<course>177.8</course>
<desc>Speed 4.9 km/h Distance 28.52 km</desc>
<time>2011-09-24T11:47:49.92</time>
<name>7777</name>
</trkpt>
<trkpt lat="41.788743" lon="-1.816208">
<ele>1640.5</ele>
<speed>2.7</speed>
<course>144.5</course>
<desc>Speed 2.7 km/h Distance 28.53 km</desc>
<time>2011-09-24T11:47:50.93</time>
<name>7778</name>
</trkpt>
<trkpt lat="41.788740" lon="-1.816205">
<ele>1640.0</ele>
<speed>1.3</speed>
<course>130.3</course>
<desc>Speed 1.3 km/h Distance 28.53 km</desc>
<time>2011-09-24T11:47:51.92</time>
<name>7779</name>
</trkpt>
<trkpt lat="41.788562" lon="-1.815923">
<ele>1669.5</ele>
<speed>1.5</speed>
<course>339.0</course>
<desc>Speed 1.5 km/h Distance 28.53 km</desc>
<time>2011-09-24T11:47:53.79</time>
<name>7780</name>
</trkpt>
<trkpt lat="41.788568" lon="-1.815927">
<ele>1668.5</ele>
<speed>2.3</speed>
<course>333.4</course>
<desc>Speed 2.3 km/h Distance 28.53 km</desc>
<time>2011-09-24T11:47:54.79</time>
<name>7781</name>
</trkpt>
<trkpt lat="41.788583" lon="-1.815937">
<ele>1668.5</ele>
<speed>5.3</speed>
<course>298.3</course>
<desc>Speed 5.3 km/h Distance 28.53 km</desc>
<time>2011-09-24T11:47:55.78</time>
<name>7782</name>
</trkpt>
<trkpt lat="41.788590" lon="-1.815953">
<ele>1668.5</ele>
<speed>5.3</speed>
<course>303.9</course>
<desc>Speed 5.3 km/h Distance 28.53 km</desc>
<time>2011-09-24T11:47:56.79</time>
<name>7783</name>
</trkpt>
<trkpt lat="41.788600" lon="-1.815973">
<ele>1668.5</ele>
<speed>5.9</speed>
<course>320.0</course>
<desc>Speed 5.9 km/h Distance 28.53 km</desc>
<time>2011-09-24T11:47:57.79</time>
<name>7784</name>
</trkpt>
<trkpt lat="41.788613" lon="-1.815988">
<ele>1668.0</ele>
<speed>7.5</speed>
<course>299.3</course>
<desc>Speed 7.5 km/h Distance 28.53 km</desc>
<time>2011-09-24T11:47:58.79</time>
<name>7785</name>
</trkpt>
<trkpt lat="41.788622" lon="-1.816008">
<ele>1667.0</ele>
<speed>6.0</speed>
<course>327.6</course>
<desc>Speed 6.0 km/h Distance 28.54 km</desc>
<time>2011-09-24T11:47:59.87</time>
<name>7786</name>
</trkpt>
<trkpt lat="41.788633" lon="-1.816018">
<ele>1665.0</ele>
<speed>7.1</speed>
<course>353.4</course>
<desc>Speed 7.1 km/h Distance 28.54 km</desc>
<time>2011-09-24T11:48:00.79</time>
<name>7787</name>
</trkpt>
<trkpt lat="41.788653" lon="-1.816022">
<ele>1664.0</ele>
<speed>8.8</speed>
<course>350.0</course>
<desc>Speed 8.8 km/h Distance 28.54 km</desc>
<time>2011-09-24T11:48:01.78</time>
<name>7788</name>
</trkpt>
<trkpt lat="41.788675" lon="-1.816027">
<ele>1662.0</ele>
<speed>10.0</speed>
<course>4.1</course>
<desc>Speed 10.0 km/h Distance 28.54 km</desc>
<time>2011-09-24T11:48:02.78</time>
<name>7789</name>
</trkpt>
<trkpt lat="41.788692" lon="-1.816025">
<ele>1659.5</ele>
<speed>9.1</speed>
<course>337.1</course>
<desc>Speed 9.1 km/h Distance 28.54 km</desc>
<time>2011-09-24T11:48:03.78</time>
<name>7790</name>
</trkpt>
<trkpt lat="41.788703" lon="-1.816032">
<ele>1658.0</ele>
<speed>6.8</speed>
<course>339.5</course>
<desc>Speed 6.8 km/h Distance 28.55 km</desc>
<time>2011-09-24T11:48:04.77</time>
<name>7791</name>
</trkpt>
<trkpt lat="41.788717" lon="-1.816038">
<ele>1656.0</ele>
<speed>6.9</speed>
<course>333.6</course>
<desc>Speed 6.9 km/h Distance 28.55 km</desc>
<time>2011-09-24T11:48:05.78</time>
<name>7792</name>
</trkpt>
<trkpt lat="41.788732" lon="-1.816048">
<ele>1655.0</ele>
<speed>7.6</speed>
<course>333.6</course>
<desc>Speed 7.6 km/h Distance 28.55 km</desc>
<time>2011-09-24T11:48:06.77</time>
<name>7793</name>
</trkpt>
<trkpt lat="41.788742" lon="-1.816055">
<ele>1654.0</ele>
<speed>4.9</speed>
<course>6.3</course>
<desc>Speed 4.9 km/h Distance 28.55 km</desc>
<time>2011-09-24T11:48:07.90</time>
<name>7794</name>
</trkpt>
<trkpt lat="41.788753" lon="-1.816053">
<ele>1653.0</ele>
<speed>3.4</speed>
<course>11.4</course>
<desc>Speed 3.4 km/h Distance 28.55 km</desc>
<time>2011-09-24T11:48:08.77</time>
<name>7795</name>
</trkpt>
<trkpt lat="41.788772" lon="-1.816048">
<ele>1652.0</ele>
<speed>6.0</speed>
<course>346.0</course>
<desc>Speed 6.0 km/h Distance 28.55 km</desc>
<time>2011-09-24T11:48:09.76</time>
<name>7796</name>
</trkpt>
<trkpt lat="41.788787" lon="-1.816053">
<ele>1651.5</ele>
<speed>6.8</speed>
<course>308.8</course>
<desc>Speed 6.8 km/h Distance 28.56 km</desc>
<time>2011-09-24T11:48:10.77</time>
<name>7797</name>
</trkpt>
<trkpt lat="41.788797" lon="-1.816070">
<ele>1651.0</ele>
<speed>6.3</speed>
<course>333.6</course>
<desc>Speed 6.3 km/h Distance 28.56 km</desc>
<time>2011-09-24T11:48:11.76</time>
<name>7798</name>
</trkpt>
<trkpt lat="41.788817" lon="-1.816083">
<ele>1651.0</ele>
<speed>8.2</speed>
<course>329.9</course>
<desc>Speed 8.2 km/h Distance 28.56 km</desc>
<time>2011-09-24T11:48:12.76</time>
<name>7799</name>
</trkpt>
<trkpt lat="41.788832" lon="-1.816095">
<ele>1650.5</ele>
<speed>6.3</speed>
<course>331.9</course>
<desc>Speed 6.3 km/h Distance 28.56 km</desc>
<time>2011-09-24T11:48:13.76</time>
<name>7800</name>
</trkpt>
<trkpt lat="41.788843" lon="-1.816103">
<ele>1650.5</ele>
<speed>5.1</speed>
<course>303.8</course>
<desc>Speed 5.1 km/h Distance 28.56 km</desc>
<time>2011-09-24T11:48:14.76</time>
<name>7801</name>
</trkpt>
<trkpt lat="41.788855" lon="-1.816127">
<ele>1649.5</ele>
<speed>8.2</speed>
<course>300.4</course>
<desc>Speed 8.2 km/h Distance 28.57 km</desc>
<time>2011-09-24T11:48:15.85</time>
<name>7802</name>
</trkpt>
<trkpt lat="41.788867" lon="-1.816153">
<ele>1649.5</ele>
<speed>8.8</speed>
<course>316.5</course>
<desc>Speed 8.8 km/h Distance 28.57 km</desc>
<time>2011-09-24T11:48:16.75</time>
<name>7803</name>
</trkpt>
<trkpt lat="41.788885" lon="-1.816177">
<ele>1650.5</ele>
<speed>9.2</speed>
<course>330.2</course>
<desc>Speed 9.2 km/h Distance 28.57 km</desc>
<time>2011-09-24T11:48:17.76</time>
<name>7804</name>
</trkpt>
<trkpt lat="41.788907" lon="-1.816193">
<ele>1650.5</ele>
<speed>8.3</speed>
<course>328.2</course>
<desc>Speed 8.3 km/h Distance 28.57 km</desc>
<time>2011-09-24T11:48:18.75</time>
<name>7805</name>
</trkpt>
<trkpt lat="41.788927" lon="-1.816210">
<ele>1650.0</ele>
<speed>7.7</speed>
<course>319.0</course>
<desc>Speed 7.7 km/h Distance 28.58 km</desc>
<time>2011-09-24T11:48:19.75</time>
<name>7806</name>
</trkpt>
<trkpt lat="41.788947" lon="-1.816233">
<ele>1650.0</ele>
<speed>8.7</speed>
<course>333.6</course>
<desc>Speed 8.7 km/h Distance 28.58 km</desc>
<time>2011-09-24T11:48:20.75</time>
<name>7807</name>
</trkpt>
<trkpt lat="41.788972" lon="-1.816250">
<ele>1650.5</ele>
<speed>8.9</speed>
<course>335.0</course>
<desc>Speed 8.9 km/h Distance 28.58 km</desc>
<time>2011-09-24T11:48:21.74</time>
<name>7808</name>
</trkpt>
<trkpt lat="41.788998" lon="-1.816267">
<ele>1650.5</ele>
<speed>9.6</speed>
<course>316.5</course>
<desc>Speed 9.6 km/h Distance 28.59 km</desc>
<time>2011-09-24T11:48:22.75</time>
<name>7809</name>
</trkpt>
<trkpt lat="41.789017" lon="-1.816290">
<ele>1650.5</ele>
<speed>8.6</speed>
<course>302.1</course>
<desc>Speed 8.6 km/h Distance 28.59 km</desc>
<time>2011-09-24T11:48:23.84</time>
<name>7810</name>
</trkpt>
<trkpt lat="41.789028" lon="-1.816315">
<ele>1650.5</ele>
<speed>8.4</speed>
<course>307.4</course>
<desc>Speed 8.4 km/h Distance 28.59 km</desc>
<time>2011-09-24T11:48:24.74</time>
<name>7811</name>
</trkpt>
<trkpt lat="41.789042" lon="-1.816338">
<ele>1650.5</ele>
<speed>7.8</speed>
<course>315.9</course>
<desc>Speed 7.8 km/h Distance 28.59 km</desc>
<time>2011-09-24T11:48:25.74</time>
<name>7812</name>
</trkpt>
<trkpt lat="41.789058" lon="-1.816360">
<ele>1650.0</ele>
<speed>8.2</speed>
<course>311.8</course>
<desc>Speed 8.2 km/h Distance 28.60 km</desc>
<time>2011-09-24T11:48:26.74</time>
<name>7813</name>
</trkpt>
<trkpt lat="41.789072" lon="-1.816380">
<ele>1650.0</ele>
<speed>6.8</speed>
<course>306.2</course>
<desc>Speed 6.8 km/h Distance 28.60 km</desc>
<time>2011-09-24T11:48:27.74</time>
<name>7814</name>
</trkpt>
<trkpt lat="41.789082" lon="-1.816398">
<ele>1650.0</ele>
<speed>6.2</speed>
<course>320.7</course>
<desc>Speed 6.2 km/h Distance 28.60 km</desc>
<time>2011-09-24T11:48:28.75</time>
<name>7815</name>
</trkpt>
<trkpt lat="41.789098" lon="-1.816417">
<ele>1650.0</ele>
<speed>8.0</speed>
<course>315.2</course>
<desc>Speed 8.0 km/h Distance 28.60 km</desc>
<time>2011-09-24T11:48:29.74</time>
<name>7816</name>
</trkpt>
<trkpt lat="41.789113" lon="-1.816437">
<ele>1649.5</ele>
<speed>7.6</speed>
<course>315.2</course>
<desc>Speed 7.6 km/h Distance 28.61 km</desc>
<time>2011-09-24T11:48:30.73</time>
<name>7817</name>
</trkpt>
<trkpt lat="41.789128" lon="-1.816457">
<ele>1649.5</ele>
<speed>7.7</speed>
<course>308.0</course>
<desc>Speed 7.7 km/h Distance 28.61 km</desc>
<time>2011-09-24T11:48:31.82</time>
<name>7818</name>
</trkpt>
<trkpt lat="41.789140" lon="-1.816477">
<ele>1649.5</ele>
<speed>7.1</speed>
<course>291.9</course>
<desc>Speed 7.1 km/h Distance 28.61 km</desc>
<time>2011-09-24T11:48:32.74</time>
<name>7819</name>
</trkpt>
<trkpt lat="41.789145" lon="-1.816493">
<ele>1650.0</ele>
<speed>5.1</speed>
<course>301.3</course>
<desc>Speed 5.1 km/h Distance 28.61 km</desc>
<time>2011-09-24T11:48:33.73</time>
<name>7820</name>
</trkpt>
<trkpt lat="41.789153" lon="-1.816512">
<ele>1649.5</ele>
<speed>5.6</speed>
<course>323.3</course>
<desc>Speed 5.6 km/h Distance 28.61 km</desc>
<time>2011-09-24T11:48:34.73</time>
<name>7821</name>
</trkpt>
<trkpt lat="41.789170" lon="-1.816528">
<ele>1650.0</ele>
<speed>7.7</speed>
<course>307.5</course>
<desc>Speed 7.7 km/h Distance 28.62 km</desc>
<time>2011-09-24T11:48:35.73</time>
<name>7822</name>
</trkpt>
<trkpt lat="41.789183" lon="-1.816552">
<ele>1650.0</ele>
<speed>7.2</speed>
<course>296.7</course>
<desc>Speed 7.2 km/h Distance 28.62 km</desc>
<time>2011-09-24T11:48:36.73</time>
<name>7823</name>
</trkpt>
<trkpt lat="41.789193" lon="-1.816578">
<ele>1650.5</ele>
<speed>7.7</speed>
<course>287.5</course>
<desc>Speed 7.7 km/h Distance 28.62 km</desc>
<time>2011-09-24T11:48:37.72</time>
<name>7824</name>
</trkpt>
<trkpt lat="41.789200" lon="-1.816607">
<ele>1651.0</ele>
<speed>7.7</speed>
<course>295.3</course>
<desc>Speed 7.7 km/h Distance 28.62 km</desc>
<time>2011-09-24T11:48:38.72</time>
<name>7825</name>
</trkpt>
<trkpt lat="41.789210" lon="-1.816635">
<ele>1651.0</ele>
<speed>8.1</speed>
<course>314.5</course>
<desc>Speed 8.1 km/h Distance 28.63 km</desc>
<time>2011-09-24T11:48:39.82</time>
<name>7826</name>
</trkpt>
<trkpt lat="41.789228" lon="-1.816660">
<ele>1651.5</ele>
<speed>8.3</speed>
<course>325.5</course>
<desc>Speed 8.3 km/h Distance 28.63 km</desc>
<time>2011-09-24T11:48:40.72</time>
<name>7827</name>
</trkpt>
<trkpt lat="41.789250" lon="-1.816680">
<ele>1652.0</ele>
<speed>8.3</speed>
<course>317.1</course>
<desc>Speed 8.3 km/h Distance 28.63 km</desc>
<time>2011-09-24T11:48:41.72</time>
<name>7828</name>
</trkpt>
<trkpt lat="41.789270" lon="-1.816705">
<ele>1652.5</ele>
<speed>8.1</speed>
<course>311.8</course>
<desc>Speed 8.1 km/h Distance 28.63 km</desc>
<time>2011-09-24T11:48:42.72</time>
<name>7829</name>
</trkpt>
<trkpt lat="41.789287" lon="-1.816730">
<ele>1653.0</ele>
<speed>8.2</speed>
<course>311.8</course>
<desc>Speed 8.2 km/h Distance 28.64 km</desc>
<time>2011-09-24T11:48:43.71</time>
<name>7830</name>
</trkpt>
<trkpt lat="41.789303" lon="-1.816755">
<ele>1653.5</ele>
<speed>7.8</speed>
<course>325.9</course>
<desc>Speed 7.8 km/h Distance 28.64 km</desc>
<time>2011-09-24T11:48:44.72</time>
<name>7831</name>
</trkpt>
<trkpt lat="41.789322" lon="-1.816772">
<ele>1654.0</ele>
<speed>7.0</speed>
<course>330.0</course>
<desc>Speed 7.0 km/h Distance 28.64 km</desc>
<time>2011-09-24T11:48:45.71</time>
<name>7832</name>
</trkpt>
<trkpt lat="41.789358" lon="-1.816800">
<ele>1654.0</ele>
<speed>6.2</speed>
<course>317.1</course>
<desc>Speed 6.2 km/h Distance 28.65 km</desc>
<time>2011-09-24T11:48:47.79</time>
<name>7833</name>
</trkpt>
<trkpt lat="41.789378" lon="-1.816825">
<ele>1656.0</ele>
<speed>4.9</speed>
<course>320.2</course>
<desc>Speed 4.9 km/h Distance 28.65 km</desc>
<time>2011-09-24T11:48:49.71</time>
<name>7834</name>
</trkpt>
<trkpt lat="41.789407" lon="-1.816857">
<ele>1657.0</ele>
<speed>6.2</speed>
<course>323.4</course>
<desc>Speed 6.2 km/h Distance 28.65 km</desc>
<time>2011-09-24T11:48:51.71</time>
<name>7835</name>
</trkpt>
<trkpt lat="41.789417" lon="-1.816867">
<ele>1657.5</ele>
<speed>4.6</speed>
<course>312.0</course>
<desc>Speed 4.6 km/h Distance 28.66 km</desc>
<time>2011-09-24T11:48:52.71</time>
<name>7836</name>
</trkpt>
<trkpt lat="41.789420" lon="-1.816872">
<ele>1657.5</ele>
<speed>1.5</speed>
<course>317.5</course>
<desc>Speed 1.5 km/h Distance 28.66 km</desc>
<time>2011-09-24T11:48:53.70</time>
<name>7837</name>
</trkpt>
<trkpt lat="41.789427" lon="-1.816880">
<ele>1658.5</ele>
<speed>3.3</speed>
<course>322.8</course>
<desc>Speed 3.3 km/h Distance 28.66 km</desc>
<time>2011-09-24T11:48:54.70</time>
<name>7838</name>
</trkpt>
<trkpt lat="41.789432" lon="-1.816885">
<ele>1659.0</ele>
<speed>2.2</speed>
<course>4.4</course>
<desc>Speed 2.2 km/h Distance 28.66 km</desc>
<time>2011-09-24T11:48:55.71</time>
<name>7839</name>
</trkpt>
<trkpt lat="41.789442" lon="-1.816885">
<ele>1659.0</ele>
<speed>4.2</speed>
<course>339.0</course>
<desc>Speed 4.2 km/h Distance 28.66 km</desc>
<time>2011-09-24T11:48:56.70</time>
<name>7840</name>
</trkpt>
<trkpt lat="41.789448" lon="-1.816888">
<ele>1658.5</ele>
<speed>2.4</speed>
<course>311.8</course>
<desc>Speed 2.4 km/h Distance 28.66 km</desc>
<time>2011-09-24T11:48:57.70</time>
<name>7841</name>
</trkpt>
<trkpt lat="41.789455" lon="-1.816898">
<ele>1658.0</ele>
<speed>1.2</speed>
<course>312.0</course>
<desc>Speed 1.2 km/h Distance 28.66 km</desc>
<time>2011-09-24T11:48:58.70</time>
<name>7842</name>
</trkpt>
<trkpt lat="41.789462" lon="-1.816908">
<ele>1658.0</ele>
<speed>3.7</speed>
<course>335.2</course>
<desc>Speed 3.7 km/h Distance 28.66 km</desc>
<time>2011-09-24T11:48:59.69</time>
<name>7843</name>
</trkpt>
<trkpt lat="41.789475" lon="-1.816917">
<ele>1658.5</ele>
<speed>3.7</speed>
<course>332.5</course>
<desc>Speed 3.7 km/h Distance 28.66 km</desc>
<time>2011-09-24T11:49:00.69</time>
<name>7844</name>
</trkpt>
<trkpt lat="41.789492" lon="-1.816928">
<ele>1658.5</ele>
<speed>5.1</speed>
<course>326.8</course>
<desc>Speed 5.1 km/h Distance 28.67 km</desc>
<time>2011-09-24T11:49:01.69</time>
<name>7845</name>
</trkpt>
<trkpt lat="41.789505" lon="-1.816940">
<ele>1659.0</ele>
<speed>4.1</speed>
<course>315.3</course>
<desc>Speed 4.1 km/h Distance 28.67 km</desc>
<time>2011-09-24T11:49:02.69</time>
<name>7846</name>
</trkpt>
<trkpt lat="41.789515" lon="-1.816953">
<ele>1659.0</ele>
<speed>4.9</speed>
<course>303.9</course>
<desc>Speed 4.9 km/h Distance 28.67 km</desc>
<time>2011-09-24T11:49:03.70</time>
<name>7847</name>
</trkpt>
<trkpt lat="41.789522" lon="-1.816967">
<ele>1660.0</ele>
<speed>3.7</speed>
<course>323.4</course>
<desc>Speed 3.7 km/h Distance 28.67 km</desc>
<time>2011-09-24T11:49:04.70</time>
<name>7848</name>
</trkpt>
<trkpt lat="41.789533" lon="-1.816978">
<ele>1661.0</ele>
<speed>4.5</speed>
<course>318.3</course>
<desc>Speed 4.5 km/h Distance 28.67 km</desc>
<time>2011-09-24T11:49:05.70</time>
<name>7849</name>
</trkpt>
<trkpt lat="41.789542" lon="-1.816988">
<ele>1661.0</ele>
<speed>3.9</speed>
<course>323.2</course>
<desc>Speed 3.9 km/h Distance 28.67 km</desc>
<time>2011-09-24T11:49:06.70</time>
<name>7850</name>
</trkpt>
<trkpt lat="41.789548" lon="-1.816995">
<ele>1661.5</ele>
<speed>2.4</speed>
<course>315.3</course>
<desc>Speed 2.4 km/h Distance 28.67 km</desc>
<time>2011-09-24T11:49:07.69</time>
<name>7851</name>
</trkpt>
<trkpt lat="41.789553" lon="-1.817002">
<ele>1662.0</ele>
<speed>2.5</speed>
<course>307.6</course>
<desc>Speed 2.5 km/h Distance 28.67 km</desc>
<time>2011-09-24T11:49:08.69</time>
<name>7852</name>
</trkpt>
<trkpt lat="41.789560" lon="-1.817013">
<ele>1661.5</ele>
<speed>3.9</speed>
<course>312.0</course>
<desc>Speed 3.9 km/h Distance 28.68 km</desc>
<time>2011-09-24T11:49:09.70</time>
<name>7853</name>
</trkpt>
<trkpt lat="41.789567" lon="-1.817023">
<ele>1662.0</ele>
<speed>3.3</speed>
<course>335.0</course>
<desc>Speed 3.3 km/h Distance 28.68 km</desc>
<time>2011-09-24T11:49:10.69</time>
<name>7854</name>
</trkpt>
<trkpt lat="41.789580" lon="-1.817032">
<ele>1662.5</ele>
<speed>4.9</speed>
<course>329.6</course>
<desc>Speed 4.9 km/h Distance 28.68 km</desc>
<time>2011-09-24T11:49:11.70</time>
<name>7855</name>
</trkpt>
<trkpt lat="41.789588" lon="-1.817038">
<ele>1663.0</ele>
<speed>3.3</speed>
<course>311.8</course>
<desc>Speed 3.3 km/h Distance 28.68 km</desc>
<time>2011-09-24T11:49:12.69</time>
<name>7856</name>
</trkpt>
<trkpt lat="41.789595" lon="-1.817048">
<ele>1663.5</ele>
<speed>2.9</speed>
<course>288.6</course>
<desc>Speed 2.9 km/h Distance 28.68 km</desc>
<time>2011-09-24T11:49:13.69</time>
<name>7857</name>
</trkpt>
<trkpt lat="41.789600" lon="-1.817068">
<ele>1663.0</ele>
<speed>6.4</speed>
<course>296.7</course>
<desc>Speed 6.4 km/h Distance 28.68 km</desc>
<time>2011-09-24T11:49:14.69</time>
<name>7858</name>
</trkpt>
<trkpt lat="41.789605" lon="-1.817082">
<ele>1662.5</ele>
<speed>4.1</speed>
<course>311.7</course>
<desc>Speed 4.1 km/h Distance 28.68 km</desc>
<time>2011-09-24T11:49:15.69</time>
<name>7859</name>
</trkpt>
<trkpt lat="41.789612" lon="-1.817092">
<ele>1663.0</ele>
<speed>3.3</speed>
<course>328.9</course>
<desc>Speed 3.3 km/h Distance 28.68 km</desc>
<time>2011-09-24T11:49:16.68</time>
<name>7860</name>
</trkpt>
<trkpt lat="41.789620" lon="-1.817098">
<ele>1663.0</ele>
<speed>2.9</speed>
<course>323.6</course>
<desc>Speed 2.9 km/h Distance 28.69 km</desc>
<time>2011-09-24T11:49:17.69</time>
<name>7861</name>
</trkpt>
<trkpt lat="41.789627" lon="-1.817105">
<ele>1663.0</ele>
<speed>2.9</speed>
<course>317.0</course>
<desc>Speed 2.9 km/h Distance 28.69 km</desc>
<time>2011-09-24T11:49:18.69</time>
<name>7862</name>
</trkpt>
<trkpt lat="41.789633" lon="-1.817113">
<ele>1663.0</ele>
<speed>3.5</speed>
<course>323.1</course>
<desc>Speed 3.5 km/h Distance 28.69 km</desc>
<time>2011-09-24T11:49:19.68</time>
<name>7863</name>
</trkpt>
<trkpt lat="41.789642" lon="-1.817122">
<ele>1663.5</ele>
<speed>3.2</speed>
<course>323.6</course>
<desc>Speed 3.2 km/h Distance 28.69 km</desc>
<time>2011-09-24T11:49:20.69</time>
<name>7864</name>
</trkpt>
<trkpt lat="41.789652" lon="-1.817132">
<ele>1663.0</ele>
<speed>3.6</speed>
<course>323.4</course>
<desc>Speed 3.6 km/h Distance 28.69 km</desc>
<time>2011-09-24T11:49:21.68</time>
<name>7865</name>
</trkpt>
<trkpt lat="41.789662" lon="-1.817142">
<ele>1663.0</ele>
<speed>3.5</speed>
<course>336.1</course>
<desc>Speed 3.5 km/h Distance 28.69 km</desc>
<time>2011-09-24T11:49:22.68</time>
<name>7866</name>
</trkpt>
<trkpt lat="41.789670" lon="-1.817147">
<ele>1663.0</ele>
<speed>2.7</speed>
<course>348.8</course>
<desc>Speed 2.7 km/h Distance 28.69 km</desc>
<time>2011-09-24T11:49:23.68</time>
<name>7867</name>
</trkpt>
<trkpt lat="41.789682" lon="-1.817150">
<ele>1663.5</ele>
<speed>3.4</speed>
<course>338.5</course>
<desc>Speed 3.4 km/h Distance 28.69 km</desc>
<time>2011-09-24T11:49:24.69</time>
<name>7868</name>
</trkpt>
<trkpt lat="41.789710" lon="-1.817165">
<ele>1664.5</ele>
<speed>3.5</speed>
<course>317.5</course>
<desc>Speed 3.5 km/h Distance 28.70 km</desc>
<time>2011-09-24T11:49:25.69</time>
<name>7869</name>
</trkpt>
<trkpt lat="41.789732" lon="-1.817192">
<ele>1664.0</ele>
<speed>5.1</speed>
<course>318.8</course>
<desc>Speed 5.1 km/h Distance 28.70 km</desc>
<time>2011-09-24T11:49:27.68</time>
<name>7870</name>
</trkpt>
<trkpt lat="41.789742" lon="-1.817203">
<ele>1664.5</ele>
<speed>3.7</speed>
<course>298.1</course>
<desc>Speed 3.7 km/h Distance 28.70 km</desc>
<time>2011-09-24T11:49:28.68</time>
<name>7871</name>
</trkpt>
<trkpt lat="41.789748" lon="-1.817220">
<ele>1664.0</ele>
<speed>4.2</speed>
<course>313.2</course>
<desc>Speed 4.2 km/h Distance 28.70 km</desc>
<time>2011-09-24T11:49:29.68</time>
<name>7872</name>
</trkpt>
<trkpt lat="41.789760" lon="-1.817237">
<ele>1664.5</ele>
<speed>5.8</speed>
<course>323.3</course>
<desc>Speed 5.8 km/h Distance 28.71 km</desc>
<time>2011-09-24T11:49:30.68</time>
<name>7873</name>
</trkpt>
<trkpt lat="41.789777" lon="-1.817253">
<ele>1665.5</ele>
<speed>7.7</speed>
<course>325.7</course>
<desc>Speed 7.7 km/h Distance 28.71 km</desc>
<time>2011-09-24T11:49:31.68</time>
<name>7874</name>
</trkpt>
<trkpt lat="41.789797" lon="-1.817272">
<ele>1666.0</ele>
<speed>8.6</speed>
<course>331.9</course>
<desc>Speed 8.6 km/h Distance 28.71 km</desc>
<time>2011-09-24T11:49:32.67</time>
<name>7875</name>
</trkpt>
<trkpt lat="41.789820" lon="-1.817288">
<ele>1666.5</ele>
<speed>8.2</speed>
<course>326.4</course>
<desc>Speed 8.2 km/h Distance 28.71 km</desc>
<time>2011-09-24T11:49:33.67</time>
<name>7876</name>
</trkpt>
<trkpt lat="41.789835" lon="-1.817302">
<ele>1666.5</ele>
<speed>6.8</speed>
<course>332.3</course>
<desc>Speed 6.8 km/h Distance 28.72 km</desc>
<time>2011-09-24T11:49:34.67</time>
<name>7877</name>
</trkpt>
<trkpt lat="41.789852" lon="-1.817313">
<ele>1666.5</ele>
<speed>6.7</speed>
<course>334.7</course>
<desc>Speed 6.7 km/h Distance 28.72 km</desc>
<time>2011-09-24T11:49:35.67</time>
<name>7878</name>
</trkpt>
<trkpt lat="41.789870" lon="-1.817325">
<ele>1667.0</ele>
<speed>6.2</speed>
<course>337.6</course>
<desc>Speed 6.2 km/h Distance 28.72 km</desc>
<time>2011-09-24T11:49:36.67</time>
<name>7879</name>
</trkpt>
<trkpt lat="41.789885" lon="-1.817333">
<ele>1667.5</ele>
<speed>6.1</speed>
<course>334.3</course>
<desc>Speed 6.1 km/h Distance 28.72 km</desc>
<time>2011-09-24T11:49:37.67</time>
<name>7880</name>
</trkpt>
<trkpt lat="41.789908" lon="-1.817348">
<ele>1668.5</ele>
<speed>7.0</speed>
<course>328.5</course>
<desc>Speed 7.0 km/h Distance 28.72 km</desc>
<time>2011-09-24T11:49:38.67</time>
<name>7881</name>
</trkpt>
<trkpt lat="41.789927" lon="-1.817363">
<ele>1669.5</ele>
<speed>6.3</speed>
<course>328.1</course>
<desc>Speed 6.3 km/h Distance 28.73 km</desc>
<time>2011-09-24T11:49:39.67</time>
<name>7882</name>
</trkpt>
<trkpt lat="41.789947" lon="-1.817380">
<ele>1670.5</ele>
<speed>6.5</speed>
<course>329.6</course>
<desc>Speed 6.5 km/h Distance 28.73 km</desc>
<time>2011-09-24T11:49:40.67</time>
<name>7883</name>
</trkpt>
<trkpt lat="41.789970" lon="-1.817398">
<ele>1670.5</ele>
<speed>7.4</speed>
<course>332.0</course>
<desc>Speed 7.4 km/h Distance 28.73 km</desc>
<time>2011-09-24T11:49:41.66</time>
<name>7884</name>
</trkpt>
<trkpt lat="41.789993" lon="-1.817415">
<ele>1669.0</ele>
<speed>8.0</speed>
<course>345.1</course>
<desc>Speed 8.0 km/h Distance 28.74 km</desc>
<time>2011-09-24T11:49:42.66</time>
<name>7885</name>
</trkpt>
<trkpt lat="41.790017" lon="-1.817423">
<ele>1668.0</ele>
<speed>7.8</speed>
<course>357.8</course>
<desc>Speed 7.8 km/h Distance 28.74 km</desc>
<time>2011-09-24T11:49:43.67</time>
<name>7886</name>
</trkpt>
<trkpt lat="41.790043" lon="-1.817425">
<ele>1669.0</ele>
<speed>10.7</speed>
<course>15.4</course>
<desc>Speed 10.7 km/h Distance 28.74 km</desc>
<time>2011-09-24T11:49:44.66</time>
<name>7887</name>
</trkpt>
<trkpt lat="41.790070" lon="-1.817415">
<ele>1670.5</ele>
<speed>9.7</speed>
<course>14.7</course>
<desc>Speed 9.7 km/h Distance 28.74 km</desc>
<time>2011-09-24T11:49:45.66</time>
<name>7888</name>
</trkpt>
<trkpt lat="41.790098" lon="-1.817405">
<ele>1671.5</ele>
<speed>9.2</speed>
<course>1.5</course>
<desc>Speed 9.2 km/h Distance 28.75 km</desc>
<time>2011-09-24T11:49:46.66</time>
<name>7889</name>
</trkpt>
<trkpt lat="41.790123" lon="-1.817405">
<ele>1671.5</ele>
<speed>8.7</speed>
<course>347.5</course>
<desc>Speed 8.7 km/h Distance 28.75 km</desc>
<time>2011-09-24T11:49:47.67</time>
<name>7890</name>
</trkpt>
<trkpt lat="41.790152" lon="-1.817413">
<ele>1671.5</ele>
<speed>9.0</speed>
<course>349.9</course>
<desc>Speed 9.0 km/h Distance 28.75 km</desc>
<time>2011-09-24T11:49:48.66</time>
<name>7891</name>
</trkpt>
<trkpt lat="41.790180" lon="-1.817420">
<ele>1671.5</ele>
<speed>8.7</speed>
<course>0.0</course>
<desc>Speed 8.7 km/h Distance 28.76 km</desc>
<time>2011-09-24T11:49:49.66</time>
<name>7892</name>
</trkpt>
<trkpt lat="41.790213" lon="-1.817420">
<ele>1672.0</ele>
<speed>10.5</speed>
<course>357.2</course>
<desc>Speed 10.5 km/h Distance 28.76 km</desc>
<time>2011-09-24T11:49:50.66</time>
<name>7893</name>
</trkpt>
<trkpt lat="41.790242" lon="-1.817422">
<ele>1672.5</ele>
<speed>8.9</speed>
<course>349.5</course>
<desc>Speed 8.9 km/h Distance 28.76 km</desc>
<time>2011-09-24T11:49:51.66</time>
<name>7894</name>
</trkpt>
<trkpt lat="41.790268" lon="-1.817428">
<ele>1672.5</ele>
<speed>8.3</speed>
<course>350.9</course>
<desc>Speed 8.3 km/h Distance 28.77 km</desc>
<time>2011-09-24T11:49:52.65</time>
<name>7895</name>
</trkpt>
<trkpt lat="41.790292" lon="-1.817433">
<ele>1672.5</ele>
<speed>7.6</speed>
<course>347.9</course>
<desc>Speed 7.6 km/h Distance 28.77 km</desc>
<time>2011-09-24T11:49:53.67</time>
<name>7896</name>
</trkpt>
<trkpt lat="41.790315" lon="-1.817440">
<ele>1672.5</ele>
<speed>8.4</speed>
<course>2.8</course>
<desc>Speed 8.4 km/h Distance 28.77 km</desc>
<time>2011-09-24T11:49:54.65</time>
<name>7897</name>
</trkpt>
<trkpt lat="41.790343" lon="-1.817438">
<ele>1672.5</ele>
<speed>9.5</speed>
<course>12.5</course>
<desc>Speed 9.5 km/h Distance 28.78 km</desc>
<time>2011-09-24T11:49:55.65</time>
<name>7898</name>
</trkpt>
<trkpt lat="41.790372" lon="-1.817430">
<ele>1672.5</ele>
<speed>11.2</speed>
<course>12.6</course>
<desc>Speed 11.2 km/h Distance 28.78 km</desc>
<time>2011-09-24T11:49:56.66</time>
<name>7899</name>
</trkpt>
<trkpt lat="41.790405" lon="-1.817420">
<ele>1673.0</ele>
<speed>12.6</speed>
<course>17.1</course>
<desc>Speed 12.6 km/h Distance 28.78 km</desc>
<time>2011-09-24T11:49:57.65</time>
<name>7900</name>
</trkpt>
<trkpt lat="41.790433" lon="-1.817408">
<ele>1673.0</ele>
<speed>10.5</speed>
<course>7.4</course>
<desc>Speed 10.5 km/h Distance 28.79 km</desc>
<time>2011-09-24T11:49:58.65</time>
<name>7901</name>
</trkpt>
<trkpt lat="41.790453" lon="-1.817405">
<ele>1673.0</ele>
<speed>7.7</speed>
<course>356.2</course>
<desc>Speed 7.7 km/h Distance 28.79 km</desc>
<time>2011-09-24T11:49:59.65</time>
<name>7902</name>
</trkpt>
<trkpt lat="41.790468" lon="-1.817407">
<ele>1672.5</ele>
<speed>5.3</speed>
<course>330.3</course>
<desc>Speed 5.3 km/h Distance 28.79 km</desc>
<time>2011-09-24T11:50:00.65</time>
<name>7903</name>
</trkpt>
<trkpt lat="41.790497" lon="-1.817428">
<ele>1672.0</ele>
<speed>1.6</speed>
<course>333.9</course>
<desc>Speed 1.6 km/h Distance 28.79 km</desc>
<time>2011-09-24T11:50:01.65</time>
<name>7904</name>
</trkpt>
<trkpt lat="41.790507" lon="-1.817435">
<ele>1671.0</ele>
<speed>1.9</speed>
<course>346.6</course>
<desc>Speed 1.9 km/h Distance 28.79 km</desc>
<time>2011-09-24T11:50:03.65</time>
<name>7905</name>
</trkpt>
<trkpt lat="41.790517" lon="-1.817438">
<ele>1671.0</ele>
<speed>1.5</speed>
<course>336.0</course>
<desc>Speed 1.5 km/h Distance 28.80 km</desc>
<time>2011-09-24T11:50:04.65</time>
<name>7906</name>
</trkpt>
<trkpt lat="41.790542" lon="-1.817453">
<ele>1669.5</ele>
<speed>5.7</speed>
<course>350.7</course>
<desc>Speed 5.7 km/h Distance 28.80 km</desc>
<time>2011-09-24T11:50:06.65</time>
<name>7907</name>
</trkpt>
<trkpt lat="41.790557" lon="-1.817457">
<ele>1668.5</ele>
<speed>5.9</speed>
<course>3.7</course>
<desc>Speed 5.9 km/h Distance 28.80 km</desc>
<time>2011-09-24T11:50:07.65</time>
<name>7908</name>
</trkpt>
<trkpt lat="41.790575" lon="-1.817455">
<ele>1668.5</ele>
<speed>6.9</speed>
<course>3.0</course>
<desc>Speed 6.9 km/h Distance 28.80 km</desc>
<time>2011-09-24T11:50:08.65</time>
<name>7909</name>
</trkpt>
<trkpt lat="41.790598" lon="-1.817453">
<ele>1668.5</ele>
<speed>8.7</speed>
<course>9.1</course>
<desc>Speed 8.7 km/h Distance 28.80 km</desc>
<time>2011-09-24T11:50:09.65</time>
<name>7910</name>
</trkpt>
<trkpt lat="41.790622" lon="-1.817448">
<ele>1669.0</ele>
<speed>9.1</speed>
<course>10.6</course>
<desc>Speed 9.1 km/h Distance 28.81 km</desc>
<time>2011-09-24T11:50:10.64</time>
<name>7911</name>
</trkpt>
<trkpt lat="41.790648" lon="-1.817442">
<ele>1669.0</ele>
<speed>10.7</speed>
<course>0.0</course>
<desc>Speed 10.7 km/h Distance 28.81 km</desc>
<time>2011-09-24T11:50:11.64</time>
<name>7912</name>
</trkpt>
<trkpt lat="41.790672" lon="-1.817442">
<ele>1668.5</ele>
<speed>8.8</speed>
<course>5.7</course>
<desc>Speed 8.8 km/h Distance 28.81 km</desc>
<time>2011-09-24T11:50:12.65</time>
<name>7913</name>
</trkpt>
<trkpt lat="41.790697" lon="-1.817438">
<ele>1668.5</ele>
<speed>9.4</speed>
<course>6.4</course>
<desc>Speed 9.4 km/h Distance 28.82 km</desc>
<time>2011-09-24T11:50:13.64</time>
<name>7914</name>
</trkpt>
<trkpt lat="41.790718" lon="-1.817435">
<ele>1668.5</ele>
<speed>8.6</speed>
<course>7.8</course>
<desc>Speed 8.6 km/h Distance 28.82 km</desc>
<time>2011-09-24T11:50:14.65</time>
<name>7915</name>
</trkpt>
<trkpt lat="41.790745" lon="-1.817430">
<ele>1668.5</ele>
<speed>10.1</speed>
<course>7.4</course>
<desc>Speed 10.1 km/h Distance 28.82 km</desc>
<time>2011-09-24T11:50:15.64</time>
<name>7916</name>
</trkpt>
<trkpt lat="41.790773" lon="-1.817425">
<ele>1668.5</ele>
<speed>10.8</speed>
<course>0.0</course>
<desc>Speed 10.8 km/h Distance 28.82 km</desc>
<time>2011-09-24T11:50:16.65</time>
<name>7917</name>
</trkpt>
<trkpt lat="41.790797" lon="-1.817425">
<ele>1668.5</ele>
<speed>9.2</speed>
<course>0.0</course>
<desc>Speed 9.2 km/h Distance 28.83 km</desc>
<time>2011-09-24T11:50:17.65</time>
<name>7918</name>
</trkpt>
<trkpt lat="41.790817" lon="-1.817425">
<ele>1668.5</ele>
<speed>7.4</speed>
<course>347.4</course>
<desc>Speed 7.4 km/h Distance 28.83 km</desc>
<time>2011-09-24T11:50:18.65</time>
<name>7919</name>
</trkpt>
<trkpt lat="41.790833" lon="-1.817430">
<ele>1669.0</ele>
<speed>6.9</speed>
<course>326.5</course>
<desc>Speed 6.9 km/h Distance 28.83 km</desc>
<time>2011-09-24T11:50:19.65</time>
<name>7920</name>
</trkpt>
<trkpt lat="41.790848" lon="-1.817443">
<ele>1669.0</ele>
<speed>7.1</speed>
<course>303.9</course>
<desc>Speed 7.1 km/h Distance 28.83 km</desc>
<time>2011-09-24T11:50:20.65</time>
<name>7921</name>
</trkpt>
<trkpt lat="41.790857" lon="-1.817460">
<ele>1668.5</ele>
<speed>5.7</speed>
<course>298.3</course>
<desc>Speed 5.7 km/h Distance 28.83 km</desc>
<time>2011-09-24T11:50:21.64</time>
<name>7922</name>
</trkpt>
<trkpt lat="41.790863" lon="-1.817477">
<ele>1668.5</ele>
<speed>5.0</speed>
<course>270.0</course>
<desc>Speed 5.0 km/h Distance 28.84 km</desc>
<time>2011-09-24T11:50:22.64</time>
<name>7923</name>
</trkpt>
<trkpt lat="41.790863" lon="-1.817493">
<ele>1668.5</ele>
<speed>4.8</speed>
<course>251.3</course>
<desc>Speed 4.8 km/h Distance 28.84 km</desc>
<time>2011-09-24T11:50:23.64</time>
<name>7924</name>
</trkpt>
<trkpt lat="41.790862" lon="-1.817500">
<ele>1668.5</ele>
<speed>2.2</speed>
<course>355.3</course>
<desc>Speed 2.2 km/h Distance 28.84 km</desc>
<time>2011-09-24T11:50:24.64</time>
<name>7925</name>
</trkpt>
<trkpt lat="41.790873" lon="-1.817502">
<ele>1665.5</ele>
<speed>3.3</speed>
<course>114.1</course>
<desc>Speed 3.3 km/h Distance 28.84 km</desc>
<time>2011-09-24T11:50:25.64</time>
<name>7926</name>
</trkpt>
<trkpt lat="41.790868" lon="-1.817487">
<ele>1665.0</ele>
<speed>1.9</speed>
<course>20.3</course>
<desc>Speed 1.9 km/h Distance 28.84 km</desc>
<time>2011-09-24T11:50:27.65</time>
<name>7927</name>
</trkpt>
<trkpt lat="41.790878" lon="-1.817482">
<ele>1665.5</ele>
<speed>2.3</speed>
<course>71.4</course>
<desc>Speed 2.3 km/h Distance 28.84 km</desc>
<time>2011-09-24T11:50:28.65</time>
<name>7928</name>
</trkpt>
<trkpt lat="41.790882" lon="-1.817468">
<ele>1665.0</ele>
<speed>4.1</speed>
<course>74.9</course>
<desc>Speed 4.1 km/h Distance 28.84 km</desc>
<time>2011-09-24T11:50:29.65</time>
<name>7929</name>
</trkpt>
<trkpt lat="41.790885" lon="-1.817452">
<ele>1665.0</ele>
<speed>5.0</speed>
<course>71.5</course>
<desc>Speed 5.0 km/h Distance 28.84 km</desc>
<time>2011-09-24T11:50:30.65</time>
<name>7930</name>
</trkpt>
<trkpt lat="41.790888" lon="-1.817438">
<ele>1665.0</ele>
<speed>4.3</speed>
<course>36.6</course>
<desc>Speed 4.3 km/h Distance 28.85 km</desc>
<time>2011-09-24T11:50:31.65</time>
<name>7931</name>
</trkpt>
<trkpt lat="41.790897" lon="-1.817430">
<ele>1665.0</ele>
<speed>4.0</speed>
<course>10.3</course>
<desc>Speed 4.0 km/h Distance 28.85 km</desc>
<time>2011-09-24T11:50:32.65</time>
<name>7932</name>
</trkpt>
<trkpt lat="41.790917" lon="-1.817425">
<ele>1665.5</ele>
<speed>1.1</speed>
<course>330.8</course>
<desc>Speed 1.1 km/h Distance 28.85 km</desc>
<time>2011-09-24T11:50:33.65</time>
<name>7933</name>
</trkpt>
<trkpt lat="41.790923" lon="-1.817430">
<ele>1665.5</ele>
<speed>3.2</speed>
<course>291.0</course>
<desc>Speed 3.2 km/h Distance 28.85 km</desc>
<time>2011-09-24T11:50:35.64</time>
<name>7934</name>
</trkpt>
<trkpt lat="41.790927" lon="-1.817442">
<ele>1665.5</ele>
<speed>4.0</speed>
<course>270.0</course>
<desc>Speed 4.0 km/h Distance 28.85 km</desc>
<time>2011-09-24T11:50:36.64</time>
<name>7935</name>
</trkpt>
<trkpt lat="41.790927" lon="-1.817455">
<ele>1665.5</ele>
<speed>4.2</speed>
<course>261.5</course>
<desc>Speed 4.2 km/h Distance 28.85 km</desc>
<time>2011-09-24T11:50:37.64</time>
<name>7936</name>
</trkpt>
<trkpt lat="41.790925" lon="-1.817470">
<ele>1665.0</ele>
<speed>4.8</speed>
<course>255.0</course>
<desc>Speed 4.8 km/h Distance 28.85 km</desc>
<time>2011-09-24T11:50:38.63</time>
<name>7937</name>
</trkpt>
<trkpt lat="41.790922" lon="-1.817487">
<ele>1665.0</ele>
<speed>5.3</speed>
<course>246.0</course>
<desc>Speed 5.3 km/h Distance 28.86 km</desc>
<time>2011-09-24T11:50:39.63</time>
<name>7938</name>
</trkpt>
<trkpt lat="41.790917" lon="-1.817502">
<ele>1665.0</ele>
<speed>5.4</speed>
<course>230.0</course>
<desc>Speed 5.4 km/h Distance 28.86 km</desc>
<time>2011-09-24T11:50:40.64</time>
<name>7939</name>
</trkpt>
<trkpt lat="41.790908" lon="-1.817515">
<ele>1664.5</ele>
<speed>5.9</speed>
<course>223.0</course>
<desc>Speed 5.9 km/h Distance 28.86 km</desc>
<time>2011-09-24T11:50:41.63</time>
<name>7940</name>
</trkpt>
<trkpt lat="41.790902" lon="-1.817523">
<ele>1665.0</ele>
<speed>4.2</speed>
<course>124.1</course>
<desc>Speed 4.2 km/h Distance 28.86 km</desc>
<time>2011-09-24T11:50:42.63</time>
<name>7941</name>
</trkpt>
<trkpt lat="41.790897" lon="-1.817513">
<ele>1665.5</ele>
<speed>3.8</speed>
<course>10.3</course>
<desc>Speed 3.8 km/h Distance 28.86 km</desc>
<time>2011-09-24T11:50:43.63</time>
<name>7942</name>
</trkpt>
<trkpt lat="41.790910" lon="-1.817510">
<ele>1665.5</ele>
<speed>1.2</speed>
<course>357.2</course>
<desc>Speed 1.2 km/h Distance 28.86 km</desc>
<time>2011-09-24T11:50:44.63</time>
<name>7943</name>
</trkpt>
<trkpt lat="41.790927" lon="-1.817512">
<ele>1665.5</ele>
<speed>3.7</speed>
<course>8.1</course>
<desc>Speed 3.7 km/h Distance 28.86 km</desc>
<time>2011-09-24T11:50:45.63</time>
<name>7944</name>
</trkpt>
<trkpt lat="41.790932" lon="-1.817510">
<ele>1665.5</ele>
<speed>1.5</speed>
<course>90.0</course>
<desc>Speed 1.5 km/h Distance 28.86 km</desc>
<time>2011-09-24T11:50:46.63</time>
<name>7945</name>
</trkpt>
<trkpt lat="41.790932" lon="-1.817502">
<ele>1665.0</ele>
<speed>3.9</speed>
<course>110.9</course>
<desc>Speed 3.9 km/h Distance 28.86 km</desc>
<time>2011-09-24T11:50:47.63</time>
<name>7946</name>
</trkpt>
<trkpt lat="41.790928" lon="-1.817490">
<ele>1665.0</ele>
<speed>3.9</speed>
<course>99.5</course>
<desc>Speed 3.9 km/h Distance 28.87 km</desc>
<time>2011-09-24T11:50:48.63</time>
<name>7947</name>
</trkpt>
<trkpt lat="41.790927" lon="-1.817477">
<ele>1664.5</ele>
<speed>4.6</speed>
<course>82.4</course>
<desc>Speed 4.6 km/h Distance 28.87 km</desc>
<time>2011-09-24T11:50:49.63</time>
<name>7948</name>
</trkpt>
<trkpt lat="41.790928" lon="-1.817460">
<ele>1664.5</ele>
<speed>4.9</speed>
<course>90.0</course>
<desc>Speed 4.9 km/h Distance 28.87 km</desc>
<time>2011-09-24T11:50:50.63</time>
<name>7949</name>
</trkpt>
<trkpt lat="41.790928" lon="-1.817445">
<ele>1664.0</ele>
<speed>5.0</speed>
<course>106.5</course>
<desc>Speed 5.0 km/h Distance 28.87 km</desc>
<time>2011-09-24T11:50:51.63</time>
<name>7950</name>
</trkpt>
<trkpt lat="41.790925" lon="-1.817430">
<ele>1664.0</ele>
<speed>4.6</speed>
<course>123.9</course>
<desc>Speed 4.6 km/h Distance 28.87 km</desc>
<time>2011-09-24T11:50:52.63</time>
<name>7951</name>
</trkpt>
<trkpt lat="41.790920" lon="-1.817420">
<ele>1664.0</ele>
<speed>3.6</speed>
<course>154.6</course>
<desc>Speed 3.6 km/h Distance 28.87 km</desc>
<time>2011-09-24T11:50:53.63</time>
<name>7952</name>
</trkpt>
<trkpt lat="41.790915" lon="-1.817417">
<ele>1664.0</ele>
<speed>2.3</speed>
<course>180.0</course>
<desc>Speed 2.3 km/h Distance 28.87 km</desc>
<time>2011-09-24T11:50:54.64</time>
<name>7953</name>
</trkpt>
<trkpt lat="41.790910" lon="-1.817417">
<ele>1663.5</ele>
<speed>1.7</speed>
<course>358.1</course>
<desc>Speed 1.7 km/h Distance 28.87 km</desc>
<time>2011-09-24T11:50:55.63</time>
<name>7954</name>
</trkpt>
<trkpt lat="41.790948" lon="-1.817418">
<ele>1664.5</ele>
<speed>1.1</speed>
<course>341.9</course>
<desc>Speed 1.1 km/h Distance 28.88 km</desc>
<time>2011-09-24T11:50:56.63</time>
<name>7955</name>
</trkpt>
<trkpt lat="41.790975" lon="-1.817430">
<ele>1668.0</ele>
<speed>2.4</speed>
<course>253.5</course>
<desc>Speed 2.4 km/h Distance 28.88 km</desc>
<time>2011-09-24T11:50:57.72</time>
<name>7956</name>
</trkpt>
<trkpt lat="41.790972" lon="-1.817445">
<ele>1668.0</ele>
<speed>4.7</speed>
<course>232.7</course>
<desc>Speed 4.7 km/h Distance 28.88 km</desc>
<time>2011-09-24T11:50:58.72</time>
<name>7957</name>
</trkpt>
<trkpt lat="41.790965" lon="-1.817457">
<ele>1668.0</ele>
<speed>4.4</speed>
<course>236.3</course>
<desc>Speed 4.4 km/h Distance 28.88 km</desc>
<time>2011-09-24T11:50:59.72</time>
<name>7958</name>
</trkpt>
<trkpt lat="41.790958" lon="-1.817470">
<ele>1667.5</ele>
<speed>4.8</speed>
<course>225.0</course>
<desc>Speed 4.8 km/h Distance 28.88 km</desc>
<time>2011-09-24T11:51:00.71</time>
<name>7959</name>
</trkpt>
<trkpt lat="41.790948" lon="-1.817483">
<ele>1667.0</ele>
<speed>4.5</speed>
<course>223.0</course>
<desc>Speed 4.5 km/h Distance 28.89 km</desc>
<time>2011-09-24T11:51:01.71</time>
<name>7960</name>
</trkpt>
<trkpt lat="41.790942" lon="-1.817492">
<ele>1667.5</ele>
<speed>3.6</speed>
<course>90.0</course>
<desc>Speed 3.6 km/h Distance 28.89 km</desc>
<time>2011-09-24T11:51:02.71</time>
<name>7961</name>
</trkpt>
<trkpt lat="41.790942" lon="-1.817487">
<ele>1669.0</ele>
<speed>1.3</speed>
<course>164.3</course>
<desc>Speed 1.3 km/h Distance 28.89 km</desc>
<time>2011-09-24T11:51:03.71</time>
<name>7962</name>
</trkpt>
<trkpt lat="41.790937" lon="-1.817485">
<ele>1669.0</ele>
<speed>2.6</speed>
<course>238.6</course>
<desc>Speed 2.6 km/h Distance 28.89 km</desc>
<time>2011-09-24T11:51:04.71</time>
<name>7963</name>
</trkpt>
<trkpt lat="41.790935" lon="-1.817488">
<ele>1668.5</ele>
<speed>1.4</speed>
<course>185.0</course>
<desc>Speed 1.4 km/h Distance 28.89 km</desc>
<time>2011-09-24T11:51:05.71</time>
<name>7964</name>
</trkpt>
<trkpt lat="41.790905" lon="-1.817492">
<ele>1665.5</ele>
<speed>1.1</speed>
<course>175.0</course>
<desc>Speed 1.1 km/h Distance 28.89 km</desc>
<time>2011-09-24T11:51:06.71</time>
<name>7965</name>
</trkpt>
<trkpt lat="41.790897" lon="-1.817490">
<ele>1665.0</ele>
<speed>1.2</speed>
<course>143.6</course>
<desc>Speed 1.2 km/h Distance 28.89 km</desc>
<time>2011-09-24T11:51:07.71</time>
<name>7966</name>
</trkpt>
<trkpt lat="41.790892" lon="-1.817485">
<ele>1665.0</ele>
<speed>2.4</speed>
<course>173.4</course>
<desc>Speed 2.4 km/h Distance 28.89 km</desc>
<time>2011-09-24T11:51:08.70</time>
<name>7967</name>
</trkpt>
<trkpt lat="41.790882" lon="-1.817483">
<ele>1664.5</ele>
<speed>1.1</speed>
<course>168.8</course>
<desc>Speed 1.1 km/h Distance 28.89 km</desc>
<time>2011-09-24T11:51:09.70</time>
<name>7968</name>
</trkpt>
<trkpt lat="41.790870" lon="-1.817480">
<ele>1664.0</ele>
<speed>3.7</speed>
<course>111.9</course>
<desc>Speed 3.7 km/h Distance 28.90 km</desc>
<time>2011-09-24T11:51:10.70</time>
<name>7969</name>
</trkpt>
<trkpt lat="41.790865" lon="-1.817463">
<ele>1665.0</ele>
<speed>6.7</speed>
<course>119.8</course>
<desc>Speed 6.7 km/h Distance 28.90 km</desc>
<time>2011-09-24T11:51:11.70</time>
<name>7970</name>
</trkpt>
<trkpt lat="41.790860" lon="-1.817452">
<ele>1665.5</ele>
<speed>4.5</speed>
<course>146.5</course>
<desc>Speed 4.5 km/h Distance 28.90 km</desc>
<time>2011-09-24T11:51:12.70</time>
<name>7971</name>
</trkpt>
<trkpt lat="41.790845" lon="-1.817438">
<ele>1665.5</ele>
<speed>6.9</speed>
<course>216.6</course>
<desc>Speed 6.9 km/h Distance 28.90 km</desc>
<time>2011-09-24T11:51:13.69</time>
<name>7972</name>
</trkpt>
<trkpt lat="41.790837" lon="-1.817447">
<ele>1666.0</ele>
<speed>3.5</speed>
<course>188.2</course>
<desc>Speed 3.5 km/h Distance 28.90 km</desc>
<time>2011-09-24T11:51:14.69</time>
<name>7973</name>
</trkpt>
<trkpt lat="41.790777" lon="-1.817458">
<ele>1665.5</ele>
<speed>10.6</speed>
<course>182.5</course>
<desc>Speed 10.6 km/h Distance 28.91 km</desc>
<time>2011-09-24T11:51:16.69</time>
<name>7974</name>
</trkpt>
<trkpt lat="41.790747" lon="-1.817460">
<ele>1665.5</ele>
<speed>10.7</speed>
<course>184.7</course>
<desc>Speed 10.7 km/h Distance 28.91 km</desc>
<time>2011-09-24T11:51:17.69</time>
<name>7975</name>
</trkpt>
<trkpt lat="41.790717" lon="-1.817463">
<ele>1665.5</ele>
<speed>11.2</speed>
<course>189.3</course>
<desc>Speed 11.2 km/h Distance 28.91 km</desc>
<time>2011-09-24T11:51:18.69</time>
<name>7976</name>
</trkpt>
<trkpt lat="41.790687" lon="-1.817470">
<ele>1665.5</ele>
<speed>10.5</speed>
<course>180.0</course>
<desc>Speed 10.5 km/h Distance 28.92 km</desc>
<time>2011-09-24T11:51:19.69</time>
<name>7977</name>
</trkpt>
<trkpt lat="41.790653" lon="-1.817470">
<ele>1665.5</ele>
<speed>11.7</speed>
<course>187.4</course>
<desc>Speed 11.7 km/h Distance 28.92 km</desc>
<time>2011-09-24T11:51:20.68</time>
<name>7978</name>
</trkpt>
<trkpt lat="41.790625" lon="-1.817475">
<ele>1665.0</ele>
<speed>10.7</speed>
<course>185.0</course>
<desc>Speed 10.7 km/h Distance 28.93 km</desc>
<time>2011-09-24T11:51:21.68</time>
<name>7979</name>
</trkpt>
<trkpt lat="41.790595" lon="-1.817478">
<ele>1665.0</ele>
<speed>10.9</speed>
<course>187.6</course>
<desc>Speed 10.9 km/h Distance 28.93 km</desc>
<time>2011-09-24T11:51:22.68</time>
<name>7980</name>
</trkpt>
<trkpt lat="41.790567" lon="-1.817483">
<ele>1665.0</ele>
<speed>10.3</speed>
<course>195.6</course>
<desc>Speed 10.3 km/h Distance 28.93 km</desc>
<time>2011-09-24T11:51:23.69</time>
<name>7981</name>
</trkpt>
<trkpt lat="41.790540" lon="-1.817493">
<ele>1664.5</ele>
<speed>9.8</speed>
<course>193.3</course>
<desc>Speed 9.8 km/h Distance 28.93 km</desc>
<time>2011-09-24T11:51:24.68</time>
<name>7982</name>
</trkpt>
<trkpt lat="41.790513" lon="-1.817502">
<ele>1664.0</ele>
<speed>10.0</speed>
<course>189.1</course>
<desc>Speed 10.0 km/h Distance 28.94 km</desc>
<time>2011-09-24T11:51:25.68</time>
<name>7983</name>
</trkpt>
<trkpt lat="41.790490" lon="-1.817507">
<ele>1664.0</ele>
<speed>9.0</speed>
<course>183.2</course>
<desc>Speed 9.0 km/h Distance 28.94 km</desc>
<time>2011-09-24T11:51:26.68</time>
<name>7984</name>
</trkpt>
<trkpt lat="41.790468" lon="-1.817508">
<ele>1664.5</ele>
<speed>8.8</speed>
<course>187.0</course>
<desc>Speed 8.8 km/h Distance 28.94 km</desc>
<time>2011-09-24T11:51:27.68</time>
<name>7985</name>
</trkpt>
<trkpt lat="41.790448" lon="-1.817512">
<ele>1664.5</ele>
<speed>7.5</speed>
<course>185.0</course>
<desc>Speed 7.5 km/h Distance 28.94 km</desc>
<time>2011-09-24T11:51:28.68</time>
<name>7986</name>
</trkpt>
<trkpt lat="41.790433" lon="-1.817513">
<ele>1664.5</ele>
<speed>5.7</speed>
<course>213.6</course>
<desc>Speed 5.7 km/h Distance 28.95 km</desc>
<time>2011-09-24T11:51:29.68</time>
<name>7987</name>
</trkpt>
<trkpt lat="41.790418" lon="-1.817527">
<ele>1664.5</ele>
<speed>6.9</speed>
<course>240.1</course>
<desc>Speed 6.9 km/h Distance 28.95 km</desc>
<time>2011-09-24T11:51:30.68</time>
<name>7988</name>
</trkpt>
<trkpt lat="41.790408" lon="-1.817550">
<ele>1664.0</ele>
<speed>8.2</speed>
<course>164.8</course>
<desc>Speed 8.2 km/h Distance 28.95 km</desc>
<time>2011-09-24T11:51:31.68</time>
<name>7989</name>
</trkpt>
<trkpt lat="41.790390" lon="-1.817543">
<ele>1666.0</ele>
<speed>6.7</speed>
<course>303.9</course>
<desc>Speed 6.7 km/h Distance 28.95 km</desc>
<time>2011-09-24T11:51:32.68</time>
<name>7990</name>
</trkpt>
<trkpt lat="41.790397" lon="-1.817557">
<ele>1664.0</ele>
<speed>4.7</speed>
<course>180.0</course>
<desc>Speed 4.7 km/h Distance 28.95 km</desc>
<time>2011-09-24T11:51:33.67</time>
<name>7991</name>
</trkpt>
<trkpt lat="41.790390" lon="-1.817557">
<ele>1665.0</ele>
<speed>1.6</speed>
<course>55.7</course>
<desc>Speed 1.6 km/h Distance 28.96 km</desc>
<time>2011-09-24T11:51:34.67</time>
<name>7992</name>
</trkpt>
<trkpt lat="41.790392" lon="-1.817553">
<ele>1665.5</ele>
<speed>1.4</speed>
<course>308.6</course>
<desc>Speed 1.4 km/h Distance 28.96 km</desc>
<time>2011-09-24T11:51:35.67</time>
<name>7993</name>
</trkpt>
<trkpt lat="41.790397" lon="-1.817562">
<ele>1665.5</ele>
<speed>3.6</speed>
<course>257.4</course>
<desc>Speed 3.6 km/h Distance 28.96 km</desc>
<time>2011-09-24T11:51:36.67</time>
<name>7994</name>
</trkpt>
<trkpt lat="41.790395" lon="-1.817572">
<ele>1665.5</ele>
<speed>3.1</speed>
<course>251.5</course>
<desc>Speed 3.1 km/h Distance 28.96 km</desc>
<time>2011-09-24T11:51:37.67</time>
<name>7995</name>
</trkpt>
<trkpt lat="41.790393" lon="-1.817578">
<ele>1665.5</ele>
<speed>3.1</speed>
<course>251.5</course>
<desc>Speed 3.1 km/h Distance 28.96 km</desc>
<time>2011-09-24T11:51:38.67</time>
<name>7996</name>
</trkpt>
<trkpt lat="41.790392" lon="-1.817585">
<ele>1665.5</ele>
<speed>3.1</speed>
<course>246.5</course>
<desc>Speed 3.1 km/h Distance 28.96 km</desc>
<time>2011-09-24T11:51:39.66</time>
<name>7997</name>
</trkpt>
<trkpt lat="41.790390" lon="-1.817590">
<ele>1665.5</ele>
<speed>3.1</speed>
<course>209.2</course>
<desc>Speed 3.1 km/h Distance 28.96 km</desc>
<time>2011-09-24T11:51:40.67</time>
<name>7998</name>
</trkpt>
<trkpt lat="41.790383" lon="-1.817595">
<ele>1665.5</ele>
<speed>3.1</speed>
<course>270.0</course>
<desc>Speed 3.1 km/h Distance 28.96 km</desc>
<time>2011-09-24T11:51:41.66</time>
<name>7999</name>
</trkpt>
<trkpt lat="41.790383" lon="-1.817597">
<ele>1665.5</ele>
<speed>3.1</speed>
<course>90.0</course>
<desc>Speed 3.1 km/h Distance 28.96 km</desc>
<time>2011-09-24T11:51:42.66</time>
<name>8000</name>
</trkpt>
<trkpt lat="41.790383" lon="-1.817593">
<ele>1665.5</ele>
<speed>3.1</speed>
<course>60.2</course>
<desc>Speed 3.1 km/h Distance 28.96 km</desc>
<time>2011-09-24T11:51:43.66</time>
<name>8001</name>
</trkpt>
<trkpt lat="41.790388" lon="-1.817582">
<ele>1665.5</ele>
<speed>1.7</speed>
<course>126.2</course>
<desc>Speed 1.7 km/h Distance 28.96 km</desc>
<time>2011-09-24T11:51:44.66</time>
<name>8002</name>
</trkpt>
<trkpt lat="41.790378" lon="-1.817563">
<ele>1665.5</ele>
<speed>4.0</speed>
<course>240.8</course>
<desc>Speed 4.0 km/h Distance 28.96 km</desc>
<time>2011-09-24T11:51:45.66</time>
<name>8003</name>
</trkpt>
<trkpt lat="41.790370" lon="-1.817583">
<ele>1665.5</ele>
<speed>7.9</speed>
<course>105.0</course>
<desc>Speed 7.9 km/h Distance 28.96 km</desc>
<time>2011-09-24T11:51:46.66</time>
<name>8004</name>
</trkpt>
<trkpt lat="41.790368" lon="-1.817575">
<ele>1665.5</ele>
<speed>2.0</speed>
<course>75.0</course>
<desc>Speed 2.0 km/h Distance 28.97 km</desc>
<time>2011-09-24T11:51:48.66</time>
<name>8005</name>
</trkpt>
<trkpt lat="41.790370" lon="-1.817567">
<ele>1665.5</ele>
<speed>2.1</speed>
<course>0.0</course>
<desc>Speed 2.1 km/h Distance 28.97 km</desc>
<time>2011-09-24T11:51:49.66</time>
<name>8006</name>
</trkpt>
<trkpt lat="41.790372" lon="-1.817567">
<ele>1665.5</ele>
<speed>1.8</speed>
<course>294.6</course>
<desc>Speed 1.8 km/h Distance 28.97 km</desc>
<time>2011-09-24T11:51:50.66</time>
<name>8007</name>
</trkpt>
<trkpt lat="41.790373" lon="-1.817572">
<ele>1665.5</ele>
<speed>4.1</speed>
<course>270.0</course>
<desc>Speed 4.1 km/h Distance 28.97 km</desc>
<time>2011-09-24T11:51:51.66</time>
<name>8008</name>
</trkpt>
<trkpt lat="41.790373" lon="-1.817580">
<ele>1665.5</ele>
<speed>4.1</speed>
<course>288.5</course>
<desc>Speed 4.1 km/h Distance 28.97 km</desc>
<time>2011-09-24T11:51:52.66</time>
<name>8009</name>
</trkpt>
<trkpt lat="41.790375" lon="-1.817587">
<ele>1665.5</ele>
<speed>4.1</speed>
<course>270.0</course>
<desc>Speed 4.1 km/h Distance 28.97 km</desc>
<time>2011-09-24T11:51:53.65</time>
<name>8010</name>
</trkpt>
<trkpt lat="41.790375" lon="-1.817593">
<ele>1665.5</ele>
<speed>4.1</speed>
<course>288.7</course>
<desc>Speed 4.1 km/h Distance 28.97 km</desc>
<time>2011-09-24T11:51:54.65</time>
<name>8011</name>
</trkpt>
<trkpt lat="41.790377" lon="-1.817600">
<ele>1665.5</ele>
<speed>4.1</speed>
<course>270.0</course>
<desc>Speed 4.1 km/h Distance 28.97 km</desc>
<time>2011-09-24T11:51:55.65</time>
<name>8012</name>
</trkpt>
<trkpt lat="41.790377" lon="-1.817603">
<ele>1665.5</ele>
<speed>4.1</speed>
<course>270.0</course>
<desc>Speed 4.1 km/h Distance 28.97 km</desc>
<time>2011-09-24T11:51:56.63</time>
<name>8013</name>
</trkpt>
<trkpt lat="41.790377" lon="-1.817607">
<ele>1665.5</ele>
<speed>4.1</speed>
<course>174.7</course>
<desc>Speed 4.1 km/h Distance 28.97 km</desc>
<time>2011-09-24T11:51:57.63</time>
<name>8014</name>
</trkpt>
<trkpt lat="41.790363" lon="-1.817605">
<ele>1665.5</ele>
<speed>4.1</speed>
<course>161.2</course>
<desc>Speed 4.1 km/h Distance 28.97 km</desc>
<time>2011-09-24T11:51:59.64</time>
<name>8015</name>
</trkpt>
<trkpt lat="41.790360" lon="-1.817603">
<ele>1665.5</ele>
<speed>4.1</speed>
<course>101.2</course>
<desc>Speed 4.1 km/h Distance 28.97 km</desc>
<time>2011-09-24T11:52:00.64</time>
<name>8016</name>
</trkpt>
<trkpt lat="41.790345" lon="-1.817502">
<ele>1666.0</ele>
<speed>1.5</speed>
<course>77.0</course>
<desc>Speed 1.5 km/h Distance 28.97 km</desc>
<time>2011-09-24T12:06:37.83</time>
<name>8017</name>
</trkpt>
<trkpt lat="41.790355" lon="-1.817443">
<ele>1667.0</ele>
<speed>8.6</speed>
<course>36.7</course>
<desc>Speed 8.6 km/h Distance 28.98 km</desc>
<time>2011-09-24T12:06:38.66</time>
<name>8018</name>
</trkpt>
<trkpt lat="41.790375" lon="-1.817423">
<ele>1667.5</ele>
<speed>10.4</speed>
<course>12.3</course>
<desc>Speed 10.4 km/h Distance 28.98 km</desc>
<time>2011-09-24T12:06:39.58</time>
<name>8019</name>
</trkpt>
<trkpt lat="41.790403" lon="-1.817415">
<ele>1667.0</ele>
<speed>11.3</speed>
<course>6.8</course>
<desc>Speed 11.3 km/h Distance 28.98 km</desc>
<time>2011-09-24T12:06:40.57</time>
<name>8020</name>
</trkpt>
<trkpt lat="41.790435" lon="-1.817410">
<ele>1667.5</ele>
<speed>12.3</speed>
<course>3.8</course>
<desc>Speed 12.3 km/h Distance 28.99 km</desc>
<time>2011-09-24T12:06:41.57</time>
<name>8021</name>
</trkpt>
<trkpt lat="41.790470" lon="-1.817407">
<ele>1668.0</ele>
<speed>13.4</speed>
<course>354.4</course>
<desc>Speed 13.4 km/h Distance 28.99 km</desc>
<time>2011-09-24T12:06:42.57</time>
<name>8022</name>
</trkpt>
<trkpt lat="41.790508" lon="-1.817412">
<ele>1667.5</ele>
<speed>15.1</speed>
<course>354.7</course>
<desc>Speed 15.1 km/h Distance 28.99 km</desc>
<time>2011-09-24T12:06:43.57</time>
<name>8023</name>
</trkpt>
<trkpt lat="41.790550" lon="-1.817417">
<ele>1667.0</ele>
<speed>15.8</speed>
<course>356.3</course>
<desc>Speed 15.8 km/h Distance 29.00 km</desc>
<time>2011-09-24T12:06:44.57</time>
<name>8024</name>
</trkpt>
<trkpt lat="41.790590" lon="-1.817420">
<ele>1666.5</ele>
<speed>16.1</speed>
<course>356.3</course>
<desc>Speed 16.1 km/h Distance 29.00 km</desc>
<time>2011-09-24T12:06:45.57</time>
<name>8025</name>
</trkpt>
<trkpt lat="41.790627" lon="-1.817423">
<ele>1666.0</ele>
<speed>14.8</speed>
<course>5.8</course>
<desc>Speed 14.8 km/h Distance 29.01 km</desc>
<time>2011-09-24T12:06:46.57</time>
<name>8026</name>
</trkpt>
<trkpt lat="41.790675" lon="-1.817417">
<ele>1666.5</ele>
<speed>19.4</speed>
<course>4.4</course>
<desc>Speed 19.4 km/h Distance 29.01 km</desc>
<time>2011-09-24T12:06:47.57</time>
<name>8027</name>
</trkpt>
<trkpt lat="41.790723" lon="-1.817412">
<ele>1666.0</ele>
<speed>19.1</speed>
<course>0.6</course>
<desc>Speed 19.1 km/h Distance 29.02 km</desc>
<time>2011-09-24T12:06:48.57</time>
<name>8028</name>
</trkpt>
<trkpt lat="41.790770" lon="-1.817412">
<ele>1665.5</ele>
<speed>19.0</speed>
<course>355.3</course>
<desc>Speed 19.0 km/h Distance 29.02 km</desc>
<time>2011-09-24T12:06:49.58</time>
<name>8029</name>
</trkpt>
<trkpt lat="41.790907" lon="-1.817427">
<ele>1667.5</ele>
<speed>23.3</speed>
<course>344.5</course>
<desc>Speed 23.3 km/h Distance 29.04 km</desc>
<time>2011-09-24T12:06:51.57</time>
<name>8030</name>
</trkpt>
<trkpt lat="41.790965" lon="-1.817448">
<ele>1667.0</ele>
<speed>23.5</speed>
<course>330.3</course>
<desc>Speed 23.5 km/h Distance 29.05 km</desc>
<time>2011-09-24T12:06:52.57</time>
<name>8031</name>
</trkpt>
<trkpt lat="41.791015" lon="-1.817487">
<ele>1666.0</ele>
<speed>22.8</speed>
<course>318.4</course>
<desc>Speed 22.8 km/h Distance 29.05 km</desc>
<time>2011-09-24T12:06:53.57</time>
<name>8032</name>
</trkpt>
<trkpt lat="41.791058" lon="-1.817538">
<ele>1665.5</ele>
<speed>22.7</speed>
<course>323.3</course>
<desc>Speed 22.7 km/h Distance 29.06 km</desc>
<time>2011-09-24T12:06:54.56</time>
<name>8033</name>
</trkpt>
<trkpt lat="41.791103" lon="-1.817583">
<ele>1665.5</ele>
<speed>22.3</speed>
<course>321.3</course>
<desc>Speed 22.3 km/h Distance 29.06 km</desc>
<time>2011-09-24T12:06:55.57</time>
<name>8034</name>
</trkpt>
<trkpt lat="41.791148" lon="-1.817632">
<ele>1665.5</ele>
<speed>22.5</speed>
<course>317.7</course>
<desc>Speed 22.5 km/h Distance 29.07 km</desc>
<time>2011-09-24T12:06:56.56</time>
<name>8035</name>
</trkpt>
<trkpt lat="41.791193" lon="-1.817687">
<ele>1664.5</ele>
<speed>24.1</speed>
<course>321.7</course>
<desc>Speed 24.1 km/h Distance 29.08 km</desc>
<time>2011-09-24T12:06:57.57</time>
<name>8036</name>
</trkpt>
<trkpt lat="41.791248" lon="-1.817745">
<ele>1664.0</ele>
<speed>27.9</speed>
<course>315.6</course>
<desc>Speed 27.9 km/h Distance 29.09 km</desc>
<time>2011-09-24T12:06:58.57</time>
<name>8037</name>
</trkpt>
<trkpt lat="41.791302" lon="-1.817815">
<ele>1662.5</ele>
<speed>29.3</speed>
<course>310.8</course>
<desc>Speed 29.3 km/h Distance 29.09 km</desc>
<time>2011-09-24T12:06:59.57</time>
<name>8038</name>
</trkpt>
<trkpt lat="41.791347" lon="-1.817885">
<ele>1661.5</ele>
<speed>26.8</speed>
<course>307.3</course>
<desc>Speed 26.8 km/h Distance 29.10 km</desc>
<time>2011-09-24T12:07:00.56</time>
<name>8039</name>
</trkpt>
<trkpt lat="41.791388" lon="-1.817958">
<ele>1660.5</ele>
<speed>27.2</speed>
<course>303.8</course>
<desc>Speed 27.2 km/h Distance 29.11 km</desc>
<time>2011-09-24T12:07:01.56</time>
<name>8040</name>
</trkpt>
<trkpt lat="41.791428" lon="-1.818038">
<ele>1659.5</ele>
<speed>28.5</speed>
<course>295.3</course>
<desc>Speed 28.5 km/h Distance 29.12 km</desc>
<time>2011-09-24T12:07:02.56</time>
<name>8041</name>
</trkpt>
<trkpt lat="41.791460" lon="-1.818128">
<ele>1659.0</ele>
<speed>29.5</speed>
<course>291.3</course>
<desc>Speed 29.5 km/h Distance 29.13 km</desc>
<time>2011-09-24T12:07:03.56</time>
<name>8042</name>
</trkpt>
<trkpt lat="41.791487" lon="-1.818220">
<ele>1658.0</ele>
<speed>28.7</speed>
<course>294.1</course>
<desc>Speed 28.7 km/h Distance 29.13 km</desc>
<time>2011-09-24T12:07:04.56</time>
<name>8043</name>
</trkpt>
<trkpt lat="41.791515" lon="-1.818305">
<ele>1657.0</ele>
<speed>27.5</speed>
<course>295.3</course>
<desc>Speed 27.5 km/h Distance 29.14 km</desc>
<time>2011-09-24T12:07:05.56</time>
<name>8044</name>
</trkpt>
<trkpt lat="41.791545" lon="-1.818390">
<ele>1656.5</ele>
<speed>27.8</speed>
<course>295.9</course>
<desc>Speed 27.8 km/h Distance 29.15 km</desc>
<time>2011-09-24T12:07:06.56</time>
<name>8045</name>
</trkpt>
<trkpt lat="41.791573" lon="-1.818468">
<ele>1655.5</ele>
<speed>25.4</speed>
<course>299.5</course>
<desc>Speed 25.4 km/h Distance 29.16 km</desc>
<time>2011-09-24T12:07:07.55</time>
<name>8046</name>
</trkpt>
<trkpt lat="41.791605" lon="-1.818543">
<ele>1655.0</ele>
<speed>25.5</speed>
<course>296.7</course>
<desc>Speed 25.5 km/h Distance 29.16 km</desc>
<time>2011-09-24T12:07:08.55</time>
<name>8047</name>
</trkpt>
<trkpt lat="41.791635" lon="-1.818623">
<ele>1654.5</ele>
<speed>26.5</speed>
<course>298.2</course>
<desc>Speed 26.5 km/h Distance 29.17 km</desc>
<time>2011-09-24T12:07:09.55</time>
<name>8048</name>
</trkpt>
<trkpt lat="41.791665" lon="-1.818698">
<ele>1654.0</ele>
<speed>25.2</speed>
<course>291.0</course>
<desc>Speed 25.2 km/h Distance 29.18 km</desc>
<time>2011-09-24T12:07:10.56</time>
<name>8049</name>
</trkpt>
<trkpt lat="41.791688" lon="-1.818780">
<ele>1653.0</ele>
<speed>25.6</speed>
<course>295.9</course>
<desc>Speed 25.6 km/h Distance 29.19 km</desc>
<time>2011-09-24T12:07:11.55</time>
<name>8050</name>
</trkpt>
<trkpt lat="41.791717" lon="-1.818858">
<ele>1652.5</ele>
<speed>26.2</speed>
<course>297.5</course>
<desc>Speed 26.2 km/h Distance 29.19 km</desc>
<time>2011-09-24T12:07:12.55</time>
<name>8051</name>
</trkpt>
<trkpt lat="41.791748" lon="-1.818940">
<ele>1652.0</ele>
<speed>26.9</speed>
<course>295.4</course>
<desc>Speed 26.9 km/h Distance 29.20 km</desc>
<time>2011-09-24T12:07:13.55</time>
<name>8052</name>
</trkpt>
<trkpt lat="41.791777" lon="-1.819020">
<ele>1651.0</ele>
<speed>26.6</speed>
<course>296.4</course>
<desc>Speed 26.6 km/h Distance 29.21 km</desc>
<time>2011-09-24T12:07:14.55</time>
<name>8053</name>
</trkpt>
<trkpt lat="41.791805" lon="-1.819097">
<ele>1650.5</ele>
<speed>25.1</speed>
<course>288.9</course>
<desc>Speed 25.1 km/h Distance 29.21 km</desc>
<time>2011-09-24T12:07:15.55</time>
<name>8054</name>
</trkpt>
<trkpt lat="41.791825" lon="-1.819175">
<ele>1650.0</ele>
<speed>24.4</speed>
<course>285.3</course>
<desc>Speed 24.4 km/h Distance 29.22 km</desc>
<time>2011-09-24T12:07:16.55</time>
<name>8055</name>
</trkpt>
<trkpt lat="41.791842" lon="-1.819257">
<ele>1649.5</ele>
<speed>25.2</speed>
<course>291.8</course>
<desc>Speed 25.2 km/h Distance 29.23 km</desc>
<time>2011-09-24T12:07:17.55</time>
<name>8056</name>
</trkpt>
<trkpt lat="41.791865" lon="-1.819335">
<ele>1648.5</ele>
<speed>25.4</speed>
<course>293.6</course>
<desc>Speed 25.4 km/h Distance 29.24 km</desc>
<time>2011-09-24T12:07:18.55</time>
<name>8057</name>
</trkpt>
<trkpt lat="41.791890" lon="-1.819412">
<ele>1648.0</ele>
<speed>24.8</speed>
<course>297.9</course>
<desc>Speed 24.8 km/h Distance 29.24 km</desc>
<time>2011-09-24T12:07:19.55</time>
<name>8058</name>
</trkpt>
<trkpt lat="41.791940" lon="-1.819538">
<ele>1647.5</ele>
<speed>19.6</speed>
<course>298.4</course>
<desc>Speed 19.6 km/h Distance 29.25 km</desc>
<time>2011-09-24T12:07:21.54</time>
<name>8059</name>
</trkpt>
<trkpt lat="41.791975" lon="-1.819625">
<ele>1647.0</ele>
<speed>14.4</speed>
<course>300.8</course>
<desc>Speed 14.4 km/h Distance 29.26 km</desc>
<time>2011-09-24T12:07:23.54</time>
<name>8060</name>
</trkpt>
<trkpt lat="41.791995" lon="-1.819670">
<ele>1646.5</ele>
<speed>15.6</speed>
<course>283.7</course>
<desc>Speed 15.6 km/h Distance 29.27 km</desc>
<time>2011-09-24T12:07:24.54</time>
<name>8061</name>
</trkpt>
<trkpt lat="41.792018" lon="-1.819798">
<ele>1647.0</ele>
<speed>19.5</speed>
<course>284.4</course>
<desc>Speed 19.5 km/h Distance 29.28 km</desc>
<time>2011-09-24T12:07:26.55</time>
<name>8062</name>
</trkpt>
<trkpt lat="41.792040" lon="-1.819912">
<ele>1646.0</ele>
<speed>18.0</speed>
<course>284.8</course>
<desc>Speed 18.0 km/h Distance 29.29 km</desc>
<time>2011-09-24T12:07:28.54</time>
<name>8063</name>
</trkpt>
<trkpt lat="41.792065" lon="-1.820038">
<ele>1645.5</ele>
<speed>20.0</speed>
<course>288.8</course>
<desc>Speed 20.0 km/h Distance 29.30 km</desc>
<time>2011-09-24T12:07:30.54</time>
<name>8064</name>
</trkpt>
<trkpt lat="41.792098" lon="-1.820170">
<ele>1644.5</ele>
<speed>20.7</speed>
<course>319.8</course>
<desc>Speed 20.7 km/h Distance 29.31 km</desc>
<time>2011-09-24T12:07:32.54</time>
<name>8065</name>
</trkpt>
<trkpt lat="41.792148" lon="-1.820227">
<ele>1644.0</ele>
<speed>25.6</speed>
<course>318.0</course>
<desc>Speed 25.6 km/h Distance 29.32 km</desc>
<time>2011-09-24T12:07:33.54</time>
<name>8066</name>
</trkpt>
<trkpt lat="41.792188" lon="-1.820275">
<ele>1643.5</ele>
<speed>21.0</speed>
<course>330.8</course>
<desc>Speed 21.0 km/h Distance 29.32 km</desc>
<time>2011-09-24T12:07:34.54</time>
<name>8067</name>
</trkpt>
<trkpt lat="41.792235" lon="-1.820310">
<ele>1644.0</ele>
<speed>21.3</speed>
<course>326.0</course>
<desc>Speed 21.3 km/h Distance 29.33 km</desc>
<time>2011-09-24T12:07:35.54</time>
<name>8068</name>
</trkpt>
<trkpt lat="41.792287" lon="-1.820357">
<ele>1643.5</ele>
<speed>24.5</speed>
<course>323.3</course>
<desc>Speed 24.5 km/h Distance 29.34 km</desc>
<time>2011-09-24T12:07:36.54</time>
<name>8069</name>
</trkpt>
<trkpt lat="41.792335" lon="-1.820405">
<ele>1643.0</ele>
<speed>23.4</speed>
<course>328.1</course>
<desc>Speed 23.4 km/h Distance 29.34 km</desc>
<time>2011-09-24T12:07:38.22</time>
<name>8070</name>
</trkpt>
<trkpt lat="41.792437" lon="-1.820490">
<ele>1642.5</ele>
<speed>23.6</speed>
<course>325.1</course>
<desc>Speed 23.6 km/h Distance 29.36 km</desc>
<time>2011-09-24T12:07:39.85</time>
<name>8071</name>
</trkpt>
<trkpt lat="41.792515" lon="-1.820563">
<ele>1642.0</ele>
<speed>17.8</speed>
<course>318.2</course>
<desc>Speed 17.8 km/h Distance 29.37 km</desc>
<time>2011-09-24T12:07:41.53</time>
<name>8072</name>
</trkpt>
<trkpt lat="41.792540" lon="-1.820593">
<ele>1642.0</ele>
<speed>13.5</speed>
<course>305.2</course>
<desc>Speed 13.5 km/h Distance 29.37 km</desc>
<time>2011-09-24T12:07:42.54</time>
<name>8073</name>
</trkpt>
<trkpt lat="41.792557" lon="-1.820625">
<ele>1642.0</ele>
<speed>11.6</speed>
<course>303.9</course>
<desc>Speed 11.6 km/h Distance 29.37 km</desc>
<time>2011-09-24T12:07:43.54</time>
<name>8074</name>
</trkpt>
<trkpt lat="41.792568" lon="-1.820648">
<ele>1642.0</ele>
<speed>8.6</speed>
<course>310.5</course>
<desc>Speed 8.6 km/h Distance 29.38 km</desc>
<time>2011-09-24T12:07:44.54</time>
<name>8075</name>
</trkpt>
<trkpt lat="41.792580" lon="-1.820667">
<ele>1641.5</ele>
<speed>7.5</speed>
<course>313.2</course>
<desc>Speed 7.5 km/h Distance 29.38 km</desc>
<time>2011-09-24T12:07:45.54</time>
<name>8076</name>
</trkpt>
<trkpt lat="41.792592" lon="-1.820683">
<ele>1641.5</ele>
<speed>6.7</speed>
<course>310.0</course>
<desc>Speed 6.7 km/h Distance 29.38 km</desc>
<time>2011-09-24T12:07:46.55</time>
<name>8077</name>
</trkpt>
<trkpt lat="41.792617" lon="-1.820723">
<ele>1641.5</ele>
<speed>8.5</speed>
<course>305.8</course>
<desc>Speed 8.5 km/h Distance 29.38 km</desc>
<time>2011-09-24T12:07:48.53</time>
<name>8078</name>
</trkpt>
<trkpt lat="41.792628" lon="-1.820745">
<ele>1641.5</ele>
<speed>8.0</speed>
<course>312.9</course>
<desc>Speed 8.0 km/h Distance 29.39 km</desc>
<time>2011-09-24T12:07:49.53</time>
<name>8079</name>
</trkpt>
<trkpt lat="41.792643" lon="-1.820767">
<ele>1642.0</ele>
<speed>8.6</speed>
<course>320.9</course>
<desc>Speed 8.6 km/h Distance 29.39 km</desc>
<time>2011-09-24T12:07:50.53</time>
<name>8080</name>
</trkpt>
<trkpt lat="41.792662" lon="-1.820787">
<ele>1642.0</ele>
<speed>8.8</speed>
<course>318.6</course>
<desc>Speed 8.8 km/h Distance 29.39 km</desc>
<time>2011-09-24T12:07:51.53</time>
<name>8081</name>
</trkpt>
<trkpt lat="41.792680" lon="-1.820808">
<ele>1642.0</ele>
<speed>9.2</speed>
<course>315.9</course>
<desc>Speed 9.2 km/h Distance 29.39 km</desc>
<time>2011-09-24T12:07:52.53</time>
<name>8082</name>
</trkpt>
<trkpt lat="41.792697" lon="-1.820830">
<ele>1642.0</ele>
<speed>9.2</speed>
<course>310.7</course>
<desc>Speed 9.2 km/h Distance 29.40 km</desc>
<time>2011-09-24T12:07:53.53</time>
<name>8083</name>
</trkpt>
<trkpt lat="41.792712" lon="-1.820853">
<ele>1642.0</ele>
<speed>8.9</speed>
<course>323.3</course>
<desc>Speed 8.9 km/h Distance 29.40 km</desc>
<time>2011-09-24T12:07:54.53</time>
<name>8084</name>
</trkpt>
<trkpt lat="41.792743" lon="-1.820885">
<ele>1642.0</ele>
<speed>7.5</speed>
<course>335.2</course>
<desc>Speed 7.5 km/h Distance 29.40 km</desc>
<time>2011-09-24T12:07:56.53</time>
<name>8085</name>
</trkpt>
<trkpt lat="41.792757" lon="-1.820893">
<ele>1642.0</ele>
<speed>5.8</speed>
<course>357.8</course>
<desc>Speed 5.8 km/h Distance 29.41 km</desc>
<time>2011-09-24T12:07:57.53</time>
<name>8086</name>
</trkpt>
<trkpt lat="41.792783" lon="-1.820895">
<ele>1642.0</ele>
<speed>5.1</speed>
<course>327.6</course>
<desc>Speed 5.1 km/h Distance 29.41 km</desc>
<time>2011-09-24T12:07:59.53</time>
<name>8087</name>
</trkpt>
<trkpt lat="41.792795" lon="-1.820905">
<ele>1641.5</ele>
<speed>5.6</speed>
<course>323.6</course>
<desc>Speed 5.6 km/h Distance 29.41 km</desc>
<time>2011-09-24T12:08:00.53</time>
<name>8088</name>
</trkpt>
<trkpt lat="41.792805" lon="-1.820915">
<ele>1641.5</ele>
<speed>5.0</speed>
<course>319.6</course>
<desc>Speed 5.0 km/h Distance 29.41 km</desc>
<time>2011-09-24T12:08:01.53</time>
<name>8089</name>
</trkpt>
<trkpt lat="41.792817" lon="-1.820928">
<ele>1641.5</ele>
<speed>6.2</speed>
<course>323.3</course>
<desc>Speed 6.2 km/h Distance 29.41 km</desc>
<time>2011-09-24T12:08:02.53</time>
<name>8090</name>
</trkpt>
<trkpt lat="41.792832" lon="-1.820943">
<ele>1641.5</ele>
<speed>7.7</speed>
<course>332.4</course>
<desc>Speed 7.7 km/h Distance 29.42 km</desc>
<time>2011-09-24T12:08:03.53</time>
<name>8091</name>
</trkpt>
<trkpt lat="41.792848" lon="-1.820955">
<ele>1641.0</ele>
<speed>8.0</speed>
<course>329.7</course>
<desc>Speed 8.0 km/h Distance 29.42 km</desc>
<time>2011-09-24T12:08:04.52</time>
<name>8092</name>
</trkpt>
<trkpt lat="41.792863" lon="-1.820967">
<ele>1641.0</ele>
<speed>7.2</speed>
<course>332.1</course>
<desc>Speed 7.2 km/h Distance 29.42 km</desc>
<time>2011-09-24T12:08:05.53</time>
<name>8093</name>
</trkpt>
<trkpt lat="41.792875" lon="-1.820975">
<ele>1641.0</ele>
<speed>6.4</speed>
<course>330.8</course>
<desc>Speed 6.4 km/h Distance 29.42 km</desc>
<time>2011-09-24T12:08:06.53</time>
<name>8094</name>
</trkpt>
<trkpt lat="41.792888" lon="-1.820985">
<ele>1641.0</ele>
<speed>6.6</speed>
<course>329.1</course>
<desc>Speed 6.6 km/h Distance 29.42 km</desc>
<time>2011-09-24T12:08:07.53</time>
<name>8095</name>
</trkpt>
<trkpt lat="41.792905" lon="-1.820998">
<ele>1641.0</ele>
<speed>7.8</speed>
<course>328.6</course>
<desc>Speed 7.8 km/h Distance 29.42 km</desc>
<time>2011-09-24T12:08:08.53</time>
<name>8096</name>
</trkpt>
<trkpt lat="41.792923" lon="-1.821013">
<ele>1641.0</ele>
<speed>8.1</speed>
<course>331.6</course>
<desc>Speed 8.1 km/h Distance 29.43 km</desc>
<time>2011-09-24T12:08:09.52</time>
<name>8097</name>
</trkpt>
<trkpt lat="41.792942" lon="-1.821027">
<ele>1640.5</ele>
<speed>9.1</speed>
<course>334.5</course>
<desc>Speed 9.1 km/h Distance 29.43 km</desc>
<time>2011-09-24T12:08:10.52</time>
<name>8098</name>
</trkpt>
<trkpt lat="41.792960" lon="-1.821038">
<ele>1640.5</ele>
<speed>8.2</speed>
<course>329.2</course>
<desc>Speed 8.2 km/h Distance 29.43 km</desc>
<time>2011-09-24T12:08:11.52</time>
<name>8099</name>
</trkpt>
<trkpt lat="41.792977" lon="-1.821052">
<ele>1640.0</ele>
<speed>7.7</speed>
<course>326.8</course>
<desc>Speed 7.7 km/h Distance 29.43 km</desc>
<time>2011-09-24T12:08:12.53</time>
<name>8100</name>
</trkpt>
<trkpt lat="41.792990" lon="-1.821063">
<ele>1640.0</ele>
<speed>6.4</speed>
<course>334.5</course>
<desc>Speed 6.4 km/h Distance 29.44 km</desc>
<time>2011-09-24T12:08:13.53</time>
<name>8101</name>
</trkpt>
<trkpt lat="41.793008" lon="-1.821075">
<ele>1640.0</ele>
<speed>7.8</speed>
<course>323.1</course>
<desc>Speed 7.8 km/h Distance 29.44 km</desc>
<time>2011-09-24T12:08:14.52</time>
<name>8102</name>
</trkpt>
<trkpt lat="41.793022" lon="-1.821088">
<ele>1639.5</ele>
<speed>6.4</speed>
<course>339.6</course>
<desc>Speed 6.4 km/h Distance 29.44 km</desc>
<time>2011-09-24T12:08:15.52</time>
<name>8103</name>
</trkpt>
<trkpt lat="41.793038" lon="-1.821097">
<ele>1639.5</ele>
<speed>6.6</speed>
<course>326.1</course>
<desc>Speed 6.6 km/h Distance 29.44 km</desc>
<time>2011-09-24T12:08:16.52</time>
<name>8104</name>
</trkpt>
<trkpt lat="41.793055" lon="-1.821112">
<ele>1639.0</ele>
<speed>7.6</speed>
<course>334.6</course>
<desc>Speed 7.6 km/h Distance 29.44 km</desc>
<time>2011-09-24T12:08:17.52</time>
<name>8105</name>
</trkpt>
<trkpt lat="41.793073" lon="-1.821123">
<ele>1639.0</ele>
<speed>8.1</speed>
<course>323.2</course>
<desc>Speed 8.1 km/h Distance 29.45 km</desc>
<time>2011-09-24T12:08:18.51</time>
<name>8106</name>
</trkpt>
<trkpt lat="41.793088" lon="-1.821138">
<ele>1638.5</ele>
<speed>7.2</speed>
<course>323.2</course>
<desc>Speed 7.2 km/h Distance 29.45 km</desc>
<time>2011-09-24T12:08:19.51</time>
<name>8107</name>
</trkpt>
<trkpt lat="41.793103" lon="-1.821153">
<ele>1638.5</ele>
<speed>7.3</speed>
<course>330.8</course>
<desc>Speed 7.3 km/h Distance 29.45 km</desc>
<time>2011-09-24T12:08:20.52</time>
<name>8108</name>
</trkpt>
<trkpt lat="41.793123" lon="-1.821168">
<ele>1638.0</ele>
<speed>8.6</speed>
<course>329.7</course>
<desc>Speed 8.6 km/h Distance 29.45 km</desc>
<time>2011-09-24T12:08:21.52</time>
<name>8109</name>
</trkpt>
<trkpt lat="41.793147" lon="-1.821187">
<ele>1637.5</ele>
<speed>10.3</speed>
<course>335.3</course>
<desc>Speed 10.3 km/h Distance 29.46 km</desc>
<time>2011-09-24T12:08:22.51</time>
<name>8110</name>
</trkpt>
<trkpt lat="41.793168" lon="-1.821200">
<ele>1637.5</ele>
<speed>9.1</speed>
<course>335.3</course>
<desc>Speed 9.1 km/h Distance 29.46 km</desc>
<time>2011-09-24T12:08:23.51</time>
<name>8111</name>
</trkpt>
<trkpt lat="41.793190" lon="-1.821213">
<ele>1637.5</ele>
<speed>8.2</speed>
<course>335.3</course>
<desc>Speed 8.2 km/h Distance 29.46 km</desc>
<time>2011-09-24T12:08:24.52</time>
<name>8112</name>
</trkpt>
<trkpt lat="41.793212" lon="-1.821227">
<ele>1637.5</ele>
<speed>9.0</speed>
<course>325.9</course>
<desc>Speed 9.0 km/h Distance 29.46 km</desc>
<time>2011-09-24T12:08:25.52</time>
<name>8113</name>
</trkpt>
<trkpt lat="41.793230" lon="-1.821243">
<ele>1637.5</ele>
<speed>8.4</speed>
<course>325.7</course>
<desc>Speed 8.4 km/h Distance 29.47 km</desc>
<time>2011-09-24T12:08:26.51</time>
<name>8114</name>
</trkpt>
<trkpt lat="41.793250" lon="-1.821262">
<ele>1637.5</ele>
<speed>8.9</speed>
<course>323.3</course>
<desc>Speed 8.9 km/h Distance 29.47 km</desc>
<time>2011-09-24T12:08:27.51</time>
<name>8115</name>
</trkpt>
<trkpt lat="41.793268" lon="-1.821280">
<ele>1637.5</ele>
<speed>8.6</speed>
<course>328.1</course>
<desc>Speed 8.6 km/h Distance 29.47 km</desc>
<time>2011-09-24T12:08:28.51</time>
<name>8116</name>
</trkpt>
<trkpt lat="41.793288" lon="-1.821297">
<ele>1637.5</ele>
<speed>8.7</speed>
<course>323.3</course>
<desc>Speed 8.7 km/h Distance 29.47 km</desc>
<time>2011-09-24T12:08:29.51</time>
<name>8117</name>
</trkpt>
<trkpt lat="41.793308" lon="-1.821317">
<ele>1637.5</ele>
<speed>9.8</speed>
<course>327.7</course>
<desc>Speed 9.8 km/h Distance 29.48 km</desc>
<time>2011-09-24T12:08:30.51</time>
<name>8118</name>
</trkpt>
<trkpt lat="41.793330" lon="-1.821335">
<ele>1637.0</ele>
<speed>9.7</speed>
<course>328.6</course>
<desc>Speed 9.7 km/h Distance 29.48 km</desc>
<time>2011-09-24T12:08:31.51</time>
<name>8119</name>
</trkpt>
<trkpt lat="41.793348" lon="-1.821350">
<ele>1637.0</ele>
<speed>8.4</speed>
<course>329.1</course>
<desc>Speed 8.4 km/h Distance 29.48 km</desc>
<time>2011-09-24T12:08:32.51</time>
<name>8120</name>
</trkpt>
<trkpt lat="41.793365" lon="-1.821363">
<ele>1637.0</ele>
<speed>7.9</speed>
<course>323.3</course>
<desc>Speed 7.9 km/h Distance 29.48 km</desc>
<time>2011-09-24T12:08:33.51</time>
<name>8121</name>
</trkpt>
<trkpt lat="41.793380" lon="-1.821378">
<ele>1637.0</ele>
<speed>6.8</speed>
<course>317.6</course>
<desc>Speed 6.8 km/h Distance 29.49 km</desc>
<time>2011-09-24T12:08:34.51</time>
<name>8122</name>
</trkpt>
<trkpt lat="41.793395" lon="-1.821397">
<ele>1637.0</ele>
<speed>8.0</speed>
<course>314.3</course>
<desc>Speed 8.0 km/h Distance 29.49 km</desc>
<time>2011-09-24T12:08:35.51</time>
<name>8123</name>
</trkpt>
<trkpt lat="41.793408" lon="-1.821415">
<ele>1636.5</ele>
<speed>7.3</speed>
<course>326.0</course>
<desc>Speed 7.3 km/h Distance 29.49 km</desc>
<time>2011-09-24T12:08:36.51</time>
<name>8124</name>
</trkpt>
<trkpt lat="41.793425" lon="-1.821430">
<ele>1636.5</ele>
<speed>7.3</speed>
<course>329.1</course>
<desc>Speed 7.3 km/h Distance 29.49 km</desc>
<time>2011-09-24T12:08:37.51</time>
<name>8125</name>
</trkpt>
<trkpt lat="41.793442" lon="-1.821443">
<ele>1636.5</ele>
<speed>7.8</speed>
<course>329.1</course>
<desc>Speed 7.8 km/h Distance 29.50 km</desc>
<time>2011-09-24T12:08:38.50</time>
<name>8126</name>
</trkpt>
<trkpt lat="41.793458" lon="-1.821457">
<ele>1636.0</ele>
<speed>7.4</speed>
<course>334.6</course>
<desc>Speed 7.4 km/h Distance 29.50 km</desc>
<time>2011-09-24T12:08:39.50</time>
<name>8127</name>
</trkpt>
<trkpt lat="41.793477" lon="-1.821468">
<ele>1636.0</ele>
<speed>7.2</speed>
<course>326.5</course>
<desc>Speed 7.2 km/h Distance 29.50 km</desc>
<time>2011-09-24T12:08:40.50</time>
<name>8128</name>
</trkpt>
<trkpt lat="41.793492" lon="-1.821482">
<ele>1636.0</ele>
<speed>7.3</speed>
<course>329.2</course>
<desc>Speed 7.3 km/h Distance 29.50 km</desc>
<time>2011-09-24T12:08:41.50</time>
<name>8129</name>
</trkpt>
<trkpt lat="41.793508" lon="-1.821495">
<ele>1636.0</ele>
<speed>7.3</speed>
<course>323.3</course>
<desc>Speed 7.3 km/h Distance 29.50 km</desc>
<time>2011-09-24T12:08:42.50</time>
<name>8130</name>
</trkpt>
<trkpt lat="41.793525" lon="-1.821512">
<ele>1635.5</ele>
<speed>7.9</speed>
<course>317.7</course>
<desc>Speed 7.9 km/h Distance 29.51 km</desc>
<time>2011-09-24T12:08:43.50</time>
<name>8131</name>
</trkpt>
<trkpt lat="41.793540" lon="-1.821530">
<ele>1635.5</ele>
<speed>7.7</speed>
<course>329.2</course>
<desc>Speed 7.7 km/h Distance 29.51 km</desc>
<time>2011-09-24T12:08:44.50</time>
<name>8132</name>
</trkpt>
<trkpt lat="41.793557" lon="-1.821543">
<ele>1635.0</ele>
<speed>7.1</speed>
<course>317.7</course>
<desc>Speed 7.1 km/h Distance 29.51 km</desc>
<time>2011-09-24T12:08:45.50</time>
<name>8133</name>
</trkpt>
<trkpt lat="41.793572" lon="-1.821562">
<ele>1635.0</ele>
<speed>7.5</speed>
<course>323.3</course>
<desc>Speed 7.5 km/h Distance 29.51 km</desc>
<time>2011-09-24T12:08:46.50</time>
<name>8134</name>
</trkpt>
<trkpt lat="41.793588" lon="-1.821578">
<ele>1635.0</ele>
<speed>7.7</speed>
<course>320.0</course>
<desc>Speed 7.7 km/h Distance 29.52 km</desc>
<time>2011-09-24T12:08:47.50</time>
<name>8135</name>
</trkpt>
<trkpt lat="41.793602" lon="-1.821593">
<ele>1635.0</ele>
<speed>7.1</speed>
<course>323.3</course>
<desc>Speed 7.1 km/h Distance 29.52 km</desc>
<time>2011-09-24T12:08:48.50</time>
<name>8136</name>
</trkpt>
<trkpt lat="41.793617" lon="-1.821608">
<ele>1635.0</ele>
<speed>7.2</speed>
<course>323.3</course>
<desc>Speed 7.2 km/h Distance 29.52 km</desc>
<time>2011-09-24T12:08:49.50</time>
<name>8137</name>
</trkpt>
<trkpt lat="41.793633" lon="-1.821625">
<ele>1635.0</ele>
<speed>7.6</speed>
<course>326.5</course>
<desc>Speed 7.6 km/h Distance 29.52 km</desc>
<time>2011-09-24T12:08:50.50</time>
<name>8138</name>
</trkpt>
<trkpt lat="41.793648" lon="-1.821638">
<ele>1634.5</ele>
<speed>6.8</speed>
<course>326.2</course>
<desc>Speed 6.8 km/h Distance 29.52 km</desc>
<time>2011-09-24T12:08:51.49</time>
<name>8139</name>
</trkpt>
<trkpt lat="41.793665" lon="-1.821653">
<ele>1634.5</ele>
<speed>7.7</speed>
<course>326.1</course>
<desc>Speed 7.7 km/h Distance 29.53 km</desc>
<time>2011-09-24T12:08:52.49</time>
<name>8140</name>
</trkpt>
<trkpt lat="41.793682" lon="-1.821668">
<ele>1634.5</ele>
<speed>7.5</speed>
<course>325.9</course>
<desc>Speed 7.5 km/h Distance 29.53 km</desc>
<time>2011-09-24T12:08:53.49</time>
<name>8141</name>
</trkpt>
<trkpt lat="41.793700" lon="-1.821685">
<ele>1634.5</ele>
<speed>8.2</speed>
<course>326.2</course>
<desc>Speed 8.2 km/h Distance 29.53 km</desc>
<time>2011-09-24T12:08:54.49</time>
<name>8142</name>
</trkpt>
<trkpt lat="41.793717" lon="-1.821700">
<ele>1634.5</ele>
<speed>8.1</speed>
<course>330.8</course>
<desc>Speed 8.1 km/h Distance 29.53 km</desc>
<time>2011-09-24T12:08:55.49</time>
<name>8143</name>
</trkpt>
<trkpt lat="41.793737" lon="-1.821715">
<ele>1634.5</ele>
<speed>8.3</speed>
<course>328.7</course>
<desc>Speed 8.3 km/h Distance 29.54 km</desc>
<time>2011-09-24T12:08:56.49</time>
<name>8144</name>
</trkpt>
<trkpt lat="41.793755" lon="-1.821730">
<ele>1634.5</ele>
<speed>7.9</speed>
<course>323.4</course>
<desc>Speed 7.9 km/h Distance 29.54 km</desc>
<time>2011-09-24T12:08:57.49</time>
<name>8145</name>
</trkpt>
<trkpt lat="41.793772" lon="-1.821747">
<ele>1634.5</ele>
<speed>8.0</speed>
<course>320.4</course>
<desc>Speed 8.0 km/h Distance 29.54 km</desc>
<time>2011-09-24T12:08:58.49</time>
<name>8146</name>
</trkpt>
<trkpt lat="41.793787" lon="-1.821763">
<ele>1634.0</ele>
<speed>7.6</speed>
<course>331.6</course>
<desc>Speed 7.6 km/h Distance 29.54 km</desc>
<time>2011-09-24T12:08:59.49</time>
<name>8147</name>
</trkpt>
<trkpt lat="41.793805" lon="-1.821777">
<ele>1634.0</ele>
<speed>7.6</speed>
<course>326.2</course>
<desc>Speed 7.6 km/h Distance 29.54 km</desc>
<time>2011-09-24T12:09:00.50</time>
<name>8148</name>
</trkpt>
<trkpt lat="41.793822" lon="-1.821792">
<ele>1634.0</ele>
<speed>7.4</speed>
<course>329.9</course>
<desc>Speed 7.4 km/h Distance 29.55 km</desc>
<time>2011-09-24T12:09:01.50</time>
<name>8149</name>
</trkpt>
<trkpt lat="41.793837" lon="-1.821803">
<ele>1634.0</ele>
<speed>6.4</speed>
<course>326.5</course>
<desc>Speed 6.4 km/h Distance 29.55 km</desc>
<time>2011-09-24T12:09:02.49</time>
<name>8150</name>
</trkpt>
<trkpt lat="41.793852" lon="-1.821817">
<ele>1634.0</ele>
<speed>6.9</speed>
<course>331.6</course>
<desc>Speed 6.9 km/h Distance 29.55 km</desc>
<time>2011-09-24T12:09:03.49</time>
<name>8151</name>
</trkpt>
<trkpt lat="41.793870" lon="-1.821830">
<ele>1634.0</ele>
<speed>7.8</speed>
<course>328.5</course>
<desc>Speed 7.8 km/h Distance 29.55 km</desc>
<time>2011-09-24T12:09:04.49</time>
<name>8152</name>
</trkpt>
<trkpt lat="41.793888" lon="-1.821845">
<ele>1634.0</ele>
<speed>8.4</speed>
<course>333.4</course>
<desc>Speed 8.4 km/h Distance 29.56 km</desc>
<time>2011-09-24T12:09:05.49</time>
<name>8153</name>
</trkpt>
<trkpt lat="41.793908" lon="-1.821858">
<ele>1634.0</ele>
<speed>8.2</speed>
<course>339.6</course>
<desc>Speed 8.2 km/h Distance 29.56 km</desc>
<time>2011-09-24T12:09:06.49</time>
<name>8154</name>
</trkpt>
<trkpt lat="41.793928" lon="-1.821868">
<ele>1634.0</ele>
<speed>7.5</speed>
<course>317.7</course>
<desc>Speed 7.5 km/h Distance 29.56 km</desc>
<time>2011-09-24T12:09:07.49</time>
<name>8155</name>
</trkpt>
<trkpt lat="41.793943" lon="-1.821887">
<ele>1633.5</ele>
<speed>7.8</speed>
<course>323.3</course>
<desc>Speed 7.8 km/h Distance 29.56 km</desc>
<time>2011-09-24T12:09:08.49</time>
<name>8156</name>
</trkpt>
<trkpt lat="41.793963" lon="-1.821907">
<ele>1633.5</ele>
<speed>9.4</speed>
<course>319.0</course>
<desc>Speed 9.4 km/h Distance 29.57 km</desc>
<time>2011-09-24T12:09:09.48</time>
<name>8157</name>
</trkpt>
<trkpt lat="41.793983" lon="-1.821930">
<ele>1633.5</ele>
<speed>10.0</speed>
<course>327.1</course>
<desc>Speed 10.0 km/h Distance 29.57 km</desc>
<time>2011-09-24T12:09:10.49</time>
<name>8158</name>
</trkpt>
<trkpt lat="41.794008" lon="-1.821952">
<ele>1633.5</ele>
<speed>11.8</speed>
<course>330.8</course>
<desc>Speed 11.8 km/h Distance 29.57 km</desc>
<time>2011-09-24T12:09:11.49</time>
<name>8159</name>
</trkpt>
<trkpt lat="41.794048" lon="-1.821982">
<ele>1633.5</ele>
<speed>18.5</speed>
<course>335.4</course>
<desc>Speed 18.5 km/h Distance 29.58 km</desc>
<time>2011-09-24T12:09:12.49</time>
<name>8160</name>
</trkpt>
<trkpt lat="41.794100" lon="-1.822013">
<ele>1633.5</ele>
<speed>22.0</speed>
<course>330.5</course>
<desc>Speed 22.0 km/h Distance 29.58 km</desc>
<time>2011-09-24T12:09:13.48</time>
<name>8161</name>
</trkpt>
<trkpt lat="41.794148" lon="-1.822050">
<ele>1633.5</ele>
<speed>22.1</speed>
<course>333.6</course>
<desc>Speed 22.1 km/h Distance 29.59 km</desc>
<time>2011-09-24T12:09:14.48</time>
<name>8162</name>
</trkpt>
<trkpt lat="41.794198" lon="-1.822083">
<ele>1633.0</ele>
<speed>21.5</speed>
<course>328.7</course>
<desc>Speed 21.5 km/h Distance 29.60 km</desc>
<time>2011-09-24T12:09:15.48</time>
<name>8163</name>
</trkpt>
<trkpt lat="41.794243" lon="-1.822120">
<ele>1633.0</ele>
<speed>21.6</speed>
<course>320.3</course>
<desc>Speed 21.6 km/h Distance 29.60 km</desc>
<time>2011-09-24T12:09:16.48</time>
<name>8164</name>
</trkpt>
<trkpt lat="41.794287" lon="-1.822168">
<ele>1632.5</ele>
<speed>21.8</speed>
<course>324.4</course>
<desc>Speed 21.8 km/h Distance 29.61 km</desc>
<time>2011-09-24T12:09:17.48</time>
<name>8165</name>
</trkpt>
<trkpt lat="41.794330" lon="-1.822210">
<ele>1632.5</ele>
<speed>21.4</speed>
<course>327.4</course>
<desc>Speed 21.4 km/h Distance 29.61 km</desc>
<time>2011-09-24T12:09:18.48</time>
<name>8166</name>
</trkpt>
<trkpt lat="41.794377" lon="-1.822250">
<ele>1632.0</ele>
<speed>21.9</speed>
<course>325.5</course>
<desc>Speed 21.9 km/h Distance 29.62 km</desc>
<time>2011-09-24T12:09:19.48</time>
<name>8167</name>
</trkpt>
<trkpt lat="41.794420" lon="-1.822290">
<ele>1631.5</ele>
<speed>20.1</speed>
<course>332.7</course>
<desc>Speed 20.1 km/h Distance 29.63 km</desc>
<time>2011-09-24T12:09:20.48</time>
<name>8168</name>
</trkpt>
<trkpt lat="41.794463" lon="-1.822320">
<ele>1631.5</ele>
<speed>19.3</speed>
<course>337.0</course>
<desc>Speed 19.3 km/h Distance 29.63 km</desc>
<time>2011-09-24T12:09:21.48</time>
<name>8169</name>
</trkpt>
<trkpt lat="41.794510" lon="-1.822347">
<ele>1631.0</ele>
<speed>20.0</speed>
<course>329.4</course>
<desc>Speed 20.0 km/h Distance 29.64 km</desc>
<time>2011-09-24T12:09:22.48</time>
<name>8170</name>
</trkpt>
<trkpt lat="41.794550" lon="-1.822378">
<ele>1631.0</ele>
<speed>18.2</speed>
<course>331.4</course>
<desc>Speed 18.2 km/h Distance 29.64 km</desc>
<time>2011-09-24T12:09:23.47</time>
<name>8171</name>
</trkpt>
<trkpt lat="41.794593" lon="-1.822410">
<ele>1630.5</ele>
<speed>19.6</speed>
<course>328.7</course>
<desc>Speed 19.6 km/h Distance 29.65 km</desc>
<time>2011-09-24T12:09:24.48</time>
<name>8172</name>
</trkpt>
<trkpt lat="41.794638" lon="-1.822447">
<ele>1630.0</ele>
<speed>20.7</speed>
<course>329.6</course>
<desc>Speed 20.7 km/h Distance 29.65 km</desc>
<time>2011-09-24T12:09:25.47</time>
<name>8173</name>
</trkpt>
<trkpt lat="41.794685" lon="-1.822483">
<ele>1629.5</ele>
<speed>21.1</speed>
<course>324.4</course>
<desc>Speed 21.1 km/h Distance 29.66 km</desc>
<time>2011-09-24T12:09:26.47</time>
<name>8174</name>
</trkpt>
<trkpt lat="41.794728" lon="-1.822525">
<ele>1629.0</ele>
<speed>20.8</speed>
<course>319.9</course>
<desc>Speed 20.8 km/h Distance 29.67 km</desc>
<time>2011-09-24T12:09:27.47</time>
<name>8175</name>
</trkpt>
<trkpt lat="41.794767" lon="-1.822568">
<ele>1628.5</ele>
<speed>20.1</speed>
<course>326.6</course>
<desc>Speed 20.1 km/h Distance 29.67 km</desc>
<time>2011-09-24T12:09:28.47</time>
<name>8176</name>
</trkpt>
<trkpt lat="41.794810" lon="-1.822607">
<ele>1628.0</ele>
<speed>20.9</speed>
<course>326.5</course>
<desc>Speed 20.9 km/h Distance 29.68 km</desc>
<time>2011-09-24T12:09:29.47</time>
<name>8177</name>
</trkpt>
<trkpt lat="41.794855" lon="-1.822647">
<ele>1627.5</ele>
<speed>21.2</speed>
<course>324.4</course>
<desc>Speed 21.2 km/h Distance 29.68 km</desc>
<time>2011-09-24T12:09:30.47</time>
<name>8178</name>
</trkpt>
<trkpt lat="41.794895" lon="-1.822685">
<ele>1627.0</ele>
<speed>19.7</speed>
<course>332.3</course>
<desc>Speed 19.7 km/h Distance 29.69 km</desc>
<time>2011-09-24T12:09:31.47</time>
<name>8179</name>
</trkpt>
<trkpt lat="41.794940" lon="-1.822717">
<ele>1626.5</ele>
<speed>20.2</speed>
<course>338.3</course>
<desc>Speed 20.2 km/h Distance 29.69 km</desc>
<time>2011-09-24T12:09:32.47</time>
<name>8180</name>
</trkpt>
<trkpt lat="41.794990" lon="-1.822743">
<ele>1626.0</ele>
<speed>21.2</speed>
<course>340.8</course>
<desc>Speed 21.2 km/h Distance 29.70 km</desc>
<time>2011-09-24T12:09:33.47</time>
<name>8181</name>
</trkpt>
<trkpt lat="41.795040" lon="-1.822767">
<ele>1626.0</ele>
<speed>20.7</speed>
<course>342.3</course>
<desc>Speed 20.7 km/h Distance 29.71 km</desc>
<time>2011-09-24T12:09:34.47</time>
<name>8182</name>
</trkpt>
<trkpt lat="41.795087" lon="-1.822787">
<ele>1625.5</ele>
<speed>19.5</speed>
<course>349.1</course>
<desc>Speed 19.5 km/h Distance 29.71 km</desc>
<time>2011-09-24T12:09:35.47</time>
<name>8183</name>
</trkpt>
<trkpt lat="41.795138" lon="-1.822800">
<ele>1625.0</ele>
<speed>19.7</speed>
<course>354.5</course>
<desc>Speed 19.7 km/h Distance 29.72 km</desc>
<time>2011-09-24T12:09:36.47</time>
<name>8184</name>
</trkpt>
<trkpt lat="41.795190" lon="-1.822807">
<ele>1625.0</ele>
<speed>20.4</speed>
<course>358.7</course>
<desc>Speed 20.4 km/h Distance 29.72 km</desc>
<time>2011-09-24T12:09:37.46</time>
<name>8185</name>
</trkpt>
<trkpt lat="41.795242" lon="-1.822808">
<ele>1624.5</ele>
<speed>20.3</speed>
<course>350.4</course>
<desc>Speed 20.3 km/h Distance 29.73 km</desc>
<time>2011-09-24T12:09:38.46</time>
<name>8186</name>
</trkpt>
<trkpt lat="41.795293" lon="-1.822820">
<ele>1624.5</ele>
<speed>21.0</speed>
<course>355.1</course>
<desc>Speed 21.0 km/h Distance 29.73 km</desc>
<time>2011-09-24T12:09:39.46</time>
<name>8187</name>
</trkpt>
<trkpt lat="41.795352" lon="-1.822827">
<ele>1623.5</ele>
<speed>22.4</speed>
<course>329.2</course>
<desc>Speed 22.4 km/h Distance 29.74 km</desc>
<time>2011-09-24T12:09:40.46</time>
<name>8188</name>
</trkpt>
<trkpt lat="41.795418" lon="-1.822880">
<ele>1624.0</ele>
<speed>17.1</speed>
<course>340.8</course>
<desc>Speed 17.1 km/h Distance 29.75 km</desc>
<time>2011-09-24T12:09:42.46</time>
<name>8189</name>
</trkpt>
<trkpt lat="41.795468" lon="-1.822903">
<ele>1624.0</ele>
<speed>20.8</speed>
<course>350.3</course>
<desc>Speed 20.8 km/h Distance 29.76 km</desc>
<time>2011-09-24T12:09:43.47</time>
<name>8190</name>
</trkpt>
<trkpt lat="41.795527" lon="-1.822917">
<ele>1624.0</ele>
<speed>23.7</speed>
<course>350.5</course>
<desc>Speed 23.7 km/h Distance 29.76 km</desc>
<time>2011-09-24T12:09:44.46</time>
<name>8191</name>
</trkpt>
<trkpt lat="41.795593" lon="-1.822932">
<ele>1624.0</ele>
<speed>25.9</speed>
<course>351.7</course>
<desc>Speed 25.9 km/h Distance 29.77 km</desc>
<time>2011-09-24T12:09:45.46</time>
<name>8192</name>
</trkpt>
<trkpt lat="41.795662" lon="-1.822945">
<ele>1623.5</ele>
<speed>27.3</speed>
<course>358.1</course>
<desc>Speed 27.3 km/h Distance 29.78 km</desc>
<time>2011-09-24T12:09:46.46</time>
<name>8193</name>
</trkpt>
<trkpt lat="41.795733" lon="-1.822948">
<ele>1624.0</ele>
<speed>27.1</speed>
<course>2.2</course>
<desc>Speed 27.1 km/h Distance 29.79 km</desc>
<time>2011-09-24T12:09:47.46</time>
<name>8194</name>
</trkpt>
<trkpt lat="41.795800" lon="-1.822945">
<ele>1625.0</ele>
<speed>25.5</speed>
<course>1.3</course>
<desc>Speed 25.5 km/h Distance 29.79 km</desc>
<time>2011-09-24T12:09:48.46</time>
<name>8195</name>
</trkpt>
<trkpt lat="41.795918" lon="-1.822942">
<ele>1624.5</ele>
<speed>28.3</speed>
<course>348.5</course>
<desc>Speed 28.3 km/h Distance 29.81 km</desc>
<time>2011-09-24T12:09:50.45</time>
<name>8196</name>
</trkpt>
<trkpt lat="41.795973" lon="-1.822957">
<ele>1624.5</ele>
<speed>21.1</speed>
<course>356.7</course>
<desc>Speed 21.1 km/h Distance 29.81 km</desc>
<time>2011-09-24T12:09:51.45</time>
<name>8197</name>
</trkpt>
<trkpt lat="41.796035" lon="-1.822962">
<ele>1624.0</ele>
<speed>23.5</speed>
<course>355.9</course>
<desc>Speed 23.5 km/h Distance 29.82 km</desc>
<time>2011-09-24T12:09:53.41</time>
<name>8198</name>
</trkpt>
<trkpt lat="41.796225" lon="-1.822980">
<ele>1623.5</ele>
<speed>25.7</speed>
<course>349.2</course>
<desc>Speed 25.7 km/h Distance 29.84 km</desc>
<time>2011-09-24T12:09:55.45</time>
<name>8199</name>
</trkpt>
<trkpt lat="41.796290" lon="-1.822997">
<ele>1624.0</ele>
<speed>26.1</speed>
<course>354.0</course>
<desc>Speed 26.1 km/h Distance 29.85 km</desc>
<time>2011-09-24T12:09:56.87</time>
<name>8200</name>
</trkpt>
<trkpt lat="41.796502" lon="-1.823027">
<ele>1624.0</ele>
<speed>28.7</speed>
<course>352.0</course>
<desc>Speed 28.7 km/h Distance 29.87 km</desc>
<time>2011-09-24T12:09:59.46</time>
<name>8201</name>
</trkpt>
<trkpt lat="41.796582" lon="-1.823042">
<ele>1622.5</ele>
<speed>31.6</speed>
<course>346.0</course>
<desc>Speed 31.6 km/h Distance 29.88 km</desc>
<time>2011-09-24T12:10:00.45</time>
<name>8202</name>
</trkpt>
<trkpt lat="41.796662" lon="-1.823068">
<ele>1621.0</ele>
<speed>32.8</speed>
<course>348.1</course>
<desc>Speed 32.8 km/h Distance 29.89 km</desc>
<time>2011-09-24T12:10:01.45</time>
<name>8203</name>
</trkpt>
<trkpt lat="41.796738" lon="-1.823090">
<ele>1621.5</ele>
<speed>30.5</speed>
<course>347.5</course>
<desc>Speed 30.5 km/h Distance 29.90 km</desc>
<time>2011-09-24T12:10:02.45</time>
<name>8204</name>
</trkpt>
<trkpt lat="41.796817" lon="-1.823113">
<ele>1621.0</ele>
<speed>32.0</speed>
<course>346.9</course>
<desc>Speed 32.0 km/h Distance 29.91 km</desc>
<time>2011-09-24T12:10:03.46</time>
<name>8205</name>
</trkpt>
<trkpt lat="41.796897" lon="-1.823138">
<ele>1621.0</ele>
<speed>32.9</speed>
<course>349.7</course>
<desc>Speed 32.9 km/h Distance 29.92 km</desc>
<time>2011-09-24T12:10:04.45</time>
<name>8206</name>
</trkpt>
<trkpt lat="41.796978" lon="-1.823158">
<ele>1621.5</ele>
<speed>32.3</speed>
<course>345.5</course>
<desc>Speed 32.3 km/h Distance 29.93 km</desc>
<time>2011-09-24T12:10:05.45</time>
<name>8207</name>
</trkpt>
<trkpt lat="41.797065" lon="-1.823188">
<ele>1620.5</ele>
<speed>35.2</speed>
<course>342.8</course>
<desc>Speed 35.2 km/h Distance 29.94 km</desc>
<time>2011-09-24T12:10:06.45</time>
<name>8208</name>
</trkpt>
<trkpt lat="41.797153" lon="-1.823225">
<ele>1618.5</ele>
<speed>36.3</speed>
<course>344.0</course>
<desc>Speed 36.3 km/h Distance 29.95 km</desc>
<time>2011-09-24T12:10:07.45</time>
<name>8209</name>
</trkpt>
<trkpt lat="41.797240" lon="-1.823258">
<ele>1618.0</ele>
<speed>35.5</speed>
<course>346.3</course>
<desc>Speed 35.5 km/h Distance 29.96 km</desc>
<time>2011-09-24T12:10:08.45</time>
<name>8210</name>
</trkpt>
<trkpt lat="41.797327" lon="-1.823287">
<ele>1618.0</ele>
<speed>35.4</speed>
<course>346.6</course>
<desc>Speed 35.4 km/h Distance 29.97 km</desc>
<time>2011-09-24T12:10:09.45</time>
<name>8211</name>
</trkpt>
<trkpt lat="41.797415" lon="-1.823315">
<ele>1617.5</ele>
<speed>35.1</speed>
<course>348.1</course>
<desc>Speed 35.1 km/h Distance 29.98 km</desc>
<time>2011-09-24T12:10:10.44</time>
<name>8212</name>
</trkpt>
<trkpt lat="41.797503" lon="-1.823340">
<ele>1617.0</ele>
<speed>35.2</speed>
<course>347.8</course>
<desc>Speed 35.2 km/h Distance 29.99 km</desc>
<time>2011-09-24T12:10:11.45</time>
<name>8213</name>
</trkpt>
<trkpt lat="41.797595" lon="-1.823367">
<ele>1616.0</ele>
<speed>35.9</speed>
<course>348.9</course>
<desc>Speed 35.9 km/h Distance 30.00 km</desc>
<time>2011-09-24T12:10:12.45</time>
<name>8214</name>
</trkpt>
<trkpt lat="41.797683" lon="-1.823390">
<ele>1616.5</ele>
<speed>34.6</speed>
<course>352.3</course>
<desc>Speed 34.6 km/h Distance 30.01 km</desc>
<time>2011-09-24T12:10:13.44</time>
<name>8215</name>
</trkpt>
<trkpt lat="41.797767" lon="-1.823405">
<ele>1618.0</ele>
<speed>32.7</speed>
<course>353.6</course>
<desc>Speed 32.7 km/h Distance 30.02 km</desc>
<time>2011-09-24T12:10:14.45</time>
<name>8216</name>
</trkpt>
<trkpt lat="41.797855" lon="-1.823418">
<ele>1617.5</ele>
<speed>34.2</speed>
<course>346.6</course>
<desc>Speed 34.2 km/h Distance 30.03 km</desc>
<time>2011-09-24T12:10:15.44</time>
<name>8217</name>
</trkpt>
<trkpt lat="41.797933" lon="-1.823443">
<ele>1619.5</ele>
<speed>30.6</speed>
<course>347.7</course>
<desc>Speed 30.6 km/h Distance 30.03 km</desc>
<time>2011-09-24T12:10:16.44</time>
<name>8218</name>
</trkpt>
<trkpt lat="41.798013" lon="-1.823467">
<ele>1619.5</ele>
<speed>33.1</speed>
<course>342.6</course>
<desc>Speed 33.1 km/h Distance 30.04 km</desc>
<time>2011-09-24T12:10:17.44</time>
<name>8219</name>
</trkpt>
<trkpt lat="41.798097" lon="-1.823502">
<ele>1619.5</ele>
<speed>36.0</speed>
<course>342.9</course>
<desc>Speed 36.0 km/h Distance 30.05 km</desc>
<time>2011-09-24T12:10:18.44</time>
<name>8220</name>
</trkpt>
<trkpt lat="41.798182" lon="-1.823537">
<ele>1620.0</ele>
<speed>35.4</speed>
<course>345.6</course>
<desc>Speed 35.4 km/h Distance 30.06 km</desc>
<time>2011-09-24T12:10:19.43</time>
<name>8221</name>
</trkpt>
<trkpt lat="41.798273" lon="-1.823568">
<ele>1619.0</ele>
<speed>37.6</speed>
<course>346.8</course>
<desc>Speed 37.6 km/h Distance 30.07 km</desc>
<time>2011-09-24T12:10:20.45</time>
<name>8222</name>
</trkpt>
<trkpt lat="41.798368" lon="-1.823598">
<ele>1618.5</ele>
<speed>38.1</speed>
<course>347.0</course>
<desc>Speed 38.1 km/h Distance 30.08 km</desc>
<time>2011-09-24T12:10:21.44</time>
<name>8223</name>
</trkpt>
<trkpt lat="41.798465" lon="-1.823628">
<ele>1618.0</ele>
<speed>39.0</speed>
<course>348.6</course>
<desc>Speed 39.0 km/h Distance 30.10 km</desc>
<time>2011-09-24T12:10:22.44</time>
<name>8224</name>
</trkpt>
<trkpt lat="41.798563" lon="-1.823655">
<ele>1617.0</ele>
<speed>39.1</speed>
<course>349.3</course>
<desc>Speed 39.1 km/h Distance 30.11 km</desc>
<time>2011-09-24T12:10:23.44</time>
<name>8225</name>
</trkpt>
<trkpt lat="41.798662" lon="-1.823680">
<ele>1616.5</ele>
<speed>39.2</speed>
<course>349.5</course>
<desc>Speed 39.2 km/h Distance 30.12 km</desc>
<time>2011-09-24T12:10:24.43</time>
<name>8226</name>
</trkpt>
<trkpt lat="41.798762" lon="-1.823705">
<ele>1615.0</ele>
<speed>40.0</speed>
<course>350.3</course>
<desc>Speed 40.0 km/h Distance 30.13 km</desc>
<time>2011-09-24T12:10:25.43</time>
<name>8227</name>
</trkpt>
<trkpt lat="41.798863" lon="-1.823728">
<ele>1614.5</ele>
<speed>40.1</speed>
<course>350.7</course>
<desc>Speed 40.1 km/h Distance 30.14 km</desc>
<time>2011-09-24T12:10:26.43</time>
<name>8228</name>
</trkpt>
<trkpt lat="41.798962" lon="-1.823750">
<ele>1613.5</ele>
<speed>39.7</speed>
<course>350.1</course>
<desc>Speed 39.7 km/h Distance 30.15 km</desc>
<time>2011-09-24T12:10:27.43</time>
<name>8229</name>
</trkpt>
<trkpt lat="41.799062" lon="-1.823773">
<ele>1613.0</ele>
<speed>39.6</speed>
<course>351.4</course>
<desc>Speed 39.6 km/h Distance 30.16 km</desc>
<time>2011-09-24T12:10:28.43</time>
<name>8230</name>
</trkpt>
<trkpt lat="41.799160" lon="-1.823793">
<ele>1612.5</ele>
<speed>39.7</speed>
<course>351.4</course>
<desc>Speed 39.7 km/h Distance 30.17 km</desc>
<time>2011-09-24T12:10:29.43</time>
<name>8231</name>
</trkpt>
<trkpt lat="41.799258" lon="-1.823813">
<ele>1612.0</ele>
<speed>39.4</speed>
<course>350.5</course>
<desc>Speed 39.4 km/h Distance 30.19 km</desc>
<time>2011-09-24T12:10:30.43</time>
<name>8232</name>
</trkpt>
<trkpt lat="41.799355" lon="-1.823835">
<ele>1611.5</ele>
<speed>39.4</speed>
<course>350.5</course>
<desc>Speed 39.4 km/h Distance 30.20 km</desc>
<time>2011-09-24T12:10:31.43</time>
<name>8233</name>
</trkpt>
<trkpt lat="41.799452" lon="-1.823857">
<ele>1611.5</ele>
<speed>39.0</speed>
<course>352.2</course>
<desc>Speed 39.0 km/h Distance 30.21 km</desc>
<time>2011-09-24T12:10:32.43</time>
<name>8234</name>
</trkpt>
<trkpt lat="41.799552" lon="-1.823875">
<ele>1611.0</ele>
<speed>39.3</speed>
<course>353.5</course>
<desc>Speed 39.3 km/h Distance 30.22 km</desc>
<time>2011-09-24T12:10:33.42</time>
<name>8235</name>
</trkpt>
<trkpt lat="41.799650" lon="-1.823890">
<ele>1610.5</ele>
<speed>39.4</speed>
<course>352.3</course>
<desc>Speed 39.4 km/h Distance 30.23 km</desc>
<time>2011-09-24T12:10:34.42</time>
<name>8236</name>
</trkpt>
<trkpt lat="41.799752" lon="-1.823908">
<ele>1609.5</ele>
<speed>40.4</speed>
<course>350.3</course>
<desc>Speed 40.4 km/h Distance 30.24 km</desc>
<time>2011-09-24T12:10:35.43</time>
<name>8237</name>
</trkpt>
<trkpt lat="41.799853" lon="-1.823932">
<ele>1608.0</ele>
<speed>40.5</speed>
<course>352.1</course>
<desc>Speed 40.5 km/h Distance 30.25 km</desc>
<time>2011-09-24T12:10:36.43</time>
<name>8238</name>
</trkpt>
<trkpt lat="41.799952" lon="-1.823950">
<ele>1607.5</ele>
<speed>39.6</speed>
<course>349.6</course>
<desc>Speed 39.6 km/h Distance 30.26 km</desc>
<time>2011-09-24T12:10:37.42</time>
<name>8239</name>
</trkpt>
<trkpt lat="41.800047" lon="-1.823973">
<ele>1607.5</ele>
<speed>38.2</speed>
<course>344.4</course>
<desc>Speed 38.2 km/h Distance 30.27 km</desc>
<time>2011-09-24T12:10:38.42</time>
<name>8240</name>
</trkpt>
<trkpt lat="41.800140" lon="-1.824008">
<ele>1607.5</ele>
<speed>38.5</speed>
<course>344.6</course>
<desc>Speed 38.5 km/h Distance 30.28 km</desc>
<time>2011-09-24T12:10:39.42</time>
<name>8241</name>
</trkpt>
<trkpt lat="41.800235" lon="-1.824043">
<ele>1606.5</ele>
<speed>38.8</speed>
<course>344.4</course>
<desc>Speed 38.8 km/h Distance 30.30 km</desc>
<time>2011-09-24T12:10:40.42</time>
<name>8242</name>
</trkpt>
<trkpt lat="41.800328" lon="-1.824078">
<ele>1606.0</ele>
<speed>38.8</speed>
<course>346.7</course>
<desc>Speed 38.8 km/h Distance 30.31 km</desc>
<time>2011-09-24T12:10:41.42</time>
<name>8243</name>
</trkpt>
<trkpt lat="41.800423" lon="-1.824108">
<ele>1605.5</ele>
<speed>38.8</speed>
<course>344.7</course>
<desc>Speed 38.8 km/h Distance 30.32 km</desc>
<time>2011-09-24T12:10:42.42</time>
<name>8244</name>
</trkpt>
<trkpt lat="41.800518" lon="-1.824143">
<ele>1605.0</ele>
<speed>39.1</speed>
<course>345.3</course>
<desc>Speed 39.1 km/h Distance 30.33 km</desc>
<time>2011-09-24T12:10:43.42</time>
<name>8245</name>
</trkpt>
<trkpt lat="41.800613" lon="-1.824177">
<ele>1604.5</ele>
<speed>38.9</speed>
<course>345.3</course>
<desc>Speed 38.9 km/h Distance 30.34 km</desc>
<time>2011-09-24T12:10:44.42</time>
<name>8246</name>
</trkpt>
<trkpt lat="41.800708" lon="-1.824210">
<ele>1604.0</ele>
<speed>38.7</speed>
<course>342.0</course>
<desc>Speed 38.7 km/h Distance 30.35 km</desc>
<time>2011-09-24T12:10:45.42</time>
<name>8247</name>
</trkpt>
<trkpt lat="41.800800" lon="-1.824250">
<ele>1603.5</ele>
<speed>38.1</speed>
<course>339.6</course>
<desc>Speed 38.1 km/h Distance 30.36 km</desc>
<time>2011-09-24T12:10:46.42</time>
<name>8248</name>
</trkpt>
<trkpt lat="41.800890" lon="-1.824295">
<ele>1603.0</ele>
<speed>38.0</speed>
<course>340.6</course>
<desc>Speed 38.0 km/h Distance 30.37 km</desc>
<time>2011-09-24T12:10:47.42</time>
<name>8249</name>
</trkpt>
<trkpt lat="41.800982" lon="-1.824338">
<ele>1602.5</ele>
<speed>38.4</speed>
<course>338.5</course>
<desc>Speed 38.4 km/h Distance 30.38 km</desc>
<time>2011-09-24T12:10:48.42</time>
<name>8250</name>
</trkpt>
<trkpt lat="41.801073" lon="-1.824387">
<ele>1601.5</ele>
<speed>38.3</speed>
<course>337.2</course>
<desc>Speed 38.3 km/h Distance 30.39 km</desc>
<time>2011-09-24T12:10:49.41</time>
<name>8251</name>
</trkpt>
<trkpt lat="41.801165" lon="-1.824438">
<ele>1600.5</ele>
<speed>38.8</speed>
<course>339.2</course>
<desc>Speed 38.8 km/h Distance 30.40 km</desc>
<time>2011-09-24T12:10:50.42</time>
<name>8252</name>
</trkpt>
<trkpt lat="41.801257" lon="-1.824485">
<ele>1600.0</ele>
<speed>38.8</speed>
<course>338.2</course>
<desc>Speed 38.8 km/h Distance 30.42 km</desc>
<time>2011-09-24T12:10:51.41</time>
<name>8253</name>
</trkpt>
<trkpt lat="41.801350" lon="-1.824535">
<ele>1599.0</ele>
<speed>39.3</speed>
<course>339.2</course>
<desc>Speed 39.3 km/h Distance 30.43 km</desc>
<time>2011-09-24T12:10:52.41</time>
<name>8254</name>
</trkpt>
<trkpt lat="41.801442" lon="-1.824582">
<ele>1598.0</ele>
<speed>39.1</speed>
<course>337.6</course>
<desc>Speed 39.1 km/h Distance 30.44 km</desc>
<time>2011-09-24T12:10:53.41</time>
<name>8255</name>
</trkpt>
<trkpt lat="41.801535" lon="-1.824633">
<ele>1597.5</ele>
<speed>39.9</speed>
<course>333.4</course>
<desc>Speed 39.9 km/h Distance 30.45 km</desc>
<time>2011-09-24T12:10:54.41</time>
<name>8256</name>
</trkpt>
<trkpt lat="41.801627" lon="-1.824695">
<ele>1596.5</ele>
<speed>40.5</speed>
<course>329.4</course>
<desc>Speed 40.5 km/h Distance 30.46 km</desc>
<time>2011-09-24T12:10:55.41</time>
<name>8257</name>
</trkpt>
<trkpt lat="41.801715" lon="-1.824765">
<ele>1595.5</ele>
<speed>40.2</speed>
<course>325.5</course>
<desc>Speed 40.2 km/h Distance 30.47 km</desc>
<time>2011-09-24T12:10:56.41</time>
<name>8258</name>
</trkpt>
<trkpt lat="41.801802" lon="-1.824845">
<ele>1594.5</ele>
<speed>40.7</speed>
<course>324.4</course>
<desc>Speed 40.7 km/h Distance 30.48 km</desc>
<time>2011-09-24T12:10:57.41</time>
<name>8259</name>
</trkpt>
<trkpt lat="41.801887" lon="-1.824927">
<ele>1593.5</ele>
<speed>41.0</speed>
<course>322.7</course>
<desc>Speed 41.0 km/h Distance 30.49 km</desc>
<time>2011-09-24T12:10:58.41</time>
<name>8260</name>
</trkpt>
<trkpt lat="41.801968" lon="-1.825010">
<ele>1592.5</ele>
<speed>40.2</speed>
<course>322.7</course>
<desc>Speed 40.2 km/h Distance 30.51 km</desc>
<time>2011-09-24T12:10:59.41</time>
<name>8261</name>
</trkpt>
<trkpt lat="41.802048" lon="-1.825092">
<ele>1592.0</ele>
<speed>40.0</speed>
<course>322.1</course>
<desc>Speed 40.0 km/h Distance 30.52 km</desc>
<time>2011-09-24T12:11:00.41</time>
<name>8262</name>
</trkpt>
<trkpt lat="41.802127" lon="-1.825173">
<ele>1591.5</ele>
<speed>39.9</speed>
<course>322.1</course>
<desc>Speed 39.9 km/h Distance 30.53 km</desc>
<time>2011-09-24T12:11:01.40</time>
<name>8263</name>
</trkpt>
<trkpt lat="41.802205" lon="-1.825255">
<ele>1590.5</ele>
<speed>39.5</speed>
<course>320.2</course>
<desc>Speed 39.5 km/h Distance 30.54 km</desc>
<time>2011-09-24T12:11:02.40</time>
<name>8264</name>
</trkpt>
<trkpt lat="41.802277" lon="-1.825335">
<ele>1589.5</ele>
<speed>36.9</speed>
<course>319.2</course>
<desc>Speed 36.9 km/h Distance 30.55 km</desc>
<time>2011-09-24T12:11:03.40</time>
<name>8265</name>
</trkpt>
<trkpt lat="41.802340" lon="-1.825408">
<ele>1589.5</ele>
<speed>33.3</speed>
<course>313.5</course>
<desc>Speed 33.3 km/h Distance 30.56 km</desc>
<time>2011-09-24T12:11:04.40</time>
<name>8266</name>
</trkpt>
<trkpt lat="41.802397" lon="-1.825488">
<ele>1588.5</ele>
<speed>32.1</speed>
<course>309.2</course>
<desc>Speed 32.1 km/h Distance 30.57 km</desc>
<time>2011-09-24T12:11:05.40</time>
<name>8267</name>
</trkpt>
<trkpt lat="41.802443" lon="-1.825565">
<ele>1588.0</ele>
<speed>29.3</speed>
<course>305.0</course>
<desc>Speed 29.3 km/h Distance 30.58 km</desc>
<time>2011-09-24T12:11:06.40</time>
<name>8268</name>
</trkpt>
<trkpt lat="41.802483" lon="-1.825642">
<ele>1587.5</ele>
<speed>27.5</speed>
<course>305.8</course>
<desc>Speed 27.5 km/h Distance 30.58 km</desc>
<time>2011-09-24T12:11:07.40</time>
<name>8269</name>
</trkpt>
<trkpt lat="41.802518" lon="-1.825707">
<ele>1587.0</ele>
<speed>23.9</speed>
<course>343.7</course>
<desc>Speed 23.9 km/h Distance 30.59 km</desc>
<time>2011-09-24T12:11:08.40</time>
<name>8270</name>
</trkpt>
<trkpt lat="41.802565" lon="-1.825725">
<ele>1587.0</ele>
<speed>18.8</speed>
<course>18.0</course>
<desc>Speed 18.8 km/h Distance 30.60 km</desc>
<time>2011-09-24T12:11:09.40</time>
<name>8271</name>
</trkpt>
<trkpt lat="41.802603" lon="-1.825708">
<ele>1587.5</ele>
<speed>15.9</speed>
<course>43.5</course>
<desc>Speed 15.9 km/h Distance 30.60 km</desc>
<time>2011-09-24T12:11:10.40</time>
<name>8272</name>
</trkpt>
<trkpt lat="41.802622" lon="-1.825685">
<ele>1587.0</ele>
<speed>10.2</speed>
<course>64.9</course>
<desc>Speed 10.2 km/h Distance 30.60 km</desc>
<time>2011-09-24T12:11:11.40</time>
<name>8273</name>
</trkpt>
<trkpt lat="41.802633" lon="-1.825652">
<ele>1586.5</ele>
<speed>11.3</speed>
<course>96.4</course>
<desc>Speed 11.3 km/h Distance 30.61 km</desc>
<time>2011-09-24T12:11:12.39</time>
<name>8274</name>
</trkpt>
<trkpt lat="41.802630" lon="-1.825612">
<ele>1586.5</ele>
<speed>12.4</speed>
<course>140.8</course>
<desc>Speed 12.4 km/h Distance 30.61 km</desc>
<time>2011-09-24T12:11:13.39</time>
<name>8275</name>
</trkpt>
<trkpt lat="41.802595" lon="-1.825573">
<ele>1586.5</ele>
<speed>18.6</speed>
<course>132.8</course>
<desc>Speed 18.6 km/h Distance 30.62 km</desc>
<time>2011-09-24T12:11:14.40</time>
<name>8276</name>
</trkpt>
<trkpt lat="41.802562" lon="-1.825525">
<ele>1586.0</ele>
<speed>20.0</speed>
<course>132.2</course>
<desc>Speed 20.0 km/h Distance 30.62 km</desc>
<time>2011-09-24T12:11:15.40</time>
<name>8277</name>
</trkpt>
<trkpt lat="41.802523" lon="-1.825468">
<ele>1585.0</ele>
<speed>23.1</speed>
<course>130.8</course>
<desc>Speed 23.1 km/h Distance 30.63 km</desc>
<time>2011-09-24T12:11:16.39</time>
<name>8278</name>
</trkpt>
<trkpt lat="41.802478" lon="-1.825398">
<ele>1585.0</ele>
<speed>27.3</speed>
<course>130.8</course>
<desc>Speed 27.3 km/h Distance 30.63 km</desc>
<time>2011-09-24T12:11:17.39</time>
<name>8279</name>
</trkpt>
<trkpt lat="41.802430" lon="-1.825323">
<ele>1584.5</ele>
<speed>29.9</speed>
<course>132.4</course>
<desc>Speed 29.9 km/h Distance 30.64 km</desc>
<time>2011-09-24T12:11:18.39</time>
<name>8280</name>
</trkpt>
<trkpt lat="41.802377" lon="-1.825245">
<ele>1583.5</ele>
<speed>32.1</speed>
<course>133.7</course>
<desc>Speed 32.1 km/h Distance 30.65 km</desc>
<time>2011-09-24T12:11:19.39</time>
<name>8281</name>
</trkpt>
<trkpt lat="41.802315" lon="-1.825158">
<ele>1583.0</ele>
<speed>35.4</speed>
<course>132.8</course>
<desc>Speed 35.4 km/h Distance 30.66 km</desc>
<time>2011-09-24T12:11:20.40</time>
<name>8282</name>
</trkpt>
<trkpt lat="41.802252" lon="-1.825067">
<ele>1582.5</ele>
<speed>36.9</speed>
<course>128.5</course>
<desc>Speed 36.9 km/h Distance 30.67 km</desc>
<time>2011-09-24T12:11:21.39</time>
<name>8283</name>
</trkpt>
<trkpt lat="41.802193" lon="-1.824968">
<ele>1582.0</ele>
<speed>37.2</speed>
<course>127.6</course>
<desc>Speed 37.2 km/h Distance 30.68 km</desc>
<time>2011-09-24T12:11:22.39</time>
<name>8284</name>
</trkpt>
<trkpt lat="41.802135" lon="-1.824867">
<ele>1581.5</ele>
<speed>38.2</speed>
<course>132.8</course>
<desc>Speed 38.2 km/h Distance 30.69 km</desc>
<time>2011-09-24T12:11:23.39</time>
<name>8285</name>
</trkpt>
<trkpt lat="41.802068" lon="-1.824770">
<ele>1581.0</ele>
<speed>39.3</speed>
<course>136.2</course>
<desc>Speed 39.3 km/h Distance 30.70 km</desc>
<time>2011-09-24T12:11:24.39</time>
<name>8286</name>
</trkpt>
<trkpt lat="41.801998" lon="-1.824680">
<ele>1580.5</ele>
<speed>39.3</speed>
<course>135.9</course>
<desc>Speed 39.3 km/h Distance 30.71 km</desc>
<time>2011-09-24T12:11:25.39</time>
<name>8287</name>
</trkpt>
<trkpt lat="41.801927" lon="-1.824587">
<ele>1580.0</ele>
<speed>39.9</speed>
<course>136.5</course>
<desc>Speed 39.9 km/h Distance 30.73 km</desc>
<time>2011-09-24T12:11:26.39</time>
<name>8288</name>
</trkpt>
<trkpt lat="41.801853" lon="-1.824493">
<ele>1579.5</ele>
<speed>41.0</speed>
<course>135.8</course>
<desc>Speed 41.0 km/h Distance 30.74 km</desc>
<time>2011-09-24T12:11:27.39</time>
<name>8289</name>
</trkpt>
<trkpt lat="41.801782" lon="-1.824400">
<ele>1579.5</ele>
<speed>40.7</speed>
<course>137.5</course>
<desc>Speed 40.7 km/h Distance 30.75 km</desc>
<time>2011-09-24T12:11:28.38</time>
<name>8290</name>
</trkpt>
<trkpt lat="41.801708" lon="-1.824310">
<ele>1579.0</ele>
<speed>40.3</speed>
<course>137.5</course>
<desc>Speed 40.3 km/h Distance 30.76 km</desc>
<time>2011-09-24T12:11:29.38</time>
<name>8291</name>
</trkpt>
<trkpt lat="41.801635" lon="-1.824220">
<ele>1578.5</ele>
<speed>39.9</speed>
<course>140.4</course>
<desc>Speed 39.9 km/h Distance 30.77 km</desc>
<time>2011-09-24T12:11:30.39</time>
<name>8292</name>
</trkpt>
<trkpt lat="41.801558" lon="-1.824135">
<ele>1577.5</ele>
<speed>39.5</speed>
<course>143.9</course>
<desc>Speed 39.5 km/h Distance 30.78 km</desc>
<time>2011-09-24T12:11:31.38</time>
<name>8293</name>
</trkpt>
<trkpt lat="41.801480" lon="-1.824058">
<ele>1577.0</ele>
<speed>39.4</speed>
<course>144.4</course>
<desc>Speed 39.4 km/h Distance 30.79 km</desc>
<time>2011-09-24T12:11:32.38</time>
<name>8294</name>
</trkpt>
<trkpt lat="41.801398" lon="-1.823980">
<ele>1576.5</ele>
<speed>40.2</speed>
<course>147.8</course>
<desc>Speed 40.2 km/h Distance 30.80 km</desc>
<time>2011-09-24T12:11:33.38</time>
<name>8295</name>
</trkpt>
<trkpt lat="41.801313" lon="-1.823908">
<ele>1576.0</ele>
<speed>40.3</speed>
<course>149.7</course>
<desc>Speed 40.3 km/h Distance 30.81 km</desc>
<time>2011-09-24T12:11:34.38</time>
<name>8296</name>
</trkpt>
<trkpt lat="41.801228" lon="-1.823842">
<ele>1575.5</ele>
<speed>39.9</speed>
<course>152.1</course>
<desc>Speed 39.9 km/h Distance 30.83 km</desc>
<time>2011-09-24T12:11:35.38</time>
<name>8297</name>
</trkpt>
<trkpt lat="41.801142" lon="-1.823780">
<ele>1575.0</ele>
<speed>39.5</speed>
<course>153.8</course>
<desc>Speed 39.5 km/h Distance 30.84 km</desc>
<time>2011-09-24T12:11:36.38</time>
<name>8298</name>
</trkpt>
<trkpt lat="41.801053" lon="-1.823722">
<ele>1574.5</ele>
<speed>39.4</speed>
<course>153.8</course>
<desc>Speed 39.4 km/h Distance 30.85 km</desc>
<time>2011-09-24T12:11:37.38</time>
<name>8299</name>
</trkpt>
<trkpt lat="41.800965" lon="-1.823663">
<ele>1574.0</ele>
<speed>39.6</speed>
<course>153.1</course>
<desc>Speed 39.6 km/h Distance 30.86 km</desc>
<time>2011-09-24T12:11:38.38</time>
<name>8300</name>
</trkpt>
<trkpt lat="41.800877" lon="-1.823603">
<ele>1573.5</ele>
<speed>39.6</speed>
<course>152.9</course>
<desc>Speed 39.6 km/h Distance 30.87 km</desc>
<time>2011-09-24T12:11:39.38</time>
<name>8301</name>
</trkpt>
<trkpt lat="41.800787" lon="-1.823542">
<ele>1573.0</ele>
<speed>40.0</speed>
<course>152.9</course>
<desc>Speed 40.0 km/h Distance 30.88 km</desc>
<time>2011-09-24T12:11:40.38</time>
<name>8302</name>
</trkpt>
<trkpt lat="41.800697" lon="-1.823480">
<ele>1573.0</ele>
<speed>40.3</speed>
<course>154.8</course>
<desc>Speed 40.3 km/h Distance 30.89 km</desc>
<time>2011-09-24T12:11:41.38</time>
<name>8303</name>
</trkpt>
<trkpt lat="41.800607" lon="-1.823423">
<ele>1572.5</ele>
<speed>39.4</speed>
<course>154.2</course>
<desc>Speed 39.4 km/h Distance 30.90 km</desc>
<time>2011-09-24T12:11:42.38</time>
<name>8304</name>
</trkpt>
<trkpt lat="41.800517" lon="-1.823365">
<ele>1572.0</ele>
<speed>40.0</speed>
<course>160.6</course>
<desc>Speed 40.0 km/h Distance 30.91 km</desc>
<time>2011-09-24T12:11:43.38</time>
<name>8305</name>
</trkpt>
<trkpt lat="41.800422" lon="-1.823320">
<ele>1571.5</ele>
<speed>39.5</speed>
<course>160.6</course>
<desc>Speed 39.5 km/h Distance 30.93 km</desc>
<time>2011-09-24T12:11:44.38</time>
<name>8306</name>
</trkpt>
<trkpt lat="41.800327" lon="-1.823275">
<ele>1571.0</ele>
<speed>39.9</speed>
<course>161.5</course>
<desc>Speed 39.9 km/h Distance 30.94 km</desc>
<time>2011-09-24T12:11:45.38</time>
<name>8307</name>
</trkpt>
<trkpt lat="41.800230" lon="-1.823232">
<ele>1570.0</ele>
<speed>40.8</speed>
<course>160.2</course>
<desc>Speed 40.8 km/h Distance 30.95 km</desc>
<time>2011-09-24T12:11:46.38</time>
<name>8308</name>
</trkpt>
<trkpt lat="41.800133" lon="-1.823185">
<ele>1569.5</ele>
<speed>41.0</speed>
<course>158.6</course>
<desc>Speed 41.0 km/h Distance 30.96 km</desc>
<time>2011-09-24T12:11:47.37</time>
<name>8309</name>
</trkpt>
<trkpt lat="41.800035" lon="-1.823133">
<ele>1569.5</ele>
<speed>42.4</speed>
<course>157.4</course>
<desc>Speed 42.4 km/h Distance 30.97 km</desc>
<time>2011-09-24T12:11:48.37</time>
<name>8310</name>
</trkpt>
<trkpt lat="41.799937" lon="-1.823078">
<ele>1569.5</ele>
<speed>42.2</speed>
<course>153.8</course>
<desc>Speed 42.2 km/h Distance 30.98 km</desc>
<time>2011-09-24T12:11:49.37</time>
<name>8311</name>
</trkpt>
<trkpt lat="41.799843" lon="-1.823017">
<ele>1569.0</ele>
<speed>41.2</speed>
<course>150.5</course>
<desc>Speed 41.2 km/h Distance 30.99 km</desc>
<time>2011-09-24T12:11:50.37</time>
<name>8312</name>
</trkpt>
<trkpt lat="41.799753" lon="-1.822948">
<ele>1568.0</ele>
<speed>41.4</speed>
<course>146.6</course>
<desc>Speed 41.4 km/h Distance 31.01 km</desc>
<time>2011-09-24T12:11:51.37</time>
<name>8313</name>
</trkpt>
<trkpt lat="41.799667" lon="-1.822872">
<ele>1567.5</ele>
<speed>41.9</speed>
<course>142.1</course>
<desc>Speed 41.9 km/h Distance 31.02 km</desc>
<time>2011-09-24T12:11:52.37</time>
<name>8314</name>
</trkpt>
<trkpt lat="41.799592" lon="-1.822793">
<ele>1566.0</ele>
<speed>37.7</speed>
<course>144.4</course>
<desc>Speed 37.7 km/h Distance 31.03 km</desc>
<time>2011-09-24T12:11:53.37</time>
<name>8315</name>
</trkpt>
<trkpt lat="41.799422" lon="-1.822630">
<ele>1565.0</ele>
<speed>41.8</speed>
<course>150.1</course>
<desc>Speed 41.8 km/h Distance 31.05 km</desc>
<time>2011-09-24T12:11:55.37</time>
<name>8316</name>
</trkpt>
<trkpt lat="41.799233" lon="-1.822485">
<ele>1564.0</ele>
<speed>43.9</speed>
<course>154.9</course>
<desc>Speed 43.9 km/h Distance 31.08 km</desc>
<time>2011-09-24T12:11:57.37</time>
<name>8317</name>
</trkpt>
<trkpt lat="41.799135" lon="-1.822423">
<ele>1563.0</ele>
<speed>43.1</speed>
<course>157.7</course>
<desc>Speed 43.1 km/h Distance 31.09 km</desc>
<time>2011-09-24T12:11:58.36</time>
<name>8318</name>
</trkpt>
<trkpt lat="41.799035" lon="-1.822368">
<ele>1562.0</ele>
<speed>43.1</speed>
<course>154.9</course>
<desc>Speed 43.1 km/h Distance 31.10 km</desc>
<time>2011-09-24T12:11:59.36</time>
<name>8319</name>
</trkpt>
<trkpt lat="41.798937" lon="-1.822307">
<ele>1562.0</ele>
<speed>43.8</speed>
<course>153.4</course>
<desc>Speed 43.8 km/h Distance 31.11 km</desc>
<time>2011-09-24T12:12:00.36</time>
<name>8320</name>
</trkpt>
<trkpt lat="41.798840" lon="-1.822242">
<ele>1561.5</ele>
<speed>42.9</speed>
<course>151.8</course>
<desc>Speed 42.9 km/h Distance 31.12 km</desc>
<time>2011-09-24T12:12:01.36</time>
<name>8321</name>
</trkpt>
<trkpt lat="41.798745" lon="-1.822173">
<ele>1561.0</ele>
<speed>43.2</speed>
<course>150.4</course>
<desc>Speed 43.2 km/h Distance 31.14 km</desc>
<time>2011-09-24T12:12:02.36</time>
<name>8322</name>
</trkpt>
<trkpt lat="41.798647" lon="-1.822098">
<ele>1561.5</ele>
<speed>44.7</speed>
<course>148.1</course>
<desc>Speed 44.7 km/h Distance 31.15 km</desc>
<time>2011-09-24T12:12:03.36</time>
<name>8323</name>
</trkpt>
<trkpt lat="41.798555" lon="-1.822022">
<ele>1561.0</ele>
<speed>43.6</speed>
<course>143.8</course>
<desc>Speed 43.6 km/h Distance 31.16 km</desc>
<time>2011-09-24T12:12:04.36</time>
<name>8324</name>
</trkpt>
<trkpt lat="41.798467" lon="-1.821935">
<ele>1560.0</ele>
<speed>44.2</speed>
<course>141.2</course>
<desc>Speed 44.2 km/h Distance 31.17 km</desc>
<time>2011-09-24T12:12:05.36</time>
<name>8325</name>
</trkpt>
<trkpt lat="41.798380" lon="-1.821842">
<ele>1559.0</ele>
<speed>44.7</speed>
<course>134.6</course>
<desc>Speed 44.7 km/h Distance 31.19 km</desc>
<time>2011-09-24T12:12:06.62</time>
<name>8326</name>
</trkpt>
<trkpt lat="41.798223" lon="-1.821628">
<ele>1558.5</ele>
<speed>44.7</speed>
<course>132.4</course>
<desc>Speed 44.7 km/h Distance 31.21 km</desc>
<time>2011-09-24T12:12:08.36</time>
<name>8327</name>
</trkpt>
<trkpt lat="41.798148" lon="-1.821518">
<ele>1558.0</ele>
<speed>44.9</speed>
<course>136.5</course>
<desc>Speed 44.9 km/h Distance 31.22 km</desc>
<time>2011-09-24T12:12:09.36</time>
<name>8328</name>
</trkpt>
<trkpt lat="41.798068" lon="-1.821417">
<ele>1557.0</ele>
<speed>44.2</speed>
<course>136.5</course>
<desc>Speed 44.2 km/h Distance 31.23 km</desc>
<time>2011-09-24T12:12:10.36</time>
<name>8329</name>
</trkpt>
<trkpt lat="41.797988" lon="-1.821315">
<ele>1556.5</ele>
<speed>44.5</speed>
<course>138.1</course>
<desc>Speed 44.5 km/h Distance 31.25 km</desc>
<time>2011-09-24T12:12:11.36</time>
<name>8330</name>
</trkpt>
<trkpt lat="41.797907" lon="-1.821217">
<ele>1555.5</ele>
<speed>44.6</speed>
<course>139.2</course>
<desc>Speed 44.6 km/h Distance 31.26 km</desc>
<time>2011-09-24T12:12:12.36</time>
<name>8331</name>
</trkpt>
<trkpt lat="41.797822" lon="-1.821118">
<ele>1555.0</ele>
<speed>44.6</speed>
<course>139.1</course>
<desc>Speed 44.6 km/h Distance 31.27 km</desc>
<time>2011-09-24T12:12:13.35</time>
<name>8332</name>
</trkpt>
<trkpt lat="41.797738" lon="-1.821022">
<ele>1554.0</ele>
<speed>44.7</speed>
<course>136.5</course>
<desc>Speed 44.7 km/h Distance 31.28 km</desc>
<time>2011-09-24T12:12:14.35</time>
<name>8333</name>
</trkpt>
<trkpt lat="41.797658" lon="-1.820920">
<ele>1553.5</ele>
<speed>44.5</speed>
<course>135.5</course>
<desc>Speed 44.5 km/h Distance 31.30 km</desc>
<time>2011-09-24T12:12:15.35</time>
<name>8334</name>
</trkpt>
<trkpt lat="41.797580" lon="-1.820817">
<ele>1552.5</ele>
<speed>44.5</speed>
<course>135.9</course>
<desc>Speed 44.5 km/h Distance 31.31 km</desc>
<time>2011-09-24T12:12:16.35</time>
<name>8335</name>
</trkpt>
<trkpt lat="41.797502" lon="-1.820715">
<ele>1551.5</ele>
<speed>44.2</speed>
<course>134.4</course>
<desc>Speed 44.2 km/h Distance 31.32 km</desc>
<time>2011-09-24T12:12:17.35</time>
<name>8336</name>
</trkpt>
<trkpt lat="41.797425" lon="-1.820610">
<ele>1550.5</ele>
<speed>44.3</speed>
<course>135.3</course>
<desc>Speed 44.3 km/h Distance 31.33 km</desc>
<time>2011-09-24T12:12:18.35</time>
<name>8337</name>
</trkpt>
<trkpt lat="41.797348" lon="-1.820508">
<ele>1550.0</ele>
<speed>43.8</speed>
<course>141.2</course>
<desc>Speed 43.8 km/h Distance 31.34 km</desc>
<time>2011-09-24T12:12:19.35</time>
<name>8338</name>
</trkpt>
<trkpt lat="41.797265" lon="-1.820418">
<ele>1548.5</ele>
<speed>43.0</speed>
<course>147.1</course>
<desc>Speed 43.0 km/h Distance 31.36 km</desc>
<time>2011-09-24T12:12:20.35</time>
<name>8339</name>
</trkpt>
<trkpt lat="41.797177" lon="-1.820342">
<ele>1547.5</ele>
<speed>42.8</speed>
<course>155.5</course>
<desc>Speed 42.8 km/h Distance 31.37 km</desc>
<time>2011-09-24T12:12:21.35</time>
<name>8340</name>
</trkpt>
<trkpt lat="41.797087" lon="-1.820287">
<ele>1546.5</ele>
<speed>39.9</speed>
<course>164.9</course>
<desc>Speed 39.9 km/h Distance 31.38 km</desc>
<time>2011-09-24T12:12:22.34</time>
<name>8341</name>
</trkpt>
<trkpt lat="41.796990" lon="-1.820252">
<ele>1547.0</ele>
<speed>40.1</speed>
<course>184.5</course>
<desc>Speed 40.1 km/h Distance 31.39 km</desc>
<time>2011-09-24T12:12:23.34</time>
<name>8342</name>
</trkpt>
<trkpt lat="41.796895" lon="-1.820262">
<ele>1546.5</ele>
<speed>37.9</speed>
<course>190.6</course>
<desc>Speed 37.9 km/h Distance 31.40 km</desc>
<time>2011-09-24T12:12:24.35</time>
<name>8343</name>
</trkpt>
<trkpt lat="41.796808" lon="-1.820283">
<ele>1546.5</ele>
<speed>35.9</speed>
<course>192.1</course>
<desc>Speed 35.9 km/h Distance 31.41 km</desc>
<time>2011-09-24T12:12:25.34</time>
<name>8344</name>
</trkpt>
<trkpt lat="41.796722" lon="-1.820308">
<ele>1546.5</ele>
<speed>35.5</speed>
<course>192.9</course>
<desc>Speed 35.5 km/h Distance 31.42 km</desc>
<time>2011-09-24T12:12:26.34</time>
<name>8345</name>
</trkpt>
<trkpt lat="41.796635" lon="-1.820335">
<ele>1546.0</ele>
<speed>35.6</speed>
<course>194.2</course>
<desc>Speed 35.6 km/h Distance 31.43 km</desc>
<time>2011-09-24T12:12:27.34</time>
<name>8346</name>
</trkpt>
<trkpt lat="41.796552" lon="-1.820363">
<ele>1545.5</ele>
<speed>35.2</speed>
<course>194.7</course>
<desc>Speed 35.2 km/h Distance 31.44 km</desc>
<time>2011-09-24T12:12:28.34</time>
<name>8347</name>
</trkpt>
<trkpt lat="41.796467" lon="-1.820393">
<ele>1545.0</ele>
<speed>35.4</speed>
<course>199.3</course>
<desc>Speed 35.4 km/h Distance 31.45 km</desc>
<time>2011-09-24T12:12:29.33</time>
<name>8348</name>
</trkpt>
<trkpt lat="41.796382" lon="-1.820433">
<ele>1544.5</ele>
<speed>36.6</speed>
<course>199.0</course>
<desc>Speed 36.6 km/h Distance 31.46 km</desc>
<time>2011-09-24T12:12:30.34</time>
<name>8349</name>
</trkpt>
<trkpt lat="41.796292" lon="-1.820475">
<ele>1543.5</ele>
<speed>38.2</speed>
<course>196.3</course>
<desc>Speed 38.2 km/h Distance 31.47 km</desc>
<time>2011-09-24T12:12:31.34</time>
<name>8350</name>
</trkpt>
<trkpt lat="41.796198" lon="-1.820512">
<ele>1543.0</ele>
<speed>38.8</speed>
<course>196.3</course>
<desc>Speed 38.8 km/h Distance 31.48 km</desc>
<time>2011-09-24T12:12:32.34</time>
<name>8351</name>
</trkpt>
<trkpt lat="41.796105" lon="-1.820548">
<ele>1543.0</ele>
<speed>39.0</speed>
<course>193.3</course>
<desc>Speed 39.0 km/h Distance 31.49 km</desc>
<time>2011-09-24T12:12:33.34</time>
<name>8352</name>
</trkpt>
<trkpt lat="41.796010" lon="-1.820578">
<ele>1543.0</ele>
<speed>40.0</speed>
<course>193.5</course>
<desc>Speed 40.0 km/h Distance 31.50 km</desc>
<time>2011-09-24T12:12:34.34</time>
<name>8353</name>
</trkpt>
<trkpt lat="41.795917" lon="-1.820608">
<ele>1542.5</ele>
<speed>38.8</speed>
<course>193.5</course>
<desc>Speed 38.8 km/h Distance 31.51 km</desc>
<time>2011-09-24T12:12:35.33</time>
<name>8354</name>
</trkpt>
<trkpt lat="41.795823" lon="-1.820638">
<ele>1542.0</ele>
<speed>38.6</speed>
<course>188.2</course>
<desc>Speed 38.6 km/h Distance 31.52 km</desc>
<time>2011-09-24T12:12:36.34</time>
<name>8355</name>
</trkpt>
<trkpt lat="41.795728" lon="-1.820657">
<ele>1542.0</ele>
<speed>38.4</speed>
<course>184.4</course>
<desc>Speed 38.4 km/h Distance 31.54 km</desc>
<time>2011-09-24T12:12:37.34</time>
<name>8356</name>
</trkpt>
<trkpt lat="41.795632" lon="-1.820667">
<ele>1541.5</ele>
<speed>38.4</speed>
<course>176.0</course>
<desc>Speed 38.4 km/h Distance 31.55 km</desc>
<time>2011-09-24T12:12:38.33</time>
<name>8357</name>
</trkpt>
<trkpt lat="41.795542" lon="-1.820658">
<ele>1541.0</ele>
<speed>36.4</speed>
<course>167.6</course>
<desc>Speed 36.4 km/h Distance 31.56 km</desc>
<time>2011-09-24T12:12:39.33</time>
<name>8358</name>
</trkpt>
<trkpt lat="41.795457" lon="-1.820633">
<ele>1540.5</ele>
<speed>35.2</speed>
<course>160.0</course>
<desc>Speed 35.2 km/h Distance 31.57 km</desc>
<time>2011-09-24T12:12:40.33</time>
<name>8359</name>
</trkpt>
<trkpt lat="41.795378" lon="-1.820595">
<ele>1540.5</ele>
<speed>33.2</speed>
<course>149.2</course>
<desc>Speed 33.2 km/h Distance 31.57 km</desc>
<time>2011-09-24T12:12:41.33</time>
<name>8360</name>
</trkpt>
<trkpt lat="41.795312" lon="-1.820542">
<ele>1538.5</ele>
<speed>31.2</speed>
<course>138.9</course>
<desc>Speed 31.2 km/h Distance 31.58 km</desc>
<time>2011-09-24T12:12:42.33</time>
<name>8361</name>
</trkpt>
<trkpt lat="41.795253" lon="-1.820473">
<ele>1537.0</ele>
<speed>31.4</speed>
<course>134.6</course>
<desc>Speed 31.4 km/h Distance 31.59 km</desc>
<time>2011-09-24T12:12:43.33</time>
<name>8362</name>
</trkpt>
<trkpt lat="41.795193" lon="-1.820392">
<ele>1536.5</ele>
<speed>33.9</speed>
<course>131.3</course>
<desc>Speed 33.9 km/h Distance 31.60 km</desc>
<time>2011-09-24T12:12:44.33</time>
<name>8363</name>
</trkpt>
<trkpt lat="41.795133" lon="-1.820300">
<ele>1536.0</ele>
<speed>36.0</speed>
<course>130.0</course>
<desc>Speed 36.0 km/h Distance 31.61 km</desc>
<time>2011-09-24T12:12:45.33</time>
<name>8364</name>
</trkpt>
<trkpt lat="41.795075" lon="-1.820207">
<ele>1535.5</ele>
<speed>36.4</speed>
<course>126.7</course>
<desc>Speed 36.4 km/h Distance 31.62 km</desc>
<time>2011-09-24T12:12:46.33</time>
<name>8365</name>
</trkpt>
<trkpt lat="41.795017" lon="-1.820102">
<ele>1535.5</ele>
<speed>39.0</speed>
<course>125.8</course>
<desc>Speed 39.0 km/h Distance 31.63 km</desc>
<time>2011-09-24T12:12:47.32</time>
<name>8366</name>
</trkpt>
<trkpt lat="41.794958" lon="-1.819993">
<ele>1535.0</ele>
<speed>39.9</speed>
<course>121.9</course>
<desc>Speed 39.9 km/h Distance 31.64 km</desc>
<time>2011-09-24T12:12:48.32</time>
<name>8367</name>
</trkpt>
<trkpt lat="41.794905" lon="-1.819878">
<ele>1535.0</ele>
<speed>40.7</speed>
<course>121.9</course>
<desc>Speed 40.7 km/h Distance 31.66 km</desc>
<time>2011-09-24T12:12:49.33</time>
<name>8368</name>
</trkpt>
<trkpt lat="41.794850" lon="-1.819760">
<ele>1534.5</ele>
<speed>41.8</speed>
<course>122.0</course>
<desc>Speed 41.8 km/h Distance 31.67 km</desc>
<time>2011-09-24T12:12:50.32</time>
<name>8369</name>
</trkpt>
<trkpt lat="41.794793" lon="-1.819638">
<ele>1534.0</ele>
<speed>43.0</speed>
<course>119.5</course>
<desc>Speed 43.0 km/h Distance 31.68 km</desc>
<time>2011-09-24T12:12:51.32</time>
<name>8370</name>
</trkpt>
<trkpt lat="41.794740" lon="-1.819512">
<ele>1534.0</ele>
<speed>42.9</speed>
<course>114.4</course>
<desc>Speed 42.9 km/h Distance 31.69 km</desc>
<time>2011-09-24T12:12:52.32</time>
<name>8371</name>
</trkpt>
<trkpt lat="41.794697" lon="-1.819383">
<ele>1534.0</ele>
<speed>42.4</speed>
<course>114.6</course>
<desc>Speed 42.4 km/h Distance 31.70 km</desc>
<time>2011-09-24T12:12:53.32</time>
<name>8372</name>
</trkpt>
<trkpt lat="41.794653" lon="-1.819257">
<ele>1533.5</ele>
<speed>41.9</speed>
<course>113.2</course>
<desc>Speed 41.9 km/h Distance 31.71 km</desc>
<time>2011-09-24T12:12:54.32</time>
<name>8373</name>
</trkpt>
<trkpt lat="41.794613" lon="-1.819132">
<ele>1533.0</ele>
<speed>40.6</speed>
<course>120.1</course>
<desc>Speed 40.6 km/h Distance 31.73 km</desc>
<time>2011-09-24T12:12:55.32</time>
<name>8374</name>
</trkpt>
<trkpt lat="41.794565" lon="-1.819020">
<ele>1532.5</ele>
<speed>38.7</speed>
<course>135.9</course>
<desc>Speed 38.7 km/h Distance 31.74 km</desc>
<time>2011-09-24T12:12:56.32</time>
<name>8375</name>
</trkpt>
<trkpt lat="41.794487" lon="-1.818918">
<ele>1533.0</ele>
<speed>43.4</speed>
<course>129.6</course>
<desc>Speed 43.4 km/h Distance 31.75 km</desc>
<time>2011-09-24T12:12:57.32</time>
<name>8376</name>
</trkpt>
<trkpt lat="41.794372" lon="-1.818732">
<ele>1533.0</ele>
<speed>36.9</speed>
<course>110.7</course>
<desc>Speed 36.9 km/h Distance 31.77 km</desc>
<time>2011-09-24T12:12:59.32</time>
<name>8377</name>
</trkpt>
<trkpt lat="41.794342" lon="-1.818625">
<ele>1533.0</ele>
<speed>34.1</speed>
<course>118.9</course>
<desc>Speed 34.1 km/h Distance 31.78 km</desc>
<time>2011-09-24T12:13:00.32</time>
<name>8378</name>
</trkpt>
<trkpt lat="41.794295" lon="-1.818512">
<ele>1533.0</ele>
<speed>38.4</speed>
<course>101.6</course>
<desc>Speed 38.4 km/h Distance 31.79 km</desc>
<time>2011-09-24T12:13:01.31</time>
<name>8379</name>
</trkpt>
<trkpt lat="41.794277" lon="-1.818392">
<ele>1532.5</ele>
<speed>36.3</speed>
<course>101.6</course>
<desc>Speed 36.3 km/h Distance 31.80 km</desc>
<time>2011-09-24T12:13:02.32</time>
<name>8380</name>
</trkpt>
<trkpt lat="41.794258" lon="-1.818272">
<ele>1532.0</ele>
<speed>37.2</speed>
<course>85.9</course>
<desc>Speed 37.2 km/h Distance 31.81 km</desc>
<time>2011-09-24T12:13:03.31</time>
<name>8381</name>
</trkpt>
<trkpt lat="41.794265" lon="-1.818147">
<ele>1531.0</ele>
<speed>37.5</speed>
<course>103.1</course>
<desc>Speed 37.5 km/h Distance 31.82 km</desc>
<time>2011-09-24T12:13:04.32</time>
<name>8382</name>
</trkpt>
<trkpt lat="41.794243" lon="-1.818022">
<ele>1531.0</ele>
<speed>38.5</speed>
<course>99.0</course>
<desc>Speed 38.5 km/h Distance 31.83 km</desc>
<time>2011-09-24T12:13:05.32</time>
<name>8383</name>
</trkpt>
<trkpt lat="41.794228" lon="-1.817895">
<ele>1531.0</ele>
<speed>38.3</speed>
<course>99.9</course>
<desc>Speed 38.3 km/h Distance 31.84 km</desc>
<time>2011-09-24T12:13:06.32</time>
<name>8384</name>
</trkpt>
<trkpt lat="41.794212" lon="-1.817767">
<ele>1531.0</ele>
<speed>39.1</speed>
<course>84.0</course>
<desc>Speed 39.1 km/h Distance 31.85 km</desc>
<time>2011-09-24T12:13:07.32</time>
<name>8385</name>
</trkpt>
<trkpt lat="41.794222" lon="-1.817640">
<ele>1531.0</ele>
<speed>38.2</speed>
<course>97.8</course>
<desc>Speed 38.2 km/h Distance 31.86 km</desc>
<time>2011-09-24T12:13:08.32</time>
<name>8386</name>
</trkpt>
<trkpt lat="41.794208" lon="-1.817510">
<ele>1531.5</ele>
<speed>39.5</speed>
<course>110.7</course>
<desc>Speed 39.5 km/h Distance 31.87 km</desc>
<time>2011-09-24T12:13:09.32</time>
<name>8387</name>
</trkpt>
<trkpt lat="41.794172" lon="-1.817380">
<ele>1531.5</ele>
<speed>41.8</speed>
<course>107.2</course>
<desc>Speed 41.8 km/h Distance 31.88 km</desc>
<time>2011-09-24T12:13:10.31</time>
<name>8388</name>
</trkpt>
<trkpt lat="41.794142" lon="-1.817250">
<ele>1531.0</ele>
<speed>40.7</speed>
<course>91.9</course>
<desc>Speed 40.7 km/h Distance 31.90 km</desc>
<time>2011-09-24T12:13:11.31</time>
<name>8389</name>
</trkpt>
<trkpt lat="41.794138" lon="-1.817115">
<ele>1530.5</ele>
<speed>40.4</speed>
<course>111.8</course>
<desc>Speed 40.4 km/h Distance 31.91 km</desc>
<time>2011-09-24T12:13:12.31</time>
<name>8390</name>
</trkpt>
<trkpt lat="41.794100" lon="-1.816987">
<ele>1531.0</ele>
<speed>41.5</speed>
<course>103.9</course>
<desc>Speed 41.5 km/h Distance 31.92 km</desc>
<time>2011-09-24T12:13:13.31</time>
<name>8391</name>
</trkpt>
<trkpt lat="41.794075" lon="-1.816852">
<ele>1530.5</ele>
<speed>41.3</speed>
<course>99.4</course>
<desc>Speed 41.3 km/h Distance 31.93 km</desc>
<time>2011-09-24T12:13:14.30</time>
<name>8392</name>
</trkpt>
<trkpt lat="41.794058" lon="-1.816717">
<ele>1530.5</ele>
<speed>41.1</speed>
<course>112.7</course>
<desc>Speed 41.1 km/h Distance 31.94 km</desc>
<time>2011-09-24T12:13:15.31</time>
<name>8393</name>
</trkpt>
<trkpt lat="41.794017" lon="-1.816583">
<ele>1531.0</ele>
<speed>42.7</speed>
<course>96.6</course>
<desc>Speed 42.7 km/h Distance 31.95 km</desc>
<time>2011-09-24T12:13:16.31</time>
<name>8394</name>
</trkpt>
<trkpt lat="41.794005" lon="-1.816448">
<ele>1531.0</ele>
<speed>40.5</speed>
<course>113.3</course>
<desc>Speed 40.5 km/h Distance 31.96 km</desc>
<time>2011-09-24T12:13:17.31</time>
<name>8395</name>
</trkpt>
<trkpt lat="41.793963" lon="-1.816318">
<ele>1530.5</ele>
<speed>41.9</speed>
<course>107.7</course>
<desc>Speed 41.9 km/h Distance 31.98 km</desc>
<time>2011-09-24T12:13:18.31</time>
<name>8396</name>
</trkpt>
<trkpt lat="41.793932" lon="-1.816185">
<ele>1531.0</ele>
<speed>42.0</speed>
<course>98.7</course>
<desc>Speed 42.0 km/h Distance 31.99 km</desc>
<time>2011-09-24T12:13:19.30</time>
<name>8397</name>
</trkpt>
<trkpt lat="41.793917" lon="-1.816053">
<ele>1531.0</ele>
<speed>40.0</speed>
<course>104.5</course>
<desc>Speed 40.0 km/h Distance 32.00 km</desc>
<time>2011-09-24T12:13:20.31</time>
<name>8398</name>
</trkpt>
<trkpt lat="41.793892" lon="-1.815923">
<ele>1531.0</ele>
<speed>40.4</speed>
<course>90.0</course>
<desc>Speed 40.4 km/h Distance 32.01 km</desc>
<time>2011-09-24T12:13:21.31</time>
<name>8399</name>
</trkpt>
<trkpt lat="41.793892" lon="-1.815792">
<ele>1530.5</ele>
<speed>39.4</speed>
<course>111.0</course>
<desc>Speed 39.4 km/h Distance 32.02 km</desc>
<time>2011-09-24T12:13:22.31</time>
<name>8400</name>
</trkpt>
<trkpt lat="41.793855" lon="-1.815663">
<ele>1529.5</ele>
<speed>40.6</speed>
<course>113.5</course>
<desc>Speed 40.6 km/h Distance 32.03 km</desc>
<time>2011-09-24T12:13:23.31</time>
<name>8401</name>
</trkpt>
<trkpt lat="41.793815" lon="-1.815540">
<ele>1530.0</ele>
<speed>39.3</speed>
<course>119.3</course>
<desc>Speed 39.3 km/h Distance 32.04 km</desc>
<time>2011-09-24T12:13:24.30</time>
<name>8402</name>
</trkpt>
<trkpt lat="41.793763" lon="-1.815417">
<ele>1530.5</ele>
<speed>39.9</speed>
<course>94.3</course>
<desc>Speed 39.9 km/h Distance 32.06 km</desc>
<time>2011-09-24T12:13:25.31</time>
<name>8403</name>
</trkpt>
<trkpt lat="41.793757" lon="-1.815297">
<ele>1531.0</ele>
<speed>37.2</speed>
<course>92.5</course>
<desc>Speed 37.2 km/h Distance 32.07 km</desc>
<time>2011-09-24T12:13:26.30</time>
<name>8404</name>
</trkpt>
<trkpt lat="41.793753" lon="-1.815193">
<ele>1531.5</ele>
<speed>31.3</speed>
<course>76.7</course>
<desc>Speed 31.3 km/h Distance 32.07 km</desc>
<time>2011-09-24T12:13:27.33</time>
<name>8405</name>
</trkpt>
<trkpt lat="41.793798" lon="-1.814938">
<ele>1531.5</ele>
<speed>37.4</speed>
<course>60.9</course>
<desc>Speed 37.4 km/h Distance 32.10 km</desc>
<time>2011-09-24T12:13:29.30</time>
<name>8406</name>
</trkpt>
<trkpt lat="41.793852" lon="-1.814810">
<ele>1531.5</ele>
<speed>43.6</speed>
<course>85.4</course>
<desc>Speed 43.6 km/h Distance 32.11 km</desc>
<time>2011-09-24T12:13:30.30</time>
<name>8407</name>
</trkpt>
<trkpt lat="41.793865" lon="-1.814587">
<ele>1531.5</ele>
<speed>35.4</speed>
<course>98.4</course>
<desc>Speed 35.4 km/h Distance 32.13 km</desc>
<time>2011-09-24T12:13:32.30</time>
<name>8408</name>
</trkpt>
<trkpt lat="41.793852" lon="-1.814465">
<ele>1531.0</ele>
<speed>36.6</speed>
<course>98.4</course>
<desc>Speed 36.6 km/h Distance 32.14 km</desc>
<time>2011-09-24T12:13:33.29</time>
<name>8409</name>
</trkpt>
<trkpt lat="41.793838" lon="-1.814343">
<ele>1530.5</ele>
<speed>36.3</speed>
<course>86.8</course>
<desc>Speed 36.3 km/h Distance 32.15 km</desc>
<time>2011-09-24T12:13:34.29</time>
<name>8410</name>
</trkpt>
<trkpt lat="41.793843" lon="-1.814225">
<ele>1529.0</ele>
<speed>34.6</speed>
<course>113.8</course>
<desc>Speed 34.6 km/h Distance 32.16 km</desc>
<time>2011-09-24T12:13:35.30</time>
<name>8411</name>
</trkpt>
<trkpt lat="41.793808" lon="-1.814118">
<ele>1529.0</ele>
<speed>34.1</speed>
<course>121.5</course>
<desc>Speed 34.1 km/h Distance 32.17 km</desc>
<time>2011-09-24T12:13:36.29</time>
<name>8412</name>
</trkpt>
<trkpt lat="41.793765" lon="-1.814023">
<ele>1528.5</ele>
<speed>32.9</speed>
<course>138.1</course>
<desc>Speed 32.9 km/h Distance 32.18 km</desc>
<time>2011-09-24T12:13:37.29</time>
<name>8413</name>
</trkpt>
<trkpt lat="41.793700" lon="-1.813945">
<ele>1528.0</ele>
<speed>34.7</speed>
<course>136.6</course>
<desc>Speed 34.7 km/h Distance 32.19 km</desc>
<time>2011-09-24T12:13:38.29</time>
<name>8414</name>
</trkpt>
<trkpt lat="41.793558" lon="-1.813765">
<ele>1528.5</ele>
<speed>34.2</speed>
<course>161.8</course>
<desc>Speed 34.2 km/h Distance 32.21 km</desc>
<time>2011-09-24T12:13:41.29</time>
<name>8415</name>
</trkpt>
<trkpt lat="41.793415" lon="-1.813702">
<ele>1528.0</ele>
<speed>36.6</speed>
<course>169.6</course>
<desc>Speed 36.6 km/h Distance 32.22 km</desc>
<time>2011-09-24T12:13:43.29</time>
<name>8416</name>
</trkpt>
<trkpt lat="41.793333" lon="-1.813682">
<ele>1526.5</ele>
<speed>35.7</speed>
<course>165.3</course>
<desc>Speed 35.7 km/h Distance 32.23 km</desc>
<time>2011-09-24T12:13:44.29</time>
<name>8417</name>
</trkpt>
<trkpt lat="41.793243" lon="-1.813650">
<ele>1525.5</ele>
<speed>39.3</speed>
<course>163.8</course>
<desc>Speed 39.3 km/h Distance 32.24 km</desc>
<time>2011-09-24T12:13:45.29</time>
<name>8418</name>
</trkpt>
<trkpt lat="41.793153" lon="-1.813615">
<ele>1525.0</ele>
<speed>40.4</speed>
<course>163.9</course>
<desc>Speed 40.4 km/h Distance 32.25 km</desc>
<time>2011-09-24T12:13:46.29</time>
<name>8419</name>
</trkpt>
<trkpt lat="41.793058" lon="-1.813578">
<ele>1524.0</ele>
<speed>41.7</speed>
<course>163.9</course>
<desc>Speed 41.7 km/h Distance 32.26 km</desc>
<time>2011-09-24T12:13:47.28</time>
<name>8420</name>
</trkpt>
<trkpt lat="41.792963" lon="-1.813542">
<ele>1523.0</ele>
<speed>42.3</speed>
<course>164.5</course>
<desc>Speed 42.3 km/h Distance 32.28 km</desc>
<time>2011-09-24T12:13:48.28</time>
<name>8421</name>
</trkpt>
<trkpt lat="41.792860" lon="-1.813503">
<ele>1522.5</ele>
<speed>42.7</speed>
<course>165.1</course>
<desc>Speed 42.7 km/h Distance 32.29 km</desc>
<time>2011-09-24T12:13:49.29</time>
<name>8422</name>
</trkpt>
<trkpt lat="41.792767" lon="-1.813470">
<ele>1520.5</ele>
<speed>42.9</speed>
<course>162.8</course>
<desc>Speed 42.9 km/h Distance 32.30 km</desc>
<time>2011-09-24T12:13:50.29</time>
<name>8423</name>
</trkpt>
<trkpt lat="41.792658" lon="-1.813425">
<ele>1520.5</ele>
<speed>44.6</speed>
<course>162.3</course>
<desc>Speed 44.6 km/h Distance 32.31 km</desc>
<time>2011-09-24T12:13:51.29</time>
<name>8424</name>
</trkpt>
<trkpt lat="41.792553" lon="-1.813380">
<ele>1520.0</ele>
<speed>43.6</speed>
<course>162.7</course>
<desc>Speed 43.6 km/h Distance 32.32 km</desc>
<time>2011-09-24T12:13:52.29</time>
<name>8425</name>
</trkpt>
<trkpt lat="41.792453" lon="-1.813338">
<ele>1519.5</ele>
<speed>42.0</speed>
<course>161.5</course>
<desc>Speed 42.0 km/h Distance 32.33 km</desc>
<time>2011-09-24T12:13:53.28</time>
<name>8426</name>
</trkpt>
<trkpt lat="41.792353" lon="-1.813293">
<ele>1519.0</ele>
<speed>42.0</speed>
<course>162.5</course>
<desc>Speed 42.0 km/h Distance 32.35 km</desc>
<time>2011-09-24T12:13:54.28</time>
<name>8427</name>
</trkpt>
<trkpt lat="41.792255" lon="-1.813252">
<ele>1518.5</ele>
<speed>41.0</speed>
<course>163.9</course>
<desc>Speed 41.0 km/h Distance 32.36 km</desc>
<time>2011-09-24T12:13:55.29</time>
<name>8428</name>
</trkpt>
<trkpt lat="41.792160" lon="-1.813215">
<ele>1518.0</ele>
<speed>39.9</speed>
<course>168.7</course>
<desc>Speed 39.9 km/h Distance 32.37 km</desc>
<time>2011-09-24T12:13:56.28</time>
<name>8429</name>
</trkpt>
<trkpt lat="41.792067" lon="-1.813190">
<ele>1517.5</ele>
<speed>38.6</speed>
<course>166.0</course>
<desc>Speed 38.6 km/h Distance 32.38 km</desc>
<time>2011-09-24T12:13:57.28</time>
<name>8430</name>
</trkpt>
<trkpt lat="41.791972" lon="-1.813158">
<ele>1517.0</ele>
<speed>39.1</speed>
<course>167.5</course>
<desc>Speed 39.1 km/h Distance 32.39 km</desc>
<time>2011-09-24T12:13:58.28</time>
<name>8431</name>
</trkpt>
<trkpt lat="41.791877" lon="-1.813130">
<ele>1516.5</ele>
<speed>38.9</speed>
<course>168.9</course>
<desc>Speed 38.9 km/h Distance 32.40 km</desc>
<time>2011-09-24T12:13:59.27</time>
<name>8432</name>
</trkpt>
<trkpt lat="41.791782" lon="-1.813105">
<ele>1516.5</ele>
<speed>38.5</speed>
<course>172.6</course>
<desc>Speed 38.5 km/h Distance 32.41 km</desc>
<time>2011-09-24T12:14:00.28</time>
<name>8433</name>
</trkpt>
<trkpt lat="41.791687" lon="-1.813088">
<ele>1515.5</ele>
<speed>38.1</speed>
<course>172.0</course>
<desc>Speed 38.1 km/h Distance 32.42 km</desc>
<time>2011-09-24T12:14:01.28</time>
<name>8434</name>
</trkpt>
<trkpt lat="41.791590" lon="-1.813070">
<ele>1514.5</ele>
<speed>38.2</speed>
<course>168.2</course>
<desc>Speed 38.2 km/h Distance 32.43 km</desc>
<time>2011-09-24T12:14:02.28</time>
<name>8435</name>
</trkpt>
<trkpt lat="41.791495" lon="-1.813043">
<ele>1513.5</ele>
<speed>39.1</speed>
<course>164.2</course>
<desc>Speed 39.1 km/h Distance 32.44 km</desc>
<time>2011-09-24T12:14:03.28</time>
<name>8436</name>
</trkpt>
<trkpt lat="41.791398" lon="-1.813007">
<ele>1513.0</ele>
<speed>39.7</speed>
<course>163.5</course>
<desc>Speed 39.7 km/h Distance 32.46 km</desc>
<time>2011-09-24T12:14:04.27</time>
<name>8437</name>
</trkpt>
<trkpt lat="41.791302" lon="-1.812968">
<ele>1512.0</ele>
<speed>39.9</speed>
<course>161.5</course>
<desc>Speed 39.9 km/h Distance 32.47 km</desc>
<time>2011-09-24T12:14:05.28</time>
<name>8438</name>
</trkpt>
<trkpt lat="41.791205" lon="-1.812925">
<ele>1511.5</ele>
<speed>40.2</speed>
<course>159.9</course>
<desc>Speed 40.2 km/h Distance 32.48 km</desc>
<time>2011-09-24T12:14:06.27</time>
<name>8439</name>
</trkpt>
<trkpt lat="41.791107" lon="-1.812877">
<ele>1511.5</ele>
<speed>41.9</speed>
<course>155.4</course>
<desc>Speed 41.9 km/h Distance 32.49 km</desc>
<time>2011-09-24T12:14:07.27</time>
<name>8440</name>
</trkpt>
<trkpt lat="41.791012" lon="-1.812818">
<ele>1511.5</ele>
<speed>41.6</speed>
<course>149.6</course>
<desc>Speed 41.6 km/h Distance 32.50 km</desc>
<time>2011-09-24T12:14:08.27</time>
<name>8441</name>
</trkpt>
<trkpt lat="41.790918" lon="-1.812745">
<ele>1511.5</ele>
<speed>42.2</speed>
<course>143.3</course>
<desc>Speed 42.2 km/h Distance 32.51 km</desc>
<time>2011-09-24T12:14:09.28</time>
<name>8442</name>
</trkpt>
<trkpt lat="41.790835" lon="-1.812662">
<ele>1512.0</ele>
<speed>41.5</speed>
<course>135.8</course>
<desc>Speed 41.5 km/h Distance 32.53 km</desc>
<time>2011-09-24T12:14:10.27</time>
<name>8443</name>
</trkpt>
<trkpt lat="41.790763" lon="-1.812568">
<ele>1512.0</ele>
<speed>39.9</speed>
<course>127.2</course>
<desc>Speed 39.9 km/h Distance 32.54 km</desc>
<time>2011-09-24T12:14:11.27</time>
<name>8444</name>
</trkpt>
<trkpt lat="41.790707" lon="-1.812468">
<ele>1510.5</ele>
<speed>37.8</speed>
<course>125.9</course>
<desc>Speed 37.8 km/h Distance 32.55 km</desc>
<time>2011-09-24T12:14:12.27</time>
<name>8445</name>
</trkpt>
<trkpt lat="41.790650" lon="-1.812363">
<ele>1510.0</ele>
<speed>38.7</speed>
<course>121.4</course>
<desc>Speed 38.7 km/h Distance 32.56 km</desc>
<time>2011-09-24T12:14:13.27</time>
<name>8446</name>
</trkpt>
<trkpt lat="41.790600" lon="-1.812253">
<ele>1509.5</ele>
<speed>38.8</speed>
<course>121.4</course>
<desc>Speed 38.8 km/h Distance 32.57 km</desc>
<time>2011-09-24T12:14:14.27</time>
<name>8447</name>
</trkpt>
<trkpt lat="41.790548" lon="-1.812140">
<ele>1510.0</ele>
<speed>39.7</speed>
<course>127.3</course>
<desc>Speed 39.7 km/h Distance 32.58 km</desc>
<time>2011-09-24T12:14:15.27</time>
<name>8448</name>
</trkpt>
<trkpt lat="41.790485" lon="-1.812028">
<ele>1510.0</ele>
<speed>42.2</speed>
<course>112.6</course>
<desc>Speed 42.2 km/h Distance 32.59 km</desc>
<time>2011-09-24T12:14:16.28</time>
<name>8449</name>
</trkpt>
<trkpt lat="41.790448" lon="-1.811910">
<ele>1508.0</ele>
<speed>37.8</speed>
<course>111.4</course>
<desc>Speed 37.8 km/h Distance 32.60 km</desc>
<time>2011-09-24T12:14:17.27</time>
<name>8450</name>
</trkpt>
<trkpt lat="41.790413" lon="-1.811790">
<ele>1506.5</ele>
<speed>38.8</speed>
<course>111.6</course>
<desc>Speed 38.8 km/h Distance 32.61 km</desc>
<time>2011-09-24T12:14:18.27</time>
<name>8451</name>
</trkpt>
<trkpt lat="41.790378" lon="-1.811672">
<ele>1505.5</ele>
<speed>38.6</speed>
<course>114.1</course>
<desc>Speed 38.6 km/h Distance 32.62 km</desc>
<time>2011-09-24T12:14:19.27</time>
<name>8452</name>
</trkpt>
<trkpt lat="41.790340" lon="-1.811557">
<ele>1505.0</ele>
<speed>37.6</speed>
<course>115.5</course>
<desc>Speed 37.6 km/h Distance 32.63 km</desc>
<time>2011-09-24T12:14:20.27</time>
<name>8453</name>
</trkpt>
<trkpt lat="41.790305" lon="-1.811458">
<ele>1504.5</ele>
<speed>32.1</speed>
<course>110.8</course>
<desc>Speed 32.1 km/h Distance 32.64 km</desc>
<time>2011-09-24T12:14:21.27</time>
<name>8454</name>
</trkpt>
<trkpt lat="41.790280" lon="-1.811370">
<ele>1503.5</ele>
<speed>27.9</speed>
<course>104.7</course>
<desc>Speed 27.9 km/h Distance 32.65 km</desc>
<time>2011-09-24T12:14:22.27</time>
<name>8455</name>
</trkpt>
<trkpt lat="41.790263" lon="-1.811285">
<ele>1503.5</ele>
<speed>25.6</speed>
<course>91.7</course>
<desc>Speed 25.6 km/h Distance 32.66 km</desc>
<time>2011-09-24T12:14:23.26</time>
<name>8456</name>
</trkpt>
<trkpt lat="41.790262" lon="-1.811208">
<ele>1503.0</ele>
<speed>22.4</speed>
<course>63.1</course>
<desc>Speed 22.4 km/h Distance 32.66 km</desc>
<time>2011-09-24T12:14:24.26</time>
<name>8457</name>
</trkpt>
<trkpt lat="41.790285" lon="-1.811147">
<ele>1504.5</ele>
<speed>20.8</speed>
<course>52.0</course>
<desc>Speed 20.8 km/h Distance 32.67 km</desc>
<time>2011-09-24T12:14:25.26</time>
<name>8458</name>
</trkpt>
<trkpt lat="41.790308" lon="-1.811107">
<ele>1504.0</ele>
<speed>14.4</speed>
<course>353.9</course>
<desc>Speed 14.4 km/h Distance 32.67 km</desc>
<time>2011-09-24T12:14:26.26</time>
<name>8459</name>
</trkpt>
<trkpt lat="41.790425" lon="-1.811123">
<ele>1504.0</ele>
<speed>15.2</speed>
<course>295.5</course>
<desc>Speed 15.2 km/h Distance 32.69 km</desc>
<time>2011-09-24T12:14:28.25</time>
<name>8460</name>
</trkpt>
<trkpt lat="41.790468" lon="-1.811245">
<ele>1505.5</ele>
<speed>19.3</speed>
<course>273.5</course>
<desc>Speed 19.3 km/h Distance 32.70 km</desc>
<time>2011-09-24T12:14:30.25</time>
<name>8461</name>
</trkpt>
<trkpt lat="41.790472" lon="-1.811318">
<ele>1504.5</ele>
<speed>21.6</speed>
<course>271.6</course>
<desc>Speed 21.6 km/h Distance 32.70 km</desc>
<time>2011-09-24T12:14:31.25</time>
<name>8462</name>
</trkpt>
<trkpt lat="41.790473" lon="-1.811397">
<ele>1503.5</ele>
<speed>23.4</speed>
<course>289.8</course>
<desc>Speed 23.4 km/h Distance 32.71 km</desc>
<time>2011-09-24T12:14:33.41</time>
<name>8463</name>
</trkpt>
<trkpt lat="41.790563" lon="-1.811732">
<ele>1504.0</ele>
<speed>28.7</speed>
<course>296.5</course>
<desc>Speed 28.7 km/h Distance 32.74 km</desc>
<time>2011-09-24T12:14:36.26</time>
<name>8464</name>
</trkpt>
<trkpt lat="41.790595" lon="-1.811817">
<ele>1503.5</ele>
<speed>28.2</speed>
<course>302.6</course>
<desc>Speed 28.2 km/h Distance 32.75 km</desc>
<time>2011-09-24T12:14:37.25</time>
<name>8465</name>
</trkpt>
<trkpt lat="41.790630" lon="-1.811890">
<ele>1503.0</ele>
<speed>26.3</speed>
<course>317.9</course>
<desc>Speed 26.3 km/h Distance 32.76 km</desc>
<time>2011-09-24T12:14:38.25</time>
<name>8466</name>
</trkpt>
<trkpt lat="41.790685" lon="-1.811957">
<ele>1501.0</ele>
<speed>29.6</speed>
<course>317.4</course>
<desc>Speed 29.6 km/h Distance 32.76 km</desc>
<time>2011-09-24T12:14:39.25</time>
<name>8467</name>
</trkpt>
<trkpt lat="41.790735" lon="-1.812018">
<ele>1501.0</ele>
<speed>27.0</speed>
<course>314.4</course>
<desc>Speed 27.0 km/h Distance 32.77 km</desc>
<time>2011-09-24T12:14:40.25</time>
<name>8468</name>
</trkpt>
<trkpt lat="41.790780" lon="-1.812080">
<ele>1501.0</ele>
<speed>25.9</speed>
<course>321.1</course>
<desc>Speed 25.9 km/h Distance 32.78 km</desc>
<time>2011-09-24T12:14:41.25</time>
<name>8469</name>
</trkpt>
<trkpt lat="41.790840" lon="-1.812145">
<ele>1500.5</ele>
<speed>30.6</speed>
<course>331.3</course>
<desc>Speed 30.6 km/h Distance 32.79 km</desc>
<time>2011-09-24T12:14:42.25</time>
<name>8470</name>
</trkpt>
<trkpt lat="41.790922" lon="-1.812205">
<ele>1499.5</ele>
<speed>35.3</speed>
<course>337.7</course>
<desc>Speed 35.3 km/h Distance 32.80 km</desc>
<time>2011-09-24T12:14:43.25</time>
<name>8471</name>
</trkpt>
<trkpt lat="41.791118" lon="-1.812313">
<ele>1496.0</ele>
<speed>37.2</speed>
<course>336.6</course>
<desc>Speed 37.2 km/h Distance 32.82 km</desc>
<time>2011-09-24T12:14:45.24</time>
<name>8472</name>
</trkpt>
<trkpt lat="41.791202" lon="-1.812362">
<ele>1495.5</ele>
<speed>35.2</speed>
<course>341.3</course>
<desc>Speed 35.2 km/h Distance 32.83 km</desc>
<time>2011-09-24T12:14:46.24</time>
<name>8473</name>
</trkpt>
<trkpt lat="41.791293" lon="-1.812403">
<ele>1495.5</ele>
<speed>38.3</speed>
<course>339.6</course>
<desc>Speed 38.3 km/h Distance 32.84 km</desc>
<time>2011-09-24T12:14:47.24</time>
<name>8474</name>
</trkpt>
<trkpt lat="41.791373" lon="-1.812443">
<ele>1495.5</ele>
<speed>33.4</speed>
<course>340.5</course>
<desc>Speed 33.4 km/h Distance 32.85 km</desc>
<time>2011-09-24T12:14:48.25</time>
<name>8475</name>
</trkpt>
<trkpt lat="41.791513" lon="-1.812510">
<ele>1496.5</ele>
<speed>34.7</speed>
<course>351.8</course>
<desc>Speed 34.7 km/h Distance 32.87 km</desc>
<time>2011-09-24T12:14:50.24</time>
<name>8476</name>
</trkpt>
<trkpt lat="41.791600" lon="-1.812527">
<ele>1497.5</ele>
<speed>33.0</speed>
<course>1.5</course>
<desc>Speed 33.0 km/h Distance 32.88 km</desc>
<time>2011-09-24T12:14:51.25</time>
<name>8477</name>
</trkpt>
<trkpt lat="41.791697" lon="-1.812523">
<ele>1496.5</ele>
<speed>37.5</speed>
<course>7.9</course>
<desc>Speed 37.5 km/h Distance 32.89 km</desc>
<time>2011-09-24T12:14:52.25</time>
<name>8478</name>
</trkpt>
<trkpt lat="41.791903" lon="-1.812485">
<ele>1494.0</ele>
<speed>34.7</speed>
<course>8.5</course>
<desc>Speed 34.7 km/h Distance 32.91 km</desc>
<time>2011-09-24T12:14:54.24</time>
<name>8479</name>
</trkpt>
<trkpt lat="41.791995" lon="-1.812467">
<ele>1493.0</ele>
<speed>35.0</speed>
<course>8.3</course>
<desc>Speed 35.0 km/h Distance 32.92 km</desc>
<time>2011-09-24T12:14:55.24</time>
<name>8480</name>
</trkpt>
<trkpt lat="41.792088" lon="-1.812448">
<ele>1492.0</ele>
<speed>34.9</speed>
<course>4.1</course>
<desc>Speed 34.9 km/h Distance 32.93 km</desc>
<time>2011-09-24T12:14:56.24</time>
<name>8481</name>
</trkpt>
<trkpt lat="41.792175" lon="-1.812440">
<ele>1491.5</ele>
<speed>35.0</speed>
<course>3.9</course>
<desc>Speed 35.0 km/h Distance 32.94 km</desc>
<time>2011-09-24T12:14:57.24</time>
<name>8482</name>
</trkpt>
<trkpt lat="41.792265" lon="-1.812432">
<ele>1490.5</ele>
<speed>35.0</speed>
<course>5.6</course>
<desc>Speed 35.0 km/h Distance 32.95 km</desc>
<time>2011-09-24T12:14:58.24</time>
<name>8483</name>
</trkpt>
<trkpt lat="41.792353" lon="-1.812420">
<ele>1490.0</ele>
<speed>35.3</speed>
<course>6.0</course>
<desc>Speed 35.3 km/h Distance 32.96 km</desc>
<time>2011-09-24T12:14:59.23</time>
<name>8484</name>
</trkpt>
<trkpt lat="41.792448" lon="-1.812407">
<ele>1488.5</ele>
<speed>36.1</speed>
<course>8.3</course>
<desc>Speed 36.1 km/h Distance 32.97 km</desc>
<time>2011-09-24T12:15:00.24</time>
<name>8485</name>
</trkpt>
<trkpt lat="41.792542" lon="-1.812388">
<ele>1487.5</ele>
<speed>37.4</speed>
<course>8.8</course>
<desc>Speed 37.4 km/h Distance 32.98 km</desc>
<time>2011-09-24T12:15:01.23</time>
<name>8486</name>
</trkpt>
<trkpt lat="41.792638" lon="-1.812368">
<ele>1487.0</ele>
<speed>38.4</speed>
<course>9.9</course>
<desc>Speed 38.4 km/h Distance 32.99 km</desc>
<time>2011-09-24T12:15:02.23</time>
<name>8487</name>
</trkpt>
<trkpt lat="41.792738" lon="-1.812345">
<ele>1486.0</ele>
<speed>39.5</speed>
<course>11.3</course>
<desc>Speed 39.5 km/h Distance 33.01 km</desc>
<time>2011-09-24T12:15:03.23</time>
<name>8488</name>
</trkpt>
<trkpt lat="41.792838" lon="-1.812318">
<ele>1485.0</ele>
<speed>40.2</speed>
<course>14.4</course>
<desc>Speed 40.2 km/h Distance 33.02 km</desc>
<time>2011-09-24T12:15:04.23</time>
<name>8489</name>
</trkpt>
<trkpt lat="41.792940" lon="-1.812283">
<ele>1484.0</ele>
<speed>40.8</speed>
<course>16.3</course>
<desc>Speed 40.8 km/h Distance 33.03 km</desc>
<time>2011-09-24T12:15:05.23</time>
<name>8490</name>
</trkpt>
<trkpt lat="41.793042" lon="-1.812243">
<ele>1483.0</ele>
<speed>41.1</speed>
<course>14.0</course>
<desc>Speed 41.1 km/h Distance 33.04 km</desc>
<time>2011-09-24T12:15:06.23</time>
<name>8491</name>
</trkpt>
<trkpt lat="41.793142" lon="-1.812210">
<ele>1482.5</ele>
<speed>41.0</speed>
<course>11.7</course>
<desc>Speed 41.0 km/h Distance 33.05 km</desc>
<time>2011-09-24T12:15:07.23</time>
<name>8492</name>
</trkpt>
<trkpt lat="41.793243" lon="-1.812182">
<ele>1482.0</ele>
<speed>41.0</speed>
<course>12.8</course>
<desc>Speed 41.0 km/h Distance 33.06 km</desc>
<time>2011-09-24T12:15:08.23</time>
<name>8493</name>
</trkpt>
<trkpt lat="41.793342" lon="-1.812152">
<ele>1481.5</ele>
<speed>40.6</speed>
<course>13.5</course>
<desc>Speed 40.6 km/h Distance 33.07 km</desc>
<time>2011-09-24T12:15:09.23</time>
<name>8494</name>
</trkpt>
<trkpt lat="41.793440" lon="-1.812120">
<ele>1481.0</ele>
<speed>40.4</speed>
<course>17.1</course>
<desc>Speed 40.4 km/h Distance 33.09 km</desc>
<time>2011-09-24T12:15:10.23</time>
<name>8495</name>
</trkpt>
<trkpt lat="41.793537" lon="-1.812080">
<ele>1480.5</ele>
<speed>40.4</speed>
<course>18.2</course>
<desc>Speed 40.4 km/h Distance 33.10 km</desc>
<time>2011-09-24T12:15:11.23</time>
<name>8496</name>
</trkpt>
<trkpt lat="41.793635" lon="-1.812037">
<ele>1479.5</ele>
<speed>41.1</speed>
<course>21.4</course>
<desc>Speed 41.1 km/h Distance 33.11 km</desc>
<time>2011-09-24T12:15:12.23</time>
<name>8497</name>
</trkpt>
<trkpt lat="41.793730" lon="-1.811987">
<ele>1479.0</ele>
<speed>40.9</speed>
<course>21.4</course>
<desc>Speed 40.9 km/h Distance 33.12 km</desc>
<time>2011-09-24T12:15:13.22</time>
<name>8498</name>
</trkpt>
<trkpt lat="41.793825" lon="-1.811937">
<ele>1478.0</ele>
<speed>41.2</speed>
<course>24.3</course>
<desc>Speed 41.2 km/h Distance 33.13 km</desc>
<time>2011-09-24T12:15:14.22</time>
<name>8499</name>
</trkpt>
<trkpt lat="41.793918" lon="-1.811880">
<ele>1478.0</ele>
<speed>40.7</speed>
<course>19.8</course>
<desc>Speed 40.7 km/h Distance 33.14 km</desc>
<time>2011-09-24T12:15:15.24</time>
<name>8500</name>
</trkpt>
<trkpt lat="41.794015" lon="-1.811833">
<ele>1476.0</ele>
<speed>41.3</speed>
<course>32.4</course>
<desc>Speed 41.3 km/h Distance 33.15 km</desc>
<time>2011-09-24T12:15:16.22</time>
<name>8501</name>
</trkpt>
<trkpt lat="41.794105" lon="-1.811757">
<ele>1476.0</ele>
<speed>42.9</speed>
<course>20.8</course>
<desc>Speed 42.9 km/h Distance 33.17 km</desc>
<time>2011-09-24T12:15:17.22</time>
<name>8502</name>
</trkpt>
<trkpt lat="41.794190" lon="-1.811713">
<ele>1476.0</ele>
<speed>35.9</speed>
<course>27.6</course>
<desc>Speed 35.9 km/h Distance 33.18 km</desc>
<time>2011-09-24T12:15:18.22</time>
<name>8503</name>
</trkpt>
<trkpt lat="41.794273" lon="-1.811655">
<ele>1476.5</ele>
<speed>37.4</speed>
<course>28.7</course>
<desc>Speed 37.4 km/h Distance 33.19 km</desc>
<time>2011-09-24T12:15:19.22</time>
<name>8504</name>
</trkpt>
<trkpt lat="41.794355" lon="-1.811595">
<ele>1477.0</ele>
<speed>36.9</speed>
<course>28.1</course>
<desc>Speed 36.9 km/h Distance 33.20 km</desc>
<time>2011-09-24T12:15:20.23</time>
<name>8505</name>
</trkpt>
<trkpt lat="41.794432" lon="-1.811540">
<ele>1478.0</ele>
<speed>35.0</speed>
<course>27.8</course>
<desc>Speed 35.0 km/h Distance 33.21 km</desc>
<time>2011-09-24T12:15:21.22</time>
<name>8506</name>
</trkpt>
<trkpt lat="41.794512" lon="-1.811483">
<ele>1478.5</ele>
<speed>36.3</speed>
<course>27.9</course>
<desc>Speed 36.3 km/h Distance 33.22 km</desc>
<time>2011-09-24T12:15:22.22</time>
<name>8507</name>
</trkpt>
<trkpt lat="41.794587" lon="-1.811430">
<ele>1478.5</ele>
<speed>33.9</speed>
<course>25.9</course>
<desc>Speed 33.9 km/h Distance 33.23 km</desc>
<time>2011-09-24T12:15:23.22</time>
<name>8508</name>
</trkpt>
<trkpt lat="41.794663" lon="-1.811380">
<ele>1478.5</ele>
<speed>34.7</speed>
<course>32.3</course>
<desc>Speed 34.7 km/h Distance 33.24 km</desc>
<time>2011-09-24T12:15:24.23</time>
<name>8509</name>
</trkpt>
<trkpt lat="41.794785" lon="-1.811277">
<ele>1479.0</ele>
<speed>32.0</speed>
<course>32.0</course>
<desc>Speed 32.0 km/h Distance 33.25 km</desc>
<time>2011-09-24T12:15:26.22</time>
<name>8510</name>
</trkpt>
<trkpt lat="41.794857" lon="-1.811217">
<ele>1479.5</ele>
<speed>34.3</speed>
<course>32.1</course>
<desc>Speed 34.3 km/h Distance 33.26 km</desc>
<time>2011-09-24T12:15:27.22</time>
<name>8511</name>
</trkpt>
<trkpt lat="41.794930" lon="-1.811155">
<ele>1480.5</ele>
<speed>35.2</speed>
<course>35.9</course>
<desc>Speed 35.2 km/h Distance 33.27 km</desc>
<time>2011-09-24T12:15:28.22</time>
<name>8512</name>
</trkpt>
<trkpt lat="41.794990" lon="-1.811097">
<ele>1482.0</ele>
<speed>31.2</speed>
<course>23.7</course>
<desc>Speed 31.2 km/h Distance 33.28 km</desc>
<time>2011-09-24T12:15:29.21</time>
<name>8513</name>
</trkpt>
<trkpt lat="41.795075" lon="-1.811047">
<ele>1482.0</ele>
<speed>36.5</speed>
<course>25.8</course>
<desc>Speed 36.5 km/h Distance 33.29 km</desc>
<time>2011-09-24T12:15:30.22</time>
<name>8514</name>
</trkpt>
<trkpt lat="41.795142" lon="-1.811003">
<ele>1483.5</ele>
<speed>29.4</speed>
<course>14.0</course>
<desc>Speed 29.4 km/h Distance 33.30 km</desc>
<time>2011-09-24T12:15:31.22</time>
<name>8515</name>
</trkpt>
<trkpt lat="41.795507" lon="-1.810882">
<ele>1483.5</ele>
<speed>49.8</speed>
<course>16.2</course>
<desc>Speed 49.8 km/h Distance 33.34 km</desc>
<time>2011-09-24T12:15:34.22</time>
<name>8516</name>
</trkpt>
<trkpt lat="41.795613" lon="-1.810840">
<ele>1483.5</ele>
<speed>44.2</speed>
<course>16.8</course>
<desc>Speed 44.2 km/h Distance 33.35 km</desc>
<time>2011-09-24T12:15:35.22</time>
<name>8517</name>
</trkpt>
<trkpt lat="41.795773" lon="-1.810775">
<ele>1485.0</ele>
<speed>36.5</speed>
<course>7.7</course>
<desc>Speed 36.5 km/h Distance 33.37 km</desc>
<time>2011-09-24T12:15:37.22</time>
<name>8518</name>
</trkpt>
<trkpt lat="41.795865" lon="-1.810758">
<ele>1485.0</ele>
<speed>34.2</speed>
<course>5.2</course>
<desc>Speed 34.2 km/h Distance 33.38 km</desc>
<time>2011-09-24T12:15:38.21</time>
<name>8519</name>
</trkpt>
<trkpt lat="41.795962" lon="-1.810747">
<ele>1485.0</ele>
<speed>37.0</speed>
<course>358.4</course>
<desc>Speed 37.0 km/h Distance 33.39 km</desc>
<time>2011-09-24T12:15:39.22</time>
<name>8520</name>
</trkpt>
<trkpt lat="41.796047" lon="-1.810750">
<ele>1485.0</ele>
<speed>32.9</speed>
<course>355.2</course>
<desc>Speed 32.9 km/h Distance 33.40 km</desc>
<time>2011-09-24T12:15:40.22</time>
<name>8521</name>
</trkpt>
<trkpt lat="41.796135" lon="-1.810760">
<ele>1483.5</ele>
<speed>32.9</speed>
<course>346.0</course>
<desc>Speed 32.9 km/h Distance 33.41 km</desc>
<time>2011-09-24T12:15:41.22</time>
<name>8522</name>
</trkpt>
<trkpt lat="41.796335" lon="-1.810827">
<ele>1483.5</ele>
<speed>35.1</speed>
<course>324.8</course>
<desc>Speed 35.1 km/h Distance 33.43 km</desc>
<time>2011-09-24T12:15:43.22</time>
<name>8523</name>
</trkpt>
<trkpt lat="41.796397" lon="-1.810885">
<ele>1482.5</ele>
<speed>32.9</speed>
<course>316.1</course>
<desc>Speed 32.9 km/h Distance 33.44 km</desc>
<time>2011-09-24T12:15:44.20</time>
<name>8524</name>
</trkpt>
<trkpt lat="41.796448" lon="-1.810952">
<ele>1482.0</ele>
<speed>30.4</speed>
<course>305.5</course>
<desc>Speed 30.4 km/h Distance 33.45 km</desc>
<time>2011-09-24T12:15:45.20</time>
<name>8525</name>
</trkpt>
<trkpt lat="41.796490" lon="-1.811030">
<ele>1484.0</ele>
<speed>30.5</speed>
<course>308.7</course>
<desc>Speed 30.5 km/h Distance 33.46 km</desc>
<time>2011-09-24T12:15:46.20</time>
<name>8526</name>
</trkpt>
<trkpt lat="41.796542" lon="-1.811117">
<ele>1483.0</ele>
<speed>33.6</speed>
<course>293.7</course>
<desc>Speed 33.6 km/h Distance 33.47 km</desc>
<time>2011-09-24T12:15:47.21</time>
<name>8527</name>
</trkpt>
<trkpt lat="41.796573" lon="-1.811213">
<ele>1481.5</ele>
<speed>30.7</speed>
<course>294.8</course>
<desc>Speed 30.7 km/h Distance 33.48 km</desc>
<time>2011-09-24T12:15:48.20</time>
<name>8528</name>
</trkpt>
<trkpt lat="41.796607" lon="-1.811310">
<ele>1481.5</ele>
<speed>32.4</speed>
<course>293.0</course>
<desc>Speed 32.4 km/h Distance 33.48 km</desc>
<time>2011-09-24T12:15:49.20</time>
<name>8529</name>
</trkpt>
<trkpt lat="41.796638" lon="-1.811410">
<ele>1481.0</ele>
<speed>33.3</speed>
<course>288.0</course>
<desc>Speed 33.3 km/h Distance 33.49 km</desc>
<time>2011-09-24T12:15:50.20</time>
<name>8530</name>
</trkpt>
<trkpt lat="41.796663" lon="-1.811513">
<ele>1481.0</ele>
<speed>33.1</speed>
<course>287.5</course>
<desc>Speed 33.1 km/h Distance 33.50 km</desc>
<time>2011-09-24T12:15:51.20</time>
<name>8531</name>
</trkpt>
<trkpt lat="41.796688" lon="-1.811620">
<ele>1480.5</ele>
<speed>33.9</speed>
<course>285.0</course>
<desc>Speed 33.9 km/h Distance 33.51 km</desc>
<time>2011-09-24T12:15:52.20</time>
<name>8532</name>
</trkpt>
<trkpt lat="41.796710" lon="-1.811728">
<ele>1480.0</ele>
<speed>34.4</speed>
<course>284.8</course>
<desc>Speed 34.4 km/h Distance 33.52 km</desc>
<time>2011-09-24T12:15:53.20</time>
<name>8533</name>
</trkpt>
<trkpt lat="41.796732" lon="-1.811838">
<ele>1479.0</ele>
<speed>33.7</speed>
<course>275.7</course>
<desc>Speed 33.7 km/h Distance 33.53 km</desc>
<time>2011-09-24T12:15:54.20</time>
<name>8534</name>
</trkpt>
<trkpt lat="41.796740" lon="-1.811950">
<ele>1477.5</ele>
<speed>33.8</speed>
<course>271.1</course>
<desc>Speed 33.8 km/h Distance 33.54 km</desc>
<time>2011-09-24T12:15:55.20</time>
<name>8535</name>
</trkpt>
<trkpt lat="41.796742" lon="-1.812065">
<ele>1475.5</ele>
<speed>34.8</speed>
<course>251.0</course>
<desc>Speed 34.8 km/h Distance 33.55 km</desc>
<time>2011-09-24T12:15:56.21</time>
<name>8536</name>
</trkpt>
<trkpt lat="41.796712" lon="-1.812182">
<ele>1475.0</ele>
<speed>35.3</speed>
<course>253.5</course>
<desc>Speed 35.3 km/h Distance 33.56 km</desc>
<time>2011-09-24T12:15:57.20</time>
<name>8537</name>
</trkpt>
<trkpt lat="41.796687" lon="-1.812295">
<ele>1475.0</ele>
<speed>35.4</speed>
<course>248.9</course>
<desc>Speed 35.4 km/h Distance 33.57 km</desc>
<time>2011-09-24T12:15:58.19</time>
<name>8538</name>
</trkpt>
<trkpt lat="41.796655" lon="-1.812405">
<ele>1475.0</ele>
<speed>35.7</speed>
<course>249.3</course>
<desc>Speed 35.7 km/h Distance 33.58 km</desc>
<time>2011-09-24T12:15:59.20</time>
<name>8539</name>
</trkpt>
<trkpt lat="41.796625" lon="-1.812512">
<ele>1475.0</ele>
<speed>34.6</speed>
<course>285.5</course>
<desc>Speed 34.6 km/h Distance 33.59 km</desc>
<time>2011-09-24T12:16:00.20</time>
<name>8540</name>
</trkpt>
<trkpt lat="41.796645" lon="-1.812608">
<ele>1472.0</ele>
<speed>31.5</speed>
<course>251.7</course>
<desc>Speed 31.5 km/h Distance 33.60 km</desc>
<time>2011-09-24T12:16:01.20</time>
<name>8541</name>
</trkpt>
<trkpt lat="41.796620" lon="-1.812710">
<ele>1471.5</ele>
<speed>32.9</speed>
<course>243.9</course>
<desc>Speed 32.9 km/h Distance 33.61 km</desc>
<time>2011-09-24T12:16:02.20</time>
<name>8542</name>
</trkpt>
<trkpt lat="41.796582" lon="-1.812815">
<ele>1471.0</ele>
<speed>35.0</speed>
<course>239.6</course>
<desc>Speed 35.0 km/h Distance 33.62 km</desc>
<time>2011-09-24T12:16:03.20</time>
<name>8543</name>
</trkpt>
<trkpt lat="41.796535" lon="-1.812922">
<ele>1471.0</ele>
<speed>38.0</speed>
<course>245.2</course>
<desc>Speed 38.0 km/h Distance 33.63 km</desc>
<time>2011-09-24T12:16:04.20</time>
<name>8544</name>
</trkpt>
<trkpt lat="41.796498" lon="-1.813028">
<ele>1471.0</ele>
<speed>35.0</speed>
<course>243.3</course>
<desc>Speed 35.0 km/h Distance 33.64 km</desc>
<time>2011-09-24T12:16:05.20</time>
<name>8545</name>
</trkpt>
<trkpt lat="41.796458" lon="-1.813135">
<ele>1471.0</ele>
<speed>36.2</speed>
<course>301.1</course>
<desc>Speed 36.2 km/h Distance 33.65 km</desc>
<time>2011-09-24T12:16:06.19</time>
<name>8546</name>
</trkpt>
<trkpt lat="41.796503" lon="-1.813235">
<ele>1466.0</ele>
<speed>38.7</speed>
<course>237.0</course>
<desc>Speed 38.7 km/h Distance 33.66 km</desc>
<time>2011-09-24T12:16:07.19</time>
<name>8547</name>
</trkpt>
<trkpt lat="41.796450" lon="-1.813345">
<ele>1466.0</ele>
<speed>39.6</speed>
<course>234.9</course>
<desc>Speed 39.6 km/h Distance 33.67 km</desc>
<time>2011-09-24T12:16:08.20</time>
<name>8548</name>
</trkpt>
<trkpt lat="41.796393" lon="-1.813453">
<ele>1466.0</ele>
<speed>38.6</speed>
<course>248.0</course>
<desc>Speed 38.6 km/h Distance 33.68 km</desc>
<time>2011-09-24T12:16:09.19</time>
<name>8549</name>
</trkpt>
<trkpt lat="41.796362" lon="-1.813558">
<ele>1465.5</ele>
<speed>35.7</speed>
<course>256.4</course>
<desc>Speed 35.7 km/h Distance 33.69 km</desc>
<time>2011-09-24T12:16:10.19</time>
<name>8550</name>
</trkpt>
<trkpt lat="41.796343" lon="-1.813660">
<ele>1464.5</ele>
<speed>33.9</speed>
<course>248.7</course>
<desc>Speed 33.9 km/h Distance 33.70 km</desc>
<time>2011-09-24T12:16:11.19</time>
<name>8551</name>
</trkpt>
<trkpt lat="41.796313" lon="-1.813763">
<ele>1464.5</ele>
<speed>33.4</speed>
<course>242.0</course>
<desc>Speed 33.4 km/h Distance 33.70 km</desc>
<time>2011-09-24T12:16:12.18</time>
<name>8552</name>
</trkpt>
<trkpt lat="41.796268" lon="-1.813877">
<ele>1464.5</ele>
<speed>38.3</speed>
<course>252.5</course>
<desc>Speed 38.3 km/h Distance 33.72 km</desc>
<time>2011-09-24T12:16:13.18</time>
<name>8553</name>
</trkpt>
<trkpt lat="41.796242" lon="-1.813990">
<ele>1464.5</ele>
<speed>35.9</speed>
<course>250.5</course>
<desc>Speed 35.9 km/h Distance 33.73 km</desc>
<time>2011-09-24T12:16:14.19</time>
<name>8554</name>
</trkpt>
<trkpt lat="41.796212" lon="-1.814103">
<ele>1464.5</ele>
<speed>35.7</speed>
<course>260.8</course>
<desc>Speed 35.7 km/h Distance 33.74 km</desc>
<time>2011-09-24T12:16:15.19</time>
<name>8555</name>
</trkpt>
<trkpt lat="41.796198" lon="-1.814213">
<ele>1464.0</ele>
<speed>33.9</speed>
<course>258.2</course>
<desc>Speed 33.9 km/h Distance 33.74 km</desc>
<time>2011-09-24T12:16:16.19</time>
<name>8556</name>
</trkpt>
<trkpt lat="41.796182" lon="-1.814320">
<ele>1463.5</ele>
<speed>32.8</speed>
<course>275.7</course>
<desc>Speed 32.8 km/h Distance 33.75 km</desc>
<time>2011-09-24T12:16:17.19</time>
<name>8557</name>
</trkpt>
<trkpt lat="41.796188" lon="-1.814410">
<ele>1463.0</ele>
<speed>27.4</speed>
<course>245.3</course>
<desc>Speed 27.4 km/h Distance 33.76 km</desc>
<time>2011-09-24T12:16:18.19</time>
<name>8558</name>
</trkpt>
<trkpt lat="41.796147" lon="-1.814532">
<ele>1462.5</ele>
<speed>21.5</speed>
<course>291.5</course>
<desc>Speed 21.5 km/h Distance 33.77 km</desc>
<time>2011-09-24T12:16:20.19</time>
<name>8559</name>
</trkpt>
<trkpt lat="41.796163" lon="-1.814588">
<ele>1462.0</ele>
<speed>18.3</speed>
<course>319.7</course>
<desc>Speed 18.3 km/h Distance 33.78 km</desc>
<time>2011-09-24T12:16:21.19</time>
<name>8560</name>
</trkpt>
<trkpt lat="41.796200" lon="-1.814630">
<ele>1462.0</ele>
<speed>18.6</speed>
<course>311.8</course>
<desc>Speed 18.6 km/h Distance 33.78 km</desc>
<time>2011-09-24T12:16:22.19</time>
<name>8561</name>
</trkpt>
<trkpt lat="41.796220" lon="-1.814660">
<ele>1461.5</ele>
<speed>12.9</speed>
<course>316.5</course>
<desc>Speed 12.9 km/h Distance 33.79 km</desc>
<time>2011-09-24T12:16:23.19</time>
<name>8562</name>
</trkpt>
<trkpt lat="41.796238" lon="-1.814683">
<ele>1461.5</ele>
<speed>11.0</speed>
<course>41.4</course>
<desc>Speed 11.0 km/h Distance 33.79 km</desc>
<time>2011-09-24T12:16:24.19</time>
<name>8563</name>
</trkpt>
<trkpt lat="41.796257" lon="-1.814662">
<ele>1461.5</ele>
<speed>10.6</speed>
<course>57.8</course>
<desc>Speed 10.6 km/h Distance 33.79 km</desc>
<time>2011-09-24T12:16:25.19</time>
<name>8564</name>
</trkpt>
<trkpt lat="41.796270" lon="-1.814633">
<ele>1461.5</ele>
<speed>10.7</speed>
<course>72.2</course>
<desc>Speed 10.7 km/h Distance 33.79 km</desc>
<time>2011-09-24T12:16:26.19</time>
<name>8565</name>
</trkpt>
<trkpt lat="41.796300" lon="-1.814508">
<ele>1461.0</ele>
<speed>21.7</speed>
<course>116.0</course>
<desc>Speed 21.7 km/h Distance 33.81 km</desc>
<time>2011-09-24T12:16:28.18</time>
<name>8566</name>
</trkpt>
<trkpt lat="41.796273" lon="-1.814435">
<ele>1461.0</ele>
<speed>24.4</speed>
<course>93.0</course>
<desc>Speed 24.4 km/h Distance 33.81 km</desc>
<time>2011-09-24T12:16:29.18</time>
<name>8567</name>
</trkpt>
<trkpt lat="41.796270" lon="-1.814348">
<ele>1461.0</ele>
<speed>26.4</speed>
<course>67.7</course>
<desc>Speed 26.4 km/h Distance 33.82 km</desc>
<time>2011-09-24T12:16:30.18</time>
<name>8568</name>
</trkpt>
<trkpt lat="41.796300" lon="-1.814250">
<ele>1461.0</ele>
<speed>31.6</speed>
<course>54.4</course>
<desc>Speed 31.6 km/h Distance 33.83 km</desc>
<time>2011-09-24T12:16:31.19</time>
<name>8569</name>
</trkpt>
<trkpt lat="41.796353" lon="-1.814150">
<ele>1461.0</ele>
<speed>36.4</speed>
<course>59.0</course>
<desc>Speed 36.4 km/h Distance 33.84 km</desc>
<time>2011-09-24T12:16:32.18</time>
<name>8570</name>
</trkpt>
<trkpt lat="41.796397" lon="-1.814053">
<ele>1460.5</ele>
<speed>33.7</speed>
<course>77.2</course>
<desc>Speed 33.7 km/h Distance 33.85 km</desc>
<time>2011-09-24T12:16:33.18</time>
<name>8571</name>
</trkpt>
<trkpt lat="41.796413" lon="-1.813955">
<ele>1461.5</ele>
<speed>29.8</speed>
<course>59.7</course>
<desc>Speed 29.8 km/h Distance 33.86 km</desc>
<time>2011-09-24T12:16:34.18</time>
<name>8572</name>
</trkpt>
<trkpt lat="41.796508" lon="-1.813737">
<ele>1461.5</ele>
<speed>35.2</speed>
<course>44.1</course>
<desc>Speed 35.2 km/h Distance 33.88 km</desc>
<time>2011-09-24T12:16:36.17</time>
<name>8573</name>
</trkpt>
<trkpt lat="41.796665" lon="-1.813533">
<ele>1461.0</ele>
<speed>37.6</speed>
<course>42.2</course>
<desc>Speed 37.6 km/h Distance 33.90 km</desc>
<time>2011-09-24T12:16:38.17</time>
<name>8574</name>
</trkpt>
<trkpt lat="41.796742" lon="-1.813440">
<ele>1460.5</ele>
<speed>37.6</speed>
<course>42.0</course>
<desc>Speed 37.6 km/h Distance 33.91 km</desc>
<time>2011-09-24T12:16:39.17</time>
<name>8575</name>
</trkpt>
<trkpt lat="41.796822" lon="-1.813343">
<ele>1460.0</ele>
<speed>38.3</speed>
<course>43.7</course>
<desc>Speed 38.3 km/h Distance 33.92 km</desc>
<time>2011-09-24T12:16:40.17</time>
<name>8576</name>
</trkpt>
<trkpt lat="41.796898" lon="-1.813245">
<ele>1459.5</ele>
<speed>38.3</speed>
<course>48.0</course>
<desc>Speed 38.3 km/h Distance 33.94 km</desc>
<time>2011-09-24T12:16:41.17</time>
<name>8577</name>
</trkpt>
<trkpt lat="41.796963" lon="-1.813148">
<ele>1459.5</ele>
<speed>37.6</speed>
<course>46.2</course>
<desc>Speed 37.6 km/h Distance 33.95 km</desc>
<time>2011-09-24T12:16:42.17</time>
<name>8578</name>
</trkpt>
<trkpt lat="41.797030" lon="-1.813055">
<ele>1459.0</ele>
<speed>37.0</speed>
<course>48.0</course>
<desc>Speed 37.0 km/h Distance 33.96 km</desc>
<time>2011-09-24T12:16:43.18</time>
<name>8579</name>
</trkpt>
<trkpt lat="41.797098" lon="-1.812953">
<ele>1459.0</ele>
<speed>38.6</speed>
<course>45.2</course>
<desc>Speed 38.6 km/h Distance 33.97 km</desc>
<time>2011-09-24T12:16:44.17</time>
<name>8580</name>
</trkpt>
<trkpt lat="41.797170" lon="-1.812857">
<ele>1459.0</ele>
<speed>38.7</speed>
<course>45.2</course>
<desc>Speed 38.7 km/h Distance 33.98 km</desc>
<time>2011-09-24T12:16:45.17</time>
<name>8581</name>
</trkpt>
<trkpt lat="41.797242" lon="-1.812760">
<ele>1458.5</ele>
<speed>38.6</speed>
<course>49.4</course>
<desc>Speed 38.6 km/h Distance 33.99 km</desc>
<time>2011-09-24T12:16:46.17</time>
<name>8582</name>
</trkpt>
<trkpt lat="41.797307" lon="-1.812658">
<ele>1457.5</ele>
<speed>37.6</speed>
<course>60.8</course>
<desc>Speed 37.6 km/h Distance 34.00 km</desc>
<time>2011-09-24T12:16:47.17</time>
<name>8583</name>
</trkpt>
<trkpt lat="41.797348" lon="-1.812558">
<ele>1457.0</ele>
<speed>33.5</speed>
<course>68.2</course>
<desc>Speed 33.5 km/h Distance 34.01 km</desc>
<time>2011-09-24T12:16:48.17</time>
<name>8584</name>
</trkpt>
<trkpt lat="41.797377" lon="-1.812463">
<ele>1457.0</ele>
<speed>29.4</speed>
<course>131.3</course>
<desc>Speed 29.4 km/h Distance 34.02 km</desc>
<time>2011-09-24T12:16:49.17</time>
<name>8585</name>
</trkpt>
<trkpt lat="41.797320" lon="-1.812377">
<ele>1456.5</ele>
<speed>36.1</speed>
<course>57.9</course>
<desc>Speed 36.1 km/h Distance 34.03 km</desc>
<time>2011-09-24T12:16:50.17</time>
<name>8586</name>
</trkpt>
<trkpt lat="41.797368" lon="-1.812273">
<ele>1456.5</ele>
<speed>36.3</speed>
<course>59.3</course>
<desc>Speed 36.3 km/h Distance 34.04 km</desc>
<time>2011-09-24T12:16:51.17</time>
<name>8587</name>
</trkpt>
<trkpt lat="41.797413" lon="-1.812172">
<ele>1456.5</ele>
<speed>35.5</speed>
<course>53.3</course>
<desc>Speed 35.5 km/h Distance 34.05 km</desc>
<time>2011-09-24T12:16:52.17</time>
<name>8588</name>
</trkpt>
<trkpt lat="41.797472" lon="-1.812067">
<ele>1456.0</ele>
<speed>33.3</speed>
<course>70.6</course>
<desc>Speed 33.3 km/h Distance 34.06 km</desc>
<time>2011-09-24T12:16:53.17</time>
<name>8589</name>
</trkpt>
<trkpt lat="41.797498" lon="-1.811965">
<ele>1456.0</ele>
<speed>31.3</speed>
<course>68.3</course>
<desc>Speed 31.3 km/h Distance 34.07 km</desc>
<time>2011-09-24T12:16:54.17</time>
<name>8590</name>
</trkpt>
<trkpt lat="41.797530" lon="-1.811858">
<ele>1455.5</ele>
<speed>34.8</speed>
<course>66.2</course>
<desc>Speed 34.8 km/h Distance 34.08 km</desc>
<time>2011-09-24T12:16:55.17</time>
<name>8591</name>
</trkpt>
<trkpt lat="41.797567" lon="-1.811747">
<ele>1455.5</ele>
<speed>36.0</speed>
<course>67.1</course>
<desc>Speed 36.0 km/h Distance 34.09 km</desc>
<time>2011-09-24T12:16:56.17</time>
<name>8592</name>
</trkpt>
<trkpt lat="41.797603" lon="-1.811630">
<ele>1455.5</ele>
<speed>37.7</speed>
<course>74.8</course>
<desc>Speed 37.7 km/h Distance 34.10 km</desc>
<time>2011-09-24T12:16:57.16</time>
<name>8593</name>
</trkpt>
<trkpt lat="41.797628" lon="-1.811507">
<ele>1455.5</ele>
<speed>38.3</speed>
<course>82.1</course>
<desc>Speed 38.3 km/h Distance 34.11 km</desc>
<time>2011-09-24T12:16:58.17</time>
<name>8594</name>
</trkpt>
<trkpt lat="41.797642" lon="-1.811378">
<ele>1455.5</ele>
<speed>38.1</speed>
<course>84.1</course>
<desc>Speed 38.1 km/h Distance 34.12 km</desc>
<time>2011-09-24T12:16:59.16</time>
<name>8595</name>
</trkpt>
<trkpt lat="41.797652" lon="-1.811248">
<ele>1454.0</ele>
<speed>39.3</speed>
<course>92.9</course>
<desc>Speed 39.3 km/h Distance 34.13 km</desc>
<time>2011-09-24T12:17:00.17</time>
<name>8596</name>
</trkpt>
<trkpt lat="41.797647" lon="-1.811115">
<ele>1453.0</ele>
<speed>39.5</speed>
<course>99.6</course>
<desc>Speed 39.5 km/h Distance 34.14 km</desc>
<time>2011-09-24T12:17:01.17</time>
<name>8597</name>
</trkpt>
<trkpt lat="41.797630" lon="-1.810983">
<ele>1452.5</ele>
<speed>39.9</speed>
<course>103.5</course>
<desc>Speed 39.9 km/h Distance 34.15 km</desc>
<time>2011-09-24T12:17:02.16</time>
<name>8598</name>
</trkpt>
<trkpt lat="41.797607" lon="-1.810853">
<ele>1451.5</ele>
<speed>41.2</speed>
<course>106.5</course>
<desc>Speed 41.2 km/h Distance 34.17 km</desc>
<time>2011-09-24T12:17:03.16</time>
<name>8599</name>
</trkpt>
<trkpt lat="41.797578" lon="-1.810725">
<ele>1450.5</ele>
<speed>40.1</speed>
<course>108.1</course>
<desc>Speed 40.1 km/h Distance 34.18 km</desc>
<time>2011-09-24T12:17:04.16</time>
<name>8600</name>
</trkpt>
<trkpt lat="41.797548" lon="-1.810602">
<ele>1449.0</ele>
<speed>40.0</speed>
<course>112.5</course>
<desc>Speed 40.0 km/h Distance 34.19 km</desc>
<time>2011-09-24T12:17:05.16</time>
<name>8601</name>
</trkpt>
<trkpt lat="41.797513" lon="-1.810488">
<ele>1446.5</ele>
<speed>37.3</speed>
<course>92.3</course>
<desc>Speed 37.3 km/h Distance 34.20 km</desc>
<time>2011-09-24T12:17:06.16</time>
<name>8602</name>
</trkpt>
<trkpt lat="41.797510" lon="-1.810377">
<ele>1443.5</ele>
<speed>39.4</speed>
<course>116.9</course>
<desc>Speed 39.4 km/h Distance 34.21 km</desc>
<time>2011-09-24T12:17:07.16</time>
<name>8603</name>
</trkpt>
<trkpt lat="41.797468" lon="-1.810267">
<ele>1443.5</ele>
<speed>38.6</speed>
<course>125.0</course>
<desc>Speed 38.6 km/h Distance 34.22 km</desc>
<time>2011-09-24T12:17:08.15</time>
<name>8604</name>
</trkpt>
<trkpt lat="41.797410" lon="-1.810155">
<ele>1442.5</ele>
<speed>43.5</speed>
<course>123.8</course>
<desc>Speed 43.5 km/h Distance 34.23 km</desc>
<time>2011-09-24T12:17:09.15</time>
<name>8605</name>
</trkpt>
<trkpt lat="41.797355" lon="-1.810045">
<ele>1442.5</ele>
<speed>40.9</speed>
<course>123.1</course>
<desc>Speed 40.9 km/h Distance 34.24 km</desc>
<time>2011-09-24T12:17:10.16</time>
<name>8606</name>
</trkpt>
<trkpt lat="41.797300" lon="-1.809932">
<ele>1442.5</ele>
<speed>40.8</speed>
<course>126.5</course>
<desc>Speed 40.8 km/h Distance 34.25 km</desc>
<time>2011-09-24T12:17:11.16</time>
<name>8607</name>
</trkpt>
<trkpt lat="41.797237" lon="-1.809817">
<ele>1442.0</ele>
<speed>42.9</speed>
<course>112.0</course>
<desc>Speed 42.9 km/h Distance 34.26 km</desc>
<time>2011-09-24T12:17:12.16</time>
<name>8608</name>
</trkpt>
<trkpt lat="41.797173" lon="-1.809607">
<ele>1441.0</ele>
<speed>38.6</speed>
<course>136.4</course>
<desc>Speed 38.6 km/h Distance 34.28 km</desc>
<time>2011-09-24T12:17:14.16</time>
<name>8609</name>
</trkpt>
<trkpt lat="41.797018" lon="-1.809408">
<ele>1440.5</ele>
<speed>41.9</speed>
<course>140.9</course>
<desc>Speed 41.9 km/h Distance 34.31 km</desc>
<time>2011-09-24T12:17:16.16</time>
<name>8610</name>
</trkpt>
<trkpt lat="41.796943" lon="-1.809327">
<ele>1439.0</ele>
<speed>42.1</speed>
<course>150.4</course>
<desc>Speed 42.1 km/h Distance 34.32 km</desc>
<time>2011-09-24T12:17:17.16</time>
<name>8611</name>
</trkpt>
<trkpt lat="41.796867" lon="-1.809268">
<ele>1437.5</ele>
<speed>39.3</speed>
<course>147.4</course>
<desc>Speed 39.3 km/h Distance 34.33 km</desc>
<time>2011-09-24T12:17:18.15</time>
<name>8612</name>
</trkpt>
<trkpt lat="41.796785" lon="-1.809198">
<ele>1438.0</ele>
<speed>45.2</speed>
<course>161.2</course>
<desc>Speed 45.2 km/h Distance 34.34 km</desc>
<time>2011-09-24T12:17:19.16</time>
<name>8613</name>
</trkpt>
<trkpt lat="41.796690" lon="-1.809155">
<ele>1437.5</ele>
<speed>40.7</speed>
<course>164.3</course>
<desc>Speed 40.7 km/h Distance 34.35 km</desc>
<time>2011-09-24T12:17:20.15</time>
<name>8614</name>
</trkpt>
<trkpt lat="41.796602" lon="-1.809122">
<ele>1436.0</ele>
<speed>40.1</speed>
<course>168.9</course>
<desc>Speed 40.1 km/h Distance 34.36 km</desc>
<time>2011-09-24T12:17:21.15</time>
<name>8615</name>
</trkpt>
<trkpt lat="41.796507" lon="-1.809097">
<ele>1435.0</ele>
<speed>40.6</speed>
<course>173.1</course>
<desc>Speed 40.6 km/h Distance 34.37 km</desc>
<time>2011-09-24T12:17:22.14</time>
<name>8616</name>
</trkpt>
<trkpt lat="41.796403" lon="-1.809080">
<ele>1434.0</ele>
<speed>40.6</speed>
<course>173.8</course>
<desc>Speed 40.6 km/h Distance 34.38 km</desc>
<time>2011-09-24T12:17:23.15</time>
<name>8617</name>
</trkpt>
<trkpt lat="41.796300" lon="-1.809065">
<ele>1433.5</ele>
<speed>40.6</speed>
<course>171.9</course>
<desc>Speed 40.6 km/h Distance 34.39 km</desc>
<time>2011-09-24T12:17:24.15</time>
<name>8618</name>
</trkpt>
<trkpt lat="41.796195" lon="-1.809045">
<ele>1433.0</ele>
<speed>41.1</speed>
<course>175.3</course>
<desc>Speed 41.1 km/h Distance 34.40 km</desc>
<time>2011-09-24T12:17:25.14</time>
<name>8619</name>
</trkpt>
<trkpt lat="41.796090" lon="-1.809033">
<ele>1432.0</ele>
<speed>40.7</speed>
<course>182.7</course>
<desc>Speed 40.7 km/h Distance 34.42 km</desc>
<time>2011-09-24T12:17:26.14</time>
<name>8620</name>
</trkpt>
<trkpt lat="41.795985" lon="-1.809040">
<ele>1430.5</ele>
<speed>40.2</speed>
<course>183.2</course>
<desc>Speed 40.2 km/h Distance 34.43 km</desc>
<time>2011-09-24T12:17:27.14</time>
<name>8621</name>
</trkpt>
<trkpt lat="41.795875" lon="-1.809048">
<ele>1430.0</ele>
<speed>41.5</speed>
<course>186.3</course>
<desc>Speed 41.5 km/h Distance 34.44 km</desc>
<time>2011-09-24T12:17:28.15</time>
<name>8622</name>
</trkpt>
<trkpt lat="41.795763" lon="-1.809065">
<ele>1430.0</ele>
<speed>42.4</speed>
<course>186.9</course>
<desc>Speed 42.4 km/h Distance 34.45 km</desc>
<time>2011-09-24T12:17:29.14</time>
<name>8623</name>
</trkpt>
<trkpt lat="41.795660" lon="-1.809082">
<ele>1429.0</ele>
<speed>40.6</speed>
<course>189.9</course>
<desc>Speed 40.6 km/h Distance 34.46 km</desc>
<time>2011-09-24T12:17:30.14</time>
<name>8624</name>
</trkpt>
<trkpt lat="41.795553" lon="-1.809107">
<ele>1428.5</ele>
<speed>41.7</speed>
<course>190.1</course>
<desc>Speed 41.7 km/h Distance 34.48 km</desc>
<time>2011-09-24T12:17:31.14</time>
<name>8625</name>
</trkpt>
<trkpt lat="41.795448" lon="-1.809132">
<ele>1428.5</ele>
<speed>41.2</speed>
<course>193.5</course>
<desc>Speed 41.2 km/h Distance 34.49 km</desc>
<time>2011-09-24T12:17:32.14</time>
<name>8626</name>
</trkpt>
<trkpt lat="41.795350" lon="-1.809163">
<ele>1427.0</ele>
<speed>38.8</speed>
<course>195.3</course>
<desc>Speed 38.8 km/h Distance 34.50 km</desc>
<time>2011-09-24T12:17:33.13</time>
<name>8627</name>
</trkpt>
<trkpt lat="41.795255" lon="-1.809198">
<ele>1425.0</ele>
<speed>38.2</speed>
<course>191.7</course>
<desc>Speed 38.2 km/h Distance 34.51 km</desc>
<time>2011-09-24T12:17:34.14</time>
<name>8628</name>
</trkpt>
<trkpt lat="41.795153" lon="-1.809227">
<ele>1425.0</ele>
<speed>40.6</speed>
<course>190.9</course>
<desc>Speed 40.6 km/h Distance 34.52 km</desc>
<time>2011-09-24T12:17:35.13</time>
<name>8629</name>
</trkpt>
<trkpt lat="41.795050" lon="-1.809253">
<ele>1424.5</ele>
<speed>41.0</speed>
<course>191.7</course>
<desc>Speed 41.0 km/h Distance 34.53 km</desc>
<time>2011-09-24T12:17:36.14</time>
<name>8630</name>
</trkpt>
<trkpt lat="41.794942" lon="-1.809283">
<ele>1425.5</ele>
<speed>43.1</speed>
<course>189.6</course>
<desc>Speed 43.1 km/h Distance 34.55 km</desc>
<time>2011-09-24T12:17:37.13</time>
<name>8631</name>
</trkpt>
<trkpt lat="41.794838" lon="-1.809307">
<ele>1425.5</ele>
<speed>42.0</speed>
<course>188.5</course>
<desc>Speed 42.0 km/h Distance 34.56 km</desc>
<time>2011-09-24T12:17:38.13</time>
<name>8632</name>
</trkpt>
<trkpt lat="41.794738" lon="-1.809327">
<ele>1425.0</ele>
<speed>40.2</speed>
<course>184.7</course>
<desc>Speed 40.2 km/h Distance 34.57 km</desc>
<time>2011-09-24T12:17:39.14</time>
<name>8633</name>
</trkpt>
<trkpt lat="41.794633" lon="-1.809338">
<ele>1425.0</ele>
<speed>42.0</speed>
<course>186.1</course>
<desc>Speed 42.0 km/h Distance 34.58 km</desc>
<time>2011-09-24T12:17:40.13</time>
<name>8634</name>
</trkpt>
<trkpt lat="41.794528" lon="-1.809353">
<ele>1425.5</ele>
<speed>42.5</speed>
<course>186.2</course>
<desc>Speed 42.5 km/h Distance 34.59 km</desc>
<time>2011-09-24T12:17:41.13</time>
<name>8635</name>
</trkpt>
<trkpt lat="41.794333" lon="-1.809382">
<ele>1426.0</ele>
<speed>48.7</speed>
<course>184.5</course>
<desc>Speed 48.7 km/h Distance 34.61 km</desc>
<time>2011-09-24T12:17:43.13</time>
<name>8636</name>
</trkpt>
<trkpt lat="41.794052" lon="-1.809412">
<ele>1422.5</ele>
<speed>41.6</speed>
<course>183.8</course>
<desc>Speed 41.6 km/h Distance 34.65 km</desc>
<time>2011-09-24T12:17:46.13</time>
<name>8637</name>
</trkpt>
<trkpt lat="41.793958" lon="-1.809420">
<ele>1422.0</ele>
<speed>37.9</speed>
<course>183.7</course>
<desc>Speed 37.9 km/h Distance 34.66 km</desc>
<time>2011-09-24T12:17:47.13</time>
<name>8638</name>
</trkpt>
<trkpt lat="41.793862" lon="-1.809428">
<ele>1422.5</ele>
<speed>39.1</speed>
<course>187.6</course>
<desc>Speed 39.1 km/h Distance 34.67 km</desc>
<time>2011-09-24T12:17:48.12</time>
<name>8639</name>
</trkpt>
<trkpt lat="41.793768" lon="-1.809445">
<ele>1422.0</ele>
<speed>38.1</speed>
<course>186.1</course>
<desc>Speed 38.1 km/h Distance 34.68 km</desc>
<time>2011-09-24T12:17:49.12</time>
<name>8640</name>
</trkpt>
<trkpt lat="41.793675" lon="-1.809458">
<ele>1421.0</ele>
<speed>37.1</speed>
<course>186.1</course>
<desc>Speed 37.1 km/h Distance 34.69 km</desc>
<time>2011-09-24T12:17:50.13</time>
<name>8641</name>
</trkpt>
<trkpt lat="41.793582" lon="-1.809472">
<ele>1420.5</ele>
<speed>37.6</speed>
<course>188.6</course>
<desc>Speed 37.6 km/h Distance 34.70 km</desc>
<time>2011-09-24T12:17:51.11</time>
<name>8642</name>
</trkpt>
<trkpt lat="41.793492" lon="-1.809490">
<ele>1420.0</ele>
<speed>36.5</speed>
<course>186.9</course>
<desc>Speed 36.5 km/h Distance 34.71 km</desc>
<time>2011-09-24T12:17:52.12</time>
<name>8643</name>
</trkpt>
<trkpt lat="41.793400" lon="-1.809505">
<ele>1419.0</ele>
<speed>36.0</speed>
<course>176.3</course>
<desc>Speed 36.0 km/h Distance 34.72 km</desc>
<time>2011-09-24T12:17:53.11</time>
<name>8644</name>
</trkpt>
<trkpt lat="41.793305" lon="-1.809497">
<ele>1419.0</ele>
<speed>37.9</speed>
<course>170.8</course>
<desc>Speed 37.9 km/h Distance 34.73 km</desc>
<time>2011-09-24T12:17:54.11</time>
<name>8645</name>
</trkpt>
<trkpt lat="41.793213" lon="-1.809477">
<ele>1419.0</ele>
<speed>36.8</speed>
<course>174.6</course>
<desc>Speed 36.8 km/h Distance 34.74 km</desc>
<time>2011-09-24T12:17:55.12</time>
<name>8646</name>
</trkpt>
<trkpt lat="41.793055" lon="-1.809457">
<ele>1415.0</ele>
<speed>4.2</speed>
<course>178.8</course>
<desc>Speed 4.2 km/h Distance 34.76 km</desc>
<time>2011-09-24T12:18:00.11</time>
<name>8647</name>
</trkpt>
<trkpt lat="41.793042" lon="-1.809457">
<ele>1414.0</ele>
<speed>3.5</speed>
<course>155.5</course>
<desc>Speed 3.5 km/h Distance 34.76 km</desc>
<time>2011-09-24T12:18:02.11</time>
<name>8648</name>
</trkpt>
<trkpt lat="41.793033" lon="-1.809452">
<ele>1413.5</ele>
<speed>3.3</speed>
<course>148.9</course>
<desc>Speed 3.3 km/h Distance 34.76 km</desc>
<time>2011-09-24T12:18:03.10</time>
<name>8649</name>
</trkpt>
<trkpt lat="41.793025" lon="-1.809445">
<ele>1413.5</ele>
<speed>4.2</speed>
<course>164.1</course>
<desc>Speed 4.2 km/h Distance 34.76 km</desc>
<time>2011-09-24T12:18:04.11</time>
<name>8650</name>
</trkpt>
<trkpt lat="41.793017" lon="-1.809442">
<ele>1412.5</ele>
<speed>4.4</speed>
<course>155.5</course>
<desc>Speed 4.4 km/h Distance 34.76 km</desc>
<time>2011-09-24T12:18:05.10</time>
<name>8651</name>
</trkpt>
<trkpt lat="41.793008" lon="-1.809437">
<ele>1412.0</ele>
<speed>3.4</speed>
<course>147.2</course>
<desc>Speed 3.4 km/h Distance 34.76 km</desc>
<time>2011-09-24T12:18:06.13</time>
<name>8652</name>
</trkpt>
<trkpt lat="41.792997" lon="-1.809427">
<ele>1411.5</ele>
<speed>5.2</speed>
<course>123.8</course>
<desc>Speed 5.2 km/h Distance 34.76 km</desc>
<time>2011-09-24T12:18:07.10</time>
<name>8653</name>
</trkpt>
<trkpt lat="41.792988" lon="-1.809410">
<ele>1411.5</ele>
<speed>5.9</speed>
<course>90.0</course>
<desc>Speed 5.9 km/h Distance 34.77 km</desc>
<time>2011-09-24T12:18:08.11</time>
<name>8654</name>
</trkpt>
<trkpt lat="41.792988" lon="-1.809385">
<ele>1411.0</ele>
<speed>7.5</speed>
<course>56.1</course>
<desc>Speed 7.5 km/h Distance 34.77 km</desc>
<time>2011-09-24T12:18:09.10</time>
<name>8655</name>
</trkpt>
<trkpt lat="41.793002" lon="-1.809358">
<ele>1411.5</ele>
<speed>9.7</speed>
<course>0.0</course>
<desc>Speed 9.7 km/h Distance 34.77 km</desc>
<time>2011-09-24T12:18:10.10</time>
<name>8656</name>
</trkpt>
<trkpt lat="41.793027" lon="-1.809358">
<ele>1411.0</ele>
<speed>10.3</speed>
<course>321.6</course>
<desc>Speed 10.3 km/h Distance 34.77 km</desc>
<time>2011-09-24T12:18:11.10</time>
<name>8657</name>
</trkpt>
<trkpt lat="41.793053" lon="-1.809387">
<ele>1410.5</ele>
<speed>14.0</speed>
<course>311.1</course>
<desc>Speed 14.0 km/h Distance 34.78 km</desc>
<time>2011-09-24T12:18:12.11</time>
<name>8658</name>
</trkpt>
<trkpt lat="41.793075" lon="-1.809420">
<ele>1410.5</ele>
<speed>13.9</speed>
<course>312.6</course>
<desc>Speed 13.9 km/h Distance 34.78 km</desc>
<time>2011-09-24T12:18:13.11</time>
<name>8659</name>
</trkpt>
<trkpt lat="41.793097" lon="-1.809452">
<ele>1410.0</ele>
<speed>13.8</speed>
<course>323.3</course>
<desc>Speed 13.8 km/h Distance 34.78 km</desc>
<time>2011-09-24T12:18:14.10</time>
<name>8660</name>
</trkpt>
<trkpt lat="41.793120" lon="-1.809475">
<ele>1410.0</ele>
<speed>12.4</speed>
<course>331.6</course>
<desc>Speed 12.4 km/h Distance 34.79 km</desc>
<time>2011-09-24T12:18:15.10</time>
<name>8661</name>
</trkpt>
<trkpt lat="41.793138" lon="-1.809488">
<ele>1410.0</ele>
<speed>8.4</speed>
<course>349.7</course>
<desc>Speed 8.4 km/h Distance 34.79 km</desc>
<time>2011-09-24T12:18:16.10</time>
<name>8662</name>
</trkpt>
<trkpt lat="41.793152" lon="-1.809492">
<ele>1410.0</ele>
<speed>5.8</speed>
<course>348.8</course>
<desc>Speed 5.8 km/h Distance 34.79 km</desc>
<time>2011-09-24T12:18:17.10</time>
<name>8663</name>
</trkpt>
<trkpt lat="41.793163" lon="-1.809495">
<ele>1410.5</ele>
<speed>5.3</speed>
<course>350.7</course>
<desc>Speed 5.3 km/h Distance 34.79 km</desc>
<time>2011-09-24T12:18:18.10</time>
<name>8664</name>
</trkpt>
<trkpt lat="41.793178" lon="-1.809498">
<ele>1410.5</ele>
<speed>6.2</speed>
<course>341.6</course>
<desc>Speed 6.2 km/h Distance 34.79 km</desc>
<time>2011-09-24T12:18:19.10</time>
<name>8665</name>
</trkpt>
<trkpt lat="41.793193" lon="-1.809505">
<ele>1411.0</ele>
<speed>6.4</speed>
<course>347.1</course>
<desc>Speed 6.4 km/h Distance 34.80 km</desc>
<time>2011-09-24T12:18:20.10</time>
<name>8666</name>
</trkpt>
<trkpt lat="41.793215" lon="-1.809512">
<ele>1410.5</ele>
<speed>8.5</speed>
<course>355.9</course>
<desc>Speed 8.5 km/h Distance 34.80 km</desc>
<time>2011-09-24T12:18:21.10</time>
<name>8667</name>
</trkpt>
<trkpt lat="41.793232" lon="-1.809513">
<ele>1410.5</ele>
<speed>6.3</speed>
<course>8.1</course>
<desc>Speed 6.3 km/h Distance 34.80 km</desc>
<time>2011-09-24T12:18:22.09</time>
<name>8668</name>
</trkpt>
<trkpt lat="41.793237" lon="-1.809513">
<ele>1410.5</ele>
<speed>2.2</speed>
<course>180.0</course>
<desc>Speed 2.2 km/h Distance 34.80 km</desc>
<time>2011-09-24T12:18:23.09</time>
<name>8669</name>
</trkpt>
<trkpt lat="41.793230" lon="-1.809513">
<ele>1410.0</ele>
<speed>1.2</speed>
<course>69.8</course>
<desc>Speed 1.2 km/h Distance 34.80 km</desc>
<time>2011-09-24T12:18:24.09</time>
<name>8670</name>
</trkpt>
<trkpt lat="41.793235" lon="-1.809495">
<ele>1410.0</ele>
<speed>6.3</speed>
<course>82.4</course>
<desc>Speed 6.3 km/h Distance 34.80 km</desc>
<time>2011-09-24T12:18:25.09</time>
<name>8671</name>
</trkpt>
<trkpt lat="41.793238" lon="-1.809462">
<ele>1410.0</ele>
<speed>10.0</speed>
<course>85.5</course>
<desc>Speed 10.0 km/h Distance 34.81 km</desc>
<time>2011-09-24T12:18:27.09</time>
<name>8672</name>
</trkpt>
<trkpt lat="41.793240" lon="-1.809433">
<ele>1410.0</ele>
<speed>8.7</speed>
<course>81.5</course>
<desc>Speed 8.7 km/h Distance 34.81 km</desc>
<time>2011-09-24T12:18:28.08</time>
<name>8673</name>
</trkpt>
<trkpt lat="41.793242" lon="-1.809418">
<ele>1409.5</ele>
<speed>4.4</speed>
<course>90.0</course>
<desc>Speed 4.4 km/h Distance 34.81 km</desc>
<time>2011-09-24T12:18:29.08</time>
<name>8674</name>
</trkpt>
<trkpt lat="41.793242" lon="-1.809403">
<ele>1409.0</ele>
<speed>4.5</speed>
<course>123.8</course>
<desc>Speed 4.5 km/h Distance 34.81 km</desc>
<time>2011-09-24T12:18:30.09</time>
<name>8675</name>
</trkpt>
<trkpt lat="41.793237" lon="-1.809393">
<ele>1409.0</ele>
<speed>3.5</speed>
<course>110.9</course>
<desc>Speed 3.5 km/h Distance 34.81 km</desc>
<time>2011-09-24T12:18:31.08</time>
<name>8676</name>
</trkpt>
<trkpt lat="41.793233" lon="-1.809382">
<ele>1409.5</ele>
<speed>3.4</speed>
<course>104.9</course>
<desc>Speed 3.4 km/h Distance 34.81 km</desc>
<time>2011-09-24T12:18:32.08</time>
<name>8677</name>
</trkpt>
<trkpt lat="41.793232" lon="-1.809373">
<ele>1409.5</ele>
<speed>2.4</speed>
<course>105.1</course>
<desc>Speed 2.4 km/h Distance 34.81 km</desc>
<time>2011-09-24T12:18:33.08</time>
<name>8678</name>
</trkpt>
<trkpt lat="41.793230" lon="-1.809365">
<ele>1410.0</ele>
<speed>3.0</speed>
<course>12.6</course>
<desc>Speed 3.0 km/h Distance 34.81 km</desc>
<time>2011-09-24T12:18:34.08</time>
<name>8679</name>
</trkpt>
<trkpt lat="41.793233" lon="-1.809363">
<ele>1410.0</ele>
<speed>1.5</speed>
<course>90.0</course>
<desc>Speed 1.5 km/h Distance 34.81 km</desc>
<time>2011-09-24T12:18:35.08</time>
<name>8680</name>
</trkpt>
<trkpt lat="41.793233" lon="-1.809362">
<ele>1410.0</ele>
<speed>1.1</speed>
<course>32.4</course>
<desc>Speed 1.1 km/h Distance 34.81 km</desc>
<time>2011-09-24T12:18:36.08</time>
<name>8681</name>
</trkpt>
<trkpt lat="41.793245" lon="-1.809352">
<ele>1410.5</ele>
<speed>5.4</speed>
<course>30.1</course>
<desc>Speed 5.4 km/h Distance 34.82 km</desc>
<time>2011-09-24T12:18:37.08</time>
<name>8682</name>
</trkpt>
<trkpt lat="41.793260" lon="-1.809340">
<ele>1410.5</ele>
<speed>7.4</speed>
<course>29.2</course>
<desc>Speed 7.4 km/h Distance 34.82 km</desc>
<time>2011-09-24T12:18:38.08</time>
<name>8683</name>
</trkpt>
<trkpt lat="41.793280" lon="-1.809325">
<ele>1410.5</ele>
<speed>9.3</speed>
<course>27.7</course>
<desc>Speed 9.3 km/h Distance 34.82 km</desc>
<time>2011-09-24T12:18:39.09</time>
<name>8684</name>
</trkpt>
<trkpt lat="41.793308" lon="-1.809305">
<ele>1411.0</ele>
<speed>12.7</speed>
<course>20.2</course>
<desc>Speed 12.7 km/h Distance 34.82 km</desc>
<time>2011-09-24T12:18:40.07</time>
<name>8685</name>
</trkpt>
<trkpt lat="41.793413" lon="-1.809253">
<ele>1412.0</ele>
<speed>21.3</speed>
<course>13.4</course>
<desc>Speed 21.3 km/h Distance 34.84 km</desc>
<time>2011-09-24T12:18:42.08</time>
<name>8686</name>
</trkpt>
<trkpt lat="41.793538" lon="-1.809213">
<ele>1411.5</ele>
<speed>17.4</speed>
<course>10.7</course>
<desc>Speed 17.4 km/h Distance 34.85 km</desc>
<time>2011-09-24T12:18:44.08</time>
<name>8687</name>
</trkpt>
<trkpt lat="41.793683" lon="-1.809177">
<ele>1411.5</ele>
<speed>30.7</speed>
<course>11.3</course>
<desc>Speed 30.7 km/h Distance 34.87 km</desc>
<time>2011-09-24T12:18:46.07</time>
<name>8688</name>
</trkpt>
<trkpt lat="41.793827" lon="-1.809138">
<ele>1412.5</ele>
<speed>33.8</speed>
<course>14.3</course>
<desc>Speed 33.8 km/h Distance 34.88 km</desc>
<time>2011-09-24T12:18:48.08</time>
<name>8689</name>
</trkpt>
<trkpt lat="41.793895" lon="-1.809115">
<ele>1414.0</ele>
<speed>28.0</speed>
<course>13.5</course>
<desc>Speed 28.0 km/h Distance 34.89 km</desc>
<time>2011-09-24T12:18:49.08</time>
<name>8690</name>
</trkpt>
<trkpt lat="41.794077" lon="-1.809057">
<ele>1414.5</ele>
<speed>38.3</speed>
<course>18.5</course>
<desc>Speed 38.3 km/h Distance 34.91 km</desc>
<time>2011-09-24T12:18:51.14</time>
<name>8691</name>
</trkpt>
<trkpt lat="41.794333" lon="-1.808942">
<ele>1415.0</ele>
<speed>38.0</speed>
<course>24.8</course>
<desc>Speed 38.0 km/h Distance 34.94 km</desc>
<time>2011-09-24T12:18:54.07</time>
<name>8692</name>
</trkpt>
<trkpt lat="41.794417" lon="-1.808890">
<ele>1415.0</ele>
<speed>36.0</speed>
<course>25.7</course>
<desc>Speed 36.0 km/h Distance 34.95 km</desc>
<time>2011-09-24T12:18:55.07</time>
<name>8693</name>
</trkpt>
<trkpt lat="41.794497" lon="-1.808838">
<ele>1415.0</ele>
<speed>37.2</speed>
<course>27.6</course>
<desc>Speed 37.2 km/h Distance 34.96 km</desc>
<time>2011-09-24T12:18:56.07</time>
<name>8694</name>
</trkpt>
<trkpt lat="41.794580" lon="-1.808780">
<ele>1415.5</ele>
<speed>36.8</speed>
<course>27.9</course>
<desc>Speed 36.8 km/h Distance 34.97 km</desc>
<time>2011-09-24T12:18:57.06</time>
<name>8695</name>
</trkpt>
<trkpt lat="41.794672" lon="-1.808715">
<ele>1415.5</ele>
<speed>39.2</speed>
<course>24.7</course>
<desc>Speed 39.2 km/h Distance 34.98 km</desc>
<time>2011-09-24T12:18:58.06</time>
<name>8696</name>
</trkpt>
<trkpt lat="41.794772" lon="-1.808653">
<ele>1415.5</ele>
<speed>43.6</speed>
<course>22.8</course>
<desc>Speed 43.6 km/h Distance 35.00 km</desc>
<time>2011-09-24T12:18:59.07</time>
<name>8697</name>
</trkpt>
<trkpt lat="41.794887" lon="-1.808588">
<ele>1413.0</ele>
<speed>46.9</speed>
<course>23.4</course>
<desc>Speed 46.9 km/h Distance 35.01 km</desc>
<time>2011-09-24T12:19:00.07</time>
<name>8698</name>
</trkpt>
<trkpt lat="41.795157" lon="-1.808432">
<ele>1411.0</ele>
<speed>52.2</speed>
<course>26.4</course>
<desc>Speed 52.2 km/h Distance 35.04 km</desc>
<time>2011-09-24T12:19:02.08</time>
<name>8699</name>
</trkpt>
<trkpt lat="41.795287" lon="-1.808345">
<ele>1410.5</ele>
<speed>53.6</speed>
<course>30.8</course>
<desc>Speed 53.6 km/h Distance 35.06 km</desc>
<time>2011-09-24T12:19:03.07</time>
<name>8700</name>
</trkpt>
<trkpt lat="41.795395" lon="-1.808258">
<ele>1410.5</ele>
<speed>49.5</speed>
<course>32.9</course>
<desc>Speed 49.5 km/h Distance 35.07 km</desc>
<time>2011-09-24T12:19:04.07</time>
<name>8701</name>
</trkpt>
<trkpt lat="41.795495" lon="-1.808172">
<ele>1409.5</ele>
<speed>46.2</speed>
<course>27.4</course>
<desc>Speed 46.2 km/h Distance 35.09 km</desc>
<time>2011-09-24T12:19:05.06</time>
<name>8702</name>
</trkpt>
<trkpt lat="41.795933" lon="-1.807867">
<ele>1405.0</ele>
<speed>59.8</speed>
<course>31.7</course>
<desc>Speed 59.8 km/h Distance 35.14 km</desc>
<time>2011-09-24T12:19:08.06</time>
<name>8703</name>
</trkpt>
<trkpt lat="41.796070" lon="-1.807753">
<ele>1404.0</ele>
<speed>56.4</speed>
<course>30.1</course>
<desc>Speed 56.4 km/h Distance 35.16 km</desc>
<time>2011-09-24T12:19:09.06</time>
<name>8704</name>
</trkpt>
<trkpt lat="41.796197" lon="-1.807655">
<ele>1403.5</ele>
<speed>54.7</speed>
<course>26.1</course>
<desc>Speed 54.7 km/h Distance 35.18 km</desc>
<time>2011-09-24T12:19:10.06</time>
<name>8705</name>
</trkpt>
<trkpt lat="41.796318" lon="-1.807575">
<ele>1401.5</ele>
<speed>54.6</speed>
<course>17.8</course>
<desc>Speed 54.6 km/h Distance 35.19 km</desc>
<time>2011-09-24T12:19:11.06</time>
<name>8706</name>
</trkpt>
<trkpt lat="41.796438" lon="-1.807523">
<ele>1401.5</ele>
<speed>50.3</speed>
<course>19.4</course>
<desc>Speed 50.3 km/h Distance 35.21 km</desc>
<time>2011-09-24T12:19:12.06</time>
<name>8707</name>
</trkpt>
<trkpt lat="41.796555" lon="-1.807468">
<ele>1402.5</ele>
<speed>48.8</speed>
<course>14.0</course>
<desc>Speed 48.8 km/h Distance 35.22 km</desc>
<time>2011-09-24T12:19:13.06</time>
<name>8708</name>
</trkpt>
<trkpt lat="41.796685" lon="-1.807425">
<ele>1401.5</ele>
<speed>48.7</speed>
<course>13.0</course>
<desc>Speed 48.7 km/h Distance 35.23 km</desc>
<time>2011-09-24T12:19:14.06</time>
<name>8709</name>
</trkpt>
<trkpt lat="41.796803" lon="-1.807388">
<ele>1400.5</ele>
<speed>46.9</speed>
<course>359.4</course>
<desc>Speed 46.9 km/h Distance 35.25 km</desc>
<time>2011-09-24T12:19:15.06</time>
<name>8710</name>
</trkpt>
<trkpt lat="41.796922" lon="-1.807390">
<ele>1399.0</ele>
<speed>45.3</speed>
<course>355.0</course>
<desc>Speed 45.3 km/h Distance 35.26 km</desc>
<time>2011-09-24T12:19:16.06</time>
<name>8711</name>
</trkpt>
<trkpt lat="41.797037" lon="-1.807403">
<ele>1398.0</ele>
<speed>45.9</speed>
<course>331.5</course>
<desc>Speed 45.9 km/h Distance 35.27 km</desc>
<time>2011-09-24T12:19:17.05</time>
<name>8712</name>
</trkpt>
<trkpt lat="41.797135" lon="-1.807475">
<ele>1395.0</ele>
<speed>43.2</speed>
<course>337.5</course>
<desc>Speed 43.2 km/h Distance 35.29 km</desc>
<time>2011-09-24T12:19:18.05</time>
<name>8713</name>
</trkpt>
<trkpt lat="41.797240" lon="-1.807533">
<ele>1394.0</ele>
<speed>44.6</speed>
<course>333.1</course>
<desc>Speed 44.6 km/h Distance 35.30 km</desc>
<time>2011-09-24T12:19:19.05</time>
<name>8714</name>
</trkpt>
<trkpt lat="41.797423" lon="-1.807658">
<ele>1392.0</ele>
<speed>47.3</speed>
<course>332.7</course>
<desc>Speed 47.3 km/h Distance 35.32 km</desc>
<time>2011-09-24T12:19:21.05</time>
<name>8715</name>
</trkpt>
<trkpt lat="41.797527" lon="-1.807730">
<ele>1391.0</ele>
<speed>45.8</speed>
<course>328.1</course>
<desc>Speed 45.8 km/h Distance 35.33 km</desc>
<time>2011-09-24T12:19:22.05</time>
<name>8716</name>
</trkpt>
<trkpt lat="41.797628" lon="-1.807815">
<ele>1390.0</ele>
<speed>46.6</speed>
<course>321.8</course>
<desc>Speed 46.6 km/h Distance 35.35 km</desc>
<time>2011-09-24T12:19:23.04</time>
<name>8717</name>
</trkpt>
<trkpt lat="41.797717" lon="-1.807908">
<ele>1391.0</ele>
<speed>43.5</speed>
<course>321.5</course>
<desc>Speed 43.5 km/h Distance 35.36 km</desc>
<time>2011-09-24T12:19:24.05</time>
<name>8718</name>
</trkpt>
<trkpt lat="41.797815" lon="-1.808013">
<ele>1389.0</ele>
<speed>48.1</speed>
<course>311.6</course>
<desc>Speed 48.1 km/h Distance 35.37 km</desc>
<time>2011-09-24T12:19:25.04</time>
<name>8719</name>
</trkpt>
<trkpt lat="41.797890" lon="-1.808127">
<ele>1387.0</ele>
<speed>43.8</speed>
<course>319.2</course>
<desc>Speed 43.8 km/h Distance 35.39 km</desc>
<time>2011-09-24T12:19:26.04</time>
<name>8720</name>
</trkpt>
<trkpt lat="41.797985" lon="-1.808237">
<ele>1384.5</ele>
<speed>49.9</speed>
<course>308.3</course>
<desc>Speed 49.9 km/h Distance 35.40 km</desc>
<time>2011-09-24T12:19:27.05</time>
<name>8721</name>
</trkpt>
<trkpt lat="41.798118" lon="-1.808463">
<ele>1382.5</ele>
<speed>40.9</speed>
<course>317.1</course>
<desc>Speed 40.9 km/h Distance 35.43 km</desc>
<time>2011-09-24T12:19:29.04</time>
<name>8722</name>
</trkpt>
<trkpt lat="41.798302" lon="-1.808692">
<ele>1379.5</ele>
<speed>43.8</speed>
<course>311.6</course>
<desc>Speed 43.8 km/h Distance 35.45 km</desc>
<time>2011-09-24T12:19:31.07</time>
<name>8723</name>
</trkpt>
<trkpt lat="41.798377" lon="-1.808805">
<ele>1379.0</ele>
<speed>44.0</speed>
<course>316.1</course>
<desc>Speed 44.0 km/h Distance 35.47 km</desc>
<time>2011-09-24T12:19:32.04</time>
<name>8724</name>
</trkpt>
<trkpt lat="41.798457" lon="-1.808908">
<ele>1377.5</ele>
<speed>41.6</speed>
<course>312.3</course>
<desc>Speed 41.6 km/h Distance 35.48 km</desc>
<time>2011-09-24T12:19:33.04</time>
<name>8725</name>
</trkpt>
<trkpt lat="41.798520" lon="-1.809002">
<ele>1377.0</ele>
<speed>36.6</speed>
<course>328.0</course>
<desc>Speed 36.6 km/h Distance 35.49 km</desc>
<time>2011-09-24T12:19:34.04</time>
<name>8726</name>
</trkpt>
<trkpt lat="41.798717" lon="-1.809167">
<ele>1377.0</ele>
<speed>44.7</speed>
<course>331.7</course>
<desc>Speed 44.7 km/h Distance 35.51 km</desc>
<time>2011-09-24T12:19:36.04</time>
<name>8727</name>
</trkpt>
<trkpt lat="41.798975" lon="-1.809353">
<ele>1371.5</ele>
<speed>52.9</speed>
<course>322.4</course>
<desc>Speed 52.9 km/h Distance 35.55 km</desc>
<time>2011-09-24T12:19:38.04</time>
<name>8728</name>
</trkpt>
<trkpt lat="41.799078" lon="-1.809460">
<ele>1370.0</ele>
<speed>51.6</speed>
<course>316.4</course>
<desc>Speed 51.6 km/h Distance 35.56 km</desc>
<time>2011-09-24T12:19:39.04</time>
<name>8729</name>
</trkpt>
<trkpt lat="41.799168" lon="-1.809575">
<ele>1368.0</ele>
<speed>48.8</speed>
<course>309.2</course>
<desc>Speed 48.8 km/h Distance 35.58 km</desc>
<time>2011-09-24T12:19:40.03</time>
<name>8730</name>
</trkpt>
<trkpt lat="41.799238" lon="-1.809690">
<ele>1367.5</ele>
<speed>43.1</speed>
<course>306.1</course>
<desc>Speed 43.1 km/h Distance 35.59 km</desc>
<time>2011-09-24T12:19:41.03</time>
<name>8731</name>
</trkpt>
<trkpt lat="41.799302" lon="-1.809807">
<ele>1367.5</ele>
<speed>44.8</speed>
<course>310.3</course>
<desc>Speed 44.8 km/h Distance 35.60 km</desc>
<time>2011-09-24T12:19:42.03</time>
<name>8732</name>
</trkpt>
<trkpt lat="41.799373" lon="-1.809920">
<ele>1367.0</ele>
<speed>45.7</speed>
<course>313.0</course>
<desc>Speed 45.7 km/h Distance 35.61 km</desc>
<time>2011-09-24T12:19:43.03</time>
<name>8733</name>
</trkpt>
<trkpt lat="41.799453" lon="-1.810035">
<ele>1367.0</ele>
<speed>46.8</speed>
<course>310.1</course>
<desc>Speed 46.8 km/h Distance 35.62 km</desc>
<time>2011-09-24T12:19:44.03</time>
<name>8734</name>
</trkpt>
<trkpt lat="41.799532" lon="-1.810160">
<ele>1365.0</ele>
<speed>48.2</speed>
<course>308.9</course>
<desc>Speed 48.2 km/h Distance 35.64 km</desc>
<time>2011-09-24T12:19:45.04</time>
<name>8735</name>
</trkpt>
<trkpt lat="41.799610" lon="-1.810290">
<ele>1364.0</ele>
<speed>50.2</speed>
<course>296.1</course>
<desc>Speed 50.2 km/h Distance 35.65 km</desc>
<time>2011-09-24T12:19:46.04</time>
<name>8736</name>
</trkpt>
<trkpt lat="41.799660" lon="-1.810427">
<ele>1364.0</ele>
<speed>45.8</speed>
<course>301.3</course>
<desc>Speed 45.8 km/h Distance 35.66 km</desc>
<time>2011-09-24T12:19:47.03</time>
<name>8737</name>
</trkpt>
<trkpt lat="41.799723" lon="-1.810567">
<ele>1363.5</ele>
<speed>47.2</speed>
<course>291.1</course>
<desc>Speed 47.2 km/h Distance 35.68 km</desc>
<time>2011-09-24T12:19:48.03</time>
<name>8738</name>
</trkpt>
<trkpt lat="41.799765" lon="-1.810712">
<ele>1363.0</ele>
<speed>46.0</speed>
<course>297.9</course>
<desc>Speed 46.0 km/h Distance 35.69 km</desc>
<time>2011-09-24T12:19:49.03</time>
<name>8739</name>
</trkpt>
<trkpt lat="41.799822" lon="-1.810855">
<ele>1363.0</ele>
<speed>49.0</speed>
<course>295.9</course>
<desc>Speed 49.0 km/h Distance 35.70 km</desc>
<time>2011-09-24T12:19:50.03</time>
<name>8740</name>
</trkpt>
<trkpt lat="41.799878" lon="-1.811012">
<ele>1360.0</ele>
<speed>48.9</speed>
<course>279.9</course>
<desc>Speed 48.9 km/h Distance 35.72 km</desc>
<time>2011-09-24T12:19:51.02</time>
<name>8741</name>
</trkpt>
<trkpt lat="41.799898" lon="-1.811165">
<ele>1360.5</ele>
<speed>46.7</speed>
<course>279.8</course>
<desc>Speed 46.7 km/h Distance 35.73 km</desc>
<time>2011-09-24T12:19:52.03</time>
<name>8742</name>
</trkpt>
<trkpt lat="41.799918" lon="-1.811320">
<ele>1360.0</ele>
<speed>46.4</speed>
<course>260.1</course>
<desc>Speed 46.4 km/h Distance 35.75 km</desc>
<time>2011-09-24T12:19:53.03</time>
<name>8743</name>
</trkpt>
<trkpt lat="41.799898" lon="-1.811473">
<ele>1359.5</ele>
<speed>47.6</speed>
<course>261.7</course>
<desc>Speed 47.6 km/h Distance 35.76 km</desc>
<time>2011-09-24T12:19:54.03</time>
<name>8744</name>
</trkpt>
<trkpt lat="41.799882" lon="-1.811627">
<ele>1357.0</ele>
<speed>47.1</speed>
<course>268.3</course>
<desc>Speed 47.1 km/h Distance 35.77 km</desc>
<time>2011-09-24T12:19:55.03</time>
<name>8745</name>
</trkpt>
<trkpt lat="41.799878" lon="-1.811777">
<ele>1356.0</ele>
<speed>45.4</speed>
<course>259.7</course>
<desc>Speed 45.4 km/h Distance 35.78 km</desc>
<time>2011-09-24T12:19:56.02</time>
<name>8746</name>
</trkpt>
<trkpt lat="41.799858" lon="-1.811925">
<ele>1354.5</ele>
<speed>46.9</speed>
<course>254.8</course>
<desc>Speed 46.9 km/h Distance 35.80 km</desc>
<time>2011-09-24T12:19:57.02</time>
<name>8747</name>
</trkpt>
<trkpt lat="41.799828" lon="-1.812073">
<ele>1353.0</ele>
<speed>47.4</speed>
<course>252.3</course>
<desc>Speed 47.4 km/h Distance 35.81 km</desc>
<time>2011-09-24T12:19:58.02</time>
<name>8748</name>
</trkpt>
<trkpt lat="41.799793" lon="-1.812220">
<ele>1352.5</ele>
<speed>46.6</speed>
<course>225.4</course>
<desc>Speed 46.6 km/h Distance 35.82 km</desc>
<time>2011-09-24T12:19:59.02</time>
<name>8749</name>
</trkpt>
<trkpt lat="41.799590" lon="-1.812497">
<ele>1352.0</ele>
<speed>46.5</speed>
<course>246.7</course>
<desc>Speed 46.5 km/h Distance 35.85 km</desc>
<time>2011-09-24T12:20:01.02</time>
<name>8750</name>
</trkpt>
<trkpt lat="41.799547" lon="-1.812632">
<ele>1351.5</ele>
<speed>46.3</speed>
<course>226.2</course>
<desc>Speed 46.3 km/h Distance 35.87 km</desc>
<time>2011-09-24T12:20:02.03</time>
<name>8751</name>
</trkpt>
<trkpt lat="41.799353" lon="-1.812902">
<ele>1350.5</ele>
<speed>51.5</speed>
<course>243.7</course>
<desc>Speed 51.5 km/h Distance 35.90 km</desc>
<time>2011-09-24T12:20:04.01</time>
<name>8752</name>
</trkpt>
<trkpt lat="41.799300" lon="-1.813047">
<ele>1350.0</ele>
<speed>50.5</speed>
<course>251.5</course>
<desc>Speed 50.5 km/h Distance 35.91 km</desc>
<time>2011-09-24T12:20:05.01</time>
<name>8753</name>
</trkpt>
<trkpt lat="41.799263" lon="-1.813193">
<ele>1348.0</ele>
<speed>47.5</speed>
<course>246.9</course>
<desc>Speed 47.5 km/h Distance 35.92 km</desc>
<time>2011-09-24T12:20:06.02</time>
<name>8754</name>
</trkpt>
<trkpt lat="41.799215" lon="-1.813345">
<ele>1347.5</ele>
<speed>50.0</speed>
<course>254.8</course>
<desc>Speed 50.0 km/h Distance 35.94 km</desc>
<time>2011-09-24T12:20:07.02</time>
<name>8755</name>
</trkpt>
<trkpt lat="41.799183" lon="-1.813502">
<ele>1347.5</ele>
<speed>49.0</speed>
<course>260.4</course>
<desc>Speed 49.0 km/h Distance 35.95 km</desc>
<time>2011-09-24T12:20:08.02</time>
<name>8756</name>
</trkpt>
<trkpt lat="41.799163" lon="-1.813660">
<ele>1347.5</ele>
<speed>47.9</speed>
<course>291.0</course>
<desc>Speed 47.9 km/h Distance 35.96 km</desc>
<time>2011-09-24T12:20:09.01</time>
<name>8757</name>
</trkpt>
<trkpt lat="41.799207" lon="-1.813812">
<ele>1347.0</ele>
<speed>45.9</speed>
<course>290.9</course>
<desc>Speed 45.9 km/h Distance 35.98 km</desc>
<time>2011-09-24T12:20:10.01</time>
<name>8758</name>
</trkpt>
<trkpt lat="41.799248" lon="-1.813958">
<ele>1346.5</ele>
<speed>45.6</speed>
<course>303.5</course>
<desc>Speed 45.6 km/h Distance 35.99 km</desc>
<time>2011-09-24T12:20:11.02</time>
<name>8759</name>
</trkpt>
<trkpt lat="41.799315" lon="-1.814093">
<ele>1347.0</ele>
<speed>43.8</speed>
<course>309.4</course>
<desc>Speed 43.8 km/h Distance 36.00 km</desc>
<time>2011-09-24T12:20:12.02</time>
<name>8760</name>
</trkpt>
<trkpt lat="41.799433" lon="-1.814287">
<ele>1347.0</ele>
<speed>38.4</speed>
<course>314.0</course>
<desc>Speed 38.4 km/h Distance 36.02 km</desc>
<time>2011-09-24T12:20:14.01</time>
<name>8761</name>
</trkpt>
<trkpt lat="41.799502" lon="-1.814382">
<ele>1346.0</ele>
<speed>38.0</speed>
<course>319.2</course>
<desc>Speed 38.0 km/h Distance 36.04 km</desc>
<time>2011-09-24T12:20:15.01</time>
<name>8762</name>
</trkpt>
<trkpt lat="41.799587" lon="-1.814480">
<ele>1344.5</ele>
<speed>43.8</speed>
<course>320.4</course>
<desc>Speed 43.8 km/h Distance 36.05 km</desc>
<time>2011-09-24T12:20:16.01</time>
<name>8763</name>
</trkpt>
<trkpt lat="41.799678" lon="-1.814582">
<ele>1343.0</ele>
<speed>44.7</speed>
<course>318.5</course>
<desc>Speed 44.7 km/h Distance 36.06 km</desc>
<time>2011-09-24T12:20:17.00</time>
<name>8764</name>
</trkpt>
<trkpt lat="41.799758" lon="-1.814677">
<ele>1342.5</ele>
<speed>41.9</speed>
<course>323.9</course>
<desc>Speed 41.9 km/h Distance 36.07 km</desc>
<time>2011-09-24T12:20:18.01</time>
<name>8765</name>
</trkpt>
<trkpt lat="41.799838" lon="-1.814755">
<ele>1343.0</ele>
<speed>39.7</speed>
<course>336.2</course>
<desc>Speed 39.7 km/h Distance 36.08 km</desc>
<time>2011-09-24T12:20:19.01</time>
<name>8766</name>
</trkpt>
<trkpt lat="41.799920" lon="-1.814803">
<ele>1342.5</ele>
<speed>34.5</speed>
<course>344.2</course>
<desc>Speed 34.5 km/h Distance 36.09 km</desc>
<time>2011-09-24T12:20:20.01</time>
<name>8767</name>
</trkpt>
<trkpt lat="41.800140" lon="-1.814887">
<ele>1342.5</ele>
<speed>43.5</speed>
<course>340.4</course>
<desc>Speed 43.5 km/h Distance 36.12 km</desc>
<time>2011-09-24T12:20:22.01</time>
<name>8768</name>
</trkpt>
<trkpt lat="41.800388" lon="-1.815005">
<ele>1341.5</ele>
<speed>48.6</speed>
<course>332.0</course>
<desc>Speed 48.6 km/h Distance 36.15 km</desc>
<time>2011-09-24T12:20:24.01</time>
<name>8769</name>
</trkpt>
<trkpt lat="41.800487" lon="-1.815075">
<ele>1341.5</ele>
<speed>43.4</speed>
<course>337.7</course>
<desc>Speed 43.4 km/h Distance 36.16 km</desc>
<time>2011-09-24T12:20:25.01</time>
<name>8770</name>
</trkpt>
<trkpt lat="41.800742" lon="-1.815215">
<ele>1341.0</ele>
<speed>47.4</speed>
<course>333.4</course>
<desc>Speed 47.4 km/h Distance 36.19 km</desc>
<time>2011-09-24T12:20:27.00</time>
<name>8771</name>
</trkpt>
<trkpt lat="41.800848" lon="-1.815287">
<ele>1340.5</ele>
<speed>48.1</speed>
<course>335.0</course>
<desc>Speed 48.1 km/h Distance 36.21 km</desc>
<time>2011-09-24T12:20:28.00</time>
<name>8772</name>
</trkpt>
<trkpt lat="41.800960" lon="-1.815357">
<ele>1339.5</ele>
<speed>48.5</speed>
<course>334.5</course>
<desc>Speed 48.5 km/h Distance 36.22 km</desc>
<time>2011-09-24T12:20:29.00</time>
<name>8773</name>
</trkpt>
<trkpt lat="41.801067" lon="-1.815425">
<ele>1339.5</ele>
<speed>46.2</speed>
<course>336.5</course>
<desc>Speed 46.2 km/h Distance 36.23 km</desc>
<time>2011-09-24T12:20:30.00</time>
<name>8774</name>
</trkpt>
<trkpt lat="41.801187" lon="-1.815495">
<ele>1339.0</ele>
<speed>48.2</speed>
<course>333.2</course>
<desc>Speed 48.2 km/h Distance 36.25 km</desc>
<time>2011-09-24T12:20:30.99</time>
<name>8775</name>
</trkpt>
<trkpt lat="41.801290" lon="-1.815565">
<ele>1339.0</ele>
<speed>44.7</speed>
<course>332.0</course>
<desc>Speed 44.7 km/h Distance 36.26 km</desc>
<time>2011-09-24T12:20:32.00</time>
<name>8776</name>
</trkpt>
<trkpt lat="41.801388" lon="-1.815635">
<ele>1339.5</ele>
<speed>43.3</speed>
<course>332.7</course>
<desc>Speed 43.3 km/h Distance 36.27 km</desc>
<time>2011-09-24T12:20:33.00</time>
<name>8777</name>
</trkpt>
<trkpt lat="41.801492" lon="-1.815707">
<ele>1340.0</ele>
<speed>44.8</speed>
<course>344.1</course>
<desc>Speed 44.8 km/h Distance 36.28 km</desc>
<time>2011-09-24T12:20:33.99</time>
<name>8778</name>
</trkpt>
<trkpt lat="41.801955" lon="-1.815883">
<ele>1332.5</ele>
<speed>49.2</speed>
<course>341.9</course>
<desc>Speed 49.2 km/h Distance 36.34 km</desc>
<time>2011-09-24T12:20:36.99</time>
<name>8779</name>
</trkpt>
<trkpt lat="41.802077" lon="-1.815937">
<ele>1331.5</ele>
<speed>49.6</speed>
<course>336.0</course>
<desc>Speed 49.6 km/h Distance 36.35 km</desc>
<time>2011-09-24T12:20:38.00</time>
<name>8780</name>
</trkpt>
<trkpt lat="41.802197" lon="-1.816008">
<ele>1330.0</ele>
<speed>51.5</speed>
<course>337.0</course>
<desc>Speed 51.5 km/h Distance 36.37 km</desc>
<time>2011-09-24T12:20:38.99</time>
<name>8781</name>
</trkpt>
<trkpt lat="41.802305" lon="-1.816070">
<ele>1331.5</ele>
<speed>45.1</speed>
<course>336.5</course>
<desc>Speed 45.1 km/h Distance 36.38 km</desc>
<time>2011-09-24T12:20:39.98</time>
<name>8782</name>
</trkpt>
<trkpt lat="41.802413" lon="-1.816133">
<ele>1332.0</ele>
<speed>45.7</speed>
<course>331.9</course>
<desc>Speed 45.7 km/h Distance 36.39 km</desc>
<time>2011-09-24T12:20:40.99</time>
<name>8783</name>
</trkpt>
<trkpt lat="41.802502" lon="-1.816197">
<ele>1333.5</ele>
<speed>38.9</speed>
<course>327.9</course>
<desc>Speed 38.9 km/h Distance 36.40 km</desc>
<time>2011-09-24T12:20:41.99</time>
<name>8784</name>
</trkpt>
<trkpt lat="41.802575" lon="-1.816258">
<ele>1333.5</ele>
<speed>34.1</speed>
<course>332.9</course>
<desc>Speed 34.1 km/h Distance 36.41 km</desc>
<time>2011-09-24T12:20:42.99</time>
<name>8785</name>
</trkpt>
<trkpt lat="41.802772" lon="-1.816393">
<ele>1333.5</ele>
<speed>42.8</speed>
<course>328.8</course>
<desc>Speed 42.8 km/h Distance 36.44 km</desc>
<time>2011-09-24T12:20:44.99</time>
<name>8786</name>
</trkpt>
<trkpt lat="41.802870" lon="-1.816473">
<ele>1333.0</ele>
<speed>45.8</speed>
<course>324.9</course>
<desc>Speed 45.8 km/h Distance 36.45 km</desc>
<time>2011-09-24T12:20:45.99</time>
<name>8787</name>
</trkpt>
<trkpt lat="41.802957" lon="-1.816555">
<ele>1332.5</ele>
<speed>42.0</speed>
<course>345.0</course>
<desc>Speed 42.0 km/h Distance 36.46 km</desc>
<time>2011-09-24T12:20:46.98</time>
<name>8788</name>
</trkpt>
<trkpt lat="41.803128" lon="-1.816617">
<ele>1329.5</ele>
<speed>14.3</speed>
<course>74.2</course>
<desc>Speed 14.3 km/h Distance 36.48 km</desc>
<time>2011-09-24T12:20:50.98</time>
<name>8789</name>
</trkpt>
<trkpt lat="41.803142" lon="-1.816553">
<ele>1329.5</ele>
<speed>19.4</speed>
<course>117.4</course>
<desc>Speed 19.4 km/h Distance 36.49 km</desc>
<time>2011-09-24T12:20:51.99</time>
<name>8790</name>
</trkpt>
<trkpt lat="41.803122" lon="-1.816502">
<ele>1329.5</ele>
<speed>18.5</speed>
<course>133.8</course>
<desc>Speed 18.5 km/h Distance 36.49 km</desc>
<time>2011-09-24T12:20:52.98</time>
<name>8791</name>
</trkpt>
<trkpt lat="41.803097" lon="-1.816467">
<ele>1328.5</ele>
<speed>16.1</speed>
<course>135.9</course>
<desc>Speed 16.1 km/h Distance 36.50 km</desc>
<time>2011-09-24T12:20:53.98</time>
<name>8792</name>
</trkpt>
<trkpt lat="41.803013" lon="-1.816358">
<ele>1326.5</ele>
<speed>25.1</speed>
<course>136.6</course>
<desc>Speed 25.1 km/h Distance 36.51 km</desc>
<time>2011-09-24T12:20:55.98</time>
<name>8793</name>
</trkpt>
<trkpt lat="41.802963" lon="-1.816295">
<ele>1325.5</ele>
<speed>30.6</speed>
<course>124.2</course>
<desc>Speed 30.6 km/h Distance 36.52 km</desc>
<time>2011-09-24T12:20:56.97</time>
<name>8794</name>
</trkpt>
<trkpt lat="41.802895" lon="-1.816160">
<ele>1324.5</ele>
<speed>34.6</speed>
<course>136.2</course>
<desc>Speed 34.6 km/h Distance 36.53 km</desc>
<time>2011-09-24T12:20:58.98</time>
<name>8795</name>
</trkpt>
<trkpt lat="41.802825" lon="-1.816070">
<ele>1324.0</ele>
<speed>40.8</speed>
<course>131.0</course>
<desc>Speed 40.8 km/h Distance 36.54 km</desc>
<time>2011-09-24T12:20:59.98</time>
<name>8796</name>
</trkpt>
<trkpt lat="41.802767" lon="-1.815980">
<ele>1323.5</ele>
<speed>39.1</speed>
<course>132.9</course>
<desc>Speed 39.1 km/h Distance 36.55 km</desc>
<time>2011-09-24T12:21:00.97</time>
<name>8797</name>
</trkpt>
<trkpt lat="41.802707" lon="-1.815893">
<ele>1322.5</ele>
<speed>38.3</speed>
<course>132.8</course>
<desc>Speed 38.3 km/h Distance 36.56 km</desc>
<time>2011-09-24T12:21:01.99</time>
<name>8798</name>
</trkpt>
<trkpt lat="41.802643" lon="-1.815802">
<ele>1322.0</ele>
<speed>41.4</speed>
<course>131.6</course>
<desc>Speed 41.4 km/h Distance 36.57 km</desc>
<time>2011-09-24T12:21:02.97</time>
<name>8799</name>
</trkpt>
<trkpt lat="41.802582" lon="-1.815708">
<ele>1320.5</ele>
<speed>41.3</speed>
<course>136.5</course>
<desc>Speed 41.3 km/h Distance 36.58 km</desc>
<time>2011-09-24T12:21:03.97</time>
<name>8800</name>
</trkpt>
<trkpt lat="41.802508" lon="-1.815615">
<ele>1319.5</ele>
<speed>42.4</speed>
<course>139.0</course>
<desc>Speed 42.4 km/h Distance 36.59 km</desc>
<time>2011-09-24T12:21:04.97</time>
<name>8801</name>
</trkpt>
<trkpt lat="41.802428" lon="-1.815522">
<ele>1318.5</ele>
<speed>42.9</speed>
<course>138.7</course>
<desc>Speed 42.9 km/h Distance 36.61 km</desc>
<time>2011-09-24T12:21:05.97</time>
<name>8802</name>
</trkpt>
<trkpt lat="41.802345" lon="-1.815423">
<ele>1318.0</ele>
<speed>44.9</speed>
<course>138.1</course>
<desc>Speed 44.9 km/h Distance 36.62 km</desc>
<time>2011-09-24T12:21:06.98</time>
<name>8803</name>
</trkpt>
<trkpt lat="41.802263" lon="-1.815325">
<ele>1317.0</ele>
<speed>44.3</speed>
<course>135.9</course>
<desc>Speed 44.3 km/h Distance 36.63 km</desc>
<time>2011-09-24T12:21:07.97</time>
<name>8804</name>
</trkpt>
<trkpt lat="41.802185" lon="-1.815223">
<ele>1316.5</ele>
<speed>44.2</speed>
<course>136.7</course>
<desc>Speed 44.2 km/h Distance 36.64 km</desc>
<time>2011-09-24T12:21:08.97</time>
<name>8805</name>
</trkpt>
<trkpt lat="41.802103" lon="-1.815120">
<ele>1316.0</ele>
<speed>45.4</speed>
<course>135.8</course>
<desc>Speed 45.4 km/h Distance 36.66 km</desc>
<time>2011-09-24T12:21:09.97</time>
<name>8806</name>
</trkpt>
<trkpt lat="41.802022" lon="-1.815013">
<ele>1315.5</ele>
<speed>46.3</speed>
<course>134.3</course>
<desc>Speed 46.3 km/h Distance 36.67 km</desc>
<time>2011-09-24T12:21:10.97</time>
<name>8807</name>
</trkpt>
<trkpt lat="41.801942" lon="-1.814903">
<ele>1315.5</ele>
<speed>47.1</speed>
<course>137.6</course>
<desc>Speed 47.1 km/h Distance 36.68 km</desc>
<time>2011-09-24T12:21:11.97</time>
<name>8808</name>
</trkpt>
<trkpt lat="41.801860" lon="-1.814803">
<ele>1314.5</ele>
<speed>44.5</speed>
<course>139.4</course>
<desc>Speed 44.5 km/h Distance 36.69 km</desc>
<time>2011-09-24T12:21:12.96</time>
<name>8809</name>
</trkpt>
<trkpt lat="41.801772" lon="-1.814702">
<ele>1316.0</ele>
<speed>47.7</speed>
<course>141.2</course>
<desc>Speed 47.7 km/h Distance 36.71 km</desc>
<time>2011-09-24T12:21:13.96</time>
<name>8810</name>
</trkpt>
<trkpt lat="41.801687" lon="-1.814610">
<ele>1315.0</ele>
<speed>44.3</speed>
<course>139.2</course>
<desc>Speed 44.3 km/h Distance 36.72 km</desc>
<time>2011-09-24T12:21:14.96</time>
<name>8811</name>
</trkpt>
<trkpt lat="41.801602" lon="-1.814512">
<ele>1314.5</ele>
<speed>44.9</speed>
<course>131.4</course>
<desc>Speed 44.9 km/h Distance 36.73 km</desc>
<time>2011-09-24T12:21:15.96</time>
<name>8812</name>
</trkpt>
<trkpt lat="41.801528" lon="-1.814400">
<ele>1314.5</ele>
<speed>44.7</speed>
<course>128.4</course>
<desc>Speed 44.7 km/h Distance 36.74 km</desc>
<time>2011-09-24T12:21:16.96</time>
<name>8813</name>
</trkpt>
<trkpt lat="41.801458" lon="-1.814282">
<ele>1314.0</ele>
<speed>44.9</speed>
<course>127.4</course>
<desc>Speed 44.9 km/h Distance 36.76 km</desc>
<time>2011-09-24T12:21:17.96</time>
<name>8814</name>
</trkpt>
<trkpt lat="41.801390" lon="-1.814162">
<ele>1314.0</ele>
<speed>45.4</speed>
<course>126.3</course>
<desc>Speed 45.4 km/h Distance 36.77 km</desc>
<time>2011-09-24T12:21:18.96</time>
<name>8815</name>
</trkpt>
<trkpt lat="41.801322" lon="-1.814037">
<ele>1314.5</ele>
<speed>47.1</speed>
<course>124.9</course>
<desc>Speed 47.1 km/h Distance 36.78 km</desc>
<time>2011-09-24T12:21:19.96</time>
<name>8816</name>
</trkpt>
<trkpt lat="41.801258" lon="-1.813915">
<ele>1314.0</ele>
<speed>45.4</speed>
<course>126.0</course>
<desc>Speed 45.4 km/h Distance 36.79 km</desc>
<time>2011-09-24T12:21:20.96</time>
<name>8817</name>
</trkpt>
<trkpt lat="41.801193" lon="-1.813795">
<ele>1314.0</ele>
<speed>44.7</speed>
<course>125.9</course>
<desc>Speed 44.7 km/h Distance 36.81 km</desc>
<time>2011-09-24T12:21:21.96</time>
<name>8818</name>
</trkpt>
<trkpt lat="41.801125" lon="-1.813668">
<ele>1314.5</ele>
<speed>47.3</speed>
<course>120.7</course>
<desc>Speed 47.3 km/h Distance 36.82 km</desc>
<time>2011-09-24T12:21:22.96</time>
<name>8819</name>
</trkpt>
<trkpt lat="41.801067" lon="-1.813537">
<ele>1315.5</ele>
<speed>45.9</speed>
<course>119.9</course>
<desc>Speed 45.9 km/h Distance 36.83 km</desc>
<time>2011-09-24T12:21:23.96</time>
<name>8820</name>
</trkpt>
<trkpt lat="41.801017" lon="-1.813420">
<ele>1314.0</ele>
<speed>40.5</speed>
<course>122.7</course>
<desc>Speed 40.5 km/h Distance 36.84 km</desc>
<time>2011-09-24T12:21:24.96</time>
<name>8821</name>
</trkpt>
<trkpt lat="41.800958" lon="-1.813298">
<ele>1313.5</ele>
<speed>42.8</speed>
<course>94.2</course>
<desc>Speed 42.8 km/h Distance 36.85 km</desc>
<time>2011-09-24T12:21:25.96</time>
<name>8822</name>
</trkpt>
<trkpt lat="41.800950" lon="-1.813145">
<ele>1313.5</ele>
<speed>46.4</speed>
<course>101.9</course>
<desc>Speed 46.4 km/h Distance 36.87 km</desc>
<time>2011-09-24T12:21:26.96</time>
<name>8823</name>
</trkpt>
<trkpt lat="41.800928" lon="-1.813007">
<ele>1313.0</ele>
<speed>42.7</speed>
<course>105.4</course>
<desc>Speed 42.7 km/h Distance 36.88 km</desc>
<time>2011-09-24T12:21:27.96</time>
<name>8824</name>
</trkpt>
<trkpt lat="41.800900" lon="-1.812868">
<ele>1313.0</ele>
<speed>43.7</speed>
<course>98.1</course>
<desc>Speed 43.7 km/h Distance 36.89 km</desc>
<time>2011-09-24T12:21:28.95</time>
<name>8825</name>
</trkpt>
<trkpt lat="41.800885" lon="-1.812727">
<ele>1313.0</ele>
<speed>43.1</speed>
<course>78.3</course>
<desc>Speed 43.1 km/h Distance 36.90 km</desc>
<time>2011-09-24T12:21:29.95</time>
<name>8826</name>
</trkpt>
<trkpt lat="41.800907" lon="-1.812587">
<ele>1311.5</ele>
<speed>43.0</speed>
<course>74.8</course>
<desc>Speed 43.0 km/h Distance 36.91 km</desc>
<time>2011-09-24T12:21:30.96</time>
<name>8827</name>
</trkpt>
<trkpt lat="41.800935" lon="-1.812447">
<ele>1311.5</ele>
<speed>43.5</speed>
<course>71.3</course>
<desc>Speed 43.5 km/h Distance 36.93 km</desc>
<time>2011-09-24T12:21:31.95</time>
<name>8828</name>
</trkpt>
<trkpt lat="41.800970" lon="-1.812308">
<ele>1311.0</ele>
<speed>43.6</speed>
<course>64.6</course>
<desc>Speed 43.6 km/h Distance 36.94 km</desc>
<time>2011-09-24T12:21:32.96</time>
<name>8829</name>
</trkpt>
<trkpt lat="41.801017" lon="-1.812177">
<ele>1311.0</ele>
<speed>43.7</speed>
<course>49.6</course>
<desc>Speed 43.7 km/h Distance 36.95 km</desc>
<time>2011-09-24T12:21:33.95</time>
<name>8830</name>
</trkpt>
<trkpt lat="41.801095" lon="-1.812053">
<ele>1310.5</ele>
<speed>48.2</speed>
<course>43.1</course>
<desc>Speed 48.2 km/h Distance 36.96 km</desc>
<time>2011-09-24T12:21:34.95</time>
<name>8831</name>
</trkpt>
<trkpt lat="41.801180" lon="-1.811947">
<ele>1310.0</ele>
<speed>44.0</speed>
<course>50.7</course>
<desc>Speed 44.0 km/h Distance 36.98 km</desc>
<time>2011-09-24T12:21:35.95</time>
<name>8832</name>
</trkpt>
<trkpt lat="41.801258" lon="-1.811818">
<ele>1309.0</ele>
<speed>46.7</speed>
<course>55.5</course>
<desc>Speed 46.7 km/h Distance 36.99 km</desc>
<time>2011-09-24T12:21:36.95</time>
<name>8833</name>
</trkpt>
<trkpt lat="41.801327" lon="-1.811685">
<ele>1309.0</ele>
<speed>47.1</speed>
<course>59.9</course>
<desc>Speed 47.1 km/h Distance 37.00 km</desc>
<time>2011-09-24T12:21:37.95</time>
<name>8834</name>
</trkpt>
<trkpt lat="41.801385" lon="-1.811550">
<ele>1308.5</ele>
<speed>47.2</speed>
<course>62.5</course>
<desc>Speed 47.2 km/h Distance 37.02 km</desc>
<time>2011-09-24T12:21:38.95</time>
<name>8835</name>
</trkpt>
<trkpt lat="41.801440" lon="-1.811408">
<ele>1308.5</ele>
<speed>47.4</speed>
<course>78.8</course>
<desc>Speed 47.4 km/h Distance 37.03 km</desc>
<time>2011-09-24T12:21:39.95</time>
<name>8836</name>
</trkpt>
<trkpt lat="41.801462" lon="-1.811262">
<ele>1308.0</ele>
<speed>44.5</speed>
<course>75.3</course>
<desc>Speed 44.5 km/h Distance 37.04 km</desc>
<time>2011-09-24T12:21:40.94</time>
<name>8837</name>
</trkpt>
<trkpt lat="41.801492" lon="-1.811108">
<ele>1308.0</ele>
<speed>46.5</speed>
<course>83.3</course>
<desc>Speed 46.5 km/h Distance 37.06 km</desc>
<time>2011-09-24T12:21:41.95</time>
<name>8838</name>
</trkpt>
<trkpt lat="41.801505" lon="-1.810957">
<ele>1307.5</ele>
<speed>45.8</speed>
<course>79.3</course>
<desc>Speed 45.8 km/h Distance 37.07 km</desc>
<time>2011-09-24T12:21:42.94</time>
<name>8839</name>
</trkpt>
<trkpt lat="41.801527" lon="-1.810803">
<ele>1307.0</ele>
<speed>46.1</speed>
<course>90.8</course>
<desc>Speed 46.1 km/h Distance 37.08 km</desc>
<time>2011-09-24T12:21:43.94</time>
<name>8840</name>
</trkpt>
<trkpt lat="41.801525" lon="-1.810650">
<ele>1306.0</ele>
<speed>46.3</speed>
<course>105.6</course>
<desc>Speed 46.3 km/h Distance 37.09 km</desc>
<time>2011-09-24T12:21:44.95</time>
<name>8841</name>
</trkpt>
<trkpt lat="41.801493" lon="-1.810498">
<ele>1305.5</ele>
<speed>47.7</speed>
<course>108.4</course>
<desc>Speed 47.7 km/h Distance 37.11 km</desc>
<time>2011-09-24T12:21:45.94</time>
<name>8842</name>
</trkpt>
<trkpt lat="41.801455" lon="-1.810343">
<ele>1305.5</ele>
<speed>48.3</speed>
<course>109.5</course>
<desc>Speed 48.3 km/h Distance 37.12 km</desc>
<time>2011-09-24T12:21:46.94</time>
<name>8843</name>
</trkpt>
<trkpt lat="41.801415" lon="-1.810192">
<ele>1305.0</ele>
<speed>48.5</speed>
<course>110.2</course>
<desc>Speed 48.5 km/h Distance 37.13 km</desc>
<time>2011-09-24T12:21:47.93</time>
<name>8844</name>
</trkpt>
<trkpt lat="41.801373" lon="-1.810040">
<ele>1305.5</ele>
<speed>47.8</speed>
<course>115.0</course>
<desc>Speed 47.8 km/h Distance 37.15 km</desc>
<time>2011-09-24T12:21:48.94</time>
<name>8845</name>
</trkpt>
<trkpt lat="41.801322" lon="-1.809892">
<ele>1305.5</ele>
<speed>48.6</speed>
<course>115.5</course>
<desc>Speed 48.6 km/h Distance 37.16 km</desc>
<time>2011-09-24T12:21:49.93</time>
<name>8846</name>
</trkpt>
<trkpt lat="41.801270" lon="-1.809747">
<ele>1305.5</ele>
<speed>47.2</speed>
<course>118.2</course>
<desc>Speed 47.2 km/h Distance 37.17 km</desc>
<time>2011-09-24T12:21:50.94</time>
<name>8847</name>
</trkpt>
<trkpt lat="41.801213" lon="-1.809605">
<ele>1305.5</ele>
<speed>48.2</speed>
<course>114.8</course>
<desc>Speed 48.2 km/h Distance 37.19 km</desc>
<time>2011-09-24T12:21:51.93</time>
<name>8848</name>
</trkpt>
<trkpt lat="41.801163" lon="-1.809460">
<ele>1304.0</ele>
<speed>46.9</speed>
<course>118.2</course>
<desc>Speed 46.9 km/h Distance 37.20 km</desc>
<time>2011-09-24T12:21:52.94</time>
<name>8849</name>
</trkpt>
<trkpt lat="41.801107" lon="-1.809318">
<ele>1303.0</ele>
<speed>47.3</speed>
<course>121.9</course>
<desc>Speed 47.3 km/h Distance 37.21 km</desc>
<time>2011-09-24T12:21:53.94</time>
<name>8850</name>
</trkpt>
<trkpt lat="41.801043" lon="-1.809182">
<ele>1302.0</ele>
<speed>48.1</speed>
<course>119.5</course>
<desc>Speed 48.1 km/h Distance 37.23 km</desc>
<time>2011-09-24T12:21:54.94</time>
<name>8851</name>
</trkpt>
<trkpt lat="41.800985" lon="-1.809043">
<ele>1301.5</ele>
<speed>47.4</speed>
<course>128.8</course>
<desc>Speed 47.4 km/h Distance 37.24 km</desc>
<time>2011-09-24T12:21:55.93</time>
<name>8852</name>
</trkpt>
<trkpt lat="41.800910" lon="-1.808918">
<ele>1301.5</ele>
<speed>48.2</speed>
<course>127.2</course>
<desc>Speed 48.2 km/h Distance 37.25 km</desc>
<time>2011-09-24T12:21:56.93</time>
<name>8853</name>
</trkpt>
<trkpt lat="41.800832" lon="-1.808780">
<ele>1302.5</ele>
<speed>52.5</speed>
<course>119.8</course>
<desc>Speed 52.5 km/h Distance 37.27 km</desc>
<time>2011-09-24T12:21:57.93</time>
<name>8854</name>
</trkpt>
<trkpt lat="41.800773" lon="-1.808643">
<ele>1302.0</ele>
<speed>46.9</speed>
<course>127.6</course>
<desc>Speed 46.9 km/h Distance 37.28 km</desc>
<time>2011-09-24T12:21:58.93</time>
<name>8855</name>
</trkpt>
<trkpt lat="41.800695" lon="-1.808507">
<ele>1303.0</ele>
<speed>52.7</speed>
<course>125.4</course>
<desc>Speed 52.7 km/h Distance 37.30 km</desc>
<time>2011-09-24T12:21:59.92</time>
<name>8856</name>
</trkpt>
<trkpt lat="41.800622" lon="-1.808368">
<ele>1303.0</ele>
<speed>50.4</speed>
<course>127.2</course>
<desc>Speed 50.4 km/h Distance 37.31 km</desc>
<time>2011-09-24T12:22:00.93</time>
<name>8857</name>
</trkpt>
<trkpt lat="41.800543" lon="-1.808230">
<ele>1302.5</ele>
<speed>51.7</speed>
<course>115.4</course>
<desc>Speed 51.7 km/h Distance 37.32 km</desc>
<time>2011-09-24T12:22:01.94</time>
<name>8858</name>
</trkpt>
<trkpt lat="41.800495" lon="-1.808093">
<ele>1301.0</ele>
<speed>45.7</speed>
<course>119.7</course>
<desc>Speed 45.7 km/h Distance 37.34 km</desc>
<time>2011-09-24T12:22:02.93</time>
<name>8859</name>
</trkpt>
<trkpt lat="41.800433" lon="-1.807948">
<ele>1300.5</ele>
<speed>49.6</speed>
<course>118.6</course>
<desc>Speed 49.6 km/h Distance 37.35 km</desc>
<time>2011-09-24T12:22:03.92</time>
<name>8860</name>
</trkpt>
<trkpt lat="41.800375" lon="-1.807805">
<ele>1301.0</ele>
<speed>48.5</speed>
<course>123.5</course>
<desc>Speed 48.5 km/h Distance 37.36 km</desc>
<time>2011-09-24T12:22:04.92</time>
<name>8861</name>
</trkpt>
<trkpt lat="41.800307" lon="-1.807667">
<ele>1301.0</ele>
<speed>49.5</speed>
<course>126.8</course>
<desc>Speed 49.5 km/h Distance 37.38 km</desc>
<time>2011-09-24T12:22:05.93</time>
<name>8862</name>
</trkpt>
<trkpt lat="41.800233" lon="-1.807535">
<ele>1301.0</ele>
<speed>48.9</speed>
<course>120.3</course>
<desc>Speed 48.9 km/h Distance 37.39 km</desc>
<time>2011-09-24T12:22:06.93</time>
<name>8863</name>
</trkpt>
<trkpt lat="41.800177" lon="-1.807405">
<ele>1301.0</ele>
<speed>44.2</speed>
<course>113.3</course>
<desc>Speed 44.2 km/h Distance 37.40 km</desc>
<time>2011-09-24T12:22:07.92</time>
<name>8864</name>
</trkpt>
<trkpt lat="41.800133" lon="-1.807270">
<ele>1301.0</ele>
<speed>43.2</speed>
<course>127.3</course>
<desc>Speed 43.2 km/h Distance 37.42 km</desc>
<time>2011-09-24T12:22:08.92</time>
<name>8865</name>
</trkpt>
<trkpt lat="41.800063" lon="-1.807147">
<ele>1301.0</ele>
<speed>45.7</speed>
<course>134.5</course>
<desc>Speed 45.7 km/h Distance 37.43 km</desc>
<time>2011-09-24T12:22:09.92</time>
<name>8866</name>
</trkpt>
<trkpt lat="41.799982" lon="-1.807035">
<ele>1301.5</ele>
<speed>45.8</speed>
<course>137.1</course>
<desc>Speed 45.8 km/h Distance 37.44 km</desc>
<time>2011-09-24T12:22:10.92</time>
<name>8867</name>
</trkpt>
<trkpt lat="41.799900" lon="-1.806933">
<ele>1301.0</ele>
<speed>44.0</speed>
<course>110.1</course>
<desc>Speed 44.0 km/h Distance 37.46 km</desc>
<time>2011-09-24T12:22:11.92</time>
<name>8868</name>
</trkpt>
<trkpt lat="41.799822" lon="-1.806647">
<ele>1299.0</ele>
<speed>19.8</speed>
<course>37.9</course>
<desc>Speed 19.8 km/h Distance 37.48 km</desc>
<time>2011-09-24T12:22:15.92</time>
<name>8869</name>
</trkpt>
<trkpt lat="41.799858" lon="-1.806608">
<ele>1298.5</ele>
<speed>16.9</speed>
<course>334.0</course>
<desc>Speed 16.9 km/h Distance 37.49 km</desc>
<time>2011-09-24T12:22:16.91</time>
<name>8870</name>
</trkpt>
<trkpt lat="41.799993" lon="-1.806697">
<ele>1297.0</ele>
<speed>22.9</speed>
<course>294.7</course>
<desc>Speed 22.9 km/h Distance 37.50 km</desc>
<time>2011-09-24T12:22:18.92</time>
<name>8871</name>
</trkpt>
<trkpt lat="41.800015" lon="-1.806760">
<ele>1297.0</ele>
<speed>20.9</speed>
<course>303.9</course>
<desc>Speed 20.9 km/h Distance 37.51 km</desc>
<time>2011-09-24T12:22:19.91</time>
<name>8872</name>
</trkpt>
<trkpt lat="41.800093" lon="-1.806917">
<ele>1296.0</ele>
<speed>28.8</speed>
<course>306.4</course>
<desc>Speed 28.8 km/h Distance 37.52 km</desc>
<time>2011-09-24T12:22:21.90</time>
<name>8873</name>
</trkpt>
<trkpt lat="41.800140" lon="-1.807002">
<ele>1295.5</ele>
<speed>31.5</speed>
<course>313.6</course>
<desc>Speed 31.5 km/h Distance 37.53 km</desc>
<time>2011-09-24T12:22:22.90</time>
<name>8874</name>
</trkpt>
<trkpt lat="41.800270" lon="-1.807185">
<ele>1292.5</ele>
<speed>36.9</speed>
<course>309.5</course>
<desc>Speed 36.9 km/h Distance 37.55 km</desc>
<time>2011-09-24T12:22:24.90</time>
<name>8875</name>
</trkpt>
<trkpt lat="41.800328" lon="-1.807280">
<ele>1292.0</ele>
<speed>37.2</speed>
<course>313.0</course>
<desc>Speed 37.2 km/h Distance 37.56 km</desc>
<time>2011-09-24T12:22:25.90</time>
<name>8876</name>
</trkpt>
<trkpt lat="41.800397" lon="-1.807378">
<ele>1291.0</ele>
<speed>38.7</speed>
<course>310.8</course>
<desc>Speed 38.7 km/h Distance 37.57 km</desc>
<time>2011-09-24T12:22:26.91</time>
<name>8877</name>
</trkpt>
<trkpt lat="41.800460" lon="-1.807477">
<ele>1290.0</ele>
<speed>37.7</speed>
<course>315.0</course>
<desc>Speed 37.7 km/h Distance 37.59 km</desc>
<time>2011-09-24T12:22:27.90</time>
<name>8878</name>
</trkpt>
<trkpt lat="41.800533" lon="-1.807575">
<ele>1287.5</ele>
<speed>39.1</speed>
<course>318.1</course>
<desc>Speed 39.1 km/h Distance 37.60 km</desc>
<time>2011-09-24T12:22:28.90</time>
<name>8879</name>
</trkpt>
<trkpt lat="41.800615" lon="-1.807673">
<ele>1287.0</ele>
<speed>43.7</speed>
<course>309.9</course>
<desc>Speed 43.7 km/h Distance 37.61 km</desc>
<time>2011-09-24T12:22:29.90</time>
<name>8880</name>
</trkpt>
<trkpt lat="41.800678" lon="-1.807775">
<ele>1287.0</ele>
<speed>39.5</speed>
<course>313.6</course>
<desc>Speed 39.5 km/h Distance 37.62 km</desc>
<time>2011-09-24T12:22:30.90</time>
<name>8881</name>
</trkpt>
<trkpt lat="41.800752" lon="-1.807878">
<ele>1286.5</ele>
<speed>42.4</speed>
<course>313.8</course>
<desc>Speed 42.4 km/h Distance 37.63 km</desc>
<time>2011-09-24T12:22:31.90</time>
<name>8882</name>
</trkpt>
<trkpt lat="41.800827" lon="-1.807983">
<ele>1285.5</ele>
<speed>43.4</speed>
<course>311.4</course>
<desc>Speed 43.4 km/h Distance 37.64 km</desc>
<time>2011-09-24T12:22:32.90</time>
<name>8883</name>
</trkpt>
<trkpt lat="41.800897" lon="-1.808090">
<ele>1285.5</ele>
<speed>41.9</speed>
<course>312.0</course>
<desc>Speed 41.9 km/h Distance 37.66 km</desc>
<time>2011-09-24T12:22:33.90</time>
<name>8884</name>
</trkpt>
<trkpt lat="41.800968" lon="-1.808197">
<ele>1285.0</ele>
<speed>42.5</speed>
<course>320.4</course>
<desc>Speed 42.5 km/h Distance 37.67 km</desc>
<time>2011-09-24T12:22:34.90</time>
<name>8885</name>
</trkpt>
<trkpt lat="41.801165" lon="-1.808415">
<ele>1281.5</ele>
<speed>51.5</speed>
<course>318.5</course>
<desc>Speed 51.5 km/h Distance 37.70 km</desc>
<time>2011-09-24T12:22:36.89</time>
<name>8886</name>
</trkpt>
<trkpt lat="41.801255" lon="-1.808522">
<ele>1280.5</ele>
<speed>47.8</speed>
<course>315.3</course>
<desc>Speed 47.8 km/h Distance 37.71 km</desc>
<time>2011-09-24T12:22:37.90</time>
<name>8887</name>
</trkpt>
<trkpt lat="41.801337" lon="-1.808630">
<ele>1280.0</ele>
<speed>45.8</speed>
<course>306.9</course>
<desc>Speed 45.8 km/h Distance 37.72 km</desc>
<time>2011-09-24T12:22:38.90</time>
<name>8888</name>
</trkpt>
<trkpt lat="41.801398" lon="-1.808740">
<ele>1280.5</ele>
<speed>40.6</speed>
<course>310.5</course>
<desc>Speed 40.6 km/h Distance 37.73 km</desc>
<time>2011-09-24T12:22:39.89</time>
<name>8889</name>
</trkpt>
<trkpt lat="41.801472" lon="-1.808855">
<ele>1280.0</ele>
<speed>44.5</speed>
<course>313.9</course>
<desc>Speed 44.5 km/h Distance 37.75 km</desc>
<time>2011-09-24T12:22:40.89</time>
<name>8890</name>
</trkpt>
<trkpt lat="41.801640" lon="-1.809090">
<ele>1280.5</ele>
<speed>44.2</speed>
<course>307.4</course>
<desc>Speed 44.2 km/h Distance 37.77 km</desc>
<time>2011-09-24T12:22:42.90</time>
<name>8891</name>
</trkpt>
<trkpt lat="41.801708" lon="-1.809210">
<ele>1280.5</ele>
<speed>45.4</speed>
<course>309.5</course>
<desc>Speed 45.4 km/h Distance 37.79 km</desc>
<time>2011-09-24T12:22:43.89</time>
<name>8892</name>
</trkpt>
<trkpt lat="41.801780" lon="-1.809327">
<ele>1280.5</ele>
<speed>45.5</speed>
<course>315.3</course>
<desc>Speed 45.5 km/h Distance 37.80 km</desc>
<time>2011-09-24T12:22:44.89</time>
<name>8893</name>
</trkpt>
<trkpt lat="41.801872" lon="-1.809448">
<ele>1278.5</ele>
<speed>50.9</speed>
<course>308.3</course>
<desc>Speed 50.9 km/h Distance 37.81 km</desc>
<time>2011-09-24T12:22:45.89</time>
<name>8894</name>
</trkpt>
<trkpt lat="41.801943" lon="-1.809570">
<ele>1278.0</ele>
<speed>45.3</speed>
<course>300.2</course>
<desc>Speed 45.3 km/h Distance 37.83 km</desc>
<time>2011-09-24T12:22:46.89</time>
<name>8895</name>
</trkpt>
<trkpt lat="41.801998" lon="-1.809697">
<ele>1277.5</ele>
<speed>43.1</speed>
<course>303.2</course>
<desc>Speed 43.1 km/h Distance 37.84 km</desc>
<time>2011-09-24T12:22:47.89</time>
<name>8896</name>
</trkpt>
<trkpt lat="41.802065" lon="-1.809833">
<ele>1276.0</ele>
<speed>48.9</speed>
<course>291.4</course>
<desc>Speed 48.9 km/h Distance 37.85 km</desc>
<time>2011-09-24T12:22:48.89</time>
<name>8897</name>
</trkpt>
<trkpt lat="41.802108" lon="-1.809982">
<ele>1274.5</ele>
<speed>47.5</speed>
<course>289.5</course>
<desc>Speed 47.5 km/h Distance 37.86 km</desc>
<time>2011-09-24T12:22:49.89</time>
<name>8898</name>
</trkpt>
<trkpt lat="41.802147" lon="-1.810127">
<ele>1275.0</ele>
<speed>45.7</speed>
<course>290.7</course>
<desc>Speed 45.7 km/h Distance 37.88 km</desc>
<time>2011-09-24T12:22:50.89</time>
<name>8899</name>
</trkpt>
<trkpt lat="41.802187" lon="-1.810268">
<ele>1275.5</ele>
<speed>44.6</speed>
<course>295.5</course>
<desc>Speed 44.6 km/h Distance 37.89 km</desc>
<time>2011-09-24T12:22:51.89</time>
<name>8900</name>
</trkpt>
<trkpt lat="41.802238" lon="-1.810413">
<ele>1273.5</ele>
<speed>46.7</speed>
<course>291.2</course>
<desc>Speed 46.7 km/h Distance 37.90 km</desc>
<time>2011-09-24T12:22:52.89</time>
<name>8901</name>
</trkpt>
<trkpt lat="41.802278" lon="-1.810552">
<ele>1273.5</ele>
<speed>43.8</speed>
<course>294.6</course>
<desc>Speed 43.8 km/h Distance 37.92 km</desc>
<time>2011-09-24T12:22:53.89</time>
<name>8902</name>
</trkpt>
<trkpt lat="41.802325" lon="-1.810688">
<ele>1273.0</ele>
<speed>44.4</speed>
<course>283.8</course>
<desc>Speed 44.4 km/h Distance 37.93 km</desc>
<time>2011-09-24T12:22:54.88</time>
<name>8903</name>
</trkpt>
<trkpt lat="41.802350" lon="-1.810825">
<ele>1273.0</ele>
<speed>41.7</speed>
<course>292.4</course>
<desc>Speed 41.7 km/h Distance 37.94 km</desc>
<time>2011-09-24T12:22:55.89</time>
<name>8904</name>
</trkpt>
<trkpt lat="41.802390" lon="-1.810955">
<ele>1272.5</ele>
<speed>40.9</speed>
<course>302.8</course>
<desc>Speed 40.9 km/h Distance 37.95 km</desc>
<time>2011-09-24T12:22:56.88</time>
<name>8905</name>
</trkpt>
<trkpt lat="41.802450" lon="-1.811080">
<ele>1270.5</ele>
<speed>39.8</speed>
<course>307.4</course>
<desc>Speed 39.8 km/h Distance 37.96 km</desc>
<time>2011-09-24T12:22:57.89</time>
<name>8906</name>
</trkpt>
<trkpt lat="41.802518" lon="-1.811200">
<ele>1269.0</ele>
<speed>39.8</speed>
<course>313.2</course>
<desc>Speed 39.8 km/h Distance 37.98 km</desc>
<time>2011-09-24T12:22:58.88</time>
<name>8907</name>
</trkpt>
<trkpt lat="41.802650" lon="-1.811388">
<ele>1266.0</ele>
<speed>26.7</speed>
<course>319.1</course>
<desc>Speed 26.7 km/h Distance 38.00 km</desc>
<time>2011-09-24T12:23:00.88</time>
<name>8908</name>
</trkpt>
<trkpt lat="41.802803" lon="-1.811567">
<ele>1266.0</ele>
<speed>40.5</speed>
<course>314.7</course>
<desc>Speed 40.5 km/h Distance 38.02 km</desc>
<time>2011-09-24T12:23:02.88</time>
<name>8909</name>
</trkpt>
<trkpt lat="41.802873" lon="-1.811662">
<ele>1266.0</ele>
<speed>39.7</speed>
<course>313.7</course>
<desc>Speed 39.7 km/h Distance 38.03 km</desc>
<time>2011-09-24T12:23:03.88</time>
<name>8910</name>
</trkpt>
<trkpt lat="41.802943" lon="-1.811760">
<ele>1266.0</ele>
<speed>40.4</speed>
<course>318.3</course>
<desc>Speed 40.4 km/h Distance 38.04 km</desc>
<time>2011-09-24T12:23:04.88</time>
<name>8911</name>
</trkpt>
<trkpt lat="41.803115" lon="-1.811965">
<ele>1265.5</ele>
<speed>41.9</speed>
<course>320.5</course>
<desc>Speed 41.9 km/h Distance 38.07 km</desc>
<time>2011-09-24T12:23:06.87</time>
<name>8912</name>
</trkpt>
<trkpt lat="41.803433" lon="-1.812317">
<ele>1260.0</ele>
<speed>54.8</speed>
<course>320.5</course>
<desc>Speed 54.8 km/h Distance 38.11 km</desc>
<time>2011-09-24T12:23:09.87</time>
<name>8913</name>
</trkpt>
<trkpt lat="41.803542" lon="-1.812437">
<ele>1258.5</ele>
<speed>54.3</speed>
<course>318.6</course>
<desc>Speed 54.3 km/h Distance 38.13 km</desc>
<time>2011-09-24T12:23:10.87</time>
<name>8914</name>
</trkpt>
<trkpt lat="41.803642" lon="-1.812555">
<ele>1258.0</ele>
<speed>51.5</speed>
<course>318.1</course>
<desc>Speed 51.5 km/h Distance 38.14 km</desc>
<time>2011-09-24T12:23:11.87</time>
<name>8915</name>
</trkpt>
<trkpt lat="41.803740" lon="-1.812673">
<ele>1258.0</ele>
<speed>52.2</speed>
<course>311.6</course>
<desc>Speed 52.2 km/h Distance 38.16 km</desc>
<time>2011-09-24T12:23:12.87</time>
<name>8916</name>
</trkpt>
<trkpt lat="41.803822" lon="-1.812797">
<ele>1258.0</ele>
<speed>48.6</speed>
<course>312.8</course>
<desc>Speed 48.6 km/h Distance 38.17 km</desc>
<time>2011-09-24T12:23:13.87</time>
<name>8917</name>
</trkpt>
<trkpt lat="41.803907" lon="-1.812920">
<ele>1258.0</ele>
<speed>49.2</speed>
<course>319.0</course>
<desc>Speed 49.2 km/h Distance 38.19 km</desc>
<time>2011-09-24T12:23:14.87</time>
<name>8918</name>
</trkpt>
<trkpt lat="41.804007" lon="-1.813037">
<ele>1257.5</ele>
<speed>53.9</speed>
<course>314.0</course>
<desc>Speed 53.9 km/h Distance 38.20 km</desc>
<time>2011-09-24T12:23:15.87</time>
<name>8919</name>
</trkpt>
<trkpt lat="41.804165" lon="-1.813257">
<ele>1259.0</ele>
<speed>45.4</speed>
<course>322.8</course>
<desc>Speed 45.4 km/h Distance 38.23 km</desc>
<time>2011-09-24T12:23:17.86</time>
<name>8920</name>
</trkpt>
<trkpt lat="41.804267" lon="-1.813360">
<ele>1259.0</ele>
<speed>51.0</speed>
<course>324.2</course>
<desc>Speed 51.0 km/h Distance 38.24 km</desc>
<time>2011-09-24T12:23:18.86</time>
<name>8921</name>
</trkpt>
<trkpt lat="41.804375" lon="-1.813465">
<ele>1258.0</ele>
<speed>53.1</speed>
<course>327.9</course>
<desc>Speed 53.1 km/h Distance 38.26 km</desc>
<time>2011-09-24T12:23:19.86</time>
<name>8922</name>
</trkpt>
<trkpt lat="41.804500" lon="-1.813570">
<ele>1255.0</ele>
<speed>47.6</speed>
<course>318.8</course>
<desc>Speed 47.6 km/h Distance 38.27 km</desc>
<time>2011-09-24T12:23:20.86</time>
<name>8923</name>
</trkpt>
<trkpt lat="41.804682" lon="-1.813783">
<ele>1253.5</ele>
<speed>47.3</speed>
<course>321.1</course>
<desc>Speed 47.3 km/h Distance 38.30 km</desc>
<time>2011-09-24T12:23:22.86</time>
<name>8924</name>
</trkpt>
<trkpt lat="41.804783" lon="-1.813893">
<ele>1252.5</ele>
<speed>49.5</speed>
<course>315.4</course>
<desc>Speed 49.5 km/h Distance 38.31 km</desc>
<time>2011-09-24T12:23:23.86</time>
<name>8925</name>
</trkpt>
<trkpt lat="41.804872" lon="-1.814010">
<ele>1251.5</ele>
<speed>49.6</speed>
<course>311.2</course>
<desc>Speed 49.6 km/h Distance 38.33 km</desc>
<time>2011-09-24T12:23:24.86</time>
<name>8926</name>
</trkpt>
<trkpt lat="41.804950" lon="-1.814130">
<ele>1251.5</ele>
<speed>46.3</speed>
<course>307.8</course>
<desc>Speed 46.3 km/h Distance 38.34 km</desc>
<time>2011-09-24T12:23:25.86</time>
<name>8927</name>
</trkpt>
<trkpt lat="41.805018" lon="-1.814248">
<ele>1251.5</ele>
<speed>44.2</speed>
<course>312.2</course>
<desc>Speed 44.2 km/h Distance 38.35 km</desc>
<time>2011-09-24T12:23:26.87</time>
<name>8928</name>
</trkpt>
<trkpt lat="41.805095" lon="-1.814362">
<ele>1251.0</ele>
<speed>44.5</speed>
<course>321.4</course>
<desc>Speed 44.5 km/h Distance 38.37 km</desc>
<time>2011-09-24T12:23:27.87</time>
<name>8929</name>
</trkpt>
<trkpt lat="41.805190" lon="-1.814463">
<ele>1250.5</ele>
<speed>45.9</speed>
<course>315.0</course>
<desc>Speed 45.9 km/h Distance 38.38 km</desc>
<time>2011-09-24T12:23:28.86</time>
<name>8930</name>
</trkpt>
<trkpt lat="41.805268" lon="-1.814568">
<ele>1249.5</ele>
<speed>41.2</speed>
<course>319.2</course>
<desc>Speed 41.2 km/h Distance 38.39 km</desc>
<time>2011-09-24T12:23:29.85</time>
<name>8931</name>
</trkpt>
<trkpt lat="41.805352" lon="-1.814665">
<ele>1249.5</ele>
<speed>42.6</speed>
<course>323.3</course>
<desc>Speed 42.6 km/h Distance 38.40 km</desc>
<time>2011-09-24T12:23:30.86</time>
<name>8932</name>
</trkpt>
<trkpt lat="41.805547" lon="-1.814860">
<ele>1247.0</ele>
<speed>43.4</speed>
<course>333.0</course>
<desc>Speed 43.4 km/h Distance 38.43 km</desc>
<time>2011-09-24T12:23:32.85</time>
<name>8933</name>
</trkpt>
<trkpt lat="41.805788" lon="-1.815025">
<ele>1245.0</ele>
<speed>46.2</speed>
<course>332.5</course>
<desc>Speed 46.2 km/h Distance 38.46 km</desc>
<time>2011-09-24T12:23:34.86</time>
<name>8934</name>
</trkpt>
<trkpt lat="41.805893" lon="-1.815098">
<ele>1245.0</ele>
<speed>46.1</speed>
<course>334.6</course>
<desc>Speed 46.1 km/h Distance 38.48 km</desc>
<time>2011-09-24T12:23:35.85</time>
<name>8935</name>
</trkpt>
<trkpt lat="41.806008" lon="-1.815172">
<ele>1244.5</ele>
<speed>49.2</speed>
<course>333.6</course>
<desc>Speed 49.2 km/h Distance 38.49 km</desc>
<time>2011-09-24T12:23:36.85</time>
<name>8936</name>
</trkpt>
<trkpt lat="41.806123" lon="-1.815248">
<ele>1244.0</ele>
<speed>48.8</speed>
<course>335.6</course>
<desc>Speed 48.8 km/h Distance 38.50 km</desc>
<time>2011-09-24T12:23:37.96</time>
<name>8937</name>
</trkpt>
<trkpt lat="41.806362" lon="-1.815393">
<ele>1243.0</ele>
<speed>48.4</speed>
<course>332.1</course>
<desc>Speed 48.4 km/h Distance 38.53 km</desc>
<time>2011-09-24T12:23:39.85</time>
<name>8938</name>
</trkpt>
<trkpt lat="41.806465" lon="-1.815467">
<ele>1242.5</ele>
<speed>43.7</speed>
<course>332.2</course>
<desc>Speed 43.7 km/h Distance 38.55 km</desc>
<time>2011-09-24T12:23:40.85</time>
<name>8939</name>
</trkpt>
<trkpt lat="41.806573" lon="-1.815543">
<ele>1242.0</ele>
<speed>49.0</speed>
<course>329.5</course>
<desc>Speed 49.0 km/h Distance 38.56 km</desc>
<time>2011-09-24T12:23:41.85</time>
<name>8940</name>
</trkpt>
<trkpt lat="41.806677" lon="-1.815625">
<ele>1241.0</ele>
<speed>46.0</speed>
<course>330.9</course>
<desc>Speed 46.0 km/h Distance 38.57 km</desc>
<time>2011-09-24T12:23:42.84</time>
<name>8941</name>
</trkpt>
<trkpt lat="41.806782" lon="-1.815703">
<ele>1240.5</ele>
<speed>46.7</speed>
<course>331.2</course>
<desc>Speed 46.7 km/h Distance 38.59 km</desc>
<time>2011-09-24T12:23:43.84</time>
<name>8942</name>
</trkpt>
<trkpt lat="41.806890" lon="-1.815783">
<ele>1239.5</ele>
<speed>47.7</speed>
<course>329.4</course>
<desc>Speed 47.7 km/h Distance 38.60 km</desc>
<time>2011-09-24T12:23:44.84</time>
<name>8943</name>
</trkpt>
<trkpt lat="41.806995" lon="-1.815867">
<ele>1238.5</ele>
<speed>46.5</speed>
<course>320.9</course>
<desc>Speed 46.5 km/h Distance 38.61 km</desc>
<time>2011-09-24T12:23:45.84</time>
<name>8944</name>
</trkpt>
<trkpt lat="41.807163" lon="-1.816050">
<ele>1238.5</ele>
<speed>44.1</speed>
<course>318.3</course>
<desc>Speed 44.1 km/h Distance 38.64 km</desc>
<time>2011-09-24T12:23:47.84</time>
<name>8945</name>
</trkpt>
<trkpt lat="41.807257" lon="-1.816162">
<ele>1237.0</ele>
<speed>46.7</speed>
<course>316.4</course>
<desc>Speed 46.7 km/h Distance 38.65 km</desc>
<time>2011-09-24T12:23:48.84</time>
<name>8946</name>
</trkpt>
<trkpt lat="41.807347" lon="-1.816277">
<ele>1234.5</ele>
<speed>48.7</speed>
<course>311.6</course>
<desc>Speed 48.7 km/h Distance 38.67 km</desc>
<time>2011-09-24T12:23:49.84</time>
<name>8947</name>
</trkpt>
<trkpt lat="41.807422" lon="-1.816390">
<ele>1234.0</ele>
<speed>43.5</speed>
<course>315.3</course>
<desc>Speed 43.5 km/h Distance 38.68 km</desc>
<time>2011-09-24T12:23:50.84</time>
<name>8948</name>
</trkpt>
<trkpt lat="41.807498" lon="-1.816492">
<ele>1233.5</ele>
<speed>41.3</speed>
<course>320.4</course>
<desc>Speed 41.3 km/h Distance 38.69 km</desc>
<time>2011-09-24T12:23:51.84</time>
<name>8949</name>
</trkpt>
<trkpt lat="41.807590" lon="-1.816593">
<ele>1232.5</ele>
<speed>46.3</speed>
<course>311.1</course>
<desc>Speed 46.3 km/h Distance 38.70 km</desc>
<time>2011-09-24T12:23:52.84</time>
<name>8950</name>
</trkpt>
<trkpt lat="41.807727" lon="-1.816803">
<ele>1233.0</ele>
<speed>41.9</speed>
<course>311.1</course>
<desc>Speed 41.9 km/h Distance 38.73 km</desc>
<time>2011-09-24T12:23:54.83</time>
<name>8951</name>
</trkpt>
<trkpt lat="41.807795" lon="-1.816908">
<ele>1232.5</ele>
<speed>40.7</speed>
<course>315.0</course>
<desc>Speed 40.7 km/h Distance 38.74 km</desc>
<time>2011-09-24T12:23:55.83</time>
<name>8952</name>
</trkpt>
<trkpt lat="41.807868" lon="-1.817007">
<ele>1232.5</ele>
<speed>41.7</speed>
<course>316.6</course>
<desc>Speed 41.7 km/h Distance 38.75 km</desc>
<time>2011-09-24T12:23:56.83</time>
<name>8953</name>
</trkpt>
<trkpt lat="41.807948" lon="-1.817108">
<ele>1232.5</ele>
<speed>42.8</speed>
<course>314.6</course>
<desc>Speed 42.8 km/h Distance 38.76 km</desc>
<time>2011-09-24T12:23:57.83</time>
<name>8954</name>
</trkpt>
<trkpt lat="41.808027" lon="-1.817215">
<ele>1232.5</ele>
<speed>44.7</speed>
<course>321.0</course>
<desc>Speed 44.7 km/h Distance 38.77 km</desc>
<time>2011-09-24T12:23:58.84</time>
<name>8955</name>
</trkpt>
<trkpt lat="41.808198" lon="-1.817402">
<ele>1233.0</ele>
<speed>48.7</speed>
<course>316.8</course>
<desc>Speed 48.7 km/h Distance 38.80 km</desc>
<time>2011-09-24T12:24:00.83</time>
<name>8956</name>
</trkpt>
<trkpt lat="41.808295" lon="-1.817523">
<ele>1230.5</ele>
<speed>48.6</speed>
<course>314.9</course>
<desc>Speed 48.6 km/h Distance 38.81 km</desc>
<time>2011-09-24T12:24:01.84</time>
<name>8957</name>
</trkpt>
<trkpt lat="41.808382" lon="-1.817640">
<ele>1230.0</ele>
<speed>46.0</speed>
<course>317.4</course>
<desc>Speed 46.0 km/h Distance 38.83 km</desc>
<time>2011-09-24T12:24:02.83</time>
<name>8958</name>
</trkpt>
<trkpt lat="41.808475" lon="-1.817755">
<ele>1229.5</ele>
<speed>48.6</speed>
<course>320.2</course>
<desc>Speed 48.6 km/h Distance 38.84 km</desc>
<time>2011-09-24T12:24:03.83</time>
<name>8959</name>
</trkpt>
<trkpt lat="41.808573" lon="-1.817865">
<ele>1229.0</ele>
<speed>48.8</speed>
<course>337.3</course>
<desc>Speed 48.8 km/h Distance 38.86 km</desc>
<time>2011-09-24T12:24:04.83</time>
<name>8960</name>
</trkpt>
<trkpt lat="41.808695" lon="-1.817933">
<ele>1228.5</ele>
<speed>51.6</speed>
<course>328.6</course>
<desc>Speed 51.6 km/h Distance 38.87 km</desc>
<time>2011-09-24T12:24:05.83</time>
<name>8961</name>
</trkpt>
<trkpt lat="41.808933" lon="-1.818128">
<ele>1228.5</ele>
<speed>37.8</speed>
<course>330.0</course>
<desc>Speed 37.8 km/h Distance 38.90 km</desc>
<time>2011-09-24T12:24:08.83</time>
<name>8962</name>
</trkpt>
<trkpt lat="41.809125" lon="-1.818277">
<ele>1228.5</ele>
<speed>40.1</speed>
<course>325.2</course>
<desc>Speed 40.1 km/h Distance 38.93 km</desc>
<time>2011-09-24T12:24:10.83</time>
<name>8963</name>
</trkpt>
<trkpt lat="41.809318" lon="-1.818457">
<ele>1228.5</ele>
<speed>45.9</speed>
<course>328.7</course>
<desc>Speed 45.9 km/h Distance 38.95 km</desc>
<time>2011-09-24T12:24:12.82</time>
<name>8964</name>
</trkpt>
<trkpt lat="41.809427" lon="-1.818545">
<ele>1228.5</ele>
<speed>46.8</speed>
<course>333.1</course>
<desc>Speed 46.8 km/h Distance 38.97 km</desc>
<time>2011-09-24T12:24:13.83</time>
<name>8965</name>
</trkpt>
<trkpt lat="41.809542" lon="-1.818623">
<ele>1228.5</ele>
<speed>45.5</speed>
<course>332.5</course>
<desc>Speed 45.5 km/h Distance 38.98 km</desc>
<time>2011-09-24T12:24:14.82</time>
<name>8966</name>
</trkpt>
<trkpt lat="41.809647" lon="-1.818697">
<ele>1228.0</ele>
<speed>45.5</speed>
<course>332.0</course>
<desc>Speed 45.5 km/h Distance 38.99 km</desc>
<time>2011-09-24T12:24:15.82</time>
<name>8967</name>
</trkpt>
<trkpt lat="41.809752" lon="-1.818772">
<ele>1228.5</ele>
<speed>45.5</speed>
<course>327.0</course>
<desc>Speed 45.5 km/h Distance 39.01 km</desc>
<time>2011-09-24T12:24:16.82</time>
<name>8968</name>
</trkpt>
<trkpt lat="41.809855" lon="-1.818862">
<ele>1228.5</ele>
<speed>46.0</speed>
<course>324.2</course>
<desc>Speed 46.0 km/h Distance 39.02 km</desc>
<time>2011-09-24T12:24:17.82</time>
<name>8969</name>
</trkpt>
<trkpt lat="41.809958" lon="-1.818962">
<ele>1227.5</ele>
<speed>47.1</speed>
<course>321.5</course>
<desc>Speed 47.1 km/h Distance 39.03 km</desc>
<time>2011-09-24T12:24:18.81</time>
<name>8970</name>
</trkpt>
<trkpt lat="41.810058" lon="-1.819068">
<ele>1226.5</ele>
<speed>46.2</speed>
<course>318.5</course>
<desc>Speed 46.2 km/h Distance 39.05 km</desc>
<time>2011-09-24T12:24:19.81</time>
<name>8971</name>
</trkpt>
<trkpt lat="41.810227" lon="-1.819268">
<ele>1227.5</ele>
<speed>36.5</speed>
<course>344.1</course>
<desc>Speed 36.5 km/h Distance 39.07 km</desc>
<time>2011-09-24T12:24:21.82</time>
<name>8972</name>
</trkpt>
<trkpt lat="41.810453" lon="-1.819355">
<ele>1226.0</ele>
<speed>33.6</speed>
<course>354.0</course>
<desc>Speed 33.6 km/h Distance 39.10 km</desc>
<time>2011-09-24T12:24:23.81</time>
<name>8973</name>
</trkpt>
<trkpt lat="41.810690" lon="-1.819388">
<ele>1222.5</ele>
<speed>46.4</speed>
<course>346.4</course>
<desc>Speed 46.4 km/h Distance 39.13 km</desc>
<time>2011-09-24T12:24:25.81</time>
<name>8974</name>
</trkpt>
<trkpt lat="41.810803" lon="-1.819425">
<ele>1220.0</ele>
<speed>44.3</speed>
<course>342.7</course>
<desc>Speed 44.3 km/h Distance 39.14 km</desc>
<time>2011-09-24T12:24:26.81</time>
<name>8975</name>
</trkpt>
<trkpt lat="41.810915" lon="-1.819472">
<ele>1219.0</ele>
<speed>42.2</speed>
<course>318.2</course>
<desc>Speed 42.2 km/h Distance 39.15 km</desc>
<time>2011-09-24T12:24:27.81</time>
<name>8976</name>
</trkpt>
<trkpt lat="41.811107" lon="-1.819702">
<ele>1217.0</ele>
<speed>37.0</speed>
<course>291.1</course>
<desc>Speed 37.0 km/h Distance 39.18 km</desc>
<time>2011-09-24T12:24:30.81</time>
<name>8977</name>
</trkpt>
<trkpt lat="41.811138" lon="-1.819812">
<ele>1216.5</ele>
<speed>34.3</speed>
<course>286.6</course>
<desc>Speed 34.3 km/h Distance 39.19 km</desc>
<time>2011-09-24T12:24:31.81</time>
<name>8978</name>
</trkpt>
<trkpt lat="41.811165" lon="-1.819932">
<ele>1215.5</ele>
<speed>36.4</speed>
<course>297.5</course>
<desc>Speed 36.4 km/h Distance 39.20 km</desc>
<time>2011-09-24T12:24:32.81</time>
<name>8979</name>
</trkpt>
<trkpt lat="41.811208" lon="-1.820043">
<ele>1215.5</ele>
<speed>36.8</speed>
<course>319.9</course>
<desc>Speed 36.8 km/h Distance 39.21 km</desc>
<time>2011-09-24T12:24:33.80</time>
<name>8980</name>
</trkpt>
<trkpt lat="41.811273" lon="-1.820117">
<ele>1215.0</ele>
<speed>31.9</speed>
<course>331.9</course>
<desc>Speed 31.9 km/h Distance 39.22 km</desc>
<time>2011-09-24T12:24:34.80</time>
<name>8981</name>
</trkpt>
<trkpt lat="41.811415" lon="-1.820218">
<ele>1214.0</ele>
<speed>38.4</speed>
<course>339.6</course>
<desc>Speed 38.4 km/h Distance 39.24 km</desc>
<time>2011-09-24T12:24:36.81</time>
<name>8982</name>
</trkpt>
<trkpt lat="41.811508" lon="-1.820265">
<ele>1214.5</ele>
<speed>35.2</speed>
<course>326.9</course>
<desc>Speed 35.2 km/h Distance 39.25 km</desc>
<time>2011-09-24T12:24:37.80</time>
<name>8983</name>
</trkpt>
<trkpt lat="41.811588" lon="-1.820335">
<ele>1214.0</ele>
<speed>33.0</speed>
<course>308.9</course>
<desc>Speed 33.0 km/h Distance 39.26 km</desc>
<time>2011-09-24T12:24:38.80</time>
<name>8984</name>
</trkpt>
<trkpt lat="41.811717" lon="-1.820548">
<ele>1213.0</ele>
<speed>35.6</speed>
<course>292.9</course>
<desc>Speed 35.6 km/h Distance 39.28 km</desc>
<time>2011-09-24T12:24:40.80</time>
<name>8985</name>
</trkpt>
<trkpt lat="41.811755" lon="-1.820670">
<ele>1212.5</ele>
<speed>37.4</speed>
<course>283.2</course>
<desc>Speed 37.4 km/h Distance 39.29 km</desc>
<time>2011-09-24T12:24:41.81</time>
<name>8986</name>
</trkpt>
<trkpt lat="41.811778" lon="-1.820803">
<ele>1212.5</ele>
<speed>40.1</speed>
<course>301.2</course>
<desc>Speed 40.1 km/h Distance 39.31 km</desc>
<time>2011-09-24T12:24:42.80</time>
<name>8987</name>
</trkpt>
<trkpt lat="41.811825" lon="-1.820907">
<ele>1211.5</ele>
<speed>34.8</speed>
<course>306.3</course>
<desc>Speed 34.8 km/h Distance 39.32 km</desc>
<time>2011-09-24T12:24:43.80</time>
<name>8988</name>
</trkpt>
<trkpt lat="41.811962" lon="-1.821157">
<ele>1211.0</ele>
<speed>42.0</speed>
<course>314.4</course>
<desc>Speed 42.0 km/h Distance 39.34 km</desc>
<time>2011-09-24T12:24:45.80</time>
<name>8989</name>
</trkpt>
<trkpt lat="41.812038" lon="-1.821262">
<ele>1211.0</ele>
<speed>42.6</speed>
<course>314.1</course>
<desc>Speed 42.6 km/h Distance 39.35 km</desc>
<time>2011-09-24T12:24:46.80</time>
<name>8990</name>
</trkpt>
<trkpt lat="41.812117" lon="-1.821370">
<ele>1210.5</ele>
<speed>42.7</speed>
<course>313.8</course>
<desc>Speed 42.7 km/h Distance 39.37 km</desc>
<time>2011-09-24T12:24:47.80</time>
<name>8991</name>
</trkpt>
<trkpt lat="41.812192" lon="-1.821475">
<ele>1212.0</ele>
<speed>40.0</speed>
<course>302.2</course>
<desc>Speed 40.0 km/h Distance 39.38 km</desc>
<time>2011-09-24T12:24:48.80</time>
<name>8992</name>
</trkpt>
<trkpt lat="41.812243" lon="-1.821585">
<ele>1213.5</ele>
<speed>35.4</speed>
<course>313.3</course>
<desc>Speed 35.4 km/h Distance 39.39 km</desc>
<time>2011-09-24T12:24:49.80</time>
<name>8993</name>
</trkpt>
<trkpt lat="41.812408" lon="-1.821820">
<ele>1211.0</ele>
<speed>42.7</speed>
<course>299.0</course>
<desc>Speed 42.7 km/h Distance 39.42 km</desc>
<time>2011-09-24T12:24:51.80</time>
<name>8994</name>
</trkpt>
<trkpt lat="41.812460" lon="-1.821945">
<ele>1211.5</ele>
<speed>41.6</speed>
<course>302.5</course>
<desc>Speed 41.6 km/h Distance 39.43 km</desc>
<time>2011-09-24T12:24:52.80</time>
<name>8995</name>
</trkpt>
<trkpt lat="41.812522" lon="-1.822075">
<ele>1210.5</ele>
<speed>44.3</speed>
<course>301.9</course>
<desc>Speed 44.3 km/h Distance 39.44 km</desc>
<time>2011-09-24T12:24:53.80</time>
<name>8996</name>
</trkpt>
<trkpt lat="41.812587" lon="-1.822215">
<ele>1209.0</ele>
<speed>46.7</speed>
<course>300.3</course>
<desc>Speed 46.7 km/h Distance 39.45 km</desc>
<time>2011-09-24T12:24:54.80</time>
<name>8997</name>
</trkpt>
<trkpt lat="41.812648" lon="-1.822357">
<ele>1207.5</ele>
<speed>46.3</speed>
<course>301.6</course>
<desc>Speed 46.3 km/h Distance 39.47 km</desc>
<time>2011-09-24T12:24:55.79</time>
<name>8998</name>
</trkpt>
<trkpt lat="41.812787" lon="-1.822658">
<ele>1199.0</ele>
<speed>45.5</speed>
<course>291.8</course>
<desc>Speed 45.5 km/h Distance 39.50 km</desc>
<time>2011-09-24T12:24:57.79</time>
<name>8999</name>
</trkpt>
<trkpt lat="41.812828" lon="-1.822798">
<ele>1198.5</ele>
<speed>44.1</speed>
<course>307.1</course>
<desc>Speed 44.1 km/h Distance 39.51 km</desc>
<time>2011-09-24T12:24:58.86</time>
<name>9000</name>
</trkpt>
<trkpt lat="41.812977" lon="-1.823062">
<ele>1196.5</ele>
<speed>45.1</speed>
<course>305.9</course>
<desc>Speed 45.1 km/h Distance 39.54 km</desc>
<time>2011-09-24T12:25:00.79</time>
<name>9001</name>
</trkpt>
<trkpt lat="41.813045" lon="-1.823188">
<ele>1196.5</ele>
<speed>45.3</speed>
<course>307.7</course>
<desc>Speed 45.3 km/h Distance 39.55 km</desc>
<time>2011-09-24T12:25:01.80</time>
<name>9002</name>
</trkpt>
<trkpt lat="41.813115" lon="-1.823310">
<ele>1196.5</ele>
<speed>44.2</speed>
<course>316.6</course>
<desc>Speed 44.2 km/h Distance 39.56 km</desc>
<time>2011-09-24T12:25:02.79</time>
<name>9003</name>
</trkpt>
<trkpt lat="41.813308" lon="-1.823555">
<ele>1190.0</ele>
<speed>43.2</speed>
<course>307.9</course>
<desc>Speed 43.2 km/h Distance 39.59 km</desc>
<time>2011-09-24T12:25:04.79</time>
<name>9004</name>
</trkpt>
<trkpt lat="41.813375" lon="-1.823670">
<ele>1191.0</ele>
<speed>40.0</speed>
<course>309.1</course>
<desc>Speed 40.0 km/h Distance 39.60 km</desc>
<time>2011-09-24T12:25:05.79</time>
<name>9005</name>
</trkpt>
<trkpt lat="41.813447" lon="-1.823788">
<ele>1191.5</ele>
<speed>41.3</speed>
<course>319.5</course>
<desc>Speed 41.3 km/h Distance 39.62 km</desc>
<time>2011-09-24T12:25:06.79</time>
<name>9006</name>
</trkpt>
<trkpt lat="41.813640" lon="-1.824010">
<ele>1187.5</ele>
<speed>45.1</speed>
<course>322.3</course>
<desc>Speed 45.1 km/h Distance 39.65 km</desc>
<time>2011-09-24T12:25:08.78</time>
<name>9007</name>
</trkpt>
<trkpt lat="41.813732" lon="-1.824105">
<ele>1188.0</ele>
<speed>44.1</speed>
<course>320.8</course>
<desc>Speed 44.1 km/h Distance 39.66 km</desc>
<time>2011-09-24T12:25:09.78</time>
<name>9008</name>
</trkpt>
<trkpt lat="41.813818" lon="-1.824200">
<ele>1186.5</ele>
<speed>44.5</speed>
<course>318.6</course>
<desc>Speed 44.5 km/h Distance 39.67 km</desc>
<time>2011-09-24T12:25:10.79</time>
<name>9009</name>
</trkpt>
<trkpt lat="41.813975" lon="-1.824385">
<ele>1187.0</ele>
<speed>42.4</speed>
<course>319.1</course>
<desc>Speed 42.4 km/h Distance 39.69 km</desc>
<time>2011-09-24T12:25:12.78</time>
<name>9010</name>
</trkpt>
<trkpt lat="41.814057" lon="-1.824480">
<ele>1187.5</ele>
<speed>42.6</speed>
<course>319.0</course>
<desc>Speed 42.6 km/h Distance 39.71 km</desc>
<time>2011-09-24T12:25:13.78</time>
<name>9011</name>
</trkpt>
<trkpt lat="41.814137" lon="-1.824573">
<ele>1187.0</ele>
<speed>41.0</speed>
<course>317.7</course>
<desc>Speed 41.0 km/h Distance 39.72 km</desc>
<time>2011-09-24T12:25:14.78</time>
<name>9012</name>
</trkpt>
<trkpt lat="41.814212" lon="-1.824665">
<ele>1187.5</ele>
<speed>39.7</speed>
<course>322.2</course>
<desc>Speed 39.7 km/h Distance 39.73 km</desc>
<time>2011-09-24T12:25:15.79</time>
<name>9013</name>
</trkpt>
<trkpt lat="41.814297" lon="-1.824753">
<ele>1187.0</ele>
<speed>43.3</speed>
<course>326.5</course>
<desc>Speed 43.3 km/h Distance 39.74 km</desc>
<time>2011-09-24T12:25:16.78</time>
<name>9014</name>
</trkpt>
<trkpt lat="41.814387" lon="-1.824833">
<ele>1187.0</ele>
<speed>42.8</speed>
<course>330.8</course>
<desc>Speed 42.8 km/h Distance 39.75 km</desc>
<time>2011-09-24T12:25:17.78</time>
<name>9015</name>
</trkpt>
<trkpt lat="41.814480" lon="-1.824903">
<ele>1187.5</ele>
<speed>42.5</speed>
<course>336.9</course>
<desc>Speed 42.5 km/h Distance 39.77 km</desc>
<time>2011-09-24T12:25:18.78</time>
<name>9016</name>
</trkpt>
<trkpt lat="41.814620" lon="-1.824983">
<ele>1188.0</ele>
<speed>39.6</speed>
<course>350.1</course>
<desc>Speed 39.6 km/h Distance 39.78 km</desc>
<time>2011-09-24T12:25:20.78</time>
<name>9017</name>
</trkpt>
<trkpt lat="41.815003" lon="-1.825073">
<ele>1188.5</ele>
<speed>44.7</speed>
<course>350.2</course>
<desc>Speed 44.7 km/h Distance 39.83 km</desc>
<time>2011-09-24T12:25:23.76</time>
<name>9018</name>
</trkpt>
<trkpt lat="41.815118" lon="-1.825100">
<ele>1189.0</ele>
<speed>44.6</speed>
<course>352.2</course>
<desc>Speed 44.6 km/h Distance 39.84 km</desc>
<time>2011-09-24T12:25:24.77</time>
<name>9019</name>
</trkpt>
<trkpt lat="41.815237" lon="-1.825122">
<ele>1189.0</ele>
<speed>45.3</speed>
<course>358.3</course>
<desc>Speed 45.3 km/h Distance 39.85 km</desc>
<time>2011-09-24T12:25:25.92</time>
<name>9020</name>
</trkpt>
<trkpt lat="41.815488" lon="-1.825132">
<ele>1189.0</ele>
<speed>46.0</speed>
<course>357.7</course>
<desc>Speed 46.0 km/h Distance 39.88 km</desc>
<time>2011-09-24T12:25:27.77</time>
<name>9021</name>
</trkpt>
<trkpt lat="41.815922" lon="-1.825155">
<ele>1191.5</ele>
<speed>51.1</speed>
<course>344.6</course>
<desc>Speed 51.1 km/h Distance 39.93 km</desc>
<time>2011-09-24T12:25:30.77</time>
<name>9022</name>
</trkpt>
<trkpt lat="41.816147" lon="-1.825238">
<ele>1193.5</ele>
<speed>50.0</speed>
<course>330.4</course>
<desc>Speed 50.0 km/h Distance 39.95 km</desc>
<time>2011-09-24T12:25:32.77</time>
<name>9023</name>
</trkpt>
<trkpt lat="41.816357" lon="-1.825398">
<ele>1193.0</ele>
<speed>42.7</speed>
<course>319.6</course>
<desc>Speed 42.7 km/h Distance 39.98 km</desc>
<time>2011-09-24T12:25:34.77</time>
<name>9024</name>
</trkpt>
<trkpt lat="41.816450" lon="-1.825505">
<ele>1193.0</ele>
<speed>43.9</speed>
<course>314.2</course>
<desc>Speed 43.9 km/h Distance 39.99 km</desc>
<time>2011-09-24T12:25:35.77</time>
<name>9025</name>
</trkpt>
<trkpt lat="41.816533" lon="-1.825620">
<ele>1191.0</ele>
<speed>46.7</speed>
<course>309.1</course>
<desc>Speed 46.7 km/h Distance 40.01 km</desc>
<time>2011-09-24T12:25:36.76</time>
<name>9026</name>
</trkpt>
<trkpt lat="41.816605" lon="-1.825738">
<ele>1191.0</ele>
<speed>44.3</speed>
<course>305.7</course>
<desc>Speed 44.3 km/h Distance 40.02 km</desc>
<time>2011-09-24T12:25:37.76</time>
<name>9027</name>
</trkpt>
<trkpt lat="41.816667" lon="-1.825853">
<ele>1190.0</ele>
<speed>40.4</speed>
<course>309.5</course>
<desc>Speed 40.4 km/h Distance 40.03 km</desc>
<time>2011-09-24T12:25:38.77</time>
<name>9028</name>
</trkpt>
<trkpt lat="41.816738" lon="-1.825970">
<ele>1190.0</ele>
<speed>43.3</speed>
<course>310.6</course>
<desc>Speed 43.3 km/h Distance 40.05 km</desc>
<time>2011-09-24T12:25:39.76</time>
<name>9029</name>
</trkpt>
<trkpt lat="41.816812" lon="-1.826085">
<ele>1189.5</ele>
<speed>43.1</speed>
<course>310.1</course>
<desc>Speed 43.1 km/h Distance 40.06 km</desc>
<time>2011-09-24T12:25:40.77</time>
<name>9030</name>
</trkpt>
<trkpt lat="41.816882" lon="-1.826197">
<ele>1188.0</ele>
<speed>43.0</speed>
<course>334.5</course>
<desc>Speed 43.0 km/h Distance 40.07 km</desc>
<time>2011-09-24T12:25:41.76</time>
<name>9031</name>
</trkpt>
<trkpt lat="41.817072" lon="-1.826318">
<ele>1186.0</ele>
<speed>34.6</speed>
<course>48.2</course>
<desc>Speed 34.6 km/h Distance 40.09 km</desc>
<time>2011-09-24T12:25:44.76</time>
<name>9032</name>
</trkpt>
<trkpt lat="41.817158" lon="-1.826188">
<ele>1186.0</ele>
<speed>27.1</speed>
<course>80.6</course>
<desc>Speed 27.1 km/h Distance 40.11 km</desc>
<time>2011-09-24T12:25:46.76</time>
<name>9033</name>
</trkpt>
<trkpt lat="41.817170" lon="-1.826093">
<ele>1186.0</ele>
<speed>28.9</speed>
<course>86.2</course>
<desc>Speed 28.9 km/h Distance 40.12 km</desc>
<time>2011-09-24T12:25:47.75</time>
<name>9034</name>
</trkpt>
<trkpt lat="41.817175" lon="-1.825992">
<ele>1186.0</ele>
<speed>30.8</speed>
<course>108.9</course>
<desc>Speed 30.8 km/h Distance 40.12 km</desc>
<time>2011-09-24T12:25:48.76</time>
<name>9035</name>
</trkpt>
<trkpt lat="41.817152" lon="-1.825900">
<ele>1186.0</ele>
<speed>29.2</speed>
<course>118.0</course>
<desc>Speed 29.2 km/h Distance 40.13 km</desc>
<time>2011-09-24T12:25:49.76</time>
<name>9036</name>
</trkpt>
<trkpt lat="41.817117" lon="-1.825812">
<ele>1186.0</ele>
<speed>30.2</speed>
<course>115.2</course>
<desc>Speed 30.2 km/h Distance 40.14 km</desc>
<time>2011-09-24T12:25:50.76</time>
<name>9037</name>
</trkpt>
<trkpt lat="41.817082" lon="-1.825712">
<ele>1186.0</ele>
<speed>32.9</speed>
<course>133.2</course>
<desc>Speed 32.9 km/h Distance 40.15 km</desc>
<time>2011-09-24T12:25:51.75</time>
<name>9038</name>
</trkpt>
<trkpt lat="41.817023" lon="-1.825628">
<ele>1186.5</ele>
<speed>33.9</speed>
<course>115.7</course>
<desc>Speed 33.9 km/h Distance 40.16 km</desc>
<time>2011-09-24T12:25:52.76</time>
<name>9039</name>
</trkpt>
<trkpt lat="41.816983" lon="-1.825517">
<ele>1186.0</ele>
<speed>37.1</speed>
<course>118.4</course>
<desc>Speed 37.1 km/h Distance 40.17 km</desc>
<time>2011-09-24T12:25:53.75</time>
<name>9040</name>
</trkpt>
<trkpt lat="41.816935" lon="-1.825397">
<ele>1186.5</ele>
<speed>39.7</speed>
<course>112.9</course>
<desc>Speed 39.7 km/h Distance 40.18 km</desc>
<time>2011-09-24T12:25:54.75</time>
<name>9041</name>
</trkpt>
<trkpt lat="41.816897" lon="-1.825275">
<ele>1186.5</ele>
<speed>39.3</speed>
<course>112.9</course>
<desc>Speed 39.3 km/h Distance 40.19 km</desc>
<time>2011-09-24T12:25:55.76</time>
<name>9042</name>
</trkpt>
<trkpt lat="41.816858" lon="-1.825153">
<ele>1186.5</ele>
<speed>39.6</speed>
<course>116.9</course>
<desc>Speed 39.6 km/h Distance 40.20 km</desc>
<time>2011-09-24T12:25:56.75</time>
<name>9043</name>
</trkpt>
<trkpt lat="41.816812" lon="-1.825030">
<ele>1187.5</ele>
<speed>41.0</speed>
<course>117.9</course>
<desc>Speed 41.0 km/h Distance 40.21 km</desc>
<time>2011-09-24T12:25:57.75</time>
<name>9044</name>
</trkpt>
<trkpt lat="41.816765" lon="-1.824912">
<ele>1186.0</ele>
<speed>40.1</speed>
<course>119.6</course>
<desc>Speed 40.1 km/h Distance 40.23 km</desc>
<time>2011-09-24T12:25:58.75</time>
<name>9045</name>
</trkpt>
<trkpt lat="41.816715" lon="-1.824793">
<ele>1186.0</ele>
<speed>41.1</speed>
<course>121.5</course>
<desc>Speed 41.1 km/h Distance 40.24 km</desc>
<time>2011-09-24T12:25:59.75</time>
<name>9046</name>
</trkpt>
<trkpt lat="41.816662" lon="-1.824677">
<ele>1186.0</ele>
<speed>41.1</speed>
<course>122.3</course>
<desc>Speed 41.1 km/h Distance 40.25 km</desc>
<time>2011-09-24T12:26:00.75</time>
<name>9047</name>
</trkpt>
<trkpt lat="41.816608" lon="-1.824563">
<ele>1186.0</ele>
<speed>41.0</speed>
<course>111.1</course>
<desc>Speed 41.0 km/h Distance 40.26 km</desc>
<time>2011-09-24T12:26:01.75</time>
<name>9048</name>
</trkpt>
<trkpt lat="41.816577" lon="-1.824453">
<ele>1186.0</ele>
<speed>36.3</speed>
<course>133.1</course>
<desc>Speed 36.3 km/h Distance 40.27 km</desc>
<time>2011-09-24T12:26:02.75</time>
<name>9049</name>
</trkpt>
<trkpt lat="41.816515" lon="-1.824365">
<ele>1186.0</ele>
<speed>38.4</speed>
<course>115.5</course>
<desc>Speed 38.4 km/h Distance 40.28 km</desc>
<time>2011-09-24T12:26:03.74</time>
<name>9050</name>
</trkpt>
<trkpt lat="41.816453" lon="-1.824192">
<ele>1187.0</ele>
<speed>30.2</speed>
<course>102.4</course>
<desc>Speed 30.2 km/h Distance 40.29 km</desc>
<time>2011-09-24T12:26:05.75</time>
<name>9051</name>
</trkpt>
<trkpt lat="41.816440" lon="-1.824110">
<ele>1186.0</ele>
<speed>25.8</speed>
<course>73.6</course>
<desc>Speed 25.8 km/h Distance 40.30 km</desc>
<time>2011-09-24T12:26:06.74</time>
<name>9052</name>
</trkpt>
<trkpt lat="41.816458" lon="-1.824027">
<ele>1184.5</ele>
<speed>25.7</speed>
<course>27.1</course>
<desc>Speed 25.7 km/h Distance 40.31 km</desc>
<time>2011-09-24T12:26:07.74</time>
<name>9053</name>
</trkpt>
<trkpt lat="41.816592" lon="-1.823935">
<ele>1182.0</ele>
<speed>16.1</speed>
<course>342.2</course>
<desc>Speed 16.1 km/h Distance 40.33 km</desc>
<time>2011-09-24T12:26:09.74</time>
<name>9054</name>
</trkpt>
<trkpt lat="41.816920" lon="-1.824077">
<ele>1182.0</ele>
<speed>27.6</speed>
<course>306.8</course>
<desc>Speed 27.6 km/h Distance 40.36 km</desc>
<time>2011-09-24T12:26:13.73</time>
<name>9055</name>
</trkpt>
<trkpt lat="41.816960" lon="-1.824148">
<ele>1181.5</ele>
<speed>25.6</speed>
<course>322.3</course>
<desc>Speed 25.6 km/h Distance 40.37 km</desc>
<time>2011-09-24T12:26:14.74</time>
<name>9056</name>
</trkpt>
<trkpt lat="41.817222" lon="-1.824420">
<ele>1181.5</ele>
<speed>39.2</speed>
<course>320.0</course>
<desc>Speed 39.2 km/h Distance 40.41 km</desc>
<time>2011-09-24T12:26:17.74</time>
<name>9057</name>
</trkpt>
<trkpt lat="41.817300" lon="-1.824508">
<ele>1181.5</ele>
<speed>41.2</speed>
<course>314.9</course>
<desc>Speed 41.2 km/h Distance 40.42 km</desc>
<time>2011-09-24T12:26:18.73</time>
<name>9058</name>
</trkpt>
<trkpt lat="41.817372" lon="-1.824605">
<ele>1181.5</ele>
<speed>40.9</speed>
<course>313.8</course>
<desc>Speed 40.9 km/h Distance 40.43 km</desc>
<time>2011-09-24T12:26:19.74</time>
<name>9059</name>
</trkpt>
<trkpt lat="41.817438" lon="-1.824698">
<ele>1182.0</ele>
<speed>38.6</speed>
<course>331.8</course>
<desc>Speed 38.6 km/h Distance 40.44 km</desc>
<time>2011-09-24T12:26:20.74</time>
<name>9060</name>
</trkpt>
<trkpt lat="41.817552" lon="-1.824780">
<ele>1181.5</ele>
<speed>35.4</speed>
<course>39.8</course>
<desc>Speed 35.4 km/h Distance 40.46 km</desc>
<time>2011-09-24T12:26:23.73</time>
<name>9061</name>
</trkpt>
<trkpt lat="41.817678" lon="-1.824638">
<ele>1179.5</ele>
<speed>36.1</speed>
<course>109.7</course>
<desc>Speed 36.1 km/h Distance 40.47 km</desc>
<time>2011-09-24T12:26:25.72</time>
<name>9062</name>
</trkpt>
<trkpt lat="41.817652" lon="-1.824538">
<ele>1178.5</ele>
<speed>33.4</speed>
<course>82.5</course>
<desc>Speed 33.4 km/h Distance 40.48 km</desc>
<time>2011-09-24T12:26:26.72</time>
<name>9063</name>
</trkpt>
<trkpt lat="41.817662" lon="-1.824437">
<ele>1176.5</ele>
<speed>30.5</speed>
<course>90.0</course>
<desc>Speed 30.5 km/h Distance 40.49 km</desc>
<time>2011-09-24T12:26:27.73</time>
<name>9064</name>
</trkpt>
<trkpt lat="41.817662" lon="-1.824318">
<ele>1175.5</ele>
<speed>35.4</speed>
<course>90.0</course>
<desc>Speed 35.4 km/h Distance 40.50 km</desc>
<time>2011-09-24T12:26:28.72</time>
<name>9065</name>
</trkpt>
<trkpt lat="41.817662" lon="-1.824193">
<ele>1174.0</ele>
<speed>37.4</speed>
<course>104.1</course>
<desc>Speed 37.4 km/h Distance 40.51 km</desc>
<time>2011-09-24T12:26:29.73</time>
<name>9066</name>
</trkpt>
<trkpt lat="41.817637" lon="-1.824060">
<ele>1174.0</ele>
<speed>42.1</speed>
<course>97.5</course>
<desc>Speed 42.1 km/h Distance 40.52 km</desc>
<time>2011-09-24T12:26:30.72</time>
<name>9067</name>
</trkpt>
<trkpt lat="41.817623" lon="-1.823925">
<ele>1173.5</ele>
<speed>41.1</speed>
<course>96.3</course>
<desc>Speed 41.1 km/h Distance 40.53 km</desc>
<time>2011-09-24T12:26:31.72</time>
<name>9068</name>
</trkpt>
<trkpt lat="41.817612" lon="-1.823783">
<ele>1173.5</ele>
<speed>43.1</speed>
<course>99.1</course>
<desc>Speed 43.1 km/h Distance 40.55 km</desc>
<time>2011-09-24T12:26:32.72</time>
<name>9069</name>
</trkpt>
<trkpt lat="41.817595" lon="-1.823643">
<ele>1172.5</ele>
<speed>42.9</speed>
<course>103.3</course>
<desc>Speed 42.9 km/h Distance 40.56 km</desc>
<time>2011-09-24T12:26:33.73</time>
<name>9070</name>
</trkpt>
<trkpt lat="41.817570" lon="-1.823502">
<ele>1172.0</ele>
<speed>43.5</speed>
<course>102.6</course>
<desc>Speed 43.5 km/h Distance 40.57 km</desc>
<time>2011-09-24T12:26:34.73</time>
<name>9071</name>
</trkpt>
<trkpt lat="41.817547" lon="-1.823362">
<ele>1171.5</ele>
<speed>43.1</speed>
<course>107.3</course>
<desc>Speed 43.1 km/h Distance 40.58 km</desc>
<time>2011-09-24T12:26:35.72</time>
<name>9072</name>
</trkpt>
<trkpt lat="41.817515" lon="-1.823225">
<ele>1171.5</ele>
<speed>43.0</speed>
<course>104.7</course>
<desc>Speed 43.0 km/h Distance 40.59 km</desc>
<time>2011-09-24T12:26:36.72</time>
<name>9073</name>
</trkpt>
<trkpt lat="41.817488" lon="-1.823088">
<ele>1171.0</ele>
<speed>42.2</speed>
<course>108.5</course>
<desc>Speed 42.2 km/h Distance 40.61 km</desc>
<time>2011-09-24T12:26:37.72</time>
<name>9074</name>
</trkpt>
<trkpt lat="41.817455" lon="-1.822955">
<ele>1171.0</ele>
<speed>43.3</speed>
<course>111.1</course>
<desc>Speed 43.3 km/h Distance 40.62 km</desc>
<time>2011-09-24T12:26:38.72</time>
<name>9075</name>
</trkpt>
<trkpt lat="41.817417" lon="-1.822822">
<ele>1171.0</ele>
<speed>43.0</speed>
<course>113.8</course>
<desc>Speed 43.0 km/h Distance 40.63 km</desc>
<time>2011-09-24T12:26:39.72</time>
<name>9076</name>
</trkpt>
<trkpt lat="41.817378" lon="-1.822705">
<ele>1170.5</ele>
<speed>40.2</speed>
<course>107.0</course>
<desc>Speed 40.2 km/h Distance 40.64 km</desc>
<time>2011-09-24T12:26:40.72</time>
<name>9077</name>
</trkpt>
<trkpt lat="41.817353" lon="-1.822595">
<ele>1171.5</ele>
<speed>35.2</speed>
<course>116.8</course>
<desc>Speed 35.2 km/h Distance 40.65 km</desc>
<time>2011-09-24T12:26:41.72</time>
<name>9078</name>
</trkpt>
<trkpt lat="41.817315" lon="-1.822493">
<ele>1170.5</ele>
<speed>35.1</speed>
<course>120.6</course>
<desc>Speed 35.1 km/h Distance 40.66 km</desc>
<time>2011-09-24T12:26:42.72</time>
<name>9079</name>
</trkpt>
<trkpt lat="41.817278" lon="-1.822410">
<ele>1169.5</ele>
<speed>31.7</speed>
<course>135.4</course>
<desc>Speed 31.7 km/h Distance 40.67 km</desc>
<time>2011-09-24T12:26:43.72</time>
<name>9080</name>
</trkpt>
<trkpt lat="41.817207" lon="-1.822315">
<ele>1165.5</ele>
<speed>27.2</speed>
<course>162.3</course>
<desc>Speed 27.2 km/h Distance 40.68 km</desc>
<time>2011-09-24T12:26:45.71</time>
<name>9081</name>
</trkpt>
<trkpt lat="41.817148" lon="-1.822290">
<ele>1164.5</ele>
<speed>26.4</speed>
<course>168.2</course>
<desc>Speed 26.4 km/h Distance 40.68 km</desc>
<time>2011-09-24T12:26:46.71</time>
<name>9082</name>
</trkpt>
<trkpt lat="41.817095" lon="-1.822275">
<ele>1163.0</ele>
<speed>24.9</speed>
<course>168.5</course>
<desc>Speed 24.9 km/h Distance 40.69 km</desc>
<time>2011-09-24T12:26:47.72</time>
<name>9083</name>
</trkpt>
<trkpt lat="41.817040" lon="-1.822260">
<ele>1162.5</ele>
<speed>25.6</speed>
<course>179.1</course>
<desc>Speed 25.6 km/h Distance 40.70 km</desc>
<time>2011-09-24T12:26:48.71</time>
<name>9084</name>
</trkpt>
<trkpt lat="41.816980" lon="-1.822258">
<ele>1157.5</ele>
<speed>20.1</speed>
<course>172.7</course>
<desc>Speed 20.1 km/h Distance 40.70 km</desc>
<time>2011-09-24T12:26:50.71</time>
<name>9085</name>
</trkpt>
<trkpt lat="41.816932" lon="-1.822250">
<ele>1157.5</ele>
<speed>19.9</speed>
<course>179.4</course>
<desc>Speed 19.9 km/h Distance 40.71 km</desc>
<time>2011-09-24T12:26:51.71</time>
<name>9086</name>
</trkpt>
<trkpt lat="41.816885" lon="-1.822250">
<ele>1157.0</ele>
<speed>19.0</speed>
<course>177.3</course>
<desc>Speed 19.0 km/h Distance 40.71 km</desc>
<time>2011-09-24T12:26:52.71</time>
<name>9087</name>
</trkpt>
<trkpt lat="41.816837" lon="-1.822247">
<ele>1156.5</ele>
<speed>19.1</speed>
<course>179.4</course>
<desc>Speed 19.1 km/h Distance 40.72 km</desc>
<time>2011-09-24T12:26:53.71</time>
<name>9088</name>
</trkpt>
<trkpt lat="41.816790" lon="-1.822247">
<ele>1156.5</ele>
<speed>19.5</speed>
<course>179.4</course>
<desc>Speed 19.5 km/h Distance 40.72 km</desc>
<time>2011-09-24T12:26:54.71</time>
<name>9089</name>
</trkpt>
<trkpt lat="41.816743" lon="-1.822247">
<ele>1156.5</ele>
<speed>19.2</speed>
<course>174.5</course>
<desc>Speed 19.2 km/h Distance 40.73 km</desc>
<time>2011-09-24T12:26:55.70</time>
<name>9090</name>
</trkpt>
<trkpt lat="41.816693" lon="-1.822240">
<ele>1156.5</ele>
<speed>20.2</speed>
<course>179.6</course>
<desc>Speed 20.2 km/h Distance 40.74 km</desc>
<time>2011-09-24T12:26:56.71</time>
<name>9091</name>
</trkpt>
<trkpt lat="41.816645" lon="-1.822240">
<ele>1156.5</ele>
<speed>19.8</speed>
<course>182.8</course>
<desc>Speed 19.8 km/h Distance 40.74 km</desc>
<time>2011-09-24T12:26:57.71</time>
<name>9092</name>
</trkpt>
<trkpt lat="41.816595" lon="-1.822243">
<ele>1156.0</ele>
<speed>20.6</speed>
<course>183.2</course>
<desc>Speed 20.6 km/h Distance 40.75 km</desc>
<time>2011-09-24T12:26:58.71</time>
<name>9093</name>
</trkpt>
<trkpt lat="41.816550" lon="-1.822247">
<ele>1155.0</ele>
<speed>20.1</speed>
<course>179.5</course>
<desc>Speed 20.1 km/h Distance 40.75 km</desc>
<time>2011-09-24T12:26:59.70</time>
<name>9094</name>
</trkpt>
<trkpt lat="41.816500" lon="-1.822247">
<ele>1155.0</ele>
<speed>20.1</speed>
<course>178.1</course>
<desc>Speed 20.1 km/h Distance 40.76 km</desc>
<time>2011-09-24T12:27:00.71</time>
<name>9095</name>
</trkpt>
<trkpt lat="41.816457" lon="-1.822245">
<ele>1155.0</ele>
<speed>17.2</speed>
<course>172.9</course>
<desc>Speed 17.2 km/h Distance 40.76 km</desc>
<time>2011-09-24T12:27:01.71</time>
<name>9096</name>
</trkpt>
<trkpt lat="41.816427" lon="-1.822240">
<ele>1154.0</ele>
<speed>13.1</speed>
<course>172.2</course>
<desc>Speed 13.1 km/h Distance 40.77 km</desc>
<time>2011-09-24T12:27:02.70</time>
<name>9097</name>
</trkpt>
<trkpt lat="41.816400" lon="-1.822235">
<ele>1154.0</ele>
<speed>10.8</speed>
<course>177.8</course>
<desc>Speed 10.8 km/h Distance 40.77 km</desc>
<time>2011-09-24T12:27:03.70</time>
<name>9098</name>
</trkpt>
<trkpt lat="41.816377" lon="-1.822233">
<ele>1154.0</ele>
<speed>8.7</speed>
<course>183.7</course>
<desc>Speed 8.7 km/h Distance 40.77 km</desc>
<time>2011-09-24T12:27:04.70</time>
<name>9099</name>
</trkpt>
<trkpt lat="41.816357" lon="-1.822235">
<ele>1154.0</ele>
<speed>7.9</speed>
<course>171.3</course>
<desc>Speed 7.9 km/h Distance 40.77 km</desc>
<time>2011-09-24T12:27:05.70</time>
<name>9100</name>
</trkpt>
<trkpt lat="41.816340" lon="-1.822232">
<ele>1154.0</ele>
<speed>7.2</speed>
<course>168.6</course>
<desc>Speed 7.2 km/h Distance 40.78 km</desc>
<time>2011-09-24T12:27:06.70</time>
<name>9101</name>
</trkpt>
<trkpt lat="41.816322" lon="-1.822227">
<ele>1154.0</ele>
<speed>6.7</speed>
<course>180.0</course>
<desc>Speed 6.7 km/h Distance 40.78 km</desc>
<time>2011-09-24T12:27:07.71</time>
<name>9102</name>
</trkpt>
<trkpt lat="41.816310" lon="-1.822227">
<ele>1154.0</ele>
<speed>4.2</speed>
<course>192.6</course>
<desc>Speed 4.2 km/h Distance 40.78 km</desc>
<time>2011-09-24T12:27:08.70</time>
<name>9103</name>
</trkpt>
<trkpt lat="41.816307" lon="-1.822228">
<ele>1154.0</ele>
<speed>1.2</speed>
<course>355.0</course>
<desc>Speed 1.2 km/h Distance 40.78 km</desc>
<time>2011-09-24T12:27:09.70</time>
<name>9104</name>
</trkpt>
<trkpt lat="41.816315" lon="-1.822230">
<ele>1153.5</ele>
<speed>4.1</speed>
<course>193.4</course>
<desc>Speed 4.1 km/h Distance 40.78 km</desc>
<time>2011-09-24T12:27:10.70</time>
<name>9105</name>
</trkpt>
<trkpt lat="41.816305" lon="-1.822233">
<ele>1155.5</ele>
<speed>1.9</speed>
<course>270.0</course>
<desc>Speed 1.9 km/h Distance 40.78 km</desc>
<time>2011-09-24T12:27:11.70</time>
<name>9106</name>
</trkpt>
<trkpt lat="41.816305" lon="-1.822237">
<ele>1156.0</ele>
<speed>1.4</speed>
<course>23.6</course>
<desc>Speed 1.4 km/h Distance 40.78 km</desc>
<time>2011-09-24T12:27:13.81</time>
<name>9107</name>
</trkpt>
<trkpt lat="41.816373" lon="-1.822197">
<ele>1157.0</ele>
<speed>1.1</speed>
<course>23.2</course>
<desc>Speed 1.1 km/h Distance 40.79 km</desc>
<time>2011-09-24T12:27:14.80</time>
<name>9108</name>
</trkpt>
<trkpt lat="41.816385" lon="-1.822190">
<ele>1157.5</ele>
<speed>1.7</speed>
<course>126.6</course>
<desc>Speed 1.7 km/h Distance 40.79 km</desc>
<time>2011-09-24T12:27:15.80</time>
<name>9109</name>
</trkpt>
<trkpt lat="41.816377" lon="-1.822175">
<ele>1157.5</ele>
<speed>6.5</speed>
<course>167.7</course>
<desc>Speed 6.5 km/h Distance 40.79 km</desc>
<time>2011-09-24T12:27:17.80</time>
<name>9110</name>
</trkpt>
<trkpt lat="41.816337" lon="-1.822163">
<ele>1156.5</ele>
<speed>6.4</speed>
<course>162.9</course>
<desc>Speed 6.4 km/h Distance 40.80 km</desc>
<time>2011-09-24T12:27:19.80</time>
<name>9111</name>
</trkpt>
<trkpt lat="41.816252" lon="-1.822128">
<ele>1157.0</ele>
<speed>18.4</speed>
<course>173.6</course>
<desc>Speed 18.4 km/h Distance 40.81 km</desc>
<time>2011-09-24T12:27:21.79</time>
<name>9112</name>
</trkpt>
<trkpt lat="41.816130" lon="-1.822110">
<ele>1155.5</ele>
<speed>22.8</speed>
<course>174.8</course>
<desc>Speed 22.8 km/h Distance 40.82 km</desc>
<time>2011-09-24T12:27:23.79</time>
<name>9113</name>
</trkpt>
<trkpt lat="41.816062" lon="-1.822102">
<ele>1155.0</ele>
<speed>22.9</speed>
<course>173.9</course>
<desc>Speed 22.9 km/h Distance 40.83 km</desc>
<time>2011-09-24T12:27:24.78</time>
<name>9114</name>
</trkpt>
<trkpt lat="41.815992" lon="-1.822092">
<ele>1155.0</ele>
<speed>23.0</speed>
<course>172.0</course>
<desc>Speed 23.0 km/h Distance 40.84 km</desc>
<time>2011-09-24T12:27:25.79</time>
<name>9115</name>
</trkpt>
<trkpt lat="41.815868" lon="-1.822068">
<ele>1154.0</ele>
<speed>20.1</speed>
<course>166.9</course>
<desc>Speed 20.1 km/h Distance 40.85 km</desc>
<time>2011-09-24T12:27:27.78</time>
<name>9116</name>
</trkpt>
<trkpt lat="41.815820" lon="-1.822053">
<ele>1153.0</ele>
<speed>17.8</speed>
<course>162.9</course>
<desc>Speed 17.8 km/h Distance 40.86 km</desc>
<time>2011-09-24T12:27:28.77</time>
<name>9117</name>
</trkpt>
<trkpt lat="41.815772" lon="-1.822033">
<ele>1153.5</ele>
<speed>17.7</speed>
<course>162.0</course>
<desc>Speed 17.7 km/h Distance 40.86 km</desc>
<time>2011-09-24T12:27:29.78</time>
<name>9118</name>
</trkpt>
<trkpt lat="41.815718" lon="-1.822010">
<ele>1153.5</ele>
<speed>19.8</speed>
<course>162.9</course>
<desc>Speed 19.8 km/h Distance 40.87 km</desc>
<time>2011-09-24T12:27:30.77</time>
<name>9119</name>
</trkpt>
<trkpt lat="41.815670" lon="-1.821990">
<ele>1153.0</ele>
<speed>20.1</speed>
<course>154.9</course>
<desc>Speed 20.1 km/h Distance 40.87 km</desc>
<time>2011-09-24T12:27:31.78</time>
<name>9120</name>
</trkpt>
<trkpt lat="41.815625" lon="-1.821962">
<ele>1152.5</ele>
<speed>19.4</speed>
<course>161.0</course>
<desc>Speed 19.4 km/h Distance 40.88 km</desc>
<time>2011-09-24T12:27:32.78</time>
<name>9121</name>
</trkpt>
<trkpt lat="41.815582" lon="-1.821942">
<ele>1151.5</ele>
<speed>17.5</speed>
<course>159.6</course>
<desc>Speed 17.5 km/h Distance 40.88 km</desc>
<time>2011-09-24T12:27:33.78</time>
<name>9122</name>
</trkpt>
<trkpt lat="41.815535" lon="-1.821918">
<ele>1150.5</ele>
<speed>17.8</speed>
<course>158.2</course>
<desc>Speed 17.8 km/h Distance 40.89 km</desc>
<time>2011-09-24T12:27:34.78</time>
<name>9123</name>
</trkpt>
<trkpt lat="41.815488" lon="-1.821893">
<ele>1150.0</ele>
<speed>18.2</speed>
<course>158.4</course>
<desc>Speed 18.2 km/h Distance 40.89 km</desc>
<time>2011-09-24T12:27:35.78</time>
<name>9124</name>
</trkpt>
<trkpt lat="41.815435" lon="-1.821865">
<ele>1150.5</ele>
<speed>20.4</speed>
<course>133.8</course>
<desc>Speed 20.4 km/h Distance 40.90 km</desc>
<time>2011-09-24T12:27:36.77</time>
<name>9125</name>
</trkpt>
<trkpt lat="41.815410" lon="-1.821830">
<ele>1151.5</ele>
<speed>15.3</speed>
<course>140.8</course>
<desc>Speed 15.3 km/h Distance 40.91 km</desc>
<time>2011-09-24T12:27:37.77</time>
<name>9126</name>
</trkpt>
<trkpt lat="41.815375" lon="-1.821792">
<ele>1151.5</ele>
<speed>16.5</speed>
<course>148.5</course>
<desc>Speed 16.5 km/h Distance 40.91 km</desc>
<time>2011-09-24T12:27:38.77</time>
<name>9127</name>
</trkpt>
<trkpt lat="41.815328" lon="-1.821753">
<ele>1152.5</ele>
<speed>20.2</speed>
<course>146.2</course>
<desc>Speed 20.2 km/h Distance 40.92 km</desc>
<time>2011-09-24T12:27:39.77</time>
<name>9128</name>
</trkpt>
<trkpt lat="41.815280" lon="-1.821710">
<ele>1154.5</ele>
<speed>21.1</speed>
<course>142.2</course>
<desc>Speed 21.1 km/h Distance 40.92 km</desc>
<time>2011-09-24T12:27:40.77</time>
<name>9129</name>
</trkpt>
<trkpt lat="41.815240" lon="-1.821668">
<ele>1155.5</ele>
<speed>20.3</speed>
<course>144.5</course>
<desc>Speed 20.3 km/h Distance 40.93 km</desc>
<time>2011-09-24T12:27:41.77</time>
<name>9130</name>
</trkpt>
<trkpt lat="41.815202" lon="-1.821632">
<ele>1156.0</ele>
<speed>18.5</speed>
<course>141.9</course>
<desc>Speed 18.5 km/h Distance 40.93 km</desc>
<time>2011-09-24T12:27:42.77</time>
<name>9131</name>
</trkpt>
<trkpt lat="41.815168" lon="-1.821597">
<ele>1156.0</ele>
<speed>16.2</speed>
<course>144.8</course>
<desc>Speed 16.2 km/h Distance 40.94 km</desc>
<time>2011-09-24T12:27:43.77</time>
<name>9132</name>
</trkpt>
<trkpt lat="41.815137" lon="-1.821567">
<ele>1155.0</ele>
<speed>17.1</speed>
<course>144.6</course>
<desc>Speed 17.1 km/h Distance 40.94 km</desc>
<time>2011-09-24T12:27:44.76</time>
<name>9133</name>
</trkpt>
<trkpt lat="41.815100" lon="-1.821532">
<ele>1156.0</ele>
<speed>16.5</speed>
<course>134.0</course>
<desc>Speed 16.5 km/h Distance 40.95 km</desc>
<time>2011-09-24T12:27:45.77</time>
<name>9134</name>
</trkpt>
<trkpt lat="41.815070" lon="-1.821490">
<ele>1156.0</ele>
<speed>16.2</speed>
<course>128.1</course>
<desc>Speed 16.2 km/h Distance 40.95 km</desc>
<time>2011-09-24T12:27:46.77</time>
<name>9135</name>
</trkpt>
<trkpt lat="41.815047" lon="-1.821450">
<ele>1156.0</ele>
<speed>15.5</speed>
<course>140.4</course>
<desc>Speed 15.5 km/h Distance 40.96 km</desc>
<time>2011-09-24T12:27:47.76</time>
<name>9136</name>
</trkpt>
<trkpt lat="41.815017" lon="-1.821417">
<ele>1156.0</ele>
<speed>14.5</speed>
<course>138.8</course>
<desc>Speed 14.5 km/h Distance 40.96 km</desc>
<time>2011-09-24T12:27:48.77</time>
<name>9137</name>
</trkpt>
<trkpt lat="41.814988" lon="-1.821383">
<ele>1156.0</ele>
<speed>14.6</speed>
<course>140.7</course>
<desc>Speed 14.6 km/h Distance 40.97 km</desc>
<time>2011-09-24T12:27:49.76</time>
<name>9138</name>
</trkpt>
<trkpt lat="41.814955" lon="-1.821347">
<ele>1156.5</ele>
<speed>15.8</speed>
<course>136.4</course>
<desc>Speed 15.8 km/h Distance 40.97 km</desc>
<time>2011-09-24T12:27:50.76</time>
<name>9139</name>
</trkpt>
<trkpt lat="41.814925" lon="-1.821308">
<ele>1156.5</ele>
<speed>15.2</speed>
<course>138.8</course>
<desc>Speed 15.2 km/h Distance 40.97 km</desc>
<time>2011-09-24T12:27:51.76</time>
<name>9140</name>
</trkpt>
<trkpt lat="41.814897" lon="-1.821275">
<ele>1156.5</ele>
<speed>14.1</speed>
<course>134.7</course>
<desc>Speed 14.1 km/h Distance 40.98 km</desc>
<time>2011-09-24T12:27:52.76</time>
<name>9141</name>
</trkpt>
<trkpt lat="41.814873" lon="-1.821243">
<ele>1155.5</ele>
<speed>13.0</speed>
<course>135.2</course>
<desc>Speed 13.0 km/h Distance 40.98 km</desc>
<time>2011-09-24T12:27:53.76</time>
<name>9142</name>
</trkpt>
<trkpt lat="41.814848" lon="-1.821210">
<ele>1155.5</ele>
<speed>13.2</speed>
<course>128.9</course>
<desc>Speed 13.2 km/h Distance 40.99 km</desc>
<time>2011-09-24T12:27:54.76</time>
<name>9143</name>
</trkpt>
<trkpt lat="41.814833" lon="-1.821185">
<ele>1153.0</ele>
<speed>14.1</speed>
<course>135.2</course>
<desc>Speed 14.1 km/h Distance 40.99 km</desc>
<time>2011-09-24T12:27:55.76</time>
<name>9144</name>
</trkpt>
<trkpt lat="41.814808" lon="-1.821152">
<ele>1152.5</ele>
<speed>13.9</speed>
<course>132.6</course>
<desc>Speed 13.9 km/h Distance 40.99 km</desc>
<time>2011-09-24T12:27:56.77</time>
<name>9145</name>
</trkpt>
<trkpt lat="41.814787" lon="-1.821120">
<ele>1152.5</ele>
<speed>12.6</speed>
<course>126.2</course>
<desc>Speed 12.6 km/h Distance 41.00 km</desc>
<time>2011-09-24T12:27:57.76</time>
<name>9146</name>
</trkpt>
<trkpt lat="41.814767" lon="-1.821083">
<ele>1152.5</ele>
<speed>13.5</speed>
<course>126.2</course>
<desc>Speed 13.5 km/h Distance 41.00 km</desc>
<time>2011-09-24T12:27:58.76</time>
<name>9147</name>
</trkpt>
<trkpt lat="41.814747" lon="-1.821047">
<ele>1152.5</ele>
<speed>13.8</speed>
<course>125.0</course>
<desc>Speed 13.8 km/h Distance 41.00 km</desc>
<time>2011-09-24T12:27:59.75</time>
<name>9148</name>
</trkpt>
<trkpt lat="41.814727" lon="-1.821008">
<ele>1153.0</ele>
<speed>13.5</speed>
<course>127.0</course>
<desc>Speed 13.5 km/h Distance 41.01 km</desc>
<time>2011-09-24T12:28:00.75</time>
<name>9149</name>
</trkpt>
<trkpt lat="41.814712" lon="-1.820982">
<ele>1151.5</ele>
<speed>9.6</speed>
<course>133.4</course>
<desc>Speed 9.6 km/h Distance 41.01 km</desc>
<time>2011-09-24T12:28:01.75</time>
<name>9150</name>
</trkpt>
<trkpt lat="41.814692" lon="-1.820953">
<ele>1150.5</ele>
<speed>11.2</speed>
<course>139.6</course>
<desc>Speed 11.2 km/h Distance 41.01 km</desc>
<time>2011-09-24T12:28:02.75</time>
<name>9151</name>
</trkpt>
<trkpt lat="41.814668" lon="-1.820927">
<ele>1149.5</ele>
<speed>11.7</speed>
<course>136.2</course>
<desc>Speed 11.7 km/h Distance 41.02 km</desc>
<time>2011-09-24T12:28:03.75</time>
<name>9152</name>
</trkpt>
<trkpt lat="41.814645" lon="-1.820897">
<ele>1149.5</ele>
<speed>12.9</speed>
<course>133.8</course>
<desc>Speed 12.9 km/h Distance 41.02 km</desc>
<time>2011-09-24T12:28:04.76</time>
<name>9153</name>
</trkpt>
<trkpt lat="41.814620" lon="-1.820862">
<ele>1149.5</ele>
<speed>13.6</speed>
<course>128.4</course>
<desc>Speed 13.6 km/h Distance 41.03 km</desc>
<time>2011-09-24T12:28:05.75</time>
<name>9154</name>
</trkpt>
<trkpt lat="41.814598" lon="-1.820825">
<ele>1149.5</ele>
<speed>14.3</speed>
<course>126.0</course>
<desc>Speed 14.3 km/h Distance 41.03 km</desc>
<time>2011-09-24T12:28:06.75</time>
<name>9155</name>
</trkpt>
<trkpt lat="41.814577" lon="-1.820785">
<ele>1149.0</ele>
<speed>14.3</speed>
<course>132.5</course>
<desc>Speed 14.3 km/h Distance 41.03 km</desc>
<time>2011-09-24T12:28:07.76</time>
<name>9156</name>
</trkpt>
<trkpt lat="41.814552" lon="-1.820748">
<ele>1149.0</ele>
<speed>14.5</speed>
<course>129.2</course>
<desc>Speed 14.5 km/h Distance 41.04 km</desc>
<time>2011-09-24T12:28:08.74</time>
<name>9157</name>
</trkpt>
<trkpt lat="41.814528" lon="-1.820710">
<ele>1149.0</ele>
<speed>14.4</speed>
<course>126.2</course>
<desc>Speed 14.4 km/h Distance 41.04 km</desc>
<time>2011-09-24T12:28:09.74</time>
<name>9158</name>
</trkpt>
<trkpt lat="41.814508" lon="-1.820673">
<ele>1149.0</ele>
<speed>13.8</speed>
<course>122.6</course>
<desc>Speed 13.8 km/h Distance 41.05 km</desc>
<time>2011-09-24T12:28:10.75</time>
<name>9159</name>
</trkpt>
<trkpt lat="41.814492" lon="-1.820638">
<ele>1149.0</ele>
<speed>12.3</speed>
<course>119.2</course>
<desc>Speed 12.3 km/h Distance 41.05 km</desc>
<time>2011-09-24T12:28:11.75</time>
<name>9160</name>
</trkpt>
<trkpt lat="41.814475" lon="-1.820598">
<ele>1149.5</ele>
<speed>13.6</speed>
<course>114.1</course>
<desc>Speed 13.6 km/h Distance 41.05 km</desc>
<time>2011-09-24T12:28:12.74</time>
<name>9161</name>
</trkpt>
<trkpt lat="41.814460" lon="-1.820553">
<ele>1150.0</ele>
<speed>13.8</speed>
<course>114.9</course>
<desc>Speed 13.8 km/h Distance 41.06 km</desc>
<time>2011-09-24T12:28:13.74</time>
<name>9162</name>
</trkpt>
<trkpt lat="41.814445" lon="-1.820510">
<ele>1150.5</ele>
<speed>13.7</speed>
<course>116.4</course>
<desc>Speed 13.7 km/h Distance 41.06 km</desc>
<time>2011-09-24T12:28:14.74</time>
<name>9163</name>
</trkpt>
<trkpt lat="41.814428" lon="-1.820465">
<ele>1151.0</ele>
<speed>13.8</speed>
<course>114.1</course>
<desc>Speed 13.8 km/h Distance 41.06 km</desc>
<time>2011-09-24T12:28:15.74</time>
<name>9164</name>
</trkpt>
<trkpt lat="41.814413" lon="-1.820420">
<ele>1152.5</ele>
<speed>14.0</speed>
<course>112.4</course>
<desc>Speed 14.0 km/h Distance 41.07 km</desc>
<time>2011-09-24T12:28:16.74</time>
<name>9165</name>
</trkpt>
<trkpt lat="41.814400" lon="-1.820377">
<ele>1153.5</ele>
<speed>12.7</speed>
<course>96.7</course>
<desc>Speed 12.7 km/h Distance 41.07 km</desc>
<time>2011-09-24T12:28:17.75</time>
<name>9166</name>
</trkpt>
<trkpt lat="41.814397" lon="-1.820338">
<ele>1154.0</ele>
<speed>10.4</speed>
<course>83.0</course>
<desc>Speed 10.4 km/h Distance 41.08 km</desc>
<time>2011-09-24T12:28:18.73</time>
<name>9167</name>
</trkpt>
<trkpt lat="41.814400" lon="-1.820302">
<ele>1154.5</ele>
<speed>10.8</speed>
<course>86.2</course>
<desc>Speed 10.8 km/h Distance 41.08 km</desc>
<time>2011-09-24T12:28:19.73</time>
<name>9168</name>
</trkpt>
<trkpt lat="41.814402" lon="-1.820268">
<ele>1155.0</ele>
<speed>9.2</speed>
<course>118.2</course>
<desc>Speed 9.2 km/h Distance 41.08 km</desc>
<time>2011-09-24T12:28:20.73</time>
<name>9169</name>
</trkpt>
<trkpt lat="41.814388" lon="-1.820235">
<ele>1155.5</ele>
<speed>9.8</speed>
<course>110.1</course>
<desc>Speed 9.8 km/h Distance 41.08 km</desc>
<time>2011-09-24T12:28:21.73</time>
<name>9170</name>
</trkpt>
<trkpt lat="41.814378" lon="-1.820198">
<ele>1156.5</ele>
<speed>10.9</speed>
<course>105.6</course>
<desc>Speed 10.9 km/h Distance 41.09 km</desc>
<time>2011-09-24T12:28:22.73</time>
<name>9171</name>
</trkpt>
<trkpt lat="41.814370" lon="-1.820158">
<ele>1157.5</ele>
<speed>10.9</speed>
<course>99.5</course>
<desc>Speed 10.9 km/h Distance 41.09 km</desc>
<time>2011-09-24T12:28:23.73</time>
<name>9172</name>
</trkpt>
<trkpt lat="41.814365" lon="-1.820118">
<ele>1158.5</ele>
<speed>11.6</speed>
<course>90.0</course>
<desc>Speed 11.6 km/h Distance 41.09 km</desc>
<time>2011-09-24T12:28:24.73</time>
<name>9173</name>
</trkpt>
<trkpt lat="41.814365" lon="-1.820078">
<ele>1158.5</ele>
<speed>11.8</speed>
<course>90.0</course>
<desc>Speed 11.8 km/h Distance 41.10 km</desc>
<time>2011-09-24T12:28:25.73</time>
<name>9174</name>
</trkpt>
<trkpt lat="41.814365" lon="-1.820037">
<ele>1159.0</ele>
<speed>12.0</speed>
<course>86.8</course>
<desc>Speed 12.0 km/h Distance 41.10 km</desc>
<time>2011-09-24T12:28:26.73</time>
<name>9175</name>
</trkpt>
<trkpt lat="41.814367" lon="-1.819997">
<ele>1159.0</ele>
<speed>12.1</speed>
<course>93.1</course>
<desc>Speed 12.1 km/h Distance 41.10 km</desc>
<time>2011-09-24T12:28:27.73</time>
<name>9176</name>
</trkpt>
<trkpt lat="41.814365" lon="-1.819955">
<ele>1159.5</ele>
<speed>11.7</speed>
<course>86.5</course>
<desc>Speed 11.7 km/h Distance 41.11 km</desc>
<time>2011-09-24T12:28:28.72</time>
<name>9177</name>
</trkpt>
<trkpt lat="41.814367" lon="-1.819918">
<ele>1159.5</ele>
<speed>10.7</speed>
<course>90.0</course>
<desc>Speed 10.7 km/h Distance 41.11 km</desc>
<time>2011-09-24T12:28:29.72</time>
<name>9178</name>
</trkpt>
<trkpt lat="41.814367" lon="-1.819880">
<ele>1160.0</ele>
<speed>10.6</speed>
<course>93.5</course>
<desc>Speed 10.6 km/h Distance 41.11 km</desc>
<time>2011-09-24T12:28:30.72</time>
<name>9179</name>
</trkpt>
<trkpt lat="41.814365" lon="-1.819843">
<ele>1160.5</ele>
<speed>10.3</speed>
<course>75.7</course>
<desc>Speed 10.3 km/h Distance 41.12 km</desc>
<time>2011-09-24T12:28:31.72</time>
<name>9180</name>
</trkpt>
<trkpt lat="41.814372" lon="-1.819808">
<ele>1161.0</ele>
<speed>10.5</speed>
<course>121.4</course>
<desc>Speed 10.5 km/h Distance 41.12 km</desc>
<time>2011-09-24T12:28:32.72</time>
<name>9181</name>
</trkpt>
<trkpt lat="41.814355" lon="-1.819772">
<ele>1162.5</ele>
<speed>12.2</speed>
<course>100.8</course>
<desc>Speed 12.2 km/h Distance 41.12 km</desc>
<time>2011-09-24T12:28:33.72</time>
<name>9182</name>
</trkpt>
<trkpt lat="41.814350" lon="-1.819737">
<ele>1162.5</ele>
<speed>9.9</speed>
<course>107.7</course>
<desc>Speed 9.9 km/h Distance 41.13 km</desc>
<time>2011-09-24T12:28:34.72</time>
<name>9183</name>
</trkpt>
<trkpt lat="41.814342" lon="-1.819702">
<ele>1162.5</ele>
<speed>10.9</speed>
<course>99.5</course>
<desc>Speed 10.9 km/h Distance 41.13 km</desc>
<time>2011-09-24T12:28:35.72</time>
<name>9184</name>
</trkpt>
<trkpt lat="41.814337" lon="-1.819662">
<ele>1163.0</ele>
<speed>11.4</speed>
<course>90.0</course>
<desc>Speed 11.4 km/h Distance 41.13 km</desc>
<time>2011-09-24T12:28:36.72</time>
<name>9185</name>
</trkpt>
<trkpt lat="41.814337" lon="-1.819620">
<ele>1163.5</ele>
<speed>12.0</speed>
<course>86.8</course>
<desc>Speed 12.0 km/h Distance 41.14 km</desc>
<time>2011-09-24T12:28:37.72</time>
<name>9186</name>
</trkpt>
<trkpt lat="41.814338" lon="-1.819580">
<ele>1163.0</ele>
<speed>11.9</speed>
<course>96.4</course>
<desc>Speed 11.9 km/h Distance 41.14 km</desc>
<time>2011-09-24T12:28:38.72</time>
<name>9187</name>
</trkpt>
<trkpt lat="41.814335" lon="-1.819540">
<ele>1163.5</ele>
<speed>11.7</speed>
<course>90.0</course>
<desc>Speed 11.7 km/h Distance 41.14 km</desc>
<time>2011-09-24T12:28:39.72</time>
<name>9188</name>
</trkpt>
<trkpt lat="41.814335" lon="-1.819503">
<ele>1163.0</ele>
<speed>11.1</speed>
<course>99.5</course>
<desc>Speed 11.1 km/h Distance 41.15 km</desc>
<time>2011-09-24T12:28:40.71</time>
<name>9189</name>
</trkpt>
<trkpt lat="41.814330" lon="-1.819463">
<ele>1163.5</ele>
<speed>11.8</speed>
<course>96.1</course>
<desc>Speed 11.8 km/h Distance 41.15 km</desc>
<time>2011-09-24T12:28:41.71</time>
<name>9190</name>
</trkpt>
<trkpt lat="41.814327" lon="-1.819422">
<ele>1164.5</ele>
<speed>12.0</speed>
<course>90.0</course>
<desc>Speed 12.0 km/h Distance 41.15 km</desc>
<time>2011-09-24T12:28:42.70</time>
<name>9191</name>
</trkpt>
<trkpt lat="41.814327" lon="-1.819383">
<ele>1165.0</ele>
<speed>11.4</speed>
<course>90.0</course>
<desc>Speed 11.4 km/h Distance 41.16 km</desc>
<time>2011-09-24T12:28:43.70</time>
<name>9192</name>
</trkpt>
<trkpt lat="41.814327" lon="-1.819343">
<ele>1165.0</ele>
<speed>11.8</speed>
<course>86.8</course>
<desc>Speed 11.8 km/h Distance 41.16 km</desc>
<time>2011-09-24T12:28:44.70</time>
<name>9193</name>
</trkpt>
<trkpt lat="41.814328" lon="-1.819303">
<ele>1164.5</ele>
<speed>12.0</speed>
<course>86.9</course>
<desc>Speed 12.0 km/h Distance 41.16 km</desc>
<time>2011-09-24T12:28:45.70</time>
<name>9194</name>
</trkpt>
<trkpt lat="41.814330" lon="-1.819262">
<ele>1164.5</ele>
<speed>12.0</speed>
<course>93.3</course>
<desc>Speed 12.0 km/h Distance 41.17 km</desc>
<time>2011-09-24T12:28:46.71</time>
<name>9195</name>
</trkpt>
<trkpt lat="41.814328" lon="-1.819223">
<ele>1165.0</ele>
<speed>11.6</speed>
<course>90.0</course>
<desc>Speed 11.6 km/h Distance 41.17 km</desc>
<time>2011-09-24T12:28:47.77</time>
<name>9196</name>
</trkpt>
<trkpt lat="41.814328" lon="-1.819183">
<ele>1165.0</ele>
<speed>11.4</speed>
<course>93.3</course>
<desc>Speed 11.4 km/h Distance 41.17 km</desc>
<time>2011-09-24T12:28:48.69</time>
<name>9197</name>
</trkpt>
<trkpt lat="41.814327" lon="-1.819145">
<ele>1165.0</ele>
<speed>11.7</speed>
<course>86.9</course>
<desc>Speed 11.7 km/h Distance 41.18 km</desc>
<time>2011-09-24T12:28:49.70</time>
<name>9198</name>
</trkpt>
<trkpt lat="41.814328" lon="-1.819103">
<ele>1165.5</ele>
<speed>12.2</speed>
<course>86.9</course>
<desc>Speed 12.2 km/h Distance 41.18 km</desc>
<time>2011-09-24T12:28:50.70</time>
<name>9199</name>
</trkpt>
<trkpt lat="41.814330" lon="-1.819062">
<ele>1166.0</ele>
<speed>12.1</speed>
<course>105.0</course>
<desc>Speed 12.1 km/h Distance 41.18 km</desc>
<time>2011-09-24T12:28:51.70</time>
<name>9200</name>
</trkpt>
<trkpt lat="41.814322" lon="-1.819020">
<ele>1166.5</ele>
<speed>12.6</speed>
<course>90.0</course>
<desc>Speed 12.6 km/h Distance 41.19 km</desc>
<time>2011-09-24T12:28:52.70</time>
<name>9201</name>
</trkpt>
<trkpt lat="41.814322" lon="-1.818980">
<ele>1167.0</ele>
<speed>12.0</speed>
<course>109.9</course>
<desc>Speed 12.0 km/h Distance 41.19 km</desc>
<time>2011-09-24T12:28:53.95</time>
<name>9202</name>
</trkpt>
<trkpt lat="41.814310" lon="-1.818937">
<ele>1167.5</ele>
<speed>12.9</speed>
<course>104.5</course>
<desc>Speed 12.9 km/h Distance 41.19 km</desc>
<time>2011-09-24T12:28:54.91</time>
<name>9203</name>
</trkpt>
<trkpt lat="41.814302" lon="-1.818893">
<ele>1168.0</ele>
<speed>13.0</speed>
<course>114.1</course>
<desc>Speed 13.0 km/h Distance 41.20 km</desc>
<time>2011-09-24T12:28:55.69</time>
<name>9204</name>
</trkpt>
<trkpt lat="41.814287" lon="-1.818848">
<ele>1168.5</ele>
<speed>14.5</speed>
<course>111.0</course>
<desc>Speed 14.5 km/h Distance 41.20 km</desc>
<time>2011-09-24T12:28:56.68</time>
<name>9205</name>
</trkpt>
<trkpt lat="41.814273" lon="-1.818802">
<ele>1168.5</ele>
<speed>14.8</speed>
<course>108.5</course>
<desc>Speed 14.8 km/h Distance 41.21 km</desc>
<time>2011-09-24T12:28:57.69</time>
<name>9206</name>
</trkpt>
<trkpt lat="41.814262" lon="-1.818755">
<ele>1169.0</ele>
<speed>15.1</speed>
<course>108.5</course>
<desc>Speed 15.1 km/h Distance 41.21 km</desc>
<time>2011-09-24T12:28:58.75</time>
<name>9207</name>
</trkpt>
<trkpt lat="41.814250" lon="-1.818708">
<ele>1169.5</ele>
<speed>15.0</speed>
<course>113.3</course>
<desc>Speed 15.0 km/h Distance 41.21 km</desc>
<time>2011-09-24T12:28:59.68</time>
<name>9208</name>
</trkpt>
<trkpt lat="41.814235" lon="-1.818662">
<ele>1169.0</ele>
<speed>15.1</speed>
<course>116.4</course>
<desc>Speed 15.1 km/h Distance 41.22 km</desc>
<time>2011-09-24T12:29:00.68</time>
<name>9209</name>
</trkpt>
<trkpt lat="41.814218" lon="-1.818617">
<ele>1168.5</ele>
<speed>15.6</speed>
<course>119.0</course>
<desc>Speed 15.6 km/h Distance 41.22 km</desc>
<time>2011-09-24T12:29:01.68</time>
<name>9210</name>
</trkpt>
<trkpt lat="41.814198" lon="-1.818568">
<ele>1168.5</ele>
<speed>16.5</speed>
<course>114.1</course>
<desc>Speed 16.5 km/h Distance 41.23 km</desc>
<time>2011-09-24T12:29:02.71</time>
<name>9211</name>
</trkpt>
<trkpt lat="41.814182" lon="-1.818518">
<ele>1168.5</ele>
<speed>16.7</speed>
<course>120.3</course>
<desc>Speed 16.7 km/h Distance 41.23 km</desc>
<time>2011-09-24T12:29:03.94</time>
<name>9212</name>
</trkpt>
<trkpt lat="41.814137" lon="-1.818415">
<ele>1168.5</ele>
<speed>19.3</speed>
<course>121.4</course>
<desc>Speed 19.3 km/h Distance 41.24 km</desc>
<time>2011-09-24T12:29:05.67</time>
<name>9213</name>
</trkpt>
<trkpt lat="41.814112" lon="-1.818360">
<ele>1168.5</ele>
<speed>19.5</speed>
<course>122.3</course>
<desc>Speed 19.5 km/h Distance 41.25 km</desc>
<time>2011-09-24T12:29:06.67</time>
<name>9214</name>
</trkpt>
<trkpt lat="41.814085" lon="-1.818303">
<ele>1168.5</ele>
<speed>20.1</speed>
<course>125.5</course>
<desc>Speed 20.1 km/h Distance 41.25 km</desc>
<time>2011-09-24T12:29:07.67</time>
<name>9215</name>
</trkpt>
<trkpt lat="41.814057" lon="-1.818250">
<ele>1168.0</ele>
<speed>20.2</speed>
<course>120.8</course>
<desc>Speed 20.2 km/h Distance 41.26 km</desc>
<time>2011-09-24T12:29:08.91</time>
<name>9216</name>
</trkpt>
<trkpt lat="41.814003" lon="-1.818130">
<ele>1168.5</ele>
<speed>20.3</speed>
<course>115.3</course>
<desc>Speed 20.3 km/h Distance 41.27 km</desc>
<time>2011-09-24T12:29:10.67</time>
<name>9217</name>
</trkpt>
<trkpt lat="41.813983" lon="-1.818073">
<ele>1168.5</ele>
<speed>18.8</speed>
<course>117.2</course>
<desc>Speed 18.8 km/h Distance 41.27 km</desc>
<time>2011-09-24T12:29:11.67</time>
<name>9218</name>
</trkpt>
<trkpt lat="41.813962" lon="-1.818017">
<ele>1168.0</ele>
<speed>18.9</speed>
<course>110.7</course>
<desc>Speed 18.9 km/h Distance 41.28 km</desc>
<time>2011-09-24T12:29:12.67</time>
<name>9219</name>
</trkpt>
<trkpt lat="41.813947" lon="-1.817963">
<ele>1167.5</ele>
<speed>17.5</speed>
<course>108.0</course>
<desc>Speed 17.5 km/h Distance 41.28 km</desc>
<time>2011-09-24T12:29:13.87</time>
<name>9220</name>
</trkpt>
<trkpt lat="41.813933" lon="-1.817908">
<ele>1166.5</ele>
<speed>17.7</speed>
<course>106.6</course>
<desc>Speed 17.7 km/h Distance 41.29 km</desc>
<time>2011-09-24T12:29:14.66</time>
<name>9221</name>
</trkpt>
<trkpt lat="41.813920" lon="-1.817848">
<ele>1166.0</ele>
<speed>19.3</speed>
<course>104.2</course>
<desc>Speed 19.3 km/h Distance 41.29 km</desc>
<time>2011-09-24T12:29:15.66</time>
<name>9222</name>
</trkpt>
<trkpt lat="41.813908" lon="-1.817787">
<ele>1165.0</ele>
<speed>19.2</speed>
<course>105.8</course>
<desc>Speed 19.2 km/h Distance 41.30 km</desc>
<time>2011-09-24T12:29:16.66</time>
<name>9223</name>
</trkpt>
<trkpt lat="41.813895" lon="-1.817723">
<ele>1164.5</ele>
<speed>20.2</speed>
<course>74.6</course>
<desc>Speed 20.2 km/h Distance 41.31 km</desc>
<time>2011-09-24T12:29:17.69</time>
<name>9224</name>
</trkpt>
<trkpt lat="41.813908" lon="-1.817658">
<ele>1163.0</ele>
<speed>19.9</speed>
<course>118.8</course>
<desc>Speed 19.9 km/h Distance 41.31 km</desc>
<time>2011-09-24T12:29:18.66</time>
<name>9225</name>
</trkpt>
<trkpt lat="41.813882" lon="-1.817593">
<ele>1163.0</ele>
<speed>22.3</speed>
<course>108.1</course>
<desc>Speed 22.3 km/h Distance 41.32 km</desc>
<time>2011-09-24T12:29:19.66</time>
<name>9226</name>
</trkpt>
<trkpt lat="41.813867" lon="-1.817532">
<ele>1163.0</ele>
<speed>19.9</speed>
<course>113.5</course>
<desc>Speed 19.9 km/h Distance 41.32 km</desc>
<time>2011-09-24T12:29:20.66</time>
<name>9227</name>
</trkpt>
<trkpt lat="41.813847" lon="-1.817470">
<ele>1163.0</ele>
<speed>20.2</speed>
<course>121.2</course>
<desc>Speed 20.2 km/h Distance 41.33 km</desc>
<time>2011-09-24T12:29:21.70</time>
<name>9228</name>
</trkpt>
<trkpt lat="41.813823" lon="-1.817418">
<ele>1163.0</ele>
<speed>18.5</speed>
<course>125.7</course>
<desc>Speed 18.5 km/h Distance 41.33 km</desc>
<time>2011-09-24T12:29:22.66</time>
<name>9229</name>
</trkpt>
<trkpt lat="41.813798" lon="-1.817372">
<ele>1162.5</ele>
<speed>18.0</speed>
<course>133.0</course>
<desc>Speed 18.0 km/h Distance 41.34 km</desc>
<time>2011-09-24T12:29:23.65</time>
<name>9230</name>
</trkpt>
<trkpt lat="41.813772" lon="-1.817333">
<ele>1162.0</ele>
<speed>16.3</speed>
<course>143.3</course>
<desc>Speed 16.3 km/h Distance 41.34 km</desc>
<time>2011-09-24T12:29:24.65</time>
<name>9231</name>
</trkpt>
<trkpt lat="41.813743" lon="-1.817305">
<ele>1161.5</ele>
<speed>14.7</speed>
<course>148.8</course>
<desc>Speed 14.7 km/h Distance 41.35 km</desc>
<time>2011-09-24T12:29:25.69</time>
<name>9232</name>
</trkpt>
<trkpt lat="41.813717" lon="-1.817283">
<ele>1161.0</ele>
<speed>13.8</speed>
<course>147.9</course>
<desc>Speed 13.8 km/h Distance 41.35 km</desc>
<time>2011-09-24T12:29:26.65</time>
<name>9233</name>
</trkpt>
<trkpt lat="41.813685" lon="-1.817257">
<ele>1161.0</ele>
<speed>15.5</speed>
<course>141.7</course>
<desc>Speed 15.5 km/h Distance 41.35 km</desc>
<time>2011-09-24T12:29:27.65</time>
<name>9234</name>
</trkpt>
<trkpt lat="41.813657" lon="-1.817227">
<ele>1160.5</ele>
<speed>15.2</speed>
<course>144.8</course>
<desc>Speed 15.2 km/h Distance 41.36 km</desc>
<time>2011-09-24T12:29:28.65</time>
<name>9235</name>
</trkpt>
<trkpt lat="41.813627" lon="-1.817198">
<ele>1160.5</ele>
<speed>15.0</speed>
<course>155.2</course>
<desc>Speed 15.0 km/h Distance 41.36 km</desc>
<time>2011-09-24T12:29:29.68</time>
<name>9236</name>
</trkpt>
<trkpt lat="41.813592" lon="-1.817177">
<ele>1162.0</ele>
<speed>16.2</speed>
<course>158.7</course>
<desc>Speed 16.2 km/h Distance 41.37 km</desc>
<time>2011-09-24T12:29:30.91</time>
<name>9237</name>
</trkpt>
<trkpt lat="41.813557" lon="-1.817158">
<ele>1162.0</ele>
<speed>14.8</speed>
<course>154.6</course>
<desc>Speed 14.8 km/h Distance 41.37 km</desc>
<time>2011-09-24T12:29:31.64</time>
<name>9238</name>
</trkpt>
<trkpt lat="41.813520" lon="-1.817135">
<ele>1162.5</ele>
<speed>16.3</speed>
<course>152.0</course>
<desc>Speed 16.3 km/h Distance 41.38 km</desc>
<time>2011-09-24T12:29:32.64</time>
<name>9239</name>
</trkpt>
<trkpt lat="41.813485" lon="-1.817110">
<ele>1162.5</ele>
<speed>15.8</speed>
<course>154.1</course>
<desc>Speed 15.8 km/h Distance 41.38 km</desc>
<time>2011-09-24T12:29:33.65</time>
<name>9240</name>
</trkpt>
<trkpt lat="41.813447" lon="-1.817085">
<ele>1162.0</ele>
<speed>16.5</speed>
<course>146.1</course>
<desc>Speed 16.5 km/h Distance 41.38 km</desc>
<time>2011-09-24T12:29:34.70</time>
<name>9241</name>
</trkpt>
<trkpt lat="41.813363" lon="-1.817010">
<ele>1163.5</ele>
<speed>18.4</speed>
<course>152.2</course>
<desc>Speed 18.4 km/h Distance 41.40 km</desc>
<time>2011-09-24T12:29:36.64</time>
<name>9242</name>
</trkpt>
<trkpt lat="41.813323" lon="-1.816982">
<ele>1163.5</ele>
<speed>17.8</speed>
<course>150.8</course>
<desc>Speed 17.8 km/h Distance 41.40 km</desc>
<time>2011-09-24T12:29:37.64</time>
<name>9243</name>
</trkpt>
<trkpt lat="41.813283" lon="-1.816952">
<ele>1163.5</ele>
<speed>18.6</speed>
<course>152.6</course>
<desc>Speed 18.6 km/h Distance 41.41 km</desc>
<time>2011-09-24T12:29:38.64</time>
<name>9244</name>
</trkpt>
<trkpt lat="41.813245" lon="-1.816925">
<ele>1163.5</ele>
<speed>17.2</speed>
<course>151.8</course>
<desc>Speed 17.2 km/h Distance 41.41 km</desc>
<time>2011-09-24T12:29:39.68</time>
<name>9245</name>
</trkpt>
<trkpt lat="41.813203" lon="-1.816895">
<ele>1163.5</ele>
<speed>18.9</speed>
<course>152.1</course>
<desc>Speed 18.9 km/h Distance 41.42 km</desc>
<time>2011-09-24T12:29:40.63</time>
<name>9246</name>
</trkpt>
<trkpt lat="41.813163" lon="-1.816867">
<ele>1163.5</ele>
<speed>17.8</speed>
<course>152.6</course>
<desc>Speed 17.8 km/h Distance 41.42 km</desc>
<time>2011-09-24T12:29:41.63</time>
<name>9247</name>
</trkpt>
<trkpt lat="41.813125" lon="-1.816840">
<ele>1163.5</ele>
<speed>17.7</speed>
<course>149.7</course>
<desc>Speed 17.7 km/h Distance 41.43 km</desc>
<time>2011-09-24T12:29:42.63</time>
<name>9248</name>
</trkpt>
<trkpt lat="41.813087" lon="-1.816810">
<ele>1164.5</ele>
<speed>17.3</speed>
<course>144.8</course>
<desc>Speed 17.3 km/h Distance 41.43 km</desc>
<time>2011-09-24T12:29:43.70</time>
<name>9249</name>
</trkpt>
<trkpt lat="41.813055" lon="-1.816780">
<ele>1164.0</ele>
<speed>15.9</speed>
<course>143.3</course>
<desc>Speed 15.9 km/h Distance 41.43 km</desc>
<time>2011-09-24T12:29:44.63</time>
<name>9250</name>
</trkpt>
<trkpt lat="41.813023" lon="-1.816748">
<ele>1163.5</ele>
<speed>16.1</speed>
<course>141.9</course>
<desc>Speed 16.1 km/h Distance 41.44 km</desc>
<time>2011-09-24T12:29:45.63</time>
<name>9251</name>
</trkpt>
<trkpt lat="41.812992" lon="-1.816715">
<ele>1164.5</ele>
<speed>16.5</speed>
<course>167.7</course>
<desc>Speed 16.5 km/h Distance 41.44 km</desc>
<time>2011-09-24T12:29:46.63</time>
<name>9252</name>
</trkpt>
<trkpt lat="41.812963" lon="-1.816707">
<ele>1164.0</ele>
<speed>11.8</speed>
<course>139.5</course>
<desc>Speed 11.8 km/h Distance 41.45 km</desc>
<time>2011-09-24T12:29:47.70</time>
<name>9253</name>
</trkpt>
<trkpt lat="41.812895" lon="-1.816628">
<ele>1165.5</ele>
<speed>16.2</speed>
<course>139.2</course>
<desc>Speed 16.2 km/h Distance 41.46 km</desc>
<time>2011-09-24T12:29:49.63</time>
<name>9254</name>
</trkpt>
<trkpt lat="41.812863" lon="-1.816592">
<ele>1165.5</ele>
<speed>17.0</speed>
<course>140.8</course>
<desc>Speed 17.0 km/h Distance 41.46 km</desc>
<time>2011-09-24T12:29:50.62</time>
<name>9255</name>
</trkpt>
<trkpt lat="41.812828" lon="-1.816553">
<ele>1166.5</ele>
<speed>18.2</speed>
<course>142.1</course>
<desc>Speed 18.2 km/h Distance 41.47 km</desc>
<time>2011-09-24T12:29:51.62</time>
<name>9256</name>
</trkpt>
<trkpt lat="41.812792" lon="-1.816515">
<ele>1167.0</ele>
<speed>18.4</speed>
<course>138.2</course>
<desc>Speed 18.4 km/h Distance 41.47 km</desc>
<time>2011-09-24T12:29:52.70</time>
<name>9257</name>
</trkpt>
<trkpt lat="41.812758" lon="-1.816475">
<ele>1168.0</ele>
<speed>17.7</speed>
<course>140.7</course>
<desc>Speed 17.7 km/h Distance 41.48 km</desc>
<time>2011-09-24T12:29:53.63</time>
<name>9258</name>
</trkpt>
<trkpt lat="41.812725" lon="-1.816438">
<ele>1168.5</ele>
<speed>16.7</speed>
<course>139.0</course>
<desc>Speed 16.7 km/h Distance 41.48 km</desc>
<time>2011-09-24T12:29:54.62</time>
<name>9259</name>
</trkpt>
<trkpt lat="41.812695" lon="-1.816403">
<ele>1168.0</ele>
<speed>15.8</speed>
<course>134.8</course>
<desc>Speed 15.8 km/h Distance 41.49 km</desc>
<time>2011-09-24T12:29:55.61</time>
<name>9260</name>
</trkpt>
<trkpt lat="41.812667" lon="-1.816365">
<ele>1168.0</ele>
<speed>16.3</speed>
<course>133.5</course>
<desc>Speed 16.3 km/h Distance 41.49 km</desc>
<time>2011-09-24T12:29:56.61</time>
<name>9261</name>
</trkpt>
<trkpt lat="41.812638" lon="-1.816325">
<ele>1168.0</ele>
<speed>17.2</speed>
<course>140.2</course>
<desc>Speed 17.2 km/h Distance 41.49 km</desc>
<time>2011-09-24T12:29:57.61</time>
<name>9262</name>
</trkpt>
<trkpt lat="41.812610" lon="-1.816293">
<ele>1167.5</ele>
<speed>14.8</speed>
<course>140.4</course>
<desc>Speed 14.8 km/h Distance 41.50 km</desc>
<time>2011-09-24T12:29:58.61</time>
<name>9263</name>
</trkpt>
<trkpt lat="41.812580" lon="-1.816260">
<ele>1167.5</ele>
<speed>16.3</speed>
<course>139.0</course>
<desc>Speed 16.3 km/h Distance 41.50 km</desc>
<time>2011-09-24T12:29:59.61</time>
<name>9264</name>
</trkpt>
<trkpt lat="41.812550" lon="-1.816225">
<ele>1167.0</ele>
<speed>16.6</speed>
<course>137.7</course>
<desc>Speed 16.6 km/h Distance 41.51 km</desc>
<time>2011-09-24T12:30:00.61</time>
<name>9265</name>
</trkpt>
<trkpt lat="41.812520" lon="-1.816188">
<ele>1166.5</ele>
<speed>15.9</speed>
<course>136.4</course>
<desc>Speed 15.9 km/h Distance 41.51 km</desc>
<time>2011-09-24T12:30:01.61</time>
<name>9266</name>
</trkpt>
<trkpt lat="41.812490" lon="-1.816150">
<ele>1166.5</ele>
<speed>17.2</speed>
<course>136.4</course>
<desc>Speed 17.2 km/h Distance 41.52 km</desc>
<time>2011-09-24T12:30:02.61</time>
<name>9267</name>
</trkpt>
<trkpt lat="41.812460" lon="-1.816112">
<ele>1166.0</ele>
<speed>16.5</speed>
<course>139.2</course>
<desc>Speed 16.5 km/h Distance 41.52 km</desc>
<time>2011-09-24T12:30:03.61</time>
<name>9268</name>
</trkpt>
<trkpt lat="41.812428" lon="-1.816075">
<ele>1166.0</ele>
<speed>16.9</speed>
<course>135.2</course>
<desc>Speed 16.9 km/h Distance 41.53 km</desc>
<time>2011-09-24T12:30:04.61</time>
<name>9269</name>
</trkpt>
<trkpt lat="41.812398" lon="-1.816035">
<ele>1166.0</ele>
<speed>17.0</speed>
<course>139.0</course>
<desc>Speed 17.0 km/h Distance 41.53 km</desc>
<time>2011-09-24T12:30:05.61</time>
<name>9270</name>
</trkpt>
<trkpt lat="41.812368" lon="-1.816000">
<ele>1165.5</ele>
<speed>16.3</speed>
<course>137.9</course>
<desc>Speed 16.3 km/h Distance 41.54 km</desc>
<time>2011-09-24T12:30:06.61</time>
<name>9271</name>
</trkpt>
<trkpt lat="41.812337" lon="-1.815962">
<ele>1165.0</ele>
<speed>17.7</speed>
<course>138.2</course>
<desc>Speed 17.7 km/h Distance 41.54 km</desc>
<time>2011-09-24T12:30:07.60</time>
<name>9272</name>
</trkpt>
<trkpt lat="41.812303" lon="-1.815922">
<ele>1164.5</ele>
<speed>18.1</speed>
<course>136.5</course>
<desc>Speed 18.1 km/h Distance 41.55 km</desc>
<time>2011-09-24T12:30:08.60</time>
<name>9273</name>
</trkpt>
<trkpt lat="41.812267" lon="-1.815875">
<ele>1164.5</ele>
<speed>19.9</speed>
<course>139.9</course>
<desc>Speed 19.9 km/h Distance 41.55 km</desc>
<time>2011-09-24T12:30:09.61</time>
<name>9274</name>
</trkpt>
<trkpt lat="41.812228" lon="-1.815832">
<ele>1164.5</ele>
<speed>20.0</speed>
<course>139.3</course>
<desc>Speed 20.0 km/h Distance 41.56 km</desc>
<time>2011-09-24T12:30:10.60</time>
<name>9275</name>
</trkpt>
<trkpt lat="41.812185" lon="-1.815782">
<ele>1164.5</ele>
<speed>22.4</speed>
<course>138.2</course>
<desc>Speed 22.4 km/h Distance 41.56 km</desc>
<time>2011-09-24T12:30:11.61</time>
<name>9276</name>
</trkpt>
<trkpt lat="41.812143" lon="-1.815732">
<ele>1165.0</ele>
<speed>22.4</speed>
<course>138.2</course>
<desc>Speed 22.4 km/h Distance 41.57 km</desc>
<time>2011-09-24T12:30:12.60</time>
<name>9277</name>
</trkpt>
<trkpt lat="41.812102" lon="-1.815682">
<ele>1164.5</ele>
<speed>22.1</speed>
<course>137.5</course>
<desc>Speed 22.1 km/h Distance 41.58 km</desc>
<time>2011-09-24T12:30:13.60</time>
<name>9278</name>
</trkpt>
<trkpt lat="41.812058" lon="-1.815628">
<ele>1164.0</ele>
<speed>23.6</speed>
<course>137.7</course>
<desc>Speed 23.6 km/h Distance 41.58 km</desc>
<time>2011-09-24T12:30:14.60</time>
<name>9279</name>
</trkpt>
<trkpt lat="41.812013" lon="-1.815573">
<ele>1163.5</ele>
<speed>24.5</speed>
<course>135.7</course>
<desc>Speed 24.5 km/h Distance 41.59 km</desc>
<time>2011-09-24T12:30:15.60</time>
<name>9280</name>
</trkpt>
<trkpt lat="41.811970" lon="-1.815517">
<ele>1163.0</ele>
<speed>24.2</speed>
<course>134.9</course>
<desc>Speed 24.2 km/h Distance 41.60 km</desc>
<time>2011-09-24T12:30:16.60</time>
<name>9281</name>
</trkpt>
<trkpt lat="41.811927" lon="-1.815458">
<ele>1162.5</ele>
<speed>25.0</speed>
<course>132.6</course>
<desc>Speed 25.0 km/h Distance 41.60 km</desc>
<time>2011-09-24T12:30:17.60</time>
<name>9282</name>
</trkpt>
<trkpt lat="41.811883" lon="-1.815395">
<ele>1162.5</ele>
<speed>25.7</speed>
<course>138.9</course>
<desc>Speed 25.7 km/h Distance 41.61 km</desc>
<time>2011-09-24T12:30:18.60</time>
<name>9283</name>
</trkpt>
<trkpt lat="41.811835" lon="-1.815338">
<ele>1162.0</ele>
<speed>25.6</speed>
<course>143.3</course>
<desc>Speed 25.6 km/h Distance 41.62 km</desc>
<time>2011-09-24T12:30:19.60</time>
<name>9284</name>
</trkpt>
<trkpt lat="41.811785" lon="-1.815288">
<ele>1161.0</ele>
<speed>25.6</speed>
<course>144.2</course>
<desc>Speed 25.6 km/h Distance 41.62 km</desc>
<time>2011-09-24T12:30:20.59</time>
<name>9285</name>
</trkpt>
<trkpt lat="41.811732" lon="-1.815237">
<ele>1160.5</ele>
<speed>26.6</speed>
<course>152.0</course>
<desc>Speed 26.6 km/h Distance 41.63 km</desc>
<time>2011-09-24T12:30:21.59</time>
<name>9286</name>
</trkpt>
<trkpt lat="41.811673" lon="-1.815195">
<ele>1159.5</ele>
<speed>27.0</speed>
<course>159.0</course>
<desc>Speed 27.0 km/h Distance 41.64 km</desc>
<time>2011-09-24T12:30:22.59</time>
<name>9287</name>
</trkpt>
<trkpt lat="41.811612" lon="-1.815163">
<ele>1157.5</ele>
<speed>26.3</speed>
<course>166.7</course>
<desc>Speed 26.3 km/h Distance 41.65 km</desc>
<time>2011-09-24T12:30:23.60</time>
<name>9288</name>
</trkpt>
<trkpt lat="41.811538" lon="-1.815140">
<ele>1157.5</ele>
<speed>30.3</speed>
<course>165.5</course>
<desc>Speed 30.3 km/h Distance 41.65 km</desc>
<time>2011-09-24T12:30:24.60</time>
<name>9289</name>
</trkpt>
<trkpt lat="41.811462" lon="-1.815113">
<ele>1157.5</ele>
<speed>31.8</speed>
<course>163.4</course>
<desc>Speed 31.8 km/h Distance 41.66 km</desc>
<time>2011-09-24T12:30:25.60</time>
<name>9290</name>
</trkpt>
<trkpt lat="41.811387" lon="-1.815083">
<ele>1156.0</ele>
<speed>31.1</speed>
<course>158.8</course>
<desc>Speed 31.1 km/h Distance 41.67 km</desc>
<time>2011-09-24T12:30:26.59</time>
<name>9291</name>
</trkpt>
<trkpt lat="41.811307" lon="-1.815042">
<ele>1156.5</ele>
<speed>35.0</speed>
<course>154.8</course>
<desc>Speed 35.0 km/h Distance 41.68 km</desc>
<time>2011-09-24T12:30:27.59</time>
<name>9292</name>
</trkpt>
<trkpt lat="41.811230" lon="-1.814993">
<ele>1155.5</ele>
<speed>33.9</speed>
<course>147.9</course>
<desc>Speed 33.9 km/h Distance 41.69 km</desc>
<time>2011-09-24T12:30:28.59</time>
<name>9293</name>
</trkpt>
<trkpt lat="41.811157" lon="-1.814932">
<ele>1154.5</ele>
<speed>35.9</speed>
<course>143.9</course>
<desc>Speed 35.9 km/h Distance 41.70 km</desc>
<time>2011-09-24T12:30:29.59</time>
<name>9294</name>
</trkpt>
<trkpt lat="41.811080" lon="-1.814857">
<ele>1154.5</ele>
<speed>38.0</speed>
<course>132.7</course>
<desc>Speed 38.0 km/h Distance 41.71 km</desc>
<time>2011-09-24T12:30:30.59</time>
<name>9295</name>
</trkpt>
<trkpt lat="41.811025" lon="-1.814777">
<ele>1153.5</ele>
<speed>33.2</speed>
<course>143.3</course>
<desc>Speed 33.2 km/h Distance 41.72 km</desc>
<time>2011-09-24T12:30:31.59</time>
<name>9296</name>
</trkpt>
<trkpt lat="41.810962" lon="-1.814713">
<ele>1152.0</ele>
<speed>32.3</speed>
<course>136.7</course>
<desc>Speed 32.3 km/h Distance 41.73 km</desc>
<time>2011-09-24T12:30:32.59</time>
<name>9297</name>
</trkpt>
<trkpt lat="41.810898" lon="-1.814633">
<ele>1150.5</ele>
<speed>35.2</speed>
<course>135.6</course>
<desc>Speed 35.2 km/h Distance 41.74 km</desc>
<time>2011-09-24T12:30:33.59</time>
<name>9298</name>
</trkpt>
<trkpt lat="41.810835" lon="-1.814550">
<ele>1149.5</ele>
<speed>35.7</speed>
<course>128.2</course>
<desc>Speed 35.7 km/h Distance 41.75 km</desc>
<time>2011-09-24T12:30:34.60</time>
<name>9299</name>
</trkpt>
<trkpt lat="41.810773" lon="-1.814445">
<ele>1149.0</ele>
<speed>40.6</speed>
<course>123.0</course>
<desc>Speed 40.6 km/h Distance 41.76 km</desc>
<time>2011-09-24T12:30:35.58</time>
<name>9300</name>
</trkpt>
<trkpt lat="41.810720" lon="-1.814335">
<ele>1149.5</ele>
<speed>39.5</speed>
<course>119.1</course>
<desc>Speed 39.5 km/h Distance 41.77 km</desc>
<time>2011-09-24T12:30:36.59</time>
<name>9301</name>
</trkpt>
<trkpt lat="41.810675" lon="-1.814227">
<ele>1149.5</ele>
<speed>37.6</speed>
<course>134.2</course>
<desc>Speed 37.6 km/h Distance 41.78 km</desc>
<time>2011-09-24T12:30:37.59</time>
<name>9302</name>
</trkpt>
<trkpt lat="41.810605" lon="-1.814130">
<ele>1149.5</ele>
<speed>40.0</speed>
<course>140.0</course>
<desc>Speed 40.0 km/h Distance 41.79 km</desc>
<time>2011-09-24T12:30:38.59</time>
<name>9303</name>
</trkpt>
<trkpt lat="41.810525" lon="-1.814040">
<ele>1149.0</ele>
<speed>41.4</speed>
<course>121.2</course>
<desc>Speed 41.4 km/h Distance 41.80 km</desc>
<time>2011-09-24T12:30:39.59</time>
<name>9304</name>
</trkpt>
<trkpt lat="41.810472" lon="-1.813922">
<ele>1148.5</ele>
<speed>41.3</speed>
<course>119.9</course>
<desc>Speed 41.3 km/h Distance 41.81 km</desc>
<time>2011-09-24T12:30:40.59</time>
<name>9305</name>
</trkpt>
<trkpt lat="41.810387" lon="-1.813723">
<ele>1149.0</ele>
<speed>34.8</speed>
<course>103.8</course>
<desc>Speed 34.8 km/h Distance 41.83 km</desc>
<time>2011-09-24T12:30:42.59</time>
<name>9306</name>
</trkpt>
<trkpt lat="41.810365" lon="-1.813605">
<ele>1149.0</ele>
<speed>36.0</speed>
<course>111.0</course>
<desc>Speed 36.0 km/h Distance 41.84 km</desc>
<time>2011-09-24T12:30:43.59</time>
<name>9307</name>
</trkpt>
<trkpt lat="41.810332" lon="-1.813488">
<ele>1149.0</ele>
<speed>36.6</speed>
<course>111.8</course>
<desc>Speed 36.6 km/h Distance 41.85 km</desc>
<time>2011-09-24T12:30:44.59</time>
<name>9308</name>
</trkpt>
<trkpt lat="41.810243" lon="-1.813192">
<ele>1149.5</ele>
<speed>44.2</speed>
<course>103.6</course>
<desc>Speed 44.2 km/h Distance 41.88 km</desc>
<time>2011-09-24T12:30:46.59</time>
<name>9309</name>
</trkpt>
<trkpt lat="41.810218" lon="-1.813053">
<ele>1149.5</ele>
<speed>42.4</speed>
<course>104.6</course>
<desc>Speed 42.4 km/h Distance 41.89 km</desc>
<time>2011-09-24T12:30:47.59</time>
<name>9310</name>
</trkpt>
<trkpt lat="41.810193" lon="-1.812925">
<ele>1149.5</ele>
<speed>38.6</speed>
<course>106.4</course>
<desc>Speed 38.6 km/h Distance 41.90 km</desc>
<time>2011-09-24T12:30:48.58</time>
<name>9311</name>
</trkpt>
<trkpt lat="41.810163" lon="-1.812788">
<ele>1149.0</ele>
<speed>41.3</speed>
<course>99.8</course>
<desc>Speed 41.3 km/h Distance 41.91 km</desc>
<time>2011-09-24T12:30:49.59</time>
<name>9312</name>
</trkpt>
<trkpt lat="41.810123" lon="-1.812478">
<ele>1148.5</ele>
<speed>44.4</speed>
<course>102.3</course>
<desc>Speed 44.4 km/h Distance 41.94 km</desc>
<time>2011-09-24T12:30:51.58</time>
<name>9313</name>
</trkpt>
<trkpt lat="41.810098" lon="-1.812325">
<ele>1146.5</ele>
<speed>45.3</speed>
<course>102.5</course>
<desc>Speed 45.3 km/h Distance 41.95 km</desc>
<time>2011-09-24T12:30:52.58</time>
<name>9314</name>
</trkpt>
<trkpt lat="41.810043" lon="-1.811992">
<ele>1145.0</ele>
<speed>46.6</speed>
<course>99.1</course>
<desc>Speed 46.6 km/h Distance 41.98 km</desc>
<time>2011-09-24T12:30:54.58</time>
<name>9315</name>
</trkpt>
<trkpt lat="41.810023" lon="-1.811825">
<ele>1144.0</ele>
<speed>46.7</speed>
<course>101.6</course>
<desc>Speed 46.7 km/h Distance 42.00 km</desc>
<time>2011-09-24T12:30:55.58</time>
<name>9316</name>
</trkpt>
<trkpt lat="41.809998" lon="-1.811662">
<ele>1144.0</ele>
<speed>48.3</speed>
<course>98.7</course>
<desc>Speed 48.3 km/h Distance 42.01 km</desc>
<time>2011-09-24T12:30:56.58</time>
<name>9317</name>
</trkpt>
<trkpt lat="41.809980" lon="-1.811500">
<ele>1144.0</ele>
<speed>47.7</speed>
<course>68.1</course>
<desc>Speed 47.7 km/h Distance 42.02 km</desc>
<time>2011-09-24T12:30:57.58</time>
<name>9318</name>
</trkpt>
<trkpt lat="41.810030" lon="-1.811333">
<ele>1144.0</ele>
<speed>52.3</speed>
<course>99.2</course>
<desc>Speed 52.3 km/h Distance 42.04 km</desc>
<time>2011-09-24T12:30:58.58</time>
<name>9319</name>
</trkpt>
<trkpt lat="41.810010" lon="-1.811168">
<ele>1144.0</ele>
<speed>47.6</speed>
<course>95.6</course>
<desc>Speed 47.6 km/h Distance 42.05 km</desc>
<time>2011-09-24T12:30:59.58</time>
<name>9320</name>
</trkpt>
<trkpt lat="41.809998" lon="-1.811010">
<ele>1143.5</ele>
<speed>46.9</speed>
<course>86.2</course>
<desc>Speed 46.9 km/h Distance 42.07 km</desc>
<time>2011-09-24T12:31:00.58</time>
<name>9321</name>
</trkpt>
<trkpt lat="41.810007" lon="-1.810843">
<ele>1143.5</ele>
<speed>47.0</speed>
<course>79.4</course>
<desc>Speed 47.0 km/h Distance 42.08 km</desc>
<time>2011-09-24T12:31:01.57</time>
<name>9322</name>
</trkpt>
<trkpt lat="41.810030" lon="-1.810677">
<ele>1143.5</ele>
<speed>47.3</speed>
<course>82.9</course>
<desc>Speed 47.3 km/h Distance 42.09 km</desc>
<time>2011-09-24T12:31:02.58</time>
<name>9323</name>
</trkpt>
<trkpt lat="41.810045" lon="-1.810515">
<ele>1142.5</ele>
<speed>46.4</speed>
<course>89.2</course>
<desc>Speed 46.4 km/h Distance 42.11 km</desc>
<time>2011-09-24T12:31:03.58</time>
<name>9324</name>
</trkpt>
<trkpt lat="41.810047" lon="-1.810352">
<ele>1143.0</ele>
<speed>46.3</speed>
<course>84.2</course>
<desc>Speed 46.3 km/h Distance 42.12 km</desc>
<time>2011-09-24T12:31:04.57</time>
<name>9325</name>
</trkpt>
<trkpt lat="41.810070" lon="-1.810043">
<ele>1143.0</ele>
<speed>45.1</speed>
<course>80.8</course>
<desc>Speed 45.1 km/h Distance 42.15 km</desc>
<time>2011-09-24T12:31:06.57</time>
<name>9326</name>
</trkpt>
<trkpt lat="41.810103" lon="-1.809768">
<ele>1143.5</ele>
<speed>45.1</speed>
<course>77.3</course>
<desc>Speed 45.1 km/h Distance 42.17 km</desc>
<time>2011-09-24T12:31:08.57</time>
<name>9327</name>
</trkpt>
<trkpt lat="41.810153" lon="-1.809470">
<ele>1144.0</ele>
<speed>45.1</speed>
<course>81.3</course>
<desc>Speed 45.1 km/h Distance 42.19 km</desc>
<time>2011-09-24T12:31:10.57</time>
<name>9328</name>
</trkpt>
<trkpt lat="41.810187" lon="-1.809177">
<ele>1142.5</ele>
<speed>44.5</speed>
<course>81.4</course>
<desc>Speed 44.5 km/h Distance 42.22 km</desc>
<time>2011-09-24T12:31:12.57</time>
<name>9329</name>
</trkpt>
<trkpt lat="41.810220" lon="-1.808880">
<ele>1143.0</ele>
<speed>43.8</speed>
<course>79.3</course>
<desc>Speed 43.8 km/h Distance 42.24 km</desc>
<time>2011-09-24T12:31:14.57</time>
<name>9330</name>
</trkpt>
<trkpt lat="41.810262" lon="-1.808585">
<ele>1142.5</ele>
<speed>44.8</speed>
<course>79.7</course>
<desc>Speed 44.8 km/h Distance 42.27 km</desc>
<time>2011-09-24T12:31:16.57</time>
<name>9331</name>
</trkpt>
<trkpt lat="41.810300" lon="-1.808302">
<ele>1142.5</ele>
<speed>42.7</speed>
<course>70.6</course>
<desc>Speed 42.7 km/h Distance 42.29 km</desc>
<time>2011-09-24T12:31:18.56</time>
<name>9332</name>
</trkpt>
<trkpt lat="41.810337" lon="-1.808162">
<ele>1140.5</ele>
<speed>42.5</speed>
<course>81.0</course>
<desc>Speed 42.5 km/h Distance 42.31 km</desc>
<time>2011-09-24T12:31:19.56</time>
<name>9333</name>
</trkpt>
<trkpt lat="41.810370" lon="-1.807880">
<ele>1140.0</ele>
<speed>42.4</speed>
<course>84.2</course>
<desc>Speed 42.4 km/h Distance 42.33 km</desc>
<time>2011-09-24T12:31:21.57</time>
<name>9334</name>
</trkpt>
<trkpt lat="41.810392" lon="-1.807595">
<ele>1139.0</ele>
<speed>42.5</speed>
<course>84.1</course>
<desc>Speed 42.5 km/h Distance 42.35 km</desc>
<time>2011-09-24T12:31:23.56</time>
<name>9335</name>
</trkpt>
<trkpt lat="41.810413" lon="-1.807312">
<ele>1136.0</ele>
<speed>41.9</speed>
<course>93.1</course>
<desc>Speed 41.9 km/h Distance 42.38 km</desc>
<time>2011-09-24T12:31:25.56</time>
<name>9336</name>
</trkpt>
<trkpt lat="41.810402" lon="-1.807023">
<ele>1135.5</ele>
<speed>42.5</speed>
<course>95.0</course>
<desc>Speed 42.5 km/h Distance 42.40 km</desc>
<time>2011-09-24T12:31:27.56</time>
<name>9337</name>
</trkpt>
<trkpt lat="41.810383" lon="-1.806740">
<ele>1131.5</ele>
<speed>42.8</speed>
<course>110.2</course>
<desc>Speed 42.8 km/h Distance 42.42 km</desc>
<time>2011-09-24T12:31:29.56</time>
<name>9338</name>
</trkpt>
<trkpt lat="41.810307" lon="-1.806460">
<ele>1129.5</ele>
<speed>44.1</speed>
<course>108.5</course>
<desc>Speed 44.1 km/h Distance 42.45 km</desc>
<time>2011-09-24T12:31:31.56</time>
<name>9339</name>
</trkpt>
<trkpt lat="41.810272" lon="-1.806320">
<ele>1128.5</ele>
<speed>44.0</speed>
<course>108.5</course>
<desc>Speed 44.0 km/h Distance 42.46 km</desc>
<time>2011-09-24T12:31:32.55</time>
<name>9340</name>
</trkpt>
<trkpt lat="41.810237" lon="-1.806180">
<ele>1128.0</ele>
<speed>43.8</speed>
<course>110.9</course>
<desc>Speed 43.8 km/h Distance 42.47 km</desc>
<time>2011-09-24T12:31:33.56</time>
<name>9341</name>
</trkpt>
<trkpt lat="41.810198" lon="-1.806045">
<ele>1127.5</ele>
<speed>43.5</speed>
<course>112.7</course>
<desc>Speed 43.5 km/h Distance 42.49 km</desc>
<time>2011-09-24T12:31:34.55</time>
<name>9342</name>
</trkpt>
<trkpt lat="41.810157" lon="-1.805912">
<ele>1127.5</ele>
<speed>43.0</speed>
<course>112.2</course>
<desc>Speed 43.0 km/h Distance 42.50 km</desc>
<time>2011-09-24T12:31:35.56</time>
<name>9343</name>
</trkpt>
<trkpt lat="41.810117" lon="-1.805780">
<ele>1127.0</ele>
<speed>42.4</speed>
<course>111.6</course>
<desc>Speed 42.4 km/h Distance 42.51 km</desc>
<time>2011-09-24T12:31:36.55</time>
<name>9344</name>
</trkpt>
<trkpt lat="41.810078" lon="-1.805650">
<ele>1127.0</ele>
<speed>41.9</speed>
<course>112.7</course>
<desc>Speed 41.9 km/h Distance 42.52 km</desc>
<time>2011-09-24T12:31:37.55</time>
<name>9345</name>
</trkpt>
<trkpt lat="41.810038" lon="-1.805522">
<ele>1126.5</ele>
<speed>41.7</speed>
<course>110.3</course>
<desc>Speed 41.7 km/h Distance 42.53 km</desc>
<time>2011-09-24T12:31:38.55</time>
<name>9346</name>
</trkpt>
<trkpt lat="41.810003" lon="-1.805395">
<ele>1125.5</ele>
<speed>40.8</speed>
<course>111.0</course>
<desc>Speed 40.8 km/h Distance 42.54 km</desc>
<time>2011-09-24T12:31:39.55</time>
<name>9347</name>
</trkpt>
<trkpt lat="41.809932" lon="-1.805145">
<ele>1124.5</ele>
<speed>40.1</speed>
<course>109.9</course>
<desc>Speed 40.1 km/h Distance 42.57 km</desc>
<time>2011-09-24T12:31:41.55</time>
<name>9348</name>
</trkpt>
<trkpt lat="41.809898" lon="-1.805022">
<ele>1124.0</ele>
<speed>39.5</speed>
<course>110.8</course>
<desc>Speed 39.5 km/h Distance 42.58 km</desc>
<time>2011-09-24T12:31:42.55</time>
<name>9349</name>
</trkpt>
<trkpt lat="41.809863" lon="-1.804898">
<ele>1123.5</ele>
<speed>39.5</speed>
<course>112.0</course>
<desc>Speed 39.5 km/h Distance 42.59 km</desc>
<time>2011-09-24T12:31:43.55</time>
<name>9350</name>
</trkpt>
<trkpt lat="41.809827" lon="-1.804777">
<ele>1123.0</ele>
<speed>39.0</speed>
<course>109.0</course>
<desc>Speed 39.0 km/h Distance 42.60 km</desc>
<time>2011-09-24T12:31:44.55</time>
<name>9351</name>
</trkpt>
<trkpt lat="41.809797" lon="-1.804660">
<ele>1122.5</ele>
<speed>37.3</speed>
<course>109.5</course>
<desc>Speed 37.3 km/h Distance 42.61 km</desc>
<time>2011-09-24T12:31:45.54</time>
<name>9352</name>
</trkpt>
<trkpt lat="41.809765" lon="-1.804540">
<ele>1122.0</ele>
<speed>38.7</speed>
<course>110.2</course>
<desc>Speed 38.7 km/h Distance 42.62 km</desc>
<time>2011-09-24T12:31:46.55</time>
<name>9353</name>
</trkpt>
<trkpt lat="41.809732" lon="-1.804418">
<ele>1122.0</ele>
<speed>38.4</speed>
<course>110.4</course>
<desc>Speed 38.4 km/h Distance 42.63 km</desc>
<time>2011-09-24T12:31:47.54</time>
<name>9354</name>
</trkpt>
<trkpt lat="41.809698" lon="-1.804298">
<ele>1121.5</ele>
<speed>38.4</speed>
<course>109.5</course>
<desc>Speed 38.4 km/h Distance 42.64 km</desc>
<time>2011-09-24T12:31:48.54</time>
<name>9355</name>
</trkpt>
<trkpt lat="41.809667" lon="-1.804178">
<ele>1121.0</ele>
<speed>37.9</speed>
<course>111.0</course>
<desc>Speed 37.9 km/h Distance 42.65 km</desc>
<time>2011-09-24T12:31:49.54</time>
<name>9356</name>
</trkpt>
<trkpt lat="41.809633" lon="-1.804062">
<ele>1121.0</ele>
<speed>37.8</speed>
<course>111.1</course>
<desc>Speed 37.8 km/h Distance 42.66 km</desc>
<time>2011-09-24T12:31:50.54</time>
<name>9357</name>
</trkpt>
<trkpt lat="41.809567" lon="-1.803830">
<ele>1119.5</ele>
<speed>37.4</speed>
<course>111.4</course>
<desc>Speed 37.4 km/h Distance 42.68 km</desc>
<time>2011-09-24T12:31:52.54</time>
<name>9358</name>
</trkpt>
<trkpt lat="41.809532" lon="-1.803710">
<ele>1118.5</ele>
<speed>39.0</speed>
<course>107.1</course>
<desc>Speed 39.0 km/h Distance 42.69 km</desc>
<time>2011-09-24T12:31:53.54</time>
<name>9359</name>
</trkpt>
<trkpt lat="41.809503" lon="-1.803587">
<ele>1118.0</ele>
<speed>39.0</speed>
<course>107.8</course>
<desc>Speed 39.0 km/h Distance 42.70 km</desc>
<time>2011-09-24T12:31:54.54</time>
<name>9360</name>
</trkpt>
<trkpt lat="41.809473" lon="-1.803462">
<ele>1117.5</ele>
<speed>39.5</speed>
<course>111.7</course>
<desc>Speed 39.5 km/h Distance 42.71 km</desc>
<time>2011-09-24T12:31:55.54</time>
<name>9361</name>
</trkpt>
<trkpt lat="41.809437" lon="-1.803338">
<ele>1117.0</ele>
<speed>39.7</speed>
<course>111.7</course>
<desc>Speed 39.7 km/h Distance 42.73 km</desc>
<time>2011-09-24T12:31:56.54</time>
<name>9362</name>
</trkpt>
<trkpt lat="41.809400" lon="-1.803215">
<ele>1117.0</ele>
<speed>40.1</speed>
<course>110.8</course>
<desc>Speed 40.1 km/h Distance 42.74 km</desc>
<time>2011-09-24T12:31:57.54</time>
<name>9363</name>
</trkpt>
<trkpt lat="41.809365" lon="-1.803092">
<ele>1116.0</ele>
<speed>40.2</speed>
<course>109.0</course>
<desc>Speed 40.2 km/h Distance 42.75 km</desc>
<time>2011-09-24T12:31:58.54</time>
<name>9364</name>
</trkpt>
<trkpt lat="41.809332" lon="-1.802962">
<ele>1115.5</ele>
<speed>41.4</speed>
<course>109.4</course>
<desc>Speed 41.4 km/h Distance 42.76 km</desc>
<time>2011-09-24T12:31:59.53</time>
<name>9365</name>
</trkpt>
<trkpt lat="41.809297" lon="-1.802828">
<ele>1115.0</ele>
<speed>42.2</speed>
<course>108.8</course>
<desc>Speed 42.2 km/h Distance 42.77 km</desc>
<time>2011-09-24T12:32:00.54</time>
<name>9366</name>
</trkpt>
<trkpt lat="41.809230" lon="-1.802565">
<ele>1114.0</ele>
<speed>41.7</speed>
<course>111.6</course>
<desc>Speed 41.7 km/h Distance 42.79 km</desc>
<time>2011-09-24T12:32:02.54</time>
<name>9367</name>
</trkpt>
<trkpt lat="41.809192" lon="-1.802435">
<ele>1113.5</ele>
<speed>42.2</speed>
<course>114.1</course>
<desc>Speed 42.2 km/h Distance 42.81 km</desc>
<time>2011-09-24T12:32:03.54</time>
<name>9368</name>
</trkpt>
<trkpt lat="41.809150" lon="-1.802310">
<ele>1113.5</ele>
<speed>41.1</speed>
<course>116.7</course>
<desc>Speed 41.1 km/h Distance 42.82 km</desc>
<time>2011-09-24T12:32:04.54</time>
<name>9369</name>
</trkpt>
<trkpt lat="41.809105" lon="-1.802190">
<ele>1113.0</ele>
<speed>40.2</speed>
<course>123.4</course>
<desc>Speed 40.2 km/h Distance 42.83 km</desc>
<time>2011-09-24T12:32:05.54</time>
<name>9370</name>
</trkpt>
<trkpt lat="41.809052" lon="-1.802082">
<ele>1112.5</ele>
<speed>39.2</speed>
<course>134.8</course>
<desc>Speed 39.2 km/h Distance 42.84 km</desc>
<time>2011-09-24T12:32:06.53</time>
<name>9371</name>
</trkpt>
<trkpt lat="41.808985" lon="-1.801992">
<ele>1111.5</ele>
<speed>38.1</speed>
<course>154.2</course>
<desc>Speed 38.1 km/h Distance 42.85 km</desc>
<time>2011-09-24T12:32:07.53</time>
<name>9372</name>
</trkpt>
<trkpt lat="41.808900" lon="-1.801937">
<ele>1112.5</ele>
<speed>37.2</speed>
<course>158.4</course>
<desc>Speed 37.2 km/h Distance 42.86 km</desc>
<time>2011-09-24T12:32:08.54</time>
<name>9373</name>
</trkpt>
<trkpt lat="41.808818" lon="-1.801893">
<ele>1111.0</ele>
<speed>35.1</speed>
<course>165.8</course>
<desc>Speed 35.1 km/h Distance 42.87 km</desc>
<time>2011-09-24T12:32:09.54</time>
<name>9374</name>
</trkpt>
<trkpt lat="41.808730" lon="-1.801863">
<ele>1111.5</ele>
<speed>36.3</speed>
<course>175.3</course>
<desc>Speed 36.3 km/h Distance 42.88 km</desc>
<time>2011-09-24T12:32:10.53</time>
<name>9375</name>
</trkpt>
<trkpt lat="41.808563" lon="-1.801845">
<ele>1108.0</ele>
<speed>33.0</speed>
<course>171.0</course>
<desc>Speed 33.0 km/h Distance 42.90 km</desc>
<time>2011-09-24T12:32:12.53</time>
<name>9376</name>
</trkpt>
<trkpt lat="41.808390" lon="-1.801808">
<ele>1109.5</ele>
<speed>33.8</speed>
<course>160.0</course>
<desc>Speed 33.8 km/h Distance 42.92 km</desc>
<time>2011-09-24T12:32:14.53</time>
<name>9377</name>
</trkpt>
<trkpt lat="41.808312" lon="-1.801770">
<ele>1109.5</ele>
<speed>33.9</speed>
<course>138.2</course>
<desc>Speed 33.9 km/h Distance 42.93 km</desc>
<time>2011-09-24T12:32:15.53</time>
<name>9378</name>
</trkpt>
<trkpt lat="41.808253" lon="-1.801700">
<ele>1107.5</ele>
<speed>31.9</speed>
<course>122.0</course>
<desc>Speed 31.9 km/h Distance 42.94 km</desc>
<time>2011-09-24T12:32:16.54</time>
<name>9379</name>
</trkpt>
<trkpt lat="41.808220" lon="-1.801628">
<ele>1106.0</ele>
<speed>26.1</speed>
<course>116.6</course>
<desc>Speed 26.1 km/h Distance 42.94 km</desc>
<time>2011-09-24T12:32:17.53</time>
<name>9380</name>
</trkpt>
<trkpt lat="41.808188" lon="-1.801543">
<ele>1106.0</ele>
<speed>28.6</speed>
<course>91.4</course>
<desc>Speed 28.6 km/h Distance 42.95 km</desc>
<time>2011-09-24T12:32:18.53</time>
<name>9381</name>
</trkpt>
<trkpt lat="41.808187" lon="-1.801452">
<ele>1105.0</ele>
<speed>27.8</speed>
<course>93.8</course>
<desc>Speed 27.8 km/h Distance 42.96 km</desc>
<time>2011-09-24T12:32:19.53</time>
<name>9382</name>
</trkpt>
<trkpt lat="41.808182" lon="-1.801352">
<ele>1105.5</ele>
<speed>30.1</speed>
<course>71.7</course>
<desc>Speed 30.1 km/h Distance 42.97 km</desc>
<time>2011-09-24T12:32:20.53</time>
<name>9383</name>
</trkpt>
<trkpt lat="41.808207" lon="-1.801250">
<ele>1104.0</ele>
<speed>31.8</speed>
<course>82.1</course>
<desc>Speed 31.8 km/h Distance 42.98 km</desc>
<time>2011-09-24T12:32:21.53</time>
<name>9384</name>
</trkpt>
<trkpt lat="41.808228" lon="-1.801042">
<ele>1102.5</ele>
<speed>32.5</speed>
<course>88.8</course>
<desc>Speed 32.5 km/h Distance 42.99 km</desc>
<time>2011-09-24T12:32:23.52</time>
<name>9385</name>
</trkpt>
<trkpt lat="41.808230" lon="-1.800935">
<ele>1101.5</ele>
<speed>32.5</speed>
<course>70.4</course>
<desc>Speed 32.5 km/h Distance 43.00 km</desc>
<time>2011-09-24T12:32:24.52</time>
<name>9386</name>
</trkpt>
<trkpt lat="41.808258" lon="-1.800828">
<ele>1100.0</ele>
<speed>34.3</speed>
<course>94.9</course>
<desc>Speed 34.3 km/h Distance 43.01 km</desc>
<time>2011-09-24T12:32:25.52</time>
<name>9387</name>
</trkpt>
<trkpt lat="41.808252" lon="-1.800723">
<ele>1099.0</ele>
<speed>32.1</speed>
<course>121.0</course>
<desc>Speed 32.1 km/h Distance 43.02 km</desc>
<time>2011-09-24T12:32:26.52</time>
<name>9388</name>
</trkpt>
<trkpt lat="41.808208" lon="-1.800627">
<ele>1099.0</ele>
<speed>34.1</speed>
<course>143.3</course>
<desc>Speed 34.1 km/h Distance 43.03 km</desc>
<time>2011-09-24T12:32:27.52</time>
<name>9389</name>
</trkpt>
<trkpt lat="41.808152" lon="-1.800570">
<ele>1097.5</ele>
<speed>28.5</speed>
<course>151.4</course>
<desc>Speed 28.5 km/h Distance 43.04 km</desc>
<time>2011-09-24T12:32:28.52</time>
<name>9390</name>
</trkpt>
<trkpt lat="41.808083" lon="-1.800520">
<ele>1097.0</ele>
<speed>31.1</speed>
<course>157.9</course>
<desc>Speed 31.1 km/h Distance 43.05 km</desc>
<time>2011-09-24T12:32:29.52</time>
<name>9391</name>
</trkpt>
<trkpt lat="41.808007" lon="-1.800478">
<ele>1097.0</ele>
<speed>32.5</speed>
<course>161.9</course>
<desc>Speed 32.5 km/h Distance 43.05 km</desc>
<time>2011-09-24T12:32:30.52</time>
<name>9392</name>
</trkpt>
<trkpt lat="41.807927" lon="-1.800443">
<ele>1097.0</ele>
<speed>33.2</speed>
<course>161.9</course>
<desc>Speed 33.2 km/h Distance 43.06 km</desc>
<time>2011-09-24T12:32:31.52</time>
<name>9393</name>
</trkpt>
<trkpt lat="41.807847" lon="-1.800408">
<ele>1097.0</ele>
<speed>33.4</speed>
<course>162.3</course>
<desc>Speed 33.4 km/h Distance 43.07 km</desc>
<time>2011-09-24T12:32:32.52</time>
<name>9394</name>
</trkpt>
<trkpt lat="41.807765" lon="-1.800373">
<ele>1097.0</ele>
<speed>33.1</speed>
<course>160.7</course>
<desc>Speed 33.1 km/h Distance 43.08 km</desc>
<time>2011-09-24T12:32:33.52</time>
<name>9395</name>
</trkpt>
<trkpt lat="41.807683" lon="-1.800335">
<ele>1097.0</ele>
<speed>33.3</speed>
<course>163.6</course>
<desc>Speed 33.3 km/h Distance 43.09 km</desc>
<time>2011-09-24T12:32:34.52</time>
<name>9396</name>
</trkpt>
<trkpt lat="41.807603" lon="-1.800303">
<ele>1096.5</ele>
<speed>30.7</speed>
<course>161.6</course>
<desc>Speed 30.7 km/h Distance 43.10 km</desc>
<time>2011-09-24T12:32:35.53</time>
<name>9397</name>
</trkpt>
<trkpt lat="41.807525" lon="-1.800268">
<ele>1096.5</ele>
<speed>31.8</speed>
<course>160.8</course>
<desc>Speed 31.8 km/h Distance 43.11 km</desc>
<time>2011-09-24T12:32:36.52</time>
<name>9398</name>
</trkpt>
<trkpt lat="41.807447" lon="-1.800232">
<ele>1096.5</ele>
<speed>31.5</speed>
<course>161.3</course>
<desc>Speed 31.5 km/h Distance 43.12 km</desc>
<time>2011-09-24T12:32:37.52</time>
<name>9399</name>
</trkpt>
<trkpt lat="41.807373" lon="-1.800198">
<ele>1096.0</ele>
<speed>30.5</speed>
<course>161.9</course>
<desc>Speed 30.5 km/h Distance 43.13 km</desc>
<time>2011-09-24T12:32:38.51</time>
<name>9400</name>
</trkpt>
<trkpt lat="41.807293" lon="-1.800163">
<ele>1095.5</ele>
<speed>32.0</speed>
<course>161.1</course>
<desc>Speed 32.0 km/h Distance 43.14 km</desc>
<time>2011-09-24T12:32:39.52</time>
<name>9401</name>
</trkpt>
<trkpt lat="41.807213" lon="-1.800127">
<ele>1096.0</ele>
<speed>32.7</speed>
<course>160.0</course>
<desc>Speed 32.7 km/h Distance 43.15 km</desc>
<time>2011-09-24T12:32:40.51</time>
<name>9402</name>
</trkpt>
<trkpt lat="41.807135" lon="-1.800088">
<ele>1096.0</ele>
<speed>32.7</speed>
<course>160.3</course>
<desc>Speed 32.7 km/h Distance 43.16 km</desc>
<time>2011-09-24T12:32:41.51</time>
<name>9403</name>
</trkpt>
<trkpt lat="41.807055" lon="-1.800050">
<ele>1095.5</ele>
<speed>32.5</speed>
<course>161.5</course>
<desc>Speed 32.5 km/h Distance 43.17 km</desc>
<time>2011-09-24T12:32:42.51</time>
<name>9404</name>
</trkpt>
<trkpt lat="41.806973" lon="-1.800013">
<ele>1095.5</ele>
<speed>33.5</speed>
<course>161.9</course>
<desc>Speed 33.5 km/h Distance 43.18 km</desc>
<time>2011-09-24T12:32:43.52</time>
<name>9405</name>
</trkpt>
<trkpt lat="41.806893" lon="-1.799978">
<ele>1095.0</ele>
<speed>33.0</speed>
<course>161.5</course>
<desc>Speed 33.0 km/h Distance 43.19 km</desc>
<time>2011-09-24T12:32:44.51</time>
<name>9406</name>
</trkpt>
<trkpt lat="41.806812" lon="-1.799942">
<ele>1095.0</ele>
<speed>33.6</speed>
<course>160.7</course>
<desc>Speed 33.6 km/h Distance 43.20 km</desc>
<time>2011-09-24T12:32:45.51</time>
<name>9407</name>
</trkpt>
<trkpt lat="41.806730" lon="-1.799903">
<ele>1095.5</ele>
<speed>33.6</speed>
<course>164.7</course>
<desc>Speed 33.6 km/h Distance 43.20 km</desc>
<time>2011-09-24T12:32:46.52</time>
<name>9408</name>
</trkpt>
<trkpt lat="41.806648" lon="-1.799873">
<ele>1095.5</ele>
<speed>32.9</speed>
<course>169.2</course>
<desc>Speed 32.9 km/h Distance 43.21 km</desc>
<time>2011-09-24T12:32:47.51</time>
<name>9409</name>
</trkpt>
<trkpt lat="41.806563" lon="-1.799852">
<ele>1096.5</ele>
<speed>34.3</speed>
<course>178.2</course>
<desc>Speed 34.3 km/h Distance 43.22 km</desc>
<time>2011-09-24T12:32:48.51</time>
<name>9410</name>
</trkpt>
<trkpt lat="41.806480" lon="-1.799848">
<ele>1096.5</ele>
<speed>32.9</speed>
<course>184.4</course>
<desc>Speed 32.9 km/h Distance 43.23 km</desc>
<time>2011-09-24T12:32:49.52</time>
<name>9411</name>
</trkpt>
<trkpt lat="41.806398" lon="-1.799857">
<ele>1097.0</ele>
<speed>32.5</speed>
<course>191.0</course>
<desc>Speed 32.5 km/h Distance 43.24 km</desc>
<time>2011-09-24T12:32:50.52</time>
<name>9412</name>
</trkpt>
<trkpt lat="41.806315" lon="-1.799878">
<ele>1097.0</ele>
<speed>32.7</speed>
<course>200.8</course>
<desc>Speed 32.7 km/h Distance 43.25 km</desc>
<time>2011-09-24T12:32:51.51</time>
<name>9413</name>
</trkpt>
<trkpt lat="41.806237" lon="-1.799918">
<ele>1097.5</ele>
<speed>33.2</speed>
<course>204.1</course>
<desc>Speed 33.2 km/h Distance 43.26 km</desc>
<time>2011-09-24T12:32:52.52</time>
<name>9414</name>
</trkpt>
<trkpt lat="41.806162" lon="-1.799963">
<ele>1097.0</ele>
<speed>32.8</speed>
<course>207.2</course>
<desc>Speed 32.8 km/h Distance 43.27 km</desc>
<time>2011-09-24T12:32:53.52</time>
<name>9415</name>
</trkpt>
<trkpt lat="41.806087" lon="-1.800015">
<ele>1097.0</ele>
<speed>33.0</speed>
<course>210.5</course>
<desc>Speed 33.0 km/h Distance 43.28 km</desc>
<time>2011-09-24T12:32:54.51</time>
<name>9416</name>
</trkpt>
<trkpt lat="41.806015" lon="-1.800072">
<ele>1097.0</ele>
<speed>33.3</speed>
<course>211.8</course>
<desc>Speed 33.3 km/h Distance 43.29 km</desc>
<time>2011-09-24T12:32:55.51</time>
<name>9417</name>
</trkpt>
<trkpt lat="41.805945" lon="-1.800130">
<ele>1097.0</ele>
<speed>32.5</speed>
<course>213.1</course>
<desc>Speed 32.5 km/h Distance 43.30 km</desc>
<time>2011-09-24T12:32:56.50</time>
<name>9418</name>
</trkpt>
<trkpt lat="41.805878" lon="-1.800188">
<ele>1097.5</ele>
<speed>31.8</speed>
<course>211.0</course>
<desc>Speed 31.8 km/h Distance 43.31 km</desc>
<time>2011-09-24T12:32:57.51</time>
<name>9419</name>
</trkpt>
<trkpt lat="41.805810" lon="-1.800243">
<ele>1098.0</ele>
<speed>31.6</speed>
<course>211.4</course>
<desc>Speed 31.6 km/h Distance 43.32 km</desc>
<time>2011-09-24T12:32:58.51</time>
<name>9420</name>
</trkpt>
<trkpt lat="41.805745" lon="-1.800297">
<ele>1098.0</ele>
<speed>30.6</speed>
<course>205.3</course>
<desc>Speed 30.6 km/h Distance 43.32 km</desc>
<time>2011-09-24T12:32:59.50</time>
<name>9421</name>
</trkpt>
<trkpt lat="41.805677" lon="-1.800340">
<ele>1098.0</ele>
<speed>29.8</speed>
<course>192.7</course>
<desc>Speed 29.8 km/h Distance 43.33 km</desc>
<time>2011-09-24T12:33:00.50</time>
<name>9422</name>
</trkpt>
<trkpt lat="41.805605" lon="-1.800362">
<ele>1098.0</ele>
<speed>28.8</speed>
<course>165.4</course>
<desc>Speed 28.8 km/h Distance 43.34 km</desc>
<time>2011-09-24T12:33:01.51</time>
<name>9423</name>
</trkpt>
<trkpt lat="41.805533" lon="-1.800337">
<ele>1099.0</ele>
<speed>29.7</speed>
<course>151.2</course>
<desc>Speed 29.7 km/h Distance 43.35 km</desc>
<time>2011-09-24T12:33:02.50</time>
<name>9424</name>
</trkpt>
<trkpt lat="41.805470" lon="-1.800290">
<ele>1098.5</ele>
<speed>28.6</speed>
<course>145.7</course>
<desc>Speed 28.6 km/h Distance 43.36 km</desc>
<time>2011-09-24T12:33:03.50</time>
<name>9425</name>
</trkpt>
<trkpt lat="41.805412" lon="-1.800237">
<ele>1099.0</ele>
<speed>27.9</speed>
<course>110.3</course>
<desc>Speed 27.9 km/h Distance 43.37 km</desc>
<time>2011-09-24T12:33:04.50</time>
<name>9426</name>
</trkpt>
<trkpt lat="41.805385" lon="-1.800140">
<ele>1099.0</ele>
<speed>31.1</speed>
<course>99.0</course>
<desc>Speed 31.1 km/h Distance 43.37 km</desc>
<time>2011-09-24T12:33:05.51</time>
<name>9427</name>
</trkpt>
<trkpt lat="41.805375" lon="-1.800055">
<ele>1097.5</ele>
<speed>26.3</speed>
<course>95.6</course>
<desc>Speed 26.3 km/h Distance 43.38 km</desc>
<time>2011-09-24T12:33:06.51</time>
<name>9428</name>
</trkpt>
<trkpt lat="41.805368" lon="-1.799963">
<ele>1097.5</ele>
<speed>28.3</speed>
<course>77.6</course>
<desc>Speed 28.3 km/h Distance 43.39 km</desc>
<time>2011-09-24T12:33:07.51</time>
<name>9429</name>
</trkpt>
<trkpt lat="41.805383" lon="-1.799872">
<ele>1097.0</ele>
<speed>29.0</speed>
<course>74.2</course>
<desc>Speed 29.0 km/h Distance 43.40 km</desc>
<time>2011-09-24T12:33:08.51</time>
<name>9430</name>
</trkpt>
<trkpt lat="41.805402" lon="-1.799785">
<ele>1097.0</ele>
<speed>27.4</speed>
<course>63.6</course>
<desc>Speed 27.4 km/h Distance 43.40 km</desc>
<time>2011-09-24T12:33:09.51</time>
<name>9431</name>
</trkpt>
<trkpt lat="41.805435" lon="-1.799695">
<ele>1097.0</ele>
<speed>30.7</speed>
<course>63.3</course>
<desc>Speed 30.7 km/h Distance 43.41 km</desc>
<time>2011-09-24T12:33:10.51</time>
<name>9432</name>
</trkpt>
<trkpt lat="41.805470" lon="-1.799602">
<ele>1096.0</ele>
<speed>31.2</speed>
<course>65.5</course>
<desc>Speed 31.2 km/h Distance 43.42 km</desc>
<time>2011-09-24T12:33:11.50</time>
<name>9433</name>
</trkpt>
<trkpt lat="41.805502" lon="-1.799508">
<ele>1096.0</ele>
<speed>31.5</speed>
<course>68.9</course>
<desc>Speed 31.5 km/h Distance 43.43 km</desc>
<time>2011-09-24T12:33:12.50</time>
<name>9434</name>
</trkpt>
<trkpt lat="41.805530" lon="-1.799410">
<ele>1096.0</ele>
<speed>32.0</speed>
<course>67.0</course>
<desc>Speed 32.0 km/h Distance 43.44 km</desc>
<time>2011-09-24T12:33:13.50</time>
<name>9435</name>
</trkpt>
<trkpt lat="41.805562" lon="-1.799310">
<ele>1096.0</ele>
<speed>32.6</speed>
<course>65.9</course>
<desc>Speed 32.6 km/h Distance 43.45 km</desc>
<time>2011-09-24T12:33:14.50</time>
<name>9436</name>
</trkpt>
<trkpt lat="41.805595" lon="-1.799210">
<ele>1096.0</ele>
<speed>33.3</speed>
<course>64.2</course>
<desc>Speed 33.3 km/h Distance 43.46 km</desc>
<time>2011-09-24T12:33:15.51</time>
<name>9437</name>
</trkpt>
<trkpt lat="41.805632" lon="-1.799108">
<ele>1095.5</ele>
<speed>34.2</speed>
<course>63.5</course>
<desc>Speed 34.2 km/h Distance 43.47 km</desc>
<time>2011-09-24T12:33:16.50</time>
<name>9438</name>
</trkpt>
<trkpt lat="41.805670" lon="-1.799005">
<ele>1095.5</ele>
<speed>34.8</speed>
<course>66.6</course>
<desc>Speed 34.8 km/h Distance 43.47 km</desc>
<time>2011-09-24T12:33:17.50</time>
<name>9439</name>
</trkpt>
<trkpt lat="41.805703" lon="-1.798902">
<ele>1095.5</ele>
<speed>34.2</speed>
<course>65.2</course>
<desc>Speed 34.2 km/h Distance 43.48 km</desc>
<time>2011-09-24T12:33:18.50</time>
<name>9440</name>
</trkpt>
<trkpt lat="41.805738" lon="-1.798800">
<ele>1095.0</ele>
<speed>33.9</speed>
<course>65.9</course>
<desc>Speed 33.9 km/h Distance 43.49 km</desc>
<time>2011-09-24T12:33:19.50</time>
<name>9441</name>
</trkpt>
<trkpt lat="41.805773" lon="-1.798695">
<ele>1095.0</ele>
<speed>34.2</speed>
<course>77.8</course>
<desc>Speed 34.2 km/h Distance 43.50 km</desc>
<time>2011-09-24T12:33:20.49</time>
<name>9442</name>
</trkpt>
<trkpt lat="41.805790" lon="-1.798592">
<ele>1095.0</ele>
<speed>31.8</speed>
<course>64.0</course>
<desc>Speed 31.8 km/h Distance 43.51 km</desc>
<time>2011-09-24T12:33:21.50</time>
<name>9443</name>
</trkpt>
<trkpt lat="41.805830" lon="-1.798482">
<ele>1095.0</ele>
<speed>36.5</speed>
<course>75.2</course>
<desc>Speed 36.5 km/h Distance 43.52 km</desc>
<time>2011-09-24T12:33:22.49</time>
<name>9444</name>
</trkpt>
<trkpt lat="41.805852" lon="-1.798372">
<ele>1097.0</ele>
<speed>34.7</speed>
<course>71.5</course>
<desc>Speed 34.7 km/h Distance 43.53 km</desc>
<time>2011-09-24T12:33:23.49</time>
<name>9445</name>
</trkpt>
<trkpt lat="41.805878" lon="-1.798265">
<ele>1097.0</ele>
<speed>34.3</speed>
<course>66.3</course>
<desc>Speed 34.3 km/h Distance 43.54 km</desc>
<time>2011-09-24T12:33:24.49</time>
<name>9446</name>
</trkpt>
<trkpt lat="41.805912" lon="-1.798163">
<ele>1097.0</ele>
<speed>33.9</speed>
<course>60.4</course>
<desc>Speed 33.9 km/h Distance 43.55 km</desc>
<time>2011-09-24T12:33:25.49</time>
<name>9447</name>
</trkpt>
<trkpt lat="41.805953" lon="-1.798065">
<ele>1096.0</ele>
<speed>35.1</speed>
<course>65.2</course>
<desc>Speed 35.1 km/h Distance 43.56 km</desc>
<time>2011-09-24T12:33:26.50</time>
<name>9448</name>
</trkpt>
<trkpt lat="41.805988" lon="-1.797963">
<ele>1096.0</ele>
<speed>34.8</speed>
<course>65.6</course>
<desc>Speed 34.8 km/h Distance 43.57 km</desc>
<time>2011-09-24T12:33:27.50</time>
<name>9449</name>
</trkpt>
<trkpt lat="41.806023" lon="-1.797860">
<ele>1096.0</ele>
<speed>34.2</speed>
<course>66.6</course>
<desc>Speed 34.2 km/h Distance 43.58 km</desc>
<time>2011-09-24T12:33:28.49</time>
<name>9450</name>
</trkpt>
<trkpt lat="41.806057" lon="-1.797757">
<ele>1095.5</ele>
<speed>34.4</speed>
<course>66.3</course>
<desc>Speed 34.4 km/h Distance 43.59 km</desc>
<time>2011-09-24T12:33:29.49</time>
<name>9451</name>
</trkpt>
<trkpt lat="41.806090" lon="-1.797655">
<ele>1095.5</ele>
<speed>34.3</speed>
<course>65.2</course>
<desc>Speed 34.3 km/h Distance 43.60 km</desc>
<time>2011-09-24T12:33:30.50</time>
<name>9452</name>
</trkpt>
<trkpt lat="41.806125" lon="-1.797553">
<ele>1095.0</ele>
<speed>34.4</speed>
<course>66.6</course>
<desc>Speed 34.4 km/h Distance 43.61 km</desc>
<time>2011-09-24T12:33:31.50</time>
<name>9453</name>
</trkpt>
<trkpt lat="41.806158" lon="-1.797450">
<ele>1094.5</ele>
<speed>34.5</speed>
<course>68.3</course>
<desc>Speed 34.5 km/h Distance 43.62 km</desc>
<time>2011-09-24T12:33:32.50</time>
<name>9454</name>
</trkpt>
<trkpt lat="41.806190" lon="-1.797343">
<ele>1094.5</ele>
<speed>34.8</speed>
<course>66.9</course>
<desc>Speed 34.8 km/h Distance 43.62 km</desc>
<time>2011-09-24T12:33:33.50</time>
<name>9455</name>
</trkpt>
<trkpt lat="41.806223" lon="-1.797238">
<ele>1094.0</ele>
<speed>34.7</speed>
<course>64.5</course>
<desc>Speed 34.7 km/h Distance 43.63 km</desc>
<time>2011-09-24T12:33:34.49</time>
<name>9456</name>
</trkpt>
<trkpt lat="41.806260" lon="-1.797135">
<ele>1094.0</ele>
<speed>35.0</speed>
<course>65.6</course>
<desc>Speed 35.0 km/h Distance 43.64 km</desc>
<time>2011-09-24T12:33:35.49</time>
<name>9457</name>
</trkpt>
<trkpt lat="41.806295" lon="-1.797032">
<ele>1093.5</ele>
<speed>34.6</speed>
<course>67.3</course>
<desc>Speed 34.6 km/h Distance 43.65 km</desc>
<time>2011-09-24T12:33:36.49</time>
<name>9458</name>
</trkpt>
<trkpt lat="41.806328" lon="-1.796925">
<ele>1093.5</ele>
<speed>35.0</speed>
<course>66.9</course>
<desc>Speed 35.0 km/h Distance 43.66 km</desc>
<time>2011-09-24T12:33:37.49</time>
<name>9459</name>
</trkpt>
<trkpt lat="41.806362" lon="-1.796820">
<ele>1093.5</ele>
<speed>34.3</speed>
<course>66.3</course>
<desc>Speed 34.3 km/h Distance 43.67 km</desc>
<time>2011-09-24T12:33:38.48</time>
<name>9460</name>
</trkpt>
<trkpt lat="41.806395" lon="-1.796718">
<ele>1093.0</ele>
<speed>33.6</speed>
<course>67.0</course>
<desc>Speed 33.6 km/h Distance 43.68 km</desc>
<time>2011-09-24T12:33:39.49</time>
<name>9461</name>
</trkpt>
<trkpt lat="41.806427" lon="-1.796618">
<ele>1093.0</ele>
<speed>33.0</speed>
<course>68.4</course>
<desc>Speed 33.0 km/h Distance 43.69 km</desc>
<time>2011-09-24T12:33:40.48</time>
<name>9462</name>
</trkpt>
<trkpt lat="41.806457" lon="-1.796517">
<ele>1092.5</ele>
<speed>33.3</speed>
<course>72.3</course>
<desc>Speed 33.3 km/h Distance 43.70 km</desc>
<time>2011-09-24T12:33:41.48</time>
<name>9463</name>
</trkpt>
<trkpt lat="41.806482" lon="-1.796412">
<ele>1092.0</ele>
<speed>33.5</speed>
<course>73.4</course>
<desc>Speed 33.5 km/h Distance 43.71 km</desc>
<time>2011-09-24T12:33:42.48</time>
<name>9464</name>
</trkpt>
<trkpt lat="41.806505" lon="-1.796307">
<ele>1091.5</ele>
<speed>33.8</speed>
<course>76.1</course>
<desc>Speed 33.8 km/h Distance 43.72 km</desc>
<time>2011-09-24T12:33:43.48</time>
<name>9465</name>
</trkpt>
<trkpt lat="41.806525" lon="-1.796198">
<ele>1091.0</ele>
<speed>33.7</speed>
<course>77.4</course>
<desc>Speed 33.7 km/h Distance 43.73 km</desc>
<time>2011-09-24T12:33:44.48</time>
<name>9466</name>
</trkpt>
<trkpt lat="41.806543" lon="-1.796088">
<ele>1091.0</ele>
<speed>34.1</speed>
<course>79.9</course>
<desc>Speed 34.1 km/h Distance 43.74 km</desc>
<time>2011-09-24T12:33:45.48</time>
<name>9467</name>
</trkpt>
<trkpt lat="41.806558" lon="-1.795975">
<ele>1090.5</ele>
<speed>34.4</speed>
<course>77.6</course>
<desc>Speed 34.4 km/h Distance 43.75 km</desc>
<time>2011-09-24T12:33:46.49</time>
<name>9468</name>
</trkpt>
<trkpt lat="41.806577" lon="-1.795863">
<ele>1090.5</ele>
<speed>34.6</speed>
<course>82.1</course>
<desc>Speed 34.6 km/h Distance 43.76 km</desc>
<time>2011-09-24T12:33:47.48</time>
<name>9469</name>
</trkpt>
<trkpt lat="41.806588" lon="-1.795750">
<ele>1090.5</ele>
<speed>34.9</speed>
<course>84.4</course>
<desc>Speed 34.9 km/h Distance 43.77 km</desc>
<time>2011-09-24T12:33:48.48</time>
<name>9470</name>
</trkpt>
<trkpt lat="41.806597" lon="-1.795635">
<ele>1091.0</ele>
<speed>35.3</speed>
<course>84.4</course>
<desc>Speed 35.3 km/h Distance 43.77 km</desc>
<time>2011-09-24T12:33:49.48</time>
<name>9471</name>
</trkpt>
<trkpt lat="41.806605" lon="-1.795520">
<ele>1091.0</ele>
<speed>35.3</speed>
<course>85.6</course>
<desc>Speed 35.3 km/h Distance 43.78 km</desc>
<time>2011-09-24T12:33:50.48</time>
<name>9472</name>
</trkpt>
<trkpt lat="41.806612" lon="-1.795403">
<ele>1090.5</ele>
<speed>35.4</speed>
<course>92.2</course>
<desc>Speed 35.4 km/h Distance 43.79 km</desc>
<time>2011-09-24T12:33:51.48</time>
<name>9473</name>
</trkpt>
<trkpt lat="41.806608" lon="-1.795285">
<ele>1091.0</ele>
<speed>35.6</speed>
<course>91.1</course>
<desc>Speed 35.6 km/h Distance 43.80 km</desc>
<time>2011-09-24T12:33:52.49</time>
<name>9474</name>
</trkpt>
<trkpt lat="41.806607" lon="-1.795167">
<ele>1091.5</ele>
<speed>35.6</speed>
<course>93.1</course>
<desc>Speed 35.6 km/h Distance 43.81 km</desc>
<time>2011-09-24T12:33:53.48</time>
<name>9475</name>
</trkpt>
<trkpt lat="41.806602" lon="-1.795042">
<ele>1093.5</ele>
<speed>37.0</speed>
<course>88.9</course>
<desc>Speed 37.0 km/h Distance 43.82 km</desc>
<time>2011-09-24T12:33:54.48</time>
<name>9476</name>
</trkpt>
<trkpt lat="41.806603" lon="-1.794920">
<ele>1094.5</ele>
<speed>36.4</speed>
<course>87.9</course>
<desc>Speed 36.4 km/h Distance 43.83 km</desc>
<time>2011-09-24T12:33:55.48</time>
<name>9477</name>
</trkpt>
<trkpt lat="41.806607" lon="-1.794800">
<ele>1095.5</ele>
<speed>36.3</speed>
<course>87.8</course>
<desc>Speed 36.3 km/h Distance 43.84 km</desc>
<time>2011-09-24T12:33:56.47</time>
<name>9478</name>
</trkpt>
<trkpt lat="41.806610" lon="-1.794682">
<ele>1095.0</ele>
<speed>35.9</speed>
<course>86.8</course>
<desc>Speed 35.9 km/h Distance 43.85 km</desc>
<time>2011-09-24T12:33:57.48</time>
<name>9479</name>
</trkpt>
<trkpt lat="41.806615" lon="-1.794563">
<ele>1095.0</ele>
<speed>35.9</speed>
<course>78.4</course>
<desc>Speed 35.9 km/h Distance 43.86 km</desc>
<time>2011-09-24T12:33:58.48</time>
<name>9480</name>
</trkpt>
<trkpt lat="41.806633" lon="-1.794443">
<ele>1094.5</ele>
<speed>37.3</speed>
<course>72.2</course>
<desc>Speed 37.3 km/h Distance 43.87 km</desc>
<time>2011-09-24T12:33:59.48</time>
<name>9481</name>
</trkpt>
<trkpt lat="41.806662" lon="-1.794325">
<ele>1093.0</ele>
<speed>37.0</speed>
<course>82.4</course>
<desc>Speed 37.0 km/h Distance 43.88 km</desc>
<time>2011-09-24T12:34:00.48</time>
<name>9482</name>
</trkpt>
<trkpt lat="41.806673" lon="-1.794208">
<ele>1092.5</ele>
<speed>35.9</speed>
<course>87.8</course>
<desc>Speed 35.9 km/h Distance 43.89 km</desc>
<time>2011-09-24T12:34:01.47</time>
<name>9483</name>
</trkpt>
<trkpt lat="41.806677" lon="-1.794090">
<ele>1092.0</ele>
<speed>35.6</speed>
<course>85.7</course>
<desc>Speed 35.6 km/h Distance 43.90 km</desc>
<time>2011-09-24T12:34:02.47</time>
<name>9484</name>
</trkpt>
<trkpt lat="41.806683" lon="-1.793972">
<ele>1091.5</ele>
<speed>35.6</speed>
<course>86.7</course>
<desc>Speed 35.6 km/h Distance 43.91 km</desc>
<time>2011-09-24T12:34:03.47</time>
<name>9485</name>
</trkpt>
<trkpt lat="41.806688" lon="-1.793855">
<ele>1091.0</ele>
<speed>35.5</speed>
<course>109.0</course>
<desc>Speed 35.5 km/h Distance 43.92 km</desc>
<time>2011-09-24T12:34:04.47</time>
<name>9486</name>
</trkpt>
<trkpt lat="41.806658" lon="-1.793738">
<ele>1091.0</ele>
<speed>37.2</speed>
<course>104.0</course>
<desc>Speed 37.2 km/h Distance 43.93 km</desc>
<time>2011-09-24T12:34:05.48</time>
<name>9487</name>
</trkpt>
<trkpt lat="41.806637" lon="-1.793622">
<ele>1090.5</ele>
<speed>36.4</speed>
<course>114.1</course>
<desc>Speed 36.4 km/h Distance 43.94 km</desc>
<time>2011-09-24T12:34:06.48</time>
<name>9488</name>
</trkpt>
<trkpt lat="41.806600" lon="-1.793512">
<ele>1090.0</ele>
<speed>36.3</speed>
<course>123.0</course>
<desc>Speed 36.3 km/h Distance 43.95 km</desc>
<time>2011-09-24T12:34:07.47</time>
<name>9489</name>
</trkpt>
<trkpt lat="41.806550" lon="-1.793408">
<ele>1090.0</ele>
<speed>36.9</speed>
<course>131.0</course>
<desc>Speed 36.9 km/h Distance 43.96 km</desc>
<time>2011-09-24T12:34:08.47</time>
<name>9490</name>
</trkpt>
<trkpt lat="41.806492" lon="-1.793318">
<ele>1090.0</ele>
<speed>35.7</speed>
<course>140.8</course>
<desc>Speed 35.7 km/h Distance 43.97 km</desc>
<time>2011-09-24T12:34:09.47</time>
<name>9491</name>
</trkpt>
<trkpt lat="41.806420" lon="-1.793240">
<ele>1090.0</ele>
<speed>36.3</speed>
<course>145.8</course>
<desc>Speed 36.3 km/h Distance 43.98 km</desc>
<time>2011-09-24T12:34:10.47</time>
<name>9492</name>
</trkpt>
<trkpt lat="41.806343" lon="-1.793170">
<ele>1090.0</ele>
<speed>36.1</speed>
<course>146.4</course>
<desc>Speed 36.1 km/h Distance 43.99 km</desc>
<time>2011-09-24T12:34:11.47</time>
<name>9493</name>
</trkpt>
<trkpt lat="41.806267" lon="-1.793102">
<ele>1089.5</ele>
<speed>36.2</speed>
<course>143.9</course>
<desc>Speed 36.2 km/h Distance 44.00 km</desc>
<time>2011-09-24T12:34:12.48</time>
<name>9494</name>
</trkpt>
<trkpt lat="41.806192" lon="-1.793028">
<ele>1089.5</ele>
<speed>36.4</speed>
<course>144.6</course>
<desc>Speed 36.4 km/h Distance 44.01 km</desc>
<time>2011-09-24T12:34:13.46</time>
<name>9495</name>
</trkpt>
<trkpt lat="41.806118" lon="-1.792958">
<ele>1089.5</ele>
<speed>35.4</speed>
<course>145.2</course>
<desc>Speed 35.4 km/h Distance 44.02 km</desc>
<time>2011-09-24T12:34:14.46</time>
<name>9496</name>
</trkpt>
<trkpt lat="41.806043" lon="-1.792888">
<ele>1089.5</ele>
<speed>35.5</speed>
<course>145.1</course>
<desc>Speed 35.5 km/h Distance 44.03 km</desc>
<time>2011-09-24T12:34:15.46</time>
<name>9497</name>
</trkpt>
<trkpt lat="41.805967" lon="-1.792817">
<ele>1090.5</ele>
<speed>37.0</speed>
<course>143.3</course>
<desc>Speed 37.0 km/h Distance 44.05 km</desc>
<time>2011-09-24T12:34:16.47</time>
<name>9498</name>
</trkpt>
<trkpt lat="41.805895" lon="-1.792745">
<ele>1090.0</ele>
<speed>35.1</speed>
<course>142.7</course>
<desc>Speed 35.1 km/h Distance 44.06 km</desc>
<time>2011-09-24T12:34:17.46</time>
<name>9499</name>
</trkpt>
<trkpt lat="41.805823" lon="-1.792672">
<ele>1090.5</ele>
<speed>35.0</speed>
<course>146.2</course>
<desc>Speed 35.0 km/h Distance 44.07 km</desc>
<time>2011-09-24T12:34:18.47</time>
<name>9500</name>
</trkpt>
<trkpt lat="41.805758" lon="-1.792613">
<ele>1090.5</ele>
<speed>30.6</speed>
<course>146.7</course>
<desc>Speed 30.6 km/h Distance 44.07 km</desc>
<time>2011-09-24T12:34:19.46</time>
<name>9501</name>
</trkpt>
<trkpt lat="41.805688" lon="-1.792552">
<ele>1090.5</ele>
<speed>32.8</speed>
<course>145.4</course>
<desc>Speed 32.8 km/h Distance 44.08 km</desc>
<time>2011-09-24T12:34:20.46</time>
<name>9502</name>
</trkpt>
<trkpt lat="41.805622" lon="-1.792490">
<ele>1090.5</ele>
<speed>32.3</speed>
<course>142.6</course>
<desc>Speed 32.3 km/h Distance 44.09 km</desc>
<time>2011-09-24T12:34:21.46</time>
<name>9503</name>
</trkpt>
<trkpt lat="41.805558" lon="-1.792425">
<ele>1090.0</ele>
<speed>31.5</speed>
<course>141.1</course>
<desc>Speed 31.5 km/h Distance 44.10 km</desc>
<time>2011-09-24T12:34:22.47</time>
<name>9504</name>
</trkpt>
<trkpt lat="41.805497" lon="-1.792358">
<ele>1090.0</ele>
<speed>31.2</speed>
<course>146.2</course>
<desc>Speed 31.2 km/h Distance 44.11 km</desc>
<time>2011-09-24T12:34:23.47</time>
<name>9505</name>
</trkpt>
<trkpt lat="41.805432" lon="-1.792300">
<ele>1090.0</ele>
<speed>31.2</speed>
<course>147.6</course>
<desc>Speed 31.2 km/h Distance 44.12 km</desc>
<time>2011-09-24T12:34:24.46</time>
<name>9506</name>
</trkpt>
<trkpt lat="41.805365" lon="-1.792243">
<ele>1089.5</ele>
<speed>30.8</speed>
<course>146.1</course>
<desc>Speed 30.8 km/h Distance 44.13 km</desc>
<time>2011-09-24T12:34:25.46</time>
<name>9507</name>
</trkpt>
<trkpt lat="41.805297" lon="-1.792182">
<ele>1089.0</ele>
<speed>32.3</speed>
<course>144.0</course>
<desc>Speed 32.3 km/h Distance 44.14 km</desc>
<time>2011-09-24T12:34:26.46</time>
<name>9508</name>
</trkpt>
<trkpt lat="41.805230" lon="-1.792117">
<ele>1088.5</ele>
<speed>33.1</speed>
<course>144.0</course>
<desc>Speed 33.1 km/h Distance 44.15 km</desc>
<time>2011-09-24T12:34:27.47</time>
<name>9509</name>
</trkpt>
<trkpt lat="41.805163" lon="-1.792052">
<ele>1088.0</ele>
<speed>33.0</speed>
<course>143.3</course>
<desc>Speed 33.0 km/h Distance 44.16 km</desc>
<time>2011-09-24T12:34:28.46</time>
<name>9510</name>
</trkpt>
<trkpt lat="41.805098" lon="-1.791987">
<ele>1088.0</ele>
<speed>32.8</speed>
<course>146.1</course>
<desc>Speed 32.8 km/h Distance 44.16 km</desc>
<time>2011-09-24T12:34:29.46</time>
<name>9511</name>
</trkpt>
<trkpt lat="41.805030" lon="-1.791925">
<ele>1087.5</ele>
<speed>32.3</speed>
<course>146.2</course>
<desc>Speed 32.3 km/h Distance 44.17 km</desc>
<time>2011-09-24T12:34:30.45</time>
<name>9512</name>
</trkpt>
<trkpt lat="41.804963" lon="-1.791865">
<ele>1087.0</ele>
<speed>31.8</speed>
<course>146.1</course>
<desc>Speed 31.8 km/h Distance 44.18 km</desc>
<time>2011-09-24T12:34:31.45</time>
<name>9513</name>
</trkpt>
<trkpt lat="41.804895" lon="-1.791803">
<ele>1087.0</ele>
<speed>32.7</speed>
<course>144.0</course>
<desc>Speed 32.7 km/h Distance 44.19 km</desc>
<time>2011-09-24T12:34:32.45</time>
<name>9514</name>
</trkpt>
<trkpt lat="41.804830" lon="-1.791740">
<ele>1086.5</ele>
<speed>32.1</speed>
<course>144.0</course>
<desc>Speed 32.1 km/h Distance 44.20 km</desc>
<time>2011-09-24T12:34:33.45</time>
<name>9515</name>
</trkpt>
<trkpt lat="41.804763" lon="-1.791675">
<ele>1086.5</ele>
<speed>32.8</speed>
<course>145.4</course>
<desc>Speed 32.8 km/h Distance 44.21 km</desc>
<time>2011-09-24T12:34:34.45</time>
<name>9516</name>
</trkpt>
<trkpt lat="41.804697" lon="-1.791613">
<ele>1086.0</ele>
<speed>32.0</speed>
<course>142.6</course>
<desc>Speed 32.0 km/h Distance 44.22 km</desc>
<time>2011-09-24T12:34:35.46</time>
<name>9517</name>
</trkpt>
<trkpt lat="41.804633" lon="-1.791548">
<ele>1086.5</ele>
<speed>32.0</speed>
<course>135.0</course>
<desc>Speed 32.0 km/h Distance 44.23 km</desc>
<time>2011-09-24T12:34:36.45</time>
<name>9518</name>
</trkpt>
<trkpt lat="41.804580" lon="-1.791477">
<ele>1086.0</ele>
<speed>30.3</speed>
<course>123.3</course>
<desc>Speed 30.3 km/h Distance 44.24 km</desc>
<time>2011-09-24T12:34:37.46</time>
<name>9519</name>
</trkpt>
<trkpt lat="41.804538" lon="-1.791392">
<ele>1085.0</ele>
<speed>31.0</speed>
<course>118.2</course>
<desc>Speed 31.0 km/h Distance 44.24 km</desc>
<time>2011-09-24T12:34:38.45</time>
<name>9520</name>
</trkpt>
<trkpt lat="41.804502" lon="-1.791300">
<ele>1085.0</ele>
<speed>31.7</speed>
<course>111.9</course>
<desc>Speed 31.7 km/h Distance 44.25 km</desc>
<time>2011-09-24T12:34:39.45</time>
<name>9521</name>
</trkpt>
<trkpt lat="41.804472" lon="-1.791200">
<ele>1084.5</ele>
<speed>32.6</speed>
<course>105.0</course>
<desc>Speed 32.6 km/h Distance 44.26 km</desc>
<time>2011-09-24T12:34:40.44</time>
<name>9522</name>
</trkpt>
<trkpt lat="41.804450" lon="-1.791092">
<ele>1084.5</ele>
<speed>33.4</speed>
<course>84.4</course>
<desc>Speed 33.4 km/h Distance 44.27 km</desc>
<time>2011-09-24T12:34:41.44</time>
<name>9523</name>
</trkpt>
<trkpt lat="41.804458" lon="-1.790978">
<ele>1084.0</ele>
<speed>34.6</speed>
<course>83.3</course>
<desc>Speed 34.6 km/h Distance 44.28 km</desc>
<time>2011-09-24T12:34:42.45</time>
<name>9524</name>
</trkpt>
<trkpt lat="41.804468" lon="-1.790863">
<ele>1083.5</ele>
<speed>34.6</speed>
<course>98.8</course>
<desc>Speed 34.6 km/h Distance 44.29 km</desc>
<time>2011-09-24T12:34:43.44</time>
<name>9525</name>
</trkpt>
<trkpt lat="41.804455" lon="-1.790748">
<ele>1083.5</ele>
<speed>35.2</speed>
<course>85.6</course>
<desc>Speed 35.2 km/h Distance 44.30 km</desc>
<time>2011-09-24T12:34:44.44</time>
<name>9526</name>
</trkpt>
<trkpt lat="41.804462" lon="-1.790632">
<ele>1083.0</ele>
<speed>35.3</speed>
<course>88.9</course>
<desc>Speed 35.3 km/h Distance 44.31 km</desc>
<time>2011-09-24T12:34:45.44</time>
<name>9527</name>
</trkpt>
<trkpt lat="41.804463" lon="-1.790513">
<ele>1083.0</ele>
<speed>35.4</speed>
<course>83.6</course>
<desc>Speed 35.4 km/h Distance 44.32 km</desc>
<time>2011-09-24T12:34:46.45</time>
<name>9528</name>
</trkpt>
<trkpt lat="41.804473" lon="-1.790393">
<ele>1082.5</ele>
<speed>36.0</speed>
<course>82.6</course>
<desc>Speed 36.0 km/h Distance 44.33 km</desc>
<time>2011-09-24T12:34:47.45</time>
<name>9529</name>
</trkpt>
<trkpt lat="41.804485" lon="-1.790273">
<ele>1082.5</ele>
<speed>36.3</speed>
<course>81.6</course>
<desc>Speed 36.3 km/h Distance 44.34 km</desc>
<time>2011-09-24T12:34:48.44</time>
<name>9530</name>
</trkpt>
<trkpt lat="41.804498" lon="-1.790152">
<ele>1082.0</ele>
<speed>36.6</speed>
<course>82.5</course>
<desc>Speed 36.6 km/h Distance 44.35 km</desc>
<time>2011-09-24T12:34:49.45</time>
<name>9531</name>
</trkpt>
<trkpt lat="41.804510" lon="-1.790033">
<ele>1081.5</ele>
<speed>36.1</speed>
<course>83.7</course>
<desc>Speed 36.1 km/h Distance 44.36 km</desc>
<time>2011-09-24T12:34:50.44</time>
<name>9532</name>
</trkpt>
<trkpt lat="41.804520" lon="-1.789912">
<ele>1081.5</ele>
<speed>36.2</speed>
<course>82.6</course>
<desc>Speed 36.2 km/h Distance 44.37 km</desc>
<time>2011-09-24T12:34:51.45</time>
<name>9533</name>
</trkpt>
<trkpt lat="41.804532" lon="-1.789792">
<ele>1081.0</ele>
<speed>36.1</speed>
<course>81.4</course>
<desc>Speed 36.1 km/h Distance 44.38 km</desc>
<time>2011-09-24T12:34:52.44</time>
<name>9534</name>
</trkpt>
<trkpt lat="41.804545" lon="-1.789673">
<ele>1081.0</ele>
<speed>36.1</speed>
<course>78.3</course>
<desc>Speed 36.1 km/h Distance 44.39 km</desc>
<time>2011-09-24T12:34:53.44</time>
<name>9535</name>
</trkpt>
<trkpt lat="41.804563" lon="-1.789555">
<ele>1080.5</ele>
<speed>35.7</speed>
<course>76.9</course>
<desc>Speed 35.7 km/h Distance 44.40 km</desc>
<time>2011-09-24T12:34:54.44</time>
<name>9536</name>
</trkpt>
<trkpt lat="41.804583" lon="-1.789440">
<ele>1079.5</ele>
<speed>35.6</speed>
<course>83.2</course>
<desc>Speed 35.6 km/h Distance 44.41 km</desc>
<time>2011-09-24T12:34:55.43</time>
<name>9537</name>
</trkpt>
<trkpt lat="41.804593" lon="-1.789327">
<ele>1079.0</ele>
<speed>34.1</speed>
<course>104.4</course>
<desc>Speed 34.1 km/h Distance 44.42 km</desc>
<time>2011-09-24T12:34:56.43</time>
<name>9538</name>
</trkpt>
<trkpt lat="41.804572" lon="-1.789213">
<ele>1080.0</ele>
<speed>34.8</speed>
<course>117.4</course>
<desc>Speed 34.8 km/h Distance 44.43 km</desc>
<time>2011-09-24T12:34:57.44</time>
<name>9539</name>
</trkpt>
<trkpt lat="41.804532" lon="-1.789110">
<ele>1081.0</ele>
<speed>34.7</speed>
<course>121.7</course>
<desc>Speed 34.7 km/h Distance 44.44 km</desc>
<time>2011-09-24T12:34:58.44</time>
<name>9540</name>
</trkpt>
<trkpt lat="41.804493" lon="-1.789027">
<ele>1080.5</ele>
<speed>29.6</speed>
<course>153.9</course>
<desc>Speed 29.6 km/h Distance 44.45 km</desc>
<time>2011-09-24T12:34:59.43</time>
<name>9541</name>
</trkpt>
<trkpt lat="41.804430" lon="-1.788985">
<ele>1080.5</ele>
<speed>28.4</speed>
<course>159.1</course>
<desc>Speed 28.4 km/h Distance 44.45 km</desc>
<time>2011-09-24T12:35:00.44</time>
<name>9542</name>
</trkpt>
<trkpt lat="41.804362" lon="-1.788950">
<ele>1080.5</ele>
<speed>29.5</speed>
<course>171.5</course>
<desc>Speed 29.5 km/h Distance 44.46 km</desc>
<time>2011-09-24T12:35:01.44</time>
<name>9543</name>
</trkpt>
<trkpt lat="41.804287" lon="-1.788935">
<ele>1080.5</ele>
<speed>30.3</speed>
<course>176.2</course>
<desc>Speed 30.3 km/h Distance 44.47 km</desc>
<time>2011-09-24T12:35:02.43</time>
<name>9544</name>
</trkpt>
<trkpt lat="41.804212" lon="-1.788928">
<ele>1080.5</ele>
<speed>30.6</speed>
<course>175.3</course>
<desc>Speed 30.6 km/h Distance 44.48 km</desc>
<time>2011-09-24T12:35:03.43</time>
<name>9545</name>
</trkpt>
<trkpt lat="41.804137" lon="-1.788920">
<ele>1080.5</ele>
<speed>30.8</speed>
<course>175.3</course>
<desc>Speed 30.8 km/h Distance 44.49 km</desc>
<time>2011-09-24T12:35:04.43</time>
<name>9546</name>
</trkpt>
<trkpt lat="41.804060" lon="-1.788912">
<ele>1080.0</ele>
<speed>31.1</speed>
<course>176.4</course>
<desc>Speed 31.1 km/h Distance 44.50 km</desc>
<time>2011-09-24T12:35:05.44</time>
<name>9547</name>
</trkpt>
<trkpt lat="41.803982" lon="-1.788905">
<ele>1080.0</ele>
<speed>31.8</speed>
<course>175.4</course>
<desc>Speed 31.8 km/h Distance 44.50 km</desc>
<time>2011-09-24T12:35:06.43</time>
<name>9548</name>
</trkpt>
<trkpt lat="41.803905" lon="-1.788897">
<ele>1079.5</ele>
<speed>32.0</speed>
<course>175.5</course>
<desc>Speed 32.0 km/h Distance 44.51 km</desc>
<time>2011-09-24T12:35:07.43</time>
<name>9549</name>
</trkpt>
<trkpt lat="41.803827" lon="-1.788888">
<ele>1079.5</ele>
<speed>32.0</speed>
<course>177.2</course>
<desc>Speed 32.0 km/h Distance 44.52 km</desc>
<time>2011-09-24T12:35:08.43</time>
<name>9550</name>
</trkpt>
<trkpt lat="41.803750" lon="-1.788883">
<ele>1079.0</ele>
<speed>31.9</speed>
<course>175.5</course>
<desc>Speed 31.9 km/h Distance 44.53 km</desc>
<time>2011-09-24T12:35:09.43</time>
<name>9551</name>
</trkpt>
<trkpt lat="41.803672" lon="-1.788875">
<ele>1078.5</ele>
<speed>31.8</speed>
<course>174.4</course>
<desc>Speed 31.8 km/h Distance 44.54 km</desc>
<time>2011-09-24T12:35:10.42</time>
<name>9552</name>
</trkpt>
<trkpt lat="41.803595" lon="-1.788865">
<ele>1078.5</ele>
<speed>31.9</speed>
<course>174.5</course>
<desc>Speed 31.9 km/h Distance 44.55 km</desc>
<time>2011-09-24T12:35:11.43</time>
<name>9553</name>
</trkpt>
<trkpt lat="41.803518" lon="-1.788855">
<ele>1078.0</ele>
<speed>31.4</speed>
<course>174.3</course>
<desc>Speed 31.4 km/h Distance 44.56 km</desc>
<time>2011-09-24T12:35:12.43</time>
<name>9554</name>
</trkpt>
<trkpt lat="41.803443" lon="-1.788845">
<ele>1078.0</ele>
<speed>30.6</speed>
<course>169.4</course>
<desc>Speed 30.6 km/h Distance 44.57 km</desc>
<time>2011-09-24T12:35:13.43</time>
<name>9555</name>
</trkpt>
<trkpt lat="41.803370" lon="-1.788827">
<ele>1078.0</ele>
<speed>30.3</speed>
<course>163.2</course>
<desc>Speed 30.3 km/h Distance 44.57 km</desc>
<time>2011-09-24T12:35:14.43</time>
<name>9556</name>
</trkpt>
<trkpt lat="41.803300" lon="-1.788798">
<ele>1078.0</ele>
<speed>29.3</speed>
<course>153.9</course>
<desc>Speed 29.3 km/h Distance 44.58 km</desc>
<time>2011-09-24T12:35:15.43</time>
<name>9557</name>
</trkpt>
<trkpt lat="41.803237" lon="-1.788757">
<ele>1078.0</ele>
<speed>29.0</speed>
<course>144.9</course>
<desc>Speed 29.0 km/h Distance 44.59 km</desc>
<time>2011-09-24T12:35:16.43</time>
<name>9558</name>
</trkpt>
<trkpt lat="41.803177" lon="-1.788700">
<ele>1078.0</ele>
<speed>29.6</speed>
<course>133.0</course>
<desc>Speed 29.6 km/h Distance 44.60 km</desc>
<time>2011-09-24T12:35:17.42</time>
<name>9559</name>
</trkpt>
<trkpt lat="41.803123" lon="-1.788623">
<ele>1078.0</ele>
<speed>31.7</speed>
<course>123.9</course>
<desc>Speed 31.7 km/h Distance 44.61 km</desc>
<time>2011-09-24T12:35:18.42</time>
<name>9560</name>
</trkpt>
<trkpt lat="41.803078" lon="-1.788533">
<ele>1077.5</ele>
<speed>32.5</speed>
<course>118.6</course>
<desc>Speed 32.5 km/h Distance 44.62 km</desc>
<time>2011-09-24T12:35:19.43</time>
<name>9561</name>
</trkpt>
<trkpt lat="41.803038" lon="-1.788435">
<ele>1077.0</ele>
<speed>33.8</speed>
<course>117.1</course>
<desc>Speed 33.8 km/h Distance 44.62 km</desc>
<time>2011-09-24T12:35:20.43</time>
<name>9562</name>
</trkpt>
<trkpt lat="41.802998" lon="-1.788330">
<ele>1077.0</ele>
<speed>35.0</speed>
<course>117.8</course>
<desc>Speed 35.0 km/h Distance 44.63 km</desc>
<time>2011-09-24T12:35:21.43</time>
<name>9563</name>
</trkpt>
<trkpt lat="41.802958" lon="-1.788228">
<ele>1077.0</ele>
<speed>34.6</speed>
<course>120.2</course>
<desc>Speed 34.6 km/h Distance 44.64 km</desc>
<time>2011-09-24T12:35:22.43</time>
<name>9564</name>
</trkpt>
<trkpt lat="41.802915" lon="-1.788128">
<ele>1076.5</ele>
<speed>34.7</speed>
<course>116.8</course>
<desc>Speed 34.7 km/h Distance 44.65 km</desc>
<time>2011-09-24T12:35:23.42</time>
<name>9565</name>
</trkpt>
<trkpt lat="41.802877" lon="-1.788027">
<ele>1075.5</ele>
<speed>35.3</speed>
<course>116.1</course>
<desc>Speed 35.3 km/h Distance 44.66 km</desc>
<time>2011-09-24T12:35:24.42</time>
<name>9566</name>
</trkpt>
<trkpt lat="41.802838" lon="-1.787922">
<ele>1074.0</ele>
<speed>35.5</speed>
<course>116.5</course>
<desc>Speed 35.5 km/h Distance 44.67 km</desc>
<time>2011-09-24T12:35:25.41</time>
<name>9567</name>
</trkpt>
<trkpt lat="41.802800" lon="-1.787818">
<ele>1073.0</ele>
<speed>35.8</speed>
<course>115.1</course>
<desc>Speed 35.8 km/h Distance 44.68 km</desc>
<time>2011-09-24T12:35:26.41</time>
<name>9568</name>
</trkpt>
<trkpt lat="41.802763" lon="-1.787713">
<ele>1072.0</ele>
<speed>35.4</speed>
<course>115.4</course>
<desc>Speed 35.4 km/h Distance 44.69 km</desc>
<time>2011-09-24T12:35:27.41</time>
<name>9569</name>
</trkpt>
<trkpt lat="41.802725" lon="-1.787605">
<ele>1071.5</ele>
<speed>36.1</speed>
<course>118.2</course>
<desc>Speed 36.1 km/h Distance 44.70 km</desc>
<time>2011-09-24T12:35:28.42</time>
<name>9570</name>
</trkpt>
<trkpt lat="41.802682" lon="-1.787497">
<ele>1071.0</ele>
<speed>37.1</speed>
<course>118.6</course>
<desc>Speed 37.1 km/h Distance 44.71 km</desc>
<time>2011-09-24T12:35:29.41</time>
<name>9571</name>
</trkpt>
<trkpt lat="41.802638" lon="-1.787390">
<ele>1070.5</ele>
<speed>37.0</speed>
<course>119.5</course>
<desc>Speed 37.0 km/h Distance 44.72 km</desc>
<time>2011-09-24T12:35:30.41</time>
<name>9572</name>
</trkpt>
<trkpt lat="41.802593" lon="-1.787283">
<ele>1070.0</ele>
<speed>37.2</speed>
<course>120.4</course>
<desc>Speed 37.2 km/h Distance 44.73 km</desc>
<time>2011-09-24T12:35:31.41</time>
<name>9573</name>
</trkpt>
<trkpt lat="41.802547" lon="-1.787177">
<ele>1070.0</ele>
<speed>37.0</speed>
<course>116.1</course>
<desc>Speed 37.0 km/h Distance 44.74 km</desc>
<time>2011-09-24T12:35:32.40</time>
<name>9574</name>
</trkpt>
<trkpt lat="41.802508" lon="-1.787072">
<ele>1068.0</ele>
<speed>35.7</speed>
<course>116.6</course>
<desc>Speed 35.7 km/h Distance 44.75 km</desc>
<time>2011-09-24T12:35:33.41</time>
<name>9575</name>
</trkpt>
<trkpt lat="41.802467" lon="-1.786960">
<ele>1067.5</ele>
<speed>37.8</speed>
<course>117.2</course>
<desc>Speed 37.8 km/h Distance 44.76 km</desc>
<time>2011-09-24T12:35:34.41</time>
<name>9576</name>
</trkpt>
<trkpt lat="41.802423" lon="-1.786847">
<ele>1067.5</ele>
<speed>38.0</speed>
<course>117.9</course>
<desc>Speed 38.0 km/h Distance 44.77 km</desc>
<time>2011-09-24T12:35:35.41</time>
<name>9577</name>
</trkpt>
<trkpt lat="41.802380" lon="-1.786737">
<ele>1067.0</ele>
<speed>38.1</speed>
<course>122.2</course>
<desc>Speed 38.1 km/h Distance 44.78 km</desc>
<time>2011-09-24T12:35:36.41</time>
<name>9578</name>
</trkpt>
<trkpt lat="41.802330" lon="-1.786630">
<ele>1067.0</ele>
<speed>37.8</speed>
<course>128.2</course>
<desc>Speed 37.8 km/h Distance 44.79 km</desc>
<time>2011-09-24T12:35:37.41</time>
<name>9579</name>
</trkpt>
<trkpt lat="41.802273" lon="-1.786533">
<ele>1067.0</ele>
<speed>37.7</speed>
<course>136.5</course>
<desc>Speed 37.7 km/h Distance 44.80 km</desc>
<time>2011-09-24T12:35:38.41</time>
<name>9580</name>
</trkpt>
<trkpt lat="41.802207" lon="-1.786448">
<ele>1066.5</ele>
<speed>37.4</speed>
<course>147.2</course>
<desc>Speed 37.4 km/h Distance 44.81 km</desc>
<time>2011-09-24T12:35:39.41</time>
<name>9581</name>
</trkpt>
<trkpt lat="41.802133" lon="-1.786385">
<ele>1065.5</ele>
<speed>35.6</speed>
<course>168.0</course>
<desc>Speed 35.6 km/h Distance 44.82 km</desc>
<time>2011-09-24T12:35:40.41</time>
<name>9582</name>
</trkpt>
<trkpt lat="41.802052" lon="-1.786362">
<ele>1065.5</ele>
<speed>34.4</speed>
<course>162.6</course>
<desc>Speed 34.4 km/h Distance 44.83 km</desc>
<time>2011-09-24T12:35:41.40</time>
<name>9583</name>
</trkpt>
<trkpt lat="41.801968" lon="-1.786327">
<ele>1065.0</ele>
<speed>35.4</speed>
<course>160.8</course>
<desc>Speed 35.4 km/h Distance 44.84 km</desc>
<time>2011-09-24T12:35:42.40</time>
<name>9584</name>
</trkpt>
<trkpt lat="41.801890" lon="-1.786290">
<ele>1065.0</ele>
<speed>33.9</speed>
<course>159.6</course>
<desc>Speed 33.9 km/h Distance 44.85 km</desc>
<time>2011-09-24T12:35:43.40</time>
<name>9585</name>
</trkpt>
<trkpt lat="41.801813" lon="-1.786252">
<ele>1065.5</ele>
<speed>32.9</speed>
<course>159.1</course>
<desc>Speed 32.9 km/h Distance 44.86 km</desc>
<time>2011-09-24T12:35:44.40</time>
<name>9586</name>
</trkpt>
<trkpt lat="41.801742" lon="-1.786215">
<ele>1065.0</ele>
<speed>31.2</speed>
<course>163.2</course>
<desc>Speed 31.2 km/h Distance 44.87 km</desc>
<time>2011-09-24T12:35:45.40</time>
<name>9587</name>
</trkpt>
<trkpt lat="41.801672" lon="-1.786187">
<ele>1064.5</ele>
<speed>29.7</speed>
<course>170.4</course>
<desc>Speed 29.7 km/h Distance 44.88 km</desc>
<time>2011-09-24T12:35:46.40</time>
<name>9588</name>
</trkpt>
<trkpt lat="41.801598" lon="-1.786170">
<ele>1064.5</ele>
<speed>29.8</speed>
<course>183.0</course>
<desc>Speed 29.8 km/h Distance 44.89 km</desc>
<time>2011-09-24T12:35:47.40</time>
<name>9589</name>
</trkpt>
<trkpt lat="41.801530" lon="-1.786175">
<ele>1063.5</ele>
<speed>27.6</speed>
<course>206.1</course>
<desc>Speed 27.6 km/h Distance 44.89 km</desc>
<time>2011-09-24T12:35:48.40</time>
<name>9590</name>
</trkpt>
<trkpt lat="41.801467" lon="-1.786217">
<ele>1063.0</ele>
<speed>28.9</speed>
<course>231.2</course>
<desc>Speed 28.9 km/h Distance 44.90 km</desc>
<time>2011-09-24T12:35:49.40</time>
<name>9591</name>
</trkpt>
<trkpt lat="41.801427" lon="-1.786283">
<ele>1062.5</ele>
<speed>25.8</speed>
<course>226.5</course>
<desc>Speed 25.8 km/h Distance 44.91 km</desc>
<time>2011-09-24T12:35:50.40</time>
<name>9592</name>
</trkpt>
<trkpt lat="41.801378" lon="-1.786352">
<ele>1062.5</ele>
<speed>28.2</speed>
<course>252.2</course>
<desc>Speed 28.2 km/h Distance 44.92 km</desc>
<time>2011-09-24T12:35:51.39</time>
<name>9593</name>
</trkpt>
<trkpt lat="41.801360" lon="-1.786428">
<ele>1061.5</ele>
<speed>24.4</speed>
<course>240.4</course>
<desc>Speed 24.4 km/h Distance 44.92 km</desc>
<time>2011-09-24T12:35:52.39</time>
<name>9594</name>
</trkpt>
<trkpt lat="41.801323" lon="-1.786515">
<ele>1060.5</ele>
<speed>29.5</speed>
<course>237.7</course>
<desc>Speed 29.5 km/h Distance 44.93 km</desc>
<time>2011-09-24T12:35:53.40</time>
<name>9595</name>
</trkpt>
<trkpt lat="41.801282" lon="-1.786603">
<ele>1060.0</ele>
<speed>31.4</speed>
<course>236.1</course>
<desc>Speed 31.4 km/h Distance 44.94 km</desc>
<time>2011-09-24T12:35:54.39</time>
<name>9596</name>
</trkpt>
<trkpt lat="41.801238" lon="-1.786690">
<ele>1059.5</ele>
<speed>31.0</speed>
<course>238.2</course>
<desc>Speed 31.0 km/h Distance 44.95 km</desc>
<time>2011-09-24T12:35:55.39</time>
<name>9597</name>
</trkpt>
<trkpt lat="41.801198" lon="-1.786777">
<ele>1059.0</ele>
<speed>30.6</speed>
<course>238.2</course>
<desc>Speed 30.6 km/h Distance 44.96 km</desc>
<time>2011-09-24T12:35:56.39</time>
<name>9598</name>
</trkpt>
<trkpt lat="41.801158" lon="-1.786863">
<ele>1058.5</ele>
<speed>30.3</speed>
<course>235.6</course>
<desc>Speed 30.3 km/h Distance 44.97 km</desc>
<time>2011-09-24T12:35:57.39</time>
<name>9599</name>
</trkpt>
<trkpt lat="41.801117" lon="-1.786945">
<ele>1058.0</ele>
<speed>29.4</speed>
<course>231.4</course>
<desc>Speed 29.4 km/h Distance 44.97 km</desc>
<time>2011-09-24T12:35:58.39</time>
<name>9600</name>
</trkpt>
<trkpt lat="41.801070" lon="-1.787023">
<ele>1059.5</ele>
<speed>30.1</speed>
<course>236.7</course>
<desc>Speed 30.1 km/h Distance 44.98 km</desc>
<time>2011-09-24T12:35:59.39</time>
<name>9601</name>
</trkpt>
<trkpt lat="41.801030" lon="-1.787105">
<ele>1059.5</ele>
<speed>29.4</speed>
<course>238.8</course>
<desc>Speed 29.4 km/h Distance 44.99 km</desc>
<time>2011-09-24T12:36:00.39</time>
<name>9602</name>
</trkpt>
<trkpt lat="41.800992" lon="-1.787190">
<ele>1059.0</ele>
<speed>29.4</speed>
<course>241.1</course>
<desc>Speed 29.4 km/h Distance 45.00 km</desc>
<time>2011-09-24T12:36:01.38</time>
<name>9603</name>
</trkpt>
<trkpt lat="41.800957" lon="-1.787275">
<ele>1058.0</ele>
<speed>28.9</speed>
<course>237.3</course>
<desc>Speed 28.9 km/h Distance 45.01 km</desc>
<time>2011-09-24T12:36:02.39</time>
<name>9604</name>
</trkpt>
<trkpt lat="41.800918" lon="-1.787355">
<ele>1058.0</ele>
<speed>28.4</speed>
<course>233.9</course>
<desc>Speed 28.4 km/h Distance 45.01 km</desc>
<time>2011-09-24T12:36:03.39</time>
<name>9605</name>
</trkpt>
<trkpt lat="41.800877" lon="-1.787432">
<ele>1058.5</ele>
<speed>28.8</speed>
<course>237.8</course>
<desc>Speed 28.8 km/h Distance 45.02 km</desc>
<time>2011-09-24T12:36:04.39</time>
<name>9606</name>
</trkpt>
<trkpt lat="41.800838" lon="-1.787513">
<ele>1058.0</ele>
<speed>28.9</speed>
<course>238.8</course>
<desc>Speed 28.9 km/h Distance 45.03 km</desc>
<time>2011-09-24T12:36:05.39</time>
<name>9607</name>
</trkpt>
<trkpt lat="41.800800" lon="-1.787598">
<ele>1057.5</ele>
<speed>29.9</speed>
<course>239.8</course>
<desc>Speed 29.9 km/h Distance 45.04 km</desc>
<time>2011-09-24T12:36:06.39</time>
<name>9608</name>
</trkpt>
<trkpt lat="41.800762" lon="-1.787687">
<ele>1057.0</ele>
<speed>30.4</speed>
<course>237.7</course>
<desc>Speed 30.4 km/h Distance 45.05 km</desc>
<time>2011-09-24T12:36:07.39</time>
<name>9609</name>
</trkpt>
<trkpt lat="41.800720" lon="-1.787775">
<ele>1056.5</ele>
<speed>31.1</speed>
<course>238.7</course>
<desc>Speed 31.1 km/h Distance 45.06 km</desc>
<time>2011-09-24T12:36:08.39</time>
<name>9610</name>
</trkpt>
<trkpt lat="41.800680" lon="-1.787863">
<ele>1056.0</ele>
<speed>31.1</speed>
<course>236.7</course>
<desc>Speed 31.1 km/h Distance 45.06 km</desc>
<time>2011-09-24T12:36:09.39</time>
<name>9611</name>
</trkpt>
<trkpt lat="41.800638" lon="-1.787948">
<ele>1056.0</ele>
<speed>30.6</speed>
<course>240.9</course>
<desc>Speed 30.6 km/h Distance 45.07 km</desc>
<time>2011-09-24T12:36:10.55</time>
<name>9612</name>
</trkpt>
<trkpt lat="41.800562" lon="-1.788133">
<ele>1052.5</ele>
<speed>32.3</speed>
<course>236.2</course>
<desc>Speed 32.3 km/h Distance 45.09 km</desc>
<time>2011-09-24T12:36:12.38</time>
<name>9613</name>
</trkpt>
<trkpt lat="41.800517" lon="-1.788223">
<ele>1052.0</ele>
<speed>32.4</speed>
<course>234.7</course>
<desc>Speed 32.4 km/h Distance 45.10 km</desc>
<time>2011-09-24T12:36:13.38</time>
<name>9614</name>
</trkpt>
<trkpt lat="41.800470" lon="-1.788312">
<ele>1051.5</ele>
<speed>32.6</speed>
<course>231.7</course>
<desc>Speed 32.6 km/h Distance 45.11 km</desc>
<time>2011-09-24T12:36:14.38</time>
<name>9615</name>
</trkpt>
<trkpt lat="41.800420" lon="-1.788397">
<ele>1051.0</ele>
<speed>32.4</speed>
<course>226.7</course>
<desc>Speed 32.4 km/h Distance 45.12 km</desc>
<time>2011-09-24T12:36:15.38</time>
<name>9616</name>
</trkpt>
<trkpt lat="41.800365" lon="-1.788475">
<ele>1051.0</ele>
<speed>32.0</speed>
<course>227.1</course>
<desc>Speed 32.0 km/h Distance 45.13 km</desc>
<time>2011-09-24T12:36:16.39</time>
<name>9617</name>
</trkpt>
<trkpt lat="41.800308" lon="-1.788557">
<ele>1051.0</ele>
<speed>33.0</speed>
<course>225.2</course>
<desc>Speed 33.0 km/h Distance 45.14 km</desc>
<time>2011-09-24T12:36:17.39</time>
<name>9618</name>
</trkpt>
<trkpt lat="41.800252" lon="-1.788633">
<ele>1051.0</ele>
<speed>32.1</speed>
<course>224.8</course>
<desc>Speed 32.1 km/h Distance 45.14 km</desc>
<time>2011-09-24T12:36:18.70</time>
<name>9619</name>
</trkpt>
<trkpt lat="41.800142" lon="-1.788780">
<ele>1051.0</ele>
<speed>30.9</speed>
<course>221.1</course>
<desc>Speed 30.9 km/h Distance 45.16 km</desc>
<time>2011-09-24T12:36:20.37</time>
<name>9620</name>
</trkpt>
<trkpt lat="41.800083" lon="-1.788848">
<ele>1052.0</ele>
<speed>30.6</speed>
<course>219.0</course>
<desc>Speed 30.6 km/h Distance 45.17 km</desc>
<time>2011-09-24T12:36:21.38</time>
<name>9621</name>
</trkpt>
<trkpt lat="41.800025" lon="-1.788912">
<ele>1053.5</ele>
<speed>30.0</speed>
<course>221.5</course>
<desc>Speed 30.0 km/h Distance 45.18 km</desc>
<time>2011-09-24T12:36:22.38</time>
<name>9622</name>
</trkpt>
<trkpt lat="41.799972" lon="-1.788975">
<ele>1053.5</ele>
<speed>28.8</speed>
<course>224.8</course>
<desc>Speed 28.8 km/h Distance 45.19 km</desc>
<time>2011-09-24T12:36:23.38</time>
<name>9623</name>
</trkpt>
<trkpt lat="41.799922" lon="-1.789042">
<ele>1053.5</ele>
<speed>28.1</speed>
<course>227.5</course>
<desc>Speed 28.1 km/h Distance 45.19 km</desc>
<time>2011-09-24T12:36:24.38</time>
<name>9624</name>
</trkpt>
<trkpt lat="41.799875" lon="-1.789110">
<ele>1053.0</ele>
<speed>27.7</speed>
<course>227.5</course>
<desc>Speed 27.7 km/h Distance 45.20 km</desc>
<time>2011-09-24T12:36:25.38</time>
<name>9625</name>
</trkpt>
<trkpt lat="41.799828" lon="-1.789178">
<ele>1052.5</ele>
<speed>27.6</speed>
<course>224.3</course>
<desc>Speed 27.6 km/h Distance 45.21 km</desc>
<time>2011-09-24T12:36:26.38</time>
<name>9626</name>
</trkpt>
<trkpt lat="41.799780" lon="-1.789242">
<ele>1052.5</ele>
<speed>27.3</speed>
<course>225.1</course>
<desc>Speed 27.3 km/h Distance 45.22 km</desc>
<time>2011-09-24T12:36:27.37</time>
<name>9627</name>
</trkpt>
<trkpt lat="41.799732" lon="-1.789307">
<ele>1052.5</ele>
<speed>27.6</speed>
<course>225.8</course>
<desc>Speed 27.6 km/h Distance 45.23 km</desc>
<time>2011-09-24T12:36:28.37</time>
<name>9628</name>
</trkpt>
<trkpt lat="41.799683" lon="-1.789373">
<ele>1052.5</ele>
<speed>27.4</speed>
<course>225.1</course>
<desc>Speed 27.4 km/h Distance 45.23 km</desc>
<time>2011-09-24T12:36:29.38</time>
<name>9629</name>
</trkpt>
<trkpt lat="41.799635" lon="-1.789438">
<ele>1052.5</ele>
<speed>27.5</speed>
<course>225.3</course>
<desc>Speed 27.5 km/h Distance 45.24 km</desc>
<time>2011-09-24T12:36:30.37</time>
<name>9630</name>
</trkpt>
<trkpt lat="41.799588" lon="-1.789502">
<ele>1052.5</ele>
<speed>26.9</speed>
<course>223.6</course>
<desc>Speed 26.9 km/h Distance 45.25 km</desc>
<time>2011-09-24T12:36:31.37</time>
<name>9631</name>
</trkpt>
<trkpt lat="41.799540" lon="-1.789563">
<ele>1052.5</ele>
<speed>26.5</speed>
<course>223.0</course>
<desc>Speed 26.5 km/h Distance 45.26 km</desc>
<time>2011-09-24T12:36:32.37</time>
<name>9632</name>
</trkpt>
<trkpt lat="41.799493" lon="-1.789622">
<ele>1052.5</ele>
<speed>25.8</speed>
<course>218.6</course>
<desc>Speed 25.8 km/h Distance 45.26 km</desc>
<time>2011-09-24T12:36:33.37</time>
<name>9633</name>
</trkpt>
<trkpt lat="41.799445" lon="-1.789673">
<ele>1052.5</ele>
<speed>24.6</speed>
<course>213.8</course>
<desc>Speed 24.6 km/h Distance 45.27 km</desc>
<time>2011-09-24T12:36:34.37</time>
<name>9634</name>
</trkpt>
<trkpt lat="41.799397" lon="-1.789717">
<ele>1052.5</ele>
<speed>23.2</speed>
<course>202.1</course>
<desc>Speed 23.2 km/h Distance 45.28 km</desc>
<time>2011-09-24T12:36:35.37</time>
<name>9635</name>
</trkpt>
<trkpt lat="41.799342" lon="-1.789747">
<ele>1053.5</ele>
<speed>23.1</speed>
<course>191.8</course>
<desc>Speed 23.1 km/h Distance 45.28 km</desc>
<time>2011-09-24T12:36:36.37</time>
<name>9636</name>
</trkpt>
<trkpt lat="41.799288" lon="-1.789762">
<ele>1053.5</ele>
<speed>22.1</speed>
<course>183.9</course>
<desc>Speed 22.1 km/h Distance 45.29 km</desc>
<time>2011-09-24T12:36:37.36</time>
<name>9637</name>
</trkpt>
<trkpt lat="41.799235" lon="-1.789767">
<ele>1053.0</ele>
<speed>20.7</speed>
<course>174.8</course>
<desc>Speed 20.7 km/h Distance 45.29 km</desc>
<time>2011-09-24T12:36:38.37</time>
<name>9638</name>
</trkpt>
<trkpt lat="41.799182" lon="-1.789760">
<ele>1053.5</ele>
<speed>21.5</speed>
<course>173.0</course>
<desc>Speed 21.5 km/h Distance 45.30 km</desc>
<time>2011-09-24T12:36:39.36</time>
<name>9639</name>
</trkpt>
<trkpt lat="41.799132" lon="-1.789752">
<ele>1053.5</ele>
<speed>20.6</speed>
<course>161.4</course>
<desc>Speed 20.6 km/h Distance 45.31 km</desc>
<time>2011-09-24T12:36:40.36</time>
<name>9640</name>
</trkpt>
<trkpt lat="41.799080" lon="-1.789728">
<ele>1053.5</ele>
<speed>21.5</speed>
<course>153.8</course>
<desc>Speed 21.5 km/h Distance 45.31 km</desc>
<time>2011-09-24T12:36:41.68</time>
<name>9641</name>
</trkpt>
<trkpt lat="41.798982" lon="-1.789663">
<ele>1053.0</ele>
<speed>22.3</speed>
<course>143.3</course>
<desc>Speed 22.3 km/h Distance 45.32 km</desc>
<time>2011-09-24T12:36:43.37</time>
<name>9642</name>
</trkpt>
<trkpt lat="41.798937" lon="-1.789618">
<ele>1053.0</ele>
<speed>22.1</speed>
<course>133.6</course>
<desc>Speed 22.1 km/h Distance 45.33 km</desc>
<time>2011-09-24T12:36:44.36</time>
<name>9643</name>
</trkpt>
<trkpt lat="41.798900" lon="-1.789567">
<ele>1053.0</ele>
<speed>21.8</speed>
<course>130.6</course>
<desc>Speed 21.8 km/h Distance 45.34 km</desc>
<time>2011-09-24T12:36:45.36</time>
<name>9644</name>
</trkpt>
<trkpt lat="41.798862" lon="-1.789507">
<ele>1053.5</ele>
<speed>23.5</speed>
<course>124.6</course>
<desc>Speed 23.5 km/h Distance 45.34 km</desc>
<time>2011-09-24T12:36:46.37</time>
<name>9645</name>
</trkpt>
<trkpt lat="41.798830" lon="-1.789445">
<ele>1054.5</ele>
<speed>22.8</speed>
<course>125.2</course>
<desc>Speed 22.8 km/h Distance 45.35 km</desc>
<time>2011-09-24T12:36:47.36</time>
<name>9646</name>
</trkpt>
<trkpt lat="41.798797" lon="-1.789382">
<ele>1055.5</ele>
<speed>23.2</speed>
<course>122.3</course>
<desc>Speed 23.2 km/h Distance 45.36 km</desc>
<time>2011-09-24T12:36:48.36</time>
<name>9647</name>
</trkpt>
<trkpt lat="41.798768" lon="-1.789322">
<ele>1055.0</ele>
<speed>21.9</speed>
<course>122.5</course>
<desc>Speed 21.9 km/h Distance 45.36 km</desc>
<time>2011-09-24T12:36:49.36</time>
<name>9648</name>
</trkpt>
<trkpt lat="41.798737" lon="-1.789255">
<ele>1056.5</ele>
<speed>23.7</speed>
<course>123.9</course>
<desc>Speed 23.7 km/h Distance 45.37 km</desc>
<time>2011-09-24T12:36:50.36</time>
<name>9649</name>
</trkpt>
<trkpt lat="41.798707" lon="-1.789195">
<ele>1056.5</ele>
<speed>21.8</speed>
<course>127.3</course>
<desc>Speed 21.8 km/h Distance 45.37 km</desc>
<time>2011-09-24T12:36:51.36</time>
<name>9650</name>
</trkpt>
<trkpt lat="41.798672" lon="-1.789133">
<ele>1056.0</ele>
<speed>23.5</speed>
<course>123.2</course>
<desc>Speed 23.5 km/h Distance 45.38 km</desc>
<time>2011-09-24T12:36:52.36</time>
<name>9651</name>
</trkpt>
<trkpt lat="41.798640" lon="-1.789068">
<ele>1055.5</ele>
<speed>23.5</speed>
<course>127.0</course>
<desc>Speed 23.5 km/h Distance 45.39 km</desc>
<time>2011-09-24T12:36:53.36</time>
<name>9652</name>
</trkpt>
<trkpt lat="41.798602" lon="-1.789000">
<ele>1055.5</ele>
<speed>25.3</speed>
<course>125.7</course>
<desc>Speed 25.3 km/h Distance 45.39 km</desc>
<time>2011-09-24T12:36:54.36</time>
<name>9653</name>
</trkpt>
<trkpt lat="41.798565" lon="-1.788932">
<ele>1055.5</ele>
<speed>25.5</speed>
<course>122.6</course>
<desc>Speed 25.5 km/h Distance 45.40 km</desc>
<time>2011-09-24T12:36:55.36</time>
<name>9654</name>
</trkpt>
<trkpt lat="41.798532" lon="-1.788862">
<ele>1056.0</ele>
<speed>25.2</speed>
<course>120.1</course>
<desc>Speed 25.2 km/h Distance 45.41 km</desc>
<time>2011-09-24T12:36:56.35</time>
<name>9655</name>
</trkpt>
<trkpt lat="41.798500" lon="-1.788788">
<ele>1056.5</ele>
<speed>25.0</speed>
<course>120.1</course>
<desc>Speed 25.0 km/h Distance 45.42 km</desc>
<time>2011-09-24T12:36:57.35</time>
<name>9656</name>
</trkpt>
<trkpt lat="41.798468" lon="-1.788715">
<ele>1058.0</ele>
<speed>25.5</speed>
<course>113.0</course>
<desc>Speed 25.5 km/h Distance 45.42 km</desc>
<time>2011-09-24T12:36:58.35</time>
<name>9657</name>
</trkpt>
<trkpt lat="41.798447" lon="-1.788647">
<ele>1058.0</ele>
<speed>22.6</speed>
<course>116.1</course>
<desc>Speed 22.6 km/h Distance 45.43 km</desc>
<time>2011-09-24T12:36:59.35</time>
<name>9658</name>
</trkpt>
<trkpt lat="41.798422" lon="-1.788578">
<ele>1058.5</ele>
<speed>22.5</speed>
<course>111.9</course>
<desc>Speed 22.5 km/h Distance 45.43 km</desc>
<time>2011-09-24T12:37:00.35</time>
<name>9659</name>
</trkpt>
<trkpt lat="41.798402" lon="-1.788512">
<ele>1058.5</ele>
<speed>21.9</speed>
<course>113.0</course>
<desc>Speed 21.9 km/h Distance 45.44 km</desc>
<time>2011-09-24T12:37:01.35</time>
<name>9660</name>
</trkpt>
<trkpt lat="41.798380" lon="-1.788443">
<ele>1059.0</ele>
<speed>22.4</speed>
<course>115.2</course>
<desc>Speed 22.4 km/h Distance 45.45 km</desc>
<time>2011-09-24T12:37:02.35</time>
<name>9661</name>
</trkpt>
<trkpt lat="41.798358" lon="-1.788382">
<ele>1058.5</ele>
<speed>20.4</speed>
<course>109.8</course>
<desc>Speed 20.4 km/h Distance 45.45 km</desc>
<time>2011-09-24T12:37:03.35</time>
<name>9662</name>
</trkpt>
<trkpt lat="41.798340" lon="-1.788313">
<ele>1059.0</ele>
<speed>21.8</speed>
<course>81.1</course>
<desc>Speed 21.8 km/h Distance 45.46 km</desc>
<time>2011-09-24T12:37:04.35</time>
<name>9663</name>
</trkpt>
<trkpt lat="41.798348" lon="-1.788242">
<ele>1057.5</ele>
<speed>21.6</speed>
<course>104.3</course>
<desc>Speed 21.6 km/h Distance 45.46 km</desc>
<time>2011-09-24T12:37:05.34</time>
<name>9664</name>
</trkpt>
<trkpt lat="41.798335" lon="-1.788172">
<ele>1056.5</ele>
<speed>21.8</speed>
<course>111.6</course>
<desc>Speed 21.8 km/h Distance 45.47 km</desc>
<time>2011-09-24T12:37:06.34</time>
<name>9665</name>
</trkpt>
<trkpt lat="41.798313" lon="-1.788098">
<ele>1056.5</ele>
<speed>23.8</speed>
<course>112.7</course>
<desc>Speed 23.8 km/h Distance 45.48 km</desc>
<time>2011-09-24T12:37:07.34</time>
<name>9666</name>
</trkpt>
<trkpt lat="41.798290" lon="-1.788023">
<ele>1057.0</ele>
<speed>24.4</speed>
<course>114.6</course>
<desc>Speed 24.4 km/h Distance 45.48 km</desc>
<time>2011-09-24T12:37:08.34</time>
<name>9667</name>
</trkpt>
<trkpt lat="41.798265" lon="-1.787950">
<ele>1056.5</ele>
<speed>24.3</speed>
<course>117.1</course>
<desc>Speed 24.3 km/h Distance 45.49 km</desc>
<time>2011-09-24T12:37:09.34</time>
<name>9668</name>
</trkpt>
<trkpt lat="41.798238" lon="-1.787880">
<ele>1056.0</ele>
<speed>23.3</speed>
<course>118.2</course>
<desc>Speed 23.3 km/h Distance 45.50 km</desc>
<time>2011-09-24T12:37:10.34</time>
<name>9669</name>
</trkpt>
<trkpt lat="41.798208" lon="-1.787805">
<ele>1056.5</ele>
<speed>25.6</speed>
<course>117.7</course>
<desc>Speed 25.6 km/h Distance 45.50 km</desc>
<time>2011-09-24T12:37:11.34</time>
<name>9670</name>
</trkpt>
<trkpt lat="41.798178" lon="-1.787728">
<ele>1057.5</ele>
<speed>25.7</speed>
<course>117.6</course>
<desc>Speed 25.7 km/h Distance 45.51 km</desc>
<time>2011-09-24T12:37:12.34</time>
<name>9671</name>
</trkpt>
<trkpt lat="41.798152" lon="-1.787660">
<ele>1057.0</ele>
<speed>23.4</speed>
<course>123.2</course>
<desc>Speed 23.4 km/h Distance 45.52 km</desc>
<time>2011-09-24T12:37:13.34</time>
<name>9672</name>
</trkpt>
<trkpt lat="41.798117" lon="-1.787588">
<ele>1058.0</ele>
<speed>25.7</speed>
<course>125.2</course>
<desc>Speed 25.7 km/h Distance 45.52 km</desc>
<time>2011-09-24T12:37:14.34</time>
<name>9673</name>
</trkpt>
<trkpt lat="41.798082" lon="-1.787522">
<ele>1058.0</ele>
<speed>24.2</speed>
<course>124.5</course>
<desc>Speed 24.2 km/h Distance 45.53 km</desc>
<time>2011-09-24T12:37:15.34</time>
<name>9674</name>
</trkpt>
<trkpt lat="41.798048" lon="-1.787457">
<ele>1058.0</ele>
<speed>23.3</speed>
<course>126.7</course>
<desc>Speed 23.3 km/h Distance 45.54 km</desc>
<time>2011-09-24T12:37:16.34</time>
<name>9675</name>
</trkpt>
<trkpt lat="41.798015" lon="-1.787397">
<ele>1057.5</ele>
<speed>22.4</speed>
<course>127.3</course>
<desc>Speed 22.4 km/h Distance 45.54 km</desc>
<time>2011-09-24T12:37:17.33</time>
<name>9676</name>
</trkpt>
<trkpt lat="41.797980" lon="-1.787335">
<ele>1057.5</ele>
<speed>23.0</speed>
<course>128.0</course>
<desc>Speed 23.0 km/h Distance 45.55 km</desc>
<time>2011-09-24T12:37:18.33</time>
<name>9677</name>
</trkpt>
<trkpt lat="41.797945" lon="-1.787275">
<ele>1057.0</ele>
<speed>22.2</speed>
<course>136.1</course>
<desc>Speed 22.2 km/h Distance 45.56 km</desc>
<time>2011-09-24T12:37:19.33</time>
<name>9678</name>
</trkpt>
<trkpt lat="41.797905" lon="-1.787223">
<ele>1057.5</ele>
<speed>22.0</speed>
<course>137.7</course>
<desc>Speed 22.0 km/h Distance 45.56 km</desc>
<time>2011-09-24T12:37:20.33</time>
<name>9679</name>
</trkpt>
<trkpt lat="41.797860" lon="-1.787168">
<ele>1059.0</ele>
<speed>23.1</speed>
<course>132.2</course>
<desc>Speed 23.1 km/h Distance 45.57 km</desc>
<time>2011-09-24T12:37:21.33</time>
<name>9680</name>
</trkpt>
<trkpt lat="41.797822" lon="-1.787112">
<ele>1059.5</ele>
<speed>22.0</speed>
<course>137.5</course>
<desc>Speed 22.0 km/h Distance 45.58 km</desc>
<time>2011-09-24T12:37:22.33</time>
<name>9681</name>
</trkpt>
<trkpt lat="41.797778" lon="-1.787058">
<ele>1059.5</ele>
<speed>23.3</speed>
<course>141.4</course>
<desc>Speed 23.3 km/h Distance 45.58 km</desc>
<time>2011-09-24T12:37:23.33</time>
<name>9682</name>
</trkpt>
<trkpt lat="41.797732" lon="-1.787008">
<ele>1059.0</ele>
<speed>23.4</speed>
<course>138.7</course>
<desc>Speed 23.4 km/h Distance 45.59 km</desc>
<time>2011-09-24T12:37:24.33</time>
<name>9683</name>
</trkpt>
<trkpt lat="41.797685" lon="-1.786953">
<ele>1059.0</ele>
<speed>24.4</speed>
<course>141.2</course>
<desc>Speed 24.4 km/h Distance 45.60 km</desc>
<time>2011-09-24T12:37:25.33</time>
<name>9684</name>
</trkpt>
<trkpt lat="41.797642" lon="-1.786907">
<ele>1058.5</ele>
<speed>21.8</speed>
<course>144.2</course>
<desc>Speed 21.8 km/h Distance 45.60 km</desc>
<time>2011-09-24T12:37:26.33</time>
<name>9685</name>
</trkpt>
<trkpt lat="41.797592" lon="-1.786858">
<ele>1059.0</ele>
<speed>23.7</speed>
<course>146.8</course>
<desc>Speed 23.7 km/h Distance 45.61 km</desc>
<time>2011-09-24T12:37:27.33</time>
<name>9686</name>
</trkpt>
<trkpt lat="41.797537" lon="-1.786810">
<ele>1061.0</ele>
<speed>25.1</speed>
<course>148.0</course>
<desc>Speed 25.1 km/h Distance 45.62 km</desc>
<time>2011-09-24T12:37:28.33</time>
<name>9687</name>
</trkpt>
<trkpt lat="41.797485" lon="-1.786767">
<ele>1061.0</ele>
<speed>24.1</speed>
<course>151.3</course>
<desc>Speed 24.1 km/h Distance 45.62 km</desc>
<time>2011-09-24T12:37:29.32</time>
<name>9688</name>
</trkpt>
<trkpt lat="41.797428" lon="-1.786725">
<ele>1063.5</ele>
<speed>25.4</speed>
<course>153.6</course>
<desc>Speed 25.4 km/h Distance 45.63 km</desc>
<time>2011-09-24T12:37:30.32</time>
<name>9689</name>
</trkpt>
<trkpt lat="41.797378" lon="-1.786692">
<ele>1063.5</ele>
<speed>21.8</speed>
<course>151.1</course>
<desc>Speed 21.8 km/h Distance 45.64 km</desc>
<time>2011-09-24T12:37:31.32</time>
<name>9690</name>
</trkpt>
<trkpt lat="41.797333" lon="-1.786658">
<ele>1063.0</ele>
<speed>20.7</speed>
<course>153.2</course>
<desc>Speed 20.7 km/h Distance 45.64 km</desc>
<time>2011-09-24T12:37:32.32</time>
<name>9691</name>
</trkpt>
<trkpt lat="41.797287" lon="-1.786627">
<ele>1062.5</ele>
<speed>20.9</speed>
<course>154.4</course>
<desc>Speed 20.9 km/h Distance 45.65 km</desc>
<time>2011-09-24T12:37:33.32</time>
<name>9692</name>
</trkpt>
<trkpt lat="41.797240" lon="-1.786597">
<ele>1062.0</ele>
<speed>20.2</speed>
<course>156.4</course>
<desc>Speed 20.2 km/h Distance 45.65 km</desc>
<time>2011-09-24T12:37:34.31</time>
<name>9693</name>
</trkpt>
<trkpt lat="41.797192" lon="-1.786568">
<ele>1061.5</ele>
<speed>21.1</speed>
<course>151.6</course>
<desc>Speed 21.1 km/h Distance 45.66 km</desc>
<time>2011-09-24T12:37:35.32</time>
<name>9694</name>
</trkpt>
<trkpt lat="41.797143" lon="-1.786533">
<ele>1061.0</ele>
<speed>22.0</speed>
<course>154.0</course>
<desc>Speed 22.0 km/h Distance 45.67 km</desc>
<time>2011-09-24T12:37:36.31</time>
<name>9695</name>
</trkpt>
<trkpt lat="41.797095" lon="-1.786502">
<ele>1060.5</ele>
<speed>21.5</speed>
<course>153.6</course>
<desc>Speed 21.5 km/h Distance 45.67 km</desc>
<time>2011-09-24T12:37:37.31</time>
<name>9696</name>
</trkpt>
<trkpt lat="41.797045" lon="-1.786468">
<ele>1060.5</ele>
<speed>22.1</speed>
<course>156.1</course>
<desc>Speed 22.1 km/h Distance 45.68 km</desc>
<time>2011-09-24T12:37:38.31</time>
<name>9697</name>
</trkpt>
<trkpt lat="41.796992" lon="-1.786437">
<ele>1061.0</ele>
<speed>22.5</speed>
<course>154.3</course>
<desc>Speed 22.5 km/h Distance 45.68 km</desc>
<time>2011-09-24T12:37:39.32</time>
<name>9698</name>
</trkpt>
<trkpt lat="41.796940" lon="-1.786403">
<ele>1061.5</ele>
<speed>22.2</speed>
<course>155.2</course>
<desc>Speed 22.2 km/h Distance 45.69 km</desc>
<time>2011-09-24T12:37:40.31</time>
<name>9699</name>
</trkpt>
<trkpt lat="41.796892" lon="-1.786373">
<ele>1061.5</ele>
<speed>21.7</speed>
<course>149.1</course>
<desc>Speed 21.7 km/h Distance 45.70 km</desc>
<time>2011-09-24T12:37:41.32</time>
<name>9700</name>
</trkpt>
<trkpt lat="41.796807" lon="-1.786305">
<ele>1061.0</ele>
<speed>28.0</speed>
<course>156.1</course>
<desc>Speed 28.0 km/h Distance 45.71 km</desc>
<time>2011-09-24T12:37:43.31</time>
<name>9701</name>
</trkpt>
<trkpt lat="41.796753" lon="-1.786273">
<ele>1061.5</ele>
<speed>22.9</speed>
<course>156.6</course>
<desc>Speed 22.9 km/h Distance 45.71 km</desc>
<time>2011-09-24T12:37:44.31</time>
<name>9702</name>
</trkpt>
<trkpt lat="41.796702" lon="-1.786243">
<ele>1061.5</ele>
<speed>21.7</speed>
<course>155.9</course>
<desc>Speed 21.7 km/h Distance 45.72 km</desc>
<time>2011-09-24T12:37:45.31</time>
<name>9703</name>
</trkpt>
<trkpt lat="41.796652" lon="-1.786213">
<ele>1061.5</ele>
<speed>20.6</speed>
<course>150.0</course>
<desc>Speed 20.6 km/h Distance 45.73 km</desc>
<time>2011-09-24T12:37:46.31</time>
<name>9704</name>
</trkpt>
<trkpt lat="41.796600" lon="-1.786173">
<ele>1062.5</ele>
<speed>23.4</speed>
<course>144.4</course>
<desc>Speed 23.4 km/h Distance 45.73 km</desc>
<time>2011-09-24T12:37:47.30</time>
<name>9705</name>
</trkpt>
<trkpt lat="41.796557" lon="-1.786132">
<ele>1062.5</ele>
<speed>21.0</speed>
<course>142.4</course>
<desc>Speed 21.0 km/h Distance 45.74 km</desc>
<time>2011-09-24T12:37:48.31</time>
<name>9706</name>
</trkpt>
<trkpt lat="41.796508" lon="-1.786082">
<ele>1063.5</ele>
<speed>23.6</speed>
<course>137.2</course>
<desc>Speed 23.6 km/h Distance 45.75 km</desc>
<time>2011-09-24T12:37:49.30</time>
<name>9707</name>
</trkpt>
<trkpt lat="41.796467" lon="-1.786030">
<ele>1063.5</ele>
<speed>22.2</speed>
<course>130.5</course>
<desc>Speed 22.2 km/h Distance 45.75 km</desc>
<time>2011-09-24T12:37:50.30</time>
<name>9708</name>
</trkpt>
<trkpt lat="41.796432" lon="-1.785975">
<ele>1063.5</ele>
<speed>21.2</speed>
<course>127.8</course>
<desc>Speed 21.2 km/h Distance 45.76 km</desc>
<time>2011-09-24T12:37:51.30</time>
<name>9709</name>
</trkpt>
<trkpt lat="41.796395" lon="-1.785912">
<ele>1065.0</ele>
<speed>22.9</speed>
<course>120.3</course>
<desc>Speed 22.9 km/h Distance 45.77 km</desc>
<time>2011-09-24T12:37:52.30</time>
<name>9710</name>
</trkpt>
<trkpt lat="41.796367" lon="-1.785847">
<ele>1065.5</ele>
<speed>22.0</speed>
<course>90.0</course>
<desc>Speed 22.0 km/h Distance 45.77 km</desc>
<time>2011-09-24T12:37:53.30</time>
<name>9711</name>
</trkpt>
<trkpt lat="41.796367" lon="-1.785775">
<ele>1065.5</ele>
<speed>21.4</speed>
<course>106.0</course>
<desc>Speed 21.4 km/h Distance 45.78 km</desc>
<time>2011-09-24T12:37:54.31</time>
<name>9712</name>
</trkpt>
<trkpt lat="41.796352" lon="-1.785705">
<ele>1065.5</ele>
<speed>21.7</speed>
<course>85.2</course>
<desc>Speed 21.7 km/h Distance 45.78 km</desc>
<time>2011-09-24T12:37:55.31</time>
<name>9713</name>
</trkpt>
<trkpt lat="41.796357" lon="-1.785625">
<ele>1067.0</ele>
<speed>23.9</speed>
<course>111.6</course>
<desc>Speed 23.9 km/h Distance 45.79 km</desc>
<time>2011-09-24T12:37:56.31</time>
<name>9714</name>
</trkpt>
<trkpt lat="41.796335" lon="-1.785552">
<ele>1068.0</ele>
<speed>23.3</speed>
<course>100.6</course>
<desc>Speed 23.3 km/h Distance 45.80 km</desc>
<time>2011-09-24T12:37:57.30</time>
<name>9715</name>
</trkpt>
<trkpt lat="41.796325" lon="-1.785480">
<ele>1067.5</ele>
<speed>21.7</speed>
<course>102.3</course>
<desc>Speed 21.7 km/h Distance 45.80 km</desc>
<time>2011-09-24T12:37:58.30</time>
<name>9716</name>
</trkpt>
<trkpt lat="41.796313" lon="-1.785408">
<ele>1067.5</ele>
<speed>21.7</speed>
<course>105.7</course>
<desc>Speed 21.7 km/h Distance 45.81 km</desc>
<time>2011-09-24T12:37:59.30</time>
<name>9717</name>
</trkpt>
<trkpt lat="41.796298" lon="-1.785337">
<ele>1067.5</ele>
<speed>22.2</speed>
<course>74.7</course>
<desc>Speed 22.2 km/h Distance 45.82 km</desc>
<time>2011-09-24T12:38:00.30</time>
<name>9718</name>
</trkpt>
<trkpt lat="41.796313" lon="-1.785263">
<ele>1066.0</ele>
<speed>22.8</speed>
<course>90.0</course>
<desc>Speed 22.8 km/h Distance 45.82 km</desc>
<time>2011-09-24T12:38:01.30</time>
<name>9719</name>
</trkpt>
<trkpt lat="41.796313" lon="-1.785188">
<ele>1065.0</ele>
<speed>22.1</speed>
<course>93.3</course>
<desc>Speed 22.1 km/h Distance 45.83 km</desc>
<time>2011-09-24T12:38:02.30</time>
<name>9720</name>
</trkpt>
<trkpt lat="41.796310" lon="-1.785112">
<ele>1065.0</ele>
<speed>23.0</speed>
<course>96.7</course>
<desc>Speed 23.0 km/h Distance 45.83 km</desc>
<time>2011-09-24T12:38:03.30</time>
<name>9721</name>
</trkpt>
<trkpt lat="41.796303" lon="-1.785035">
<ele>1064.0</ele>
<speed>22.7</speed>
<course>99.3</course>
<desc>Speed 22.7 km/h Distance 45.84 km</desc>
<time>2011-09-24T12:38:04.30</time>
<name>9722</name>
</trkpt>
<trkpt lat="41.796293" lon="-1.784953">
<ele>1064.5</ele>
<speed>24.4</speed>
<course>102.4</course>
<desc>Speed 24.4 km/h Distance 45.85 km</desc>
<time>2011-09-24T12:38:05.30</time>
<name>9723</name>
</trkpt>
<trkpt lat="41.796280" lon="-1.784872">
<ele>1065.0</ele>
<speed>24.5</speed>
<course>100.4</course>
<desc>Speed 24.5 km/h Distance 45.85 km</desc>
<time>2011-09-24T12:38:06.30</time>
<name>9724</name>
</trkpt>
<trkpt lat="41.796268" lon="-1.784787">
<ele>1067.0</ele>
<speed>25.6</speed>
<course>97.6</course>
<desc>Speed 25.6 km/h Distance 45.86 km</desc>
<time>2011-09-24T12:38:07.29</time>
<name>9725</name>
</trkpt>
<trkpt lat="41.796260" lon="-1.784703">
<ele>1067.5</ele>
<speed>24.9</speed>
<course>73.9</course>
<desc>Speed 24.9 km/h Distance 45.87 km</desc>
<time>2011-09-24T12:38:08.30</time>
<name>9726</name>
</trkpt>
<trkpt lat="41.796278" lon="-1.784618">
<ele>1067.0</ele>
<speed>26.1</speed>
<course>99.0</course>
<desc>Speed 26.1 km/h Distance 45.88 km</desc>
<time>2011-09-24T12:38:09.29</time>
<name>9727</name>
</trkpt>
<trkpt lat="41.796268" lon="-1.784533">
<ele>1067.5</ele>
<speed>25.9</speed>
<course>97.6</course>
<desc>Speed 25.9 km/h Distance 45.88 km</desc>
<time>2011-09-24T12:38:10.29</time>
<name>9728</name>
</trkpt>
<trkpt lat="41.796260" lon="-1.784450">
<ele>1068.0</ele>
<speed>24.9</speed>
<course>99.9</course>
<desc>Speed 24.9 km/h Distance 45.89 km</desc>
<time>2011-09-24T12:38:11.29</time>
<name>9729</name>
</trkpt>
<trkpt lat="41.796248" lon="-1.784360">
<ele>1069.0</ele>
<speed>26.8</speed>
<course>77.6</course>
<desc>Speed 26.8 km/h Distance 45.90 km</desc>
<time>2011-09-24T12:38:12.29</time>
<name>9730</name>
</trkpt>
<trkpt lat="41.796263" lon="-1.784268">
<ele>1069.0</ele>
<speed>27.7</speed>
<course>94.3</course>
<desc>Speed 27.7 km/h Distance 45.91 km</desc>
<time>2011-09-24T12:38:13.30</time>
<name>9731</name>
</trkpt>
<trkpt lat="41.796258" lon="-1.784178">
<ele>1069.0</ele>
<speed>26.6</speed>
<course>97.2</course>
<desc>Speed 26.6 km/h Distance 45.91 km</desc>
<time>2011-09-24T12:38:14.29</time>
<name>9732</name>
</trkpt>
<trkpt lat="41.796250" lon="-1.784090">
<ele>1069.0</ele>
<speed>26.7</speed>
<course>99.9</course>
<desc>Speed 26.7 km/h Distance 45.92 km</desc>
<time>2011-09-24T12:38:15.29</time>
<name>9733</name>
</trkpt>
<trkpt lat="41.796238" lon="-1.784000">
<ele>1069.0</ele>
<speed>27.5</speed>
<course>102.4</course>
<desc>Speed 27.5 km/h Distance 45.93 km</desc>
<time>2011-09-24T12:38:16.29</time>
<name>9734</name>
</trkpt>
<trkpt lat="41.796223" lon="-1.783908">
<ele>1069.5</ele>
<speed>27.8</speed>
<course>103.7</course>
<desc>Speed 27.8 km/h Distance 45.94 km</desc>
<time>2011-09-24T12:38:17.29</time>
<name>9735</name>
</trkpt>
<trkpt lat="41.796207" lon="-1.783817">
<ele>1070.0</ele>
<speed>27.8</speed>
<course>85.9</course>
<desc>Speed 27.8 km/h Distance 45.94 km</desc>
<time>2011-09-24T12:38:18.29</time>
<name>9736</name>
</trkpt>
<trkpt lat="41.796212" lon="-1.783723">
<ele>1070.5</ele>
<speed>27.6</speed>
<course>106.6</course>
<desc>Speed 27.6 km/h Distance 45.95 km</desc>
<time>2011-09-24T12:38:19.29</time>
<name>9737</name>
</trkpt>
<trkpt lat="41.796192" lon="-1.783633">
<ele>1071.0</ele>
<speed>28.0</speed>
<course>105.6</course>
<desc>Speed 28.0 km/h Distance 45.96 km</desc>
<time>2011-09-24T12:38:20.29</time>
<name>9738</name>
</trkpt>
<trkpt lat="41.796173" lon="-1.783545">
<ele>1071.0</ele>
<speed>27.3</speed>
<course>105.6</course>
<desc>Speed 27.3 km/h Distance 45.97 km</desc>
<time>2011-09-24T12:38:21.28</time>
<name>9739</name>
</trkpt>
<trkpt lat="41.796155" lon="-1.783457">
<ele>1070.0</ele>
<speed>27.1</speed>
<course>111.0</course>
<desc>Speed 27.1 km/h Distance 45.97 km</desc>
<time>2011-09-24T12:38:22.28</time>
<name>9740</name>
</trkpt>
<trkpt lat="41.796128" lon="-1.783363">
<ele>1072.0</ele>
<speed>29.8</speed>
<course>114.5</course>
<desc>Speed 29.8 km/h Distance 45.98 km</desc>
<time>2011-09-24T12:38:23.29</time>
<name>9741</name>
</trkpt>
<trkpt lat="41.796098" lon="-1.783275">
<ele>1072.5</ele>
<speed>28.1</speed>
<course>110.2</course>
<desc>Speed 28.1 km/h Distance 45.99 km</desc>
<time>2011-09-24T12:38:24.29</time>
<name>9742</name>
</trkpt>
<trkpt lat="41.796075" lon="-1.783190">
<ele>1072.5</ele>
<speed>26.9</speed>
<course>115.0</course>
<desc>Speed 26.9 km/h Distance 46.00 km</desc>
<time>2011-09-24T12:38:25.28</time>
<name>9743</name>
</trkpt>
<trkpt lat="41.796048" lon="-1.783113">
<ele>1072.0</ele>
<speed>25.2</speed>
<course>124.6</course>
<desc>Speed 25.2 km/h Distance 46.01 km</desc>
<time>2011-09-24T12:38:26.28</time>
<name>9744</name>
</trkpt>
<trkpt lat="41.796020" lon="-1.783058">
<ele>1071.5</ele>
<speed>19.2</speed>
<course>114.7</course>
<desc>Speed 19.2 km/h Distance 46.01 km</desc>
<time>2011-09-24T12:38:27.28</time>
<name>9745</name>
</trkpt>
<trkpt lat="41.795962" lon="-1.782888">
<ele>1071.5</ele>
<speed>26.9</speed>
<course>129.4</course>
<desc>Speed 26.9 km/h Distance 46.03 km</desc>
<time>2011-09-24T12:38:29.28</time>
<name>9746</name>
</trkpt>
<trkpt lat="41.795912" lon="-1.782807">
<ele>1073.0</ele>
<speed>31.6</speed>
<course>122.0</course>
<desc>Speed 31.6 km/h Distance 46.03 km</desc>
<time>2011-09-24T12:38:30.28</time>
<name>9747</name>
</trkpt>
<trkpt lat="41.795878" lon="-1.782735">
<ele>1072.5</ele>
<speed>25.1</speed>
<course>123.3</course>
<desc>Speed 25.1 km/h Distance 46.04 km</desc>
<time>2011-09-24T12:38:31.27</time>
<name>9748</name>
</trkpt>
<trkpt lat="41.795840" lon="-1.782657">
<ele>1074.0</ele>
<speed>27.1</speed>
<course>123.9</course>
<desc>Speed 27.1 km/h Distance 46.05 km</desc>
<time>2011-09-24T12:38:32.27</time>
<name>9749</name>
</trkpt>
<trkpt lat="41.795807" lon="-1.782590">
<ele>1073.5</ele>
<speed>23.3</speed>
<course>125.3</course>
<desc>Speed 23.3 km/h Distance 46.06 km</desc>
<time>2011-09-24T12:38:33.27</time>
<name>9750</name>
</trkpt>
<trkpt lat="41.795775" lon="-1.782530">
<ele>1073.5</ele>
<speed>20.8</speed>
<course>122.4</course>
<desc>Speed 20.8 km/h Distance 46.06 km</desc>
<time>2011-09-24T12:38:34.28</time>
<name>9751</name>
</trkpt>
<trkpt lat="41.795747" lon="-1.782470">
<ele>1072.0</ele>
<speed>19.5</speed>
<course>125.2</course>
<desc>Speed 19.5 km/h Distance 46.07 km</desc>
<time>2011-09-24T12:38:35.27</time>
<name>9752</name>
</trkpt>
<trkpt lat="41.795713" lon="-1.782407">
<ele>1072.0</ele>
<speed>21.7</speed>
<course>121.2</course>
<desc>Speed 21.7 km/h Distance 46.07 km</desc>
<time>2011-09-24T12:38:36.27</time>
<name>9753</name>
</trkpt>
<trkpt lat="41.795682" lon="-1.782337">
<ele>1073.5</ele>
<speed>23.2</speed>
<course>120.3</course>
<desc>Speed 23.2 km/h Distance 46.08 km</desc>
<time>2011-09-24T12:38:37.28</time>
<name>9754</name>
</trkpt>
<trkpt lat="41.795653" lon="-1.782272">
<ele>1074.5</ele>
<speed>22.3</speed>
<course>118.2</course>
<desc>Speed 22.3 km/h Distance 46.09 km</desc>
<time>2011-09-24T12:38:38.27</time>
<name>9755</name>
</trkpt>
<trkpt lat="41.795627" lon="-1.782205">
<ele>1075.0</ele>
<speed>22.3</speed>
<course>121.6</course>
<desc>Speed 22.3 km/h Distance 46.09 km</desc>
<time>2011-09-24T12:38:39.27</time>
<name>9756</name>
</trkpt>
<trkpt lat="41.795598" lon="-1.782143">
<ele>1075.5</ele>
<speed>21.5</speed>
<course>123.2</course>
<desc>Speed 21.5 km/h Distance 46.10 km</desc>
<time>2011-09-24T12:38:40.27</time>
<name>9757</name>
</trkpt>
<trkpt lat="41.795567" lon="-1.782078">
<ele>1076.0</ele>
<speed>22.6</speed>
<course>117.9</course>
<desc>Speed 22.6 km/h Distance 46.11 km</desc>
<time>2011-09-24T12:38:41.27</time>
<name>9758</name>
</trkpt>
<trkpt lat="41.795538" lon="-1.782007">
<ele>1077.0</ele>
<speed>23.5</speed>
<course>119.9</course>
<desc>Speed 23.5 km/h Distance 46.11 km</desc>
<time>2011-09-24T12:38:42.27</time>
<name>9759</name>
</trkpt>
<trkpt lat="41.795508" lon="-1.781937">
<ele>1077.5</ele>
<speed>23.1</speed>
<course>120.5</course>
<desc>Speed 23.1 km/h Distance 46.12 km</desc>
<time>2011-09-24T12:38:43.27</time>
<name>9760</name>
</trkpt>
<trkpt lat="41.795478" lon="-1.781868">
<ele>1078.0</ele>
<speed>23.5</speed>
<course>118.5</course>
<desc>Speed 23.5 km/h Distance 46.13 km</desc>
<time>2011-09-24T12:38:44.26</time>
<name>9761</name>
</trkpt>
<trkpt lat="41.795453" lon="-1.781807">
<ele>1078.0</ele>
<speed>21.1</speed>
<course>121.0</course>
<desc>Speed 21.1 km/h Distance 46.13 km</desc>
<time>2011-09-24T12:38:45.27</time>
<name>9762</name>
</trkpt>
<trkpt lat="41.795425" lon="-1.781743">
<ele>1078.5</ele>
<speed>21.3</speed>
<course>118.5</course>
<desc>Speed 21.3 km/h Distance 46.14 km</desc>
<time>2011-09-24T12:38:46.28</time>
<name>9763</name>
</trkpt>
<trkpt lat="41.795397" lon="-1.781673">
<ele>1080.0</ele>
<speed>22.8</speed>
<course>119.7</course>
<desc>Speed 22.8 km/h Distance 46.15 km</desc>
<time>2011-09-24T12:38:47.27</time>
<name>9764</name>
</trkpt>
<trkpt lat="41.795368" lon="-1.781607">
<ele>1080.5</ele>
<speed>22.7</speed>
<course>114.7</course>
<desc>Speed 22.7 km/h Distance 46.15 km</desc>
<time>2011-09-24T12:38:48.26</time>
<name>9765</name>
</trkpt>
<trkpt lat="41.795347" lon="-1.781543">
<ele>1080.0</ele>
<speed>20.4</speed>
<course>118.5</course>
<desc>Speed 20.4 km/h Distance 46.16 km</desc>
<time>2011-09-24T12:38:49.27</time>
<name>9766</name>
</trkpt>
<trkpt lat="41.795322" lon="-1.781482">
<ele>1080.0</ele>
<speed>21.0</speed>
<course>105.7</course>
<desc>Speed 21.0 km/h Distance 46.16 km</desc>
<time>2011-09-24T12:38:50.27</time>
<name>9767</name>
</trkpt>
<trkpt lat="41.795307" lon="-1.781410">
<ele>1080.5</ele>
<speed>22.0</speed>
<course>112.5</course>
<desc>Speed 22.0 km/h Distance 46.17 km</desc>
<time>2011-09-24T12:38:51.27</time>
<name>9768</name>
</trkpt>
<trkpt lat="41.795285" lon="-1.781340">
<ele>1081.0</ele>
<speed>22.4</speed>
<course>111.0</course>
<desc>Speed 22.4 km/h Distance 46.18 km</desc>
<time>2011-09-24T12:38:52.27</time>
<name>9769</name>
</trkpt>
<trkpt lat="41.795265" lon="-1.781270">
<ele>1081.0</ele>
<speed>21.9</speed>
<course>113.0</course>
<desc>Speed 21.9 km/h Distance 46.18 km</desc>
<time>2011-09-24T12:38:53.26</time>
<name>9770</name>
</trkpt>
<trkpt lat="41.795243" lon="-1.781202">
<ele>1081.0</ele>
<speed>21.8</speed>
<course>114.6</course>
<desc>Speed 21.8 km/h Distance 46.19 km</desc>
<time>2011-09-24T12:38:54.26</time>
<name>9771</name>
</trkpt>
<trkpt lat="41.795220" lon="-1.781133">
<ele>1081.5</ele>
<speed>22.5</speed>
<course>133.5</course>
<desc>Speed 22.5 km/h Distance 46.19 km</desc>
<time>2011-09-24T12:38:55.26</time>
<name>9772</name>
</trkpt>
<trkpt lat="41.795172" lon="-1.781065">
<ele>1082.5</ele>
<speed>27.9</speed>
<course>108.1</course>
<desc>Speed 27.9 km/h Distance 46.20 km</desc>
<time>2011-09-24T12:38:56.26</time>
<name>9773</name>
</trkpt>
<trkpt lat="41.795155" lon="-1.780997">
<ele>1082.5</ele>
<speed>21.0</speed>
<course>112.5</course>
<desc>Speed 21.0 km/h Distance 46.21 km</desc>
<time>2011-09-24T12:38:57.26</time>
<name>9774</name>
</trkpt>
<trkpt lat="41.795133" lon="-1.780927">
<ele>1082.5</ele>
<speed>22.6</speed>
<course>115.6</course>
<desc>Speed 22.6 km/h Distance 46.21 km</desc>
<time>2011-09-24T12:38:58.26</time>
<name>9775</name>
</trkpt>
<trkpt lat="41.795108" lon="-1.780857">
<ele>1082.0</ele>
<speed>23.1</speed>
<course>121.9</course>
<desc>Speed 23.1 km/h Distance 46.22 km</desc>
<time>2011-09-24T12:38:59.25</time>
<name>9776</name>
</trkpt>
<trkpt lat="41.795077" lon="-1.780788">
<ele>1082.0</ele>
<speed>23.3</speed>
<course>122.4</course>
<desc>Speed 23.3 km/h Distance 46.23 km</desc>
<time>2011-09-24T12:39:00.26</time>
<name>9777</name>
</trkpt>
<trkpt lat="41.795047" lon="-1.780725">
<ele>1081.5</ele>
<speed>22.1</speed>
<course>98.7</course>
<desc>Speed 22.1 km/h Distance 46.23 km</desc>
<time>2011-09-24T12:39:01.26</time>
<name>9778</name>
</trkpt>
<trkpt lat="41.795040" lon="-1.780667">
<ele>1079.5</ele>
<speed>17.9</speed>
<course>129.8</course>
<desc>Speed 17.9 km/h Distance 46.24 km</desc>
<time>2011-09-24T12:39:02.26</time>
<name>9779</name>
</trkpt>
<trkpt lat="41.795002" lon="-1.780605">
<ele>1080.0</ele>
<speed>23.4</speed>
<course>137.0</course>
<desc>Speed 23.4 km/h Distance 46.25 km</desc>
<time>2011-09-24T12:39:03.26</time>
<name>9780</name>
</trkpt>
<trkpt lat="41.794968" lon="-1.780563">
<ele>1080.0</ele>
<speed>16.7</speed>
<course>105.0</course>
<desc>Speed 16.7 km/h Distance 46.25 km</desc>
<time>2011-09-24T12:39:04.26</time>
<name>9781</name>
</trkpt>
<trkpt lat="41.794957" lon="-1.780505">
<ele>1080.0</ele>
<speed>17.4</speed>
<course>127.7</course>
<desc>Speed 17.4 km/h Distance 46.26 km</desc>
<time>2011-09-24T12:39:05.25</time>
<name>9782</name>
</trkpt>
<trkpt lat="41.794925" lon="-1.780450">
<ele>1080.5</ele>
<speed>19.4</speed>
<course>119.9</course>
<desc>Speed 19.4 km/h Distance 46.26 km</desc>
<time>2011-09-24T12:39:06.25</time>
<name>9783</name>
</trkpt>
<trkpt lat="41.794905" lon="-1.780403">
<ele>1080.5</ele>
<speed>15.7</speed>
<course>125.8</course>
<desc>Speed 15.7 km/h Distance 46.27 km</desc>
<time>2011-09-24T12:39:07.25</time>
<name>9784</name>
</trkpt>
<trkpt lat="41.794882" lon="-1.780360">
<ele>1080.5</ele>
<speed>15.3</speed>
<course>131.8</course>
<desc>Speed 15.3 km/h Distance 46.27 km</desc>
<time>2011-09-24T12:39:08.25</time>
<name>9785</name>
</trkpt>
<trkpt lat="41.794855" lon="-1.780320">
<ele>1081.0</ele>
<speed>15.2</speed>
<course>124.8</course>
<desc>Speed 15.2 km/h Distance 46.27 km</desc>
<time>2011-09-24T12:39:09.25</time>
<name>9786</name>
</trkpt>
<trkpt lat="41.794830" lon="-1.780272">
<ele>1082.5</ele>
<speed>17.2</speed>
<course>119.9</course>
<desc>Speed 17.2 km/h Distance 46.28 km</desc>
<time>2011-09-24T12:39:10.25</time>
<name>9787</name>
</trkpt>
<trkpt lat="41.794810" lon="-1.780225">
<ele>1082.5</ele>
<speed>16.4</speed>
<course>117.8</course>
<desc>Speed 16.4 km/h Distance 46.28 km</desc>
<time>2011-09-24T12:39:11.24</time>
<name>9788</name>
</trkpt>
<trkpt lat="41.794792" lon="-1.780178">
<ele>1082.5</ele>
<speed>16.3</speed>
<course>124.8</course>
<desc>Speed 16.3 km/h Distance 46.29 km</desc>
<time>2011-09-24T12:39:12.24</time>
<name>9789</name>
</trkpt>
<trkpt lat="41.794767" lon="-1.780130">
<ele>1083.0</ele>
<speed>16.5</speed>
<course>121.9</course>
<desc>Speed 16.5 km/h Distance 46.29 km</desc>
<time>2011-09-24T12:39:13.24</time>
<name>9790</name>
</trkpt>
<trkpt lat="41.794745" lon="-1.780083">
<ele>1083.0</ele>
<speed>16.1</speed>
<course>122.8</course>
<desc>Speed 16.1 km/h Distance 46.30 km</desc>
<time>2011-09-24T12:39:14.25</time>
<name>9791</name>
</trkpt>
<trkpt lat="41.794725" lon="-1.780042">
<ele>1083.0</ele>
<speed>14.3</speed>
<course>125.7</course>
<desc>Speed 14.3 km/h Distance 46.30 km</desc>
<time>2011-09-24T12:39:15.25</time>
<name>9792</name>
</trkpt>
<trkpt lat="41.794700" lon="-1.779995">
<ele>1084.0</ele>
<speed>16.3</speed>
<course>125.8</course>
<desc>Speed 16.3 km/h Distance 46.31 km</desc>
<time>2011-09-24T12:39:16.25</time>
<name>9793</name>
</trkpt>
<trkpt lat="41.794677" lon="-1.779952">
<ele>1084.0</ele>
<speed>15.2</speed>
<course>90.0</course>
<desc>Speed 15.2 km/h Distance 46.31 km</desc>
<time>2011-09-24T12:39:17.24</time>
<name>9794</name>
</trkpt>
<trkpt lat="41.794677" lon="-1.779908">
<ele>1083.0</ele>
<speed>13.0</speed>
<course>110.6</course>
<desc>Speed 13.0 km/h Distance 46.31 km</desc>
<time>2011-09-24T12:39:18.25</time>
<name>9795</name>
</trkpt>
<trkpt lat="41.794665" lon="-1.779867">
<ele>1083.0</ele>
<speed>12.4</speed>
<course>122.8</course>
<desc>Speed 12.4 km/h Distance 46.32 km</desc>
<time>2011-09-24T12:39:19.24</time>
<name>9796</name>
</trkpt>
<trkpt lat="41.794645" lon="-1.779825">
<ele>1083.5</ele>
<speed>14.0</speed>
<course>129.5</course>
<desc>Speed 14.0 km/h Distance 46.32 km</desc>
<time>2011-09-24T12:39:20.24</time>
<name>9797</name>
</trkpt>
<trkpt lat="41.794618" lon="-1.779782">
<ele>1084.5</ele>
<speed>15.7</speed>
<course>125.8</course>
<desc>Speed 15.7 km/h Distance 46.33 km</desc>
<time>2011-09-24T12:39:21.25</time>
<name>9798</name>
</trkpt>
<trkpt lat="41.794595" lon="-1.779738">
<ele>1085.5</ele>
<speed>15.1</speed>
<course>118.2</course>
<desc>Speed 15.1 km/h Distance 46.33 km</desc>
<time>2011-09-24T12:39:22.24</time>
<name>9799</name>
</trkpt>
<trkpt lat="41.794578" lon="-1.779697">
<ele>1085.5</ele>
<speed>14.4</speed>
<course>114.1</course>
<desc>Speed 14.4 km/h Distance 46.34 km</desc>
<time>2011-09-24T12:39:23.24</time>
<name>9800</name>
</trkpt>
<trkpt lat="41.794565" lon="-1.779657">
<ele>1084.5</ele>
<speed>13.6</speed>
<course>123.8</course>
<desc>Speed 13.6 km/h Distance 46.34 km</desc>
<time>2011-09-24T12:39:24.24</time>
<name>9801</name>
</trkpt>
<trkpt lat="41.794550" lon="-1.779627">
<ele>1084.5</ele>
<speed>10.3</speed>
<course>121.8</course>
<desc>Speed 10.3 km/h Distance 46.34 km</desc>
<time>2011-09-24T12:39:25.24</time>
<name>9802</name>
</trkpt>
<trkpt lat="41.794530" lon="-1.779583">
<ele>1085.5</ele>
<speed>14.7</speed>
<course>120.2</course>
<desc>Speed 14.7 km/h Distance 46.35 km</desc>
<time>2011-09-24T12:39:26.23</time>
<name>9803</name>
</trkpt>
<trkpt lat="41.794513" lon="-1.779545">
<ele>1084.5</ele>
<speed>13.2</speed>
<course>120.2</course>
<desc>Speed 13.2 km/h Distance 46.35 km</desc>
<time>2011-09-24T12:39:27.24</time>
<name>9804</name>
</trkpt>
<trkpt lat="41.794497" lon="-1.779507">
<ele>1084.0</ele>
<speed>13.6</speed>
<course>123.8</course>
<desc>Speed 13.6 km/h Distance 46.35 km</desc>
<time>2011-09-24T12:39:28.23</time>
<name>9805</name>
</trkpt>
<trkpt lat="41.794477" lon="-1.779467">
<ele>1083.5</ele>
<speed>14.5</speed>
<course>129.2</course>
<desc>Speed 14.5 km/h Distance 46.36 km</desc>
<time>2011-09-24T12:39:29.23</time>
<name>9806</name>
</trkpt>
<trkpt lat="41.794453" lon="-1.779428">
<ele>1083.0</ele>
<speed>14.9</speed>
<course>131.2</course>
<desc>Speed 14.9 km/h Distance 46.36 km</desc>
<time>2011-09-24T12:39:30.23</time>
<name>9807</name>
</trkpt>
<trkpt lat="41.794428" lon="-1.779390">
<ele>1083.0</ele>
<speed>14.1</speed>
<course>125.0</course>
<desc>Speed 14.1 km/h Distance 46.37 km</desc>
<time>2011-09-24T12:39:31.23</time>
<name>9808</name>
</trkpt>
<trkpt lat="41.794408" lon="-1.779352">
<ele>1081.5</ele>
<speed>14.5</speed>
<course>126.9</course>
<desc>Speed 14.5 km/h Distance 46.37 km</desc>
<time>2011-09-24T12:39:32.23</time>
<name>9809</name>
</trkpt>
<trkpt lat="41.794385" lon="-1.779310">
<ele>1081.5</ele>
<speed>14.8</speed>
<course>131.8</course>
<desc>Speed 14.8 km/h Distance 46.37 km</desc>
<time>2011-09-24T12:39:33.23</time>
<name>9810</name>
</trkpt>
<trkpt lat="41.794358" lon="-1.779270">
<ele>1081.5</ele>
<speed>14.9</speed>
<course>132.4</course>
<desc>Speed 14.9 km/h Distance 46.38 km</desc>
<time>2011-09-24T12:39:34.23</time>
<name>9811</name>
</trkpt>
<trkpt lat="41.794330" lon="-1.779228">
<ele>1081.5</ele>
<speed>15.4</speed>
<course>133.0</course>
<desc>Speed 15.4 km/h Distance 46.38 km</desc>
<time>2011-09-24T12:39:35.23</time>
<name>9812</name>
</trkpt>
<trkpt lat="41.794303" lon="-1.779190">
<ele>1081.0</ele>
<speed>14.1</speed>
<course>143.3</course>
<desc>Speed 14.1 km/h Distance 46.39 km</desc>
<time>2011-09-24T12:39:36.23</time>
<name>9813</name>
</trkpt>
<trkpt lat="41.794273" lon="-1.779160">
<ele>1080.5</ele>
<speed>13.2</speed>
<course>147.9</course>
<desc>Speed 13.2 km/h Distance 46.39 km</desc>
<time>2011-09-24T12:39:37.23</time>
<name>9814</name>
</trkpt>
<trkpt lat="41.794242" lon="-1.779133">
<ele>1079.5</ele>
<speed>13.0</speed>
<course>152.0</course>
<desc>Speed 13.0 km/h Distance 46.40 km</desc>
<time>2011-09-24T12:39:38.23</time>
<name>9815</name>
</trkpt>
<trkpt lat="41.794207" lon="-1.779108">
<ele>1079.5</ele>
<speed>14.5</speed>
<course>147.6</course>
<desc>Speed 14.5 km/h Distance 46.40 km</desc>
<time>2011-09-24T12:39:39.22</time>
<name>9816</name>
</trkpt>
<trkpt lat="41.794173" lon="-1.779080">
<ele>1079.5</ele>
<speed>14.9</speed>
<course>150.4</course>
<desc>Speed 14.9 km/h Distance 46.40 km</desc>
<time>2011-09-24T12:39:40.22</time>
<name>9817</name>
</trkpt>
<trkpt lat="41.794138" lon="-1.779053">
<ele>1079.5</ele>
<speed>14.8</speed>
<course>154.6</course>
<desc>Speed 14.8 km/h Distance 46.41 km</desc>
<time>2011-09-24T12:39:41.24</time>
<name>9818</name>
</trkpt>
<trkpt lat="41.794102" lon="-1.779030">
<ele>1079.5</ele>
<speed>15.1</speed>
<course>162.0</course>
<desc>Speed 15.1 km/h Distance 46.41 km</desc>
<time>2011-09-24T12:39:42.23</time>
<name>9819</name>
</trkpt>
<trkpt lat="41.794063" lon="-1.779013">
<ele>1080.0</ele>
<speed>14.0</speed>
<course>164.0</course>
<desc>Speed 14.0 km/h Distance 46.42 km</desc>
<time>2011-09-24T12:39:43.23</time>
<name>9820</name>
</trkpt>
<trkpt lat="41.794020" lon="-1.778997">
<ele>1081.5</ele>
<speed>16.1</speed>
<course>162.7</course>
<desc>Speed 16.1 km/h Distance 46.42 km</desc>
<time>2011-09-24T12:39:44.23</time>
<name>9821</name>
</trkpt>
<trkpt lat="41.793980" lon="-1.778980">
<ele>1082.5</ele>
<speed>15.3</speed>
<course>160.3</course>
<desc>Speed 15.3 km/h Distance 46.43 km</desc>
<time>2011-09-24T12:39:45.22</time>
<name>9822</name>
</trkpt>
<trkpt lat="41.793942" lon="-1.778962">
<ele>1083.0</ele>
<speed>14.7</speed>
<course>159.5</course>
<desc>Speed 14.7 km/h Distance 46.43 km</desc>
<time>2011-09-24T12:39:46.22</time>
<name>9823</name>
</trkpt>
<trkpt lat="41.793905" lon="-1.778943">
<ele>1083.5</ele>
<speed>13.8</speed>
<course>158.7</course>
<desc>Speed 13.8 km/h Distance 46.44 km</desc>
<time>2011-09-24T12:39:47.22</time>
<name>9824</name>
</trkpt>
<trkpt lat="41.793870" lon="-1.778925">
<ele>1084.0</ele>
<speed>13.9</speed>
<course>164.8</course>
<desc>Speed 13.9 km/h Distance 46.44 km</desc>
<time>2011-09-24T12:39:48.21</time>
<name>9825</name>
</trkpt>
<trkpt lat="41.793833" lon="-1.778912">
<ele>1083.5</ele>
<speed>13.6</speed>
<course>164.8</course>
<desc>Speed 13.6 km/h Distance 46.45 km</desc>
<time>2011-09-24T12:39:49.22</time>
<name>9826</name>
</trkpt>
<trkpt lat="41.793797" lon="-1.778898">
<ele>1084.0</ele>
<speed>13.9</speed>
<course>169.0</course>
<desc>Speed 13.9 km/h Distance 46.45 km</desc>
<time>2011-09-24T12:39:50.22</time>
<name>9827</name>
</trkpt>
<trkpt lat="41.793758" lon="-1.778888">
<ele>1084.0</ele>
<speed>15.0</speed>
<course>175.0</course>
<desc>Speed 15.0 km/h Distance 46.45 km</desc>
<time>2011-09-24T12:39:51.21</time>
<name>9828</name>
</trkpt>
<trkpt lat="41.793717" lon="-1.778883">
<ele>1083.5</ele>
<speed>15.6</speed>
<course>168.2</course>
<desc>Speed 15.6 km/h Distance 46.46 km</desc>
<time>2011-09-24T12:39:52.21</time>
<name>9829</name>
</trkpt>
<trkpt lat="41.793675" lon="-1.778872">
<ele>1083.0</ele>
<speed>16.0</speed>
<course>164.0</course>
<desc>Speed 16.0 km/h Distance 46.46 km</desc>
<time>2011-09-24T12:39:53.21</time>
<name>9830</name>
</trkpt>
<trkpt lat="41.793632" lon="-1.778855">
<ele>1082.5</ele>
<speed>16.8</speed>
<course>170.6</course>
<desc>Speed 16.8 km/h Distance 46.47 km</desc>
<time>2011-09-24T12:39:54.22</time>
<name>9831</name>
</trkpt>
<trkpt lat="41.793587" lon="-1.778845">
<ele>1083.0</ele>
<speed>16.9</speed>
<course>166.5</course>
<desc>Speed 16.9 km/h Distance 46.47 km</desc>
<time>2011-09-24T12:39:55.22</time>
<name>9832</name>
</trkpt>
<trkpt lat="41.793540" lon="-1.778830">
<ele>1084.0</ele>
<speed>18.7</speed>
<course>165.6</course>
<desc>Speed 18.7 km/h Distance 46.48 km</desc>
<time>2011-09-24T12:39:56.21</time>
<name>9833</name>
</trkpt>
<trkpt lat="41.793492" lon="-1.778813">
<ele>1084.5</ele>
<speed>19.0</speed>
<course>165.1</course>
<desc>Speed 19.0 km/h Distance 46.48 km</desc>
<time>2011-09-24T12:39:57.21</time>
<name>9834</name>
</trkpt>
<trkpt lat="41.793445" lon="-1.778797">
<ele>1084.5</ele>
<speed>18.3</speed>
<course>161.7</course>
<desc>Speed 18.3 km/h Distance 46.49 km</desc>
<time>2011-09-24T12:39:58.21</time>
<name>9835</name>
</trkpt>
<trkpt lat="41.793400" lon="-1.778777">
<ele>1084.5</ele>
<speed>18.6</speed>
<course>160.3</course>
<desc>Speed 18.6 km/h Distance 46.49 km</desc>
<time>2011-09-24T12:39:59.20</time>
<name>9836</name>
</trkpt>
<trkpt lat="41.793355" lon="-1.778755">
<ele>1084.5</ele>
<speed>18.8</speed>
<course>157.5</course>
<desc>Speed 18.8 km/h Distance 46.50 km</desc>
<time>2011-09-24T12:40:00.20</time>
<name>9837</name>
</trkpt>
<trkpt lat="41.793310" lon="-1.778730">
<ele>1084.5</ele>
<speed>18.5</speed>
<course>154.0</course>
<desc>Speed 18.5 km/h Distance 46.51 km</desc>
<time>2011-09-24T12:40:01.21</time>
<name>9838</name>
</trkpt>
<trkpt lat="41.793267" lon="-1.778702">
<ele>1085.0</ele>
<speed>18.8</speed>
<course>150.8</course>
<desc>Speed 18.8 km/h Distance 46.51 km</desc>
<time>2011-09-24T12:40:02.21</time>
<name>9839</name>
</trkpt>
<trkpt lat="41.793227" lon="-1.778672">
<ele>1085.0</ele>
<speed>17.9</speed>
<course>144.6</course>
<desc>Speed 17.9 km/h Distance 46.52 km</desc>
<time>2011-09-24T12:40:03.20</time>
<name>9840</name>
</trkpt>
<trkpt lat="41.793190" lon="-1.778637">
<ele>1085.0</ele>
<speed>17.9</speed>
<course>140.8</course>
<desc>Speed 17.9 km/h Distance 46.52 km</desc>
<time>2011-09-24T12:40:04.20</time>
<name>9841</name>
</trkpt>
<trkpt lat="41.793155" lon="-1.778598">
<ele>1085.5</ele>
<speed>18.3</speed>
<course>140.9</course>
<desc>Speed 18.3 km/h Distance 46.53 km</desc>
<time>2011-09-24T12:40:05.20</time>
<name>9842</name>
</trkpt>
<trkpt lat="41.793118" lon="-1.778558">
<ele>1086.0</ele>
<speed>18.7</speed>
<course>132.9</course>
<desc>Speed 18.7 km/h Distance 46.53 km</desc>
<time>2011-09-24T12:40:06.20</time>
<name>9843</name>
</trkpt>
<trkpt lat="41.793088" lon="-1.778515">
<ele>1086.5</ele>
<speed>17.9</speed>
<course>123.8</course>
<desc>Speed 17.9 km/h Distance 46.54 km</desc>
<time>2011-09-24T12:40:07.20</time>
<name>9844</name>
</trkpt>
<trkpt lat="41.793065" lon="-1.778468">
<ele>1087.0</ele>
<speed>17.2</speed>
<course>122.9</course>
<desc>Speed 17.2 km/h Distance 46.54 km</desc>
<time>2011-09-24T12:40:08.19</time>
<name>9845</name>
</trkpt>
<trkpt lat="41.793043" lon="-1.778423">
<ele>1087.0</ele>
<speed>15.5</speed>
<course>118.6</course>
<desc>Speed 15.5 km/h Distance 46.55 km</desc>
<time>2011-09-24T12:40:09.20</time>
<name>9846</name>
</trkpt>
<trkpt lat="41.793025" lon="-1.778378">
<ele>1086.5</ele>
<speed>15.4</speed>
<course>114.8</course>
<desc>Speed 15.4 km/h Distance 46.55 km</desc>
<time>2011-09-24T12:40:10.20</time>
<name>9847</name>
</trkpt>
<trkpt lat="41.793008" lon="-1.778330">
<ele>1086.0</ele>
<speed>16.1</speed>
<course>119.2</course>
<desc>Speed 16.1 km/h Distance 46.55 km</desc>
<time>2011-09-24T12:40:11.20</time>
<name>9848</name>
</trkpt>
<trkpt lat="41.792992" lon="-1.778290">
<ele>1086.0</ele>
<speed>13.7</speed>
<course>123.0</course>
<desc>Speed 13.7 km/h Distance 46.56 km</desc>
<time>2011-09-24T12:40:12.19</time>
<name>9849</name>
</trkpt>
<trkpt lat="41.792967" lon="-1.778238">
<ele>1087.5</ele>
<speed>18.3</speed>
<course>123.8</course>
<desc>Speed 18.3 km/h Distance 46.56 km</desc>
<time>2011-09-24T12:40:13.20</time>
<name>9850</name>
</trkpt>
<trkpt lat="41.792942" lon="-1.778188">
<ele>1089.0</ele>
<speed>18.1</speed>
<course>124.7</course>
<desc>Speed 18.1 km/h Distance 46.57 km</desc>
<time>2011-09-24T12:40:14.20</time>
<name>9851</name>
</trkpt>
<trkpt lat="41.792915" lon="-1.778137">
<ele>1090.0</ele>
<speed>18.5</speed>
<course>123.8</course>
<desc>Speed 18.5 km/h Distance 46.57 km</desc>
<time>2011-09-24T12:40:15.19</time>
<name>9852</name>
</trkpt>
<trkpt lat="41.792888" lon="-1.778083">
<ele>1091.5</ele>
<speed>19.4</speed>
<course>119.3</course>
<desc>Speed 19.4 km/h Distance 46.58 km</desc>
<time>2011-09-24T12:40:16.19</time>
<name>9853</name>
</trkpt>
<trkpt lat="41.792867" lon="-1.778032">
<ele>1091.5</ele>
<speed>17.6</speed>
<course>120.6</course>
<desc>Speed 17.6 km/h Distance 46.58 km</desc>
<time>2011-09-24T12:40:17.19</time>
<name>9854</name>
</trkpt>
<trkpt lat="41.792842" lon="-1.777975">
<ele>1092.5</ele>
<speed>20.0</speed>
<course>121.2</course>
<desc>Speed 20.0 km/h Distance 46.59 km</desc>
<time>2011-09-24T12:40:18.19</time>
<name>9855</name>
</trkpt>
<trkpt lat="41.792818" lon="-1.777923">
<ele>1092.0</ele>
<speed>18.6</speed>
<course>123.8</course>
<desc>Speed 18.6 km/h Distance 46.59 km</desc>
<time>2011-09-24T12:40:19.19</time>
<name>9856</name>
</trkpt>
<trkpt lat="41.792790" lon="-1.777867">
<ele>1093.5</ele>
<speed>20.6</speed>
<course>123.8</course>
<desc>Speed 20.6 km/h Distance 46.60 km</desc>
<time>2011-09-24T12:40:20.19</time>
<name>9857</name>
</trkpt>
<trkpt lat="41.792762" lon="-1.777810">
<ele>1094.5</ele>
<speed>20.4</speed>
<course>122.9</course>
<desc>Speed 20.4 km/h Distance 46.61 km</desc>
<time>2011-09-24T12:40:21.19</time>
<name>9858</name>
</trkpt>
<trkpt lat="41.792740" lon="-1.777765">
<ele>1094.0</ele>
<speed>15.9</speed>
<course>122.2</course>
<desc>Speed 15.9 km/h Distance 46.61 km</desc>
<time>2011-09-24T12:40:22.19</time>
<name>9859</name>
</trkpt>
<trkpt lat="41.792715" lon="-1.777712">
<ele>1094.0</ele>
<speed>18.2</speed>
<course>119.9</course>
<desc>Speed 18.2 km/h Distance 46.61 km</desc>
<time>2011-09-24T12:40:23.19</time>
<name>9860</name>
</trkpt>
<trkpt lat="41.792695" lon="-1.777665">
<ele>1093.0</ele>
<speed>15.9</speed>
<course>120.4</course>
<desc>Speed 15.9 km/h Distance 46.62 km</desc>
<time>2011-09-24T12:40:24.18</time>
<name>9861</name>
</trkpt>
<trkpt lat="41.792672" lon="-1.777612">
<ele>1093.0</ele>
<speed>17.4</speed>
<course>87.8</course>
<desc>Speed 17.4 km/h Distance 46.62 km</desc>
<time>2011-09-24T12:40:25.19</time>
<name>9862</name>
</trkpt>
<trkpt lat="41.792673" lon="-1.777553">
<ele>1092.5</ele>
<speed>17.4</speed>
<course>96.7</course>
<desc>Speed 17.4 km/h Distance 46.63 km</desc>
<time>2011-09-24T12:40:26.19</time>
<name>9863</name>
</trkpt>
<trkpt lat="41.792668" lon="-1.777497">
<ele>1092.5</ele>
<speed>16.3</speed>
<course>107.0</course>
<desc>Speed 16.3 km/h Distance 46.63 km</desc>
<time>2011-09-24T12:40:27.18</time>
<name>9864</name>
</trkpt>
<trkpt lat="41.792655" lon="-1.777438">
<ele>1092.5</ele>
<speed>18.2</speed>
<course>112.1</course>
<desc>Speed 18.2 km/h Distance 46.64 km</desc>
<time>2011-09-24T12:40:28.18</time>
<name>9865</name>
</trkpt>
<trkpt lat="41.792638" lon="-1.777383">
<ele>1091.0</ele>
<speed>17.1</speed>
<course>112.3</course>
<desc>Speed 17.1 km/h Distance 46.64 km</desc>
<time>2011-09-24T12:40:29.18</time>
<name>9866</name>
</trkpt>
<trkpt lat="41.792620" lon="-1.777323">
<ele>1091.0</ele>
<speed>19.1</speed>
<course>112.4</course>
<desc>Speed 19.1 km/h Distance 46.65 km</desc>
<time>2011-09-24T12:40:30.18</time>
<name>9867</name>
</trkpt>
<trkpt lat="41.792600" lon="-1.777258">
<ele>1092.0</ele>
<speed>20.7</speed>
<course>106.6</course>
<desc>Speed 20.7 km/h Distance 46.66 km</desc>
<time>2011-09-24T12:40:31.18</time>
<name>9868</name>
</trkpt>
<trkpt lat="41.792587" lon="-1.777198">
<ele>1092.0</ele>
<speed>17.9</speed>
<course>109.4</course>
<desc>Speed 17.9 km/h Distance 46.66 km</desc>
<time>2011-09-24T12:40:32.18</time>
<name>9869</name>
</trkpt>
<trkpt lat="41.792570" lon="-1.777135">
<ele>1091.5</ele>
<speed>19.4</speed>
<course>108.5</course>
<desc>Speed 19.4 km/h Distance 46.67 km</desc>
<time>2011-09-24T12:40:33.18</time>
<name>9870</name>
</trkpt>
<trkpt lat="41.792553" lon="-1.777068">
<ele>1091.5</ele>
<speed>19.7</speed>
<course>109.4</course>
<desc>Speed 19.7 km/h Distance 46.67 km</desc>
<time>2011-09-24T12:40:34.18</time>
<name>9871</name>
</trkpt>
<trkpt lat="41.792537" lon="-1.777005">
<ele>1091.0</ele>
<speed>19.4</speed>
<course>109.4</course>
<desc>Speed 19.4 km/h Distance 46.68 km</desc>
<time>2011-09-24T12:40:35.18</time>
<name>9872</name>
</trkpt>
<trkpt lat="41.792518" lon="-1.776935">
<ele>1091.0</ele>
<speed>21.8</speed>
<course>112.1</course>
<desc>Speed 21.8 km/h Distance 46.68 km</desc>
<time>2011-09-24T12:40:36.17</time>
<name>9873</name>
</trkpt>
<trkpt lat="41.792497" lon="-1.776863">
<ele>1091.0</ele>
<speed>22.3</speed>
<course>112.1</course>
<desc>Speed 22.3 km/h Distance 46.69 km</desc>
<time>2011-09-24T12:40:37.17</time>
<name>9874</name>
</trkpt>
<trkpt lat="41.792475" lon="-1.776792">
<ele>1090.5</ele>
<speed>22.7</speed>
<course>112.1</course>
<desc>Speed 22.7 km/h Distance 46.70 km</desc>
<time>2011-09-24T12:40:38.18</time>
<name>9875</name>
</trkpt>
<trkpt lat="41.792453" lon="-1.776720">
<ele>1091.0</ele>
<speed>23.3</speed>
<course>93.6</course>
<desc>Speed 23.3 km/h Distance 46.70 km</desc>
<time>2011-09-24T12:40:39.17</time>
<name>9876</name>
</trkpt>
<trkpt lat="41.792450" lon="-1.776648">
<ele>1089.5</ele>
<speed>21.1</speed>
<course>107.7</course>
<desc>Speed 21.1 km/h Distance 46.71 km</desc>
<time>2011-09-24T12:40:40.17</time>
<name>9877</name>
</trkpt>
<trkpt lat="41.792433" lon="-1.776578">
<ele>1089.5</ele>
<speed>21.6</speed>
<course>108.9</course>
<desc>Speed 21.6 km/h Distance 46.71 km</desc>
<time>2011-09-24T12:40:41.17</time>
<name>9878</name>
</trkpt>
<trkpt lat="41.792415" lon="-1.776507">
<ele>1091.0</ele>
<speed>22.1</speed>
<course>115.1</course>
<desc>Speed 22.1 km/h Distance 46.72 km</desc>
<time>2011-09-24T12:40:42.17</time>
<name>9879</name>
</trkpt>
<trkpt lat="41.792390" lon="-1.776435">
<ele>1092.5</ele>
<speed>23.2</speed>
<course>116.5</course>
<desc>Speed 23.2 km/h Distance 46.73 km</desc>
<time>2011-09-24T12:40:43.17</time>
<name>9880</name>
</trkpt>
<trkpt lat="41.792363" lon="-1.776363">
<ele>1093.0</ele>
<speed>23.6</speed>
<course>117.4</course>
<desc>Speed 23.6 km/h Distance 46.73 km</desc>
<time>2011-09-24T12:40:44.16</time>
<name>9881</name>
</trkpt>
<trkpt lat="41.792335" lon="-1.776290">
<ele>1093.0</ele>
<speed>24.4</speed>
<course>114.6</course>
<desc>Speed 24.4 km/h Distance 46.74 km</desc>
<time>2011-09-24T12:40:45.17</time>
<name>9882</name>
</trkpt>
<trkpt lat="41.792312" lon="-1.776222">
<ele>1092.5</ele>
<speed>22.5</speed>
<course>116.5</course>
<desc>Speed 22.5 km/h Distance 46.75 km</desc>
<time>2011-09-24T12:40:46.18</time>
<name>9883</name>
</trkpt>
<trkpt lat="41.792285" lon="-1.776150">
<ele>1093.0</ele>
<speed>23.6</speed>
<course>118.2</course>
<desc>Speed 23.6 km/h Distance 46.75 km</desc>
<time>2011-09-24T12:40:47.16</time>
<name>9884</name>
</trkpt>
<trkpt lat="41.792258" lon="-1.776083">
<ele>1092.5</ele>
<speed>22.2</speed>
<course>117.6</course>
<desc>Speed 22.2 km/h Distance 46.76 km</desc>
<time>2011-09-24T12:40:48.17</time>
<name>9885</name>
</trkpt>
<trkpt lat="41.792232" lon="-1.776015">
<ele>1093.0</ele>
<speed>22.6</speed>
<course>118.9</course>
<desc>Speed 22.6 km/h Distance 46.77 km</desc>
<time>2011-09-24T12:40:49.17</time>
<name>9886</name>
</trkpt>
<trkpt lat="41.792208" lon="-1.775958">
<ele>1091.0</ele>
<speed>20.1</speed>
<course>123.1</course>
<desc>Speed 20.1 km/h Distance 46.77 km</desc>
<time>2011-09-24T12:40:50.17</time>
<name>9887</name>
</trkpt>
<trkpt lat="41.792180" lon="-1.775900">
<ele>1090.0</ele>
<speed>21.9</speed>
<course>125.2</course>
<desc>Speed 21.9 km/h Distance 46.78 km</desc>
<time>2011-09-24T12:40:51.16</time>
<name>9888</name>
</trkpt>
<trkpt lat="41.792145" lon="-1.775833">
<ele>1090.0</ele>
<speed>23.4</speed>
<course>123.8</course>
<desc>Speed 23.4 km/h Distance 46.78 km</desc>
<time>2011-09-24T12:40:52.16</time>
<name>9889</name>
</trkpt>
<trkpt lat="41.792112" lon="-1.775767">
<ele>1090.5</ele>
<speed>23.5</speed>
<course>128.0</course>
<desc>Speed 23.5 km/h Distance 46.79 km</desc>
<time>2011-09-24T12:40:53.16</time>
<name>9890</name>
</trkpt>
<trkpt lat="41.792077" lon="-1.775707">
<ele>1090.0</ele>
<speed>21.7</speed>
<course>133.1</course>
<desc>Speed 21.7 km/h Distance 46.80 km</desc>
<time>2011-09-24T12:40:54.16</time>
<name>9891</name>
</trkpt>
<trkpt lat="41.792038" lon="-1.775652">
<ele>1090.0</ele>
<speed>21.7</speed>
<course>133.2</course>
<desc>Speed 21.7 km/h Distance 46.80 km</desc>
<time>2011-09-24T12:40:55.15</time>
<name>9892</name>
</trkpt>
<trkpt lat="41.792003" lon="-1.775602">
<ele>1089.5</ele>
<speed>19.7</speed>
<course>131.8</course>
<desc>Speed 19.7 km/h Distance 46.81 km</desc>
<time>2011-09-24T12:40:56.16</time>
<name>9893</name>
</trkpt>
<trkpt lat="41.791970" lon="-1.775552">
<ele>1089.5</ele>
<speed>18.9</speed>
<course>134.5</course>
<desc>Speed 18.9 km/h Distance 46.82 km</desc>
<time>2011-09-24T12:40:57.16</time>
<name>9894</name>
</trkpt>
<trkpt lat="41.791933" lon="-1.775502">
<ele>1089.5</ele>
<speed>19.5</speed>
<course>134.8</course>
<desc>Speed 19.5 km/h Distance 46.82 km</desc>
<time>2011-09-24T12:40:58.16</time>
<name>9895</name>
</trkpt>
<trkpt lat="41.791900" lon="-1.775457">
<ele>1089.5</ele>
<speed>18.3</speed>
<course>133.3</course>
<desc>Speed 18.3 km/h Distance 46.83 km</desc>
<time>2011-09-24T12:40:59.16</time>
<name>9896</name>
</trkpt>
<trkpt lat="41.791868" lon="-1.775412">
<ele>1089.5</ele>
<speed>18.1</speed>
<course>137.2</course>
<desc>Speed 18.1 km/h Distance 46.83 km</desc>
<time>2011-09-24T12:41:00.16</time>
<name>9897</name>
</trkpt>
<trkpt lat="41.791827" lon="-1.775360">
<ele>1091.0</ele>
<speed>22.1</speed>
<course>137.8</course>
<desc>Speed 22.1 km/h Distance 46.84 km</desc>
<time>2011-09-24T12:41:01.16</time>
<name>9898</name>
</trkpt>
<trkpt lat="41.791788" lon="-1.775313">
<ele>1091.0</ele>
<speed>20.7</speed>
<course>139.0</course>
<desc>Speed 20.7 km/h Distance 46.84 km</desc>
<time>2011-09-24T12:41:02.16</time>
<name>9899</name>
</trkpt>
<trkpt lat="41.791748" lon="-1.775267">
<ele>1090.5</ele>
<speed>20.7</speed>
<course>136.5</course>
<desc>Speed 20.7 km/h Distance 46.85 km</desc>
<time>2011-09-24T12:41:03.15</time>
<name>9900</name>
</trkpt>
<trkpt lat="41.791712" lon="-1.775220">
<ele>1089.0</ele>
<speed>20.4</speed>
<course>142.2</course>
<desc>Speed 20.4 km/h Distance 46.86 km</desc>
<time>2011-09-24T12:41:04.15</time>
<name>9901</name>
</trkpt>
<trkpt lat="41.791668" lon="-1.775175">
<ele>1088.5</ele>
<speed>21.6</speed>
<course>143.3</course>
<desc>Speed 21.6 km/h Distance 46.86 km</desc>
<time>2011-09-24T12:41:05.15</time>
<name>9902</name>
</trkpt>
<trkpt lat="41.791622" lon="-1.775128">
<ele>1089.0</ele>
<speed>22.5</speed>
<course>142.3</course>
<desc>Speed 22.5 km/h Distance 46.87 km</desc>
<time>2011-09-24T12:41:06.15</time>
<name>9903</name>
</trkpt>
<trkpt lat="41.791577" lon="-1.775082">
<ele>1089.0</ele>
<speed>21.7</speed>
<course>142.3</course>
<desc>Speed 21.7 km/h Distance 46.87 km</desc>
<time>2011-09-24T12:41:07.15</time>
<name>9904</name>
</trkpt>
<trkpt lat="41.791530" lon="-1.775033">
<ele>1089.0</ele>
<speed>22.9</speed>
<course>131.4</course>
<desc>Speed 22.9 km/h Distance 46.88 km</desc>
<time>2011-09-24T12:41:08.15</time>
<name>9905</name>
</trkpt>
<trkpt lat="41.791485" lon="-1.774965">
<ele>1089.0</ele>
<speed>27.0</speed>
<course>142.3</course>
<desc>Speed 27.0 km/h Distance 46.89 km</desc>
<time>2011-09-24T12:41:09.15</time>
<name>9906</name>
</trkpt>
<trkpt lat="41.791438" lon="-1.774917">
<ele>1089.0</ele>
<speed>22.6</speed>
<course>144.3</course>
<desc>Speed 22.6 km/h Distance 46.89 km</desc>
<time>2011-09-24T12:41:10.15</time>
<name>9907</name>
</trkpt>
<trkpt lat="41.791393" lon="-1.774873">
<ele>1089.0</ele>
<speed>21.8</speed>
<course>147.4</course>
<desc>Speed 21.8 km/h Distance 46.90 km</desc>
<time>2011-09-24T12:41:11.14</time>
<name>9908</name>
</trkpt>
<trkpt lat="41.791347" lon="-1.774833">
<ele>1089.0</ele>
<speed>20.7</speed>
<course>144.3</course>
<desc>Speed 20.7 km/h Distance 46.91 km</desc>
<time>2011-09-24T12:41:12.14</time>
<name>9909</name>
</trkpt>
<trkpt lat="41.791302" lon="-1.774790">
<ele>1089.0</ele>
<speed>21.5</speed>
<course>143.3</course>
<desc>Speed 21.5 km/h Distance 46.91 km</desc>
<time>2011-09-24T12:41:13.15</time>
<name>9910</name>
</trkpt>
<trkpt lat="41.791258" lon="-1.774747">
<ele>1089.5</ele>
<speed>21.0</speed>
<course>144.4</course>
<desc>Speed 21.0 km/h Distance 46.92 km</desc>
<time>2011-09-24T12:41:14.14</time>
<name>9911</name>
</trkpt>
<trkpt lat="41.791215" lon="-1.774705">
<ele>1090.5</ele>
<speed>21.2</speed>
<course>149.9</course>
<desc>Speed 21.2 km/h Distance 46.93 km</desc>
<time>2011-09-24T12:41:15.14</time>
<name>9912</name>
</trkpt>
<trkpt lat="41.791170" lon="-1.774670">
<ele>1090.5</ele>
<speed>20.1</speed>
<course>150.8</course>
<desc>Speed 20.1 km/h Distance 46.93 km</desc>
<time>2011-09-24T12:41:16.14</time>
<name>9913</name>
</trkpt>
<trkpt lat="41.791130" lon="-1.774640">
<ele>1090.0</ele>
<speed>18.2</speed>
<course>150.2</course>
<desc>Speed 18.2 km/h Distance 46.94 km</desc>
<time>2011-09-24T12:41:17.14</time>
<name>9914</name>
</trkpt>
<trkpt lat="41.791087" lon="-1.774607">
<ele>1089.5</ele>
<speed>19.5</speed>
<course>146.3</course>
<desc>Speed 19.5 km/h Distance 46.94 km</desc>
<time>2011-09-24T12:41:18.13</time>
<name>9915</name>
</trkpt>
<trkpt lat="41.791040" lon="-1.774565">
<ele>1090.5</ele>
<speed>22.4</speed>
<course>147.8</course>
<desc>Speed 22.4 km/h Distance 46.95 km</desc>
<time>2011-09-24T12:41:19.13</time>
<name>9916</name>
</trkpt>
<trkpt lat="41.790997" lon="-1.774528">
<ele>1090.5</ele>
<speed>20.3</speed>
<course>142.3</course>
<desc>Speed 20.3 km/h Distance 46.95 km</desc>
<time>2011-09-24T12:41:20.13</time>
<name>9917</name>
</trkpt>
<trkpt lat="41.790953" lon="-1.774483">
<ele>1092.0</ele>
<speed>22.3</speed>
<course>146.6</course>
<desc>Speed 22.3 km/h Distance 46.96 km</desc>
<time>2011-09-24T12:41:21.14</time>
<name>9918</name>
</trkpt>
<trkpt lat="41.790910" lon="-1.774445">
<ele>1092.0</ele>
<speed>20.4</speed>
<course>147.9</course>
<desc>Speed 20.4 km/h Distance 46.97 km</desc>
<time>2011-09-24T12:41:22.14</time>
<name>9919</name>
</trkpt>
<trkpt lat="41.790868" lon="-1.774410">
<ele>1092.0</ele>
<speed>20.1</speed>
<course>144.4</course>
<desc>Speed 20.1 km/h Distance 46.97 km</desc>
<time>2011-09-24T12:41:23.13</time>
<name>9920</name>
</trkpt>
<trkpt lat="41.790825" lon="-1.774368">
<ele>1092.5</ele>
<speed>21.7</speed>
<course>142.3</course>
<desc>Speed 21.7 km/h Distance 46.98 km</desc>
<time>2011-09-24T12:41:24.13</time>
<name>9921</name>
</trkpt>
<trkpt lat="41.790782" lon="-1.774323">
<ele>1092.5</ele>
<speed>21.9</speed>
<course>139.0</course>
<desc>Speed 21.9 km/h Distance 46.98 km</desc>
<time>2011-09-24T12:41:25.13</time>
<name>9922</name>
</trkpt>
<trkpt lat="41.790742" lon="-1.774277">
<ele>1092.0</ele>
<speed>21.7</speed>
<course>141.1</course>
<desc>Speed 21.7 km/h Distance 46.99 km</desc>
<time>2011-09-24T12:41:26.12</time>
<name>9923</name>
</trkpt>
<trkpt lat="41.790702" lon="-1.774233">
<ele>1091.5</ele>
<speed>20.6</speed>
<course>142.2</course>
<desc>Speed 20.6 km/h Distance 46.99 km</desc>
<time>2011-09-24T12:41:27.13</time>
<name>9924</name>
</trkpt>
<trkpt lat="41.790660" lon="-1.774190">
<ele>1091.5</ele>
<speed>21.3</speed>
<course>140.4</course>
<desc>Speed 21.3 km/h Distance 47.00 km</desc>
<time>2011-09-24T12:41:28.12</time>
<name>9925</name>
</trkpt>
<trkpt lat="41.790615" lon="-1.774140">
<ele>1092.5</ele>
<speed>23.3</speed>
<course>137.3</course>
<desc>Speed 23.3 km/h Distance 47.01 km</desc>
<time>2011-09-24T12:41:29.13</time>
<name>9926</name>
</trkpt>
<trkpt lat="41.790573" lon="-1.774088">
<ele>1093.5</ele>
<speed>23.3</speed>
<course>135.5</course>
<desc>Speed 23.3 km/h Distance 47.01 km</desc>
<time>2011-09-24T12:41:30.13</time>
<name>9927</name>
</trkpt>
<trkpt lat="41.790532" lon="-1.774033">
<ele>1093.5</ele>
<speed>23.5</speed>
<course>138.0</course>
<desc>Speed 23.5 km/h Distance 47.02 km</desc>
<time>2011-09-24T12:41:31.12</time>
<name>9928</name>
</trkpt>
<trkpt lat="41.790492" lon="-1.773985">
<ele>1092.5</ele>
<speed>21.6</speed>
<course>139.3</course>
<desc>Speed 21.6 km/h Distance 47.03 km</desc>
<time>2011-09-24T12:41:32.12</time>
<name>9929</name>
</trkpt>
<trkpt lat="41.790448" lon="-1.773935">
<ele>1092.0</ele>
<speed>22.9</speed>
<course>137.2</course>
<desc>Speed 22.9 km/h Distance 47.03 km</desc>
<time>2011-09-24T12:41:33.12</time>
<name>9930</name>
</trkpt>
<trkpt lat="41.790407" lon="-1.773883">
<ele>1091.5</ele>
<speed>23.1</speed>
<course>135.5</course>
<desc>Speed 23.1 km/h Distance 47.04 km</desc>
<time>2011-09-24T12:41:34.13</time>
<name>9931</name>
</trkpt>
<trkpt lat="41.790365" lon="-1.773828">
<ele>1091.5</ele>
<speed>23.6</speed>
<course>133.8</course>
<desc>Speed 23.6 km/h Distance 47.04 km</desc>
<time>2011-09-24T12:41:35.12</time>
<name>9932</name>
</trkpt>
<trkpt lat="41.790323" lon="-1.773770">
<ele>1091.0</ele>
<speed>24.1</speed>
<course>130.1</course>
<desc>Speed 24.1 km/h Distance 47.05 km</desc>
<time>2011-09-24T12:41:36.13</time>
<name>9933</name>
</trkpt>
<trkpt lat="41.790287" lon="-1.773712">
<ele>1090.5</ele>
<speed>22.9</speed>
<course>131.4</course>
<desc>Speed 22.9 km/h Distance 47.06 km</desc>
<time>2011-09-24T12:41:37.12</time>
<name>9934</name>
</trkpt>
<trkpt lat="41.790248" lon="-1.773653">
<ele>1090.0</ele>
<speed>22.9</speed>
<course>131.8</course>
<desc>Speed 22.9 km/h Distance 47.06 km</desc>
<time>2011-09-24T12:41:38.12</time>
<name>9935</name>
</trkpt>
<trkpt lat="41.790212" lon="-1.773598">
<ele>1089.5</ele>
<speed>22.5</speed>
<course>133.0</course>
<desc>Speed 22.5 km/h Distance 47.07 km</desc>
<time>2011-09-24T12:41:39.11</time>
<name>9936</name>
</trkpt>
<trkpt lat="41.790170" lon="-1.773538">
<ele>1089.5</ele>
<speed>23.8</speed>
<course>131.8</course>
<desc>Speed 23.8 km/h Distance 47.08 km</desc>
<time>2011-09-24T12:41:40.11</time>
<name>9937</name>
</trkpt>
<trkpt lat="41.790130" lon="-1.773478">
<ele>1089.0</ele>
<speed>23.9</speed>
<course>132.2</course>
<desc>Speed 23.9 km/h Distance 47.08 km</desc>
<time>2011-09-24T12:41:41.11</time>
<name>9938</name>
</trkpt>
<trkpt lat="41.790088" lon="-1.773417">
<ele>1089.0</ele>
<speed>24.6</speed>
<course>129.3</course>
<desc>Speed 24.6 km/h Distance 47.09 km</desc>
<time>2011-09-24T12:41:42.12</time>
<name>9939</name>
</trkpt>
<trkpt lat="41.790052" lon="-1.773357">
<ele>1088.0</ele>
<speed>23.3</speed>
<course>125.8</course>
<desc>Speed 23.3 km/h Distance 47.10 km</desc>
<time>2011-09-24T12:41:43.11</time>
<name>9940</name>
</trkpt>
<trkpt lat="41.790017" lon="-1.773292">
<ele>1087.5</ele>
<speed>24.0</speed>
<course>125.8</course>
<desc>Speed 24.0 km/h Distance 47.10 km</desc>
<time>2011-09-24T12:41:44.12</time>
<name>9941</name>
</trkpt>
<trkpt lat="41.789982" lon="-1.773227">
<ele>1087.0</ele>
<speed>24.5</speed>
<course>122.6</course>
<desc>Speed 24.5 km/h Distance 47.11 km</desc>
<time>2011-09-24T12:41:45.11</time>
<name>9942</name>
</trkpt>
<trkpt lat="41.789948" lon="-1.773157">
<ele>1087.0</ele>
<speed>25.1</speed>
<course>127.6</course>
<desc>Speed 25.1 km/h Distance 47.12 km</desc>
<time>2011-09-24T12:41:46.12</time>
<name>9943</name>
</trkpt>
<trkpt lat="41.789910" lon="-1.773090">
<ele>1086.5</ele>
<speed>25.1</speed>
<course>127.0</course>
<desc>Speed 25.1 km/h Distance 47.12 km</desc>
<time>2011-09-24T12:41:47.14</time>
<name>9944</name>
</trkpt>
<trkpt lat="41.789872" lon="-1.773022">
<ele>1087.5</ele>
<speed>26.4</speed>
<course>123.8</course>
<desc>Speed 26.4 km/h Distance 47.13 km</desc>
<time>2011-09-24T12:41:48.11</time>
<name>9945</name>
</trkpt>
<trkpt lat="41.789832" lon="-1.772942">
<ele>1087.0</ele>
<speed>28.7</speed>
<course>125.7</course>
<desc>Speed 28.7 km/h Distance 47.14 km</desc>
<time>2011-09-24T12:41:49.11</time>
<name>9946</name>
</trkpt>
<trkpt lat="41.789793" lon="-1.772870">
<ele>1087.0</ele>
<speed>26.6</speed>
<course>122.0</course>
<desc>Speed 26.6 km/h Distance 47.15 km</desc>
<time>2011-09-24T12:41:50.11</time>
<name>9947</name>
</trkpt>
<trkpt lat="41.789760" lon="-1.772798">
<ele>1086.5</ele>
<speed>25.5</speed>
<course>121.2</course>
<desc>Speed 25.5 km/h Distance 47.15 km</desc>
<time>2011-09-24T12:41:51.11</time>
<name>9948</name>
</trkpt>
<trkpt lat="41.789728" lon="-1.772728">
<ele>1086.0</ele>
<speed>25.4</speed>
<course>124.5</course>
<desc>Speed 25.4 km/h Distance 47.16 km</desc>
<time>2011-09-24T12:41:52.10</time>
<name>9949</name>
</trkpt>
<trkpt lat="41.789693" lon="-1.772660">
<ele>1085.5</ele>
<speed>25.1</speed>
<course>123.8</course>
<desc>Speed 25.1 km/h Distance 47.17 km</desc>
<time>2011-09-24T12:41:53.11</time>
<name>9950</name>
</trkpt>
<trkpt lat="41.789660" lon="-1.772593">
<ele>1085.5</ele>
<speed>24.7</speed>
<course>121.1</course>
<desc>Speed 24.7 km/h Distance 47.17 km</desc>
<time>2011-09-24T12:41:54.10</time>
<name>9951</name>
</trkpt>
<trkpt lat="41.789630" lon="-1.772527">
<ele>1085.0</ele>
<speed>23.9</speed>
<course>123.2</course>
<desc>Speed 23.9 km/h Distance 47.18 km</desc>
<time>2011-09-24T12:41:55.10</time>
<name>9952</name>
</trkpt>
<trkpt lat="41.789598" lon="-1.772462">
<ele>1085.0</ele>
<speed>23.8</speed>
<course>119.7</course>
<desc>Speed 23.8 km/h Distance 47.19 km</desc>
<time>2011-09-24T12:41:56.10</time>
<name>9953</name>
</trkpt>
<trkpt lat="41.789570" lon="-1.772395">
<ele>1084.0</ele>
<speed>23.5</speed>
<course>123.2</course>
<desc>Speed 23.5 km/h Distance 47.19 km</desc>
<time>2011-09-24T12:41:57.11</time>
<name>9954</name>
</trkpt>
<trkpt lat="41.789538" lon="-1.772330">
<ele>1084.0</ele>
<speed>23.5</speed>
<course>125.8</course>
<desc>Speed 23.5 km/h Distance 47.20 km</desc>
<time>2011-09-24T12:41:58.10</time>
<name>9955</name>
</trkpt>
<trkpt lat="41.789503" lon="-1.772265">
<ele>1084.5</ele>
<speed>24.6</speed>
<course>122.0</course>
<desc>Speed 24.6 km/h Distance 47.21 km</desc>
<time>2011-09-24T12:41:59.10</time>
<name>9956</name>
</trkpt>
<trkpt lat="41.789470" lon="-1.772193">
<ele>1084.5</ele>
<speed>24.9</speed>
<course>125.7</course>
<desc>Speed 24.9 km/h Distance 47.21 km</desc>
<time>2011-09-24T12:42:00.10</time>
<name>9957</name>
</trkpt>
<trkpt lat="41.789432" lon="-1.772122">
<ele>1086.0</ele>
<speed>27.2</speed>
<course>123.8</course>
<desc>Speed 27.2 km/h Distance 47.22 km</desc>
<time>2011-09-24T12:42:01.10</time>
<name>9958</name>
</trkpt>
<trkpt lat="41.789395" lon="-1.772048">
<ele>1087.0</ele>
<speed>26.3</speed>
<course>127.8</course>
<desc>Speed 26.3 km/h Distance 47.23 km</desc>
<time>2011-09-24T12:42:02.10</time>
<name>9959</name>
</trkpt>
<trkpt lat="41.789358" lon="-1.771985">
<ele>1086.5</ele>
<speed>24.4</speed>
<course>126.5</course>
<desc>Speed 24.4 km/h Distance 47.24 km</desc>
<time>2011-09-24T12:42:03.10</time>
<name>9960</name>
</trkpt>
<trkpt lat="41.789323" lon="-1.771922">
<ele>1087.0</ele>
<speed>23.5</speed>
<course>124.6</course>
<desc>Speed 23.5 km/h Distance 47.24 km</desc>
<time>2011-09-24T12:42:04.09</time>
<name>9961</name>
</trkpt>
<trkpt lat="41.789292" lon="-1.771860">
<ele>1086.0</ele>
<speed>23.4</speed>
<course>123.1</course>
<desc>Speed 23.4 km/h Distance 47.25 km</desc>
<time>2011-09-24T12:42:05.10</time>
<name>9962</name>
</trkpt>
<trkpt lat="41.789262" lon="-1.771798">
<ele>1085.5</ele>
<speed>22.8</speed>
<course>123.8</course>
<desc>Speed 22.8 km/h Distance 47.25 km</desc>
<time>2011-09-24T12:42:06.09</time>
<name>9963</name>
</trkpt>
<trkpt lat="41.789230" lon="-1.771735">
<ele>1084.5</ele>
<speed>23.4</speed>
<course>124.5</course>
<desc>Speed 23.4 km/h Distance 47.26 km</desc>
<time>2011-09-24T12:42:07.10</time>
<name>9964</name>
</trkpt>
<trkpt lat="41.789197" lon="-1.771670">
<ele>1084.5</ele>
<speed>24.0</speed>
<course>125.3</course>
<desc>Speed 24.0 km/h Distance 47.27 km</desc>
<time>2011-09-24T12:42:08.09</time>
<name>9965</name>
</trkpt>
<trkpt lat="41.789165" lon="-1.771610">
<ele>1083.5</ele>
<speed>23.1</speed>
<course>122.5</course>
<desc>Speed 23.1 km/h Distance 47.27 km</desc>
<time>2011-09-24T12:42:09.09</time>
<name>9966</name>
</trkpt>
<trkpt lat="41.789133" lon="-1.771543">
<ele>1082.5</ele>
<speed>24.1</speed>
<course>118.8</course>
<desc>Speed 24.1 km/h Distance 47.28 km</desc>
<time>2011-09-24T12:42:10.09</time>
<name>9967</name>
</trkpt>
<trkpt lat="41.789103" lon="-1.771470">
<ele>1082.5</ele>
<speed>25.2</speed>
<course>116.4</course>
<desc>Speed 25.2 km/h Distance 47.29 km</desc>
<time>2011-09-24T12:42:11.09</time>
<name>9968</name>
</trkpt>
<trkpt lat="41.789075" lon="-1.771393">
<ele>1082.5</ele>
<speed>25.2</speed>
<course>115.8</course>
<desc>Speed 25.2 km/h Distance 47.29 km</desc>
<time>2011-09-24T12:42:12.09</time>
<name>9969</name>
</trkpt>
<trkpt lat="41.789045" lon="-1.771310">
<ele>1082.5</ele>
<speed>27.8</speed>
<course>114.1</course>
<desc>Speed 27.8 km/h Distance 47.30 km</desc>
<time>2011-09-24T12:42:13.09</time>
<name>9970</name>
</trkpt>
<trkpt lat="41.789015" lon="-1.771220">
<ele>1082.5</ele>
<speed>29.4</speed>
<course>111.0</course>
<desc>Speed 29.4 km/h Distance 47.31 km</desc>
<time>2011-09-24T12:42:14.09</time>
<name>9971</name>
</trkpt>
<trkpt lat="41.788988" lon="-1.771127">
<ele>1082.5</ele>
<speed>30.3</speed>
<course>109.1</course>
<desc>Speed 30.3 km/h Distance 47.32 km</desc>
<time>2011-09-24T12:42:15.09</time>
<name>9972</name>
</trkpt>
<trkpt lat="41.788963" lon="-1.771030">
<ele>1082.5</ele>
<speed>30.8</speed>
<course>88.7</course>
<desc>Speed 30.8 km/h Distance 47.33 km</desc>
<time>2011-09-24T12:42:16.09</time>
<name>9973</name>
</trkpt>
<trkpt lat="41.788965" lon="-1.770930">
<ele>1081.5</ele>
<speed>30.3</speed>
<course>97.5</course>
<desc>Speed 30.3 km/h Distance 47.33 km</desc>
<time>2011-09-24T12:42:17.09</time>
<name>9974</name>
</trkpt>
<trkpt lat="41.788955" lon="-1.770828">
<ele>1081.0</ele>
<speed>30.9</speed>
<course>98.5</course>
<desc>Speed 30.9 km/h Distance 47.34 km</desc>
<time>2011-09-24T12:42:18.08</time>
<name>9975</name>
</trkpt>
<trkpt lat="41.788943" lon="-1.770723">
<ele>1080.0</ele>
<speed>32.0</speed>
<course>91.2</course>
<desc>Speed 32.0 km/h Distance 47.35 km</desc>
<time>2011-09-24T12:42:19.08</time>
<name>9976</name>
</trkpt>
<trkpt lat="41.788942" lon="-1.770615">
<ele>1078.5</ele>
<speed>33.0</speed>
<course>88.8</course>
<desc>Speed 33.0 km/h Distance 47.36 km</desc>
<time>2011-09-24T12:42:20.08</time>
<name>9977</name>
</trkpt>
<trkpt lat="41.788943" lon="-1.770505">
<ele>1077.5</ele>
<speed>34.0</speed>
<course>90.0</course>
<desc>Speed 34.0 km/h Distance 47.37 km</desc>
<time>2011-09-24T12:42:21.08</time>
<name>9978</name>
</trkpt>
<trkpt lat="41.788943" lon="-1.770390">
<ele>1076.5</ele>
<speed>34.6</speed>
<course>86.7</course>
<desc>Speed 34.6 km/h Distance 47.38 km</desc>
<time>2011-09-24T12:42:22.08</time>
<name>9979</name>
</trkpt>
<trkpt lat="41.788948" lon="-1.770273">
<ele>1076.0</ele>
<speed>35.2</speed>
<course>86.8</course>
<desc>Speed 35.2 km/h Distance 47.39 km</desc>
<time>2011-09-24T12:42:23.08</time>
<name>9980</name>
</trkpt>
<trkpt lat="41.788953" lon="-1.770155">
<ele>1075.5</ele>
<speed>35.6</speed>
<course>86.9</course>
<desc>Speed 35.6 km/h Distance 47.40 km</desc>
<time>2011-09-24T12:42:24.08</time>
<name>9981</name>
</trkpt>
<trkpt lat="41.788958" lon="-1.770030">
<ele>1075.5</ele>
<speed>37.4</speed>
<course>83.4</course>
<desc>Speed 37.4 km/h Distance 47.41 km</desc>
<time>2011-09-24T12:42:25.08</time>
<name>9982</name>
</trkpt>
<trkpt lat="41.788968" lon="-1.769913">
<ele>1075.0</ele>
<speed>35.6</speed>
<course>82.6</course>
<desc>Speed 35.6 km/h Distance 47.42 km</desc>
<time>2011-09-24T12:42:26.07</time>
<name>9983</name>
</trkpt>
<trkpt lat="41.788980" lon="-1.769793">
<ele>1074.0</ele>
<speed>36.2</speed>
<course>81.6</course>
<desc>Speed 36.2 km/h Distance 47.43 km</desc>
<time>2011-09-24T12:42:27.07</time>
<name>9984</name>
</trkpt>
<trkpt lat="41.788993" lon="-1.769672">
<ele>1074.0</ele>
<speed>37.2</speed>
<course>76.4</course>
<desc>Speed 37.2 km/h Distance 47.44 km</desc>
<time>2011-09-24T12:42:28.07</time>
<name>9985</name>
</trkpt>
<trkpt lat="41.789015" lon="-1.769552">
<ele>1073.5</ele>
<speed>37.5</speed>
<course>74.4</course>
<desc>Speed 37.5 km/h Distance 47.45 km</desc>
<time>2011-09-24T12:42:29.08</time>
<name>9986</name>
</trkpt>
<trkpt lat="41.789040" lon="-1.769432">
<ele>1073.0</ele>
<speed>37.3</speed>
<course>74.2</course>
<desc>Speed 37.3 km/h Distance 47.46 km</desc>
<time>2011-09-24T12:42:30.07</time>
<name>9987</name>
</trkpt>
<trkpt lat="41.789065" lon="-1.769313">
<ele>1072.0</ele>
<speed>37.3</speed>
<course>73.2</course>
<desc>Speed 37.3 km/h Distance 47.47 km</desc>
<time>2011-09-24T12:42:31.07</time>
<name>9988</name>
</trkpt>
<trkpt lat="41.789092" lon="-1.769195">
<ele>1071.0</ele>
<speed>37.5</speed>
<course>68.4</course>
<desc>Speed 37.5 km/h Distance 47.48 km</desc>
<time>2011-09-24T12:42:32.07</time>
<name>9989</name>
</trkpt>
<trkpt lat="41.789127" lon="-1.769077">
<ele>1070.5</ele>
<speed>38.1</speed>
<course>64.4</course>
<desc>Speed 38.1 km/h Distance 47.49 km</desc>
<time>2011-09-24T12:42:33.08</time>
<name>9990</name>
</trkpt>
<trkpt lat="41.789168" lon="-1.768960">
<ele>1069.5</ele>
<speed>38.8</speed>
<course>63.8</course>
<desc>Speed 38.8 km/h Distance 47.50 km</desc>
<time>2011-09-24T12:42:34.07</time>
<name>9991</name>
</trkpt>
<trkpt lat="41.789212" lon="-1.768842">
<ele>1068.5</ele>
<speed>39.7</speed>
<course>62.8</course>
<desc>Speed 39.7 km/h Distance 47.51 km</desc>
<time>2011-09-24T12:42:35.07</time>
<name>9992</name>
</trkpt>
<trkpt lat="41.789258" lon="-1.768720">
<ele>1068.0</ele>
<speed>40.9</speed>
<course>56.5</course>
<desc>Speed 40.9 km/h Distance 47.52 km</desc>
<time>2011-09-24T12:42:36.07</time>
<name>9993</name>
</trkpt>
<trkpt lat="41.789315" lon="-1.768605">
<ele>1067.0</ele>
<speed>41.3</speed>
<course>55.8</course>
<desc>Speed 41.3 km/h Distance 47.54 km</desc>
<time>2011-09-24T12:42:37.07</time>
<name>9994</name>
</trkpt>
<trkpt lat="41.789375" lon="-1.768487">
<ele>1066.5</ele>
<speed>42.3</speed>
<course>50.2</course>
<desc>Speed 42.3 km/h Distance 47.55 km</desc>
<time>2011-09-24T12:42:38.06</time>
<name>9995</name>
</trkpt>
<trkpt lat="41.789443" lon="-1.768377">
<ele>1066.0</ele>
<speed>43.0</speed>
<course>48.9</course>
<desc>Speed 43.0 km/h Distance 47.56 km</desc>
<time>2011-09-24T12:42:39.07</time>
<name>9996</name>
</trkpt>
<trkpt lat="41.789515" lon="-1.768267">
<ele>1065.0</ele>
<speed>43.3</speed>
<course>48.2</course>
<desc>Speed 43.3 km/h Distance 47.57 km</desc>
<time>2011-09-24T12:42:40.07</time>
<name>9997</name>
</trkpt>
<trkpt lat="41.789588" lon="-1.768157">
<ele>1065.0</ele>
<speed>44.4</speed>
<course>43.8</course>
<desc>Speed 44.4 km/h Distance 47.58 km</desc>
<time>2011-09-24T12:42:41.06</time>
<name>9998</name>
</trkpt>
<trkpt lat="41.789670" lon="-1.768052">
<ele>1062.5</ele>
<speed>45.4</speed>
<course>44.8</course>
<desc>Speed 45.4 km/h Distance 47.60 km</desc>
<time>2011-09-24T12:42:42.07</time>
<name>9999</name>
</trkpt>
<trkpt lat="41.789750" lon="-1.767945">
<ele>1061.5</ele>
<speed>45.4</speed>
<course>45.9</course>
<desc>Speed 45.4 km/h Distance 47.61 km</desc>
<time>2011-09-24T12:42:43.07</time>
<name>10000</name>
</trkpt>
<trkpt lat="41.789828" lon="-1.767837">
<ele>1060.5</ele>
<speed>45.5</speed>
<course>46.1</course>
<desc>Speed 45.5 km/h Distance 47.62 km</desc>
<time>2011-09-24T12:42:44.06</time>
<name>10001</name>
</trkpt>
<trkpt lat="41.789908" lon="-1.767725">
<ele>1060.0</ele>
<speed>46.3</speed>
<course>43.7</course>
<desc>Speed 46.3 km/h Distance 47.63 km</desc>
<time>2011-09-24T12:42:45.06</time>
<name>10002</name>
</trkpt>
<trkpt lat="41.789992" lon="-1.767618">
<ele>1060.0</ele>
<speed>46.5</speed>
<course>45.8</course>
<desc>Speed 46.5 km/h Distance 47.65 km</desc>
<time>2011-09-24T12:42:46.07</time>
<name>10003</name>
</trkpt>
<trkpt lat="41.790075" lon="-1.767503">
<ele>1060.0</ele>
<speed>48.1</speed>
<course>42.9</course>
<desc>Speed 48.1 km/h Distance 47.66 km</desc>
<time>2011-09-24T12:42:47.06</time>
<name>10004</name>
</trkpt>
<trkpt lat="41.790163" lon="-1.767393">
<ele>1059.0</ele>
<speed>47.8</speed>
<course>46.4</course>
<desc>Speed 47.8 km/h Distance 47.67 km</desc>
<time>2011-09-24T12:42:48.07</time>
<name>10005</name>
</trkpt>
<trkpt lat="41.790245" lon="-1.767278">
<ele>1059.0</ele>
<speed>47.8</speed>
<course>48.8</course>
<desc>Speed 47.8 km/h Distance 47.69 km</desc>
<time>2011-09-24T12:42:49.06</time>
<name>10006</name>
</trkpt>
<trkpt lat="41.790323" lon="-1.767158">
<ele>1059.0</ele>
<speed>47.7</speed>
<course>50.4</course>
<desc>Speed 47.7 km/h Distance 47.70 km</desc>
<time>2011-09-24T12:42:50.06</time>
<name>10007</name>
</trkpt>
<trkpt lat="41.790398" lon="-1.767037">
<ele>1058.5</ele>
<speed>47.6</speed>
<course>47.2</course>
<desc>Speed 47.6 km/h Distance 47.71 km</desc>
<time>2011-09-24T12:42:51.06</time>
<name>10008</name>
</trkpt>
<trkpt lat="41.790480" lon="-1.766918">
<ele>1057.5</ele>
<speed>48.3</speed>
<course>47.4</course>
<desc>Speed 48.3 km/h Distance 47.73 km</desc>
<time>2011-09-24T12:42:52.05</time>
<name>10009</name>
</trkpt>
<trkpt lat="41.790563" lon="-1.766797">
<ele>1057.0</ele>
<speed>49.1</speed>
<course>46.9</course>
<desc>Speed 49.1 km/h Distance 47.74 km</desc>
<time>2011-09-24T12:42:53.05</time>
<name>10010</name>
</trkpt>
<trkpt lat="41.790648" lon="-1.766675">
<ele>1056.0</ele>
<speed>50.0</speed>
<course>46.3</course>
<desc>Speed 50.0 km/h Distance 47.75 km</desc>
<time>2011-09-24T12:42:54.06</time>
<name>10011</name>
</trkpt>
<trkpt lat="41.790735" lon="-1.766553">
<ele>1055.0</ele>
<speed>50.2</speed>
<course>45.5</course>
<desc>Speed 50.2 km/h Distance 47.77 km</desc>
<time>2011-09-24T12:42:55.06</time>
<name>10012</name>
</trkpt>
<trkpt lat="41.790822" lon="-1.766435">
<ele>1054.5</ele>
<speed>49.8</speed>
<course>45.5</course>
<desc>Speed 49.8 km/h Distance 47.78 km</desc>
<time>2011-09-24T12:42:56.05</time>
<name>10013</name>
</trkpt>
<trkpt lat="41.790908" lon="-1.766317">
<ele>1054.0</ele>
<speed>49.7</speed>
<course>44.7</course>
<desc>Speed 49.7 km/h Distance 47.80 km</desc>
<time>2011-09-24T12:42:57.06</time>
<name>10014</name>
</trkpt>
<trkpt lat="41.790995" lon="-1.766202">
<ele>1053.0</ele>
<speed>49.2</speed>
<course>45.8</course>
<desc>Speed 49.2 km/h Distance 47.81 km</desc>
<time>2011-09-24T12:42:58.05</time>
<name>10015</name>
</trkpt>
<trkpt lat="41.791078" lon="-1.766087">
<ele>1052.5</ele>
<speed>48.4</speed>
<course>46.8</course>
<desc>Speed 48.4 km/h Distance 47.82 km</desc>
<time>2011-09-24T12:42:59.05</time>
<name>10016</name>
</trkpt>
<trkpt lat="41.791160" lon="-1.765970">
<ele>1052.5</ele>
<speed>47.5</speed>
<course>47.0</course>
<desc>Speed 47.5 km/h Distance 47.84 km</desc>
<time>2011-09-24T12:43:00.05</time>
<name>10017</name>
</trkpt>
<trkpt lat="41.791240" lon="-1.765855">
<ele>1052.5</ele>
<speed>47.1</speed>
<course>46.7</course>
<desc>Speed 47.1 km/h Distance 47.85 km</desc>
<time>2011-09-24T12:43:01.06</time>
<name>10018</name>
</trkpt>
<trkpt lat="41.791318" lon="-1.765743">
<ele>1051.5</ele>
<speed>46.4</speed>
<course>46.7</course>
<desc>Speed 46.4 km/h Distance 47.86 km</desc>
<time>2011-09-24T12:43:02.05</time>
<name>10019</name>
</trkpt>
<trkpt lat="41.791397" lon="-1.765632">
<ele>1051.0</ele>
<speed>45.8</speed>
<course>46.9</course>
<desc>Speed 45.8 km/h Distance 47.87 km</desc>
<time>2011-09-24T12:43:03.05</time>
<name>10020</name>
</trkpt>
<trkpt lat="41.791473" lon="-1.765522">
<ele>1050.5</ele>
<speed>45.2</speed>
<course>47.6</course>
<desc>Speed 45.2 km/h Distance 47.89 km</desc>
<time>2011-09-24T12:43:04.05</time>
<name>10021</name>
</trkpt>
<trkpt lat="41.791548" lon="-1.765412">
<ele>1050.5</ele>
<speed>44.7</speed>
<course>46.0</course>
<desc>Speed 44.7 km/h Distance 47.90 km</desc>
<time>2011-09-24T12:43:05.05</time>
<name>10022</name>
</trkpt>
<trkpt lat="41.791625" lon="-1.765305">
<ele>1049.5</ele>
<speed>44.3</speed>
<course>45.0</course>
<desc>Speed 44.3 km/h Distance 47.91 km</desc>
<time>2011-09-24T12:43:06.06</time>
<name>10023</name>
</trkpt>
<trkpt lat="41.791703" lon="-1.765200">
<ele>1049.0</ele>
<speed>44.4</speed>
<course>46.0</course>
<desc>Speed 44.4 km/h Distance 47.92 km</desc>
<time>2011-09-24T12:43:07.05</time>
<name>10024</name>
</trkpt>
<trkpt lat="41.791780" lon="-1.765093">
<ele>1048.5</ele>
<speed>44.4</speed>
<course>46.5</course>
<desc>Speed 44.4 km/h Distance 47.94 km</desc>
<time>2011-09-24T12:43:08.05</time>
<name>10025</name>
</trkpt>
<trkpt lat="41.791857" lon="-1.764985">
<ele>1047.5</ele>
<speed>44.8</speed>
<course>46.5</course>
<desc>Speed 44.8 km/h Distance 47.95 km</desc>
<time>2011-09-24T12:43:09.05</time>
<name>10026</name>
</trkpt>
<trkpt lat="41.791933" lon="-1.764877">
<ele>1046.5</ele>
<speed>44.7</speed>
<course>45.9</course>
<desc>Speed 44.7 km/h Distance 47.96 km</desc>
<time>2011-09-24T12:43:10.04</time>
<name>10027</name>
</trkpt>
<trkpt lat="41.792012" lon="-1.764768">
<ele>1045.5</ele>
<speed>45.0</speed>
<course>45.4</course>
<desc>Speed 45.0 km/h Distance 47.97 km</desc>
<time>2011-09-24T12:43:11.04</time>
<name>10028</name>
</trkpt>
<trkpt lat="41.792090" lon="-1.764662">
<ele>1044.5</ele>
<speed>45.0</speed>
<course>46.3</course>
<desc>Speed 45.0 km/h Distance 47.99 km</desc>
<time>2011-09-24T12:43:12.05</time>
<name>10029</name>
</trkpt>
<trkpt lat="41.792168" lon="-1.764552">
<ele>1044.0</ele>
<speed>45.3</speed>
<course>46.5</course>
<desc>Speed 45.3 km/h Distance 48.00 km</desc>
<time>2011-09-24T12:43:13.05</time>
<name>10030</name>
</trkpt>
<trkpt lat="41.792245" lon="-1.764443">
<ele>1043.0</ele>
<speed>45.2</speed>
<course>46.9</course>
<desc>Speed 45.2 km/h Distance 48.01 km</desc>
<time>2011-09-24T12:43:14.04</time>
<name>10031</name>
</trkpt>
<trkpt lat="41.792322" lon="-1.764333">
<ele>1042.0</ele>
<speed>44.9</speed>
<course>46.5</course>
<desc>Speed 44.9 km/h Distance 48.02 km</desc>
<time>2011-09-24T12:43:15.04</time>
<name>10032</name>
</trkpt>
<trkpt lat="41.792398" lon="-1.764225">
<ele>1041.5</ele>
<speed>44.4</speed>
<course>46.2</course>
<desc>Speed 44.4 km/h Distance 48.04 km</desc>
<time>2011-09-24T12:43:16.04</time>
<name>10033</name>
</trkpt>
<trkpt lat="41.792473" lon="-1.764120">
<ele>1041.0</ele>
<speed>43.5</speed>
<course>47.5</course>
<desc>Speed 43.5 km/h Distance 48.05 km</desc>
<time>2011-09-24T12:43:17.04</time>
<name>10034</name>
</trkpt>
<trkpt lat="41.792545" lon="-1.764015">
<ele>1040.5</ele>
<speed>42.8</speed>
<course>50.5</course>
<desc>Speed 42.8 km/h Distance 48.06 km</desc>
<time>2011-09-24T12:43:18.04</time>
<name>10035</name>
</trkpt>
<trkpt lat="41.792612" lon="-1.763907">
<ele>1040.0</ele>
<speed>42.0</speed>
<course>68.4</course>
<desc>Speed 42.0 km/h Distance 48.07 km</desc>
<time>2011-09-24T12:43:19.04</time>
<name>10036</name>
</trkpt>
<trkpt lat="41.792647" lon="-1.763788">
<ele>1040.5</ele>
<speed>37.7</speed>
<course>77.9</course>
<desc>Speed 37.7 km/h Distance 48.08 km</desc>
<time>2011-09-24T12:43:20.05</time>
<name>10037</name>
</trkpt>
<trkpt lat="41.792667" lon="-1.763663">
<ele>1041.0</ele>
<speed>38.4</speed>
<course>82.0</course>
<desc>Speed 38.4 km/h Distance 48.09 km</desc>
<time>2011-09-24T12:43:21.04</time>
<name>10038</name>
</trkpt>
<trkpt lat="41.792680" lon="-1.763537">
<ele>1041.0</ele>
<speed>38.3</speed>
<course>101.3</course>
<desc>Speed 38.3 km/h Distance 48.10 km</desc>
<time>2011-09-24T12:43:22.04</time>
<name>10039</name>
</trkpt>
<trkpt lat="41.792662" lon="-1.763413">
<ele>1041.5</ele>
<speed>37.7</speed>
<course>116.2</course>
<desc>Speed 37.7 km/h Distance 48.11 km</desc>
<time>2011-09-24T12:43:23.04</time>
<name>10040</name>
</trkpt>
<trkpt lat="41.792620" lon="-1.763300">
<ele>1042.0</ele>
<speed>37.9</speed>
<course>119.2</course>
<desc>Speed 37.9 km/h Distance 48.12 km</desc>
<time>2011-09-24T12:43:24.03</time>
<name>10041</name>
</trkpt>
<trkpt lat="41.792578" lon="-1.763200">
<ele>1041.5</ele>
<speed>34.5</speed>
<course>127.6</course>
<desc>Speed 34.5 km/h Distance 48.13 km</desc>
<time>2011-09-24T12:43:25.04</time>
<name>10042</name>
</trkpt>
<trkpt lat="41.792527" lon="-1.763110">
<ele>1041.5</ele>
<speed>34.1</speed>
<course>137.8</course>
<desc>Speed 34.1 km/h Distance 48.14 km</desc>
<time>2011-09-24T12:43:26.03</time>
<name>10043</name>
</trkpt>
<trkpt lat="41.792465" lon="-1.763035">
<ele>1041.5</ele>
<speed>33.5</speed>
<course>147.3</course>
<desc>Speed 33.5 km/h Distance 48.15 km</desc>
<time>2011-09-24T12:43:27.03</time>
<name>10044</name>
</trkpt>
<trkpt lat="41.792393" lon="-1.762973">
<ele>1041.0</ele>
<speed>34.3</speed>
<course>147.9</course>
<desc>Speed 34.3 km/h Distance 48.16 km</desc>
<time>2011-09-24T12:43:28.03</time>
<name>10045</name>
</trkpt>
<trkpt lat="41.792320" lon="-1.762912">
<ele>1040.5</ele>
<speed>35.5</speed>
<course>147.1</course>
<desc>Speed 35.5 km/h Distance 48.17 km</desc>
<time>2011-09-24T12:43:29.03</time>
<name>10046</name>
</trkpt>
<trkpt lat="41.792245" lon="-1.762847">
<ele>1040.0</ele>
<speed>35.9</speed>
<course>147.7</course>
<desc>Speed 35.9 km/h Distance 48.18 km</desc>
<time>2011-09-24T12:43:30.03</time>
<name>10047</name>
</trkpt>
<trkpt lat="41.792168" lon="-1.762782">
<ele>1039.5</ele>
<speed>36.8</speed>
<course>148.3</course>
<desc>Speed 36.8 km/h Distance 48.19 km</desc>
<time>2011-09-24T12:43:31.03</time>
<name>10048</name>
</trkpt>
<trkpt lat="41.792090" lon="-1.762717">
<ele>1039.0</ele>
<speed>37.7</speed>
<course>149.8</course>
<desc>Speed 37.7 km/h Distance 48.20 km</desc>
<time>2011-09-24T12:43:32.03</time>
<name>10049</name>
</trkpt>
<trkpt lat="41.792007" lon="-1.762652">
<ele>1038.0</ele>
<speed>38.8</speed>
<course>150.3</course>
<desc>Speed 38.8 km/h Distance 48.21 km</desc>
<time>2011-09-24T12:43:33.03</time>
<name>10050</name>
</trkpt>
<trkpt lat="41.791922" lon="-1.762587">
<ele>1037.5</ele>
<speed>39.8</speed>
<course>149.1</course>
<desc>Speed 39.8 km/h Distance 48.22 km</desc>
<time>2011-09-24T12:43:34.02</time>
<name>10051</name>
</trkpt>
<trkpt lat="41.791837" lon="-1.762518">
<ele>1037.0</ele>
<speed>40.5</speed>
<course>148.3</course>
<desc>Speed 40.5 km/h Distance 48.23 km</desc>
<time>2011-09-24T12:43:35.02</time>
<name>10052</name>
</trkpt>
<trkpt lat="41.791750" lon="-1.762447">
<ele>1036.5</ele>
<speed>41.0</speed>
<course>147.2</course>
<desc>Speed 41.0 km/h Distance 48.25 km</desc>
<time>2011-09-24T12:43:36.03</time>
<name>10053</name>
</trkpt>
<trkpt lat="41.791663" lon="-1.762372">
<ele>1036.0</ele>
<speed>41.8</speed>
<course>147.7</course>
<desc>Speed 41.8 km/h Distance 48.26 km</desc>
<time>2011-09-24T12:43:37.02</time>
<name>10054</name>
</trkpt>
<trkpt lat="41.791575" lon="-1.762297">
<ele>1035.5</ele>
<speed>41.9</speed>
<course>147.2</course>
<desc>Speed 41.9 km/h Distance 48.27 km</desc>
<time>2011-09-24T12:43:38.03</time>
<name>10055</name>
</trkpt>
<trkpt lat="41.791488" lon="-1.762222">
<ele>1035.0</ele>
<speed>41.8</speed>
<course>148.2</course>
<desc>Speed 41.8 km/h Distance 48.28 km</desc>
<time>2011-09-24T12:43:39.02</time>
<name>10056</name>
</trkpt>
<trkpt lat="41.791400" lon="-1.762148">
<ele>1035.0</ele>
<speed>41.9</speed>
<course>148.8</course>
<desc>Speed 41.9 km/h Distance 48.29 km</desc>
<time>2011-09-24T12:43:40.02</time>
<name>10057</name>
</trkpt>
<trkpt lat="41.791312" lon="-1.762077">
<ele>1034.5</ele>
<speed>41.7</speed>
<course>148.3</course>
<desc>Speed 41.7 km/h Distance 48.30 km</desc>
<time>2011-09-24T12:43:41.02</time>
<name>10058</name>
</trkpt>
<trkpt lat="41.791225" lon="-1.762005">
<ele>1034.5</ele>
<speed>41.4</speed>
<course>142.7</course>
<desc>Speed 41.4 km/h Distance 48.31 km</desc>
<time>2011-09-24T12:43:42.02</time>
<name>10059</name>
</trkpt>
<trkpt lat="41.791143" lon="-1.761922">
<ele>1034.5</ele>
<speed>41.1</speed>
<course>136.0</course>
<desc>Speed 41.1 km/h Distance 48.33 km</desc>
<time>2011-09-24T12:43:43.02</time>
<name>10060</name>
</trkpt>
<trkpt lat="41.791070" lon="-1.761827">
<ele>1034.5</ele>
<speed>41.2</speed>
<course>128.2</course>
<desc>Speed 41.2 km/h Distance 48.34 km</desc>
<time>2011-09-24T12:43:44.02</time>
<name>10061</name>
</trkpt>
<trkpt lat="41.791008" lon="-1.761722">
<ele>1034.0</ele>
<speed>40.4</speed>
<course>123.8</course>
<desc>Speed 40.4 km/h Distance 48.35 km</desc>
<time>2011-09-24T12:43:45.02</time>
<name>10062</name>
</trkpt>
<trkpt lat="41.790952" lon="-1.761608">
<ele>1033.5</ele>
<speed>41.2</speed>
<course>118.0</course>
<desc>Speed 41.2 km/h Distance 48.36 km</desc>
<time>2011-09-24T12:43:46.02</time>
<name>10063</name>
</trkpt>
<trkpt lat="41.790903" lon="-1.761487">
<ele>1033.0</ele>
<speed>41.7</speed>
<course>114.1</course>
<desc>Speed 41.7 km/h Distance 48.37 km</desc>
<time>2011-09-24T12:43:47.01</time>
<name>10064</name>
</trkpt>
<trkpt lat="41.790860" lon="-1.761357">
<ele>1032.5</ele>
<speed>42.7</speed>
<course>111.9</course>
<desc>Speed 42.7 km/h Distance 48.38 km</desc>
<time>2011-09-24T12:43:48.02</time>
<name>10065</name>
</trkpt>
<trkpt lat="41.790820" lon="-1.761223">
<ele>1032.0</ele>
<speed>43.1</speed>
<course>109.8</course>
<desc>Speed 43.1 km/h Distance 48.40 km</desc>
<time>2011-09-24T12:43:49.02</time>
<name>10066</name>
</trkpt>
<trkpt lat="41.790783" lon="-1.761087">
<ele>1031.0</ele>
<speed>43.7</speed>
<course>110.4</course>
<desc>Speed 43.7 km/h Distance 48.41 km</desc>
<time>2011-09-24T12:43:50.02</time>
<name>10067</name>
</trkpt>
<trkpt lat="41.790745" lon="-1.760948">
<ele>1031.0</ele>
<speed>44.4</speed>
<course>110.4</course>
<desc>Speed 44.4 km/h Distance 48.42 km</desc>
<time>2011-09-24T12:43:51.01</time>
<name>10068</name>
</trkpt>
<trkpt lat="41.790707" lon="-1.760810">
<ele>1030.5</ele>
<speed>44.4</speed>
<course>111.0</course>
<desc>Speed 44.4 km/h Distance 48.43 km</desc>
<time>2011-09-24T12:43:52.01</time>
<name>10069</name>
</trkpt>
<trkpt lat="41.790667" lon="-1.760670">
<ele>1030.0</ele>
<speed>44.6</speed>
<course>110.4</course>
<desc>Speed 44.6 km/h Distance 48.44 km</desc>
<time>2011-09-24T12:43:53.02</time>
<name>10070</name>
</trkpt>
<trkpt lat="41.790628" lon="-1.760532">
<ele>1029.5</ele>
<speed>44.3</speed>
<course>107.1</course>
<desc>Speed 44.3 km/h Distance 48.46 km</desc>
<time>2011-09-24T12:43:54.01</time>
<name>10071</name>
</trkpt>
<trkpt lat="41.790597" lon="-1.760393">
<ele>1028.5</ele>
<speed>43.5</speed>
<course>102.3</course>
<desc>Speed 43.5 km/h Distance 48.47 km</desc>
<time>2011-09-24T12:43:55.01</time>
<name>10072</name>
</trkpt>
<trkpt lat="41.790573" lon="-1.760250">
<ele>1028.5</ele>
<speed>43.9</speed>
<course>98.1</course>
<desc>Speed 43.9 km/h Distance 48.48 km</desc>
<time>2011-09-24T12:43:56.01</time>
<name>10073</name>
</trkpt>
<trkpt lat="41.790558" lon="-1.760108">
<ele>1028.0</ele>
<speed>43.1</speed>
<course>82.9</course>
<desc>Speed 43.1 km/h Distance 48.49 km</desc>
<time>2011-09-24T12:43:57.01</time>
<name>10074</name>
</trkpt>
<trkpt lat="41.790572" lon="-1.759965">
<ele>1026.5</ele>
<speed>43.0</speed>
<course>83.7</course>
<desc>Speed 43.0 km/h Distance 48.50 km</desc>
<time>2011-09-24T12:43:58.01</time>
<name>10075</name>
</trkpt>
<trkpt lat="41.790583" lon="-1.759823">
<ele>1026.0</ele>
<speed>42.7</speed>
<course>80.9</course>
<desc>Speed 42.7 km/h Distance 48.52 km</desc>
<time>2011-09-24T12:43:59.01</time>
<name>10076</name>
</trkpt>
<trkpt lat="41.790600" lon="-1.759683">
<ele>1026.0</ele>
<speed>42.6</speed>
<course>82.7</course>
<desc>Speed 42.6 km/h Distance 48.53 km</desc>
<time>2011-09-24T12:44:00.01</time>
<name>10077</name>
</trkpt>
<trkpt lat="41.790613" lon="-1.759543">
<ele>1025.5</ele>
<speed>42.1</speed>
<course>80.8</course>
<desc>Speed 42.1 km/h Distance 48.54 km</desc>
<time>2011-09-24T12:44:01.01</time>
<name>10078</name>
</trkpt>
<trkpt lat="41.790630" lon="-1.759405">
<ele>1024.5</ele>
<speed>42.0</speed>
<course>68.5</course>
<desc>Speed 42.0 km/h Distance 48.55 km</desc>
<time>2011-09-24T12:44:02.01</time>
<name>10079</name>
</trkpt>
<trkpt lat="41.790672" lon="-1.759263">
<ele>1026.5</ele>
<speed>45.5</speed>
<course>59.3</course>
<desc>Speed 45.5 km/h Distance 48.56 km</desc>
<time>2011-09-24T12:44:03.00</time>
<name>10080</name>
</trkpt>
<trkpt lat="41.790730" lon="-1.759132">
<ele>1026.0</ele>
<speed>46.2</speed>
<course>57.6</course>
<desc>Speed 46.2 km/h Distance 48.58 km</desc>
<time>2011-09-24T12:44:04.01</time>
<name>10081</name>
</trkpt>
<trkpt lat="41.790788" lon="-1.759008">
<ele>1026.0</ele>
<speed>43.5</speed>
<course>54.7</course>
<desc>Speed 43.5 km/h Distance 48.59 km</desc>
<time>2011-09-24T12:44:05.00</time>
<name>10082</name>
</trkpt>
<trkpt lat="41.790852" lon="-1.758888">
<ele>1026.0</ele>
<speed>43.9</speed>
<course>56.9</course>
<desc>Speed 43.9 km/h Distance 48.60 km</desc>
<time>2011-09-24T12:44:06.00</time>
<name>10083</name>
</trkpt>
<trkpt lat="41.790912" lon="-1.758765">
<ele>1026.0</ele>
<speed>44.0</speed>
<course>59.5</course>
<desc>Speed 44.0 km/h Distance 48.61 km</desc>
<time>2011-09-24T12:44:07.00</time>
<name>10084</name>
</trkpt>
<trkpt lat="41.790967" lon="-1.758640">
<ele>1026.0</ele>
<speed>43.8</speed>
<course>74.1</course>
<desc>Speed 43.8 km/h Distance 48.63 km</desc>
<time>2011-09-24T12:44:08.00</time>
<name>10085</name>
</trkpt>
<trkpt lat="41.790995" lon="-1.758507">
<ele>1026.0</ele>
<speed>41.4</speed>
<course>84.5</course>
<desc>Speed 41.4 km/h Distance 48.64 km</desc>
<time>2011-09-24T12:44:09.00</time>
<name>10086</name>
</trkpt>
<trkpt lat="41.791005" lon="-1.758367">
<ele>1026.0</ele>
<speed>42.3</speed>
<course>82.4</course>
<desc>Speed 42.3 km/h Distance 48.65 km</desc>
<time>2011-09-24T12:44:10.00</time>
<name>10087</name>
</trkpt>
<trkpt lat="41.791020" lon="-1.758215">
<ele>1026.0</ele>
<speed>45.4</speed>
<course>86.6</course>
<desc>Speed 45.4 km/h Distance 48.66 km</desc>
<time>2011-09-24T12:44:10.99</time>
<name>10088</name>
</trkpt>
<trkpt lat="41.791027" lon="-1.758063">
<ele>1025.5</ele>
<speed>45.9</speed>
<course>90.8</course>
<desc>Speed 45.9 km/h Distance 48.67 km</desc>
<time>2011-09-24T12:44:12.00</time>
<name>10089</name>
</trkpt>
<trkpt lat="41.791025" lon="-1.757908">
<ele>1025.5</ele>
<speed>46.4</speed>
<course>91.7</course>
<desc>Speed 46.4 km/h Distance 48.69 km</desc>
<time>2011-09-24T12:44:13.00</time>
<name>10090</name>
</trkpt>
<trkpt lat="41.791022" lon="-1.757757">
<ele>1024.5</ele>
<speed>45.2</speed>
<course>92.6</course>
<desc>Speed 45.2 km/h Distance 48.70 km</desc>
<time>2011-09-24T12:44:14.00</time>
<name>10091</name>
</trkpt>
<trkpt lat="41.791017" lon="-1.757607">
<ele>1023.5</ele>
<speed>45.5</speed>
<course>102.6</course>
<desc>Speed 45.5 km/h Distance 48.71 km</desc>
<time>2011-09-24T12:44:14.99</time>
<name>10092</name>
</trkpt>
<trkpt lat="41.790992" lon="-1.757457">
<ele>1023.5</ele>
<speed>45.7</speed>
<course>89.2</course>
<desc>Speed 45.7 km/h Distance 48.72 km</desc>
<time>2011-09-24T12:44:16.00</time>
<name>10093</name>
</trkpt>
<trkpt lat="41.790993" lon="-1.757303">
<ele>1023.5</ele>
<speed>46.1</speed>
<course>89.2</course>
<desc>Speed 46.1 km/h Distance 48.74 km</desc>
<time>2011-09-24T12:44:17.00</time>
<name>10094</name>
</trkpt>
<trkpt lat="41.790995" lon="-1.757152">
<ele>1023.5</ele>
<speed>45.4</speed>
<course>93.4</course>
<desc>Speed 45.4 km/h Distance 48.75 km</desc>
<time>2011-09-24T12:44:18.00</time>
<name>10095</name>
</trkpt>
<trkpt lat="41.790988" lon="-1.757003">
<ele>1023.0</ele>
<speed>44.5</speed>
<course>91.7</course>
<desc>Speed 44.5 km/h Distance 48.76 km</desc>
<time>2011-09-24T12:44:18.99</time>
<name>10096</name>
</trkpt>
<trkpt lat="41.790985" lon="-1.756857">
<ele>1023.0</ele>
<speed>44.3</speed>
<course>91.7</course>
<desc>Speed 44.3 km/h Distance 48.77 km</desc>
<time>2011-09-24T12:44:20.00</time>
<name>10097</name>
</trkpt>
<trkpt lat="41.790982" lon="-1.756710">
<ele>1023.0</ele>
<speed>44.2</speed>
<course>91.8</course>
<desc>Speed 44.2 km/h Distance 48.79 km</desc>
<time>2011-09-24T12:44:21.00</time>
<name>10098</name>
</trkpt>
<trkpt lat="41.790978" lon="-1.756565">
<ele>1022.5</ele>
<speed>43.3</speed>
<course>90.9</course>
<desc>Speed 43.3 km/h Distance 48.80 km</desc>
<time>2011-09-24T12:44:22.00</time>
<name>10099</name>
</trkpt>
<trkpt lat="41.790977" lon="-1.756427">
<ele>1022.0</ele>
<speed>41.4</speed>
<course>86.3</course>
<desc>Speed 41.4 km/h Distance 48.81 km</desc>
<time>2011-09-24T12:44:22.99</time>
<name>10100</name>
</trkpt>
<trkpt lat="41.790983" lon="-1.756288">
<ele>1022.0</ele>
<speed>41.8</speed>
<course>68.4</course>
<desc>Speed 41.8 km/h Distance 48.82 km</desc>
<time>2011-09-24T12:44:23.99</time>
<name>10101</name>
</trkpt>
<trkpt lat="41.791022" lon="-1.756158">
<ele>1021.5</ele>
<speed>41.7</speed>
<course>49.3</course>
<desc>Speed 41.7 km/h Distance 48.83 km</desc>
<time>2011-09-24T12:44:24.99</time>
<name>10102</name>
</trkpt>
<trkpt lat="41.791078" lon="-1.756070">
<ele>1021.5</ele>
<speed>35.0</speed>
<course>28.9</course>
<desc>Speed 35.0 km/h Distance 48.84 km</desc>
<time>2011-09-24T12:44:25.98</time>
<name>10103</name>
</trkpt>
<trkpt lat="41.791162" lon="-1.756008">
<ele>1021.5</ele>
<speed>37.7</speed>
<course>13.7</course>
<desc>Speed 37.7 km/h Distance 48.85 km</desc>
<time>2011-09-24T12:44:26.99</time>
<name>10104</name>
</trkpt>
<trkpt lat="41.791258" lon="-1.755977">
<ele>1021.0</ele>
<speed>39.9</speed>
<course>0.4</course>
<desc>Speed 39.9 km/h Distance 48.86 km</desc>
<time>2011-09-24T12:44:27.98</time>
<name>10105</name>
</trkpt>
<trkpt lat="41.791347" lon="-1.755977">
<ele>1021.0</ele>
<speed>35.4</speed>
<course>0.8</course>
<desc>Speed 35.4 km/h Distance 48.87 km</desc>
<time>2011-09-24T12:44:28.98</time>
<name>10106</name>
</trkpt>
<trkpt lat="41.791438" lon="-1.755975">
<ele>1021.0</ele>
<speed>36.3</speed>
<course>355.3</course>
<desc>Speed 36.3 km/h Distance 48.88 km</desc>
<time>2011-09-24T12:44:29.98</time>
<name>10107</name>
</trkpt>
<trkpt lat="41.791530" lon="-1.755985">
<ele>1021.0</ele>
<speed>36.2</speed>
<course>354.5</course>
<desc>Speed 36.2 km/h Distance 48.89 km</desc>
<time>2011-09-24T12:44:30.99</time>
<name>10108</name>
</trkpt>
<trkpt lat="41.791620" lon="-1.755997">
<ele>1021.0</ele>
<speed>36.4</speed>
<course>353.8</course>
<desc>Speed 36.4 km/h Distance 48.90 km</desc>
<time>2011-09-24T12:44:31.98</time>
<name>10109</name>
</trkpt>
<trkpt lat="41.791712" lon="-1.756010">
<ele>1020.5</ele>
<speed>36.5</speed>
<course>352.1</course>
<desc>Speed 36.5 km/h Distance 48.91 km</desc>
<time>2011-09-24T12:44:32.98</time>
<name>10110</name>
</trkpt>
<trkpt lat="41.791802" lon="-1.756027">
<ele>1020.5</ele>
<speed>36.0</speed>
<course>356.8</course>
<desc>Speed 36.0 km/h Distance 48.93 km</desc>
<time>2011-09-24T12:44:33.97</time>
<name>10111</name>
</trkpt>
<trkpt lat="41.791890" lon="-1.756033">
<ele>1020.5</ele>
<speed>35.5</speed>
<course>4.8</course>
<desc>Speed 35.5 km/h Distance 48.93 km</desc>
<time>2011-09-24T12:44:34.98</time>
<name>10112</name>
</trkpt>
<trkpt lat="41.791978" lon="-1.756023">
<ele>1020.5</ele>
<speed>35.2</speed>
<course>10.2</course>
<desc>Speed 35.2 km/h Distance 48.94 km</desc>
<time>2011-09-24T12:44:35.97</time>
<name>10113</name>
</trkpt>
<trkpt lat="41.792068" lon="-1.756002">
<ele>1020.5</ele>
<speed>36.0</speed>
<course>14.2</course>
<desc>Speed 36.0 km/h Distance 48.95 km</desc>
<time>2011-09-24T12:44:36.97</time>
<name>10114</name>
</trkpt>
<trkpt lat="41.792157" lon="-1.755972">
<ele>1020.0</ele>
<speed>36.5</speed>
<course>36.7</course>
<desc>Speed 36.5 km/h Distance 48.97 km</desc>
<time>2011-09-24T12:44:37.97</time>
<name>10115</name>
</trkpt>
<trkpt lat="41.792220" lon="-1.755908">
<ele>1020.0</ele>
<speed>31.4</speed>
<course>34.2</course>
<desc>Speed 31.4 km/h Distance 48.97 km</desc>
<time>2011-09-24T12:44:38.98</time>
<name>10116</name>
</trkpt>
<trkpt lat="41.792295" lon="-1.755840">
<ele>1020.0</ele>
<speed>36.2</speed>
<course>41.0</course>
<desc>Speed 36.2 km/h Distance 48.98 km</desc>
<time>2011-09-24T12:44:39.97</time>
<name>10117</name>
</trkpt>
<trkpt lat="41.792365" lon="-1.755758">
<ele>1019.5</ele>
<speed>37.0</speed>
<course>65.9</course>
<desc>Speed 37.0 km/h Distance 48.99 km</desc>
<time>2011-09-24T12:44:40.97</time>
<name>10118</name>
</trkpt>
<trkpt lat="41.792405" lon="-1.755638">
<ele>1019.5</ele>
<speed>39.2</speed>
<course>64.4</course>
<desc>Speed 39.2 km/h Distance 49.01 km</desc>
<time>2011-09-24T12:44:41.97</time>
<name>10119</name>
</trkpt>
<trkpt lat="41.792447" lon="-1.755522">
<ele>1019.5</ele>
<speed>39.0</speed>
<course>65.0</course>
<desc>Speed 39.0 km/h Distance 49.02 km</desc>
<time>2011-09-24T12:44:42.97</time>
<name>10120</name>
</trkpt>
<trkpt lat="41.792488" lon="-1.755402">
<ele>1019.5</ele>
<speed>39.2</speed>
<course>65.9</course>
<desc>Speed 39.2 km/h Distance 49.03 km</desc>
<time>2011-09-24T12:44:43.97</time>
<name>10121</name>
</trkpt>
<trkpt lat="41.792528" lon="-1.755282">
<ele>1019.0</ele>
<speed>39.8</speed>
<course>63.6</course>
<desc>Speed 39.8 km/h Distance 49.04 km</desc>
<time>2011-09-24T12:44:44.97</time>
<name>10122</name>
</trkpt>
<trkpt lat="41.792573" lon="-1.755160">
<ele>1019.0</ele>
<speed>40.2</speed>
<course>63.6</course>
<desc>Speed 40.2 km/h Distance 49.05 km</desc>
<time>2011-09-24T12:44:45.97</time>
<name>10123</name>
</trkpt>
<trkpt lat="41.792618" lon="-1.755038">
<ele>1019.0</ele>
<speed>40.7</speed>
<course>62.0</course>
<desc>Speed 40.7 km/h Distance 49.06 km</desc>
<time>2011-09-24T12:44:46.97</time>
<name>10124</name>
</trkpt>
<trkpt lat="41.792667" lon="-1.754917">
<ele>1018.5</ele>
<speed>41.3</speed>
<course>55.4</course>
<desc>Speed 41.3 km/h Distance 49.07 km</desc>
<time>2011-09-24T12:44:47.97</time>
<name>10125</name>
</trkpt>
<trkpt lat="41.792727" lon="-1.754800">
<ele>1018.5</ele>
<speed>42.0</speed>
<course>54.0</course>
<desc>Speed 42.0 km/h Distance 49.08 km</desc>
<time>2011-09-24T12:44:48.96</time>
<name>10126</name>
</trkpt>
<trkpt lat="41.792792" lon="-1.754680">
<ele>1018.5</ele>
<speed>44.2</speed>
<course>52.6</course>
<desc>Speed 44.2 km/h Distance 49.10 km</desc>
<time>2011-09-24T12:44:49.96</time>
<name>10127</name>
</trkpt>
<trkpt lat="41.792860" lon="-1.754560">
<ele>1018.0</ele>
<speed>44.9</speed>
<course>51.0</course>
<desc>Speed 44.9 km/h Distance 49.11 km</desc>
<time>2011-09-24T12:44:50.97</time>
<name>10128</name>
</trkpt>
<trkpt lat="41.792933" lon="-1.754438">
<ele>1018.0</ele>
<speed>46.2</speed>
<course>50.2</course>
<desc>Speed 46.2 km/h Distance 49.12 km</desc>
<time>2011-09-24T12:44:51.96</time>
<name>10129</name>
</trkpt>
<trkpt lat="41.793010" lon="-1.754315">
<ele>1018.0</ele>
<speed>47.6</speed>
<course>50.7</course>
<desc>Speed 47.6 km/h Distance 49.13 km</desc>
<time>2011-09-24T12:44:52.96</time>
<name>10130</name>
</trkpt>
<trkpt lat="41.793088" lon="-1.754187">
<ele>1017.5</ele>
<speed>48.8</speed>
<course>51.1</course>
<desc>Speed 48.8 km/h Distance 49.15 km</desc>
<time>2011-09-24T12:44:53.96</time>
<name>10131</name>
</trkpt>
<trkpt lat="41.793167" lon="-1.754057">
<ele>1017.5</ele>
<speed>49.9</speed>
<course>51.2</course>
<desc>Speed 49.9 km/h Distance 49.16 km</desc>
<time>2011-09-24T12:44:54.96</time>
<name>10132</name>
</trkpt>
<trkpt lat="41.793247" lon="-1.753923">
<ele>1017.0</ele>
<speed>50.4</speed>
<course>50.1</course>
<desc>Speed 50.4 km/h Distance 49.18 km</desc>
<time>2011-09-24T12:44:55.96</time>
<name>10133</name>
</trkpt>
<trkpt lat="41.793327" lon="-1.753795">
<ele>1017.0</ele>
<speed>50.0</speed>
<course>48.2</course>
<desc>Speed 50.0 km/h Distance 49.19 km</desc>
<time>2011-09-24T12:44:56.97</time>
<name>10134</name>
</trkpt>
<trkpt lat="41.793410" lon="-1.753670">
<ele>1017.0</ele>
<speed>49.4</speed>
<course>48.8</course>
<desc>Speed 49.4 km/h Distance 49.20 km</desc>
<time>2011-09-24T12:44:57.96</time>
<name>10135</name>
</trkpt>
<trkpt lat="41.793492" lon="-1.753545">
<ele>1016.5</ele>
<speed>49.1</speed>
<course>49.2</course>
<desc>Speed 49.1 km/h Distance 49.22 km</desc>
<time>2011-09-24T12:44:58.96</time>
<name>10136</name>
</trkpt>
<trkpt lat="41.793570" lon="-1.753423">
<ele>1016.5</ele>
<speed>48.5</speed>
<course>49.6</course>
<desc>Speed 48.5 km/h Distance 49.23 km</desc>
<time>2011-09-24T12:44:59.95</time>
<name>10137</name>
</trkpt>
<trkpt lat="41.793648" lon="-1.753300">
<ele>1016.0</ele>
<speed>48.3</speed>
<course>50.6</course>
<desc>Speed 48.3 km/h Distance 49.25 km</desc>
<time>2011-09-24T12:45:00.96</time>
<name>10138</name>
</trkpt>
<trkpt lat="41.793725" lon="-1.753175">
<ele>1015.0</ele>
<speed>48.0</speed>
<course>50.2</course>
<desc>Speed 48.0 km/h Distance 49.26 km</desc>
<time>2011-09-24T12:45:01.96</time>
<name>10139</name>
</trkpt>
<trkpt lat="41.793802" lon="-1.753052">
<ele>1014.5</ele>
<speed>47.9</speed>
<course>47.8</course>
<desc>Speed 47.9 km/h Distance 49.27 km</desc>
<time>2011-09-24T12:45:02.96</time>
<name>10140</name>
</trkpt>
<trkpt lat="41.793882" lon="-1.752933">
<ele>1013.5</ele>
<speed>47.4</speed>
<course>48.0</course>
<desc>Speed 47.4 km/h Distance 49.29 km</desc>
<time>2011-09-24T12:45:03.95</time>
<name>10141</name>
</trkpt>
<trkpt lat="41.793960" lon="-1.752817">
<ele>1012.5</ele>
<speed>47.0</speed>
<course>49.0</course>
<desc>Speed 47.0 km/h Distance 49.30 km</desc>
<time>2011-09-24T12:45:04.95</time>
<name>10142</name>
</trkpt>
<trkpt lat="41.794037" lon="-1.752698">
<ele>1011.0</ele>
<speed>46.8</speed>
<course>48.0</course>
<desc>Speed 46.8 km/h Distance 49.31 km</desc>
<time>2011-09-24T12:45:05.95</time>
<name>10143</name>
</trkpt>
<trkpt lat="41.794115" lon="-1.752582">
<ele>1009.5</ele>
<speed>46.4</speed>
<course>49.0</course>
<desc>Speed 46.4 km/h Distance 49.32 km</desc>
<time>2011-09-24T12:45:06.95</time>
<name>10144</name>
</trkpt>
<trkpt lat="41.794192" lon="-1.752463">
<ele>1008.0</ele>
<speed>46.5</speed>
<course>49.6</course>
<desc>Speed 46.5 km/h Distance 49.34 km</desc>
<time>2011-09-24T12:45:07.95</time>
<name>10145</name>
</trkpt>
<trkpt lat="41.794267" lon="-1.752345">
<ele>1006.0</ele>
<speed>46.3</speed>
<course>47.6</course>
<desc>Speed 46.3 km/h Distance 49.35 km</desc>
<time>2011-09-24T12:45:08.95</time>
<name>10146</name>
</trkpt>
<trkpt lat="41.794345" lon="-1.752230">
<ele>1004.5</ele>
<speed>46.2</speed>
<course>52.0</course>
<desc>Speed 46.2 km/h Distance 49.36 km</desc>
<time>2011-09-24T12:45:09.95</time>
<name>10147</name>
</trkpt>
<trkpt lat="41.794415" lon="-1.752110">
<ele>1003.0</ele>
<speed>46.0</speed>
<course>70.1</course>
<desc>Speed 46.0 km/h Distance 49.38 km</desc>
<time>2011-09-24T12:45:10.95</time>
<name>10148</name>
</trkpt>
<trkpt lat="41.794450" lon="-1.751980">
<ele>1002.0</ele>
<speed>41.5</speed>
<course>89.2</course>
<desc>Speed 41.5 km/h Distance 49.39 km</desc>
<time>2011-09-24T12:45:11.95</time>
<name>10149</name>
</trkpt>
<trkpt lat="41.794452" lon="-1.751828">
<ele>1002.0</ele>
<speed>45.6</speed>
<course>107.1</course>
<desc>Speed 45.6 km/h Distance 49.40 km</desc>
<time>2011-09-24T12:45:12.95</time>
<name>10150</name>
</trkpt>
<trkpt lat="41.794420" lon="-1.751690">
<ele>1001.0</ele>
<speed>44.6</speed>
<course>120.6</course>
<desc>Speed 44.6 km/h Distance 49.41 km</desc>
<time>2011-09-24T12:45:13.95</time>
<name>10151</name>
</trkpt>
<trkpt lat="41.794363" lon="-1.751562">
<ele>1001.0</ele>
<speed>45.4</speed>
<course>126.5</course>
<desc>Speed 45.4 km/h Distance 49.42 km</desc>
<time>2011-09-24T12:45:14.95</time>
<name>10152</name>
</trkpt>
<trkpt lat="41.794302" lon="-1.751450">
<ele>999.5</ele>
<speed>42.8</speed>
<course>131.4</course>
<desc>Speed 42.8 km/h Distance 49.44 km</desc>
<time>2011-09-24T12:45:15.94</time>
<name>10153</name>
</trkpt>
<trkpt lat="41.794232" lon="-1.751343">
<ele>998.0</ele>
<speed>43.3</speed>
<course>128.8</course>
<desc>Speed 43.3 km/h Distance 49.45 km</desc>
<time>2011-09-24T12:45:16.95</time>
<name>10154</name>
</trkpt>
<trkpt lat="41.794167" lon="-1.751235">
<ele>996.5</ele>
<speed>43.3</speed>
<course>125.3</course>
<desc>Speed 43.3 km/h Distance 49.46 km</desc>
<time>2011-09-24T12:45:17.94</time>
<name>10155</name>
</trkpt>
<trkpt lat="41.794105" lon="-1.751118">
<ele>995.5</ele>
<speed>43.7</speed>
<course>120.9</course>
<desc>Speed 43.7 km/h Distance 49.47 km</desc>
<time>2011-09-24T12:45:18.94</time>
<name>10156</name>
</trkpt>
<trkpt lat="41.794050" lon="-1.750995">
<ele>994.5</ele>
<speed>44.5</speed>
<course>113.6</course>
<desc>Speed 44.5 km/h Distance 49.48 km</desc>
<time>2011-09-24T12:45:19.94</time>
<name>10157</name>
</trkpt>
<trkpt lat="41.794007" lon="-1.750862">
<ele>993.5</ele>
<speed>44.5</speed>
<course>95.5</course>
<desc>Speed 44.5 km/h Distance 49.49 km</desc>
<time>2011-09-24T12:45:20.94</time>
<name>10158</name>
</trkpt>
<trkpt lat="41.793997" lon="-1.750722">
<ele>991.5</ele>
<speed>43.1</speed>
<course>94.4</course>
<desc>Speed 43.1 km/h Distance 49.51 km</desc>
<time>2011-09-24T12:45:21.94</time>
<name>10159</name>
</trkpt>
<trkpt lat="41.793988" lon="-1.750577">
<ele>991.0</ele>
<speed>43.8</speed>
<course>77.5</course>
<desc>Speed 43.8 km/h Distance 49.52 km</desc>
<time>2011-09-24T12:45:22.94</time>
<name>10160</name>
</trkpt>
<trkpt lat="41.794012" lon="-1.750435">
<ele>989.5</ele>
<speed>43.8</speed>
<course>79.2</course>
<desc>Speed 43.8 km/h Distance 49.53 km</desc>
<time>2011-09-24T12:45:23.94</time>
<name>10161</name>
</trkpt>
<trkpt lat="41.794032" lon="-1.750295">
<ele>989.0</ele>
<speed>42.9</speed>
<course>73.0</course>
<desc>Speed 42.9 km/h Distance 49.54 km</desc>
<time>2011-09-24T12:45:24.94</time>
<name>10162</name>
</trkpt>
<trkpt lat="41.794062" lon="-1.750163">
<ele>987.5</ele>
<speed>41.9</speed>
<course>63.9</course>
<desc>Speed 41.9 km/h Distance 49.55 km</desc>
<time>2011-09-24T12:45:25.94</time>
<name>10163</name>
</trkpt>
<trkpt lat="41.794107" lon="-1.750040">
<ele>987.5</ele>
<speed>41.0</speed>
<course>58.8</course>
<desc>Speed 41.0 km/h Distance 49.57 km</desc>
<time>2011-09-24T12:45:26.93</time>
<name>10164</name>
</trkpt>
<trkpt lat="41.794160" lon="-1.749922">
<ele>986.0</ele>
<speed>42.0</speed>
<course>58.4</course>
<desc>Speed 42.0 km/h Distance 49.58 km</desc>
<time>2011-09-24T12:45:27.93</time>
<name>10165</name>
</trkpt>
<trkpt lat="41.794217" lon="-1.749798">
<ele>986.0</ele>
<speed>43.7</speed>
<course>52.1</course>
<desc>Speed 43.7 km/h Distance 49.59 km</desc>
<time>2011-09-24T12:45:28.93</time>
<name>10166</name>
</trkpt>
<trkpt lat="41.794288" lon="-1.749675">
<ele>985.5</ele>
<speed>46.6</speed>
<course>50.9</course>
<desc>Speed 46.6 km/h Distance 49.60 km</desc>
<time>2011-09-24T12:45:29.93</time>
<name>10167</name>
</trkpt>
<trkpt lat="41.794365" lon="-1.749548">
<ele>985.5</ele>
<speed>49.3</speed>
<course>51.5</course>
<desc>Speed 49.3 km/h Distance 49.62 km</desc>
<time>2011-09-24T12:45:30.93</time>
<name>10168</name>
</trkpt>
<trkpt lat="41.794445" lon="-1.749413">
<ele>985.0</ele>
<speed>51.7</speed>
<course>55.2</course>
<desc>Speed 51.7 km/h Distance 49.63 km</desc>
<time>2011-09-24T12:45:31.93</time>
<name>10169</name>
</trkpt>
<trkpt lat="41.794520" lon="-1.749268">
<ele>985.0</ele>
<speed>52.8</speed>
<course>57.7</course>
<desc>Speed 52.8 km/h Distance 49.64 km</desc>
<time>2011-09-24T12:45:32.92</time>
<name>10170</name>
</trkpt>
<trkpt lat="41.794590" lon="-1.749120">
<ele>985.0</ele>
<speed>52.8</speed>
<course>59.5</course>
<desc>Speed 52.8 km/h Distance 49.66 km</desc>
<time>2011-09-24T12:45:33.93</time>
<name>10171</name>
</trkpt>
<trkpt lat="41.794657" lon="-1.748968">
<ele>984.5</ele>
<speed>52.7</speed>
<course>61.0</course>
<desc>Speed 52.7 km/h Distance 49.67 km</desc>
<time>2011-09-24T12:45:34.93</time>
<name>10172</name>
</trkpt>
<trkpt lat="41.794720" lon="-1.748815">
<ele>984.5</ele>
<speed>53.1</speed>
<course>60.9</course>
<desc>Speed 53.1 km/h Distance 49.69 km</desc>
<time>2011-09-24T12:45:35.93</time>
<name>10173</name>
</trkpt>
<trkpt lat="41.794785" lon="-1.748658">
<ele>984.5</ele>
<speed>53.6</speed>
<course>61.5</course>
<desc>Speed 53.6 km/h Distance 49.70 km</desc>
<time>2011-09-24T12:45:36.92</time>
<name>10174</name>
</trkpt>
<trkpt lat="41.794848" lon="-1.748502">
<ele>983.0</ele>
<speed>53.6</speed>
<course>63.1</course>
<desc>Speed 53.6 km/h Distance 49.72 km</desc>
<time>2011-09-24T12:45:37.92</time>
<name>10175</name>
</trkpt>
<trkpt lat="41.794908" lon="-1.748343">
<ele>981.5</ele>
<speed>53.5</speed>
<course>63.7</course>
<desc>Speed 53.5 km/h Distance 49.73 km</desc>
<time>2011-09-24T12:45:38.92</time>
<name>10176</name>
</trkpt>
<trkpt lat="41.794967" lon="-1.748185">
<ele>980.0</ele>
<speed>53.2</speed>
<course>66.6</course>
<desc>Speed 53.2 km/h Distance 49.75 km</desc>
<time>2011-09-24T12:45:39.93</time>
<name>10177</name>
</trkpt>
<trkpt lat="41.795018" lon="-1.748025">
<ele>978.0</ele>
<speed>52.7</speed>
<course>68.4</course>
<desc>Speed 52.7 km/h Distance 49.76 km</desc>
<time>2011-09-24T12:45:40.92</time>
<name>10178</name>
</trkpt>
<trkpt lat="41.795067" lon="-1.747862">
<ele>976.5</ele>
<speed>53.0</speed>
<course>70.3</course>
<desc>Speed 53.0 km/h Distance 49.78 km</desc>
<time>2011-09-24T12:45:41.92</time>
<name>10179</name>
</trkpt>
<trkpt lat="41.795112" lon="-1.747693">
<ele>976.0</ele>
<speed>53.4</speed>
<course>69.2</course>
<desc>Speed 53.4 km/h Distance 49.79 km</desc>
<time>2011-09-24T12:45:42.92</time>
<name>10180</name>
</trkpt>
<trkpt lat="41.795158" lon="-1.747528">
<ele>975.0</ele>
<speed>52.9</speed>
<course>70.6</course>
<desc>Speed 52.9 km/h Distance 49.81 km</desc>
<time>2011-09-24T12:45:43.92</time>
<name>10181</name>
</trkpt>
<trkpt lat="41.795202" lon="-1.747363">
<ele>974.0</ele>
<speed>52.9</speed>
<course>73.7</course>
<desc>Speed 52.9 km/h Distance 49.82 km</desc>
<time>2011-09-24T12:45:44.91</time>
<name>10182</name>
</trkpt>
<trkpt lat="41.795238" lon="-1.747195">
<ele>973.0</ele>
<speed>52.5</speed>
<course>74.3</course>
<desc>Speed 52.5 km/h Distance 49.83 km</desc>
<time>2011-09-24T12:45:45.92</time>
<name>10183</name>
</trkpt>
<trkpt lat="41.795273" lon="-1.747028">
<ele>971.5</ele>
<speed>52.3</speed>
<course>72.7</course>
<desc>Speed 52.3 km/h Distance 49.85 km</desc>
<time>2011-09-24T12:45:46.91</time>
<name>10184</name>
</trkpt>
<trkpt lat="41.795312" lon="-1.746863">
<ele>970.0</ele>
<speed>52.1</speed>
<course>72.7</course>
<desc>Speed 52.1 km/h Distance 49.86 km</desc>
<time>2011-09-24T12:45:47.91</time>
<name>10185</name>
</trkpt>
<trkpt lat="41.795350" lon="-1.746698">
<ele>969.0</ele>
<speed>51.9</speed>
<course>71.8</course>
<desc>Speed 51.9 km/h Distance 49.88 km</desc>
<time>2011-09-24T12:45:48.91</time>
<name>10186</name>
</trkpt>
<trkpt lat="41.795390" lon="-1.746535">
<ele>968.0</ele>
<speed>51.8</speed>
<course>72.5</course>
<desc>Speed 51.8 km/h Distance 49.89 km</desc>
<time>2011-09-24T12:45:49.91</time>
<name>10187</name>
</trkpt>
<trkpt lat="41.795428" lon="-1.746372">
<ele>967.0</ele>
<speed>51.3</speed>
<course>73.1</course>
<desc>Speed 51.3 km/h Distance 49.91 km</desc>
<time>2011-09-24T12:45:50.91</time>
<name>10188</name>
</trkpt>
<trkpt lat="41.795465" lon="-1.746210">
<ele>966.0</ele>
<speed>51.0</speed>
<course>70.6</course>
<desc>Speed 51.0 km/h Distance 49.92 km</desc>
<time>2011-09-24T12:45:51.91</time>
<name>10189</name>
</trkpt>
<trkpt lat="41.795507" lon="-1.746052">
<ele>964.5</ele>
<speed>50.5</speed>
<course>68.0</course>
<desc>Speed 50.5 km/h Distance 49.93 km</desc>
<time>2011-09-24T12:45:52.91</time>
<name>10190</name>
</trkpt>
<trkpt lat="41.795553" lon="-1.745897">
<ele>964.0</ele>
<speed>50.1</speed>
<course>64.5</course>
<desc>Speed 50.1 km/h Distance 49.95 km</desc>
<time>2011-09-24T12:45:53.91</time>
<name>10191</name>
</trkpt>
<trkpt lat="41.795607" lon="-1.745747">
<ele>963.0</ele>
<speed>50.1</speed>
<course>60.0</course>
<desc>Speed 50.1 km/h Distance 49.96 km</desc>
<time>2011-09-24T12:45:54.91</time>
<name>10192</name>
</trkpt>
<trkpt lat="41.795668" lon="-1.745603">
<ele>962.0</ele>
<speed>49.7</speed>
<course>57.8</course>
<desc>Speed 49.7 km/h Distance 49.98 km</desc>
<time>2011-09-24T12:45:55.91</time>
<name>10193</name>
</trkpt>
<trkpt lat="41.795733" lon="-1.745465">
<ele>961.0</ele>
<speed>49.3</speed>
<course>56.2</course>
<desc>Speed 49.3 km/h Distance 49.99 km</desc>
<time>2011-09-24T12:45:56.90</time>
<name>10194</name>
</trkpt>
<trkpt lat="41.795802" lon="-1.745328">
<ele>960.0</ele>
<speed>49.0</speed>
<course>57.5</course>
<desc>Speed 49.0 km/h Distance 50.00 km</desc>
<time>2011-09-24T12:45:57.91</time>
<name>10195</name>
</trkpt>
<trkpt lat="41.795867" lon="-1.745192">
<ele>959.0</ele>
<speed>48.7</speed>
<course>56.8</course>
<desc>Speed 48.7 km/h Distance 50.02 km</desc>
<time>2011-09-24T12:45:58.90</time>
<name>10196</name>
</trkpt>
<trkpt lat="41.795933" lon="-1.745055">
<ele>958.0</ele>
<speed>48.8</speed>
<course>56.5</course>
<desc>Speed 48.8 km/h Distance 50.03 km</desc>
<time>2011-09-24T12:45:59.90</time>
<name>10197</name>
</trkpt>
<trkpt lat="41.796000" lon="-1.744920">
<ele>957.0</ele>
<speed>48.7</speed>
<course>57.5</course>
<desc>Speed 48.7 km/h Distance 50.04 km</desc>
<time>2011-09-24T12:46:00.90</time>
<name>10198</name>
</trkpt>
<trkpt lat="41.796065" lon="-1.744783">
<ele>956.0</ele>
<speed>48.4</speed>
<course>56.5</course>
<desc>Speed 48.4 km/h Distance 50.06 km</desc>
<time>2011-09-24T12:46:01.90</time>
<name>10199</name>
</trkpt>
<trkpt lat="41.796132" lon="-1.744648">
<ele>955.0</ele>
<speed>48.1</speed>
<course>55.8</course>
<desc>Speed 48.1 km/h Distance 50.07 km</desc>
<time>2011-09-24T12:46:02.90</time>
<name>10200</name>
</trkpt>
<trkpt lat="41.796198" lon="-1.744517">
<ele>954.5</ele>
<speed>47.8</speed>
<course>55.8</course>
<desc>Speed 47.8 km/h Distance 50.08 km</desc>
<time>2011-09-24T12:46:03.91</time>
<name>10201</name>
</trkpt>
<trkpt lat="41.796265" lon="-1.744385">
<ele>953.0</ele>
<speed>47.7</speed>
<course>54.5</course>
<desc>Speed 47.7 km/h Distance 50.10 km</desc>
<time>2011-09-24T12:46:04.90</time>
<name>10202</name>
</trkpt>
<trkpt lat="41.796335" lon="-1.744253">
<ele>952.0</ele>
<speed>47.8</speed>
<course>52.8</course>
<desc>Speed 47.8 km/h Distance 50.11 km</desc>
<time>2011-09-24T12:46:05.90</time>
<name>10203</name>
</trkpt>
<trkpt lat="41.796407" lon="-1.744127">
<ele>950.5</ele>
<speed>47.9</speed>
<course>48.6</course>
<desc>Speed 47.9 km/h Distance 50.12 km</desc>
<time>2011-09-24T12:46:06.90</time>
<name>10204</name>
</trkpt>
<trkpt lat="41.796487" lon="-1.744005">
<ele>949.5</ele>
<speed>47.9</speed>
<course>44.8</course>
<desc>Speed 47.9 km/h Distance 50.14 km</desc>
<time>2011-09-24T12:46:07.90</time>
<name>10205</name>
</trkpt>
<trkpt lat="41.796572" lon="-1.743892">
<ele>948.0</ele>
<speed>47.9</speed>
<course>41.4</course>
<desc>Speed 47.9 km/h Distance 50.15 km</desc>
<time>2011-09-24T12:46:08.89</time>
<name>10206</name>
</trkpt>
<trkpt lat="41.796663" lon="-1.743783">
<ele>946.5</ele>
<speed>48.8</speed>
<course>44.1</course>
<desc>Speed 48.8 km/h Distance 50.16 km</desc>
<time>2011-09-24T12:46:09.90</time>
<name>10207</name>
</trkpt>
<trkpt lat="41.796752" lon="-1.743668">
<ele>946.5</ele>
<speed>49.2</speed>
<course>41.8</course>
<desc>Speed 49.2 km/h Distance 50.18 km</desc>
<time>2011-09-24T12:46:10.89</time>
<name>10208</name>
</trkpt>
<trkpt lat="41.796843" lon="-1.743558">
<ele>945.5</ele>
<speed>49.2</speed>
<course>39.9</course>
<desc>Speed 49.2 km/h Distance 50.19 km</desc>
<time>2011-09-24T12:46:11.89</time>
<name>10209</name>
</trkpt>
<trkpt lat="41.796938" lon="-1.743452">
<ele>944.5</ele>
<speed>49.7</speed>
<course>39.9</course>
<desc>Speed 49.7 km/h Distance 50.20 km</desc>
<time>2011-09-24T12:46:12.89</time>
<name>10210</name>
</trkpt>
<trkpt lat="41.797035" lon="-1.743343">
<ele>943.5</ele>
<speed>50.5</speed>
<course>40.7</course>
<desc>Speed 50.5 km/h Distance 50.22 km</desc>
<time>2011-09-24T12:46:13.89</time>
<name>10211</name>
</trkpt>
<trkpt lat="41.797132" lon="-1.743232">
<ele>943.5</ele>
<speed>50.9</speed>
<course>42.4</course>
<desc>Speed 50.9 km/h Distance 50.23 km</desc>
<time>2011-09-24T12:46:14.89</time>
<name>10212</name>
</trkpt>
<trkpt lat="41.797228" lon="-1.743113">
<ele>943.5</ele>
<speed>52.3</speed>
<course>40.5</course>
<desc>Speed 52.3 km/h Distance 50.25 km</desc>
<time>2011-09-24T12:46:15.90</time>
<name>10213</name>
</trkpt>
<trkpt lat="41.797330" lon="-1.742997">
<ele>942.5</ele>
<speed>53.6</speed>
<course>42.1</course>
<desc>Speed 53.6 km/h Distance 50.26 km</desc>
<time>2011-09-24T12:46:16.89</time>
<name>10214</name>
</trkpt>
<trkpt lat="41.797432" lon="-1.742873">
<ele>942.5</ele>
<speed>54.3</speed>
<course>41.7</course>
<desc>Speed 54.3 km/h Distance 50.28 km</desc>
<time>2011-09-24T12:46:17.90</time>
<name>10215</name>
</trkpt>
<trkpt lat="41.797535" lon="-1.742750">
<ele>942.5</ele>
<speed>55.7</speed>
<course>41.5</course>
<desc>Speed 55.7 km/h Distance 50.29 km</desc>
<time>2011-09-24T12:46:18.89</time>
<name>10216</name>
</trkpt>
<trkpt lat="41.797642" lon="-1.742623">
<ele>942.0</ele>
<speed>57.3</speed>
<course>40.2</course>
<desc>Speed 57.3 km/h Distance 50.31 km</desc>
<time>2011-09-24T12:46:19.90</time>
<name>10217</name>
</trkpt>
<trkpt lat="41.797755" lon="-1.742495">
<ele>940.5</ele>
<speed>59.3</speed>
<course>39.7</course>
<desc>Speed 59.3 km/h Distance 50.33 km</desc>
<time>2011-09-24T12:46:20.89</time>
<name>10218</name>
</trkpt>
<trkpt lat="41.797872" lon="-1.742365">
<ele>939.5</ele>
<speed>60.7</speed>
<course>39.7</course>
<desc>Speed 60.7 km/h Distance 50.34 km</desc>
<time>2011-09-24T12:46:21.88</time>
<name>10219</name>
</trkpt>
<trkpt lat="41.797990" lon="-1.742233">
<ele>938.0</ele>
<speed>62.2</speed>
<course>40.7</course>
<desc>Speed 62.2 km/h Distance 50.36 km</desc>
<time>2011-09-24T12:46:22.88</time>
<name>10220</name>
</trkpt>
<trkpt lat="41.798110" lon="-1.742095">
<ele>937.5</ele>
<speed>63.2</speed>
<course>41.1</course>
<desc>Speed 63.2 km/h Distance 50.38 km</desc>
<time>2011-09-24T12:46:23.89</time>
<name>10221</name>
</trkpt>
<trkpt lat="41.798228" lon="-1.741957">
<ele>937.5</ele>
<speed>62.9</speed>
<course>40.4</course>
<desc>Speed 62.9 km/h Distance 50.39 km</desc>
<time>2011-09-24T12:46:24.89</time>
<name>10222</name>
</trkpt>
<trkpt lat="41.798345" lon="-1.741823">
<ele>937.0</ele>
<speed>61.5</speed>
<course>41.3</course>
<desc>Speed 61.5 km/h Distance 50.41 km</desc>
<time>2011-09-24T12:46:25.89</time>
<name>10223</name>
</trkpt>
<trkpt lat="41.798458" lon="-1.741690">
<ele>937.0</ele>
<speed>60.3</speed>
<course>42.1</course>
<desc>Speed 60.3 km/h Distance 50.43 km</desc>
<time>2011-09-24T12:46:26.88</time>
<name>10224</name>
</trkpt>
<trkpt lat="41.798568" lon="-1.741557">
<ele>937.0</ele>
<speed>59.0</speed>
<course>41.8</course>
<desc>Speed 59.0 km/h Distance 50.44 km</desc>
<time>2011-09-24T12:46:27.88</time>
<name>10225</name>
</trkpt>
<trkpt lat="41.798677" lon="-1.741427">
<ele>936.5</ele>
<speed>58.0</speed>
<course>41.9</course>
<desc>Speed 58.0 km/h Distance 50.46 km</desc>
<time>2011-09-24T12:46:28.87</time>
<name>10226</name>
</trkpt>
<trkpt lat="41.798783" lon="-1.741298">
<ele>936.5</ele>
<speed>57.5</speed>
<course>41.6</course>
<desc>Speed 57.5 km/h Distance 50.48 km</desc>
<time>2011-09-24T12:46:29.88</time>
<name>10227</name>
</trkpt>
<trkpt lat="41.798888" lon="-1.741173">
<ele>936.0</ele>
<speed>56.3</speed>
<course>40.8</course>
<desc>Speed 56.3 km/h Distance 50.49 km</desc>
<time>2011-09-24T12:46:30.87</time>
<name>10228</name>
</trkpt>
<trkpt lat="41.798995" lon="-1.741050">
<ele>936.0</ele>
<speed>56.0</speed>
<course>41.3</course>
<desc>Speed 56.0 km/h Distance 50.51 km</desc>
<time>2011-09-24T12:46:31.87</time>
<name>10229</name>
</trkpt>
<trkpt lat="41.799098" lon="-1.740928">
<ele>935.5</ele>
<speed>55.4</speed>
<course>40.4</course>
<desc>Speed 55.4 km/h Distance 50.52 km</desc>
<time>2011-09-24T12:46:32.87</time>
<name>10230</name>
</trkpt>
<trkpt lat="41.799203" lon="-1.740808">
<ele>935.5</ele>
<speed>54.9</speed>
<course>40.9</course>
<desc>Speed 54.9 km/h Distance 50.54 km</desc>
<time>2011-09-24T12:46:33.87</time>
<name>10231</name>
</trkpt>
<trkpt lat="41.799305" lon="-1.740690">
<ele>935.0</ele>
<speed>53.9</speed>
<course>41.5</course>
<desc>Speed 53.9 km/h Distance 50.55 km</desc>
<time>2011-09-24T12:46:34.87</time>
<name>10232</name>
</trkpt>
<trkpt lat="41.799403" lon="-1.740573">
<ele>935.0</ele>
<speed>52.9</speed>
<course>40.7</course>
<desc>Speed 52.9 km/h Distance 50.57 km</desc>
<time>2011-09-24T12:46:35.87</time>
<name>10233</name>
</trkpt>
<trkpt lat="41.799502" lon="-1.740460">
<ele>934.5</ele>
<speed>51.7</speed>
<course>41.6</course>
<desc>Speed 51.7 km/h Distance 50.58 km</desc>
<time>2011-09-24T12:46:36.87</time>
<name>10234</name>
</trkpt>
<trkpt lat="41.799597" lon="-1.740347">
<ele>934.5</ele>
<speed>50.9</speed>
<course>43.6</course>
<desc>Speed 50.9 km/h Distance 50.60 km</desc>
<time>2011-09-24T12:46:37.87</time>
<name>10235</name>
</trkpt>
<trkpt lat="41.799687" lon="-1.740232">
<ele>934.0</ele>
<speed>49.8</speed>
<course>56.1</course>
<desc>Speed 49.8 km/h Distance 50.61 km</desc>
<time>2011-09-24T12:46:38.87</time>
<name>10236</name>
</trkpt>
<trkpt lat="41.799763" lon="-1.740078">
<ele>934.0</ele>
<speed>55.6</speed>
<course>57.1</course>
<desc>Speed 55.6 km/h Distance 50.63 km</desc>
<time>2011-09-24T12:46:39.87</time>
<name>10237</name>
</trkpt>
<trkpt lat="41.799830" lon="-1.739940">
<ele>933.5</ele>
<speed>50.1</speed>
<course>60.3</course>
<desc>Speed 50.1 km/h Distance 50.64 km</desc>
<time>2011-09-24T12:46:40.86</time>
<name>10238</name>
</trkpt>
<trkpt lat="41.799892" lon="-1.739795">
<ele>933.5</ele>
<speed>50.5</speed>
<course>65.0</course>
<desc>Speed 50.5 km/h Distance 50.65 km</desc>
<time>2011-09-24T12:46:41.87</time>
<name>10239</name>
</trkpt>
<trkpt lat="41.799945" lon="-1.739642">
<ele>933.0</ele>
<speed>51.1</speed>
<course>67.3</course>
<desc>Speed 51.1 km/h Distance 50.67 km</desc>
<time>2011-09-24T12:46:42.87</time>
<name>10240</name>
</trkpt>
<trkpt lat="41.799993" lon="-1.739487">
<ele>932.5</ele>
<speed>51.3</speed>
<course>67.9</course>
<desc>Speed 51.3 km/h Distance 50.68 km</desc>
<time>2011-09-24T12:46:43.87</time>
<name>10241</name>
</trkpt>
<trkpt lat="41.800042" lon="-1.739327">
<ele>932.5</ele>
<speed>51.8</speed>
<course>65.9</course>
<desc>Speed 51.8 km/h Distance 50.70 km</desc>
<time>2011-09-24T12:46:44.86</time>
<name>10242</name>
</trkpt>
<trkpt lat="41.800093" lon="-1.739172">
<ele>932.0</ele>
<speed>51.4</speed>
<course>67.0</course>
<desc>Speed 51.4 km/h Distance 50.71 km</desc>
<time>2011-09-24T12:46:45.87</time>
<name>10243</name>
</trkpt>
<trkpt lat="41.800143" lon="-1.739013">
<ele>932.0</ele>
<speed>51.8</speed>
<course>67.3</course>
<desc>Speed 51.8 km/h Distance 50.72 km</desc>
<time>2011-09-24T12:46:46.87</time>
<name>10244</name>
</trkpt>
<trkpt lat="41.800193" lon="-1.738853">
<ele>932.0</ele>
<speed>51.7</speed>
<course>67.3</course>
<desc>Speed 51.7 km/h Distance 50.74 km</desc>
<time>2011-09-24T12:46:47.87</time>
<name>10245</name>
</trkpt>
<trkpt lat="41.800243" lon="-1.738693">
<ele>931.5</ele>
<speed>52.2</speed>
<course>67.0</course>
<desc>Speed 52.2 km/h Distance 50.75 km</desc>
<time>2011-09-24T12:46:48.86</time>
<name>10246</name>
</trkpt>
<trkpt lat="41.800293" lon="-1.738535">
<ele>931.5</ele>
<speed>51.9</speed>
<course>66.6</course>
<desc>Speed 51.9 km/h Distance 50.77 km</desc>
<time>2011-09-24T12:46:49.86</time>
<name>10247</name>
</trkpt>
<trkpt lat="41.800345" lon="-1.738375">
<ele>931.0</ele>
<speed>52.1</speed>
<course>67.7</course>
<desc>Speed 52.1 km/h Distance 50.78 km</desc>
<time>2011-09-24T12:46:50.86</time>
<name>10248</name>
</trkpt>
<trkpt lat="41.800393" lon="-1.738217">
<ele>930.5</ele>
<speed>52.2</speed>
<course>68.3</course>
<desc>Speed 52.2 km/h Distance 50.80 km</desc>
<time>2011-09-24T12:46:51.86</time>
<name>10249</name>
</trkpt>
<trkpt lat="41.800442" lon="-1.738053">
<ele>930.5</ele>
<speed>52.4</speed>
<course>68.8</course>
<desc>Speed 52.4 km/h Distance 50.81 km</desc>
<time>2011-09-24T12:46:52.86</time>
<name>10250</name>
</trkpt>
<trkpt lat="41.800488" lon="-1.737892">
<ele>930.5</ele>
<speed>52.1</speed>
<course>72.0</course>
<desc>Speed 52.1 km/h Distance 50.83 km</desc>
<time>2011-09-24T12:46:53.86</time>
<name>10251</name>
</trkpt>
<trkpt lat="41.800528" lon="-1.737727">
<ele>930.5</ele>
<speed>52.3</speed>
<course>70.8</course>
<desc>Speed 52.3 km/h Distance 50.84 km</desc>
<time>2011-09-24T12:46:54.86</time>
<name>10252</name>
</trkpt>
<trkpt lat="41.800572" lon="-1.737560">
<ele>930.5</ele>
<speed>52.6</speed>
<course>72.2</course>
<desc>Speed 52.6 km/h Distance 50.85 km</desc>
<time>2011-09-24T12:46:55.86</time>
<name>10253</name>
</trkpt>
<trkpt lat="41.800612" lon="-1.737393">
<ele>930.0</ele>
<speed>52.3</speed>
<course>71.3</course>
<desc>Speed 52.3 km/h Distance 50.87 km</desc>
<time>2011-09-24T12:46:56.86</time>
<name>10254</name>
</trkpt>
<trkpt lat="41.800653" lon="-1.737228">
<ele>930.0</ele>
<speed>52.3</speed>
<course>71.6</course>
<desc>Speed 52.3 km/h Distance 50.88 km</desc>
<time>2011-09-24T12:46:57.86</time>
<name>10255</name>
</trkpt>
<trkpt lat="41.800695" lon="-1.737060">
<ele>929.5</ele>
<speed>52.6</speed>
<course>70.4</course>
<desc>Speed 52.6 km/h Distance 50.90 km</desc>
<time>2011-09-24T12:46:58.85</time>
<name>10256</name>
</trkpt>
<trkpt lat="41.800738" lon="-1.736897">
<ele>928.0</ele>
<speed>52.2</speed>
<course>69.2</course>
<desc>Speed 52.2 km/h Distance 50.91 km</desc>
<time>2011-09-24T12:46:59.85</time>
<name>10257</name>
</trkpt>
<trkpt lat="41.800785" lon="-1.736732">
<ele>926.5</ele>
<speed>52.6</speed>
<course>66.8</course>
<desc>Speed 52.6 km/h Distance 50.93 km</desc>
<time>2011-09-24T12:47:00.85</time>
<name>10258</name>
</trkpt>
<trkpt lat="41.800837" lon="-1.736570">
<ele>925.0</ele>
<speed>53.1</speed>
<course>57.3</course>
<desc>Speed 53.1 km/h Distance 50.94 km</desc>
<time>2011-09-24T12:47:01.85</time>
<name>10259</name>
</trkpt>
<trkpt lat="41.800910" lon="-1.736417">
<ele>924.5</ele>
<speed>54.4</speed>
<course>54.7</course>
<desc>Speed 54.4 km/h Distance 50.96 km</desc>
<time>2011-09-24T12:47:02.85</time>
<name>10260</name>
</trkpt>
<trkpt lat="41.800987" lon="-1.736272">
<ele>923.0</ele>
<speed>53.4</speed>
<course>52.9</course>
<desc>Speed 53.4 km/h Distance 50.97 km</desc>
<time>2011-09-24T12:47:03.85</time>
<name>10261</name>
</trkpt>
<trkpt lat="41.801067" lon="-1.736130">
<ele>921.5</ele>
<speed>53.6</speed>
<course>53.2</course>
<desc>Speed 53.6 km/h Distance 50.99 km</desc>
<time>2011-09-24T12:47:04.85</time>
<name>10262</name>
</trkpt>
<trkpt lat="41.801147" lon="-1.735987">
<ele>921.0</ele>
<speed>54.2</speed>
<course>55.0</course>
<desc>Speed 54.2 km/h Distance 51.00 km</desc>
<time>2011-09-24T12:47:05.85</time>
<name>10263</name>
</trkpt>
<trkpt lat="41.801223" lon="-1.735840">
<ele>920.5</ele>
<speed>54.1</speed>
<course>56.1</course>
<desc>Speed 54.1 km/h Distance 51.02 km</desc>
<time>2011-09-24T12:47:06.84</time>
<name>10264</name>
</trkpt>
<trkpt lat="41.801298" lon="-1.735690">
<ele>920.5</ele>
<speed>54.6</speed>
<course>59.7</course>
<desc>Speed 54.6 km/h Distance 51.03 km</desc>
<time>2011-09-24T12:47:07.85</time>
<name>10265</name>
</trkpt>
<trkpt lat="41.801367" lon="-1.735533">
<ele>920.0</ele>
<speed>54.9</speed>
<course>64.0</course>
<desc>Speed 54.9 km/h Distance 51.05 km</desc>
<time>2011-09-24T12:47:08.85</time>
<name>10266</name>
</trkpt>
<trkpt lat="41.801427" lon="-1.735368">
<ele>919.5</ele>
<speed>55.7</speed>
<course>67.6</course>
<desc>Speed 55.7 km/h Distance 51.06 km</desc>
<time>2011-09-24T12:47:09.85</time>
<name>10267</name>
</trkpt>
<trkpt lat="41.801478" lon="-1.735200">
<ele>919.0</ele>
<speed>54.9</speed>
<course>67.0</course>
<desc>Speed 54.9 km/h Distance 51.08 km</desc>
<time>2011-09-24T12:47:10.84</time>
<name>10268</name>
</trkpt>
<trkpt lat="41.801532" lon="-1.735032">
<ele>919.0</ele>
<speed>55.3</speed>
<course>56.8</course>
<desc>Speed 55.3 km/h Distance 51.09 km</desc>
<time>2011-09-24T12:47:11.84</time>
<name>10269</name>
</trkpt>
<trkpt lat="41.801600" lon="-1.734892">
<ele>913.5</ele>
<speed>54.6</speed>
<course>58.5</course>
<desc>Speed 54.6 km/h Distance 51.11 km</desc>
<time>2011-09-24T12:47:12.84</time>
<name>10270</name>
</trkpt>
<trkpt lat="41.801672" lon="-1.734735">
<ele>911.5</ele>
<speed>55.2</speed>
<course>55.3</course>
<desc>Speed 55.2 km/h Distance 51.12 km</desc>
<time>2011-09-24T12:47:13.85</time>
<name>10271</name>
</trkpt>
<trkpt lat="41.801750" lon="-1.734583">
<ele>910.0</ele>
<speed>54.8</speed>
<course>54.4</course>
<desc>Speed 54.8 km/h Distance 51.14 km</desc>
<time>2011-09-24T12:47:14.84</time>
<name>10272</name>
</trkpt>
<trkpt lat="41.801830" lon="-1.734433">
<ele>909.5</ele>
<speed>55.0</speed>
<course>55.0</course>
<desc>Speed 55.0 km/h Distance 51.15 km</desc>
<time>2011-09-24T12:47:15.84</time>
<name>10273</name>
</trkpt>
<trkpt lat="41.801907" lon="-1.734287">
<ele>909.5</ele>
<speed>54.0</speed>
<course>55.0</course>
<desc>Speed 54.0 km/h Distance 51.17 km</desc>
<time>2011-09-24T12:47:16.83</time>
<name>10274</name>
</trkpt>
<trkpt lat="41.801983" lon="-1.734140">
<ele>909.5</ele>
<speed>53.5</speed>
<course>54.4</course>
<desc>Speed 53.5 km/h Distance 51.18 km</desc>
<time>2011-09-24T12:47:17.84</time>
<name>10275</name>
</trkpt>
<trkpt lat="41.802062" lon="-1.733993">
<ele>909.0</ele>
<speed>54.0</speed>
<course>51.2</course>
<desc>Speed 54.0 km/h Distance 51.20 km</desc>
<time>2011-09-24T12:47:18.83</time>
<name>10276</name>
</trkpt>
<trkpt lat="41.802147" lon="-1.733852">
<ele>909.0</ele>
<speed>54.7</speed>
<course>47.0</course>
<desc>Speed 54.7 km/h Distance 51.21 km</desc>
<time>2011-09-24T12:47:19.83</time>
<name>10277</name>
</trkpt>
<trkpt lat="41.802238" lon="-1.733720">
<ele>908.5</ele>
<speed>53.9</speed>
<course>44.8</course>
<desc>Speed 53.9 km/h Distance 51.23 km</desc>
<time>2011-09-24T12:47:20.83</time>
<name>10278</name>
</trkpt>
<trkpt lat="41.802333" lon="-1.733593">
<ele>908.5</ele>
<speed>53.5</speed>
<course>46.4</course>
<desc>Speed 53.5 km/h Distance 51.24 km</desc>
<time>2011-09-24T12:47:21.83</time>
<name>10279</name>
</trkpt>
<trkpt lat="41.802423" lon="-1.733467">
<ele>908.0</ele>
<speed>52.5</speed>
<course>49.1</course>
<desc>Speed 52.5 km/h Distance 51.26 km</desc>
<time>2011-09-24T12:47:22.83</time>
<name>10280</name>
</trkpt>
<trkpt lat="41.802508" lon="-1.733335">
<ele>907.5</ele>
<speed>52.5</speed>
<course>61.5</course>
<desc>Speed 52.5 km/h Distance 51.27 km</desc>
<time>2011-09-24T12:47:23.83</time>
<name>10281</name>
</trkpt>
<trkpt lat="41.802565" lon="-1.733195">
<ele>907.5</ele>
<speed>48.4</speed>
<course>63.9</course>
<desc>Speed 48.4 km/h Distance 51.28 km</desc>
<time>2011-09-24T12:47:24.83</time>
<name>10282</name>
</trkpt>
<trkpt lat="41.802622" lon="-1.733040">
<ele>907.0</ele>
<speed>51.7</speed>
<course>68.9</course>
<desc>Speed 51.7 km/h Distance 51.30 km</desc>
<time>2011-09-24T12:47:25.84</time>
<name>10283</name>
</trkpt>
<trkpt lat="41.802667" lon="-1.732883">
<ele>907.0</ele>
<speed>50.6</speed>
<course>71.5</course>
<desc>Speed 50.6 km/h Distance 51.31 km</desc>
<time>2011-09-24T12:47:26.83</time>
<name>10284</name>
</trkpt>
<trkpt lat="41.802705" lon="-1.732730">
<ele>906.5</ele>
<speed>49.1</speed>
<course>58.0</course>
<desc>Speed 49.1 km/h Distance 51.32 km</desc>
<time>2011-09-24T12:47:27.83</time>
<name>10285</name>
</trkpt>
<trkpt lat="41.802773" lon="-1.732583">
<ele>906.0</ele>
<speed>52.3</speed>
<course>42.4</course>
<desc>Speed 52.3 km/h Distance 51.34 km</desc>
<time>2011-09-24T12:47:28.83</time>
<name>10286</name>
</trkpt>
<trkpt lat="41.802862" lon="-1.732475">
<ele>906.0</ele>
<speed>48.0</speed>
<course>45.5</course>
<desc>Speed 48.0 km/h Distance 51.35 km</desc>
<time>2011-09-24T12:47:29.83</time>
<name>10287</name>
</trkpt>
<trkpt lat="41.802943" lon="-1.732363">
<ele>905.5</ele>
<speed>47.5</speed>
<course>64.5</course>
<desc>Speed 47.5 km/h Distance 51.37 km</desc>
<time>2011-09-24T12:47:30.82</time>
<name>10288</name>
</trkpt>
<trkpt lat="41.803032" lon="-1.732115">
<ele>905.0</ele>
<speed>42.9</speed>
<course>76.6</course>
<desc>Speed 42.9 km/h Distance 51.39 km</desc>
<time>2011-09-24T12:47:32.82</time>
<name>10289</name>
</trkpt>
<trkpt lat="41.803058" lon="-1.731965">
<ele>904.5</ele>
<speed>46.4</speed>
<course>78.2</course>
<desc>Speed 46.4 km/h Distance 51.40 km</desc>
<time>2011-09-24T12:47:33.82</time>
<name>10290</name>
</trkpt>
<trkpt lat="41.803082" lon="-1.731815">
<ele>904.5</ele>
<speed>46.6</speed>
<course>71.5</course>
<desc>Speed 46.6 km/h Distance 51.41 km</desc>
<time>2011-09-24T12:47:34.83</time>
<name>10291</name>
</trkpt>
<trkpt lat="41.803118" lon="-1.731668">
<ele>902.5</ele>
<speed>46.2</speed>
<course>61.6</course>
<desc>Speed 46.2 km/h Distance 51.43 km</desc>
<time>2011-09-24T12:47:35.83</time>
<name>10292</name>
</trkpt>
<trkpt lat="41.803177" lon="-1.731523">
<ele>902.5</ele>
<speed>49.6</speed>
<course>60.4</course>
<desc>Speed 49.6 km/h Distance 51.44 km</desc>
<time>2011-09-24T12:47:36.82</time>
<name>10293</name>
</trkpt>
<trkpt lat="41.803237" lon="-1.731382">
<ele>901.0</ele>
<speed>48.3</speed>
<course>57.5</course>
<desc>Speed 48.3 km/h Distance 51.45 km</desc>
<time>2011-09-24T12:47:37.82</time>
<name>10294</name>
</trkpt>
<trkpt lat="41.803302" lon="-1.731245">
<ele>899.5</ele>
<speed>48.9</speed>
<course>60.7</course>
<desc>Speed 48.9 km/h Distance 51.47 km</desc>
<time>2011-09-24T12:47:38.82</time>
<name>10295</name>
</trkpt>
<trkpt lat="41.803362" lon="-1.731102">
<ele>898.5</ele>
<speed>49.0</speed>
<course>65.0</course>
<desc>Speed 49.0 km/h Distance 51.48 km</desc>
<time>2011-09-24T12:47:39.82</time>
<name>10296</name>
</trkpt>
<trkpt lat="41.803415" lon="-1.730948">
<ele>898.0</ele>
<speed>50.5</speed>
<course>64.8</course>
<desc>Speed 50.5 km/h Distance 51.49 km</desc>
<time>2011-09-24T12:47:40.82</time>
<name>10297</name>
</trkpt>
<trkpt lat="41.803470" lon="-1.730792">
<ele>896.0</ele>
<speed>51.5</speed>
<course>68.1</course>
<desc>Speed 51.5 km/h Distance 51.51 km</desc>
<time>2011-09-24T12:47:41.82</time>
<name>10298</name>
</trkpt>
<trkpt lat="41.803520" lon="-1.730625">
<ele>894.5</ele>
<speed>54.3</speed>
<course>70.3</course>
<desc>Speed 54.3 km/h Distance 51.52 km</desc>
<time>2011-09-24T12:47:42.81</time>
<name>10299</name>
</trkpt>
<trkpt lat="41.803567" lon="-1.730450">
<ele>893.0</ele>
<speed>55.9</speed>
<course>72.6</course>
<desc>Speed 55.9 km/h Distance 51.54 km</desc>
<time>2011-09-24T12:47:43.81</time>
<name>10300</name>
</trkpt>
<trkpt lat="41.803608" lon="-1.730272">
<ele>891.5</ele>
<speed>56.9</speed>
<course>72.6</course>
<desc>Speed 56.9 km/h Distance 51.56 km</desc>
<time>2011-09-24T12:47:44.81</time>
<name>10301</name>
</trkpt>
<trkpt lat="41.803652" lon="-1.730087">
<ele>890.5</ele>
<speed>58.5</speed>
<course>73.6</course>
<desc>Speed 58.5 km/h Distance 51.57 km</desc>
<time>2011-09-24T12:47:45.82</time>
<name>10302</name>
</trkpt>
<trkpt lat="41.803693" lon="-1.729897">
<ele>889.0</ele>
<speed>59.2</speed>
<course>72.2</course>
<desc>Speed 59.2 km/h Distance 51.59 km</desc>
<time>2011-09-24T12:47:46.81</time>
<name>10303</name>
</trkpt>
<trkpt lat="41.803738" lon="-1.729708">
<ele>887.0</ele>
<speed>59.8</speed>
<course>71.9</course>
<desc>Speed 59.8 km/h Distance 51.60 km</desc>
<time>2011-09-24T12:47:47.81</time>
<name>10304</name>
</trkpt>
<trkpt lat="41.803785" lon="-1.729517">
<ele>885.5</ele>
<speed>60.7</speed>
<course>70.7</course>
<desc>Speed 60.7 km/h Distance 51.62 km</desc>
<time>2011-09-24T12:47:48.81</time>
<name>10305</name>
</trkpt>
<trkpt lat="41.803835" lon="-1.729325">
<ele>884.5</ele>
<speed>61.1</speed>
<course>70.4</course>
<desc>Speed 61.1 km/h Distance 51.64 km</desc>
<time>2011-09-24T12:47:49.81</time>
<name>10306</name>
</trkpt>
<trkpt lat="41.803887" lon="-1.729130">
<ele>883.0</ele>
<speed>61.8</speed>
<course>69.7</course>
<desc>Speed 61.8 km/h Distance 51.65 km</desc>
<time>2011-09-24T12:47:50.81</time>
<name>10307</name>
</trkpt>
<trkpt lat="41.803940" lon="-1.728937">
<ele>881.5</ele>
<speed>61.9</speed>
<course>69.5</course>
<desc>Speed 61.9 km/h Distance 51.67 km</desc>
<time>2011-09-24T12:47:51.81</time>
<name>10308</name>
</trkpt>
<trkpt lat="41.803993" lon="-1.728745">
<ele>880.0</ele>
<speed>61.2</speed>
<course>69.0</course>
<desc>Speed 61.2 km/h Distance 51.69 km</desc>
<time>2011-09-24T12:47:52.81</time>
<name>10309</name>
</trkpt>
<trkpt lat="41.804047" lon="-1.728558">
<ele>878.0</ele>
<speed>60.4</speed>
<course>70.2</course>
<desc>Speed 60.4 km/h Distance 51.71 km</desc>
<time>2011-09-24T12:47:53.81</time>
<name>10310</name>
</trkpt>
<trkpt lat="41.804097" lon="-1.728372">
<ele>877.0</ele>
<speed>59.7</speed>
<course>69.6</course>
<desc>Speed 59.7 km/h Distance 51.72 km</desc>
<time>2011-09-24T12:47:54.80</time>
<name>10311</name>
</trkpt>
<trkpt lat="41.804148" lon="-1.728185">
<ele>875.5</ele>
<speed>60.1</speed>
<course>68.9</course>
<desc>Speed 60.1 km/h Distance 51.74 km</desc>
<time>2011-09-24T12:47:55.81</time>
<name>10312</name>
</trkpt>
<trkpt lat="41.804202" lon="-1.728000">
<ele>874.5</ele>
<speed>59.2</speed>
<course>69.6</course>
<desc>Speed 59.2 km/h Distance 51.75 km</desc>
<time>2011-09-24T12:47:56.81</time>
<name>10313</name>
</trkpt>
<trkpt lat="41.804252" lon="-1.727820">
<ele>873.5</ele>
<speed>57.5</speed>
<course>68.4</course>
<desc>Speed 57.5 km/h Distance 51.77 km</desc>
<time>2011-09-24T12:47:57.80</time>
<name>10314</name>
</trkpt>
<trkpt lat="41.804303" lon="-1.727645">
<ele>872.5</ele>
<speed>56.6</speed>
<course>68.0</course>
<desc>Speed 56.6 km/h Distance 51.79 km</desc>
<time>2011-09-24T12:47:58.80</time>
<name>10315</name>
</trkpt>
<trkpt lat="41.804355" lon="-1.727473">
<ele>871.0</ele>
<speed>55.1</speed>
<course>69.8</course>
<desc>Speed 55.1 km/h Distance 51.80 km</desc>
<time>2011-09-24T12:47:59.80</time>
<name>10316</name>
</trkpt>
<trkpt lat="41.804402" lon="-1.727303">
<ele>869.5</ele>
<speed>54.6</speed>
<course>69.8</course>
<desc>Speed 54.6 km/h Distance 51.82 km</desc>
<time>2011-09-24T12:48:00.80</time>
<name>10317</name>
</trkpt>
<trkpt lat="41.804448" lon="-1.727133">
<ele>868.0</ele>
<speed>54.6</speed>
<course>65.9</course>
<desc>Speed 54.6 km/h Distance 51.83 km</desc>
<time>2011-09-24T12:48:01.80</time>
<name>10318</name>
</trkpt>
<trkpt lat="41.804503" lon="-1.726968">
<ele>867.5</ele>
<speed>54.0</speed>
<course>67.6</course>
<desc>Speed 54.0 km/h Distance 51.85 km</desc>
<time>2011-09-24T12:48:02.80</time>
<name>10319</name>
</trkpt>
<trkpt lat="41.804555" lon="-1.726800">
<ele>865.5</ele>
<speed>54.4</speed>
<course>69.4</course>
<desc>Speed 54.4 km/h Distance 51.86 km</desc>
<time>2011-09-24T12:48:03.80</time>
<name>10320</name>
</trkpt>
<trkpt lat="41.804602" lon="-1.726633">
<ele>864.0</ele>
<speed>53.1</speed>
<course>70.3</course>
<desc>Speed 53.1 km/h Distance 51.88 km</desc>
<time>2011-09-24T12:48:04.80</time>
<name>10321</name>
</trkpt>
<trkpt lat="41.804688" lon="-1.726308">
<ele>861.0</ele>
<speed>51.6</speed>
<course>68.4</course>
<desc>Speed 51.6 km/h Distance 51.91 km</desc>
<time>2011-09-24T12:48:07.79</time>
<name>10322</name>
</trkpt>
<trkpt lat="41.804735" lon="-1.726150">
<ele>860.0</ele>
<speed>50.9</speed>
<course>67.1</course>
<desc>Speed 50.9 km/h Distance 51.92 km</desc>
<time>2011-09-24T12:48:08.80</time>
<name>10323</name>
</trkpt>
<trkpt lat="41.804783" lon="-1.725997">
<ele>859.0</ele>
<speed>49.6</speed>
<course>58.0</course>
<desc>Speed 49.6 km/h Distance 51.93 km</desc>
<time>2011-09-24T12:48:09.79</time>
<name>10324</name>
</trkpt>
<trkpt lat="41.804850" lon="-1.725853">
<ele>858.5</ele>
<speed>50.9</speed>
<course>58.1</course>
<desc>Speed 50.9 km/h Distance 51.95 km</desc>
<time>2011-09-24T12:48:10.80</time>
<name>10325</name>
</trkpt>
<trkpt lat="41.804915" lon="-1.725713">
<ele>857.0</ele>
<speed>49.1</speed>
<course>57.8</course>
<desc>Speed 49.1 km/h Distance 51.96 km</desc>
<time>2011-09-24T12:48:11.79</time>
<name>10326</name>
</trkpt>
<trkpt lat="41.804980" lon="-1.725575">
<ele>856.5</ele>
<speed>49.1</speed>
<course>57.1</course>
<desc>Speed 49.1 km/h Distance 51.97 km</desc>
<time>2011-09-24T12:48:12.79</time>
<name>10327</name>
</trkpt>
<trkpt lat="41.805045" lon="-1.725440">
<ele>856.5</ele>
<speed>48.6</speed>
<course>56.1</course>
<desc>Speed 48.6 km/h Distance 51.99 km</desc>
<time>2011-09-24T12:48:13.79</time>
<name>10328</name>
</trkpt>
<trkpt lat="41.805112" lon="-1.725307">
<ele>856.0</ele>
<speed>48.2</speed>
<course>55.8</course>
<desc>Speed 48.2 km/h Distance 52.00 km</desc>
<time>2011-09-24T12:48:14.79</time>
<name>10329</name>
</trkpt>
<trkpt lat="41.805178" lon="-1.725175">
<ele>855.5</ele>
<speed>48.0</speed>
<course>57.8</course>
<desc>Speed 48.0 km/h Distance 52.01 km</desc>
<time>2011-09-24T12:48:15.79</time>
<name>10330</name>
</trkpt>
<trkpt lat="41.805242" lon="-1.725040">
<ele>855.0</ele>
<speed>48.1</speed>
<course>60.8</course>
<desc>Speed 48.1 km/h Distance 52.03 km</desc>
<time>2011-09-24T12:48:16.79</time>
<name>10331</name>
</trkpt>
<trkpt lat="41.805300" lon="-1.724900">
<ele>854.5</ele>
<speed>47.8</speed>
<course>67.4</course>
<desc>Speed 47.8 km/h Distance 52.04 km</desc>
<time>2011-09-24T12:48:17.79</time>
<name>10332</name>
</trkpt>
<trkpt lat="41.805345" lon="-1.724755">
<ele>854.0</ele>
<speed>47.5</speed>
<course>70.7</course>
<desc>Speed 47.5 km/h Distance 52.05 km</desc>
<time>2011-09-24T12:48:18.79</time>
<name>10333</name>
</trkpt>
<trkpt lat="41.805383" lon="-1.724608">
<ele>852.5</ele>
<speed>46.8</speed>
<course>72.6</course>
<desc>Speed 46.8 km/h Distance 52.07 km</desc>
<time>2011-09-24T12:48:19.79</time>
<name>10334</name>
</trkpt>
<trkpt lat="41.805418" lon="-1.724458">
<ele>851.0</ele>
<speed>47.3</speed>
<course>65.9</course>
<desc>Speed 47.3 km/h Distance 52.08 km</desc>
<time>2011-09-24T12:48:20.79</time>
<name>10335</name>
</trkpt>
<trkpt lat="41.805467" lon="-1.724313">
<ele>848.5</ele>
<speed>48.2</speed>
<course>64.4</course>
<desc>Speed 48.2 km/h Distance 52.09 km</desc>
<time>2011-09-24T12:48:21.78</time>
<name>10336</name>
</trkpt>
<trkpt lat="41.805517" lon="-1.724173">
<ele>847.0</ele>
<speed>46.7</speed>
<course>58.2</course>
<desc>Speed 46.7 km/h Distance 52.11 km</desc>
<time>2011-09-24T12:48:22.79</time>
<name>10337</name>
</trkpt>
<trkpt lat="41.805578" lon="-1.724040">
<ele>845.0</ele>
<speed>46.7</speed>
<course>44.8</course>
<desc>Speed 46.7 km/h Distance 52.12 km</desc>
<time>2011-09-24T12:48:23.78</time>
<name>10338</name>
</trkpt>
<trkpt lat="41.805653" lon="-1.723940">
<ele>844.5</ele>
<speed>41.9</speed>
<course>47.0</course>
<desc>Speed 41.9 km/h Distance 52.13 km</desc>
<time>2011-09-24T12:48:24.79</time>
<name>10339</name>
</trkpt>
<trkpt lat="41.805733" lon="-1.723825">
<ele>844.5</ele>
<speed>47.3</speed>
<course>42.3</course>
<desc>Speed 47.3 km/h Distance 52.14 km</desc>
<time>2011-09-24T12:48:25.78</time>
<name>10340</name>
</trkpt>
<trkpt lat="41.805823" lon="-1.723715">
<ele>844.0</ele>
<speed>48.6</speed>
<course>32.8</course>
<desc>Speed 48.6 km/h Distance 52.16 km</desc>
<time>2011-09-24T12:48:26.78</time>
<name>10341</name>
</trkpt>
<trkpt lat="41.805922" lon="-1.723630">
<ele>843.5</ele>
<speed>46.7</speed>
<course>35.3</course>
<desc>Speed 46.7 km/h Distance 52.17 km</desc>
<time>2011-09-24T12:48:27.78</time>
<name>10342</name>
</trkpt>
<trkpt lat="41.806020" lon="-1.723537">
<ele>843.0</ele>
<speed>48.5</speed>
<course>36.7</course>
<desc>Speed 48.5 km/h Distance 52.18 km</desc>
<time>2011-09-24T12:48:28.78</time>
<name>10343</name>
</trkpt>
<trkpt lat="41.806118" lon="-1.723438">
<ele>842.5</ele>
<speed>49.2</speed>
<course>37.6</course>
<desc>Speed 49.2 km/h Distance 52.20 km</desc>
<time>2011-09-24T12:48:29.78</time>
<name>10344</name>
</trkpt>
<trkpt lat="41.806217" lon="-1.723337">
<ele>842.5</ele>
<speed>49.9</speed>
<course>39.4</course>
<desc>Speed 49.9 km/h Distance 52.21 km</desc>
<time>2011-09-24T12:48:30.78</time>
<name>10345</name>
</trkpt>
<trkpt lat="41.806315" lon="-1.723228">
<ele>842.0</ele>
<speed>50.8</speed>
<course>41.7</course>
<desc>Speed 50.8 km/h Distance 52.23 km</desc>
<time>2011-09-24T12:48:31.77</time>
<name>10346</name>
</trkpt>
<trkpt lat="41.806408" lon="-1.723117">
<ele>841.5</ele>
<speed>50.4</speed>
<course>47.6</course>
<desc>Speed 50.4 km/h Distance 52.24 km</desc>
<time>2011-09-24T12:48:32.77</time>
<name>10347</name>
</trkpt>
<trkpt lat="41.806493" lon="-1.722992">
<ele>841.0</ele>
<speed>50.3</speed>
<course>52.7</course>
<desc>Speed 50.3 km/h Distance 52.25 km</desc>
<time>2011-09-24T12:48:33.77</time>
<name>10348</name>
</trkpt>
<trkpt lat="41.806570" lon="-1.722857">
<ele>840.5</ele>
<speed>50.8</speed>
<course>58.0</course>
<desc>Speed 50.8 km/h Distance 52.27 km</desc>
<time>2011-09-24T12:48:34.77</time>
<name>10349</name>
</trkpt>
<trkpt lat="41.806637" lon="-1.722713">
<ele>840.0</ele>
<speed>50.7</speed>
<course>60.6</course>
<desc>Speed 50.7 km/h Distance 52.28 km</desc>
<time>2011-09-24T12:48:35.77</time>
<name>10350</name>
</trkpt>
<trkpt lat="41.806698" lon="-1.722567">
<ele>839.5</ele>
<speed>50.4</speed>
<course>64.1</course>
<desc>Speed 50.4 km/h Distance 52.30 km</desc>
<time>2011-09-24T12:48:36.77</time>
<name>10351</name>
</trkpt>
<trkpt lat="41.806753" lon="-1.722415">
<ele>839.5</ele>
<speed>50.0</speed>
<course>68.9</course>
<desc>Speed 50.0 km/h Distance 52.31 km</desc>
<time>2011-09-24T12:48:37.77</time>
<name>10352</name>
</trkpt>
<trkpt lat="41.806798" lon="-1.722258">
<ele>839.0</ele>
<speed>50.5</speed>
<course>72.2</course>
<desc>Speed 50.5 km/h Distance 52.32 km</desc>
<time>2011-09-24T12:48:38.77</time>
<name>10353</name>
</trkpt>
<trkpt lat="41.806837" lon="-1.722098">
<ele>838.5</ele>
<speed>50.3</speed>
<course>77.5</course>
<desc>Speed 50.3 km/h Distance 52.34 km</desc>
<time>2011-09-24T12:48:39.77</time>
<name>10354</name>
</trkpt>
<trkpt lat="41.806863" lon="-1.721937">
<ele>838.5</ele>
<speed>49.5</speed>
<course>81.3</course>
<desc>Speed 49.5 km/h Distance 52.35 km</desc>
<time>2011-09-24T12:48:40.77</time>
<name>10355</name>
</trkpt>
<trkpt lat="41.806882" lon="-1.721777">
<ele>838.0</ele>
<speed>48.9</speed>
<course>82.2</course>
<desc>Speed 48.9 km/h Distance 52.36 km</desc>
<time>2011-09-24T12:48:41.77</time>
<name>10356</name>
</trkpt>
<trkpt lat="41.806898" lon="-1.721613">
<ele>837.5</ele>
<speed>49.3</speed>
<course>83.7</course>
<desc>Speed 49.3 km/h Distance 52.38 km</desc>
<time>2011-09-24T12:48:42.76</time>
<name>10357</name>
</trkpt>
<trkpt lat="41.806912" lon="-1.721452">
<ele>837.0</ele>
<speed>49.2</speed>
<course>84.6</course>
<desc>Speed 49.2 km/h Distance 52.39 km</desc>
<time>2011-09-24T12:48:43.77</time>
<name>10358</name>
</trkpt>
<trkpt lat="41.806923" lon="-1.721287">
<ele>836.5</ele>
<speed>49.5</speed>
<course>86.1</course>
<desc>Speed 49.5 km/h Distance 52.41 km</desc>
<time>2011-09-24T12:48:44.77</time>
<name>10359</name>
</trkpt>
<trkpt lat="41.806932" lon="-1.721122">
<ele>836.5</ele>
<speed>49.6</speed>
<course>86.1</course>
<desc>Speed 49.6 km/h Distance 52.42 km</desc>
<time>2011-09-24T12:48:45.77</time>
<name>10360</name>
</trkpt>
<trkpt lat="41.806940" lon="-1.720958">
<ele>836.0</ele>
<speed>49.4</speed>
<course>86.1</course>
<desc>Speed 49.4 km/h Distance 52.43 km</desc>
<time>2011-09-24T12:48:46.77</time>
<name>10361</name>
</trkpt>
<trkpt lat="41.806948" lon="-1.720795">
<ele>835.5</ele>
<speed>48.9</speed>
<course>85.2</course>
<desc>Speed 48.9 km/h Distance 52.45 km</desc>
<time>2011-09-24T12:48:47.77</time>
<name>10362</name>
</trkpt>
<trkpt lat="41.806958" lon="-1.720635">
<ele>835.0</ele>
<speed>48.4</speed>
<course>84.3</course>
<desc>Speed 48.4 km/h Distance 52.46 km</desc>
<time>2011-09-24T12:48:48.76</time>
<name>10363</name>
</trkpt>
<trkpt lat="41.806970" lon="-1.720478">
<ele>834.5</ele>
<speed>47.5</speed>
<course>82.4</course>
<desc>Speed 47.5 km/h Distance 52.47 km</desc>
<time>2011-09-24T12:48:49.77</time>
<name>10364</name>
</trkpt>
<trkpt lat="41.806985" lon="-1.720327">
<ele>834.5</ele>
<speed>46.7</speed>
<course>78.1</course>
<desc>Speed 46.7 km/h Distance 52.49 km</desc>
<time>2011-09-24T12:48:50.76</time>
<name>10365</name>
</trkpt>
<trkpt lat="41.807008" lon="-1.720178">
<ele>834.0</ele>
<speed>46.0</speed>
<course>67.2</course>
<desc>Speed 46.0 km/h Distance 52.50 km</desc>
<time>2011-09-24T12:48:51.77</time>
<name>10366</name>
</trkpt>
<trkpt lat="41.807053" lon="-1.720035">
<ele>833.5</ele>
<speed>46.8</speed>
<course>63.0</course>
<desc>Speed 46.8 km/h Distance 52.51 km</desc>
<time>2011-09-24T12:48:52.76</time>
<name>10367</name>
</trkpt>
<trkpt lat="41.807103" lon="-1.719903">
<ele>833.0</ele>
<speed>43.7</speed>
<course>52.0</course>
<desc>Speed 43.7 km/h Distance 52.52 km</desc>
<time>2011-09-24T12:48:53.76</time>
<name>10368</name>
</trkpt>
<trkpt lat="41.807173" lon="-1.719783">
<ele>831.5</ele>
<speed>45.9</speed>
<course>48.6</course>
<desc>Speed 45.9 km/h Distance 52.54 km</desc>
<time>2011-09-24T12:48:54.76</time>
<name>10369</name>
</trkpt>
<trkpt lat="41.807247" lon="-1.719672">
<ele>830.5</ele>
<speed>44.5</speed>
<course>47.5</course>
<desc>Speed 44.5 km/h Distance 52.55 km</desc>
<time>2011-09-24T12:48:55.76</time>
<name>10370</name>
</trkpt>
<trkpt lat="41.807318" lon="-1.719567">
<ele>830.0</ele>
<speed>42.8</speed>
<course>47.1</course>
<desc>Speed 42.8 km/h Distance 52.56 km</desc>
<time>2011-09-24T12:48:56.75</time>
<name>10371</name>
</trkpt>
<trkpt lat="41.807390" lon="-1.719463">
<ele>830.0</ele>
<speed>42.7</speed>
<course>50.5</course>
<desc>Speed 42.7 km/h Distance 52.57 km</desc>
<time>2011-09-24T12:48:57.75</time>
<name>10372</name>
</trkpt>
<trkpt lat="41.807457" lon="-1.719355">
<ele>829.5</ele>
<speed>42.2</speed>
<course>58.1</course>
<desc>Speed 42.2 km/h Distance 52.58 km</desc>
<time>2011-09-24T12:48:58.76</time>
<name>10373</name>
</trkpt>
<trkpt lat="41.807512" lon="-1.719237">
<ele>829.5</ele>
<speed>42.1</speed>
<course>64.5</course>
<desc>Speed 42.1 km/h Distance 52.60 km</desc>
<time>2011-09-24T12:48:59.76</time>
<name>10374</name>
</trkpt>
<trkpt lat="41.807557" lon="-1.719110">
<ele>829.0</ele>
<speed>43.0</speed>
<course>73.8</course>
<desc>Speed 43.0 km/h Distance 52.61 km</desc>
<time>2011-09-24T12:49:00.76</time>
<name>10375</name>
</trkpt>
<trkpt lat="41.807587" lon="-1.718972">
<ele>828.5</ele>
<speed>43.5</speed>
<course>88.1</course>
<desc>Speed 43.5 km/h Distance 52.62 km</desc>
<time>2011-09-24T12:49:01.75</time>
<name>10376</name>
</trkpt>
<trkpt lat="41.807590" lon="-1.718833">
<ele>828.5</ele>
<speed>41.6</speed>
<course>81.9</course>
<desc>Speed 41.6 km/h Distance 52.63 km</desc>
<time>2011-09-24T12:49:02.75</time>
<name>10377</name>
</trkpt>
<trkpt lat="41.807605" lon="-1.718692">
<ele>828.0</ele>
<speed>43.0</speed>
<course>74.1</course>
<desc>Speed 43.0 km/h Distance 52.64 km</desc>
<time>2011-09-24T12:49:03.75</time>
<name>10378</name>
</trkpt>
<trkpt lat="41.807635" lon="-1.718550">
<ele>828.0</ele>
<speed>44.6</speed>
<course>73.1</course>
<desc>Speed 44.6 km/h Distance 52.65 km</desc>
<time>2011-09-24T12:49:04.75</time>
<name>10379</name>
</trkpt>
<trkpt lat="41.807667" lon="-1.718410">
<ele>827.5</ele>
<speed>44.1</speed>
<course>67.0</course>
<desc>Speed 44.1 km/h Distance 52.67 km</desc>
<time>2011-09-24T12:49:05.75</time>
<name>10380</name>
</trkpt>
<trkpt lat="41.807710" lon="-1.718273">
<ele>827.0</ele>
<speed>44.3</speed>
<course>59.4</course>
<desc>Speed 44.3 km/h Distance 52.68 km</desc>
<time>2011-09-24T12:49:06.75</time>
<name>10381</name>
</trkpt>
<trkpt lat="41.807767" lon="-1.718145">
<ele>826.5</ele>
<speed>45.1</speed>
<course>41.2</course>
<desc>Speed 45.1 km/h Distance 52.69 km</desc>
<time>2011-09-24T12:49:07.75</time>
<name>10382</name>
</trkpt>
<trkpt lat="41.807853" lon="-1.718043">
<ele>826.5</ele>
<speed>46.3</speed>
<course>47.6</course>
<desc>Speed 46.3 km/h Distance 52.70 km</desc>
<time>2011-09-24T12:49:08.74</time>
<name>10383</name>
</trkpt>
<trkpt lat="41.807928" lon="-1.717933">
<ele>826.0</ele>
<speed>45.0</speed>
<course>48.6</course>
<desc>Speed 45.0 km/h Distance 52.72 km</desc>
<time>2011-09-24T12:49:09.74</time>
<name>10384</name>
</trkpt>
<trkpt lat="41.808002" lon="-1.717822">
<ele>825.5</ele>
<speed>45.0</speed>
<course>50.5</course>
<desc>Speed 45.0 km/h Distance 52.73 km</desc>
<time>2011-09-24T12:49:10.75</time>
<name>10385</name>
</trkpt>
<trkpt lat="41.808073" lon="-1.717705">
<ele>825.0</ele>
<speed>45.8</speed>
<course>54.3</course>
<desc>Speed 45.8 km/h Distance 52.74 km</desc>
<time>2011-09-24T12:49:11.74</time>
<name>10386</name>
</trkpt>
<trkpt lat="41.808137" lon="-1.717587">
<ele>825.0</ele>
<speed>44.3</speed>
<course>56.5</course>
<desc>Speed 44.3 km/h Distance 52.75 km</desc>
<time>2011-09-24T12:49:12.75</time>
<name>10387</name>
</trkpt>
<trkpt lat="41.808198" lon="-1.717462">
<ele>824.5</ele>
<speed>45.2</speed>
<course>58.2</course>
<desc>Speed 45.2 km/h Distance 52.77 km</desc>
<time>2011-09-24T12:49:13.74</time>
<name>10388</name>
</trkpt>
<trkpt lat="41.808258" lon="-1.717332">
<ele>824.0</ele>
<speed>46.4</speed>
<course>60.6</course>
<desc>Speed 46.4 km/h Distance 52.78 km</desc>
<time>2011-09-24T12:49:14.75</time>
<name>10389</name>
</trkpt>
<trkpt lat="41.808315" lon="-1.717197">
<ele>823.5</ele>
<speed>46.8</speed>
<course>54.6</course>
<desc>Speed 46.8 km/h Distance 52.79 km</desc>
<time>2011-09-24T12:49:15.74</time>
<name>10390</name>
</trkpt>
<trkpt lat="41.808388" lon="-1.717058">
<ele>823.0</ele>
<speed>51.4</speed>
<course>65.1</course>
<desc>Speed 51.4 km/h Distance 52.81 km</desc>
<time>2011-09-24T12:49:16.74</time>
<name>10391</name>
</trkpt>
<trkpt lat="41.808482" lon="-1.716788">
<ele>821.5</ele>
<speed>45.6</speed>
<course>66.9</course>
<desc>Speed 45.6 km/h Distance 52.83 km</desc>
<time>2011-09-24T12:49:18.74</time>
<name>10392</name>
</trkpt>
<trkpt lat="41.808527" lon="-1.716647">
<ele>820.0</ele>
<speed>46.4</speed>
<course>69.3</course>
<desc>Speed 46.4 km/h Distance 52.84 km</desc>
<time>2011-09-24T12:49:19.74</time>
<name>10393</name>
</trkpt>
<trkpt lat="41.808567" lon="-1.716505">
<ele>819.0</ele>
<speed>45.8</speed>
<course>71.3</course>
<desc>Speed 45.8 km/h Distance 52.86 km</desc>
<time>2011-09-24T12:49:20.74</time>
<name>10394</name>
</trkpt>
<trkpt lat="41.808603" lon="-1.716360">
<ele>818.0</ele>
<speed>46.2</speed>
<course>72.8</course>
<desc>Speed 46.2 km/h Distance 52.87 km</desc>
<time>2011-09-24T12:49:21.74</time>
<name>10395</name>
</trkpt>
<trkpt lat="41.808638" lon="-1.716208">
<ele>817.5</ele>
<speed>47.1</speed>
<course>73.4</course>
<desc>Speed 47.1 km/h Distance 52.88 km</desc>
<time>2011-09-24T12:49:22.74</time>
<name>10396</name>
</trkpt>
<trkpt lat="41.808672" lon="-1.716058">
<ele>816.5</ele>
<speed>47.1</speed>
<course>71.7</course>
<desc>Speed 47.1 km/h Distance 52.89 km</desc>
<time>2011-09-24T12:49:23.73</time>
<name>10397</name>
</trkpt>
<trkpt lat="41.808708" lon="-1.715910">
<ele>815.0</ele>
<speed>47.2</speed>
<course>72.4</course>
<desc>Speed 47.2 km/h Distance 52.91 km</desc>
<time>2011-09-24T12:49:24.74</time>
<name>10398</name>
</trkpt>
<trkpt lat="41.808743" lon="-1.715762">
<ele>814.5</ele>
<speed>47.2</speed>
<course>73.0</course>
<desc>Speed 47.2 km/h Distance 52.92 km</desc>
<time>2011-09-24T12:49:25.73</time>
<name>10399</name>
</trkpt>
<trkpt lat="41.808777" lon="-1.715615">
<ele>814.0</ele>
<speed>46.3</speed>
<course>71.9</course>
<desc>Speed 46.3 km/h Distance 52.93 km</desc>
<time>2011-09-24T12:49:26.73</time>
<name>10400</name>
</trkpt>
<trkpt lat="41.808812" lon="-1.715472">
<ele>813.5</ele>
<speed>45.8</speed>
<course>74.3</course>
<desc>Speed 45.8 km/h Distance 52.95 km</desc>
<time>2011-09-24T12:49:27.73</time>
<name>10401</name>
</trkpt>
<trkpt lat="41.808842" lon="-1.715328">
<ele>812.5</ele>
<speed>44.4</speed>
<course>74.6</course>
<desc>Speed 44.4 km/h Distance 52.96 km</desc>
<time>2011-09-24T12:49:28.74</time>
<name>10402</name>
</trkpt>
<trkpt lat="41.808870" lon="-1.715190">
<ele>811.5</ele>
<speed>43.4</speed>
<course>74.3</course>
<desc>Speed 43.4 km/h Distance 52.97 km</desc>
<time>2011-09-24T12:49:29.73</time>
<name>10403</name>
</trkpt>
<trkpt lat="41.808898" lon="-1.715055">
<ele>810.5</ele>
<speed>42.5</speed>
<course>72.5</course>
<desc>Speed 42.5 km/h Distance 52.98 km</desc>
<time>2011-09-24T12:49:30.73</time>
<name>10404</name>
</trkpt>
<trkpt lat="41.808930" lon="-1.714920">
<ele>810.0</ele>
<speed>42.3</speed>
<course>64.8</course>
<desc>Speed 42.3 km/h Distance 52.99 km</desc>
<time>2011-09-24T12:49:31.73</time>
<name>10405</name>
</trkpt>
<trkpt lat="41.808977" lon="-1.714787">
<ele>808.5</ele>
<speed>44.2</speed>
<course>53.7</course>
<desc>Speed 44.2 km/h Distance 53.01 km</desc>
<time>2011-09-24T12:49:32.73</time>
<name>10406</name>
</trkpt>
<trkpt lat="41.809033" lon="-1.714683">
<ele>808.0</ele>
<speed>38.1</speed>
<course>61.9</course>
<desc>Speed 38.1 km/h Distance 53.02 km</desc>
<time>2011-09-24T12:49:33.73</time>
<name>10407</name>
</trkpt>
<trkpt lat="41.809082" lon="-1.714562">
<ele>807.5</ele>
<speed>41.5</speed>
<course>56.1</course>
<desc>Speed 41.5 km/h Distance 53.03 km</desc>
<time>2011-09-24T12:49:34.73</time>
<name>10408</name>
</trkpt>
<trkpt lat="41.809138" lon="-1.714448">
<ele>807.0</ele>
<speed>41.6</speed>
<course>41.5</course>
<desc>Speed 41.6 km/h Distance 53.04 km</desc>
<time>2011-09-24T12:49:35.73</time>
<name>10409</name>
</trkpt>
<trkpt lat="41.809210" lon="-1.714363">
<ele>806.5</ele>
<speed>38.1</speed>
<course>46.6</course>
<desc>Speed 38.1 km/h Distance 53.05 km</desc>
<time>2011-09-24T12:49:36.72</time>
<name>10410</name>
</trkpt>
<trkpt lat="41.809282" lon="-1.714262">
<ele>806.0</ele>
<speed>41.9</speed>
<course>44.3</course>
<desc>Speed 41.9 km/h Distance 53.06 km</desc>
<time>2011-09-24T12:49:37.73</time>
<name>10411</name>
</trkpt>
<trkpt lat="41.809357" lon="-1.714163">
<ele>806.0</ele>
<speed>42.0</speed>
<course>35.5</course>
<desc>Speed 42.0 km/h Distance 53.07 km</desc>
<time>2011-09-24T12:49:38.72</time>
<name>10412</name>
</trkpt>
<trkpt lat="41.809437" lon="-1.714087">
<ele>805.5</ele>
<speed>39.3</speed>
<course>49.5</course>
<desc>Speed 39.3 km/h Distance 53.08 km</desc>
<time>2011-09-24T12:49:39.73</time>
<name>10413</name>
</trkpt>
<trkpt lat="41.809507" lon="-1.713977">
<ele>805.5</ele>
<speed>43.5</speed>
<course>47.3</course>
<desc>Speed 43.5 km/h Distance 53.10 km</desc>
<time>2011-09-24T12:49:40.72</time>
<name>10414</name>
</trkpt>
<trkpt lat="41.809577" lon="-1.713875">
<ele>805.0</ele>
<speed>41.4</speed>
<course>51.7</course>
<desc>Speed 41.4 km/h Distance 53.11 km</desc>
<time>2011-09-24T12:49:41.72</time>
<name>10415</name>
</trkpt>
<trkpt lat="41.809643" lon="-1.713762">
<ele>803.0</ele>
<speed>43.7</speed>
<course>54.2</course>
<desc>Speed 43.7 km/h Distance 53.12 km</desc>
<time>2011-09-24T12:49:42.73</time>
<name>10416</name>
</trkpt>
<trkpt lat="41.809703" lon="-1.713650">
<ele>802.0</ele>
<speed>41.3</speed>
<course>56.9</course>
<desc>Speed 41.3 km/h Distance 53.13 km</desc>
<time>2011-09-24T12:49:43.72</time>
<name>10417</name>
</trkpt>
<trkpt lat="41.809760" lon="-1.713533">
<ele>801.5</ele>
<speed>41.7</speed>
<course>58.8</course>
<desc>Speed 41.7 km/h Distance 53.14 km</desc>
<time>2011-09-24T12:49:44.71</time>
<name>10418</name>
</trkpt>
<trkpt lat="41.809813" lon="-1.713415">
<ele>800.5</ele>
<speed>41.8</speed>
<course>60.3</course>
<desc>Speed 41.8 km/h Distance 53.15 km</desc>
<time>2011-09-24T12:49:45.72</time>
<name>10419</name>
</trkpt>
<trkpt lat="41.809865" lon="-1.713293">
<ele>799.5</ele>
<speed>42.4</speed>
<course>67.4</course>
<desc>Speed 42.4 km/h Distance 53.16 km</desc>
<time>2011-09-24T12:49:46.72</time>
<name>10420</name>
</trkpt>
<trkpt lat="41.809903" lon="-1.713170">
<ele>799.5</ele>
<speed>40.4</speed>
<course>60.9</course>
<desc>Speed 40.4 km/h Distance 53.18 km</desc>
<time>2011-09-24T12:49:47.72</time>
<name>10421</name>
</trkpt>
<trkpt lat="41.809957" lon="-1.713042">
<ele>799.0</ele>
<speed>43.9</speed>
<course>63.6</course>
<desc>Speed 43.9 km/h Distance 53.19 km</desc>
<time>2011-09-24T12:49:48.71</time>
<name>10422</name>
</trkpt>
<trkpt lat="41.810007" lon="-1.712907">
<ele>798.5</ele>
<speed>45.3</speed>
<course>62.4</course>
<desc>Speed 45.3 km/h Distance 53.20 km</desc>
<time>2011-09-24T12:49:49.72</time>
<name>10423</name>
</trkpt>
<trkpt lat="41.810060" lon="-1.712770">
<ele>798.0</ele>
<speed>46.4</speed>
<course>61.6</course>
<desc>Speed 46.4 km/h Distance 53.21 km</desc>
<time>2011-09-24T12:49:50.72</time>
<name>10424</name>
</trkpt>
<trkpt lat="41.810115" lon="-1.712633">
<ele>796.5</ele>
<speed>46.5</speed>
<course>59.9</course>
<desc>Speed 46.5 km/h Distance 53.23 km</desc>
<time>2011-09-24T12:49:51.71</time>
<name>10425</name>
</trkpt>
<trkpt lat="41.810173" lon="-1.712498">
<ele>795.0</ele>
<speed>46.7</speed>
<course>59.3</course>
<desc>Speed 46.7 km/h Distance 53.24 km</desc>
<time>2011-09-24T12:49:52.71</time>
<name>10426</name>
</trkpt>
<trkpt lat="41.810232" lon="-1.712367">
<ele>793.5</ele>
<speed>46.0</speed>
<course>58.3</course>
<desc>Speed 46.0 km/h Distance 53.25 km</desc>
<time>2011-09-24T12:49:53.71</time>
<name>10427</name>
</trkpt>
<trkpt lat="41.810290" lon="-1.712240">
<ele>792.5</ele>
<speed>44.9</speed>
<course>59.0</course>
<desc>Speed 44.9 km/h Distance 53.26 km</desc>
<time>2011-09-24T12:49:54.71</time>
<name>10428</name>
</trkpt>
<trkpt lat="41.810348" lon="-1.712110">
<ele>791.5</ele>
<speed>45.1</speed>
<course>62.9</course>
<desc>Speed 45.1 km/h Distance 53.28 km</desc>
<time>2011-09-24T12:49:55.71</time>
<name>10429</name>
</trkpt>
<trkpt lat="41.810450" lon="-1.711843">
<ele>790.5</ele>
<speed>44.6</speed>
<course>61.9</course>
<desc>Speed 44.6 km/h Distance 53.30 km</desc>
<time>2011-09-24T12:49:57.71</time>
<name>10430</name>
</trkpt>
<trkpt lat="41.810553" lon="-1.711583">
<ele>788.5</ele>
<speed>44.2</speed>
<course>60.9</course>
<desc>Speed 44.2 km/h Distance 53.33 km</desc>
<time>2011-09-24T12:49:59.71</time>
<name>10431</name>
</trkpt>
<trkpt lat="41.810658" lon="-1.711330">
<ele>786.0</ele>
<speed>43.2</speed>
<course>61.8</course>
<desc>Speed 43.2 km/h Distance 53.35 km</desc>
<time>2011-09-24T12:50:01.71</time>
<name>10432</name>
</trkpt>
<trkpt lat="41.810758" lon="-1.711080">
<ele>785.0</ele>
<speed>42.8</speed>
<course>62.2</course>
<desc>Speed 42.8 km/h Distance 53.37 km</desc>
<time>2011-09-24T12:50:03.70</time>
<name>10433</name>
</trkpt>
<trkpt lat="41.810857" lon="-1.710830">
<ele>784.0</ele>
<speed>42.2</speed>
<course>62.7</course>
<desc>Speed 42.2 km/h Distance 53.40 km</desc>
<time>2011-09-24T12:50:05.70</time>
<name>10434</name>
</trkpt>
<trkpt lat="41.810948" lon="-1.710592">
<ele>783.0</ele>
<speed>40.3</speed>
<course>62.3</course>
<desc>Speed 40.3 km/h Distance 53.42 km</desc>
<time>2011-09-24T12:50:07.70</time>
<name>10435</name>
</trkpt>
<trkpt lat="41.811038" lon="-1.710362">
<ele>782.0</ele>
<speed>38.8</speed>
<course>50.5</course>
<desc>Speed 38.8 km/h Distance 53.44 km</desc>
<time>2011-09-24T12:50:09.69</time>
<name>10436</name>
</trkpt>
<trkpt lat="41.811163" lon="-1.710158">
<ele>772.0</ele>
<speed>37.5</speed>
<course>64.1</course>
<desc>Speed 37.5 km/h Distance 53.46 km</desc>
<time>2011-09-24T12:50:11.70</time>
<name>10437</name>
</trkpt>
<trkpt lat="41.811242" lon="-1.709942">
<ele>770.5</ele>
<speed>36.7</speed>
<course>65.1</course>
<desc>Speed 36.7 km/h Distance 53.48 km</desc>
<time>2011-09-24T12:50:13.70</time>
<name>10438</name>
</trkpt>
<trkpt lat="41.811320" lon="-1.709715">
<ele>769.0</ele>
<speed>38.1</speed>
<course>67.4</course>
<desc>Speed 38.1 km/h Distance 53.50 km</desc>
<time>2011-09-24T12:50:15.70</time>
<name>10439</name>
</trkpt>
<trkpt lat="41.811393" lon="-1.709478">
<ele>767.5</ele>
<speed>39.0</speed>
<course>71.8</course>
<desc>Speed 39.0 km/h Distance 53.53 km</desc>
<time>2011-09-24T12:50:17.69</time>
<name>10440</name>
</trkpt>
<trkpt lat="41.811455" lon="-1.709227">
<ele>766.0</ele>
<speed>39.9</speed>
<course>76.3</course>
<desc>Speed 39.9 km/h Distance 53.55 km</desc>
<time>2011-09-24T12:50:19.69</time>
<name>10441</name>
</trkpt>
<trkpt lat="41.811502" lon="-1.708970">
<ele>765.0</ele>
<speed>40.0</speed>
<course>82.3</course>
<desc>Speed 40.0 km/h Distance 53.57 km</desc>
<time>2011-09-24T12:50:21.69</time>
<name>10442</name>
</trkpt>
<trkpt lat="41.811528" lon="-1.708705">
<ele>764.0</ele>
<speed>40.6</speed>
<course>86.2</course>
<desc>Speed 40.6 km/h Distance 53.59 km</desc>
<time>2011-09-24T12:50:23.69</time>
<name>10443</name>
</trkpt>
<trkpt lat="41.811535" lon="-1.708572">
<ele>764.0</ele>
<speed>40.6</speed>
<course>83.5</course>
<desc>Speed 40.6 km/h Distance 53.60 km</desc>
<time>2011-09-24T12:50:24.69</time>
<name>10444</name>
</trkpt>
<trkpt lat="41.811547" lon="-1.708435">
<ele>764.0</ele>
<speed>41.0</speed>
<course>88.1</course>
<desc>Speed 41.0 km/h Distance 53.61 km</desc>
<time>2011-09-24T12:50:25.69</time>
<name>10445</name>
</trkpt>
<trkpt lat="41.811553" lon="-1.708160">
<ele>763.5</ele>
<speed>41.7</speed>
<course>88.1</course>
<desc>Speed 41.7 km/h Distance 53.64 km</desc>
<time>2011-09-24T12:50:27.69</time>
<name>10446</name>
</trkpt>
<trkpt lat="41.811557" lon="-1.708022">
<ele>763.5</ele>
<speed>41.5</speed>
<course>89.1</course>
<desc>Speed 41.5 km/h Distance 53.65 km</desc>
<time>2011-09-24T12:50:28.69</time>
<name>10447</name>
</trkpt>
<trkpt lat="41.811558" lon="-1.707882">
<ele>763.0</ele>
<speed>41.6</speed>
<course>90.0</course>
<desc>Speed 41.6 km/h Distance 53.66 km</desc>
<time>2011-09-24T12:50:29.69</time>
<name>10448</name>
</trkpt>
<trkpt lat="41.811558" lon="-1.707743">
<ele>763.0</ele>
<speed>41.8</speed>
<course>88.1</course>
<desc>Speed 41.8 km/h Distance 53.67 km</desc>
<time>2011-09-24T12:50:30.68</time>
<name>10449</name>
</trkpt>
<trkpt lat="41.811562" lon="-1.707605">
<ele>762.5</ele>
<speed>41.6</speed>
<course>87.3</course>
<desc>Speed 41.6 km/h Distance 53.68 km</desc>
<time>2011-09-24T12:50:31.68</time>
<name>10450</name>
</trkpt>
<trkpt lat="41.811567" lon="-1.707465">
<ele>762.0</ele>
<speed>42.2</speed>
<course>88.2</course>
<desc>Speed 42.2 km/h Distance 53.69 km</desc>
<time>2011-09-24T12:50:32.69</time>
<name>10451</name>
</trkpt>
<trkpt lat="41.811573" lon="-1.707183">
<ele>761.0</ele>
<speed>42.6</speed>
<course>88.2</course>
<desc>Speed 42.6 km/h Distance 53.72 km</desc>
<time>2011-09-24T12:50:34.68</time>
<name>10452</name>
</trkpt>
<trkpt lat="41.811577" lon="-1.707042">
<ele>760.5</ele>
<speed>42.5</speed>
<course>86.3</course>
<desc>Speed 42.5 km/h Distance 53.73 km</desc>
<time>2011-09-24T12:50:35.68</time>
<name>10453</name>
</trkpt>
<trkpt lat="41.811583" lon="-1.706902">
<ele>759.5</ele>
<speed>42.1</speed>
<course>89.1</course>
<desc>Speed 42.1 km/h Distance 53.74 km</desc>
<time>2011-09-24T12:50:36.70</time>
<name>10454</name>
</trkpt>
<trkpt lat="41.811587" lon="-1.706625">
<ele>759.0</ele>
<speed>41.6</speed>
<course>88.1</course>
<desc>Speed 41.6 km/h Distance 53.76 km</desc>
<time>2011-09-24T12:50:38.69</time>
<name>10455</name>
</trkpt>
<trkpt lat="41.811590" lon="-1.706488">
<ele>758.5</ele>
<speed>40.9</speed>
<course>87.1</course>
<desc>Speed 40.9 km/h Distance 53.78 km</desc>
<time>2011-09-24T12:50:39.68</time>
<name>10456</name>
</trkpt>
<trkpt lat="41.811600" lon="-1.706222">
<ele>757.5</ele>
<speed>40.3</speed>
<course>87.1</course>
<desc>Speed 40.3 km/h Distance 53.80 km</desc>
<time>2011-09-24T12:50:41.68</time>
<name>10457</name>
</trkpt>
<trkpt lat="41.811605" lon="-1.706088">
<ele>756.5</ele>
<speed>40.3</speed>
<course>84.3</course>
<desc>Speed 40.3 km/h Distance 53.81 km</desc>
<time>2011-09-24T12:50:42.68</time>
<name>10458</name>
</trkpt>
<trkpt lat="41.811615" lon="-1.705955">
<ele>756.0</ele>
<speed>40.2</speed>
<course>85.2</course>
<desc>Speed 40.2 km/h Distance 53.82 km</desc>
<time>2011-09-24T12:50:43.68</time>
<name>10459</name>
</trkpt>
<trkpt lat="41.811623" lon="-1.705822">
<ele>755.5</ele>
<speed>39.7</speed>
<course>91.0</course>
<desc>Speed 39.7 km/h Distance 53.83 km</desc>
<time>2011-09-24T12:50:44.68</time>
<name>10460</name>
</trkpt>
<trkpt lat="41.811622" lon="-1.705688">
<ele>755.0</ele>
<speed>39.9</speed>
<course>89.1</course>
<desc>Speed 39.9 km/h Distance 53.84 km</desc>
<time>2011-09-24T12:50:45.68</time>
<name>10461</name>
</trkpt>
<trkpt lat="41.811625" lon="-1.705413">
<ele>754.0</ele>
<speed>41.7</speed>
<course>88.2</course>
<desc>Speed 41.7 km/h Distance 53.86 km</desc>
<time>2011-09-24T12:50:47.68</time>
<name>10462</name>
</trkpt>
<trkpt lat="41.811628" lon="-1.705273">
<ele>753.0</ele>
<speed>42.1</speed>
<course>88.2</course>
<desc>Speed 42.1 km/h Distance 53.88 km</desc>
<time>2011-09-24T12:50:48.68</time>
<name>10463</name>
</trkpt>
<trkpt lat="41.811632" lon="-1.705130">
<ele>752.5</ele>
<speed>42.9</speed>
<course>89.1</course>
<desc>Speed 42.9 km/h Distance 53.89 km</desc>
<time>2011-09-24T12:50:49.68</time>
<name>10464</name>
</trkpt>
<trkpt lat="41.811633" lon="-1.704987">
<ele>751.5</ele>
<speed>43.1</speed>
<course>87.3</course>
<desc>Speed 43.1 km/h Distance 53.90 km</desc>
<time>2011-09-24T12:50:50.67</time>
<name>10465</name>
</trkpt>
<trkpt lat="41.811638" lon="-1.704843">
<ele>751.0</ele>
<speed>42.8</speed>
<course>85.4</course>
<desc>Speed 42.8 km/h Distance 53.91 km</desc>
<time>2011-09-24T12:50:51.67</time>
<name>10466</name>
</trkpt>
<trkpt lat="41.811647" lon="-1.704705">
<ele>750.5</ele>
<speed>42.2</speed>
<course>81.6</course>
<desc>Speed 42.2 km/h Distance 53.92 km</desc>
<time>2011-09-24T12:50:52.67</time>
<name>10467</name>
</trkpt>
<trkpt lat="41.811662" lon="-1.704568">
<ele>749.5</ele>
<speed>41.6</speed>
<course>75.0</course>
<desc>Speed 41.6 km/h Distance 53.93 km</desc>
<time>2011-09-24T12:50:53.67</time>
<name>10468</name>
</trkpt>
<trkpt lat="41.811688" lon="-1.704435">
<ele>749.5</ele>
<speed>41.3</speed>
<course>67.9</course>
<desc>Speed 41.3 km/h Distance 53.95 km</desc>
<time>2011-09-24T12:50:54.67</time>
<name>10469</name>
</trkpt>
<trkpt lat="41.811727" lon="-1.704308">
<ele>749.0</ele>
<speed>40.7</speed>
<course>60.4</course>
<desc>Speed 40.7 km/h Distance 53.96 km</desc>
<time>2011-09-24T12:50:55.67</time>
<name>10470</name>
</trkpt>
<trkpt lat="41.811823" lon="-1.704080">
<ele>747.5</ele>
<speed>39.0</speed>
<course>53.7</course>
<desc>Speed 39.0 km/h Distance 53.98 km</desc>
<time>2011-09-24T12:50:57.67</time>
<name>10471</name>
</trkpt>
<trkpt lat="41.811882" lon="-1.703973">
<ele>747.0</ele>
<speed>39.3</speed>
<course>52.5</course>
<desc>Speed 39.3 km/h Distance 53.99 km</desc>
<time>2011-09-24T12:50:58.67</time>
<name>10472</name>
</trkpt>
<trkpt lat="41.811942" lon="-1.703868">
<ele>746.5</ele>
<speed>39.3</speed>
<course>52.1</course>
<desc>Speed 39.3 km/h Distance 54.00 km</desc>
<time>2011-09-24T12:50:59.67</time>
<name>10473</name>
</trkpt>
<trkpt lat="41.812002" lon="-1.703765">
<ele>746.0</ele>
<speed>39.3</speed>
<course>53.7</course>
<desc>Speed 39.3 km/h Distance 54.01 km</desc>
<time>2011-09-24T12:51:00.67</time>
<name>10474</name>
</trkpt>
<trkpt lat="41.812060" lon="-1.703658">
<ele>745.5</ele>
<speed>39.4</speed>
<course>54.5</course>
<desc>Speed 39.4 km/h Distance 54.02 km</desc>
<time>2011-09-24T12:51:01.66</time>
<name>10475</name>
</trkpt>
<trkpt lat="41.812117" lon="-1.703552">
<ele>745.0</ele>
<speed>39.3</speed>
<course>57.0</course>
<desc>Speed 39.3 km/h Distance 54.03 km</desc>
<time>2011-09-24T12:51:02.67</time>
<name>10476</name>
</trkpt>
<trkpt lat="41.812170" lon="-1.703442">
<ele>744.5</ele>
<speed>39.2</speed>
<course>61.4</course>
<desc>Speed 39.2 km/h Distance 54.05 km</desc>
<time>2011-09-24T12:51:03.66</time>
<name>10477</name>
</trkpt>
<trkpt lat="41.812217" lon="-1.703327">
<ele>744.0</ele>
<speed>38.8</speed>
<course>63.1</course>
<desc>Speed 38.8 km/h Distance 54.06 km</desc>
<time>2011-09-24T12:51:04.66</time>
<name>10478</name>
</trkpt>
<trkpt lat="41.812258" lon="-1.703217">
<ele>742.5</ele>
<speed>38.4</speed>
<course>66.5</course>
<desc>Speed 38.4 km/h Distance 54.07 km</desc>
<time>2011-09-24T12:51:05.67</time>
<name>10479</name>
</trkpt>
<trkpt lat="41.812297" lon="-1.703098">
<ele>741.5</ele>
<speed>38.5</speed>
<course>66.5</course>
<desc>Speed 38.5 km/h Distance 54.08 km</desc>
<time>2011-09-24T12:51:06.66</time>
<name>10480</name>
</trkpt>
<trkpt lat="41.812335" lon="-1.702980">
<ele>739.5</ele>
<speed>39.1</speed>
<course>66.5</course>
<desc>Speed 39.1 km/h Distance 54.09 km</desc>
<time>2011-09-24T12:51:07.66</time>
<name>10481</name>
</trkpt>
<trkpt lat="41.812373" lon="-1.702862">
<ele>737.5</ele>
<speed>38.8</speed>
<course>68.4</course>
<desc>Speed 38.8 km/h Distance 54.10 km</desc>
<time>2011-09-24T12:51:08.66</time>
<name>10482</name>
</trkpt>
<trkpt lat="41.812408" lon="-1.702743">
<ele>736.0</ele>
<speed>38.6</speed>
<course>71.7</course>
<desc>Speed 38.6 km/h Distance 54.11 km</desc>
<time>2011-09-24T12:51:09.66</time>
<name>10483</name>
</trkpt>
<trkpt lat="41.812438" lon="-1.702622">
<ele>735.0</ele>
<speed>38.7</speed>
<course>71.9</course>
<desc>Speed 38.7 km/h Distance 54.12 km</desc>
<time>2011-09-24T12:51:10.66</time>
<name>10484</name>
</trkpt>
<trkpt lat="41.812468" lon="-1.702498">
<ele>734.0</ele>
<speed>38.9</speed>
<course>69.0</course>
<desc>Speed 38.9 km/h Distance 54.13 km</desc>
<time>2011-09-24T12:51:11.66</time>
<name>10485</name>
</trkpt>
<trkpt lat="41.812502" lon="-1.702382">
<ele>732.5</ele>
<speed>38.9</speed>
<course>70.5</course>
<desc>Speed 38.9 km/h Distance 54.14 km</desc>
<time>2011-09-24T12:51:12.66</time>
<name>10486</name>
</trkpt>
<trkpt lat="41.812533" lon="-1.702262">
<ele>731.5</ele>
<speed>38.4</speed>
<course>71.7</course>
<desc>Speed 38.4 km/h Distance 54.15 km</desc>
<time>2011-09-24T12:51:13.66</time>
<name>10487</name>
</trkpt>
<trkpt lat="41.812563" lon="-1.702140">
<ele>730.5</ele>
<speed>38.6</speed>
<course>71.5</course>
<desc>Speed 38.6 km/h Distance 54.16 km</desc>
<time>2011-09-24T12:51:14.66</time>
<name>10488</name>
</trkpt>
<trkpt lat="41.812593" lon="-1.702020">
<ele>730.0</ele>
<speed>38.6</speed>
<course>70.5</course>
<desc>Speed 38.6 km/h Distance 54.17 km</desc>
<time>2011-09-24T12:51:15.66</time>
<name>10489</name>
</trkpt>
<trkpt lat="41.812625" lon="-1.701900">
<ele>729.0</ele>
<speed>38.6</speed>
<course>68.7</course>
<desc>Speed 38.6 km/h Distance 54.18 km</desc>
<time>2011-09-24T12:51:16.65</time>
<name>10490</name>
</trkpt>
<trkpt lat="41.812658" lon="-1.701785">
<ele>728.0</ele>
<speed>37.8</speed>
<course>69.7</course>
<desc>Speed 37.8 km/h Distance 54.19 km</desc>
<time>2011-09-24T12:51:17.65</time>
<name>10491</name>
</trkpt>
<trkpt lat="41.812690" lon="-1.701670">
<ele>727.0</ele>
<speed>37.3</speed>
<course>73.0</course>
<desc>Speed 37.3 km/h Distance 54.20 km</desc>
<time>2011-09-24T12:51:18.66</time>
<name>10492</name>
</trkpt>
<trkpt lat="41.812717" lon="-1.701553">
<ele>726.5</ele>
<speed>36.8</speed>
<course>76.0</course>
<desc>Speed 36.8 km/h Distance 54.21 km</desc>
<time>2011-09-24T12:51:19.65</time>
<name>10493</name>
</trkpt>
<trkpt lat="41.812738" lon="-1.701437">
<ele>726.0</ele>
<speed>36.5</speed>
<course>81.5</course>
<desc>Speed 36.5 km/h Distance 54.22 km</desc>
<time>2011-09-24T12:51:20.65</time>
<name>10494</name>
</trkpt>
<trkpt lat="41.812752" lon="-1.701317">
<ele>725.5</ele>
<speed>36.3</speed>
<course>93.2</course>
<desc>Speed 36.3 km/h Distance 54.23 km</desc>
<time>2011-09-24T12:51:21.65</time>
<name>10495</name>
</trkpt>
<trkpt lat="41.812747" lon="-1.701198">
<ele>724.5</ele>
<speed>36.0</speed>
<course>122.3</course>
<desc>Speed 36.0 km/h Distance 54.24 km</desc>
<time>2011-09-24T12:51:22.65</time>
<name>10496</name>
</trkpt>
<trkpt lat="41.812693" lon="-1.701085">
<ele>725.0</ele>
<speed>40.2</speed>
<course>122.9</course>
<desc>Speed 40.2 km/h Distance 54.25 km</desc>
<time>2011-09-24T12:51:23.65</time>
<name>10497</name>
</trkpt>
<trkpt lat="41.812647" lon="-1.700988">
<ele>724.0</ele>
<speed>35.0</speed>
<course>141.5</course>
<desc>Speed 35.0 km/h Distance 54.26 km</desc>
<time>2011-09-24T12:51:24.65</time>
<name>10498</name>
</trkpt>
<trkpt lat="41.812572" lon="-1.700908">
<ele>723.5</ele>
<speed>38.9</speed>
<course>151.2</course>
<desc>Speed 38.9 km/h Distance 54.27 km</desc>
<time>2011-09-24T12:51:25.65</time>
<name>10499</name>
</trkpt>
<trkpt lat="41.812495" lon="-1.700852">
<ele>722.5</ele>
<speed>36.3</speed>
<course>156.6</course>
<desc>Speed 36.3 km/h Distance 54.28 km</desc>
<time>2011-09-24T12:51:26.65</time>
<name>10500</name>
</trkpt>
<trkpt lat="41.812412" lon="-1.700803">
<ele>722.0</ele>
<speed>36.6</speed>
<course>157.7</course>
<desc>Speed 36.6 km/h Distance 54.29 km</desc>
<time>2011-09-24T12:51:27.65</time>
<name>10501</name>
</trkpt>
<trkpt lat="41.812327" lon="-1.700757">
<ele>721.5</ele>
<speed>36.8</speed>
<course>155.9</course>
<desc>Speed 36.8 km/h Distance 54.30 km</desc>
<time>2011-09-24T12:51:28.65</time>
<name>10502</name>
</trkpt>
<trkpt lat="41.812243" lon="-1.700707">
<ele>721.0</ele>
<speed>37.1</speed>
<course>158.5</course>
<desc>Speed 37.1 km/h Distance 54.31 km</desc>
<time>2011-09-24T12:51:29.65</time>
<name>10503</name>
</trkpt>
<trkpt lat="41.812158" lon="-1.700662">
<ele>721.0</ele>
<speed>36.8</speed>
<course>158.5</course>
<desc>Speed 36.8 km/h Distance 54.32 km</desc>
<time>2011-09-24T12:51:30.65</time>
<name>10504</name>
</trkpt>
<trkpt lat="41.812073" lon="-1.700617">
<ele>720.5</ele>
<speed>36.6</speed>
<course>156.6</course>
<desc>Speed 36.6 km/h Distance 54.34 km</desc>
<time>2011-09-24T12:51:31.65</time>
<name>10505</name>
</trkpt>
<trkpt lat="41.811990" lon="-1.700568">
<ele>720.5</ele>
<speed>36.5</speed>
<course>158.8</course>
<desc>Speed 36.5 km/h Distance 54.35 km</desc>
<time>2011-09-24T12:51:32.65</time>
<name>10506</name>
</trkpt>
<trkpt lat="41.811907" lon="-1.700525">
<ele>720.5</ele>
<speed>36.3</speed>
<course>158.8</course>
<desc>Speed 36.3 km/h Distance 54.36 km</desc>
<time>2011-09-24T12:51:33.64</time>
<name>10507</name>
</trkpt>
<trkpt lat="41.811823" lon="-1.700482">
<ele>720.0</ele>
<speed>36.4</speed>
<course>157.3</course>
<desc>Speed 36.4 km/h Distance 54.37 km</desc>
<time>2011-09-24T12:51:34.65</time>
<name>10508</name>
</trkpt>
<trkpt lat="41.811740" lon="-1.700435">
<ele>720.0</ele>
<speed>36.5</speed>
<course>158.1</course>
<desc>Speed 36.5 km/h Distance 54.38 km</desc>
<time>2011-09-24T12:51:35.64</time>
<name>10509</name>
</trkpt>
<trkpt lat="41.811657" lon="-1.700390">
<ele>719.5</ele>
<speed>36.6</speed>
<course>157.3</course>
<desc>Speed 36.6 km/h Distance 54.39 km</desc>
<time>2011-09-24T12:51:36.64</time>
<name>10510</name>
</trkpt>
<trkpt lat="41.811573" lon="-1.700343">
<ele>719.5</ele>
<speed>36.2</speed>
<course>156.9</course>
<desc>Speed 36.2 km/h Distance 54.40 km</desc>
<time>2011-09-24T12:51:37.64</time>
<name>10511</name>
</trkpt>
<trkpt lat="41.811492" lon="-1.700297">
<ele>719.5</ele>
<speed>36.1</speed>
<course>154.3</course>
<desc>Speed 36.1 km/h Distance 54.41 km</desc>
<time>2011-09-24T12:51:38.64</time>
<name>10512</name>
</trkpt>
<trkpt lat="41.811412" lon="-1.700245">
<ele>719.5</ele>
<speed>35.9</speed>
<course>147.7</course>
<desc>Speed 35.9 km/h Distance 54.42 km</desc>
<time>2011-09-24T12:51:39.64</time>
<name>10513</name>
</trkpt>
<trkpt lat="41.811335" lon="-1.700180">
<ele>719.5</ele>
<speed>36.4</speed>
<course>135.2</course>
<desc>Speed 36.4 km/h Distance 54.43 km</desc>
<time>2011-09-24T12:51:40.64</time>
<name>10514</name>
</trkpt>
<trkpt lat="41.811270" lon="-1.700093">
<ele>720.0</ele>
<speed>36.8</speed>
<course>122.5</course>
<desc>Speed 36.8 km/h Distance 54.44 km</desc>
<time>2011-09-24T12:51:41.64</time>
<name>10515</name>
</trkpt>
<trkpt lat="41.811222" lon="-1.699992">
<ele>720.0</ele>
<speed>36.4</speed>
<course>112.5</course>
<desc>Speed 36.4 km/h Distance 54.45 km</desc>
<time>2011-09-24T12:51:42.64</time>
<name>10516</name>
</trkpt>
<trkpt lat="41.811187" lon="-1.699878">
<ele>720.0</ele>
<speed>36.3</speed>
<course>103.8</course>
<desc>Speed 36.3 km/h Distance 54.46 km</desc>
<time>2011-09-24T12:51:43.64</time>
<name>10517</name>
</trkpt>
<trkpt lat="41.811165" lon="-1.699760">
<ele>719.5</ele>
<speed>36.6</speed>
<course>89.0</course>
<desc>Speed 36.6 km/h Distance 54.47 km</desc>
<time>2011-09-24T12:51:44.64</time>
<name>10518</name>
</trkpt>
<trkpt lat="41.811167" lon="-1.699637">
<ele>719.5</ele>
<speed>36.5</speed>
<course>77.7</course>
<desc>Speed 36.5 km/h Distance 54.48 km</desc>
<time>2011-09-24T12:51:45.64</time>
<name>10519</name>
</trkpt>
<trkpt lat="41.811187" lon="-1.699513">
<ele>719.0</ele>
<speed>37.4</speed>
<course>73.6</course>
<desc>Speed 37.4 km/h Distance 54.49 km</desc>
<time>2011-09-24T12:51:46.64</time>
<name>10520</name>
</trkpt>
<trkpt lat="41.811213" lon="-1.699392">
<ele>718.5</ele>
<speed>37.9</speed>
<course>75.0</course>
<desc>Speed 37.9 km/h Distance 54.50 km</desc>
<time>2011-09-24T12:51:47.63</time>
<name>10521</name>
</trkpt>
<trkpt lat="41.811238" lon="-1.699267">
<ele>718.0</ele>
<speed>38.6</speed>
<course>75.4</course>
<desc>Speed 38.6 km/h Distance 54.51 km</desc>
<time>2011-09-24T12:51:48.64</time>
<name>10522</name>
</trkpt>
<trkpt lat="41.811263" lon="-1.699138">
<ele>717.5</ele>
<speed>39.2</speed>
<course>77.4</course>
<desc>Speed 39.2 km/h Distance 54.52 km</desc>
<time>2011-09-24T12:51:49.63</time>
<name>10523</name>
</trkpt>
<trkpt lat="41.811285" lon="-1.699008">
<ele>717.0</ele>
<speed>40.0</speed>
<course>74.8</course>
<desc>Speed 40.0 km/h Distance 54.53 km</desc>
<time>2011-09-24T12:51:50.64</time>
<name>10524</name>
</trkpt>
<trkpt lat="41.811312" lon="-1.698877">
<ele>716.5</ele>
<speed>40.7</speed>
<course>73.0</course>
<desc>Speed 40.7 km/h Distance 54.54 km</desc>
<time>2011-09-24T12:51:51.63</time>
<name>10525</name>
</trkpt>
<trkpt lat="41.811342" lon="-1.698745">
<ele>716.0</ele>
<speed>41.3</speed>
<course>73.4</course>
<desc>Speed 41.3 km/h Distance 54.55 km</desc>
<time>2011-09-24T12:51:52.63</time>
<name>10526</name>
</trkpt>
<trkpt lat="41.811372" lon="-1.698610">
<ele>716.0</ele>
<speed>42.0</speed>
<course>75.2</course>
<desc>Speed 42.0 km/h Distance 54.56 km</desc>
<time>2011-09-24T12:51:53.63</time>
<name>10527</name>
</trkpt>
<trkpt lat="41.811398" lon="-1.698475">
<ele>715.5</ele>
<speed>42.0</speed>
<course>75.3</course>
<desc>Speed 42.0 km/h Distance 54.58 km</desc>
<time>2011-09-24T12:51:54.63</time>
<name>10528</name>
</trkpt>
<trkpt lat="41.811425" lon="-1.698338">
<ele>715.0</ele>
<speed>42.2</speed>
<course>75.3</course>
<desc>Speed 42.2 km/h Distance 54.59 km</desc>
<time>2011-09-24T12:51:55.63</time>
<name>10529</name>
</trkpt>
<trkpt lat="41.811452" lon="-1.698202">
<ele>714.5</ele>
<speed>42.3</speed>
<course>74.3</course>
<desc>Speed 42.3 km/h Distance 54.60 km</desc>
<time>2011-09-24T12:51:56.63</time>
<name>10530</name>
</trkpt>
<trkpt lat="41.811480" lon="-1.698067">
<ele>714.0</ele>
<speed>42.4</speed>
<course>76.4</course>
<desc>Speed 42.4 km/h Distance 54.61 km</desc>
<time>2011-09-24T12:51:57.63</time>
<name>10531</name>
</trkpt>
<trkpt lat="41.811505" lon="-1.697928">
<ele>713.5</ele>
<speed>42.4</speed>
<course>75.3</course>
<desc>Speed 42.4 km/h Distance 54.62 km</desc>
<time>2011-09-24T12:51:58.63</time>
<name>10532</name>
</trkpt>
<trkpt lat="41.811532" lon="-1.697792">
<ele>713.0</ele>
<speed>42.3</speed>
<course>71.5</course>
<desc>Speed 42.3 km/h Distance 54.63 km</desc>
<time>2011-09-24T12:51:59.63</time>
<name>10533</name>
</trkpt>
<trkpt lat="41.811565" lon="-1.697658">
<ele>712.0</ele>
<speed>42.3</speed>
<course>55.8</course>
<desc>Speed 42.3 km/h Distance 54.65 km</desc>
<time>2011-09-24T12:52:00.63</time>
<name>10534</name>
</trkpt>
<trkpt lat="41.811623" lon="-1.697543">
<ele>711.5</ele>
<speed>41.3</speed>
<course>48.4</course>
<desc>Speed 41.3 km/h Distance 54.66 km</desc>
<time>2011-09-24T12:52:01.63</time>
<name>10535</name>
</trkpt>
<trkpt lat="41.811692" lon="-1.697440">
<ele>711.5</ele>
<speed>41.4</speed>
<course>45.4</course>
<desc>Speed 41.4 km/h Distance 54.67 km</desc>
<time>2011-09-24T12:52:02.63</time>
<name>10536</name>
</trkpt>
<trkpt lat="41.811757" lon="-1.697352">
<ele>712.5</ele>
<speed>37.3</speed>
<course>50.2</course>
<desc>Speed 37.3 km/h Distance 54.68 km</desc>
<time>2011-09-24T12:52:03.63</time>
<name>10537</name>
</trkpt>
<trkpt lat="41.811817" lon="-1.697255">
<ele>713.0</ele>
<speed>37.7</speed>
<course>49.4</course>
<desc>Speed 37.7 km/h Distance 54.69 km</desc>
<time>2011-09-24T12:52:04.62</time>
<name>10538</name>
</trkpt>
<trkpt lat="41.811878" lon="-1.697158">
<ele>713.0</ele>
<speed>38.0</speed>
<course>48.9</course>
<desc>Speed 38.0 km/h Distance 54.70 km</desc>
<time>2011-09-24T12:52:05.62</time>
<name>10539</name>
</trkpt>
<trkpt lat="41.811940" lon="-1.697063">
<ele>713.0</ele>
<speed>37.4</speed>
<course>47.9</course>
<desc>Speed 37.4 km/h Distance 54.71 km</desc>
<time>2011-09-24T12:52:06.63</time>
<name>10540</name>
</trkpt>
<trkpt lat="41.812002" lon="-1.696972">
<ele>712.5</ele>
<speed>36.5</speed>
<course>39.5</course>
<desc>Speed 36.5 km/h Distance 54.72 km</desc>
<time>2011-09-24T12:52:07.62</time>
<name>10541</name>
</trkpt>
<trkpt lat="41.812065" lon="-1.696902">
<ele>711.5</ele>
<speed>32.4</speed>
<course>38.1</course>
<desc>Speed 32.4 km/h Distance 54.73 km</desc>
<time>2011-09-24T12:52:08.62</time>
<name>10542</name>
</trkpt>
<trkpt lat="41.812128" lon="-1.696835">
<ele>710.0</ele>
<speed>32.1</speed>
<course>52.3</course>
<desc>Speed 32.1 km/h Distance 54.74 km</desc>
<time>2011-09-24T12:52:09.62</time>
<name>10543</name>
</trkpt>
<trkpt lat="41.812185" lon="-1.696737">
<ele>710.0</ele>
<speed>36.9</speed>
<course>52.6</course>
<desc>Speed 36.9 km/h Distance 54.75 km</desc>
<time>2011-09-24T12:52:10.62</time>
<name>10544</name>
</trkpt>
<trkpt lat="41.812240" lon="-1.696640">
<ele>709.5</ele>
<speed>36.1</speed>
<course>49.5</course>
<desc>Speed 36.1 km/h Distance 54.76 km</desc>
<time>2011-09-24T12:52:11.61</time>
<name>10545</name>
</trkpt>
<trkpt lat="41.812298" lon="-1.696548">
<ele>709.5</ele>
<speed>35.5</speed>
<course>44.8</course>
<desc>Speed 35.5 km/h Distance 54.77 km</desc>
<time>2011-09-24T12:52:12.62</time>
<name>10546</name>
</trkpt>
<trkpt lat="41.812358" lon="-1.696468">
<ele>709.0</ele>
<speed>33.6</speed>
<course>44.2</course>
<desc>Speed 33.6 km/h Distance 54.78 km</desc>
<time>2011-09-24T12:52:13.61</time>
<name>10547</name>
</trkpt>
<trkpt lat="41.812418" lon="-1.696390">
<ele>707.5</ele>
<speed>33.5</speed>
<course>46.8</course>
<desc>Speed 33.5 km/h Distance 54.79 km</desc>
<time>2011-09-24T12:52:14.61</time>
<name>10548</name>
</trkpt>
<trkpt lat="41.812477" lon="-1.696307">
<ele>707.5</ele>
<speed>33.7</speed>
<course>47.0</course>
<desc>Speed 33.7 km/h Distance 54.80 km</desc>
<time>2011-09-24T12:52:15.62</time>
<name>10549</name>
</trkpt>
<trkpt lat="41.812533" lon="-1.696225">
<ele>707.0</ele>
<speed>33.3</speed>
<course>47.0</course>
<desc>Speed 33.3 km/h Distance 54.81 km</desc>
<time>2011-09-24T12:52:16.62</time>
<name>10550</name>
</trkpt>
<trkpt lat="41.812590" lon="-1.696143">
<ele>707.0</ele>
<speed>32.8</speed>
<course>46.0</course>
<desc>Speed 32.8 km/h Distance 54.82 km</desc>
<time>2011-09-24T12:52:17.62</time>
<name>10551</name>
</trkpt>
<trkpt lat="41.812642" lon="-1.696072">
<ele>708.0</ele>
<speed>29.7</speed>
<course>39.5</course>
<desc>Speed 29.7 km/h Distance 54.82 km</desc>
<time>2011-09-24T12:52:18.61</time>
<name>10552</name>
</trkpt>
<trkpt lat="41.812722" lon="-1.695983">
<ele>709.0</ele>
<speed>21.1</speed>
<course>51.2</course>
<desc>Speed 21.1 km/h Distance 54.84 km</desc>
<time>2011-09-24T12:52:20.61</time>
<name>10553</name>
</trkpt>
<trkpt lat="41.812752" lon="-1.695933">
<ele>708.5</ele>
<speed>11.6</speed>
<course>49.7</course>
<desc>Speed 11.6 km/h Distance 54.84 km</desc>
<time>2011-09-24T12:52:22.62</time>
<name>10554</name>
</trkpt>
<trkpt lat="41.812772" lon="-1.695902">
<ele>708.0</ele>
<speed>12.0</speed>
<course>62.5</course>
<desc>Speed 12.0 km/h Distance 54.84 km</desc>
<time>2011-09-24T12:52:23.61</time>
<name>10555</name>
</trkpt>
<trkpt lat="41.812783" lon="-1.695872">
<ele>707.5</ele>
<speed>10.0</speed>
<course>61.8</course>
<desc>Speed 10.0 km/h Distance 54.85 km</desc>
<time>2011-09-24T12:52:24.61</time>
<name>10556</name>
</trkpt>
<trkpt lat="41.812793" lon="-1.695847">
<ele>707.0</ele>
<speed>7.3</speed>
<course>71.5</course>
<desc>Speed 7.3 km/h Distance 54.85 km</desc>
<time>2011-09-24T12:52:25.61</time>
<name>10557</name>
</trkpt>
<trkpt lat="41.812798" lon="-1.695827">
<ele>706.5</ele>
<speed>5.7</speed>
<course>84.5</course>
<desc>Speed 5.7 km/h Distance 54.85 km</desc>
<time>2011-09-24T12:52:26.60</time>
<name>10558</name>
</trkpt>
<trkpt lat="41.812800" lon="-1.695803">
<ele>705.5</ele>
<speed>6.3</speed>
<course>82.4</course>
<desc>Speed 6.3 km/h Distance 54.85 km</desc>
<time>2011-09-24T12:52:27.60</time>
<name>10559</name>
</trkpt>
<trkpt lat="41.812803" lon="-1.695770">
<ele>706.0</ele>
<speed>9.6</speed>
<course>58.9</course>
<desc>Speed 9.6 km/h Distance 54.86 km</desc>
<time>2011-09-24T12:52:28.61</time>
<name>10560</name>
</trkpt>
<trkpt lat="41.812818" lon="-1.695737">
<ele>707.0</ele>
<speed>10.7</speed>
<course>36.7</course>
<desc>Speed 10.7 km/h Distance 54.86 km</desc>
<time>2011-09-24T12:52:29.60</time>
<name>10561</name>
</trkpt>
<trkpt lat="41.812845" lon="-1.695710">
<ele>706.5</ele>
<speed>12.3</speed>
<course>23.7</course>
<desc>Speed 12.3 km/h Distance 54.86 km</desc>
<time>2011-09-24T12:52:30.60</time>
<name>10562</name>
</trkpt>
<trkpt lat="41.812873" lon="-1.695693">
<ele>707.0</ele>
<speed>11.7</speed>
<course>22.7</course>
<desc>Speed 11.7 km/h Distance 54.87 km</desc>
<time>2011-09-24T12:52:31.60</time>
<name>10563</name>
</trkpt>
<trkpt lat="41.812900" lon="-1.695678">
<ele>707.5</ele>
<speed>11.1</speed>
<course>17.6</course>
<desc>Speed 11.1 km/h Distance 54.87 km</desc>
<time>2011-09-24T12:52:32.60</time>
<name>10564</name>
</trkpt>
<trkpt lat="41.812923" lon="-1.695668">
<ele>707.5</ele>
<speed>9.1</speed>
<course>25.4</course>
<desc>Speed 9.1 km/h Distance 54.87 km</desc>
<time>2011-09-24T12:52:33.61</time>
<name>10565</name>
</trkpt>
<trkpt lat="41.812928" lon="-1.695665">
<ele>710.0</ele>
<speed>2.2</speed>
<course>17.3</course>
<desc>Speed 2.2 km/h Distance 54.87 km</desc>
<time>2011-09-24T12:52:35.60</time>
<name>10566</name>
</trkpt>
<trkpt lat="41.812948" lon="-1.695657">
<ele>710.0</ele>
<speed>7.3</speed>
<course>22.2</course>
<desc>Speed 7.3 km/h Distance 54.88 km</desc>
<time>2011-09-24T12:52:36.60</time>
<name>10567</name>
</trkpt>
<trkpt lat="41.812967" lon="-1.695647">
<ele>710.5</ele>
<speed>7.5</speed>
<course>27.3</course>
<desc>Speed 7.5 km/h Distance 54.88 km</desc>
<time>2011-09-24T12:52:37.61</time>
<name>10568</name>
</trkpt>
<trkpt lat="41.812988" lon="-1.695632">
<ele>710.5</ele>
<speed>9.5</speed>
<course>50.6</course>
<desc>Speed 9.5 km/h Distance 54.88 km</desc>
<time>2011-09-24T12:52:38.59</time>
<name>10569</name>
</trkpt>
<trkpt lat="41.813007" lon="-1.695602">
<ele>713.0</ele>
<speed>10.4</speed>
<course>19.3</course>
<desc>Speed 10.4 km/h Distance 54.88 km</desc>
<time>2011-09-24T12:52:39.59</time>
<name>10570</name>
</trkpt>
<trkpt lat="41.813035" lon="-1.695588">
<ele>713.0</ele>
<speed>11.7</speed>
<course>13.3</course>
<desc>Speed 11.7 km/h Distance 54.89 km</desc>
<time>2011-09-24T12:52:40.59</time>
<name>10571</name>
</trkpt>
<trkpt lat="41.813067" lon="-1.695578">
<ele>712.5</ele>
<speed>12.1</speed>
<course>8.8</course>
<desc>Speed 12.1 km/h Distance 54.89 km</desc>
<time>2011-09-24T12:52:41.59</time>
<name>10572</name>
</trkpt>
<trkpt lat="41.813098" lon="-1.695572">
<ele>712.5</ele>
<speed>11.8</speed>
<course>21.5</course>
<desc>Speed 11.8 km/h Distance 54.89 km</desc>
<time>2011-09-24T12:52:42.59</time>
<name>10573</name>
</trkpt>
<trkpt lat="41.813127" lon="-1.695557">
<ele>712.5</ele>
<speed>11.6</speed>
<course>26.4</course>
<desc>Speed 11.6 km/h Distance 54.90 km</desc>
<time>2011-09-24T12:52:43.60</time>
<name>10574</name>
</trkpt>
<trkpt lat="41.813157" lon="-1.695537">
<ele>713.0</ele>
<speed>13.2</speed>
<course>18.6</course>
<desc>Speed 13.2 km/h Distance 54.90 km</desc>
<time>2011-09-24T12:52:44.59</time>
<name>10575</name>
</trkpt>
<trkpt lat="41.813190" lon="-1.695522">
<ele>712.5</ele>
<speed>13.4</speed>
<course>16.0</course>
<desc>Speed 13.4 km/h Distance 54.91 km</desc>
<time>2011-09-24T12:52:45.59</time>
<name>10576</name>
</trkpt>
<trkpt lat="41.813225" lon="-1.695508">
<ele>712.5</ele>
<speed>14.3</speed>
<course>12.8</course>
<desc>Speed 14.3 km/h Distance 54.91 km</desc>
<time>2011-09-24T12:52:46.60</time>
<name>10577</name>
</trkpt>
<trkpt lat="41.813263" lon="-1.695497">
<ele>712.5</ele>
<speed>15.5</speed>
<course>23.5</course>
<desc>Speed 15.5 km/h Distance 54.91 km</desc>
<time>2011-09-24T12:52:47.59</time>
<name>10578</name>
</trkpt>
<trkpt lat="41.813303" lon="-1.695473">
<ele>712.5</ele>
<speed>16.1</speed>
<course>18.8</course>
<desc>Speed 16.1 km/h Distance 54.92 km</desc>
<time>2011-09-24T12:52:48.59</time>
<name>10579</name>
</trkpt>
<trkpt lat="41.813343" lon="-1.695455">
<ele>711.5</ele>
<speed>15.4</speed>
<course>24.6</course>
<desc>Speed 15.4 km/h Distance 54.92 km</desc>
<time>2011-09-24T12:52:49.59</time>
<name>10580</name>
</trkpt>
<trkpt lat="41.813387" lon="-1.695428">
<ele>712.0</ele>
<speed>17.8</speed>
<course>25.2</course>
<desc>Speed 17.8 km/h Distance 54.93 km</desc>
<time>2011-09-24T12:52:50.59</time>
<name>10581</name>
</trkpt>
<trkpt lat="41.813432" lon="-1.695400">
<ele>712.0</ele>
<speed>18.6</speed>
<course>25.1</course>
<desc>Speed 18.6 km/h Distance 54.93 km</desc>
<time>2011-09-24T12:52:51.59</time>
<name>10582</name>
</trkpt>
<trkpt lat="41.813477" lon="-1.695372">
<ele>711.5</ele>
<speed>19.1</speed>
<course>27.3</course>
<desc>Speed 19.1 km/h Distance 54.94 km</desc>
<time>2011-09-24T12:52:52.59</time>
<name>10583</name>
</trkpt>
<trkpt lat="41.813520" lon="-1.695342">
<ele>711.5</ele>
<speed>18.1</speed>
<course>24.8</course>
<desc>Speed 18.1 km/h Distance 54.95 km</desc>
<time>2011-09-24T12:52:53.58</time>
<name>10584</name>
</trkpt>
<trkpt lat="41.813568" lon="-1.695312">
<ele>711.5</ele>
<speed>19.6</speed>
<course>26.8</course>
<desc>Speed 19.6 km/h Distance 54.95 km</desc>
<time>2011-09-24T12:52:54.58</time>
<name>10585</name>
</trkpt>
<trkpt lat="41.813615" lon="-1.695280">
<ele>711.5</ele>
<speed>20.3</speed>
<course>23.4</course>
<desc>Speed 20.3 km/h Distance 54.96 km</desc>
<time>2011-09-24T12:52:55.59</time>
<name>10586</name>
</trkpt>
<trkpt lat="41.813667" lon="-1.695250">
<ele>711.0</ele>
<speed>20.7</speed>
<course>27.2</course>
<desc>Speed 20.7 km/h Distance 54.96 km</desc>
<time>2011-09-24T12:52:56.58</time>
<name>10587</name>
</trkpt>
<trkpt lat="41.813715" lon="-1.695217">
<ele>711.5</ele>
<speed>20.5</speed>
<course>24.5</course>
<desc>Speed 20.5 km/h Distance 54.97 km</desc>
<time>2011-09-24T12:52:57.58</time>
<name>10588</name>
</trkpt>
<trkpt lat="41.813767" lon="-1.695185">
<ele>711.0</ele>
<speed>20.6</speed>
<course>25.7</course>
<desc>Speed 20.6 km/h Distance 54.98 km</desc>
<time>2011-09-24T12:52:58.59</time>
<name>10589</name>
</trkpt>
<trkpt lat="41.813818" lon="-1.695152">
<ele>710.5</ele>
<speed>21.9</speed>
<course>22.2</course>
<desc>Speed 21.9 km/h Distance 54.98 km</desc>
<time>2011-09-24T12:52:59.58</time>
<name>10590</name>
</trkpt>
<trkpt lat="41.813870" lon="-1.695123">
<ele>711.0</ele>
<speed>21.7</speed>
<course>22.7</course>
<desc>Speed 21.7 km/h Distance 54.99 km</desc>
<time>2011-09-24T12:53:00.58</time>
<name>10591</name>
</trkpt>
<trkpt lat="41.813923" lon="-1.695093">
<ele>710.5</ele>
<speed>22.4</speed>
<course>24.3</course>
<desc>Speed 22.4 km/h Distance 54.99 km</desc>
<time>2011-09-24T12:53:01.58</time>
<name>10592</name>
</trkpt>
<trkpt lat="41.813978" lon="-1.695060">
<ele>710.0</ele>
<speed>23.1</speed>
<course>22.6</course>
<desc>Speed 23.1 km/h Distance 55.00 km</desc>
<time>2011-09-24T12:53:02.58</time>
<name>10593</name>
</trkpt>
<trkpt lat="41.814035" lon="-1.695028">
<ele>709.5</ele>
<speed>23.1</speed>
<course>28.2</course>
<desc>Speed 23.1 km/h Distance 55.01 km</desc>
<time>2011-09-24T12:53:03.58</time>
<name>10594</name>
</trkpt>
<trkpt lat="41.814088" lon="-1.694990">
<ele>709.0</ele>
<speed>23.5</speed>
<course>27.1</course>
<desc>Speed 23.5 km/h Distance 55.01 km</desc>
<time>2011-09-24T12:53:04.58</time>
<name>10595</name>
</trkpt>
<trkpt lat="41.814142" lon="-1.694953">
<ele>708.5</ele>
<speed>22.9</speed>
<course>24.3</course>
<desc>Speed 22.9 km/h Distance 55.02 km</desc>
<time>2011-09-24T12:53:05.58</time>
<name>10596</name>
</trkpt>
<trkpt lat="41.814197" lon="-1.694920">
<ele>708.0</ele>
<speed>23.7</speed>
<course>26.1</course>
<desc>Speed 23.7 km/h Distance 55.03 km</desc>
<time>2011-09-24T12:53:06.58</time>
<name>10597</name>
</trkpt>
<trkpt lat="41.814250" lon="-1.694885">
<ele>708.0</ele>
<speed>23.0</speed>
<course>26.8</course>
<desc>Speed 23.0 km/h Distance 55.03 km</desc>
<time>2011-09-24T12:53:07.58</time>
<name>10598</name>
</trkpt>
<trkpt lat="41.814302" lon="-1.694850">
<ele>708.5</ele>
<speed>23.0</speed>
<course>25.4</course>
<desc>Speed 23.0 km/h Distance 55.04 km</desc>
<time>2011-09-24T12:53:08.58</time>
<name>10599</name>
</trkpt>
<trkpt lat="41.814357" lon="-1.694815">
<ele>708.5</ele>
<speed>24.5</speed>
<course>24.7</course>
<desc>Speed 24.5 km/h Distance 55.05 km</desc>
<time>2011-09-24T12:53:09.58</time>
<name>10600</name>
</trkpt>
<trkpt lat="41.814413" lon="-1.694780">
<ele>709.0</ele>
<speed>24.8</speed>
<course>26.1</course>
<desc>Speed 24.8 km/h Distance 55.06 km</desc>
<time>2011-09-24T12:53:10.58</time>
<name>10601</name>
</trkpt>
<trkpt lat="41.814467" lon="-1.694745">
<ele>709.5</ele>
<speed>23.8</speed>
<course>25.7</course>
<desc>Speed 23.8 km/h Distance 55.06 km</desc>
<time>2011-09-24T12:53:11.57</time>
<name>10602</name>
</trkpt>
<trkpt lat="41.814523" lon="-1.694708">
<ele>709.5</ele>
<speed>24.8</speed>
<course>23.7</course>
<desc>Speed 24.8 km/h Distance 55.07 km</desc>
<time>2011-09-24T12:53:12.58</time>
<name>10603</name>
</trkpt>
<trkpt lat="41.814580" lon="-1.694675">
<ele>709.5</ele>
<speed>24.3</speed>
<course>23.7</course>
<desc>Speed 24.3 km/h Distance 55.08 km</desc>
<time>2011-09-24T12:53:13.57</time>
<name>10604</name>
</trkpt>
<trkpt lat="41.814637" lon="-1.694642">
<ele>709.0</ele>
<speed>24.8</speed>
<course>23.2</course>
<desc>Speed 24.8 km/h Distance 55.08 km</desc>
<time>2011-09-24T12:53:14.57</time>
<name>10605</name>
</trkpt>
<trkpt lat="41.814692" lon="-1.694610">
<ele>709.0</ele>
<speed>23.9</speed>
<course>24.3</course>
<desc>Speed 23.9 km/h Distance 55.09 km</desc>
<time>2011-09-24T12:53:15.57</time>
<name>10606</name>
</trkpt>
<trkpt lat="41.814747" lon="-1.694577">
<ele>708.5</ele>
<speed>24.2</speed>
<course>21.5</course>
<desc>Speed 24.2 km/h Distance 55.10 km</desc>
<time>2011-09-24T12:53:16.57</time>
<name>10607</name>
</trkpt>
<trkpt lat="41.814807" lon="-1.694545">
<ele>708.5</ele>
<speed>24.8</speed>
<course>22.9</course>
<desc>Speed 24.8 km/h Distance 55.10 km</desc>
<time>2011-09-24T12:53:17.57</time>
<name>10608</name>
</trkpt>
<trkpt lat="41.814868" lon="-1.694510">
<ele>708.0</ele>
<speed>26.9</speed>
<course>20.4</course>
<desc>Speed 26.9 km/h Distance 55.11 km</desc>
<time>2011-09-24T12:53:18.57</time>
<name>10609</name>
</trkpt>
<trkpt lat="41.814928" lon="-1.694480">
<ele>708.0</ele>
<speed>25.2</speed>
<course>24.1</course>
<desc>Speed 25.2 km/h Distance 55.12 km</desc>
<time>2011-09-24T12:53:19.57</time>
<name>10610</name>
</trkpt>
<trkpt lat="41.814987" lon="-1.694445">
<ele>707.5</ele>
<speed>24.9</speed>
<course>23.5</course>
<desc>Speed 24.9 km/h Distance 55.12 km</desc>
<time>2011-09-24T12:53:20.57</time>
<name>10611</name>
</trkpt>
<trkpt lat="41.815047" lon="-1.694410">
<ele>707.5</ele>
<speed>25.1</speed>
<course>23.1</course>
<desc>Speed 25.1 km/h Distance 55.13 km</desc>
<time>2011-09-24T12:53:21.57</time>
<name>10612</name>
</trkpt>
<trkpt lat="41.815105" lon="-1.694377">
<ele>707.0</ele>
<speed>25.1</speed>
<course>23.1</course>
<desc>Speed 25.1 km/h Distance 55.14 km</desc>
<time>2011-09-24T12:53:22.57</time>
<name>10613</name>
</trkpt>
<trkpt lat="41.815163" lon="-1.694343">
<ele>707.0</ele>
<speed>25.2</speed>
<course>22.5</course>
<desc>Speed 25.2 km/h Distance 55.15 km</desc>
<time>2011-09-24T12:53:23.57</time>
<name>10614</name>
</trkpt>
<trkpt lat="41.815223" lon="-1.694310">
<ele>707.0</ele>
<speed>26.0</speed>
<course>22.9</course>
<desc>Speed 26.0 km/h Distance 55.15 km</desc>
<time>2011-09-24T12:53:24.57</time>
<name>10615</name>
</trkpt>
<trkpt lat="41.815285" lon="-1.694275">
<ele>706.5</ele>
<speed>26.1</speed>
<course>22.9</course>
<desc>Speed 26.1 km/h Distance 55.16 km</desc>
<time>2011-09-24T12:53:25.57</time>
<name>10616</name>
</trkpt>
<trkpt lat="41.815347" lon="-1.694240">
<ele>706.5</ele>
<speed>26.5</speed>
<course>21.4</course>
<desc>Speed 26.5 km/h Distance 55.17 km</desc>
<time>2011-09-24T12:53:26.56</time>
<name>10617</name>
</trkpt>
<trkpt lat="41.815410" lon="-1.694207">
<ele>706.0</ele>
<speed>26.6</speed>
<course>21.4</course>
<desc>Speed 26.6 km/h Distance 55.18 km</desc>
<time>2011-09-24T12:53:27.56</time>
<name>10618</name>
</trkpt>
<trkpt lat="41.815473" lon="-1.694173">
<ele>705.5</ele>
<speed>26.6</speed>
<course>23.9</course>
<desc>Speed 26.6 km/h Distance 55.18 km</desc>
<time>2011-09-24T12:53:28.56</time>
<name>10619</name>
</trkpt>
<trkpt lat="41.815535" lon="-1.694137">
<ele>705.5</ele>
<speed>26.9</speed>
<course>22.4</course>
<desc>Speed 26.9 km/h Distance 55.19 km</desc>
<time>2011-09-24T12:53:29.56</time>
<name>10620</name>
</trkpt>
<trkpt lat="41.815598" lon="-1.694102">
<ele>705.0</ele>
<speed>27.1</speed>
<course>21.9</course>
<desc>Speed 27.1 km/h Distance 55.20 km</desc>
<time>2011-09-24T12:53:30.57</time>
<name>10621</name>
</trkpt>
<trkpt lat="41.815663" lon="-1.694067">
<ele>705.0</ele>
<speed>27.3</speed>
<course>20.9</course>
<desc>Speed 27.3 km/h Distance 55.21 km</desc>
<time>2011-09-24T12:53:31.56</time>
<name>10622</name>
</trkpt>
<trkpt lat="41.815728" lon="-1.694033">
<ele>704.5</ele>
<speed>27.3</speed>
<course>20.9</course>
<desc>Speed 27.3 km/h Distance 55.21 km</desc>
<time>2011-09-24T12:53:32.56</time>
<name>10623</name>
</trkpt>
<trkpt lat="41.815793" lon="-1.694000">
<ele>704.5</ele>
<speed>27.3</speed>
<course>23.3</course>
<desc>Speed 27.3 km/h Distance 55.22 km</desc>
<time>2011-09-24T12:53:33.56</time>
<name>10624</name>
</trkpt>
<trkpt lat="41.815857" lon="-1.693963">
<ele>704.0</ele>
<speed>27.3</speed>
<course>23.9</course>
<desc>Speed 27.3 km/h Distance 55.23 km</desc>
<time>2011-09-24T12:53:34.56</time>
<name>10625</name>
</trkpt>
<trkpt lat="41.815918" lon="-1.693927">
<ele>704.0</ele>
<speed>26.7</speed>
<course>23.9</course>
<desc>Speed 26.7 km/h Distance 55.24 km</desc>
<time>2011-09-24T12:53:35.56</time>
<name>10626</name>
</trkpt>
<trkpt lat="41.815980" lon="-1.693890">
<ele>703.5</ele>
<speed>27.3</speed>
<course>20.4</course>
<desc>Speed 27.3 km/h Distance 55.24 km</desc>
<time>2011-09-24T12:53:36.57</time>
<name>10627</name>
</trkpt>
<trkpt lat="41.816043" lon="-1.693858">
<ele>703.5</ele>
<speed>27.3</speed>
<course>20.9</course>
<desc>Speed 27.3 km/h Distance 55.25 km</desc>
<time>2011-09-24T12:53:37.56</time>
<name>10628</name>
</trkpt>
<trkpt lat="41.816108" lon="-1.693825">
<ele>703.0</ele>
<speed>27.9</speed>
<course>21.9</course>
<desc>Speed 27.9 km/h Distance 55.26 km</desc>
<time>2011-09-24T12:53:38.56</time>
<name>10629</name>
</trkpt>
<trkpt lat="41.816173" lon="-1.693790">
<ele>703.0</ele>
<speed>27.7</speed>
<course>23.3</course>
<desc>Speed 27.7 km/h Distance 55.27 km</desc>
<time>2011-09-24T12:53:39.56</time>
<name>10630</name>
</trkpt>
<trkpt lat="41.816237" lon="-1.693753">
<ele>703.0</ele>
<speed>27.5</speed>
<course>25.2</course>
<desc>Speed 27.5 km/h Distance 55.28 km</desc>
<time>2011-09-24T12:53:40.56</time>
<name>10631</name>
</trkpt>
<trkpt lat="41.816300" lon="-1.693713">
<ele>702.5</ele>
<speed>27.6</speed>
<course>23.3</course>
<desc>Speed 27.6 km/h Distance 55.28 km</desc>
<time>2011-09-24T12:53:41.56</time>
<name>10632</name>
</trkpt>
<trkpt lat="41.816363" lon="-1.693677">
<ele>702.5</ele>
<speed>27.4</speed>
<course>20.9</course>
<desc>Speed 27.4 km/h Distance 55.29 km</desc>
<time>2011-09-24T12:53:42.56</time>
<name>10633</name>
</trkpt>
<trkpt lat="41.816428" lon="-1.693643">
<ele>702.5</ele>
<speed>27.0</speed>
<course>22.4</course>
<desc>Speed 27.0 km/h Distance 55.30 km</desc>
<time>2011-09-24T12:53:43.56</time>
<name>10634</name>
</trkpt>
<trkpt lat="41.816492" lon="-1.693608">
<ele>702.0</ele>
<speed>27.2</speed>
<course>23.3</course>
<desc>Speed 27.2 km/h Distance 55.31 km</desc>
<time>2011-09-24T12:53:44.56</time>
<name>10635</name>
</trkpt>
<trkpt lat="41.816555" lon="-1.693572">
<ele>701.5</ele>
<speed>27.0</speed>
<course>23.9</course>
<desc>Speed 27.0 km/h Distance 55.31 km</desc>
<time>2011-09-24T12:53:45.55</time>
<name>10636</name>
</trkpt>
<trkpt lat="41.816617" lon="-1.693535">
<ele>701.5</ele>
<speed>27.0</speed>
<course>22.4</course>
<desc>Speed 27.0 km/h Distance 55.32 km</desc>
<time>2011-09-24T12:53:46.56</time>
<name>10637</name>
</trkpt>
<trkpt lat="41.816680" lon="-1.693500">
<ele>701.0</ele>
<speed>27.0</speed>
<course>22.4</course>
<desc>Speed 27.0 km/h Distance 55.33 km</desc>
<time>2011-09-24T12:53:47.56</time>
<name>10638</name>
</trkpt>
<trkpt lat="41.816743" lon="-1.693465">
<ele>701.0</ele>
<speed>26.9</speed>
<course>21.9</course>
<desc>Speed 26.9 km/h Distance 55.34 km</desc>
<time>2011-09-24T12:53:48.55</time>
<name>10639</name>
</trkpt>
<trkpt lat="41.816808" lon="-1.693430">
<ele>700.5</ele>
<speed>27.1</speed>
<course>22.4</course>
<desc>Speed 27.1 km/h Distance 55.34 km</desc>
<time>2011-09-24T12:53:49.55</time>
<name>10640</name>
</trkpt>
<trkpt lat="41.816872" lon="-1.693395">
<ele>700.5</ele>
<speed>27.0</speed>
<course>22.9</course>
<desc>Speed 27.0 km/h Distance 55.35 km</desc>
<time>2011-09-24T12:53:50.55</time>
<name>10641</name>
</trkpt>
<trkpt lat="41.816933" lon="-1.693360">
<ele>700.0</ele>
<speed>26.2</speed>
<course>20.9</course>
<desc>Speed 26.2 km/h Distance 55.36 km</desc>
<time>2011-09-24T12:53:51.55</time>
<name>10642</name>
</trkpt>
<trkpt lat="41.816995" lon="-1.693328">
<ele>700.0</ele>
<speed>25.7</speed>
<course>20.9</course>
<desc>Speed 25.7 km/h Distance 55.37 km</desc>
<time>2011-09-24T12:53:52.55</time>
<name>10643</name>
</trkpt>
<trkpt lat="41.817057" lon="-1.693297">
<ele>699.5</ele>
<speed>26.0</speed>
<course>23.5</course>
<desc>Speed 26.0 km/h Distance 55.37 km</desc>
<time>2011-09-24T12:53:53.55</time>
<name>10644</name>
</trkpt>
<trkpt lat="41.817117" lon="-1.693262">
<ele>699.5</ele>
<speed>26.0</speed>
<course>22.9</course>
<desc>Speed 26.0 km/h Distance 55.38 km</desc>
<time>2011-09-24T12:53:54.55</time>
<name>10645</name>
</trkpt>
<trkpt lat="41.817178" lon="-1.693227">
<ele>699.0</ele>
<speed>25.6</speed>
<course>25.7</course>
<desc>Speed 25.6 km/h Distance 55.39 km</desc>
<time>2011-09-24T12:53:55.55</time>
<name>10646</name>
</trkpt>
<trkpt lat="41.817235" lon="-1.693190">
<ele>698.5</ele>
<speed>25.2</speed>
<course>22.6</course>
<desc>Speed 25.2 km/h Distance 55.40 km</desc>
<time>2011-09-24T12:53:56.55</time>
<name>10647</name>
</trkpt>
<trkpt lat="41.817292" lon="-1.693158">
<ele>698.5</ele>
<speed>24.5</speed>
<course>20.4</course>
<desc>Speed 24.5 km/h Distance 55.40 km</desc>
<time>2011-09-24T12:53:57.55</time>
<name>10648</name>
</trkpt>
<trkpt lat="41.817352" lon="-1.693128">
<ele>698.5</ele>
<speed>24.7</speed>
<course>22.0</course>
<desc>Speed 24.7 km/h Distance 55.41 km</desc>
<time>2011-09-24T12:53:58.55</time>
<name>10649</name>
</trkpt>
<trkpt lat="41.817410" lon="-1.693097">
<ele>698.0</ele>
<speed>24.8</speed>
<course>23.1</course>
<desc>Speed 24.8 km/h Distance 55.42 km</desc>
<time>2011-09-24T12:53:59.55</time>
<name>10650</name>
</trkpt>
<trkpt lat="41.817468" lon="-1.693063">
<ele>698.0</ele>
<speed>24.8</speed>
<course>22.0</course>
<desc>Speed 24.8 km/h Distance 55.42 km</desc>
<time>2011-09-24T12:54:00.55</time>
<name>10651</name>
</trkpt>
<trkpt lat="41.817527" lon="-1.693032">
<ele>697.5</ele>
<speed>24.6</speed>
<course>21.0</course>
<desc>Speed 24.6 km/h Distance 55.43 km</desc>
<time>2011-09-24T12:54:01.54</time>
<name>10652</name>
</trkpt>
<trkpt lat="41.817585" lon="-1.693002">
<ele>697.5</ele>
<speed>24.6</speed>
<course>21.5</course>
<desc>Speed 24.6 km/h Distance 55.44 km</desc>
<time>2011-09-24T12:54:02.54</time>
<name>10653</name>
</trkpt>
<trkpt lat="41.817642" lon="-1.692972">
<ele>697.5</ele>
<speed>24.6</speed>
<course>21.5</course>
<desc>Speed 24.6 km/h Distance 55.44 km</desc>
<time>2011-09-24T12:54:03.54</time>
<name>10654</name>
</trkpt>
<trkpt lat="41.817698" lon="-1.692942">
<ele>697.5</ele>
<speed>24.0</speed>
<course>22.1</course>
<desc>Speed 24.0 km/h Distance 55.45 km</desc>
<time>2011-09-24T12:54:04.54</time>
<name>10655</name>
</trkpt>
<trkpt lat="41.817753" lon="-1.692912">
<ele>697.5</ele>
<speed>23.5</speed>
<course>23.2</course>
<desc>Speed 23.5 km/h Distance 55.46 km</desc>
<time>2011-09-24T12:54:05.55</time>
<name>10656</name>
</trkpt>
<trkpt lat="41.817808" lon="-1.692880">
<ele>697.5</ele>
<speed>23.9</speed>
<course>20.4</course>
<desc>Speed 23.9 km/h Distance 55.46 km</desc>
<time>2011-09-24T12:54:06.54</time>
<name>10657</name>
</trkpt>
<trkpt lat="41.817865" lon="-1.692852">
<ele>697.5</ele>
<speed>23.8</speed>
<course>21.5</course>
<desc>Speed 23.8 km/h Distance 55.47 km</desc>
<time>2011-09-24T12:54:07.54</time>
<name>10658</name>
</trkpt>
<trkpt lat="41.817922" lon="-1.692822">
<ele>697.5</ele>
<speed>24.3</speed>
<course>21.0</course>
<desc>Speed 24.3 km/h Distance 55.48 km</desc>
<time>2011-09-24T12:54:08.54</time>
<name>10659</name>
</trkpt>
<trkpt lat="41.817977" lon="-1.692793">
<ele>697.5</ele>
<speed>23.7</speed>
<course>22.1</course>
<desc>Speed 23.7 km/h Distance 55.48 km</desc>
<time>2011-09-24T12:54:09.54</time>
<name>10660</name>
</trkpt>
<trkpt lat="41.818032" lon="-1.692763">
<ele>697.0</ele>
<speed>23.5</speed>
<course>23.9</course>
<desc>Speed 23.5 km/h Distance 55.49 km</desc>
<time>2011-09-24T12:54:10.54</time>
<name>10661</name>
</trkpt>
<trkpt lat="41.818085" lon="-1.692732">
<ele>697.0</ele>
<speed>23.6</speed>
<course>21.5</course>
<desc>Speed 23.6 km/h Distance 55.50 km</desc>
<time>2011-09-24T12:54:11.54</time>
<name>10662</name>
</trkpt>
<trkpt lat="41.818142" lon="-1.692702">
<ele>697.0</ele>
<speed>23.6</speed>
<course>20.4</course>
<desc>Speed 23.6 km/h Distance 55.50 km</desc>
<time>2011-09-24T12:54:12.54</time>
<name>10663</name>
</trkpt>
<trkpt lat="41.818195" lon="-1.692675">
<ele>697.0</ele>
<speed>22.9</speed>
<course>23.4</course>
<desc>Speed 22.9 km/h Distance 55.51 km</desc>
<time>2011-09-24T12:54:13.54</time>
<name>10664</name>
</trkpt>
<trkpt lat="41.818247" lon="-1.692645">
<ele>697.0</ele>
<speed>22.6</speed>
<course>21.5</course>
<desc>Speed 22.6 km/h Distance 55.52 km</desc>
<time>2011-09-24T12:54:14.54</time>
<name>10665</name>
</trkpt>
<trkpt lat="41.818303" lon="-1.692615">
<ele>697.0</ele>
<speed>23.6</speed>
<course>22.1</course>
<desc>Speed 23.6 km/h Distance 55.52 km</desc>
<time>2011-09-24T12:54:15.53</time>
<name>10666</name>
</trkpt>
<trkpt lat="41.818358" lon="-1.692585">
<ele>696.5</ele>
<speed>23.2</speed>
<course>19.9</course>
<desc>Speed 23.2 km/h Distance 55.53 km</desc>
<time>2011-09-24T12:54:16.53</time>
<name>10667</name>
</trkpt>
<trkpt lat="41.818413" lon="-1.692558">
<ele>697.0</ele>
<speed>23.4</speed>
<course>21.0</course>
<desc>Speed 23.4 km/h Distance 55.54 km</desc>
<time>2011-09-24T12:54:17.53</time>
<name>10668</name>
</trkpt>
<trkpt lat="41.818472" lon="-1.692528">
<ele>696.5</ele>
<speed>24.2</speed>
<course>23.7</course>
<desc>Speed 24.2 km/h Distance 55.54 km</desc>
<time>2011-09-24T12:54:18.53</time>
<name>10669</name>
</trkpt>
<trkpt lat="41.818528" lon="-1.692495">
<ele>696.5</ele>
<speed>24.7</speed>
<course>22.0</course>
<desc>Speed 24.7 km/h Distance 55.55 km</desc>
<time>2011-09-24T12:54:19.53</time>
<name>10670</name>
</trkpt>
<trkpt lat="41.818587" lon="-1.692463">
<ele>696.5</ele>
<speed>24.9</speed>
<course>22.0</course>
<desc>Speed 24.9 km/h Distance 55.56 km</desc>
<time>2011-09-24T12:54:20.53</time>
<name>10671</name>
</trkpt>
<trkpt lat="41.818645" lon="-1.692432">
<ele>696.0</ele>
<speed>25.1</speed>
<course>22.0</course>
<desc>Speed 25.1 km/h Distance 55.56 km</desc>
<time>2011-09-24T12:54:21.53</time>
<name>10672</name>
</trkpt>
<trkpt lat="41.818703" lon="-1.692400">
<ele>696.0</ele>
<speed>25.4</speed>
<course>20.5</course>
<desc>Speed 25.4 km/h Distance 55.57 km</desc>
<time>2011-09-24T12:54:22.53</time>
<name>10673</name>
</trkpt>
<trkpt lat="41.818763" lon="-1.692370">
<ele>696.0</ele>
<speed>25.5</speed>
<course>22.5</course>
<desc>Speed 25.5 km/h Distance 55.58 km</desc>
<time>2011-09-24T12:54:23.53</time>
<name>10674</name>
</trkpt>
<trkpt lat="41.818823" lon="-1.692337">
<ele>695.5</ele>
<speed>26.0</speed>
<course>23.9</course>
<desc>Speed 26.0 km/h Distance 55.59 km</desc>
<time>2011-09-24T12:54:24.53</time>
<name>10675</name>
</trkpt>
<trkpt lat="41.818885" lon="-1.692300">
<ele>695.0</ele>
<speed>26.4</speed>
<course>23.5</course>
<desc>Speed 26.4 km/h Distance 55.59 km</desc>
<time>2011-09-24T12:54:25.52</time>
<name>10676</name>
</trkpt>
<trkpt lat="41.818945" lon="-1.692265">
<ele>695.0</ele>
<speed>26.3</speed>
<course>22.9</course>
<desc>Speed 26.3 km/h Distance 55.60 km</desc>
<time>2011-09-24T12:54:26.53</time>
<name>10677</name>
</trkpt>
<trkpt lat="41.819007" lon="-1.692230">
<ele>695.0</ele>
<speed>26.5</speed>
<course>25.1</course>
<desc>Speed 26.5 km/h Distance 55.61 km</desc>
<time>2011-09-24T12:54:27.53</time>
<name>10678</name>
</trkpt>
<trkpt lat="41.819065" lon="-1.692193">
<ele>694.5</ele>
<speed>26.1</speed>
<course>25.5</course>
<desc>Speed 26.1 km/h Distance 55.62 km</desc>
<time>2011-09-24T12:54:28.53</time>
<name>10679</name>
</trkpt>
<trkpt lat="41.819125" lon="-1.692155">
<ele>694.5</ele>
<speed>26.0</speed>
<course>27.1</course>
<desc>Speed 26.0 km/h Distance 55.62 km</desc>
<time>2011-09-24T12:54:29.52</time>
<name>10680</name>
</trkpt>
<trkpt lat="41.819183" lon="-1.692115">
<ele>694.0</ele>
<speed>26.6</speed>
<course>25.8</course>
<desc>Speed 26.6 km/h Distance 55.63 km</desc>
<time>2011-09-24T12:54:30.53</time>
<name>10681</name>
</trkpt>
<trkpt lat="41.819245" lon="-1.692075">
<ele>694.0</ele>
<speed>26.8</speed>
<course>26.4</course>
<desc>Speed 26.8 km/h Distance 55.64 km</desc>
<time>2011-09-24T12:54:31.52</time>
<name>10682</name>
</trkpt>
<trkpt lat="41.819305" lon="-1.692035">
<ele>694.0</ele>
<speed>26.8</speed>
<course>27.6</course>
<desc>Speed 26.8 km/h Distance 55.65 km</desc>
<time>2011-09-24T12:54:32.54</time>
<name>10683</name>
</trkpt>
<trkpt lat="41.819367" lon="-1.691992">
<ele>694.0</ele>
<speed>27.9</speed>
<course>27.0</course>
<desc>Speed 27.9 km/h Distance 55.65 km</desc>
<time>2011-09-24T12:54:33.53</time>
<name>10684</name>
</trkpt>
<trkpt lat="41.819430" lon="-1.691948">
<ele>694.0</ele>
<speed>28.4</speed>
<course>29.6</course>
<desc>Speed 28.4 km/h Distance 55.66 km</desc>
<time>2011-09-24T12:54:34.52</time>
<name>10685</name>
</trkpt>
<trkpt lat="41.819493" lon="-1.691900">
<ele>693.5</ele>
<speed>29.1</speed>
<course>32.1</course>
<desc>Speed 29.1 km/h Distance 55.67 km</desc>
<time>2011-09-24T12:54:35.52</time>
<name>10686</name>
</trkpt>
<trkpt lat="41.819557" lon="-1.691847">
<ele>693.0</ele>
<speed>29.7</speed>
<course>32.9</course>
<desc>Speed 29.7 km/h Distance 55.68 km</desc>
<time>2011-09-24T12:54:36.52</time>
<name>10687</name>
</trkpt>
<trkpt lat="41.819620" lon="-1.691792">
<ele>692.5</ele>
<speed>30.2</speed>
<course>33.0</course>
<desc>Speed 30.2 km/h Distance 55.69 km</desc>
<time>2011-09-24T12:54:37.52</time>
<name>10688</name>
</trkpt>
<trkpt lat="41.819685" lon="-1.691735">
<ele>691.5</ele>
<speed>30.9</speed>
<course>34.5</course>
<desc>Speed 30.9 km/h Distance 55.69 km</desc>
<time>2011-09-24T12:54:38.51</time>
<name>10689</name>
</trkpt>
<trkpt lat="41.819748" lon="-1.691677">
<ele>691.5</ele>
<speed>30.4</speed>
<course>35.2</course>
<desc>Speed 30.4 km/h Distance 55.70 km</desc>
<time>2011-09-24T12:54:39.52</time>
<name>10690</name>
</trkpt>
<trkpt lat="41.819810" lon="-1.691618">
<ele>691.5</ele>
<speed>30.6</speed>
<course>35.9</course>
<desc>Speed 30.6 km/h Distance 55.71 km</desc>
<time>2011-09-24T12:54:40.53</time>
<name>10691</name>
</trkpt>
<trkpt lat="41.819872" lon="-1.691558">
<ele>691.5</ele>
<speed>30.5</speed>
<course>36.7</course>
<desc>Speed 30.5 km/h Distance 55.72 km</desc>
<time>2011-09-24T12:54:41.52</time>
<name>10692</name>
</trkpt>
<trkpt lat="41.819932" lon="-1.691498">
<ele>691.0</ele>
<speed>30.0</speed>
<course>36.7</course>
<desc>Speed 30.0 km/h Distance 55.73 km</desc>
<time>2011-09-24T12:54:42.52</time>
<name>10693</name>
</trkpt>
<trkpt lat="41.819992" lon="-1.691438">
<ele>691.0</ele>
<speed>29.8</speed>
<course>37.5</course>
<desc>Speed 29.8 km/h Distance 55.74 km</desc>
<time>2011-09-24T12:54:43.51</time>
<name>10694</name>
</trkpt>
<trkpt lat="41.820050" lon="-1.691378">
<ele>691.0</ele>
<speed>29.6</speed>
<course>38.2</course>
<desc>Speed 29.6 km/h Distance 55.74 km</desc>
<time>2011-09-24T12:54:44.52</time>
<name>10695</name>
</trkpt>
<trkpt lat="41.820108" lon="-1.691317">
<ele>691.0</ele>
<speed>29.4</speed>
<course>39.9</course>
<desc>Speed 29.4 km/h Distance 55.75 km</desc>
<time>2011-09-24T12:54:45.51</time>
<name>10696</name>
</trkpt>
<trkpt lat="41.820163" lon="-1.691255">
<ele>691.0</ele>
<speed>29.0</speed>
<course>38.3</course>
<desc>Speed 29.0 km/h Distance 55.76 km</desc>
<time>2011-09-24T12:54:46.52</time>
<name>10697</name>
</trkpt>
<trkpt lat="41.820218" lon="-1.691197">
<ele>691.0</ele>
<speed>28.2</speed>
<course>43.2</course>
<desc>Speed 28.2 km/h Distance 55.77 km</desc>
<time>2011-09-24T12:54:47.51</time>
<name>10698</name>
</trkpt>
<trkpt lat="41.820270" lon="-1.691132">
<ele>690.5</ele>
<speed>27.9</speed>
<course>41.6</course>
<desc>Speed 27.9 km/h Distance 55.78 km</desc>
<time>2011-09-24T12:54:48.52</time>
<name>10699</name>
</trkpt>
<trkpt lat="41.820322" lon="-1.691070">
<ele>690.5</ele>
<speed>27.6</speed>
<course>43.3</course>
<desc>Speed 27.6 km/h Distance 55.78 km</desc>
<time>2011-09-24T12:54:49.52</time>
<name>10700</name>
</trkpt>
<trkpt lat="41.820372" lon="-1.691007">
<ele>690.5</ele>
<speed>27.5</speed>
<course>43.6</course>
<desc>Speed 27.5 km/h Distance 55.79 km</desc>
<time>2011-09-24T12:54:50.51</time>
<name>10701</name>
</trkpt>
<trkpt lat="41.820420" lon="-1.690945">
<ele>690.0</ele>
<speed>26.8</speed>
<course>46.8</course>
<desc>Speed 26.8 km/h Distance 55.80 km</desc>
<time>2011-09-24T12:54:51.51</time>
<name>10702</name>
</trkpt>
<trkpt lat="41.820467" lon="-1.690878">
<ele>690.0</ele>
<speed>27.3</speed>
<course>44.1</course>
<desc>Speed 27.3 km/h Distance 55.81 km</desc>
<time>2011-09-24T12:54:52.51</time>
<name>10703</name>
</trkpt>
<trkpt lat="41.820517" lon="-1.690813">
<ele>689.5</ele>
<speed>27.6</speed>
<course>45.8</course>
<desc>Speed 27.6 km/h Distance 55.81 km</desc>
<time>2011-09-24T12:54:53.51</time>
<name>10704</name>
</trkpt>
<trkpt lat="41.820565" lon="-1.690747">
<ele>689.5</ele>
<speed>27.7</speed>
<course>41.7</course>
<desc>Speed 27.7 km/h Distance 55.82 km</desc>
<time>2011-09-24T12:54:54.51</time>
<name>10705</name>
</trkpt>
<trkpt lat="41.820617" lon="-1.690685">
<ele>689.5</ele>
<speed>27.6</speed>
<course>43.3</course>
<desc>Speed 27.6 km/h Distance 55.83 km</desc>
<time>2011-09-24T12:54:55.51</time>
<name>10706</name>
</trkpt>
<trkpt lat="41.820667" lon="-1.690622">
<ele>689.0</ele>
<speed>27.8</speed>
<course>44.6</course>
<desc>Speed 27.8 km/h Distance 55.84 km</desc>
<time>2011-09-24T12:54:56.51</time>
<name>10707</name>
</trkpt>
<trkpt lat="41.820718" lon="-1.690553">
<ele>688.5</ele>
<speed>27.8</speed>
<course>44.4</course>
<desc>Speed 27.8 km/h Distance 55.85 km</desc>
<time>2011-09-24T12:54:57.51</time>
<name>10708</name>
</trkpt>
<trkpt lat="41.820772" lon="-1.690483">
<ele>688.0</ele>
<speed>28.0</speed>
<course>44.6</course>
<desc>Speed 28.0 km/h Distance 55.85 km</desc>
<time>2011-09-24T12:54:58.51</time>
<name>10709</name>
</trkpt>
<trkpt lat="41.820823" lon="-1.690415">
<ele>687.5</ele>
<speed>28.0</speed>
<course>42.4</course>
<desc>Speed 28.0 km/h Distance 55.86 km</desc>
<time>2011-09-24T12:54:59.51</time>
<name>10710</name>
</trkpt>
<trkpt lat="41.820875" lon="-1.690352">
<ele>687.5</ele>
<speed>28.2</speed>
<course>43.9</course>
<desc>Speed 28.2 km/h Distance 55.87 km</desc>
<time>2011-09-24T12:55:00.51</time>
<name>10711</name>
</trkpt>
<trkpt lat="41.820927" lon="-1.690285">
<ele>687.0</ele>
<speed>28.1</speed>
<course>43.2</course>
<desc>Speed 28.1 km/h Distance 55.88 km</desc>
<time>2011-09-24T12:55:01.50</time>
<name>10712</name>
</trkpt>
<trkpt lat="41.820978" lon="-1.690220">
<ele>687.0</ele>
<speed>28.5</speed>
<course>43.0</course>
<desc>Speed 28.5 km/h Distance 55.89 km</desc>
<time>2011-09-24T12:55:02.50</time>
<name>10713</name>
</trkpt>
<trkpt lat="41.821032" lon="-1.690153">
<ele>687.0</ele>
<speed>28.9</speed>
<course>46.2</course>
<desc>Speed 28.9 km/h Distance 55.89 km</desc>
<time>2011-09-24T12:55:03.50</time>
<name>10714</name>
</trkpt>
<trkpt lat="41.821082" lon="-1.690083">
<ele>687.5</ele>
<speed>28.6</speed>
<course>45.3</course>
<desc>Speed 28.6 km/h Distance 55.90 km</desc>
<time>2011-09-24T12:55:04.50</time>
<name>10715</name>
</trkpt>
<trkpt lat="41.821133" lon="-1.690013">
<ele>687.5</ele>
<speed>29.1</speed>
<course>43.9</course>
<desc>Speed 29.1 km/h Distance 55.91 km</desc>
<time>2011-09-24T12:55:05.51</time>
<name>10716</name>
</trkpt>
<trkpt lat="41.821185" lon="-1.689947">
<ele>687.5</ele>
<speed>29.1</speed>
<course>43.2</course>
<desc>Speed 29.1 km/h Distance 55.92 km</desc>
<time>2011-09-24T12:55:06.49</time>
<name>10717</name>
</trkpt>
<trkpt lat="41.821237" lon="-1.689882">
<ele>687.5</ele>
<speed>27.9</speed>
<course>44.1</course>
<desc>Speed 27.9 km/h Distance 55.93 km</desc>
<time>2011-09-24T12:55:07.49</time>
<name>10718</name>
</trkpt>
<trkpt lat="41.821287" lon="-1.689817">
<ele>687.5</ele>
<speed>27.7</speed>
<course>43.6</course>
<desc>Speed 27.7 km/h Distance 55.93 km</desc>
<time>2011-09-24T12:55:08.49</time>
<name>10719</name>
</trkpt>
<trkpt lat="41.821335" lon="-1.689755">
<ele>687.5</ele>
<speed>26.7</speed>
<course>45.3</course>
<desc>Speed 26.7 km/h Distance 55.94 km</desc>
<time>2011-09-24T12:55:09.49</time>
<name>10720</name>
</trkpt>
<trkpt lat="41.821382" lon="-1.689692">
<ele>687.0</ele>
<speed>26.4</speed>
<course>43.3</course>
<desc>Speed 26.4 km/h Distance 55.95 km</desc>
<time>2011-09-24T12:55:10.49</time>
<name>10721</name>
</trkpt>
<trkpt lat="41.821432" lon="-1.689628">
<ele>687.0</ele>
<speed>26.9</speed>
<course>42.6</course>
<desc>Speed 26.9 km/h Distance 55.96 km</desc>
<time>2011-09-24T12:55:11.50</time>
<name>10722</name>
</trkpt>
<trkpt lat="41.821482" lon="-1.689567">
<ele>687.0</ele>
<speed>27.5</speed>
<course>41.8</course>
<desc>Speed 27.5 km/h Distance 55.96 km</desc>
<time>2011-09-24T12:55:12.50</time>
<name>10723</name>
</trkpt>
<trkpt lat="41.821532" lon="-1.689507">
<ele>687.0</ele>
<speed>26.5</speed>
<course>38.4</course>
<desc>Speed 26.5 km/h Distance 55.97 km</desc>
<time>2011-09-24T12:55:13.50</time>
<name>10724</name>
</trkpt>
<trkpt lat="41.821583" lon="-1.689452">
<ele>687.0</ele>
<speed>26.4</speed>
<course>33.2</course>
<desc>Speed 26.4 km/h Distance 55.98 km</desc>
<time>2011-09-24T12:55:14.50</time>
<name>10725</name>
</trkpt>
<trkpt lat="41.821638" lon="-1.689403">
<ele>687.0</ele>
<speed>26.1</speed>
<course>37.5</course>
<desc>Speed 26.1 km/h Distance 55.99 km</desc>
<time>2011-09-24T12:55:15.49</time>
<name>10726</name>
</trkpt>
<trkpt lat="41.821692" lon="-1.689348">
<ele>689.0</ele>
<speed>26.5</speed>
<course>35.7</course>
<desc>Speed 26.5 km/h Distance 55.99 km</desc>
<time>2011-09-24T12:55:16.50</time>
<name>10727</name>
</trkpt>
<trkpt lat="41.821737" lon="-1.689305">
<ele>689.0</ele>
<speed>26.5</speed>
<course>30.5</course>
<desc>Speed 26.5 km/h Distance 56.00 km</desc>
<time>2011-09-24T12:55:17.49</time>
<name>10728</name>
</trkpt>
<trkpt lat="41.821800" lon="-1.689255">
<ele>689.0</ele>
<speed>27.1</speed>
<course>29.9</course>
<desc>Speed 27.1 km/h Distance 56.01 km</desc>
<time>2011-09-24T12:55:18.49</time>
<name>10729</name>
</trkpt>
<trkpt lat="41.821858" lon="-1.689210">
<ele>689.0</ele>
<speed>26.5</speed>
<course>28.7</course>
<desc>Speed 26.5 km/h Distance 56.02 km</desc>
<time>2011-09-24T12:55:19.48</time>
<name>10730</name>
</trkpt>
<trkpt lat="41.821915" lon="-1.689168">
<ele>686.5</ele>
<speed>25.6</speed>
<course>28.5</course>
<desc>Speed 25.6 km/h Distance 56.02 km</desc>
<time>2011-09-24T12:55:20.50</time>
<name>10731</name>
</trkpt>
<trkpt lat="41.821970" lon="-1.689128">
<ele>687.0</ele>
<speed>24.9</speed>
<course>13.0</course>
<desc>Speed 24.9 km/h Distance 56.03 km</desc>
<time>2011-09-24T12:55:21.49</time>
<name>10732</name>
</trkpt>
<trkpt lat="41.822040" lon="-1.689107">
<ele>687.0</ele>
<speed>28.2</speed>
<course>25.7</course>
<desc>Speed 28.2 km/h Distance 56.04 km</desc>
<time>2011-09-24T12:55:22.48</time>
<name>10733</name>
</trkpt>
<trkpt lat="41.822097" lon="-1.689070">
<ele>687.5</ele>
<speed>25.0</speed>
<course>26.1</course>
<desc>Speed 25.0 km/h Distance 56.04 km</desc>
<time>2011-09-24T12:55:23.49</time>
<name>10734</name>
</trkpt>
<trkpt lat="41.822155" lon="-1.689032">
<ele>687.5</ele>
<speed>25.2</speed>
<course>24.7</course>
<desc>Speed 25.2 km/h Distance 56.05 km</desc>
<time>2011-09-24T12:55:24.49</time>
<name>10735</name>
</trkpt>
<trkpt lat="41.822212" lon="-1.688997">
<ele>687.5</ele>
<speed>25.0</speed>
<course>25.7</course>
<desc>Speed 25.0 km/h Distance 56.06 km</desc>
<time>2011-09-24T12:55:25.48</time>
<name>10736</name>
</trkpt>
<trkpt lat="41.822268" lon="-1.688960">
<ele>687.0</ele>
<speed>24.2</speed>
<course>25.4</course>
<desc>Speed 24.2 km/h Distance 56.07 km</desc>
<time>2011-09-24T12:55:26.49</time>
<name>10737</name>
</trkpt>
<trkpt lat="41.822323" lon="-1.688925">
<ele>687.5</ele>
<speed>23.3</speed>
<course>26.4</course>
<desc>Speed 23.3 km/h Distance 56.07 km</desc>
<time>2011-09-24T12:55:27.49</time>
<name>10738</name>
</trkpt>
<trkpt lat="41.822373" lon="-1.688892">
<ele>687.5</ele>
<speed>21.5</speed>
<course>29.2</course>
<desc>Speed 21.5 km/h Distance 56.08 km</desc>
<time>2011-09-24T12:55:28.49</time>
<name>10739</name>
</trkpt>
<trkpt lat="41.822420" lon="-1.688857">
<ele>687.5</ele>
<speed>20.8</speed>
<course>27.7</course>
<desc>Speed 20.8 km/h Distance 56.08 km</desc>
<time>2011-09-24T12:55:29.49</time>
<name>10740</name>
</trkpt>
<trkpt lat="41.822465" lon="-1.688825">
<ele>687.5</ele>
<speed>19.4</speed>
<course>31.1</course>
<desc>Speed 19.4 km/h Distance 56.09 km</desc>
<time>2011-09-24T12:55:30.47</time>
<name>10741</name>
</trkpt>
<trkpt lat="41.822508" lon="-1.688790">
<ele>687.5</ele>
<speed>19.4</speed>
<course>32.2</course>
<desc>Speed 19.4 km/h Distance 56.10 km</desc>
<time>2011-09-24T12:55:31.48</time>
<name>10742</name>
</trkpt>
<trkpt lat="41.822552" lon="-1.688753">
<ele>687.5</ele>
<speed>19.0</speed>
<course>29.2</course>
<desc>Speed 19.0 km/h Distance 56.10 km</desc>
<time>2011-09-24T12:55:32.49</time>
<name>10743</name>
</trkpt>
<trkpt lat="41.822592" lon="-1.688723">
<ele>687.5</ele>
<speed>17.9</speed>
<course>25.6</course>
<desc>Speed 17.9 km/h Distance 56.11 km</desc>
<time>2011-09-24T12:55:33.48</time>
<name>10744</name>
</trkpt>
<trkpt lat="41.822638" lon="-1.688693">
<ele>687.0</ele>
<speed>19.8</speed>
<course>28.5</course>
<desc>Speed 19.8 km/h Distance 56.11 km</desc>
<time>2011-09-24T12:55:34.49</time>
<name>10745</name>
</trkpt>
<trkpt lat="41.822682" lon="-1.688662">
<ele>687.0</ele>
<speed>19.8</speed>
<course>8.3</course>
<desc>Speed 19.8 km/h Distance 56.12 km</desc>
<time>2011-09-24T12:55:35.48</time>
<name>10746</name>
</trkpt>
<trkpt lat="41.822742" lon="-1.688650">
<ele>687.5</ele>
<speed>24.0</speed>
<course>37.9</course>
<desc>Speed 24.0 km/h Distance 56.12 km</desc>
<time>2011-09-24T12:55:36.48</time>
<name>10747</name>
</trkpt>
<trkpt lat="41.822780" lon="-1.688610">
<ele>687.5</ele>
<speed>19.7</speed>
<course>28.2</course>
<desc>Speed 19.7 km/h Distance 56.13 km</desc>
<time>2011-09-24T12:55:37.47</time>
<name>10748</name>
</trkpt>
<trkpt lat="41.822822" lon="-1.688580">
<ele>687.0</ele>
<speed>18.6</speed>
<course>25.9</course>
<desc>Speed 18.6 km/h Distance 56.14 km</desc>
<time>2011-09-24T12:55:38.48</time>
<name>10749</name>
</trkpt>
<trkpt lat="41.822860" lon="-1.688555">
<ele>686.5</ele>
<speed>17.7</speed>
<course>22.9</course>
<desc>Speed 17.7 km/h Distance 56.14 km</desc>
<time>2011-09-24T12:55:39.48</time>
<name>10750</name>
</trkpt>
<trkpt lat="41.822898" lon="-1.688533">
<ele>686.5</ele>
<speed>16.7</speed>
<course>28.0</course>
<desc>Speed 16.7 km/h Distance 56.14 km</desc>
<time>2011-09-24T12:55:40.48</time>
<name>10751</name>
</trkpt>
<trkpt lat="41.822933" lon="-1.688508">
<ele>688.0</ele>
<speed>16.1</speed>
<course>24.8</course>
<desc>Speed 16.1 km/h Distance 56.15 km</desc>
<time>2011-09-24T12:55:41.47</time>
<name>10752</name>
</trkpt>
<trkpt lat="41.822968" lon="-1.688487">
<ele>687.5</ele>
<speed>15.9</speed>
<course>24.8</course>
<desc>Speed 15.9 km/h Distance 56.15 km</desc>
<time>2011-09-24T12:55:42.48</time>
<name>10753</name>
</trkpt>
<trkpt lat="41.823003" lon="-1.688465">
<ele>687.5</ele>
<speed>15.3</speed>
<course>19.5</course>
<desc>Speed 15.3 km/h Distance 56.16 km</desc>
<time>2011-09-24T12:55:43.48</time>
<name>10754</name>
</trkpt>
<trkpt lat="41.823035" lon="-1.688450">
<ele>687.5</ele>
<speed>13.6</speed>
<course>23.3</course>
<desc>Speed 13.6 km/h Distance 56.16 km</desc>
<time>2011-09-24T12:55:44.47</time>
<name>10755</name>
</trkpt>
<trkpt lat="41.823067" lon="-1.688432">
<ele>687.5</ele>
<speed>14.0</speed>
<course>27.6</course>
<desc>Speed 14.0 km/h Distance 56.17 km</desc>
<time>2011-09-24T12:55:45.47</time>
<name>10756</name>
</trkpt>
<trkpt lat="41.823100" lon="-1.688408">
<ele>687.5</ele>
<speed>15.2</speed>
<course>25.4</course>
<desc>Speed 15.2 km/h Distance 56.17 km</desc>
<time>2011-09-24T12:55:46.48</time>
<name>10757</name>
</trkpt>
<trkpt lat="41.823137" lon="-1.688385">
<ele>687.0</ele>
<speed>16.3</speed>
<course>31.1</course>
<desc>Speed 16.3 km/h Distance 56.17 km</desc>
<time>2011-09-24T12:55:47.47</time>
<name>10758</name>
</trkpt>
<trkpt lat="41.823172" lon="-1.688357">
<ele>686.5</ele>
<speed>16.6</speed>
<course>35.4</course>
<desc>Speed 16.6 km/h Distance 56.18 km</desc>
<time>2011-09-24T12:55:48.47</time>
<name>10759</name>
</trkpt>
<trkpt lat="41.823207" lon="-1.688323">
<ele>686.5</ele>
<speed>17.4</speed>
<course>34.1</course>
<desc>Speed 17.4 km/h Distance 56.18 km</desc>
<time>2011-09-24T12:55:49.47</time>
<name>10760</name>
</trkpt>
<trkpt lat="41.823243" lon="-1.688290">
<ele>686.5</ele>
<speed>17.9</speed>
<course>3.4</course>
<desc>Speed 17.9 km/h Distance 56.19 km</desc>
<time>2011-09-24T12:55:50.47</time>
<name>10761</name>
</trkpt>
<trkpt lat="41.823285" lon="-1.688287">
<ele>686.5</ele>
<speed>16.7</speed>
<course>344.9</course>
<desc>Speed 16.7 km/h Distance 56.19 km</desc>
<time>2011-09-24T12:55:51.46</time>
<name>10762</name>
</trkpt>
<trkpt lat="41.823327" lon="-1.688302">
<ele>686.5</ele>
<speed>17.7</speed>
<course>23.3</course>
<desc>Speed 17.7 km/h Distance 56.20 km</desc>
<time>2011-09-24T12:55:52.46</time>
<name>10763</name>
</trkpt>
<trkpt lat="41.823358" lon="-1.688283">
<ele>686.0</ele>
<speed>14.4</speed>
<course>42.7</course>
<desc>Speed 14.4 km/h Distance 56.20 km</desc>
<time>2011-09-24T12:55:53.45</time>
<name>10764</name>
</trkpt>
<trkpt lat="41.823387" lon="-1.688248">
<ele>686.5</ele>
<speed>15.2</speed>
<course>48.8</course>
<desc>Speed 15.2 km/h Distance 56.21 km</desc>
<time>2011-09-24T12:55:54.45</time>
<name>10765</name>
</trkpt>
<trkpt lat="41.823412" lon="-1.688210">
<ele>686.0</ele>
<speed>14.8</speed>
<course>42.3</course>
<desc>Speed 14.8 km/h Distance 56.21 km</desc>
<time>2011-09-24T12:55:55.46</time>
<name>10766</name>
</trkpt>
<trkpt lat="41.823442" lon="-1.688173">
<ele>686.0</ele>
<speed>16.4</speed>
<course>47.7</course>
<desc>Speed 16.4 km/h Distance 56.21 km</desc>
<time>2011-09-24T12:55:56.46</time>
<name>10767</name>
</trkpt>
<trkpt lat="41.823473" lon="-1.688127">
<ele>685.5</ele>
<speed>17.6</speed>
<course>47.6</course>
<desc>Speed 17.6 km/h Distance 56.22 km</desc>
<time>2011-09-24T12:55:57.46</time>
<name>10768</name>
</trkpt>
<trkpt lat="41.823502" lon="-1.688085">
<ele>686.0</ele>
<speed>17.3</speed>
<course>41.6</course>
<desc>Speed 17.3 km/h Distance 56.22 km</desc>
<time>2011-09-24T12:55:58.46</time>
<name>10769</name>
</trkpt>
<trkpt lat="41.823537" lon="-1.688043">
<ele>686.0</ele>
<speed>18.6</speed>
<course>37.9</course>
<desc>Speed 18.6 km/h Distance 56.23 km</desc>
<time>2011-09-24T12:55:59.46</time>
<name>10770</name>
</trkpt>
<trkpt lat="41.823573" lon="-1.688005">
<ele>686.0</ele>
<speed>19.1</speed>
<course>44.6</course>
<desc>Speed 19.1 km/h Distance 56.24 km</desc>
<time>2011-09-24T12:56:00.46</time>
<name>10771</name>
</trkpt>
<trkpt lat="41.823625" lon="-1.687937">
<ele>686.0</ele>
<speed>18.3</speed>
<course>43.4</course>
<desc>Speed 18.3 km/h Distance 56.24 km</desc>
<time>2011-09-24T12:56:02.45</time>
<name>10772</name>
</trkpt>
<trkpt lat="41.823650" lon="-1.687905">
<ele>686.0</ele>
<speed>13.4</speed>
<course>12.0</course>
<desc>Speed 13.4 km/h Distance 56.25 km</desc>
<time>2011-09-24T12:56:03.45</time>
<name>10773</name>
</trkpt>
<trkpt lat="41.823755" lon="-1.687875">
<ele>685.5</ele>
<speed>22.4</speed>
<course>27.3</course>
<desc>Speed 22.4 km/h Distance 56.26 km</desc>
<time>2011-09-24T12:56:05.45</time>
<name>10774</name>
</trkpt>
<trkpt lat="41.823798" lon="-1.687845">
<ele>685.5</ele>
<speed>19.1</speed>
<course>27.1</course>
<desc>Speed 19.1 km/h Distance 56.26 km</desc>
<time>2011-09-24T12:56:06.45</time>
<name>10775</name>
</trkpt>
<trkpt lat="41.823852" lon="-1.687808">
<ele>685.5</ele>
<speed>23.9</speed>
<course>25.7</course>
<desc>Speed 23.9 km/h Distance 56.27 km</desc>
<time>2011-09-24T12:56:07.45</time>
<name>10776</name>
</trkpt>
<trkpt lat="41.823903" lon="-1.687775">
<ele>685.0</ele>
<speed>22.5</speed>
<course>22.3</course>
<desc>Speed 22.5 km/h Distance 56.28 km</desc>
<time>2011-09-24T12:56:08.45</time>
<name>10777</name>
</trkpt>
<trkpt lat="41.823952" lon="-1.687748">
<ele>684.0</ele>
<speed>20.4</speed>
<course>13.6</course>
<desc>Speed 20.4 km/h Distance 56.28 km</desc>
<time>2011-09-24T12:56:09.45</time>
<name>10778</name>
</trkpt>
<trkpt lat="41.824080" lon="-1.687707">
<ele>684.0</ele>
<speed>23.9</speed>
<course>28.9</course>
<desc>Speed 23.9 km/h Distance 56.30 km</desc>
<time>2011-09-24T12:56:11.44</time>
<name>10779</name>
</trkpt>
<trkpt lat="41.824132" lon="-1.687668">
<ele>684.0</ele>
<speed>23.1</speed>
<course>23.4</course>
<desc>Speed 23.1 km/h Distance 56.30 km</desc>
<time>2011-09-24T12:56:12.44</time>
<name>10780</name>
</trkpt>
<trkpt lat="41.824183" lon="-1.687638">
<ele>683.0</ele>
<speed>22.4</speed>
<course>23.2</course>
<desc>Speed 22.4 km/h Distance 56.31 km</desc>
<time>2011-09-24T12:56:13.44</time>
<name>10781</name>
</trkpt>
<trkpt lat="41.824238" lon="-1.687607">
<ele>683.0</ele>
<speed>22.7</speed>
<course>32.6</course>
<desc>Speed 22.7 km/h Distance 56.32 km</desc>
<time>2011-09-24T12:56:14.45</time>
<name>10782</name>
</trkpt>
<trkpt lat="41.824285" lon="-1.687567">
<ele>682.5</ele>
<speed>21.7</speed>
<course>34.5</course>
<desc>Speed 21.7 km/h Distance 56.32 km</desc>
<time>2011-09-24T12:56:15.44</time>
<name>10783</name>
</trkpt>
<trkpt lat="41.824328" lon="-1.687527">
<ele>682.5</ele>
<speed>19.8</speed>
<course>40.3</course>
<desc>Speed 19.8 km/h Distance 56.33 km</desc>
<time>2011-09-24T12:56:16.44</time>
<name>10784</name>
</trkpt>
<trkpt lat="41.824365" lon="-1.687485">
<ele>682.5</ele>
<speed>18.0</speed>
<course>30.5</course>
<desc>Speed 18.0 km/h Distance 56.33 km</desc>
<time>2011-09-24T12:56:17.45</time>
<name>10785</name>
</trkpt>
<trkpt lat="41.824460" lon="-1.687410">
<ele>682.0</ele>
<speed>19.0</speed>
<course>62.1</course>
<desc>Speed 19.0 km/h Distance 56.35 km</desc>
<time>2011-09-24T12:56:19.44</time>
<name>10786</name>
</trkpt>
<trkpt lat="41.824485" lon="-1.687347">
<ele>681.5</ele>
<speed>21.1</speed>
<course>61.8</course>
<desc>Speed 21.1 km/h Distance 56.35 km</desc>
<time>2011-09-24T12:56:20.44</time>
<name>10787</name>
</trkpt>
<trkpt lat="41.824512" lon="-1.687280">
<ele>681.0</ele>
<speed>21.9</speed>
<course>55.4</course>
<desc>Speed 21.9 km/h Distance 56.36 km</desc>
<time>2011-09-24T12:56:21.44</time>
<name>10788</name>
</trkpt>
<trkpt lat="41.824542" lon="-1.687222">
<ele>681.0</ele>
<speed>20.5</speed>
<course>48.5</course>
<desc>Speed 20.5 km/h Distance 56.37 km</desc>
<time>2011-09-24T12:56:22.43</time>
<name>10789</name>
</trkpt>
<trkpt lat="41.824587" lon="-1.687153">
<ele>680.0</ele>
<speed>26.1</speed>
<course>52.7</course>
<desc>Speed 26.1 km/h Distance 56.37 km</desc>
<time>2011-09-24T12:56:23.43</time>
<name>10790</name>
</trkpt>
<trkpt lat="41.824622" lon="-1.687092">
<ele>680.5</ele>
<speed>22.8</speed>
<course>51.4</course>
<desc>Speed 22.8 km/h Distance 56.38 km</desc>
<time>2011-09-24T12:56:24.43</time>
<name>10791</name>
</trkpt>
<trkpt lat="41.824663" lon="-1.687022">
<ele>680.5</ele>
<speed>24.8</speed>
<course>45.3</course>
<desc>Speed 24.8 km/h Distance 56.39 km</desc>
<time>2011-09-24T12:56:25.43</time>
<name>10792</name>
</trkpt>
<trkpt lat="41.824710" lon="-1.686958">
<ele>680.0</ele>
<speed>25.8</speed>
<course>40.6</course>
<desc>Speed 25.8 km/h Distance 56.39 km</desc>
<time>2011-09-24T12:56:26.43</time>
<name>10793</name>
</trkpt>
<trkpt lat="41.824765" lon="-1.686895">
<ele>680.0</ele>
<speed>28.4</speed>
<course>37.4</course>
<desc>Speed 28.4 km/h Distance 56.40 km</desc>
<time>2011-09-24T12:56:27.43</time>
<name>10794</name>
</trkpt>
<trkpt lat="41.824827" lon="-1.686832">
<ele>680.0</ele>
<speed>29.7</speed>
<course>29.2</course>
<desc>Speed 29.7 km/h Distance 56.41 km</desc>
<time>2011-09-24T12:56:28.42</time>
<name>10795</name>
</trkpt>
<trkpt lat="41.824893" lon="-1.686782">
<ele>680.0</ele>
<speed>30.8</speed>
<course>27.9</course>
<desc>Speed 30.8 km/h Distance 56.42 km</desc>
<time>2011-09-24T12:56:29.43</time>
<name>10796</name>
</trkpt>
<trkpt lat="41.824968" lon="-1.686728">
<ele>680.0</ele>
<speed>33.9</speed>
<course>46.8</course>
<desc>Speed 33.9 km/h Distance 56.43 km</desc>
<time>2011-09-24T12:56:30.42</time>
<name>10797</name>
</trkpt>
<trkpt lat="41.825027" lon="-1.686645">
<ele>680.0</ele>
<speed>33.3</speed>
<course>41.2</course>
<desc>Speed 33.3 km/h Distance 56.44 km</desc>
<time>2011-09-24T12:56:31.43</time>
<name>10798</name>
</trkpt>
<trkpt lat="41.825093" lon="-1.686567">
<ele>680.0</ele>
<speed>32.9</speed>
<course>45.6</course>
<desc>Speed 32.9 km/h Distance 56.45 km</desc>
<time>2011-09-24T12:56:32.43</time>
<name>10799</name>
</trkpt>
<trkpt lat="41.825152" lon="-1.686487">
<ele>680.0</ele>
<speed>33.4</speed>
<course>48.7</course>
<desc>Speed 33.4 km/h Distance 56.46 km</desc>
<time>2011-09-24T12:56:33.43</time>
<name>10800</name>
</trkpt>
<trkpt lat="41.825208" lon="-1.686400">
<ele>679.5</ele>
<speed>33.4</speed>
<course>50.0</course>
<desc>Speed 33.4 km/h Distance 56.47 km</desc>
<time>2011-09-24T12:56:34.43</time>
<name>10801</name>
</trkpt>
<trkpt lat="41.825267" lon="-1.686307">
<ele>679.5</ele>
<speed>33.4</speed>
<course>48.7</course>
<desc>Speed 33.4 km/h Distance 56.48 km</desc>
<time>2011-09-24T12:56:35.43</time>
<name>10802</name>
</trkpt>
<trkpt lat="41.825327" lon="-1.686215">
<ele>679.0</ele>
<speed>33.5</speed>
<course>42.1</course>
<desc>Speed 33.5 km/h Distance 56.49 km</desc>
<time>2011-09-24T12:56:36.42</time>
<name>10803</name>
</trkpt>
<trkpt lat="41.825390" lon="-1.686138">
<ele>678.0</ele>
<speed>34.2</speed>
<course>41.3</course>
<desc>Speed 34.2 km/h Distance 56.50 km</desc>
<time>2011-09-24T12:56:37.42</time>
<name>10804</name>
</trkpt>
<trkpt lat="41.825455" lon="-1.686062">
<ele>678.0</ele>
<speed>34.5</speed>
<course>42.1</course>
<desc>Speed 34.5 km/h Distance 56.51 km</desc>
<time>2011-09-24T12:56:38.42</time>
<name>10805</name>
</trkpt>
<trkpt lat="41.825525" lon="-1.685977">
<ele>677.0</ele>
<speed>35.0</speed>
<course>39.2</course>
<desc>Speed 35.0 km/h Distance 56.52 km</desc>
<time>2011-09-24T12:56:39.42</time>
<name>10806</name>
</trkpt>
<trkpt lat="41.825595" lon="-1.685900">
<ele>676.5</ele>
<speed>35.7</speed>
<course>38.6</course>
<desc>Speed 35.7 km/h Distance 56.53 km</desc>
<time>2011-09-24T12:56:40.42</time>
<name>10807</name>
</trkpt>
<trkpt lat="41.825665" lon="-1.685825">
<ele>676.0</ele>
<speed>36.0</speed>
<course>38.6</course>
<desc>Speed 36.0 km/h Distance 56.54 km</desc>
<time>2011-09-24T12:56:41.42</time>
<name>10808</name>
</trkpt>
<trkpt lat="41.825737" lon="-1.685748">
<ele>675.5</ele>
<speed>36.4</speed>
<course>38.6</course>
<desc>Speed 36.4 km/h Distance 56.55 km</desc>
<time>2011-09-24T12:56:42.42</time>
<name>10809</name>
</trkpt>
<trkpt lat="41.825807" lon="-1.685673">
<ele>675.5</ele>
<speed>36.0</speed>
<course>38.0</course>
<desc>Speed 36.0 km/h Distance 56.56 km</desc>
<time>2011-09-24T12:56:43.42</time>
<name>10810</name>
</trkpt>
<trkpt lat="41.825878" lon="-1.685598">
<ele>675.0</ele>
<speed>36.4</speed>
<course>21.1</course>
<desc>Speed 36.4 km/h Distance 56.57 km</desc>
<time>2011-09-24T12:56:44.41</time>
<name>10811</name>
</trkpt>
<trkpt lat="41.825965" lon="-1.685553">
<ele>675.0</ele>
<speed>37.2</speed>
<course>23.3</course>
<desc>Speed 37.2 km/h Distance 56.58 km</desc>
<time>2011-09-24T12:56:45.42</time>
<name>10812</name>
</trkpt>
<trkpt lat="41.826052" lon="-1.685503">
<ele>673.5</ele>
<speed>37.7</speed>
<course>14.0</course>
<desc>Speed 37.7 km/h Distance 56.59 km</desc>
<time>2011-09-24T12:56:46.43</time>
<name>10813</name>
</trkpt>
<trkpt lat="41.826142" lon="-1.685473">
<ele>673.5</ele>
<speed>37.2</speed>
<course>11.5</course>
<desc>Speed 37.2 km/h Distance 56.60 km</desc>
<time>2011-09-24T12:56:47.41</time>
<name>10814</name>
</trkpt>
<trkpt lat="41.826233" lon="-1.685448">
<ele>674.0</ele>
<speed>37.6</speed>
<course>9.1</course>
<desc>Speed 37.6 km/h Distance 56.61 km</desc>
<time>2011-09-24T12:56:48.41</time>
<name>10815</name>
</trkpt>
<trkpt lat="41.826327" lon="-1.685428">
<ele>673.0</ele>
<speed>38.3</speed>
<course>10.5</course>
<desc>Speed 38.3 km/h Distance 56.62 km</desc>
<time>2011-09-24T12:56:49.42</time>
<name>10816</name>
</trkpt>
<trkpt lat="41.826420" lon="-1.685405">
<ele>672.5</ele>
<speed>38.1</speed>
<course>10.7</course>
<desc>Speed 38.1 km/h Distance 56.63 km</desc>
<time>2011-09-24T12:56:50.41</time>
<name>10817</name>
</trkpt>
<trkpt lat="41.826512" lon="-1.685382">
<ele>672.5</ele>
<speed>37.9</speed>
<course>11.5</course>
<desc>Speed 37.9 km/h Distance 56.64 km</desc>
<time>2011-09-24T12:56:51.41</time>
<name>10818</name>
</trkpt>
<trkpt lat="41.826603" lon="-1.685357">
<ele>672.0</ele>
<speed>37.5</speed>
<course>15.0</course>
<desc>Speed 37.5 km/h Distance 56.65 km</desc>
<time>2011-09-24T12:56:52.41</time>
<name>10819</name>
</trkpt>
<trkpt lat="41.826692" lon="-1.685325">
<ele>671.5</ele>
<speed>37.1</speed>
<course>17.5</course>
<desc>Speed 37.1 km/h Distance 56.66 km</desc>
<time>2011-09-24T12:56:53.41</time>
<name>10820</name>
</trkpt>
<trkpt lat="41.826778" lon="-1.685288">
<ele>671.5</ele>
<speed>36.2</speed>
<course>22.8</course>
<desc>Speed 36.2 km/h Distance 56.67 km</desc>
<time>2011-09-24T12:56:54.41</time>
<name>10821</name>
</trkpt>
<trkpt lat="41.826858" lon="-1.685243">
<ele>671.5</ele>
<speed>34.8</speed>
<course>30.1</course>
<desc>Speed 34.8 km/h Distance 56.68 km</desc>
<time>2011-09-24T12:56:55.42</time>
<name>10822</name>
</trkpt>
<trkpt lat="41.826933" lon="-1.685185">
<ele>672.0</ele>
<speed>33.9</speed>
<course>38.8</course>
<desc>Speed 33.9 km/h Distance 56.69 km</desc>
<time>2011-09-24T12:56:56.42</time>
<name>10823</name>
</trkpt>
<trkpt lat="41.826998" lon="-1.685115">
<ele>672.5</ele>
<speed>32.4</speed>
<course>44.2</course>
<desc>Speed 32.4 km/h Distance 56.70 km</desc>
<time>2011-09-24T12:56:57.42</time>
<name>10824</name>
</trkpt>
<trkpt lat="41.827058" lon="-1.685037">
<ele>673.5</ele>
<speed>32.0</speed>
<course>49.3</course>
<desc>Speed 32.0 km/h Distance 56.71 km</desc>
<time>2011-09-24T12:56:58.42</time>
<name>10825</name>
</trkpt>
<trkpt lat="41.827112" lon="-1.684953">
<ele>674.0</ele>
<speed>31.4</speed>
<course>48.2</course>
<desc>Speed 31.4 km/h Distance 56.72 km</desc>
<time>2011-09-24T12:56:59.41</time>
<name>10826</name>
</trkpt>
<trkpt lat="41.827165" lon="-1.684873">
<ele>674.0</ele>
<speed>30.7</speed>
<course>52.7</course>
<desc>Speed 30.7 km/h Distance 56.73 km</desc>
<time>2011-09-24T12:57:00.41</time>
<name>10827</name>
</trkpt>
<trkpt lat="41.827213" lon="-1.684788">
<ele>674.0</ele>
<speed>30.2</speed>
<course>50.8</course>
<desc>Speed 30.2 km/h Distance 56.74 km</desc>
<time>2011-09-24T12:57:01.40</time>
<name>10828</name>
</trkpt>
<trkpt lat="41.827260" lon="-1.684712">
<ele>673.5</ele>
<speed>29.3</speed>
<course>52.4</course>
<desc>Speed 29.3 km/h Distance 56.74 km</desc>
<time>2011-09-24T12:57:02.41</time>
<name>10829</name>
</trkpt>
<trkpt lat="41.827305" lon="-1.684633">
<ele>673.0</ele>
<speed>29.4</speed>
<course>53.5</course>
<desc>Speed 29.4 km/h Distance 56.75 km</desc>
<time>2011-09-24T12:57:03.42</time>
<name>10830</name>
</trkpt>
<trkpt lat="41.827350" lon="-1.684552">
<ele>673.0</ele>
<speed>29.4</speed>
<course>53.4</course>
<desc>Speed 29.4 km/h Distance 56.76 km</desc>
<time>2011-09-24T12:57:04.40</time>
<name>10831</name>
</trkpt>
<trkpt lat="41.827393" lon="-1.684473">
<ele>673.0</ele>
<speed>29.2</speed>
<course>52.9</course>
<desc>Speed 29.2 km/h Distance 56.77 km</desc>
<time>2011-09-24T12:57:05.40</time>
<name>10832</name>
</trkpt>
<trkpt lat="41.827438" lon="-1.684393">
<ele>673.0</ele>
<speed>29.4</speed>
<course>49.8</course>
<desc>Speed 29.4 km/h Distance 56.78 km</desc>
<time>2011-09-24T12:57:06.41</time>
<name>10833</name>
</trkpt>
<trkpt lat="41.827487" lon="-1.684317">
<ele>673.0</ele>
<speed>29.1</speed>
<course>50.1</course>
<desc>Speed 29.1 km/h Distance 56.79 km</desc>
<time>2011-09-24T12:57:07.40</time>
<name>10834</name>
</trkpt>
<trkpt lat="41.827533" lon="-1.684242">
<ele>672.5</ele>
<speed>29.0</speed>
<course>47.8</course>
<desc>Speed 29.0 km/h Distance 56.79 km</desc>
<time>2011-09-24T12:57:08.40</time>
<name>10835</name>
</trkpt>
<trkpt lat="41.827582" lon="-1.684170">
<ele>672.5</ele>
<speed>28.6</speed>
<course>49.5</course>
<desc>Speed 28.6 km/h Distance 56.80 km</desc>
<time>2011-09-24T12:57:09.40</time>
<name>10836</name>
</trkpt>
<trkpt lat="41.827628" lon="-1.684097">
<ele>672.0</ele>
<speed>28.1</speed>
<course>52.2</course>
<desc>Speed 28.1 km/h Distance 56.81 km</desc>
<time>2011-09-24T12:57:10.41</time>
<name>10837</name>
</trkpt>
<trkpt lat="41.827672" lon="-1.684022">
<ele>671.5</ele>
<speed>27.9</speed>
<course>52.2</course>
<desc>Speed 27.9 km/h Distance 56.82 km</desc>
<time>2011-09-24T12:57:11.40</time>
<name>10838</name>
</trkpt>
<trkpt lat="41.827715" lon="-1.683947">
<ele>671.0</ele>
<speed>27.3</speed>
<course>52.7</course>
<desc>Speed 27.3 km/h Distance 56.83 km</desc>
<time>2011-09-24T12:57:12.40</time>
<name>10839</name>
</trkpt>
<trkpt lat="41.827757" lon="-1.683873">
<ele>670.5</ele>
<speed>26.6</speed>
<course>51.4</course>
<desc>Speed 26.6 km/h Distance 56.83 km</desc>
<time>2011-09-24T12:57:13.40</time>
<name>10840</name>
</trkpt>
<trkpt lat="41.827798" lon="-1.683803">
<ele>670.0</ele>
<speed>26.8</speed>
<course>54.0</course>
<desc>Speed 26.8 km/h Distance 56.84 km</desc>
<time>2011-09-24T12:57:14.39</time>
<name>10841</name>
</trkpt>
<trkpt lat="41.827842" lon="-1.683723">
<ele>668.5</ele>
<speed>27.0</speed>
<course>51.2</course>
<desc>Speed 27.0 km/h Distance 56.85 km</desc>
<time>2011-09-24T12:57:15.40</time>
<name>10842</name>
</trkpt>
<trkpt lat="41.827887" lon="-1.683648">
<ele>667.0</ele>
<speed>27.1</speed>
<course>52.8</course>
<desc>Speed 27.1 km/h Distance 56.86 km</desc>
<time>2011-09-24T12:57:16.39</time>
<name>10843</name>
</trkpt>
<trkpt lat="41.827930" lon="-1.683572">
<ele>666.5</ele>
<speed>27.1</speed>
<course>51.2</course>
<desc>Speed 27.1 km/h Distance 56.86 km</desc>
<time>2011-09-24T12:57:17.39</time>
<name>10844</name>
</trkpt>
<trkpt lat="41.827975" lon="-1.683497">
<ele>665.5</ele>
<speed>26.9</speed>
<course>49.2</course>
<desc>Speed 26.9 km/h Distance 56.87 km</desc>
<time>2011-09-24T12:57:18.39</time>
<name>10845</name>
</trkpt>
<trkpt lat="41.828020" lon="-1.683427">
<ele>665.0</ele>
<speed>26.7</speed>
<course>49.6</course>
<desc>Speed 26.7 km/h Distance 56.88 km</desc>
<time>2011-09-24T12:57:19.39</time>
<name>10846</name>
</trkpt>
<trkpt lat="41.828063" lon="-1.683358">
<ele>664.5</ele>
<speed>26.4</speed>
<course>52.0</course>
<desc>Speed 26.4 km/h Distance 56.89 km</desc>
<time>2011-09-24T12:57:20.39</time>
<name>10847</name>
</trkpt>
<trkpt lat="41.828105" lon="-1.683287">
<ele>664.0</ele>
<speed>26.5</speed>
<course>52.0</course>
<desc>Speed 26.5 km/h Distance 56.89 km</desc>
<time>2011-09-24T12:57:21.39</time>
<name>10848</name>
</trkpt>
<trkpt lat="41.828147" lon="-1.683215">
<ele>663.5</ele>
<speed>26.5</speed>
<course>48.5</course>
<desc>Speed 26.5 km/h Distance 56.90 km</desc>
<time>2011-09-24T12:57:22.39</time>
<name>10849</name>
</trkpt>
<trkpt lat="41.828192" lon="-1.683147">
<ele>663.0</ele>
<speed>26.5</speed>
<course>50.7</course>
<desc>Speed 26.5 km/h Distance 56.91 km</desc>
<time>2011-09-24T12:57:23.39</time>
<name>10850</name>
</trkpt>
<trkpt lat="41.828233" lon="-1.683078">
<ele>662.5</ele>
<speed>26.1</speed>
<course>50.0</course>
<desc>Speed 26.1 km/h Distance 56.92 km</desc>
<time>2011-09-24T12:57:24.38</time>
<name>10851</name>
</trkpt>
<trkpt lat="41.828275" lon="-1.683012">
<ele>662.0</ele>
<speed>25.8</speed>
<course>50.7</course>
<desc>Speed 25.8 km/h Distance 56.92 km</desc>
<time>2011-09-24T12:57:25.38</time>
<name>10852</name>
</trkpt>
<trkpt lat="41.828317" lon="-1.682943">
<ele>662.0</ele>
<speed>25.6</speed>
<course>51.2</course>
<desc>Speed 25.6 km/h Distance 56.93 km</desc>
<time>2011-09-24T12:57:26.38</time>
<name>10853</name>
</trkpt>
<trkpt lat="41.828357" lon="-1.682877">
<ele>661.5</ele>
<speed>25.5</speed>
<course>50.5</course>
<desc>Speed 25.5 km/h Distance 56.94 km</desc>
<time>2011-09-24T12:57:27.38</time>
<name>10854</name>
</trkpt>
<trkpt lat="41.828397" lon="-1.682812">
<ele>661.0</ele>
<speed>24.9</speed>
<course>50.7</course>
<desc>Speed 24.9 km/h Distance 56.95 km</desc>
<time>2011-09-24T12:57:28.38</time>
<name>10855</name>
</trkpt>
<trkpt lat="41.828438" lon="-1.682743">
<ele>661.0</ele>
<speed>25.8</speed>
<course>52.0</course>
<desc>Speed 25.8 km/h Distance 56.95 km</desc>
<time>2011-09-24T12:57:29.38</time>
<name>10856</name>
</trkpt>
<trkpt lat="41.828480" lon="-1.682672">
<ele>660.5</ele>
<speed>26.9</speed>
<course>52.7</course>
<desc>Speed 26.9 km/h Distance 56.96 km</desc>
<time>2011-09-24T12:57:30.38</time>
<name>10857</name>
</trkpt>
<trkpt lat="41.828522" lon="-1.682598">
<ele>660.0</ele>
<speed>27.6</speed>
<course>51.2</course>
<desc>Speed 27.6 km/h Distance 56.97 km</desc>
<time>2011-09-24T12:57:31.38</time>
<name>10858</name>
</trkpt>
<trkpt lat="41.828567" lon="-1.682523">
<ele>659.5</ele>
<speed>28.1</speed>
<course>51.6</course>
<desc>Speed 28.1 km/h Distance 56.98 km</desc>
<time>2011-09-24T12:57:32.37</time>
<name>10859</name>
</trkpt>
<trkpt lat="41.828610" lon="-1.682450">
<ele>659.5</ele>
<speed>28.3</speed>
<course>51.2</course>
<desc>Speed 28.3 km/h Distance 56.98 km</desc>
<time>2011-09-24T12:57:33.37</time>
<name>10860</name>
</trkpt>
<trkpt lat="41.828655" lon="-1.682375">
<ele>659.5</ele>
<speed>28.5</speed>
<course>50.1</course>
<desc>Speed 28.5 km/h Distance 56.99 km</desc>
<time>2011-09-24T12:57:34.37</time>
<name>10861</name>
</trkpt>
<trkpt lat="41.828702" lon="-1.682300">
<ele>659.0</ele>
<speed>28.7</speed>
<course>50.1</course>
<desc>Speed 28.7 km/h Distance 57.00 km</desc>
<time>2011-09-24T12:57:35.38</time>
<name>10862</name>
</trkpt>
<trkpt lat="41.828748" lon="-1.682225">
<ele>659.0</ele>
<speed>28.8</speed>
<course>50.1</course>
<desc>Speed 28.8 km/h Distance 57.01 km</desc>
<time>2011-09-24T12:57:36.37</time>
<name>10863</name>
</trkpt>
<trkpt lat="41.828795" lon="-1.682150">
<ele>658.5</ele>
<speed>29.0</speed>
<course>50.1</course>
<desc>Speed 29.0 km/h Distance 57.02 km</desc>
<time>2011-09-24T12:57:37.37</time>
<name>10864</name>
</trkpt>
<trkpt lat="41.828842" lon="-1.682075">
<ele>658.0</ele>
<speed>28.8</speed>
<course>49.2</course>
<desc>Speed 28.8 km/h Distance 57.02 km</desc>
<time>2011-09-24T12:57:38.37</time>
<name>10865</name>
</trkpt>
<trkpt lat="41.828887" lon="-1.682005">
<ele>658.0</ele>
<speed>27.9</speed>
<course>50.5</course>
<desc>Speed 27.9 km/h Distance 57.03 km</desc>
<time>2011-09-24T12:57:39.37</time>
<name>10866</name>
</trkpt>
<trkpt lat="41.828932" lon="-1.681932">
<ele>658.0</ele>
<speed>27.8</speed>
<course>48.5</course>
<desc>Speed 27.8 km/h Distance 57.04 km</desc>
<time>2011-09-24T12:57:40.37</time>
<name>10867</name>
</trkpt>
<trkpt lat="41.828977" lon="-1.681863">
<ele>657.5</ele>
<speed>27.3</speed>
<course>50.3</course>
<desc>Speed 27.3 km/h Distance 57.05 km</desc>
<time>2011-09-24T12:57:41.37</time>
<name>10868</name>
</trkpt>
<trkpt lat="41.829020" lon="-1.681793">
<ele>657.5</ele>
<speed>26.7</speed>
<course>50.7</course>
<desc>Speed 26.7 km/h Distance 57.06 km</desc>
<time>2011-09-24T12:57:42.37</time>
<name>10869</name>
</trkpt>
<trkpt lat="41.829062" lon="-1.681725">
<ele>657.0</ele>
<speed>26.3</speed>
<course>48.9</course>
<desc>Speed 26.3 km/h Distance 57.06 km</desc>
<time>2011-09-24T12:57:43.37</time>
<name>10870</name>
</trkpt>
<trkpt lat="41.829105" lon="-1.681658">
<ele>657.0</ele>
<speed>26.1</speed>
<course>53.7</course>
<desc>Speed 26.1 km/h Distance 57.07 km</desc>
<time>2011-09-24T12:57:44.36</time>
<name>10871</name>
</trkpt>
<trkpt lat="41.829143" lon="-1.681588">
<ele>656.5</ele>
<speed>25.8</speed>
<course>51.2</course>
<desc>Speed 25.8 km/h Distance 57.08 km</desc>
<time>2011-09-24T12:57:45.36</time>
<name>10872</name>
</trkpt>
<trkpt lat="41.829183" lon="-1.681522">
<ele>656.5</ele>
<speed>25.6</speed>
<course>51.2</course>
<desc>Speed 25.6 km/h Distance 57.08 km</desc>
<time>2011-09-24T12:57:46.37</time>
<name>10873</name>
</trkpt>
<trkpt lat="41.829223" lon="-1.681455">
<ele>656.5</ele>
<speed>25.3</speed>
<course>54.2</course>
<desc>Speed 25.3 km/h Distance 57.09 km</desc>
<time>2011-09-24T12:57:47.36</time>
<name>10874</name>
</trkpt>
<trkpt lat="41.829260" lon="-1.681387">
<ele>656.0</ele>
<speed>25.2</speed>
<course>54.2</course>
<desc>Speed 25.2 km/h Distance 57.10 km</desc>
<time>2011-09-24T12:57:48.36</time>
<name>10875</name>
</trkpt>
<trkpt lat="41.829297" lon="-1.681318">
<ele>656.0</ele>
<speed>24.9</speed>
<course>49.0</course>
<desc>Speed 24.9 km/h Distance 57.11 km</desc>
<time>2011-09-24T12:57:49.36</time>
<name>10876</name>
</trkpt>
<trkpt lat="41.829337" lon="-1.681257">
<ele>656.0</ele>
<speed>24.6</speed>
<course>49.0</course>
<desc>Speed 24.6 km/h Distance 57.11 km</desc>
<time>2011-09-24T12:57:50.36</time>
<name>10877</name>
</trkpt>
<trkpt lat="41.829377" lon="-1.681195">
<ele>656.0</ele>
<speed>24.4</speed>
<course>52.9</course>
<desc>Speed 24.4 km/h Distance 57.12 km</desc>
<time>2011-09-24T12:57:51.36</time>
<name>10878</name>
</trkpt>
<trkpt lat="41.829413" lon="-1.681130">
<ele>655.5</ele>
<speed>24.1</speed>
<course>66.4</course>
<desc>Speed 24.1 km/h Distance 57.13 km</desc>
<time>2011-09-24T12:57:52.36</time>
<name>10879</name>
</trkpt>
<trkpt lat="41.829437" lon="-1.681058">
<ele>655.5</ele>
<speed>23.7</speed>
<course>72.2</course>
<desc>Speed 23.7 km/h Distance 57.13 km</desc>
<time>2011-09-24T12:57:53.36</time>
<name>10880</name>
</trkpt>
<trkpt lat="41.829455" lon="-1.680982">
<ele>655.5</ele>
<speed>23.5</speed>
<course>73.2</course>
<desc>Speed 23.5 km/h Distance 57.14 km</desc>
<time>2011-09-24T12:57:54.36</time>
<name>10881</name>
</trkpt>
<trkpt lat="41.829473" lon="-1.680900">
<ele>654.5</ele>
<speed>25.4</speed>
<course>70.4</course>
<desc>Speed 25.4 km/h Distance 57.15 km</desc>
<time>2011-09-24T12:57:55.36</time>
<name>10882</name>
</trkpt>
<trkpt lat="41.829495" lon="-1.680818">
<ele>654.5</ele>
<speed>26.0</speed>
<course>66.8</course>
<desc>Speed 26.0 km/h Distance 57.15 km</desc>
<time>2011-09-24T12:57:56.36</time>
<name>10883</name>
</trkpt>
<trkpt lat="41.829520" lon="-1.680740">
<ele>654.5</ele>
<speed>25.3</speed>
<course>50.4</course>
<desc>Speed 25.3 km/h Distance 57.16 km</desc>
<time>2011-09-24T12:57:57.35</time>
<name>10884</name>
</trkpt>
<trkpt lat="41.829568" lon="-1.680662">
<ele>657.5</ele>
<speed>12.9</speed>
<course>345.3</course>
<desc>Speed 12.9 km/h Distance 57.17 km</desc>
<time>2011-09-24T12:57:59.35</time>
<name>10885</name>
</trkpt>
<trkpt lat="41.829592" lon="-1.680670">
<ele>657.5</ele>
<speed>9.9</speed>
<course>181.2</course>
<desc>Speed 9.9 km/h Distance 57.17 km</desc>
<time>2011-09-24T12:58:00.35</time>
<name>10886</name>
</trkpt>
<trkpt lat="41.829578" lon="-1.680672">
<ele>658.5</ele>
<speed>5.7</speed>
<course>181.2</course>
<desc>Speed 5.7 km/h Distance 57.17 km</desc>
<time>2011-09-24T12:58:01.35</time>
<name>10887</name>
</trkpt>
</trkseg>
</trk>
</gpx>
